<?xml version='1.0' encoding='UTF-8'?><gpx version="1.1" creator="JPX - https://github.com/jenetics/jpx" xmlns="http://www.topografix.com/GPX/1/1"><trk><trkseg><trkpt lat="44.0037139" lon="12.4337415"><ele>90.0</ele><time>2026-03-22T08:19:35.97Z</time></trkpt><trkpt lat="44.0036925" lon="12.4336402"><ele>90.0</ele><time>2026-03-22T08:21:31.97Z</time></trkpt><trkpt lat="44.0036541" lon="12.4335206"><ele>90.0</ele><time>2026-03-22T08:21:33.971Z</time></trkpt><trkpt lat="44.0036114" lon="12.4334219"><ele>90.0</ele><time>2026-03-22T08:21:35.969Z</time></trkpt><trkpt lat="44.0035671" lon="12.4333366"><ele>90.0</ele><time>2026-03-22T08:21:37.971Z</time></trkpt><trkpt lat="44.0035083" lon="12.4332855"><ele>90.0</ele><time>2026-03-22T08:21:40.97Z</time></trkpt><trkpt lat="44.0034594" lon="12.4333588"><ele>90.0</ele><time>2026-03-22T08:22:44.971Z</time></trkpt><trkpt lat="44.003436" lon="12.4334551"><ele>90.0</ele><time>2026-03-22T08:22:47.971Z</time></trkpt><trkpt lat="44.0035054" lon="12.4335948"><ele>90.0</ele><time>2026-03-22T08:22:49.971Z</time></trkpt><trkpt lat="44.0035503" lon="12.4336801"><ele>90.0</ele><time>2026-03-22T08:22:50.971Z</time></trkpt><trkpt lat="44.0035964" lon="12.4337699"><ele>90.0</ele><time>2026-03-22T08:22:51.971Z</time></trkpt><trkpt lat="44.003646" lon="12.4338649"><ele>90.0</ele><time>2026-03-22T08:22:52.97Z</time></trkpt><trkpt lat="44.0036943" lon="12.433957"><ele>89.83333333333333</ele><time>2026-03-22T08:22:53.971Z</time></trkpt><trkpt lat="44.0037398" lon="12.4340472"><ele>89.66666666666667</ele><time>2026-03-22T08:22:54.97Z</time></trkpt><trkpt lat="44.0037873" lon="12.4341387"><ele>89.5</ele><time>2026-03-22T08:22:55.97Z</time></trkpt><trkpt lat="44.003831" lon="12.4342338"><ele>89.33333333333334</ele><time>2026-03-22T08:22:56.971Z</time></trkpt><trkpt lat="44.0038739" lon="12.4343192"><ele>89.16666666666667</ele><time>2026-03-22T08:22:57.971Z</time></trkpt><trkpt lat="44.003922" lon="12.4344152"><ele>89.0</ele><time>2026-03-22T08:22:58.97Z</time></trkpt><trkpt lat="44.0039679" lon="12.4345086"><ele>89.0</ele><time>2026-03-22T08:22:59.97Z</time></trkpt><trkpt lat="44.0040126" lon="12.4346061"><ele>89.0</ele><time>2026-03-22T08:23:00.971Z</time></trkpt><trkpt lat="44.0040565" lon="12.4347069"><ele>89.0</ele><time>2026-03-22T08:23:01.97Z</time></trkpt><trkpt lat="44.0040995" lon="12.4348108"><ele>89.0</ele><time>2026-03-22T08:23:02.969Z</time></trkpt><trkpt lat="44.0041527" lon="12.4349064"><ele>89.0</ele><time>2026-03-22T08:23:03.97Z</time></trkpt><trkpt lat="44.0042073" lon="12.4350021"><ele>89.0</ele><time>2026-03-22T08:23:04.969Z</time></trkpt><trkpt lat="44.0042573" lon="12.435091"><ele>89.0</ele><time>2026-03-22T08:23:05.971Z</time></trkpt><trkpt lat="44.0043002" lon="12.4351739"><ele>89.0</ele><time>2026-03-22T08:23:06.971Z</time></trkpt><trkpt lat="44.0043461" lon="12.4352624"><ele>89.0</ele><time>2026-03-22T08:23:07.971Z</time></trkpt><trkpt lat="44.0043927" lon="12.4353467"><ele>89.0</ele><time>2026-03-22T08:23:08.971Z</time></trkpt><trkpt lat="44.0044433" lon="12.4354423"><ele>89.0</ele><time>2026-03-22T08:23:09.97Z</time></trkpt><trkpt lat="44.0044936" lon="12.4355427"><ele>89.0</ele><time>2026-03-22T08:23:10.97Z</time></trkpt><trkpt lat="44.0045472" lon="12.43564"><ele>89.0</ele><time>2026-03-22T08:23:11.97Z</time></trkpt><trkpt lat="44.0046044" lon="12.4357334"><ele>89.0</ele><time>2026-03-22T08:23:12.971Z</time></trkpt><trkpt lat="44.0046596" lon="12.4358186"><ele>89.0</ele><time>2026-03-22T08:23:13.97Z</time></trkpt><trkpt lat="44.0047224" lon="12.4359107"><ele>89.0</ele><time>2026-03-22T08:23:14.97Z</time></trkpt><trkpt lat="44.0047899" lon="12.4360213"><ele>89.0</ele><time>2026-03-22T08:23:15.971Z</time></trkpt><trkpt lat="44.0048598" lon="12.4361279"><ele>89.0</ele><time>2026-03-22T08:23:16.97Z</time></trkpt><trkpt lat="44.0049372" lon="12.436239"><ele>89.0</ele><time>2026-03-22T08:23:17.971Z</time></trkpt><trkpt lat="44.0050144" lon="12.4363497"><ele>89.0</ele><time>2026-03-22T08:23:18.971Z</time></trkpt><trkpt lat="44.0050928" lon="12.436463"><ele>89.0</ele><time>2026-03-22T08:23:19.97Z</time></trkpt><trkpt lat="44.0051732" lon="12.436577"><ele>88.6</ele><time>2026-03-22T08:23:20.971Z</time></trkpt><trkpt lat="44.0052539" lon="12.4366915"><ele>88.2</ele><time>2026-03-22T08:23:21.971Z</time></trkpt><trkpt lat="44.0053269" lon="12.436796"><ele>87.8</ele><time>2026-03-22T08:23:22.971Z</time></trkpt><trkpt lat="44.0053939" lon="12.4368912"><ele>87.39999999999999</ele><time>2026-03-22T08:23:23.97Z</time></trkpt><trkpt lat="44.005462" lon="12.4369907"><ele>87.0</ele><time>2026-03-22T08:23:24.969Z</time></trkpt><trkpt lat="44.0055359" lon="12.4370913"><ele>86.8</ele><time>2026-03-22T08:23:25.971Z</time></trkpt><trkpt lat="44.0056125" lon="12.437196"><ele>86.6</ele><time>2026-03-22T08:23:26.97Z</time></trkpt><trkpt lat="44.0056918" lon="12.4372965"><ele>86.39999999999999</ele><time>2026-03-22T08:23:27.971Z</time></trkpt><trkpt lat="44.0057713" lon="12.4373991"><ele>86.19999999999999</ele><time>2026-03-22T08:23:28.971Z</time></trkpt><trkpt lat="44.0058515" lon="12.437508"><ele>86.0</ele><time>2026-03-22T08:23:29.97Z</time></trkpt><trkpt lat="44.0059274" lon="12.4376101"><ele>85.83333333333334</ele><time>2026-03-22T08:23:30.971Z</time></trkpt><trkpt lat="44.0059955" lon="12.4377018"><ele>85.66666666666667</ele><time>2026-03-22T08:23:31.971Z</time></trkpt><trkpt lat="44.0060599" lon="12.4377886"><ele>85.5</ele><time>2026-03-22T08:23:32.971Z</time></trkpt><trkpt lat="44.0061193" lon="12.4378638"><ele>85.33333333333333</ele><time>2026-03-22T08:23:33.971Z</time></trkpt><trkpt lat="44.0061777" lon="12.4379295"><ele>85.16666666666666</ele><time>2026-03-22T08:23:34.971Z</time></trkpt><trkpt lat="44.0062354" lon="12.437995"><ele>85.0</ele><time>2026-03-22T08:23:35.97Z</time></trkpt><trkpt lat="44.0062977" lon="12.4380692"><ele>85.0</ele><time>2026-03-22T08:23:36.971Z</time></trkpt><trkpt lat="44.0063642" lon="12.4381551"><ele>85.0</ele><time>2026-03-22T08:23:37.97Z</time></trkpt><trkpt lat="44.0064341" lon="12.4382529"><ele>85.0</ele><time>2026-03-22T08:23:38.971Z</time></trkpt><trkpt lat="44.0065069" lon="12.4383503"><ele>85.0</ele><time>2026-03-22T08:23:39.969Z</time></trkpt><trkpt lat="44.0065816" lon="12.4384557"><ele>85.0</ele><time>2026-03-22T08:23:40.97Z</time></trkpt><trkpt lat="44.0066594" lon="12.4385601"><ele>84.6</ele><time>2026-03-22T08:23:41.971Z</time></trkpt><trkpt lat="44.0067343" lon="12.4386615"><ele>84.2</ele><time>2026-03-22T08:23:42.97Z</time></trkpt><trkpt lat="44.0068109" lon="12.438764"><ele>83.80000000000001</ele><time>2026-03-22T08:23:43.97Z</time></trkpt><trkpt lat="44.0068901" lon="12.4388669"><ele>83.4</ele><time>2026-03-22T08:23:44.971Z</time></trkpt><trkpt lat="44.0069705" lon="12.4389758"><ele>83.0</ele><time>2026-03-22T08:23:45.97Z</time></trkpt><trkpt lat="44.0070467" lon="12.4390827"><ele>83.0</ele><time>2026-03-22T08:23:46.97Z</time></trkpt><trkpt lat="44.007125" lon="12.4391878"><ele>83.0</ele><time>2026-03-22T08:23:47.971Z</time></trkpt><trkpt lat="44.0072012" lon="12.4392948"><ele>83.0</ele><time>2026-03-22T08:23:48.97Z</time></trkpt><trkpt lat="44.0072789" lon="12.4394001"><ele>83.0</ele><time>2026-03-22T08:23:49.97Z</time></trkpt><trkpt lat="44.0073603" lon="12.4395038"><ele>83.0</ele><time>2026-03-22T08:23:50.97Z</time></trkpt><trkpt lat="44.0074388" lon="12.4396094"><ele>82.75</ele><time>2026-03-22T08:23:51.971Z</time></trkpt><trkpt lat="44.0075199" lon="12.4397235"><ele>82.5</ele><time>2026-03-22T08:23:52.971Z</time></trkpt><trkpt lat="44.0076065" lon="12.4398404"><ele>82.25</ele><time>2026-03-22T08:23:53.97Z</time></trkpt><trkpt lat="44.0076966" lon="12.4399606"><ele>82.0</ele><time>2026-03-22T08:23:54.971Z</time></trkpt><trkpt lat="44.0077853" lon="12.440076"><ele>82.0</ele><time>2026-03-22T08:23:55.971Z</time></trkpt><trkpt lat="44.007874" lon="12.4401872"><ele>82.0</ele><time>2026-03-22T08:23:56.97Z</time></trkpt><trkpt lat="44.0079609" lon="12.4403034"><ele>82.0</ele><time>2026-03-22T08:23:57.97Z</time></trkpt><trkpt lat="44.0080469" lon="12.4404198"><ele>82.0</ele><time>2026-03-22T08:23:58.971Z</time></trkpt><trkpt lat="44.0081356" lon="12.4405401"><ele>81.75</ele><time>2026-03-22T08:23:59.971Z</time></trkpt><trkpt lat="44.0082252" lon="12.440663"><ele>81.5</ele><time>2026-03-22T08:24:00.971Z</time></trkpt><trkpt lat="44.0083112" lon="12.4407814"><ele>81.25</ele><time>2026-03-22T08:24:01.971Z</time></trkpt><trkpt lat="44.0083882" lon="12.4408872"><ele>81.0</ele><time>2026-03-22T08:24:02.97Z</time></trkpt><trkpt lat="44.0084618" lon="12.4409799"><ele>80.8</ele><time>2026-03-22T08:24:03.971Z</time></trkpt><trkpt lat="44.0085302" lon="12.4410697"><ele>80.6</ele><time>2026-03-22T08:24:04.97Z</time></trkpt><trkpt lat="44.0085957" lon="12.4411581"><ele>80.4</ele><time>2026-03-22T08:24:05.97Z</time></trkpt><trkpt lat="44.0086622" lon="12.4412462"><ele>80.2</ele><time>2026-03-22T08:24:06.97Z</time></trkpt><trkpt lat="44.0087282" lon="12.4413378"><ele>80.0</ele><time>2026-03-22T08:24:07.97Z</time></trkpt><trkpt lat="44.0087931" lon="12.4414272"><ele>79.8</ele><time>2026-03-22T08:24:08.97Z</time></trkpt><trkpt lat="44.0088653" lon="12.4415192"><ele>79.6</ele><time>2026-03-22T08:24:09.97Z</time></trkpt><trkpt lat="44.0089298" lon="12.4416072"><ele>79.4</ele><time>2026-03-22T08:24:10.97Z</time></trkpt><trkpt lat="44.0089972" lon="12.4416957"><ele>79.2</ele><time>2026-03-22T08:24:11.97Z</time></trkpt><trkpt lat="44.0090615" lon="12.4417858"><ele>79.0</ele><time>2026-03-22T08:24:12.97Z</time></trkpt><trkpt lat="44.0091329" lon="12.4418815"><ele>79.0</ele><time>2026-03-22T08:24:13.971Z</time></trkpt><trkpt lat="44.0092003" lon="12.4419733"><ele>79.0</ele><time>2026-03-22T08:24:14.971Z</time></trkpt><trkpt lat="44.0092705" lon="12.4420711"><ele>79.0</ele><time>2026-03-22T08:24:15.971Z</time></trkpt><trkpt lat="44.0093426" lon="12.4421712"><ele>79.0</ele><time>2026-03-22T08:24:16.97Z</time></trkpt><trkpt lat="44.0094213" lon="12.4422773"><ele>79.0</ele><time>2026-03-22T08:24:17.969Z</time></trkpt><trkpt lat="44.0095064" lon="12.442392"><ele>79.2</ele><time>2026-03-22T08:24:18.97Z</time></trkpt><trkpt lat="44.0095938" lon="12.4425099"><ele>79.4</ele><time>2026-03-22T08:24:19.97Z</time></trkpt><trkpt lat="44.009675" lon="12.4426173"><ele>79.6</ele><time>2026-03-22T08:24:20.97Z</time></trkpt><trkpt lat="44.0097483" lon="12.4427209"><ele>79.8</ele><time>2026-03-22T08:24:21.971Z</time></trkpt><trkpt lat="44.0098167" lon="12.4428151"><ele>80.0</ele><time>2026-03-22T08:24:22.971Z</time></trkpt><trkpt lat="44.0098745" lon="12.4428929"><ele>79.8</ele><time>2026-03-22T08:24:23.97Z</time></trkpt><trkpt lat="44.0099252" lon="12.4429644"><ele>79.6</ele><time>2026-03-22T08:24:24.969Z</time></trkpt><trkpt lat="44.0099581" lon="12.4431095"><ele>79.4</ele><time>2026-03-22T08:24:26.97Z</time></trkpt><trkpt lat="44.0098858" lon="12.4432628"><ele>79.2</ele><time>2026-03-22T08:24:28.971Z</time></trkpt><trkpt lat="44.0097999" lon="12.4433782"><ele>79.0</ele><time>2026-03-22T08:24:29.97Z</time></trkpt><trkpt lat="44.0096947" lon="12.4435134"><ele>79.0</ele><time>2026-03-22T08:24:30.969Z</time></trkpt><trkpt lat="44.0095912" lon="12.4436523"><ele>79.0</ele><time>2026-03-22T08:24:31.97Z</time></trkpt><trkpt lat="44.0094791" lon="12.443801"><ele>79.0</ele><time>2026-03-22T08:24:32.971Z</time></trkpt><trkpt lat="44.0093495" lon="12.4439845"><ele>78.66666666666666</ele><time>2026-03-22T08:24:33.971Z</time></trkpt><trkpt lat="44.0092281" lon="12.4441698"><ele>78.33333333333333</ele><time>2026-03-22T08:24:34.971Z</time></trkpt><trkpt lat="44.0091287" lon="12.4443421"><ele>78.0</ele><time>2026-03-22T08:24:35.971Z</time></trkpt><trkpt lat="44.0090455" lon="12.4445053"><ele>82.75</ele><time>2026-03-22T08:24:36.97Z</time></trkpt><trkpt lat="44.0089755" lon="12.4446579"><ele>87.5</ele><time>2026-03-22T08:24:37.971Z</time></trkpt><trkpt lat="44.0089144" lon="12.4447979"><ele>92.25</ele><time>2026-03-22T08:24:38.971Z</time></trkpt><trkpt lat="44.0088523" lon="12.4449432"><ele>97.0</ele><time>2026-03-22T08:24:39.971Z</time></trkpt><trkpt lat="44.0087889" lon="12.4450945"><ele>97.0</ele><time>2026-03-22T08:24:40.971Z</time></trkpt><trkpt lat="44.0087155" lon="12.4452318"><ele>97.0</ele><time>2026-03-22T08:24:41.971Z</time></trkpt><trkpt lat="44.0086254" lon="12.4453405"><ele>97.0</ele><time>2026-03-22T08:24:42.971Z</time></trkpt><trkpt lat="44.0084985" lon="12.4454473"><ele>97.0</ele><time>2026-03-22T08:24:43.971Z</time></trkpt><trkpt lat="44.0083594" lon="12.4455444"><ele>98.8</ele><time>2026-03-22T08:24:44.971Z</time></trkpt><trkpt lat="44.0082445" lon="12.4456189"><ele>100.6</ele><time>2026-03-22T08:24:45.971Z</time></trkpt><trkpt lat="44.0081444" lon="12.4456878"><ele>102.39999999999999</ele><time>2026-03-22T08:24:46.971Z</time></trkpt><trkpt lat="44.0080635" lon="12.4457589"><ele>104.19999999999999</ele><time>2026-03-22T08:24:47.971Z</time></trkpt><trkpt lat="44.0079929" lon="12.4458319"><ele>106.0</ele><time>2026-03-22T08:24:48.97Z</time></trkpt><trkpt lat="44.007924" lon="12.445904"><ele>106.00000000000001</ele><time>2026-03-22T08:24:49.971Z</time></trkpt><trkpt lat="44.0078637" lon="12.4459749"><ele>106.0</ele><time>2026-03-22T08:24:50.971Z</time></trkpt><trkpt lat="44.0078149" lon="12.4460378"><ele>106.0</ele><time>2026-03-22T08:24:51.971Z</time></trkpt><trkpt lat="44.0077409" lon="12.4461184"><ele>106.0</ele><time>2026-03-22T08:24:53.971Z</time></trkpt><trkpt lat="44.007675" lon="12.4461884"><ele>106.00000000000001</ele><time>2026-03-22T08:24:55.97Z</time></trkpt><trkpt lat="44.007635" lon="12.446262"><ele>106.0</ele><time>2026-03-22T08:24:58.971Z</time></trkpt><trkpt lat="44.0076757" lon="12.4463431"><ele>106.19999999999999</ele><time>2026-03-22T08:25:00.969Z</time></trkpt><trkpt lat="44.0077414" lon="12.4464122"><ele>106.39999999999999</ele><time>2026-03-22T08:25:01.971Z</time></trkpt><trkpt lat="44.0078362" lon="12.4465098"><ele>106.6</ele><time>2026-03-22T08:25:02.97Z</time></trkpt><trkpt lat="44.0079261" lon="12.4466001"><ele>106.8</ele><time>2026-03-22T08:25:03.97Z</time></trkpt><trkpt lat="44.008013" lon="12.4466805"><ele>107.0</ele><time>2026-03-22T08:25:04.97Z</time></trkpt><trkpt lat="44.008102" lon="12.4467405"><ele>107.0</ele><time>2026-03-22T08:25:05.97Z</time></trkpt><trkpt lat="44.0081902" lon="12.4467889"><ele>106.99999999999999</ele><time>2026-03-22T08:25:06.971Z</time></trkpt><trkpt lat="44.0082851" lon="12.4468473"><ele>106.99999999999999</ele><time>2026-03-22T08:25:07.971Z</time></trkpt><trkpt lat="44.0083897" lon="12.4469199"><ele>107.0</ele><time>2026-03-22T08:25:08.971Z</time></trkpt><trkpt lat="44.0084901" lon="12.4470198"><ele>107.0</ele><time>2026-03-22T08:25:09.971Z</time></trkpt><trkpt lat="44.0085888" lon="12.4471335"><ele>105.66666666666666</ele><time>2026-03-22T08:25:10.971Z</time></trkpt><trkpt lat="44.0086955" lon="12.447242"><ele>104.33333333333334</ele><time>2026-03-22T08:25:11.969Z</time></trkpt><trkpt lat="44.0088483" lon="12.447339"><ele>103.0</ele><time>2026-03-22T08:25:12.969Z</time></trkpt><trkpt lat="44.0090036" lon="12.4474277"><ele>102.0</ele><time>2026-03-22T08:25:13.969Z</time></trkpt><trkpt lat="44.009171" lon="12.4475358"><ele>101.0</ele><time>2026-03-22T08:25:14.97Z</time></trkpt><trkpt lat="44.0093214" lon="12.4476343"><ele>100.0</ele><time>2026-03-22T08:25:15.97Z</time></trkpt><trkpt lat="44.0094722" lon="12.4477393"><ele>100.0</ele><time>2026-03-22T08:25:16.971Z</time></trkpt><trkpt lat="44.0096171" lon="12.4478579"><ele>100.0</ele><time>2026-03-22T08:25:17.969Z</time></trkpt><trkpt lat="44.0097571" lon="12.4479827"><ele>100.0</ele><time>2026-03-22T08:25:18.97Z</time></trkpt><trkpt lat="44.0098892" lon="12.4481018"><ele>99.75</ele><time>2026-03-22T08:25:19.97Z</time></trkpt><trkpt lat="44.0100169" lon="12.4482094"><ele>99.5</ele><time>2026-03-22T08:25:20.971Z</time></trkpt><trkpt lat="44.0101327" lon="12.4483185"><ele>99.25</ele><time>2026-03-22T08:25:21.971Z</time></trkpt><trkpt lat="44.010245" lon="12.4484472"><ele>99.0</ele><time>2026-03-22T08:25:22.97Z</time></trkpt><trkpt lat="44.010355" lon="12.4485931"><ele>99.0</ele><time>2026-03-22T08:25:23.971Z</time></trkpt><trkpt lat="44.0104582" lon="12.4487484"><ele>99.0</ele><time>2026-03-22T08:25:24.97Z</time></trkpt><trkpt lat="44.0105523" lon="12.4489047"><ele>99.0</ele><time>2026-03-22T08:25:25.97Z</time></trkpt><trkpt lat="44.0106434" lon="12.44905"><ele>99.0</ele><time>2026-03-22T08:25:26.971Z</time></trkpt><trkpt lat="44.0107322" lon="12.4491863"><ele>98.5</ele><time>2026-03-22T08:25:27.969Z</time></trkpt><trkpt lat="44.0108297" lon="12.4493179"><ele>98.0</ele><time>2026-03-22T08:25:28.971Z</time></trkpt><trkpt lat="44.0109363" lon="12.4494333"><ele>97.5</ele><time>2026-03-22T08:25:29.97Z</time></trkpt><trkpt lat="44.0110473" lon="12.4495391"><ele>97.0</ele><time>2026-03-22T08:25:30.971Z</time></trkpt><trkpt lat="44.0111596" lon="12.449643"><ele>97.0</ele><time>2026-03-22T08:25:31.97Z</time></trkpt><trkpt lat="44.011272" lon="12.4497488"><ele>97.0</ele><time>2026-03-22T08:25:32.97Z</time></trkpt><trkpt lat="44.0113902" lon="12.4498588"><ele>97.0</ele><time>2026-03-22T08:25:33.97Z</time></trkpt><trkpt lat="44.0115085" lon="12.4499687"><ele>97.0</ele><time>2026-03-22T08:25:34.971Z</time></trkpt><trkpt lat="44.0116242" lon="12.4500788"><ele>96.6</ele><time>2026-03-22T08:25:35.97Z</time></trkpt><trkpt lat="44.0117268" lon="12.4501835"><ele>96.19999999999999</ele><time>2026-03-22T08:25:36.969Z</time></trkpt><trkpt lat="44.0118125" lon="12.4502858"><ele>95.8</ele><time>2026-03-22T08:25:37.97Z</time></trkpt><trkpt lat="44.0118775" lon="12.4503994"><ele>95.4</ele><time>2026-03-22T08:25:38.97Z</time></trkpt><trkpt lat="44.0119134" lon="12.4505234"><ele>95.0</ele><time>2026-03-22T08:25:39.971Z</time></trkpt><trkpt lat="44.0119275" lon="12.4506823"><ele>95.0</ele><time>2026-03-22T08:25:40.971Z</time></trkpt><trkpt lat="44.0119151" lon="12.4508833"><ele>95.0</ele><time>2026-03-22T08:25:41.97Z</time></trkpt><trkpt lat="44.0118821" lon="12.4510827"><ele>95.0</ele><time>2026-03-22T08:25:42.971Z</time></trkpt><trkpt lat="44.0118502" lon="12.4512633"><ele>95.0</ele><time>2026-03-22T08:25:43.97Z</time></trkpt><trkpt lat="44.0118249" lon="12.4514206"><ele>95.0</ele><time>2026-03-22T08:25:44.971Z</time></trkpt><trkpt lat="44.0118217" lon="12.4515678"><ele>95.0</ele><time>2026-03-22T08:25:45.971Z</time></trkpt><trkpt lat="44.0118421" lon="12.4517009"><ele>95.0</ele><time>2026-03-22T08:25:46.97Z</time></trkpt><trkpt lat="44.0118759" lon="12.4518059"><ele>95.0</ele><time>2026-03-22T08:25:47.97Z</time></trkpt><trkpt lat="44.0119003" lon="12.4518909"><ele>95.0</ele><time>2026-03-22T08:25:48.971Z</time></trkpt><trkpt lat="44.0118631" lon="12.4520649"><ele>94.5</ele><time>2026-03-22T08:25:50.971Z</time></trkpt><trkpt lat="44.0118024" lon="12.4521794"><ele>94.0</ele><time>2026-03-22T08:25:51.969Z</time></trkpt><trkpt lat="44.0117336" lon="12.4523035"><ele>93.5</ele><time>2026-03-22T08:25:52.971Z</time></trkpt><trkpt lat="44.0116656" lon="12.4524366"><ele>93.0</ele><time>2026-03-22T08:25:53.97Z</time></trkpt><trkpt lat="44.0115928" lon="12.4525681"><ele>93.0</ele><time>2026-03-22T08:25:54.97Z</time></trkpt><trkpt lat="44.0115205" lon="12.4527008"><ele>93.0</ele><time>2026-03-22T08:25:55.971Z</time></trkpt><trkpt lat="44.0114503" lon="12.452828"><ele>93.0</ele><time>2026-03-22T08:25:56.971Z</time></trkpt><trkpt lat="44.0113803" lon="12.4529519"><ele>93.0</ele><time>2026-03-22T08:25:57.97Z</time></trkpt><trkpt lat="44.0113093" lon="12.453071"><ele>91.4</ele><time>2026-03-22T08:25:58.97Z</time></trkpt><trkpt lat="44.0112379" lon="12.4531789"><ele>89.80000000000001</ele><time>2026-03-22T08:25:59.971Z</time></trkpt><trkpt lat="44.0111692" lon="12.4532884"><ele>88.2</ele><time>2026-03-22T08:26:00.97Z</time></trkpt><trkpt lat="44.0111032" lon="12.4533952"><ele>86.6</ele><time>2026-03-22T08:26:01.971Z</time></trkpt><trkpt lat="44.0110414" lon="12.4535046"><ele>85.0</ele><time>2026-03-22T08:26:02.971Z</time></trkpt><trkpt lat="44.0109856" lon="12.4536085"><ele>85.0</ele><time>2026-03-22T08:26:03.97Z</time></trkpt><trkpt lat="44.0109319" lon="12.4537056"><ele>85.0</ele><time>2026-03-22T08:26:04.97Z</time></trkpt><trkpt lat="44.0108809" lon="12.4537982"><ele>85.0</ele><time>2026-03-22T08:26:05.97Z</time></trkpt><trkpt lat="44.0108311" lon="12.4538836"><ele>85.0</ele><time>2026-03-22T08:26:06.971Z</time></trkpt><trkpt lat="44.0107785" lon="12.4539679"><ele>85.0</ele><time>2026-03-22T08:26:07.971Z</time></trkpt><trkpt lat="44.0107149" lon="12.4540453"><ele>85.0</ele><time>2026-03-22T08:26:08.971Z</time></trkpt><trkpt lat="44.0106308" lon="12.4541212"><ele>83.75</ele><time>2026-03-22T08:26:09.971Z</time></trkpt><trkpt lat="44.0105282" lon="12.4541879"><ele>82.5</ele><time>2026-03-22T08:26:10.97Z</time></trkpt><trkpt lat="44.0104181" lon="12.4542424"><ele>81.25</ele><time>2026-03-22T08:26:11.97Z</time></trkpt><trkpt lat="44.0103017" lon="12.4542937"><ele>80.0</ele><time>2026-03-22T08:26:12.97Z</time></trkpt><trkpt lat="44.0101879" lon="12.4543294"><ele>80.0</ele><time>2026-03-22T08:26:13.971Z</time></trkpt><trkpt lat="44.010074" lon="12.4543412"><ele>80.0</ele><time>2026-03-22T08:26:14.971Z</time></trkpt><trkpt lat="44.0099514" lon="12.4543382"><ele>80.0</ele><time>2026-03-22T08:26:15.971Z</time></trkpt><trkpt lat="44.0098369" lon="12.4543493"><ele>80.0</ele><time>2026-03-22T08:26:16.971Z</time></trkpt><trkpt lat="44.0097461" lon="12.4543912"><ele>80.0</ele><time>2026-03-22T08:26:17.971Z</time></trkpt><trkpt lat="44.0096662" lon="12.4544731"><ele>80.75</ele><time>2026-03-22T08:26:18.97Z</time></trkpt><trkpt lat="44.0096003" lon="12.4545981"><ele>81.5</ele><time>2026-03-22T08:26:19.97Z</time></trkpt><trkpt lat="44.0095346" lon="12.4547169"><ele>82.25</ele><time>2026-03-22T08:26:20.971Z</time></trkpt><trkpt lat="44.0094918" lon="12.45492"><ele>83.0</ele><time>2026-03-22T08:26:21.97Z</time></trkpt><trkpt lat="44.0095392" lon="12.455173"><ele>83.80000000000001</ele><time>2026-03-22T08:26:22.97Z</time></trkpt><trkpt lat="44.0095392" lon="12.4553228"><ele>84.6</ele><time>2026-03-22T08:26:23.97Z</time></trkpt><trkpt lat="44.0095385" lon="12.4554569"><ele>85.4</ele><time>2026-03-22T08:26:24.969Z</time></trkpt><trkpt lat="44.0095219" lon="12.4555861"><ele>86.19999999999999</ele><time>2026-03-22T08:26:25.97Z</time></trkpt><trkpt lat="44.0094805" lon="12.455728"><ele>87.0</ele><time>2026-03-22T08:26:26.97Z</time></trkpt><trkpt lat="44.0094406" lon="12.45587"><ele>89.33333333333333</ele><time>2026-03-22T08:26:27.97Z</time></trkpt><trkpt lat="44.0092903" lon="12.4560773"><ele>91.66666666666666</ele><time>2026-03-22T08:26:28.97Z</time></trkpt><trkpt lat="44.0091984" lon="12.4562463"><ele>94.0</ele><time>2026-03-22T08:26:29.971Z</time></trkpt><trkpt lat="44.0091077" lon="12.4564015"><ele>94.80000000000001</ele><time>2026-03-22T08:26:30.971Z</time></trkpt><trkpt lat="44.0090556" lon="12.4564941"><ele>95.60000000000001</ele><time>2026-03-22T08:26:31.97Z</time></trkpt><trkpt lat="44.0089996" lon="12.4566201"><ele>96.4</ele><time>2026-03-22T08:26:32.97Z</time></trkpt><trkpt lat="44.0089988" lon="12.4567676"><ele>97.2</ele><time>2026-03-22T08:26:33.971Z</time></trkpt><trkpt lat="44.0089678" lon="12.4568858"><ele>98.0</ele><time>2026-03-22T08:26:34.97Z</time></trkpt><trkpt lat="44.0089228" lon="12.456997"><ele>100.25</ele><time>2026-03-22T08:26:35.971Z</time></trkpt><trkpt lat="44.0088604" lon="12.4571374"><ele>102.5</ele><time>2026-03-22T08:26:36.97Z</time></trkpt><trkpt lat="44.0087184" lon="12.4572475"><ele>104.75</ele><time>2026-03-22T08:26:37.969Z</time></trkpt><trkpt lat="44.0086142" lon="12.4573639"><ele>107.0</ele><time>2026-03-22T08:26:38.97Z</time></trkpt><trkpt lat="44.0085058" lon="12.4574945"><ele>107.0</ele><time>2026-03-22T08:26:39.971Z</time></trkpt><trkpt lat="44.0083934" lon="12.4576234"><ele>107.0</ele><time>2026-03-22T08:26:40.971Z</time></trkpt><trkpt lat="44.008285" lon="12.4577498"><ele>107.0</ele><time>2026-03-22T08:26:41.97Z</time></trkpt><trkpt lat="44.0081599" lon="12.4578915"><ele>107.0</ele><time>2026-03-22T08:26:42.971Z</time></trkpt><trkpt lat="44.0080279" lon="12.4580353"><ele>111.0</ele><time>2026-03-22T08:26:43.97Z</time></trkpt><trkpt lat="44.0078924" lon="12.4581831"><ele>115.0</ele><time>2026-03-22T08:26:44.971Z</time></trkpt><trkpt lat="44.0077368" lon="12.458359"><ele>119.0</ele><time>2026-03-22T08:26:45.97Z</time></trkpt><trkpt lat="44.0076061" lon="12.4585033"><ele>119.0</ele><time>2026-03-22T08:26:46.97Z</time></trkpt><trkpt lat="44.0074737" lon="12.4586533"><ele>119.0</ele><time>2026-03-22T08:26:47.971Z</time></trkpt><trkpt lat="44.0073449" lon="12.4588038"><ele>119.0</ele><time>2026-03-22T08:26:48.971Z</time></trkpt><trkpt lat="44.0072114" lon="12.4589575"><ele>122.0</ele><time>2026-03-22T08:26:49.971Z</time></trkpt><trkpt lat="44.0070741" lon="12.4591175"><ele>125.0</ele><time>2026-03-22T08:26:50.969Z</time></trkpt><trkpt lat="44.0069564" lon="12.4592526"><ele>128.0</ele><time>2026-03-22T08:26:51.971Z</time></trkpt><trkpt lat="44.0068505" lon="12.4593756"><ele>128.0</ele><time>2026-03-22T08:26:52.971Z</time></trkpt><trkpt lat="44.0067575" lon="12.4594841"><ele>128.0</ele><time>2026-03-22T08:26:53.97Z</time></trkpt><trkpt lat="44.006679" lon="12.4595782"><ele>128.0</ele><time>2026-03-22T08:26:54.971Z</time></trkpt><trkpt lat="44.0066089" lon="12.459661"><ele>128.0</ele><time>2026-03-22T08:26:55.97Z</time></trkpt><trkpt lat="44.0065515" lon="12.4597267"><ele>128.0</ele><time>2026-03-22T08:26:56.97Z</time></trkpt><trkpt lat="44.0064765" lon="12.4598197"><ele>128.85714285714286</ele><time>2026-03-22T08:26:58.969Z</time></trkpt><trkpt lat="44.0064202" lon="12.4599035"><ele>129.7142857142857</ele><time>2026-03-22T08:27:00.971Z</time></trkpt><trkpt lat="44.0063998" lon="12.4599907"><ele>130.57142857142856</ele><time>2026-03-22T08:27:02.971Z</time></trkpt><trkpt lat="44.0064388" lon="12.4600777"><ele>131.42857142857142</ele><time>2026-03-22T08:27:04.97Z</time></trkpt><trkpt lat="44.0064789" lon="12.4601562"><ele>132.28571428571428</ele><time>2026-03-22T08:27:06.971Z</time></trkpt><trkpt lat="44.0065398" lon="12.4602179"><ele>133.14285714285714</ele><time>2026-03-22T08:27:09.97Z</time></trkpt><trkpt lat="44.0066034" lon="12.4602769"><ele>134.0</ele><time>2026-03-22T08:27:12.969Z</time></trkpt><trkpt lat="44.0066908" lon="12.46034"><ele>134.0</ele><time>2026-03-22T08:27:15.971Z</time></trkpt><trkpt lat="44.0067585" lon="12.46039"><ele>134.0</ele><time>2026-03-22T08:27:17.97Z</time></trkpt><trkpt lat="44.0068484" lon="12.4604617"><ele>134.0</ele><time>2026-03-22T08:27:19.971Z</time></trkpt><trkpt lat="44.0069518" lon="12.4605306"><ele>134.0</ele><time>2026-03-22T08:27:21.971Z</time></trkpt><trkpt lat="44.007018" lon="12.4605842"><ele>134.0</ele><time>2026-03-22T08:27:22.97Z</time></trkpt><trkpt lat="44.0070876" lon="12.4606395"><ele>134.0</ele><time>2026-03-22T08:27:23.97Z</time></trkpt><trkpt lat="44.0071652" lon="12.4607098"><ele>134.0</ele><time>2026-03-22T08:27:24.97Z</time></trkpt><trkpt lat="44.007247" lon="12.4607823"><ele>134.0</ele><time>2026-03-22T08:27:25.971Z</time></trkpt><trkpt lat="44.0073372" lon="12.4608578"><ele>134.0</ele><time>2026-03-22T08:27:26.97Z</time></trkpt><trkpt lat="44.0074288" lon="12.4609395"><ele>134.0</ele><time>2026-03-22T08:27:27.971Z</time></trkpt><trkpt lat="44.0075251" lon="12.4610206"><ele>130.75</ele><time>2026-03-22T08:27:28.971Z</time></trkpt><trkpt lat="44.0076218" lon="12.461108"><ele>127.5</ele><time>2026-03-22T08:27:29.971Z</time></trkpt><trkpt lat="44.007717" lon="12.4611935"><ele>124.25</ele><time>2026-03-22T08:27:30.971Z</time></trkpt><trkpt lat="44.0078223" lon="12.4612884"><ele>121.0</ele><time>2026-03-22T08:27:31.971Z</time></trkpt><trkpt lat="44.0079201" lon="12.4613826"><ele>120.75</ele><time>2026-03-22T08:27:32.969Z</time></trkpt><trkpt lat="44.0080138" lon="12.4614698"><ele>120.5</ele><time>2026-03-22T08:27:33.971Z</time></trkpt><trkpt lat="44.0081093" lon="12.4615587"><ele>120.25</ele><time>2026-03-22T08:27:34.97Z</time></trkpt><trkpt lat="44.0082106" lon="12.4616432"><ele>120.0</ele><time>2026-03-22T08:27:35.971Z</time></trkpt><trkpt lat="44.0083086" lon="12.461728"><ele>117.25</ele><time>2026-03-22T08:27:36.971Z</time></trkpt><trkpt lat="44.0084059" lon="12.4618119"><ele>114.5</ele><time>2026-03-22T08:27:37.971Z</time></trkpt><trkpt lat="44.0085005" lon="12.4618984"><ele>111.75</ele><time>2026-03-22T08:27:38.971Z</time></trkpt><trkpt lat="44.0085945" lon="12.4619879"><ele>109.0</ele><time>2026-03-22T08:27:39.97Z</time></trkpt><trkpt lat="44.0086854" lon="12.4620834"><ele>108.6</ele><time>2026-03-22T08:27:40.971Z</time></trkpt><trkpt lat="44.0087677" lon="12.4621803"><ele>108.2</ele><time>2026-03-22T08:27:41.97Z</time></trkpt><trkpt lat="44.008843" lon="12.4622735"><ele>107.79999999999998</ele><time>2026-03-22T08:27:42.971Z</time></trkpt><trkpt lat="44.0089173" lon="12.4623655"><ele>107.39999999999999</ele><time>2026-03-22T08:27:43.971Z</time></trkpt><trkpt lat="44.0089938" lon="12.4624552"><ele>107.0</ele><time>2026-03-22T08:27:44.971Z</time></trkpt><trkpt lat="44.0090869" lon="12.4625493"><ele>105.39999999999999</ele><time>2026-03-22T08:27:45.969Z</time></trkpt><trkpt lat="44.0091826" lon="12.4626207"><ele>103.79999999999998</ele><time>2026-03-22T08:27:46.969Z</time></trkpt><trkpt lat="44.0092816" lon="12.462681"><ele>102.2</ele><time>2026-03-22T08:27:47.971Z</time></trkpt><trkpt lat="44.0093654" lon="12.4627152"><ele>100.6</ele><time>2026-03-22T08:27:48.971Z</time></trkpt><trkpt lat="44.0094426" lon="12.4627166"><ele>99.0</ele><time>2026-03-22T08:27:49.971Z</time></trkpt><trkpt lat="44.0095179" lon="12.4627151"><ele>99.0</ele><time>2026-03-22T08:27:50.97Z</time></trkpt><trkpt lat="44.0095925" lon="12.4626695"><ele>99.0</ele><time>2026-03-22T08:27:51.97Z</time></trkpt><trkpt lat="44.0096545" lon="12.4625114"><ele>99.0</ele><time>2026-03-22T08:27:52.971Z</time></trkpt><trkpt lat="44.0097469" lon="12.4624065"><ele>99.0</ele><time>2026-03-22T08:27:53.97Z</time></trkpt><trkpt lat="44.0098454" lon="12.4622771"><ele>99.0</ele><time>2026-03-22T08:27:54.97Z</time></trkpt><trkpt lat="44.009946" lon="12.4621312"><ele>99.0</ele><time>2026-03-22T08:27:55.97Z</time></trkpt><trkpt lat="44.0100505" lon="12.4619656"><ele>99.0</ele><time>2026-03-22T08:27:56.971Z</time></trkpt><trkpt lat="44.0101486" lon="12.4618118"><ele>100.0</ele><time>2026-03-22T08:27:57.971Z</time></trkpt><trkpt lat="44.0102237" lon="12.4616871"><ele>101.0</ele><time>2026-03-22T08:27:58.971Z</time></trkpt><trkpt lat="44.0102937" lon="12.461582"><ele>102.0</ele><time>2026-03-22T08:27:59.971Z</time></trkpt><trkpt lat="44.010373" lon="12.4614936"><ele>103.0</ele><time>2026-03-22T08:28:00.97Z</time></trkpt><trkpt lat="44.0104757" lon="12.4614267"><ele>104.0</ele><time>2026-03-22T08:28:01.971Z</time></trkpt><trkpt lat="44.0106038" lon="12.4613557"><ele>104.75</ele><time>2026-03-22T08:28:02.97Z</time></trkpt><trkpt lat="44.0107463" lon="12.4612804"><ele>105.5</ele><time>2026-03-22T08:28:03.969Z</time></trkpt><trkpt lat="44.0108703" lon="12.4612229"><ele>106.25</ele><time>2026-03-22T08:28:04.971Z</time></trkpt><trkpt lat="44.0109727" lon="12.4611765"><ele>107.0</ele><time>2026-03-22T08:28:05.971Z</time></trkpt><trkpt lat="44.0110541" lon="12.4611452"><ele>107.0</ele><time>2026-03-22T08:28:06.971Z</time></trkpt><trkpt lat="44.011164" lon="12.4611645"><ele>106.99999999999999</ele><time>2026-03-22T08:28:08.971Z</time></trkpt><trkpt lat="44.0112042" lon="12.4613249"><ele>106.99999999999999</ele><time>2026-03-22T08:28:10.969Z</time></trkpt><trkpt lat="44.0111934" lon="12.4614435"><ele>107.0</ele><time>2026-03-22T08:28:11.971Z</time></trkpt><trkpt lat="44.0111556" lon="12.4615652"><ele>107.0</ele><time>2026-03-22T08:28:12.97Z</time></trkpt><trkpt lat="44.0110988" lon="12.4617066"><ele>108.75</ele><time>2026-03-22T08:28:13.969Z</time></trkpt><trkpt lat="44.0110255" lon="12.4618602"><ele>110.5</ele><time>2026-03-22T08:28:14.97Z</time></trkpt><trkpt lat="44.0109415" lon="12.4620059"><ele>112.25</ele><time>2026-03-22T08:28:15.97Z</time></trkpt><trkpt lat="44.0108576" lon="12.4621409"><ele>114.0</ele><time>2026-03-22T08:28:16.97Z</time></trkpt><trkpt lat="44.0107798" lon="12.4622681"><ele>114.0</ele><time>2026-03-22T08:28:17.97Z</time></trkpt><trkpt lat="44.0107102" lon="12.4623834"><ele>114.0</ele><time>2026-03-22T08:28:18.97Z</time></trkpt><trkpt lat="44.010647" lon="12.4624887"><ele>114.0</ele><time>2026-03-22T08:28:19.971Z</time></trkpt><trkpt lat="44.0105964" lon="12.4625771"><ele>114.0</ele><time>2026-03-22T08:28:20.97Z</time></trkpt><trkpt lat="44.010553" lon="12.4626519"><ele>114.0</ele><time>2026-03-22T08:28:21.971Z</time></trkpt><trkpt lat="44.0105169" lon="12.4627248"><ele>114.0</ele><time>2026-03-22T08:28:22.97Z</time></trkpt><trkpt lat="44.0105004" lon="12.4628734"><ele>114.66666666666667</ele><time>2026-03-22T08:28:24.97Z</time></trkpt><trkpt lat="44.0105611" lon="12.4630108"><ele>115.33333333333334</ele><time>2026-03-22T08:28:26.971Z</time></trkpt><trkpt lat="44.0106157" lon="12.463085"><ele>116.0</ele><time>2026-03-22T08:28:27.971Z</time></trkpt><trkpt lat="44.0106718" lon="12.4631569"><ele>116.66666666666667</ele><time>2026-03-22T08:28:28.97Z</time></trkpt><trkpt lat="44.0107216" lon="12.4632257"><ele>117.33333333333334</ele><time>2026-03-22T08:28:29.971Z</time></trkpt><trkpt lat="44.0107693" lon="12.4632984"><ele>118.0</ele><time>2026-03-22T08:28:30.971Z</time></trkpt><trkpt lat="44.0108114" lon="12.4633866"><ele>119.33333333333334</ele><time>2026-03-22T08:28:31.97Z</time></trkpt><trkpt lat="44.0108403" lon="12.463502"><ele>120.66666666666667</ele><time>2026-03-22T08:28:32.97Z</time></trkpt><trkpt lat="44.0108612" lon="12.4636181"><ele>122.0</ele><time>2026-03-22T08:28:33.97Z</time></trkpt><trkpt lat="44.0108773" lon="12.4637228"><ele>123.33333333333334</ele><time>2026-03-22T08:28:34.97Z</time></trkpt><trkpt lat="44.0109021" lon="12.4638278"><ele>124.66666666666667</ele><time>2026-03-22T08:28:35.971Z</time></trkpt><trkpt lat="44.0109474" lon="12.46394"><ele>126.0</ele><time>2026-03-22T08:28:36.97Z</time></trkpt><trkpt lat="44.0110127" lon="12.4640453"><ele>126.0</ele><time>2026-03-22T08:28:37.971Z</time></trkpt><trkpt lat="44.0110729" lon="12.4641367"><ele>126.0</ele><time>2026-03-22T08:28:38.97Z</time></trkpt><trkpt lat="44.0111204" lon="12.464228"><ele>126.0</ele><time>2026-03-22T08:28:39.971Z</time></trkpt><trkpt lat="44.0111551" lon="12.4643361"><ele>126.0</ele><time>2026-03-22T08:28:40.97Z</time></trkpt><trkpt lat="44.0111709" lon="12.4644648"><ele>126.0</ele><time>2026-03-22T08:28:41.97Z</time></trkpt><trkpt lat="44.0111688" lon="12.4646099"><ele>125.19999999999999</ele><time>2026-03-22T08:28:42.97Z</time></trkpt><trkpt lat="44.011154" lon="12.4647676"><ele>124.39999999999999</ele><time>2026-03-22T08:28:43.969Z</time></trkpt><trkpt lat="44.0111287" lon="12.4649332"><ele>123.6</ele><time>2026-03-22T08:28:44.97Z</time></trkpt><trkpt lat="44.01111" lon="12.465082"><ele>122.8</ele><time>2026-03-22T08:28:45.97Z</time></trkpt><trkpt lat="44.0111084" lon="12.4652071"><ele>122.0</ele><time>2026-03-22T08:28:46.97Z</time></trkpt><trkpt lat="44.0111274" lon="12.4653451"><ele>123.5</ele><time>2026-03-22T08:28:47.971Z</time></trkpt><trkpt lat="44.0111613" lon="12.4655166"><ele>125.0</ele><time>2026-03-22T08:28:48.971Z</time></trkpt><trkpt lat="44.0112047" lon="12.4657073"><ele>126.5</ele><time>2026-03-22T08:28:49.971Z</time></trkpt><trkpt lat="44.0112571" lon="12.4658967"><ele>128.0</ele><time>2026-03-22T08:28:50.97Z</time></trkpt><trkpt lat="44.0113177" lon="12.4660769"><ele>128.0</ele><time>2026-03-22T08:28:51.971Z</time></trkpt><trkpt lat="44.0113901" lon="12.466245"><ele>128.0</ele><time>2026-03-22T08:28:52.971Z</time></trkpt><trkpt lat="44.0114631" lon="12.4663872"><ele>128.0</ele><time>2026-03-22T08:28:53.97Z</time></trkpt><trkpt lat="44.0115239" lon="12.4665258"><ele>128.0</ele><time>2026-03-22T08:28:54.971Z</time></trkpt><trkpt lat="44.0115609" lon="12.4666648"><ele>129.33333333333331</ele><time>2026-03-22T08:28:55.971Z</time></trkpt><trkpt lat="44.0115726" lon="12.4668018"><ele>130.66666666666666</ele><time>2026-03-22T08:28:56.971Z</time></trkpt><trkpt lat="44.0115697" lon="12.4669358"><ele>132.0</ele><time>2026-03-22T08:28:57.971Z</time></trkpt><trkpt lat="44.011542" lon="12.4670597"><ele>133.33333333333334</ele><time>2026-03-22T08:28:58.97Z</time></trkpt><trkpt lat="44.0115048" lon="12.4671637"><ele>134.66666666666669</ele><time>2026-03-22T08:28:59.97Z</time></trkpt><trkpt lat="44.0114672" lon="12.4672503"><ele>136.0</ele><time>2026-03-22T08:29:00.97Z</time></trkpt><trkpt lat="44.0114033" lon="12.4673751"><ele>136.6</ele><time>2026-03-22T08:29:02.971Z</time></trkpt><trkpt lat="44.0113464" lon="12.4674403"><ele>137.2</ele><time>2026-03-22T08:29:04.971Z</time></trkpt><trkpt lat="44.0112594" lon="12.4675272"><ele>137.8</ele><time>2026-03-22T08:29:06.969Z</time></trkpt><trkpt lat="44.01121" lon="12.4676211"><ele>138.4</ele><time>2026-03-22T08:29:07.97Z</time></trkpt><trkpt lat="44.0111606" lon="12.4677383"><ele>139.0</ele><time>2026-03-22T08:29:08.971Z</time></trkpt><trkpt lat="44.0111101" lon="12.467862"><ele>138.5</ele><time>2026-03-22T08:29:09.971Z</time></trkpt><trkpt lat="44.0110581" lon="12.4679906"><ele>138.0</ele><time>2026-03-22T08:29:10.971Z</time></trkpt><trkpt lat="44.0110062" lon="12.4681276"><ele>137.5</ele><time>2026-03-22T08:29:11.97Z</time></trkpt><trkpt lat="44.0109521" lon="12.4682711"><ele>137.0</ele><time>2026-03-22T08:29:12.971Z</time></trkpt><trkpt lat="44.0108964" lon="12.4684225"><ele>137.0</ele><time>2026-03-22T08:29:13.97Z</time></trkpt><trkpt lat="44.0108341" lon="12.4685785"><ele>137.0</ele><time>2026-03-22T08:29:14.971Z</time></trkpt><trkpt lat="44.0107729" lon="12.4687346"><ele>137.0</ele><time>2026-03-22T08:29:15.969Z</time></trkpt><trkpt lat="44.0107124" lon="12.4688897"><ele>137.0</ele><time>2026-03-22T08:29:16.97Z</time></trkpt><trkpt lat="44.0106559" lon="12.4690313"><ele>137.33333333333331</ele><time>2026-03-22T08:29:17.97Z</time></trkpt><trkpt lat="44.0105998" lon="12.4691657"><ele>137.66666666666666</ele><time>2026-03-22T08:29:18.969Z</time></trkpt><trkpt lat="44.010547" lon="12.4692875"><ele>138.0</ele><time>2026-03-22T08:29:19.97Z</time></trkpt><trkpt lat="44.0105012" lon="12.4693954"><ele>138.33333333333334</ele><time>2026-03-22T08:29:20.97Z</time></trkpt><trkpt lat="44.0104681" lon="12.469491"><ele>138.66666666666669</ele><time>2026-03-22T08:29:21.971Z</time></trkpt><trkpt lat="44.0104537" lon="12.4695809"><ele>139.0</ele><time>2026-03-22T08:29:22.971Z</time></trkpt><trkpt lat="44.0104643" lon="12.4696673"><ele>137.66666666666669</ele><time>2026-03-22T08:29:23.971Z</time></trkpt><trkpt lat="44.0105036" lon="12.4697509"><ele>136.33333333333334</ele><time>2026-03-22T08:29:24.971Z</time></trkpt><trkpt lat="44.0105652" lon="12.4698344"><ele>135.0</ele><time>2026-03-22T08:29:25.971Z</time></trkpt><trkpt lat="44.0106363" lon="12.4699232"><ele>133.66666666666666</ele><time>2026-03-22T08:29:26.972Z</time></trkpt><trkpt lat="44.0106957" lon="12.4700205"><ele>132.33333333333331</ele><time>2026-03-22T08:29:27.971Z</time></trkpt><trkpt lat="44.0107213" lon="12.470105"><ele>131.0</ele><time>2026-03-22T08:29:28.972Z</time></trkpt><trkpt lat="44.0107294" lon="12.4702416"><ele>131.0</ele><time>2026-03-22T08:29:30.971Z</time></trkpt><trkpt lat="44.0107288" lon="12.470388"><ele>131.0</ele><time>2026-03-22T08:29:32.97Z</time></trkpt><trkpt lat="44.010736" lon="12.4704823"><ele>131.0</ele><time>2026-03-22T08:29:33.972Z</time></trkpt><trkpt lat="44.0107471" lon="12.4705744"><ele>131.0</ele><time>2026-03-22T08:29:34.97Z</time></trkpt><trkpt lat="44.0107622" lon="12.4706746"><ele>131.0</ele><time>2026-03-22T08:29:35.971Z</time></trkpt><trkpt lat="44.0107864" lon="12.470789"><ele>131.0</ele><time>2026-03-22T08:29:36.971Z</time></trkpt><trkpt lat="44.0108108" lon="12.4709109"><ele>130.8</ele><time>2026-03-22T08:29:37.972Z</time></trkpt><trkpt lat="44.0108303" lon="12.4710316"><ele>130.6</ele><time>2026-03-22T08:29:38.972Z</time></trkpt><trkpt lat="44.0108516" lon="12.4711622"><ele>130.4</ele><time>2026-03-22T08:29:39.971Z</time></trkpt><trkpt lat="44.0108771" lon="12.4712992"><ele>130.2</ele><time>2026-03-22T08:29:40.972Z</time></trkpt><trkpt lat="44.0109063" lon="12.4714261"><ele>130.0</ele><time>2026-03-22T08:29:41.972Z</time></trkpt><trkpt lat="44.0109446" lon="12.4715435"><ele>128.6</ele><time>2026-03-22T08:29:42.971Z</time></trkpt><trkpt lat="44.0109864" lon="12.4716635"><ele>127.2</ele><time>2026-03-22T08:29:43.972Z</time></trkpt><trkpt lat="44.0110233" lon="12.4717862"><ele>125.80000000000001</ele><time>2026-03-22T08:29:44.971Z</time></trkpt><trkpt lat="44.011055" lon="12.4719222"><ele>124.4</ele><time>2026-03-22T08:29:45.971Z</time></trkpt><trkpt lat="44.0110781" lon="12.4720553"><ele>123.0</ele><time>2026-03-22T08:29:46.972Z</time></trkpt><trkpt lat="44.011091" lon="12.4721858"><ele>121.80000000000001</ele><time>2026-03-22T08:29:47.971Z</time></trkpt><trkpt lat="44.0111049" lon="12.4723104"><ele>120.60000000000001</ele><time>2026-03-22T08:29:48.971Z</time></trkpt><trkpt lat="44.0111207" lon="12.4724314"><ele>119.39999999999999</ele><time>2026-03-22T08:29:49.971Z</time></trkpt><trkpt lat="44.0111364" lon="12.4725715"><ele>118.19999999999999</ele><time>2026-03-22T08:29:50.972Z</time></trkpt><trkpt lat="44.0111486" lon="12.4727064"><ele>117.0</ele><time>2026-03-22T08:29:51.971Z</time></trkpt><trkpt lat="44.0111553" lon="12.4728329"><ele>115.8</ele><time>2026-03-22T08:29:52.971Z</time></trkpt><trkpt lat="44.0111514" lon="12.472972"><ele>114.6</ele><time>2026-03-22T08:29:53.971Z</time></trkpt><trkpt lat="44.0111489" lon="12.4731019"><ele>113.39999999999999</ele><time>2026-03-22T08:29:54.971Z</time></trkpt><trkpt lat="44.0111426" lon="12.4732356"><ele>112.19999999999999</ele><time>2026-03-22T08:29:55.972Z</time></trkpt><trkpt lat="44.0111295" lon="12.4733566"><ele>111.0</ele><time>2026-03-22T08:29:56.97Z</time></trkpt><trkpt lat="44.0111114" lon="12.4734634"><ele>111.0</ele><time>2026-03-22T08:29:57.972Z</time></trkpt><trkpt lat="44.0110961" lon="12.4735692"><ele>111.0</ele><time>2026-03-22T08:29:58.971Z</time></trkpt><trkpt lat="44.0110739" lon="12.4736953"><ele>111.0</ele><time>2026-03-22T08:29:59.972Z</time></trkpt><trkpt lat="44.0110523" lon="12.4738334"><ele>111.0</ele><time>2026-03-22T08:30:00.972Z</time></trkpt><trkpt lat="44.0110355" lon="12.4739677"><ele>111.0</ele><time>2026-03-22T08:30:01.972Z</time></trkpt><trkpt lat="44.0110184" lon="12.4741046"><ele>109.0</ele><time>2026-03-22T08:30:02.97Z</time></trkpt><trkpt lat="44.0110042" lon="12.4742417"><ele>107.0</ele><time>2026-03-22T08:30:03.971Z</time></trkpt><trkpt lat="44.01099" lon="12.4743785"><ele>105.0</ele><time>2026-03-22T08:30:04.971Z</time></trkpt><trkpt lat="44.0109765" lon="12.4745169"><ele>103.0</ele><time>2026-03-22T08:30:05.972Z</time></trkpt><trkpt lat="44.0109626" lon="12.474655"><ele>101.0</ele><time>2026-03-22T08:30:06.972Z</time></trkpt><trkpt lat="44.0109479" lon="12.4747909"><ele>99.19999999999999</ele><time>2026-03-22T08:30:07.971Z</time></trkpt><trkpt lat="44.0109313" lon="12.4749286"><ele>97.39999999999999</ele><time>2026-03-22T08:30:08.972Z</time></trkpt><trkpt lat="44.0109134" lon="12.4750683"><ele>95.6</ele><time>2026-03-22T08:30:09.97Z</time></trkpt><trkpt lat="44.0108939" lon="12.4752101"><ele>93.8</ele><time>2026-03-22T08:30:10.971Z</time></trkpt><trkpt lat="44.0108742" lon="12.4753512"><ele>92.0</ele><time>2026-03-22T08:30:11.971Z</time></trkpt><trkpt lat="44.0108496" lon="12.4754923"><ele>89.0</ele><time>2026-03-22T08:30:12.972Z</time></trkpt><trkpt lat="44.0108223" lon="12.4756454"><ele>86.0</ele><time>2026-03-22T08:30:13.971Z</time></trkpt><trkpt lat="44.0107877" lon="12.475834"><ele>83.0</ele><time>2026-03-22T08:30:14.972Z</time></trkpt><trkpt lat="44.0107544" lon="12.4760153"><ele>80.0</ele><time>2026-03-22T08:30:15.971Z</time></trkpt><trkpt lat="44.0107177" lon="12.4761828"><ele>78.75</ele><time>2026-03-22T08:30:16.972Z</time></trkpt><trkpt lat="44.0106779" lon="12.4763391"><ele>77.5</ele><time>2026-03-22T08:30:17.972Z</time></trkpt><trkpt lat="44.0106346" lon="12.4765052"><ele>76.25</ele><time>2026-03-22T08:30:18.972Z</time></trkpt><trkpt lat="44.0105908" lon="12.47667"><ele>75.0</ele><time>2026-03-22T08:30:19.972Z</time></trkpt><trkpt lat="44.0105512" lon="12.4768212"><ele>75.0</ele><time>2026-03-22T08:30:20.971Z</time></trkpt><trkpt lat="44.0105112" lon="12.4769673"><ele>75.0</ele><time>2026-03-22T08:30:21.971Z</time></trkpt><trkpt lat="44.0104764" lon="12.4770953"><ele>75.0</ele><time>2026-03-22T08:30:22.971Z</time></trkpt><trkpt lat="44.0104456" lon="12.4772111"><ele>75.0</ele><time>2026-03-22T08:30:23.97Z</time></trkpt><trkpt lat="44.0104287" lon="12.4773133"><ele>75.0</ele><time>2026-03-22T08:30:24.971Z</time></trkpt><trkpt lat="44.0104352" lon="12.4774026"><ele>75.0</ele><time>2026-03-22T08:30:25.971Z</time></trkpt><trkpt lat="44.0104568" lon="12.4774901"><ele>75.16666666666667</ele><time>2026-03-22T08:30:26.972Z</time></trkpt><trkpt lat="44.0104978" lon="12.4775756"><ele>75.33333333333333</ele><time>2026-03-22T08:30:27.972Z</time></trkpt><trkpt lat="44.0105292" lon="12.4776641"><ele>75.5</ele><time>2026-03-22T08:30:28.972Z</time></trkpt><trkpt lat="44.0105256" lon="12.4777706"><ele>75.66666666666666</ele><time>2026-03-22T08:30:29.971Z</time></trkpt><trkpt lat="44.0104999" lon="12.4778777"><ele>75.83333333333333</ele><time>2026-03-22T08:30:30.972Z</time></trkpt><trkpt lat="44.0104574" lon="12.4780227"><ele>76.0</ele><time>2026-03-22T08:30:31.971Z</time></trkpt><trkpt lat="44.0104113" lon="12.4781515"><ele>77.5</ele><time>2026-03-22T08:30:32.972Z</time></trkpt><trkpt lat="44.0103534" lon="12.4782642"><ele>79.0</ele><time>2026-03-22T08:30:33.972Z</time></trkpt><trkpt lat="44.0102928" lon="12.4783447"><ele>80.5</ele><time>2026-03-22T08:30:34.971Z</time></trkpt><trkpt lat="44.0102354" lon="12.4784115"><ele>82.0</ele><time>2026-03-22T08:30:35.971Z</time></trkpt><trkpt lat="44.010175" lon="12.4784523"><ele>83.5</ele><time>2026-03-22T08:30:36.972Z</time></trkpt><trkpt lat="44.0100998" lon="12.47846"><ele>85.0</ele><time>2026-03-22T08:30:37.971Z</time></trkpt><trkpt lat="44.0100002" lon="12.4784549"><ele>86.6</ele><time>2026-03-22T08:30:38.972Z</time></trkpt><trkpt lat="44.0099005" lon="12.478485"><ele>88.2</ele><time>2026-03-22T08:30:39.971Z</time></trkpt><trkpt lat="44.00979" lon="12.4785527"><ele>89.80000000000001</ele><time>2026-03-22T08:30:40.972Z</time></trkpt><trkpt lat="44.0097039" lon="12.4786072"><ele>91.4</ele><time>2026-03-22T08:30:41.971Z</time></trkpt><trkpt lat="44.0096318" lon="12.4786477"><ele>93.0</ele><time>2026-03-22T08:30:42.972Z</time></trkpt><trkpt lat="44.0095544" lon="12.4786569"><ele>93.0</ele><time>2026-03-22T08:30:43.972Z</time></trkpt><trkpt lat="44.0094693" lon="12.4786593"><ele>93.0</ele><time>2026-03-22T08:30:44.97Z</time></trkpt><trkpt lat="44.0093886" lon="12.4786511"><ele>93.0</ele><time>2026-03-22T08:30:45.972Z</time></trkpt><trkpt lat="44.0092991" lon="12.4786475"><ele>93.0</ele><time>2026-03-22T08:30:46.972Z</time></trkpt><trkpt lat="44.0092006" lon="12.4786465"><ele>93.0</ele><time>2026-03-22T08:30:47.972Z</time></trkpt><trkpt lat="44.0090961" lon="12.4786461"><ele>94.2</ele><time>2026-03-22T08:30:48.972Z</time></trkpt><trkpt lat="44.0089953" lon="12.4786426"><ele>95.4</ele><time>2026-03-22T08:30:49.972Z</time></trkpt><trkpt lat="44.0088998" lon="12.4786394"><ele>96.60000000000001</ele><time>2026-03-22T08:30:50.971Z</time></trkpt><trkpt lat="44.0088086" lon="12.4786328"><ele>97.80000000000001</ele><time>2026-03-22T08:30:51.972Z</time></trkpt><trkpt lat="44.0087154" lon="12.4786168"><ele>99.0</ele><time>2026-03-22T08:30:52.97Z</time></trkpt><trkpt lat="44.008618" lon="12.4786082"><ele>99.0</ele><time>2026-03-22T08:30:53.971Z</time></trkpt><trkpt lat="44.00852" lon="12.4786206"><ele>99.0</ele><time>2026-03-22T08:30:54.972Z</time></trkpt><trkpt lat="44.0084123" lon="12.4786484"><ele>99.0</ele><time>2026-03-22T08:30:55.971Z</time></trkpt><trkpt lat="44.0083" lon="12.4786837"><ele>99.0</ele><time>2026-03-22T08:30:56.972Z</time></trkpt><trkpt lat="44.0082003" lon="12.4787179"><ele>99.0</ele><time>2026-03-22T08:30:57.971Z</time></trkpt><trkpt lat="44.0081052" lon="12.4787499"><ele>102.2</ele><time>2026-03-22T08:30:58.972Z</time></trkpt><trkpt lat="44.0080084" lon="12.4787888"><ele>105.4</ele><time>2026-03-22T08:30:59.971Z</time></trkpt><trkpt lat="44.0079174" lon="12.4788424"><ele>108.6</ele><time>2026-03-22T08:31:00.972Z</time></trkpt><trkpt lat="44.0078282" lon="12.4789089"><ele>111.8</ele><time>2026-03-22T08:31:01.971Z</time></trkpt><trkpt lat="44.0077375" lon="12.4789836"><ele>115.0</ele><time>2026-03-22T08:31:02.971Z</time></trkpt><trkpt lat="44.0076489" lon="12.4790604"><ele>115.0</ele><time>2026-03-22T08:31:03.972Z</time></trkpt><trkpt lat="44.0075594" lon="12.4791377"><ele>115.0</ele><time>2026-03-22T08:31:04.97Z</time></trkpt><trkpt lat="44.0074693" lon="12.4792227"><ele>115.0</ele><time>2026-03-22T08:31:05.972Z</time></trkpt><trkpt lat="44.0073667" lon="12.4793205"><ele>115.0</ele><time>2026-03-22T08:31:06.971Z</time></trkpt><trkpt lat="44.0072636" lon="12.4794133"><ele>115.5</ele><time>2026-03-22T08:31:07.971Z</time></trkpt><trkpt lat="44.0071681" lon="12.4795141"><ele>116.0</ele><time>2026-03-22T08:31:08.971Z</time></trkpt><trkpt lat="44.0070773" lon="12.4796153"><ele>116.5</ele><time>2026-03-22T08:31:09.971Z</time></trkpt><trkpt lat="44.0069944" lon="12.4797219"><ele>117.0</ele><time>2026-03-22T08:31:10.972Z</time></trkpt><trkpt lat="44.0069201" lon="12.4798406"><ele>119.0</ele><time>2026-03-22T08:31:11.972Z</time></trkpt><trkpt lat="44.0068461" lon="12.4799586"><ele>121.0</ele><time>2026-03-22T08:31:12.971Z</time></trkpt><trkpt lat="44.0067661" lon="12.4800691"><ele>123.0</ele><time>2026-03-22T08:31:13.971Z</time></trkpt><trkpt lat="44.0066726" lon="12.4801699"><ele>125.0</ele><time>2026-03-22T08:31:14.971Z</time></trkpt><trkpt lat="44.0065733" lon="12.4802619"><ele>125.5</ele><time>2026-03-22T08:31:15.97Z</time></trkpt><trkpt lat="44.0064692" lon="12.4803478"><ele>126.0</ele><time>2026-03-22T08:31:16.971Z</time></trkpt><trkpt lat="44.0063641" lon="12.4804392"><ele>126.5</ele><time>2026-03-22T08:31:17.971Z</time></trkpt><trkpt lat="44.0062609" lon="12.4805423"><ele>127.0</ele><time>2026-03-22T08:31:18.972Z</time></trkpt><trkpt lat="44.0061659" lon="12.4806542"><ele>129.0</ele><time>2026-03-22T08:31:19.971Z</time></trkpt><trkpt lat="44.0060757" lon="12.4807797"><ele>131.0</ele><time>2026-03-22T08:31:20.971Z</time></trkpt><trkpt lat="44.0059916" lon="12.480915"><ele>133.0</ele><time>2026-03-22T08:31:21.971Z</time></trkpt><trkpt lat="44.0059172" lon="12.481064"><ele>135.0</ele><time>2026-03-22T08:31:22.971Z</time></trkpt><trkpt lat="44.005848" lon="12.4812276"><ele>138.25</ele><time>2026-03-22T08:31:23.971Z</time></trkpt><trkpt lat="44.0057763" lon="12.4813997"><ele>141.5</ele><time>2026-03-22T08:31:24.972Z</time></trkpt><trkpt lat="44.0057016" lon="12.4815691"><ele>144.75</ele><time>2026-03-22T08:31:25.97Z</time></trkpt><trkpt lat="44.0056291" lon="12.4817312"><ele>148.0</ele><time>2026-03-22T08:31:26.972Z</time></trkpt><trkpt lat="44.0055572" lon="12.4818909"><ele>148.0</ele><time>2026-03-22T08:31:27.971Z</time></trkpt><trkpt lat="44.0054902" lon="12.4820445"><ele>148.0</ele><time>2026-03-22T08:31:28.972Z</time></trkpt><trkpt lat="44.0054342" lon="12.4821741"><ele>148.0</ele><time>2026-03-22T08:31:29.972Z</time></trkpt><trkpt lat="44.0053835" lon="12.4822856"><ele>148.0</ele><time>2026-03-22T08:31:30.972Z</time></trkpt><trkpt lat="44.0053402" lon="12.4823982"><ele>148.0</ele><time>2026-03-22T08:31:31.971Z</time></trkpt><trkpt lat="44.0053098" lon="12.4825033"><ele>148.0</ele><time>2026-03-22T08:31:32.972Z</time></trkpt><trkpt lat="44.0052874" lon="12.482609"><ele>148.0</ele><time>2026-03-22T08:31:33.971Z</time></trkpt><trkpt lat="44.0052741" lon="12.4827196"><ele>148.0</ele><time>2026-03-22T08:31:34.97Z</time></trkpt><trkpt lat="44.005264" lon="12.4828327"><ele>148.0</ele><time>2026-03-22T08:31:35.972Z</time></trkpt><trkpt lat="44.0052599" lon="12.4829471"><ele>148.0</ele><time>2026-03-22T08:31:36.972Z</time></trkpt><trkpt lat="44.0052609" lon="12.4830489"><ele>148.0</ele><time>2026-03-22T08:31:37.971Z</time></trkpt><trkpt lat="44.0052637" lon="12.4831922"><ele>146.8</ele><time>2026-03-22T08:31:39.971Z</time></trkpt><trkpt lat="44.0052675" lon="12.4832932"><ele>145.60000000000002</ele><time>2026-03-22T08:31:42.972Z</time></trkpt><trkpt lat="44.0052632" lon="12.4834055"><ele>144.39999999999998</ele><time>2026-03-22T08:33:12.971Z</time></trkpt><trkpt lat="44.0052557" lon="12.4835294"><ele>143.2</ele><time>2026-03-22T08:33:14.972Z</time></trkpt><trkpt lat="44.0052641" lon="12.4836212"><ele>142.0</ele><time>2026-03-22T08:33:16.972Z</time></trkpt><trkpt lat="44.0053505" lon="12.4837917"><ele>140.75</ele><time>2026-03-22T08:33:18.971Z</time></trkpt><trkpt lat="44.005429" lon="12.4839062"><ele>139.5</ele><time>2026-03-22T08:33:19.972Z</time></trkpt><trkpt lat="44.0055221" lon="12.4840447"><ele>138.25</ele><time>2026-03-22T08:33:20.971Z</time></trkpt><trkpt lat="44.0056274" lon="12.484198"><ele>137.0</ele><time>2026-03-22T08:33:21.971Z</time></trkpt><trkpt lat="44.0057388" lon="12.4843637"><ele>137.25</ele><time>2026-03-22T08:33:22.972Z</time></trkpt><trkpt lat="44.0058456" lon="12.4845272"><ele>137.5</ele><time>2026-03-22T08:33:23.972Z</time></trkpt><trkpt lat="44.0059447" lon="12.4846812"><ele>137.75</ele><time>2026-03-22T08:33:24.972Z</time></trkpt><trkpt lat="44.0060381" lon="12.4848254"><ele>138.0</ele><time>2026-03-22T08:33:25.972Z</time></trkpt><trkpt lat="44.0061219" lon="12.4849559"><ele>138.5</ele><time>2026-03-22T08:33:26.971Z</time></trkpt><trkpt lat="44.0061994" lon="12.4850779"><ele>139.0</ele><time>2026-03-22T08:33:27.971Z</time></trkpt><trkpt lat="44.0062817" lon="12.4851993"><ele>139.5</ele><time>2026-03-22T08:33:28.972Z</time></trkpt><trkpt lat="44.0063691" lon="12.4853272"><ele>140.0</ele><time>2026-03-22T08:33:29.972Z</time></trkpt><trkpt lat="44.0064536" lon="12.4854459"><ele>140.0</ele><time>2026-03-22T08:33:30.971Z</time></trkpt><trkpt lat="44.0065381" lon="12.4855562"><ele>140.0</ele><time>2026-03-22T08:33:31.971Z</time></trkpt><trkpt lat="44.0066332" lon="12.485662"><ele>140.0</ele><time>2026-03-22T08:33:32.971Z</time></trkpt><trkpt lat="44.0067326" lon="12.4857533"><ele>140.0</ele><time>2026-03-22T08:33:33.971Z</time></trkpt><trkpt lat="44.0068401" lon="12.4858301"><ele>139.0</ele><time>2026-03-22T08:33:34.972Z</time></trkpt><trkpt lat="44.0069527" lon="12.4858924"><ele>138.0</ele><time>2026-03-22T08:33:35.971Z</time></trkpt><trkpt lat="44.007062" lon="12.4859483"><ele>137.0</ele><time>2026-03-22T08:33:36.971Z</time></trkpt><trkpt lat="44.0071749" lon="12.4860023"><ele>136.0</ele><time>2026-03-22T08:33:37.971Z</time></trkpt><trkpt lat="44.0072906" lon="12.4860575"><ele>136.0</ele><time>2026-03-22T08:33:38.972Z</time></trkpt><trkpt lat="44.0074053" lon="12.4861155"><ele>136.0</ele><time>2026-03-22T08:33:39.972Z</time></trkpt><trkpt lat="44.0075184" lon="12.4861811"><ele>136.0</ele><time>2026-03-22T08:33:40.971Z</time></trkpt><trkpt lat="44.0076351" lon="12.4862594"><ele>136.0</ele><time>2026-03-22T08:33:41.972Z</time></trkpt><trkpt lat="44.0077513" lon="12.4863467"><ele>134.5</ele><time>2026-03-22T08:33:42.97Z</time></trkpt><trkpt lat="44.0078696" lon="12.4864366"><ele>133.0</ele><time>2026-03-22T08:33:43.972Z</time></trkpt><trkpt lat="44.0079891" lon="12.4865319"><ele>131.5</ele><time>2026-03-22T08:33:44.971Z</time></trkpt><trkpt lat="44.0081096" lon="12.4866241"><ele>130.0</ele><time>2026-03-22T08:33:45.972Z</time></trkpt><trkpt lat="44.008231" lon="12.4867191"><ele>131.5</ele><time>2026-03-22T08:33:46.972Z</time></trkpt><trkpt lat="44.0083514" lon="12.4868203"><ele>133.0</ele><time>2026-03-22T08:33:47.972Z</time></trkpt><trkpt lat="44.0084732" lon="12.4869225"><ele>134.5</ele><time>2026-03-22T08:33:48.971Z</time></trkpt><trkpt lat="44.0085908" lon="12.4870355"><ele>136.0</ele><time>2026-03-22T08:33:49.972Z</time></trkpt><trkpt lat="44.0087047" lon="12.4871498"><ele>136.0</ele><time>2026-03-22T08:33:50.971Z</time></trkpt><trkpt lat="44.0088166" lon="12.4872668"><ele>136.0</ele><time>2026-03-22T08:33:51.972Z</time></trkpt><trkpt lat="44.0089259" lon="12.4873813"><ele>136.0</ele><time>2026-03-22T08:33:52.971Z</time></trkpt><trkpt lat="44.0090379" lon="12.4874993"><ele>136.0</ele><time>2026-03-22T08:33:53.971Z</time></trkpt><trkpt lat="44.0091499" lon="12.48762"><ele>137.5</ele><time>2026-03-22T08:33:54.971Z</time></trkpt><trkpt lat="44.0092626" lon="12.4877429"><ele>139.0</ele><time>2026-03-22T08:33:55.971Z</time></trkpt><trkpt lat="44.0093757" lon="12.4878603"><ele>140.5</ele><time>2026-03-22T08:33:56.972Z</time></trkpt><trkpt lat="44.0094875" lon="12.4879883"><ele>142.0</ele><time>2026-03-22T08:33:57.972Z</time></trkpt><trkpt lat="44.0096014" lon="12.4881167"><ele>142.0</ele><time>2026-03-22T08:33:58.972Z</time></trkpt><trkpt lat="44.0097185" lon="12.4882425"><ele>142.0</ele><time>2026-03-22T08:33:59.972Z</time></trkpt><trkpt lat="44.0098363" lon="12.4883669"><ele>142.0</ele><time>2026-03-22T08:34:00.972Z</time></trkpt><trkpt lat="44.0099567" lon="12.4884918"><ele>142.0</ele><time>2026-03-22T08:34:01.972Z</time></trkpt><trkpt lat="44.0100785" lon="12.488615"><ele>142.75</ele><time>2026-03-22T08:34:02.971Z</time></trkpt><trkpt lat="44.0102023" lon="12.488725"><ele>143.5</ele><time>2026-03-22T08:34:03.972Z</time></trkpt><trkpt lat="44.0103266" lon="12.4888401"><ele>144.25</ele><time>2026-03-22T08:34:04.971Z</time></trkpt><trkpt lat="44.0104518" lon="12.4889527"><ele>145.0</ele><time>2026-03-22T08:34:05.972Z</time></trkpt><trkpt lat="44.0105729" lon="12.4890529"><ele>145.6</ele><time>2026-03-22T08:34:06.972Z</time></trkpt><trkpt lat="44.0106818" lon="12.4891443"><ele>146.2</ele><time>2026-03-22T08:34:07.971Z</time></trkpt><trkpt lat="44.0107841" lon="12.4892208"><ele>146.8</ele><time>2026-03-22T08:34:08.97Z</time></trkpt><trkpt lat="44.0108673" lon="12.4892891"><ele>147.4</ele><time>2026-03-22T08:34:09.971Z</time></trkpt><trkpt lat="44.0109458" lon="12.4893538"><ele>148.0</ele><time>2026-03-22T08:34:10.972Z</time></trkpt><trkpt lat="44.0110236" lon="12.4894151"><ele>148.0</ele><time>2026-03-22T08:34:11.972Z</time></trkpt><trkpt lat="44.0110986" lon="12.489476"><ele>148.0</ele><time>2026-03-22T08:34:12.972Z</time></trkpt><trkpt lat="44.0111775" lon="12.489545"><ele>148.0</ele><time>2026-03-22T08:34:13.972Z</time></trkpt><trkpt lat="44.0112486" lon="12.4896033"><ele>148.0</ele><time>2026-03-22T08:34:14.972Z</time></trkpt><trkpt lat="44.01131" lon="12.4896542"><ele>148.0</ele><time>2026-03-22T08:34:15.972Z</time></trkpt><trkpt lat="44.0114043" lon="12.4897274"><ele>148.0</ele><time>2026-03-22T08:34:17.971Z</time></trkpt><trkpt lat="44.0114727" lon="12.4897992"><ele>148.20000000000002</ele><time>2026-03-22T08:34:19.97Z</time></trkpt><trkpt lat="44.0114824" lon="12.4898961"><ele>148.4</ele><time>2026-03-22T08:34:21.971Z</time></trkpt><trkpt lat="44.0114612" lon="12.4900647"><ele>148.60000000000002</ele><time>2026-03-22T08:34:23.972Z</time></trkpt><trkpt lat="44.0114468" lon="12.4901751"><ele>148.8</ele><time>2026-03-22T08:34:24.971Z</time></trkpt><trkpt lat="44.0114311" lon="12.4903008"><ele>149.0</ele><time>2026-03-22T08:34:25.972Z</time></trkpt><trkpt lat="44.0114168" lon="12.4904345"><ele>147.2</ele><time>2026-03-22T08:34:26.971Z</time></trkpt><trkpt lat="44.0114029" lon="12.4905736"><ele>145.4</ele><time>2026-03-22T08:34:27.972Z</time></trkpt><trkpt lat="44.0113865" lon="12.4907116"><ele>143.6</ele><time>2026-03-22T08:34:28.971Z</time></trkpt><trkpt lat="44.0113729" lon="12.4908411"><ele>141.8</ele><time>2026-03-22T08:34:29.971Z</time></trkpt><trkpt lat="44.011365" lon="12.490989"><ele>140.0</ele><time>2026-03-22T08:34:30.971Z</time></trkpt><trkpt lat="44.0113474" lon="12.4911377"><ele>138.6</ele><time>2026-03-22T08:34:31.972Z</time></trkpt><trkpt lat="44.0113356" lon="12.4912959"><ele>137.2</ele><time>2026-03-22T08:34:32.971Z</time></trkpt><trkpt lat="44.0113169" lon="12.4914403"><ele>135.8</ele><time>2026-03-22T08:34:33.971Z</time></trkpt><trkpt lat="44.0113037" lon="12.4915769"><ele>134.4</ele><time>2026-03-22T08:34:34.971Z</time></trkpt><trkpt lat="44.0112879" lon="12.4917005"><ele>133.0</ele><time>2026-03-22T08:34:35.972Z</time></trkpt><trkpt lat="44.0112788" lon="12.4918051"><ele>133.0</ele><time>2026-03-22T08:34:36.971Z</time></trkpt><trkpt lat="44.0112708" lon="12.491909"><ele>133.0</ele><time>2026-03-22T08:34:37.972Z</time></trkpt><trkpt lat="44.0112491" lon="12.4920441"><ele>133.0</ele><time>2026-03-22T08:34:39.972Z</time></trkpt><trkpt lat="44.0111879" lon="12.4921383"><ele>133.0</ele><time>2026-03-22T08:34:41.971Z</time></trkpt><trkpt lat="44.01107" lon="12.4922304"><ele>133.0</ele><time>2026-03-22T08:34:43.972Z</time></trkpt><trkpt lat="44.0110134" lon="12.4922735"><ele>131.4</ele><time>2026-03-22T08:34:44.971Z</time></trkpt><trkpt lat="44.0109021" lon="12.4923591"><ele>129.8</ele><time>2026-03-22T08:34:46.972Z</time></trkpt><trkpt lat="44.0108402" lon="12.4924026"><ele>128.2</ele><time>2026-03-22T08:34:47.971Z</time></trkpt><trkpt lat="44.0107268" lon="12.492456"><ele>126.6</ele><time>2026-03-22T08:34:49.971Z</time></trkpt><trkpt lat="44.0105995" lon="12.4924798"><ele>125.0</ele><time>2026-03-22T08:34:51.972Z</time></trkpt><trkpt lat="44.0105314" lon="12.4924735"><ele>124.99999999999999</ele><time>2026-03-22T08:34:52.972Z</time></trkpt><trkpt lat="44.010465" lon="12.4924817"><ele>125.0</ele><time>2026-03-22T08:34:53.972Z</time></trkpt><trkpt lat="44.0103697" lon="12.4925234"><ele>125.0</ele><time>2026-03-22T08:34:55.972Z</time></trkpt><trkpt lat="44.0103018" lon="12.4925743"><ele>125.0</ele><time>2026-03-22T08:34:57.971Z</time></trkpt><trkpt lat="44.0102356" lon="12.4926565"><ele>124.99999999999999</ele><time>2026-03-22T08:35:00.972Z</time></trkpt><trkpt lat="44.0101745" lon="12.492737"><ele>125.0</ele><time>2026-03-22T08:35:03.971Z</time></trkpt><trkpt lat="44.0101153" lon="12.4927844"><ele>125.0</ele><time>2026-03-22T08:35:09.972Z</time></trkpt><trkpt lat="44.0100581" lon="12.4928518"><ele>125.0</ele><time>2026-03-22T08:35:12.971Z</time></trkpt><trkpt lat="44.0100385" lon="12.4929408"><ele>125.0</ele><time>2026-03-22T08:35:15.972Z</time></trkpt><trkpt lat="44.010108" lon="12.4929913"><ele>125.0</ele><time>2026-03-22T08:35:19.972Z</time></trkpt><trkpt lat="44.0101704" lon="12.4929498"><ele>125.0</ele><time>2026-03-22T08:35:22.971Z</time></trkpt><trkpt lat="44.0101674" lon="12.4928462"><ele>125.0</ele><time>2026-03-22T08:35:25.971Z</time></trkpt><trkpt lat="44.0101561" lon="12.4927594"><ele>125.0</ele><time>2026-03-22T08:35:43.971Z</time></trkpt><trkpt lat="44.0101157" lon="12.4926662"><ele>124.99999999999999</ele><time>2026-03-22T08:35:46.972Z</time></trkpt><trkpt lat="44.010046" lon="12.4927332"><ele>125.0</ele><time>2026-03-22T08:35:47.971Z</time></trkpt><trkpt lat="44.0099838" lon="12.4927791"><ele>125.0</ele><time>2026-03-22T08:35:48.972Z</time></trkpt><trkpt lat="44.0098951" lon="12.4928218"><ele>125.0</ele><time>2026-03-22T08:35:50.971Z</time></trkpt><trkpt lat="44.0098261" lon="12.4928438"><ele>124.99999999999999</ele><time>2026-03-22T08:35:52.971Z</time></trkpt><trkpt lat="44.00974" lon="12.4928523"><ele>125.0</ele><time>2026-03-22T08:35:55.972Z</time></trkpt><trkpt lat="44.0096514" lon="12.4928695"><ele>123.6</ele><time>2026-03-22T08:35:58.971Z</time></trkpt><trkpt lat="44.0095784" lon="12.4928895"><ele>122.2</ele><time>2026-03-22T08:36:00.972Z</time></trkpt><trkpt lat="44.0094983" lon="12.4929093"><ele>120.80000000000001</ele><time>2026-03-22T08:36:02.971Z</time></trkpt><trkpt lat="44.0094002" lon="12.4929276"><ele>119.4</ele><time>2026-03-22T08:36:04.971Z</time></trkpt><trkpt lat="44.0092883" lon="12.4929487"><ele>118.0</ele><time>2026-03-22T08:36:06.972Z</time></trkpt><trkpt lat="44.0091854" lon="12.4929694"><ele>112.80000000000001</ele><time>2026-03-22T08:36:08.971Z</time></trkpt><trkpt lat="44.0090834" lon="12.4929917"><ele>107.60000000000001</ele><time>2026-03-22T08:36:10.972Z</time></trkpt><trkpt lat="44.0089763" lon="12.493011"><ele>102.4</ele><time>2026-03-22T08:36:12.972Z</time></trkpt><trkpt lat="44.008879" lon="12.4930297"><ele>97.19999999999999</ele><time>2026-03-22T08:36:14.972Z</time></trkpt><trkpt lat="44.0088017" lon="12.4930611"><ele>92.0</ele><time>2026-03-22T08:36:16.971Z</time></trkpt><trkpt lat="44.0087533" lon="12.4931453"><ele>92.0</ele><time>2026-03-22T08:36:18.971Z</time></trkpt><trkpt lat="44.0087382" lon="12.4933616"><ele>92.0</ele><time>2026-03-22T08:36:20.972Z</time></trkpt><trkpt lat="44.0087375" lon="12.4935209"><ele>92.0</ele><time>2026-03-22T08:36:21.972Z</time></trkpt><trkpt lat="44.0087389" lon="12.493673"><ele>92.0</ele><time>2026-03-22T08:36:22.971Z</time></trkpt><trkpt lat="44.0087416" lon="12.4938092"><ele>91.33333333333334</ele><time>2026-03-22T08:36:23.972Z</time></trkpt><trkpt lat="44.0087448" lon="12.4939389"><ele>90.66666666666667</ele><time>2026-03-22T08:36:24.972Z</time></trkpt><trkpt lat="44.0087454" lon="12.4940702"><ele>90.0</ele><time>2026-03-22T08:36:25.972Z</time></trkpt><trkpt lat="44.0087463" lon="12.4941947"><ele>89.33333333333333</ele><time>2026-03-22T08:36:26.972Z</time></trkpt><trkpt lat="44.0087473" lon="12.494305"><ele>88.66666666666666</ele><time>2026-03-22T08:36:27.972Z</time></trkpt><trkpt lat="44.0087494" lon="12.4944038"><ele>88.0</ele><time>2026-03-22T08:36:28.971Z</time></trkpt><trkpt lat="44.00875" lon="12.494494"><ele>87.75</ele><time>2026-03-22T08:36:29.972Z</time></trkpt><trkpt lat="44.0087496" lon="12.4946628"><ele>87.5</ele><time>2026-03-22T08:36:31.972Z</time></trkpt><trkpt lat="44.0087487" lon="12.4948203"><ele>87.25</ele><time>2026-03-22T08:36:33.972Z</time></trkpt><trkpt lat="44.0087414" lon="12.4949841"><ele>87.0</ele><time>2026-03-22T08:36:35.97Z</time></trkpt><trkpt lat="44.0087187" lon="12.4951397"><ele>87.0</ele><time>2026-03-22T08:36:37.972Z</time></trkpt><trkpt lat="44.0086866" lon="12.4953021"><ele>87.0</ele><time>2026-03-22T08:36:39.971Z</time></trkpt><trkpt lat="44.0086436" lon="12.4954497"><ele>87.0</ele><time>2026-03-22T08:36:41.971Z</time></trkpt><trkpt lat="44.0085989" lon="12.495559"><ele>87.0</ele><time>2026-03-22T08:36:43.972Z</time></trkpt><trkpt lat="44.0085449" lon="12.4956849"><ele>87.0</ele><time>2026-03-22T08:36:45.971Z</time></trkpt><trkpt lat="44.0085144" lon="12.4957662"><ele>85.39999999999999</ele><time>2026-03-22T08:36:46.971Z</time></trkpt><trkpt lat="44.0084576" lon="12.4959126"><ele>83.8</ele><time>2026-03-22T08:36:48.97Z</time></trkpt><trkpt lat="44.0084264" lon="12.4959927"><ele>82.2</ele><time>2026-03-22T08:36:49.972Z</time></trkpt><trkpt lat="44.0083957" lon="12.4960734"><ele>80.6</ele><time>2026-03-22T08:36:50.972Z</time></trkpt><trkpt lat="44.0083436" lon="12.4962214"><ele>79.0</ele><time>2026-03-22T08:36:52.972Z</time></trkpt><trkpt lat="44.0083029" lon="12.4963637"><ele>75.60000000000001</ele><time>2026-03-22T08:36:54.971Z</time></trkpt><trkpt lat="44.0082785" lon="12.4965098"><ele>72.2</ele><time>2026-03-22T08:36:56.971Z</time></trkpt><trkpt lat="44.0082814" lon="12.496664"><ele>68.80000000000001</ele><time>2026-03-22T08:36:58.972Z</time></trkpt><trkpt lat="44.0082916" lon="12.4967541"><ele>65.4</ele><time>2026-03-22T08:36:59.971Z</time></trkpt><trkpt lat="44.0083037" lon="12.4968407"><ele>62.0</ele><time>2026-03-22T08:37:00.971Z</time></trkpt><trkpt lat="44.0083262" lon="12.4970011"><ele>62.2</ele><time>2026-03-22T08:37:02.972Z</time></trkpt><trkpt lat="44.0083526" lon="12.4971623"><ele>62.400000000000006</ele><time>2026-03-22T08:37:04.972Z</time></trkpt><trkpt lat="44.0083628" lon="12.4972537"><ele>62.599999999999994</ele><time>2026-03-22T08:37:05.971Z</time></trkpt><trkpt lat="44.0083712" lon="12.4974222"><ele>62.8</ele><time>2026-03-22T08:37:07.97Z</time></trkpt><trkpt lat="44.0083693" lon="12.497608"><ele>63.0</ele><time>2026-03-22T08:37:09.972Z</time></trkpt><trkpt lat="44.0083637" lon="12.4977198"><ele>63.0</ele><time>2026-03-22T08:37:10.972Z</time></trkpt><trkpt lat="44.008355" lon="12.4978343"><ele>63.0</ele><time>2026-03-22T08:37:11.972Z</time></trkpt><trkpt lat="44.0083434" lon="12.4979515"><ele>63.0</ele><time>2026-03-22T08:37:12.971Z</time></trkpt><trkpt lat="44.0083317" lon="12.4980695"><ele>63.0</ele><time>2026-03-22T08:37:13.972Z</time></trkpt><trkpt lat="44.0083259" lon="12.498184"><ele>63.0</ele><time>2026-03-22T08:37:14.971Z</time></trkpt><trkpt lat="44.008325" lon="12.4982982"><ele>63.0</ele><time>2026-03-22T08:37:15.972Z</time></trkpt><trkpt lat="44.0083256" lon="12.4984058"><ele>62.166666666666664</ele><time>2026-03-22T08:37:16.972Z</time></trkpt><trkpt lat="44.008332" lon="12.4985104"><ele>61.33333333333333</ele><time>2026-03-22T08:37:17.971Z</time></trkpt><trkpt lat="44.0083418" lon="12.4986084"><ele>60.5</ele><time>2026-03-22T08:37:18.972Z</time></trkpt><trkpt lat="44.0083593" lon="12.4987338"><ele>59.666666666666664</ele><time>2026-03-22T08:37:20.972Z</time></trkpt><trkpt lat="44.0083751" lon="12.4988604"><ele>58.83333333333333</ele><time>2026-03-22T08:37:23.972Z</time></trkpt><trkpt lat="44.0084325" lon="12.498982"><ele>58.0</ele><time>2026-03-22T08:37:26.971Z</time></trkpt><trkpt lat="44.0085132" lon="12.4990335"><ele>57.33333333333333</ele><time>2026-03-22T08:37:27.971Z</time></trkpt><trkpt lat="44.0085905" lon="12.4990928"><ele>56.666666666666664</ele><time>2026-03-22T08:37:28.971Z</time></trkpt><trkpt lat="44.008661" lon="12.4991555"><ele>56.0</ele><time>2026-03-22T08:37:29.971Z</time></trkpt><trkpt lat="44.0087309" lon="12.4992194"><ele>55.33333333333333</ele><time>2026-03-22T08:37:30.971Z</time></trkpt><trkpt lat="44.0088065" lon="12.4992927"><ele>54.666666666666664</ele><time>2026-03-22T08:37:31.972Z</time></trkpt><trkpt lat="44.0088885" lon="12.4993759"><ele>54.0</ele><time>2026-03-22T08:37:32.972Z</time></trkpt><trkpt lat="44.0089752" lon="12.4994699"><ele>54.0</ele><time>2026-03-22T08:37:33.971Z</time></trkpt><trkpt lat="44.00905" lon="12.4995686"><ele>54.00000000000001</ele><time>2026-03-22T08:37:34.97Z</time></trkpt><trkpt lat="44.0091123" lon="12.4996699"><ele>54.00000000000001</ele><time>2026-03-22T08:37:35.971Z</time></trkpt><trkpt lat="44.0091613" lon="12.4997738"><ele>54.0</ele><time>2026-03-22T08:37:36.972Z</time></trkpt><trkpt lat="44.0091936" lon="12.49988"><ele>54.0</ele><time>2026-03-22T08:37:37.97Z</time></trkpt><trkpt lat="44.009209" lon="12.5000018"><ele>53.800000000000004</ele><time>2026-03-22T08:37:38.972Z</time></trkpt><trkpt lat="44.0092089" lon="12.5001434"><ele>53.60000000000001</ele><time>2026-03-22T08:37:39.972Z</time></trkpt><trkpt lat="44.0092024" lon="12.500307"><ele>53.4</ele><time>2026-03-22T08:37:40.97Z</time></trkpt><trkpt lat="44.009198" lon="12.5004652"><ele>53.2</ele><time>2026-03-22T08:37:41.972Z</time></trkpt><trkpt lat="44.0091928" lon="12.5006161"><ele>53.0</ele><time>2026-03-22T08:37:42.972Z</time></trkpt><trkpt lat="44.0091887" lon="12.500765"><ele>53.0</ele><time>2026-03-22T08:37:43.972Z</time></trkpt><trkpt lat="44.0091872" lon="12.500922"><ele>53.0</ele><time>2026-03-22T08:37:44.971Z</time></trkpt><trkpt lat="44.0091834" lon="12.5010856"><ele>53.0</ele><time>2026-03-22T08:37:45.972Z</time></trkpt><trkpt lat="44.0091827" lon="12.5012579"><ele>53.0</ele><time>2026-03-22T08:37:46.971Z</time></trkpt><trkpt lat="44.0091878" lon="12.5014352"><ele>53.0</ele><time>2026-03-22T08:37:47.97Z</time></trkpt><trkpt lat="44.0092019" lon="12.501616"><ele>53.0</ele><time>2026-03-22T08:37:48.972Z</time></trkpt><trkpt lat="44.0092201" lon="12.5018088"><ele>53.0</ele><time>2026-03-22T08:37:49.972Z</time></trkpt><trkpt lat="44.0092381" lon="12.5020031"><ele>53.0</ele><time>2026-03-22T08:37:50.972Z</time></trkpt><trkpt lat="44.0092583" lon="12.5022048"><ele>52.333333333333336</ele><time>2026-03-22T08:37:51.972Z</time></trkpt><trkpt lat="44.0092796" lon="12.5024166"><ele>51.66666666666667</ele><time>2026-03-22T08:37:52.971Z</time></trkpt><trkpt lat="44.0093014" lon="12.5026277"><ele>51.0</ele><time>2026-03-22T08:37:53.971Z</time></trkpt><trkpt lat="44.0093265" lon="12.5028576"><ele>50.66666666666667</ele><time>2026-03-22T08:37:54.972Z</time></trkpt><trkpt lat="44.0093511" lon="12.5031113"><ele>50.333333333333336</ele><time>2026-03-22T08:37:55.972Z</time></trkpt><trkpt lat="44.0093709" lon="12.5033789"><ele>50.0</ele><time>2026-03-22T08:37:56.971Z</time></trkpt><trkpt lat="44.0093792" lon="12.5036161"><ele>50.2</ele><time>2026-03-22T08:37:57.971Z</time></trkpt><trkpt lat="44.0093842" lon="12.5038026"><ele>50.4</ele><time>2026-03-22T08:37:58.971Z</time></trkpt><trkpt lat="44.0093857" lon="12.5039492"><ele>50.599999999999994</ele><time>2026-03-22T08:37:59.97Z</time></trkpt><trkpt lat="44.009388" lon="12.5040712"><ele>50.8</ele><time>2026-03-22T08:38:00.971Z</time></trkpt><trkpt lat="44.009384" lon="12.5041698"><ele>51.0</ele><time>2026-03-22T08:38:01.971Z</time></trkpt><trkpt lat="44.0093722" lon="12.5042916"><ele>51.0</ele><time>2026-03-22T08:38:03.971Z</time></trkpt><trkpt lat="44.0093645" lon="12.5044197"><ele>51.0</ele><time>2026-03-22T08:38:23.971Z</time></trkpt><trkpt lat="44.0093863" lon="12.5045349"><ele>51.0</ele><time>2026-03-22T08:38:25.972Z</time></trkpt><trkpt lat="44.0095249" lon="12.5045981"><ele>51.0</ele><time>2026-03-22T08:38:27.972Z</time></trkpt><trkpt lat="44.0096027" lon="12.504647"><ele>51.0</ele><time>2026-03-22T08:38:28.972Z</time></trkpt><trkpt lat="44.0096798" lon="12.5046807"><ele>51.333333333333336</ele><time>2026-03-22T08:38:29.972Z</time></trkpt><trkpt lat="44.0097933" lon="12.5046859"><ele>51.66666666666667</ele><time>2026-03-22T08:38:31.971Z</time></trkpt><trkpt lat="44.0098796" lon="12.504652"><ele>52.0</ele><time>2026-03-22T08:38:33.97Z</time></trkpt><trkpt lat="44.0099354" lon="12.5046039"><ele>52.333333333333336</ele><time>2026-03-22T08:38:35.971Z</time></trkpt><trkpt lat="44.0100024" lon="12.5045953"><ele>52.66666666666667</ele><time>2026-03-22T08:38:37.972Z</time></trkpt><trkpt lat="44.0100658" lon="12.504674"><ele>53.0</ele><time>2026-03-22T08:38:39.972Z</time></trkpt><trkpt lat="44.0101067" lon="12.5047597"><ele>54.66666666666667</ele><time>2026-03-22T08:38:40.972Z</time></trkpt><trkpt lat="44.0101701" lon="12.5048474"><ele>56.333333333333336</ele><time>2026-03-22T08:38:41.971Z</time></trkpt><trkpt lat="44.0102242" lon="12.504917"><ele>58.0</ele><time>2026-03-22T08:38:42.971Z</time></trkpt><trkpt lat="44.0102855" lon="12.5049918"><ele>59.66666666666667</ele><time>2026-03-22T08:38:43.971Z</time></trkpt><trkpt lat="44.010358" lon="12.5050699"><ele>61.333333333333336</ele><time>2026-03-22T08:38:44.971Z</time></trkpt><trkpt lat="44.0104354" lon="12.5051463"><ele>63.0</ele><time>2026-03-22T08:38:45.972Z</time></trkpt><trkpt lat="44.0105101" lon="12.5052175"><ele>63.0</ele><time>2026-03-22T08:38:46.972Z</time></trkpt><trkpt lat="44.0105826" lon="12.5052844"><ele>63.0</ele><time>2026-03-22T08:38:47.972Z</time></trkpt><trkpt lat="44.0106536" lon="12.5053443"><ele>63.0</ele><time>2026-03-22T08:38:48.971Z</time></trkpt><trkpt lat="44.0107227" lon="12.5053913"><ele>63.0</ele><time>2026-03-22T08:38:49.971Z</time></trkpt><trkpt lat="44.0107913" lon="12.5054239"><ele>63.0</ele><time>2026-03-22T08:38:50.971Z</time></trkpt><trkpt lat="44.0108726" lon="12.5054481"><ele>63.0</ele><time>2026-03-22T08:38:51.972Z</time></trkpt><trkpt lat="44.0109539" lon="12.5054551"><ele>62.0</ele><time>2026-03-22T08:38:52.971Z</time></trkpt><trkpt lat="44.0110276" lon="12.5054511"><ele>61.0</ele><time>2026-03-22T08:38:53.971Z</time></trkpt><trkpt lat="44.0111151" lon="12.50546"><ele>60.0</ele><time>2026-03-22T08:38:54.972Z</time></trkpt><trkpt lat="44.0112108" lon="12.5054853"><ele>59.0</ele><time>2026-03-22T08:38:55.971Z</time></trkpt><trkpt lat="44.0113028" lon="12.5055203"><ele>58.0</ele><time>2026-03-22T08:38:56.971Z</time></trkpt><trkpt lat="44.0113993" lon="12.5055576"><ele>58.0</ele><time>2026-03-22T08:38:57.972Z</time></trkpt><trkpt lat="44.0114958" lon="12.5055903"><ele>58.0</ele><time>2026-03-22T08:38:58.971Z</time></trkpt><trkpt lat="44.0115917" lon="12.5056147"><ele>58.0</ele><time>2026-03-22T08:38:59.971Z</time></trkpt><trkpt lat="44.0116939" lon="12.5056342"><ele>58.0</ele><time>2026-03-22T08:39:00.972Z</time></trkpt><trkpt lat="44.0117988" lon="12.5056476"><ele>58.0</ele><time>2026-03-22T08:39:01.972Z</time></trkpt><trkpt lat="44.0119002" lon="12.5056583"><ele>57.0</ele><time>2026-03-22T08:39:02.971Z</time></trkpt><trkpt lat="44.012006" lon="12.5056658"><ele>56.0</ele><time>2026-03-22T08:39:03.971Z</time></trkpt><trkpt lat="44.012114" lon="12.505676"><ele>55.0</ele><time>2026-03-22T08:39:04.972Z</time></trkpt><trkpt lat="44.0122224" lon="12.5056873"><ele>54.0</ele><time>2026-03-22T08:39:05.972Z</time></trkpt><trkpt lat="44.0123278" lon="12.5056973"><ele>53.0</ele><time>2026-03-22T08:39:06.971Z</time></trkpt><trkpt lat="44.0124246" lon="12.5057016"><ele>52.16666666666667</ele><time>2026-03-22T08:39:07.972Z</time></trkpt><trkpt lat="44.012518" lon="12.5057092"><ele>51.333333333333336</ele><time>2026-03-22T08:39:08.972Z</time></trkpt><trkpt lat="44.0126103" lon="12.5057188"><ele>50.5</ele><time>2026-03-22T08:39:09.971Z</time></trkpt><trkpt lat="44.0126947" lon="12.5057388"><ele>49.66666666666667</ele><time>2026-03-22T08:39:10.972Z</time></trkpt><trkpt lat="44.0127703" lon="12.5057887"><ele>48.833333333333336</ele><time>2026-03-22T08:39:11.971Z</time></trkpt><trkpt lat="44.0128401" lon="12.5058584"><ele>48.0</ele><time>2026-03-22T08:39:12.971Z</time></trkpt><trkpt lat="44.0128987" lon="12.5059409"><ele>48.0</ele><time>2026-03-22T08:39:13.971Z</time></trkpt><trkpt lat="44.0129599" lon="12.5060516"><ele>48.0</ele><time>2026-03-22T08:39:14.971Z</time></trkpt><trkpt lat="44.0130386" lon="12.5061612"><ele>48.0</ele><time>2026-03-22T08:39:15.971Z</time></trkpt><trkpt lat="44.0131305" lon="12.5062676"><ele>48.0</ele><time>2026-03-22T08:39:16.972Z</time></trkpt><trkpt lat="44.0132316" lon="12.5063767"><ele>48.25</ele><time>2026-03-22T08:39:17.972Z</time></trkpt><trkpt lat="44.0133305" lon="12.5064825"><ele>48.5</ele><time>2026-03-22T08:39:18.971Z</time></trkpt><trkpt lat="44.0134281" lon="12.506593"><ele>48.75</ele><time>2026-03-22T08:39:19.972Z</time></trkpt><trkpt lat="44.013517" lon="12.5067178"><ele>49.0</ele><time>2026-03-22T08:39:20.972Z</time></trkpt><trkpt lat="44.0135952" lon="12.5068408"><ele>49.0</ele><time>2026-03-22T08:39:21.971Z</time></trkpt><trkpt lat="44.0136688" lon="12.5069599"><ele>49.0</ele><time>2026-03-22T08:39:22.972Z</time></trkpt><trkpt lat="44.0137328" lon="12.5070658"><ele>49.0</ele><time>2026-03-22T08:39:23.971Z</time></trkpt><trkpt lat="44.0137997" lon="12.5071539"><ele>49.0</ele><time>2026-03-22T08:39:24.972Z</time></trkpt><trkpt lat="44.0138738" lon="12.5072263"><ele>49.0</ele><time>2026-03-22T08:39:25.972Z</time></trkpt><trkpt lat="44.0139664" lon="12.5072958"><ele>49.0</ele><time>2026-03-22T08:39:26.972Z</time></trkpt><trkpt lat="44.0140717" lon="12.5073686"><ele>49.0</ele><time>2026-03-22T08:39:27.971Z</time></trkpt><trkpt lat="44.0141837" lon="12.5074343"><ele>49.0</ele><time>2026-03-22T08:39:28.971Z</time></trkpt><trkpt lat="44.0142929" lon="12.5075041"><ele>49.0</ele><time>2026-03-22T08:39:29.971Z</time></trkpt><trkpt lat="44.0144042" lon="12.5075818"><ele>50.75</ele><time>2026-03-22T08:39:30.972Z</time></trkpt><trkpt lat="44.0145045" lon="12.5076766"><ele>52.5</ele><time>2026-03-22T08:39:31.972Z</time></trkpt><trkpt lat="44.0146055" lon="12.507773"><ele>54.25</ele><time>2026-03-22T08:39:32.972Z</time></trkpt><trkpt lat="44.0147072" lon="12.5078632"><ele>56.0</ele><time>2026-03-22T08:39:33.972Z</time></trkpt><trkpt lat="44.0147868" lon="12.5079368"><ele>56.50000000000001</ele><time>2026-03-22T08:39:34.972Z</time></trkpt><trkpt lat="44.0148487" lon="12.5079964"><ele>57.0</ele><time>2026-03-22T08:39:35.97Z</time></trkpt><trkpt lat="44.0149269" lon="12.5080677"><ele>57.5</ele><time>2026-03-22T08:39:37.971Z</time></trkpt><trkpt lat="44.0149767" lon="12.5081907"><ele>58.0</ele><time>2026-03-22T08:39:39.972Z</time></trkpt><trkpt lat="44.0150003" lon="12.5082858"><ele>58.50000000000001</ele><time>2026-03-22T08:39:40.972Z</time></trkpt><trkpt lat="44.0150343" lon="12.5083704"><ele>59.0</ele><time>2026-03-22T08:39:41.971Z</time></trkpt><trkpt lat="44.0150937" lon="12.5084214"><ele>61.16666666666667</ele><time>2026-03-22T08:39:42.972Z</time></trkpt><trkpt lat="44.0151684" lon="12.5084453"><ele>63.333333333333336</ele><time>2026-03-22T08:39:43.971Z</time></trkpt><trkpt lat="44.0152605" lon="12.5084731"><ele>65.5</ele><time>2026-03-22T08:39:44.97Z</time></trkpt><trkpt lat="44.0153504" lon="12.5085042"><ele>67.66666666666667</ele><time>2026-03-22T08:39:45.971Z</time></trkpt><trkpt lat="44.0154292" lon="12.5085143"><ele>69.83333333333333</ele><time>2026-03-22T08:39:46.971Z</time></trkpt><trkpt lat="44.0155088" lon="12.5084927"><ele>72.0</ele><time>2026-03-22T08:39:47.972Z</time></trkpt><trkpt lat="44.015583" lon="12.5084357"><ele>72.0</ele><time>2026-03-22T08:39:48.972Z</time></trkpt><trkpt lat="44.0156671" lon="12.5083786"><ele>72.0</ele><time>2026-03-22T08:39:49.972Z</time></trkpt><trkpt lat="44.0157649" lon="12.5083472"><ele>72.0</ele><time>2026-03-22T08:39:50.972Z</time></trkpt><trkpt lat="44.0158715" lon="12.5083351"><ele>72.0</ele><time>2026-03-22T08:39:51.972Z</time></trkpt><trkpt lat="44.0159887" lon="12.508342"><ele>72.0</ele><time>2026-03-22T08:39:52.972Z</time></trkpt><trkpt lat="44.0161124" lon="12.5083821"><ele>73.0</ele><time>2026-03-22T08:39:53.971Z</time></trkpt><trkpt lat="44.0162365" lon="12.5084576"><ele>74.0</ele><time>2026-03-22T08:39:54.971Z</time></trkpt><trkpt lat="44.0163619" lon="12.5085522"><ele>75.0</ele><time>2026-03-22T08:39:55.972Z</time></trkpt><trkpt lat="44.0164926" lon="12.5086497"><ele>76.0</ele><time>2026-03-22T08:39:56.971Z</time></trkpt><trkpt lat="44.016629" lon="12.5087527"><ele>78.75</ele><time>2026-03-22T08:39:57.972Z</time></trkpt><trkpt lat="44.0167555" lon="12.5088491"><ele>81.5</ele><time>2026-03-22T08:39:58.971Z</time></trkpt><trkpt lat="44.0168567" lon="12.5089344"><ele>84.25</ele><time>2026-03-22T08:39:59.972Z</time></trkpt><trkpt lat="44.0169468" lon="12.5090088"><ele>87.0</ele><time>2026-03-22T08:40:00.972Z</time></trkpt><trkpt lat="44.0170306" lon="12.5090822"><ele>87.0</ele><time>2026-03-22T08:40:01.971Z</time></trkpt><trkpt lat="44.0171169" lon="12.5091596"><ele>87.0</ele><time>2026-03-22T08:40:02.972Z</time></trkpt><trkpt lat="44.0172043" lon="12.5092392"><ele>87.0</ele><time>2026-03-22T08:40:03.972Z</time></trkpt><trkpt lat="44.0173007" lon="12.5093183"><ele>87.0</ele><time>2026-03-22T08:40:04.97Z</time></trkpt><trkpt lat="44.0174154" lon="12.5094064"><ele>87.25</ele><time>2026-03-22T08:40:05.971Z</time></trkpt><trkpt lat="44.0175476" lon="12.5094775"><ele>87.5</ele><time>2026-03-22T08:40:06.971Z</time></trkpt><trkpt lat="44.0176905" lon="12.5095234"><ele>87.75</ele><time>2026-03-22T08:40:07.972Z</time></trkpt><trkpt lat="44.0178403" lon="12.5095558"><ele>88.0</ele><time>2026-03-22T08:40:08.97Z</time></trkpt><trkpt lat="44.0179962" lon="12.5095874"><ele>88.0</ele><time>2026-03-22T08:40:09.972Z</time></trkpt><trkpt lat="44.0181547" lon="12.5096137"><ele>88.0</ele><time>2026-03-22T08:40:10.971Z</time></trkpt><trkpt lat="44.0183035" lon="12.5096359"><ele>88.0</ele><time>2026-03-22T08:40:11.971Z</time></trkpt><trkpt lat="44.0184451" lon="12.5096494"><ele>88.25</ele><time>2026-03-22T08:40:12.972Z</time></trkpt><trkpt lat="44.0185785" lon="12.5096379"><ele>88.5</ele><time>2026-03-22T08:40:13.97Z</time></trkpt><trkpt lat="44.0187189" lon="12.5096023"><ele>88.75</ele><time>2026-03-22T08:40:14.972Z</time></trkpt><trkpt lat="44.0188658" lon="12.5095522"><ele>89.0</ele><time>2026-03-22T08:40:15.972Z</time></trkpt><trkpt lat="44.0190185" lon="12.5094957"><ele>91.66666666666667</ele><time>2026-03-22T08:40:16.97Z</time></trkpt><trkpt lat="44.0191767" lon="12.5094329"><ele>94.33333333333334</ele><time>2026-03-22T08:40:17.971Z</time></trkpt><trkpt lat="44.0193377" lon="12.5093708"><ele>97.0</ele><time>2026-03-22T08:40:18.972Z</time></trkpt><trkpt lat="44.0194962" lon="12.5093097"><ele>97.0</ele><time>2026-03-22T08:40:19.972Z</time></trkpt><trkpt lat="44.0196522" lon="12.5092517"><ele>97.0</ele><time>2026-03-22T08:40:20.971Z</time></trkpt><trkpt lat="44.0198036" lon="12.5091869"><ele>97.0</ele><time>2026-03-22T08:40:21.972Z</time></trkpt><trkpt lat="44.0199503" lon="12.5091104"><ele>97.5</ele><time>2026-03-22T08:40:22.971Z</time></trkpt><trkpt lat="44.0200767" lon="12.5090232"><ele>98.0</ele><time>2026-03-22T08:40:23.972Z</time></trkpt><trkpt lat="44.0201888" lon="12.5089319"><ele>98.5</ele><time>2026-03-22T08:40:24.972Z</time></trkpt><trkpt lat="44.0202878" lon="12.5088473"><ele>99.0</ele><time>2026-03-22T08:40:25.971Z</time></trkpt><trkpt lat="44.020374" lon="12.5087719"><ele>99.83333333333333</ele><time>2026-03-22T08:40:26.972Z</time></trkpt><trkpt lat="44.0204512" lon="12.50871"><ele>100.66666666666666</ele><time>2026-03-22T08:40:27.971Z</time></trkpt><trkpt lat="44.0205155" lon="12.5086598"><ele>101.5</ele><time>2026-03-22T08:40:28.971Z</time></trkpt><trkpt lat="44.0206073" lon="12.5085791"><ele>102.33333333333333</ele><time>2026-03-22T08:40:30.972Z</time></trkpt><trkpt lat="44.0206804" lon="12.508521"><ele>103.16666666666666</ele><time>2026-03-22T08:40:32.971Z</time></trkpt><trkpt lat="44.0207423" lon="12.5084805"><ele>104.0</ele><time>2026-03-22T08:40:34.972Z</time></trkpt><trkpt lat="44.020812" lon="12.5084273"><ele>103.99999999999999</ele><time>2026-03-22T08:40:36.971Z</time></trkpt><trkpt lat="44.020893" lon="12.5084037"><ele>104.0</ele><time>2026-03-22T08:40:38.972Z</time></trkpt><trkpt lat="44.020821" lon="12.508386"><ele>104.0</ele><time>2026-03-22T08:40:44.971Z</time></trkpt><trkpt lat="44.0207654" lon="12.508431"><ele>104.0</ele><time>2026-03-22T08:40:45.971Z</time></trkpt><trkpt lat="44.0206545" lon="12.5085107"><ele>103.99999999999999</ele><time>2026-03-22T08:40:47.972Z</time></trkpt><trkpt lat="44.0205947" lon="12.5085631"><ele>104.0</ele><time>2026-03-22T08:40:48.972Z</time></trkpt><trkpt lat="44.02049" lon="12.5086569"><ele>104.0</ele><time>2026-03-22T08:40:50.971Z</time></trkpt><trkpt lat="44.0204361" lon="12.5087063"><ele>104.0</ele><time>2026-03-22T08:40:51.972Z</time></trkpt><trkpt lat="44.0203785" lon="12.5087583"><ele>104.0</ele><time>2026-03-22T08:40:52.971Z</time></trkpt><trkpt lat="44.0202933" lon="12.508832"><ele>104.0</ele><time>2026-03-22T08:40:54.972Z</time></trkpt><trkpt lat="44.0201919" lon="12.5089141"><ele>104.0</ele><time>2026-03-22T08:40:56.972Z</time></trkpt><trkpt lat="44.0200881" lon="12.5090043"><ele>103.0</ele><time>2026-03-22T08:40:58.971Z</time></trkpt><trkpt lat="44.019989" lon="12.5090791"><ele>102.0</ele><time>2026-03-22T08:41:00.971Z</time></trkpt><trkpt lat="44.0199064" lon="12.5091444"><ele>101.0</ele><time>2026-03-22T08:41:02.972Z</time></trkpt><trkpt lat="44.0198853" lon="12.5092783"><ele>100.0</ele><time>2026-03-22T08:41:05.972Z</time></trkpt><trkpt lat="44.0198964" lon="12.5094169"><ele>99.0</ele><time>2026-03-22T08:41:07.972Z</time></trkpt><trkpt lat="44.0199111" lon="12.5095626"><ele>96.80000000000001</ele><time>2026-03-22T08:41:09.972Z</time></trkpt><trkpt lat="44.0199365" lon="12.5097297"><ele>94.60000000000001</ele><time>2026-03-22T08:41:11.97Z</time></trkpt><trkpt lat="44.0199513" lon="12.5098271"><ele>92.4</ele><time>2026-03-22T08:41:12.971Z</time></trkpt><trkpt lat="44.0199631" lon="12.5099282"><ele>90.2</ele><time>2026-03-22T08:41:13.972Z</time></trkpt><trkpt lat="44.0199785" lon="12.5100236"><ele>88.0</ele><time>2026-03-22T08:41:14.971Z</time></trkpt><trkpt lat="44.0199981" lon="12.5101876"><ele>87.83333333333333</ele><time>2026-03-22T08:41:16.97Z</time></trkpt><trkpt lat="44.0200133" lon="12.5103234"><ele>87.66666666666666</ele><time>2026-03-22T08:41:18.972Z</time></trkpt><trkpt lat="44.0200209" lon="12.5104337"><ele>87.5</ele><time>2026-03-22T08:41:20.972Z</time></trkpt><trkpt lat="44.020022" lon="12.510539"><ele>87.33333333333333</ele><time>2026-03-22T08:41:22.972Z</time></trkpt><trkpt lat="44.0200315" lon="12.5106463"><ele>87.16666666666667</ele><time>2026-03-22T08:41:24.972Z</time></trkpt><trkpt lat="44.0200482" lon="12.510767"><ele>87.0</ele><time>2026-03-22T08:41:27.972Z</time></trkpt><trkpt lat="44.0200602" lon="12.5108763"><ele>84.83333333333333</ele><time>2026-03-22T08:41:29.971Z</time></trkpt><trkpt lat="44.0200945" lon="12.5109831"><ele>82.66666666666667</ele><time>2026-03-22T08:41:31.976Z</time></trkpt><trkpt lat="44.0201038" lon="12.5111016"><ele>80.5</ele><time>2026-03-22T08:41:33.997Z</time></trkpt><trkpt lat="44.0201089" lon="12.5112145"><ele>78.33333333333334</ele><time>2026-03-22T08:41:35.972Z</time></trkpt><trkpt lat="44.0201236" lon="12.5113289"><ele>76.16666666666667</ele><time>2026-03-22T08:41:37.973Z</time></trkpt><trkpt lat="44.0201405" lon="12.5114643"><ele>74.0</ele><time>2026-03-22T08:41:39.973Z</time></trkpt><trkpt lat="44.020156" lon="12.5115949"><ele>72.66666666666667</ele><time>2026-03-22T08:41:41.973Z</time></trkpt><trkpt lat="44.0201759" lon="12.5117316"><ele>71.33333333333334</ele><time>2026-03-22T08:41:43.973Z</time></trkpt><trkpt lat="44.0201925" lon="12.511874"><ele>70.0</ele><time>2026-03-22T08:41:45.972Z</time></trkpt><trkpt lat="44.020207" lon="12.5119812"><ele>68.66666666666667</ele><time>2026-03-22T08:41:47.973Z</time></trkpt><trkpt lat="44.0202214" lon="12.5120699"><ele>67.33333333333333</ele><time>2026-03-22T08:41:49.972Z</time></trkpt><trkpt lat="44.0202916" lon="12.512064"><ele>66.0</ele><time>2026-03-22T08:41:52.971Z</time></trkpt><trkpt lat="44.0203824" lon="12.5120005"><ele>66.0</ele><time>2026-03-22T08:41:55.973Z</time></trkpt><trkpt lat="44.020451" lon="12.5120457"><ele>66.0</ele><time>2026-03-22T08:41:58.972Z</time></trkpt><trkpt lat="44.0204248" lon="12.5121377"><ele>66.0</ele><time>2026-03-22T08:42:00.973Z</time></trkpt><trkpt lat="44.0203456" lon="12.5122028"><ele>66.0</ele><time>2026-03-22T08:42:02.972Z</time></trkpt><trkpt lat="44.0203283" lon="12.5123216"><ele>66.0</ele><time>2026-03-22T08:42:05.972Z</time></trkpt><trkpt lat="44.020396" lon="12.5124408"><ele>66.0</ele><time>2026-03-22T08:42:07.973Z</time></trkpt><trkpt lat="44.0204413" lon="12.5125019"><ele>66.16666666666667</ele><time>2026-03-22T08:42:08.973Z</time></trkpt><trkpt lat="44.0205204" lon="12.512626"><ele>66.33333333333333</ele><time>2026-03-22T08:42:10.972Z</time></trkpt><trkpt lat="44.0205677" lon="12.5126922"><ele>66.5</ele><time>2026-03-22T08:42:11.972Z</time></trkpt><trkpt lat="44.0206171" lon="12.5127634"><ele>66.66666666666666</ele><time>2026-03-22T08:42:12.973Z</time></trkpt><trkpt lat="44.0206676" lon="12.5128429"><ele>66.83333333333333</ele><time>2026-03-22T08:42:13.971Z</time></trkpt><trkpt lat="44.020721" lon="12.5129262"><ele>67.0</ele><time>2026-03-22T08:42:14.972Z</time></trkpt><trkpt lat="44.0207769" lon="12.5130104"><ele>68.33333333333333</ele><time>2026-03-22T08:42:15.973Z</time></trkpt><trkpt lat="44.0208285" lon="12.5130937"><ele>69.66666666666666</ele><time>2026-03-22T08:42:16.973Z</time></trkpt><trkpt lat="44.0208766" lon="12.5131743"><ele>71.0</ele><time>2026-03-22T08:42:17.972Z</time></trkpt><trkpt lat="44.0209279" lon="12.513263"><ele>72.33333333333333</ele><time>2026-03-22T08:42:18.972Z</time></trkpt><trkpt lat="44.0209817" lon="12.5133535"><ele>73.66666666666667</ele><time>2026-03-22T08:42:19.972Z</time></trkpt><trkpt lat="44.0210358" lon="12.5134456"><ele>75.0</ele><time>2026-03-22T08:42:20.972Z</time></trkpt><trkpt lat="44.0210914" lon="12.513541"><ele>75.0</ele><time>2026-03-22T08:42:21.973Z</time></trkpt><trkpt lat="44.0211473" lon="12.5136346"><ele>75.0</ele><time>2026-03-22T08:42:22.973Z</time></trkpt><trkpt lat="44.0211998" lon="12.5137336"><ele>75.0</ele><time>2026-03-22T08:42:23.972Z</time></trkpt><trkpt lat="44.021249" lon="12.5138367"><ele>75.0</ele><time>2026-03-22T08:42:24.973Z</time></trkpt><trkpt lat="44.0212896" lon="12.5139402"><ele>75.0</ele><time>2026-03-22T08:42:25.972Z</time></trkpt><trkpt lat="44.0213267" lon="12.5140297"><ele>75.0</ele><time>2026-03-22T08:42:26.973Z</time></trkpt><trkpt lat="44.0213732" lon="12.5141315"><ele>75.5</ele><time>2026-03-22T08:42:27.971Z</time></trkpt><trkpt lat="44.0214149" lon="12.5142294"><ele>76.0</ele><time>2026-03-22T08:42:28.973Z</time></trkpt><trkpt lat="44.0214532" lon="12.5143197"><ele>76.5</ele><time>2026-03-22T08:42:29.972Z</time></trkpt><trkpt lat="44.021492" lon="12.5143938"><ele>77.0</ele><time>2026-03-22T08:42:30.973Z</time></trkpt><trkpt lat="44.0215385" lon="12.5145225"><ele>77.5</ele><time>2026-03-22T08:42:32.973Z</time></trkpt><trkpt lat="44.0215364" lon="12.5146416"><ele>78.0</ele><time>2026-03-22T08:42:34.973Z</time></trkpt><trkpt lat="44.0214689" lon="12.5147267"><ele>78.0</ele><time>2026-03-22T08:42:36.972Z</time></trkpt><trkpt lat="44.0214122" lon="12.5147742"><ele>78.0</ele><time>2026-03-22T08:42:37.972Z</time></trkpt><trkpt lat="44.0213437" lon="12.5148255"><ele>78.0</ele><time>2026-03-22T08:42:38.973Z</time></trkpt><trkpt lat="44.0212826" lon="12.514873"><ele>78.0</ele><time>2026-03-22T08:42:39.972Z</time></trkpt><trkpt lat="44.0211927" lon="12.5149411"><ele>78.0</ele><time>2026-03-22T08:42:41.972Z</time></trkpt><trkpt lat="44.0211363" lon="12.5150095"><ele>78.0</ele><time>2026-03-22T08:42:44.972Z</time></trkpt><trkpt lat="44.0211327" lon="12.5151298"><ele>78.0</ele><time>2026-03-22T08:42:48.001Z</time></trkpt><trkpt lat="44.0210585" lon="12.5152188"><ele>78.0</ele><time>2026-03-22T08:42:49.972Z</time></trkpt><trkpt lat="44.0209735" lon="12.515283"><ele>78.0</ele><time>2026-03-22T08:42:50.972Z</time></trkpt><trkpt lat="44.0208786" lon="12.5153624"><ele>78.0</ele><time>2026-03-22T08:42:51.971Z</time></trkpt><trkpt lat="44.020785" lon="12.5154509"><ele>78.0</ele><time>2026-03-22T08:42:52.972Z</time></trkpt><trkpt lat="44.020682" lon="12.5155531"><ele>78.66666666666667</ele><time>2026-03-22T08:42:53.973Z</time></trkpt><trkpt lat="44.0205502" lon="12.5157016"><ele>79.33333333333334</ele><time>2026-03-22T08:42:54.972Z</time></trkpt><trkpt lat="44.0204008" lon="12.5158695"><ele>80.0</ele><time>2026-03-22T08:42:55.973Z</time></trkpt><trkpt lat="44.020231" lon="12.5160502"><ele>80.0</ele><time>2026-03-22T08:42:56.972Z</time></trkpt><trkpt lat="44.0200582" lon="12.5162177"><ele>80.0</ele><time>2026-03-22T08:42:57.973Z</time></trkpt><trkpt lat="44.019901" lon="12.5163629"><ele>80.0</ele><time>2026-03-22T08:42:58.973Z</time></trkpt><trkpt lat="44.0197491" lon="12.5164955"><ele>81.33333333333334</ele><time>2026-03-22T08:42:59.973Z</time></trkpt><trkpt lat="44.0195896" lon="12.5166368"><ele>82.66666666666667</ele><time>2026-03-22T08:43:00.972Z</time></trkpt><trkpt lat="44.0194312" lon="12.5167786"><ele>84.0</ele><time>2026-03-22T08:43:01.973Z</time></trkpt><trkpt lat="44.0192852" lon="12.5169162"><ele>85.66666666666667</ele><time>2026-03-22T08:43:02.973Z</time></trkpt><trkpt lat="44.0191386" lon="12.5170595"><ele>87.33333333333334</ele><time>2026-03-22T08:43:03.972Z</time></trkpt><trkpt lat="44.018995" lon="12.5172002"><ele>89.0</ele><time>2026-03-22T08:43:04.972Z</time></trkpt><trkpt lat="44.0188572" lon="12.5173455"><ele>89.0</ele><time>2026-03-22T08:43:05.973Z</time></trkpt><trkpt lat="44.0187375" lon="12.5174941"><ele>89.0</ele><time>2026-03-22T08:43:06.973Z</time></trkpt><trkpt lat="44.018624" lon="12.5176425"><ele>89.0</ele><time>2026-03-22T08:43:07.971Z</time></trkpt><trkpt lat="44.0185141" lon="12.51778"><ele>89.33333333333334</ele><time>2026-03-22T08:43:08.973Z</time></trkpt><trkpt lat="44.0183897" lon="12.5179085"><ele>89.66666666666667</ele><time>2026-03-22T08:43:09.973Z</time></trkpt><trkpt lat="44.0182463" lon="12.5180414"><ele>90.0</ele><time>2026-03-22T08:43:10.973Z</time></trkpt><trkpt lat="44.0180962" lon="12.5181719"><ele>92.0</ele><time>2026-03-22T08:43:11.972Z</time></trkpt><trkpt lat="44.0179513" lon="12.518297"><ele>94.0</ele><time>2026-03-22T08:43:12.971Z</time></trkpt><trkpt lat="44.0178227" lon="12.5184116"><ele>96.0</ele><time>2026-03-22T08:43:13.973Z</time></trkpt><trkpt lat="44.0177042" lon="12.5185187"><ele>96.0</ele><time>2026-03-22T08:43:14.973Z</time></trkpt><trkpt lat="44.0175994" lon="12.5186121"><ele>96.0</ele><time>2026-03-22T08:43:15.972Z</time></trkpt><trkpt lat="44.0175127" lon="12.5186911"><ele>96.0</ele><time>2026-03-22T08:43:16.972Z</time></trkpt><trkpt lat="44.0174416" lon="12.518757"><ele>96.0</ele><time>2026-03-22T08:43:17.972Z</time></trkpt><trkpt lat="44.0173531" lon="12.5188239"><ele>96.0</ele><time>2026-03-22T08:43:19.972Z</time></trkpt><trkpt lat="44.0172978" lon="12.5188766"><ele>96.19999999999999</ele><time>2026-03-22T08:43:22.973Z</time></trkpt><trkpt lat="44.0173159" lon="12.5190061"><ele>96.39999999999999</ele><time>2026-03-22T08:43:24.973Z</time></trkpt><trkpt lat="44.0173509" lon="12.5191078"><ele>96.6</ele><time>2026-03-22T08:43:25.972Z</time></trkpt><trkpt lat="44.0173943" lon="12.519236"><ele>96.8</ele><time>2026-03-22T08:43:26.972Z</time></trkpt><trkpt lat="44.0174401" lon="12.519384"><ele>97.0</ele><time>2026-03-22T08:43:27.971Z</time></trkpt><trkpt lat="44.0174898" lon="12.5195341"><ele>95.75</ele><time>2026-03-22T08:43:28.972Z</time></trkpt><trkpt lat="44.0175477" lon="12.5196981"><ele>94.5</ele><time>2026-03-22T08:43:29.973Z</time></trkpt><trkpt lat="44.0176093" lon="12.5198847"><ele>93.25</ele><time>2026-03-22T08:43:30.972Z</time></trkpt><trkpt lat="44.0176724" lon="12.5200668"><ele>92.0</ele><time>2026-03-22T08:43:31.972Z</time></trkpt><trkpt lat="44.0177295" lon="12.5202488"><ele>90.5</ele><time>2026-03-22T08:43:32.973Z</time></trkpt><trkpt lat="44.0177879" lon="12.520427"><ele>89.0</ele><time>2026-03-22T08:43:33.972Z</time></trkpt><trkpt lat="44.0178491" lon="12.5206002"><ele>87.5</ele><time>2026-03-22T08:43:34.972Z</time></trkpt><trkpt lat="44.0179086" lon="12.520769"><ele>86.0</ele><time>2026-03-22T08:43:35.972Z</time></trkpt><trkpt lat="44.0179693" lon="12.5209294"><ele>86.0</ele><time>2026-03-22T08:43:36.973Z</time></trkpt><trkpt lat="44.0180294" lon="12.5210789"><ele>86.0</ele><time>2026-03-22T08:43:37.973Z</time></trkpt><trkpt lat="44.0180895" lon="12.5212175"><ele>86.0</ele><time>2026-03-22T08:43:38.973Z</time></trkpt><trkpt lat="44.0181383" lon="12.5213268"><ele>86.0</ele><time>2026-03-22T08:43:39.972Z</time></trkpt><trkpt lat="44.0181715" lon="12.5214052"><ele>86.0</ele><time>2026-03-22T08:43:40.973Z</time></trkpt><trkpt lat="44.0181953" lon="12.5215356"><ele>84.2</ele><time>2026-03-22T08:43:42.972Z</time></trkpt><trkpt lat="44.0181305" lon="12.5217208"><ele>82.39999999999999</ele><time>2026-03-22T08:43:44.972Z</time></trkpt><trkpt lat="44.0180947" lon="12.5218422"><ele>80.6</ele><time>2026-03-22T08:43:45.972Z</time></trkpt><trkpt lat="44.0180628" lon="12.5219833"><ele>78.8</ele><time>2026-03-22T08:43:46.971Z</time></trkpt><trkpt lat="44.0180414" lon="12.5221178"><ele>77.0</ele><time>2026-03-22T08:43:47.972Z</time></trkpt><trkpt lat="44.0180267" lon="12.5222568"><ele>75.8</ele><time>2026-03-22T08:43:48.973Z</time></trkpt><trkpt lat="44.0180163" lon="12.5223952"><ele>74.6</ele><time>2026-03-22T08:43:49.972Z</time></trkpt><trkpt lat="44.0180097" lon="12.5225367"><ele>73.39999999999999</ele><time>2026-03-22T08:43:50.972Z</time></trkpt><trkpt lat="44.0180069" lon="12.5226698"><ele>72.2</ele><time>2026-03-22T08:43:51.973Z</time></trkpt><trkpt lat="44.0180009" lon="12.5228034"><ele>71.0</ele><time>2026-03-22T08:43:52.971Z</time></trkpt><trkpt lat="44.017996" lon="12.5229261"><ele>70.83333333333334</ele><time>2026-03-22T08:43:53.973Z</time></trkpt><trkpt lat="44.0179915" lon="12.5230372"><ele>70.66666666666667</ele><time>2026-03-22T08:43:54.973Z</time></trkpt><trkpt lat="44.0179831" lon="12.5231392"><ele>70.5</ele><time>2026-03-22T08:43:55.973Z</time></trkpt><trkpt lat="44.01797" lon="12.523226"><ele>70.33333333333333</ele><time>2026-03-22T08:43:56.972Z</time></trkpt><trkpt lat="44.0179426" lon="12.5233573"><ele>70.16666666666666</ele><time>2026-03-22T08:43:58.971Z</time></trkpt><trkpt lat="44.0179093" lon="12.5234427"><ele>70.0</ele><time>2026-03-22T08:44:00.973Z</time></trkpt><trkpt lat="44.017853" lon="12.5235517"><ele>70.0</ele><time>2026-03-22T08:44:02.973Z</time></trkpt><trkpt lat="44.0177999" lon="12.5236229"><ele>70.0</ele><time>2026-03-22T08:44:03.973Z</time></trkpt><trkpt lat="44.0177361" lon="12.5237064"><ele>70.0</ele><time>2026-03-22T08:44:04.973Z</time></trkpt><trkpt lat="44.0176623" lon="12.523789"><ele>70.0</ele><time>2026-03-22T08:44:05.972Z</time></trkpt><trkpt lat="44.0175832" lon="12.5238756"><ele>70.0</ele><time>2026-03-22T08:44:06.972Z</time></trkpt><trkpt lat="44.0175053" lon="12.5239724"><ele>69.33333333333333</ele><time>2026-03-22T08:44:07.972Z</time></trkpt><trkpt lat="44.0174417" lon="12.5240494"><ele>68.66666666666666</ele><time>2026-03-22T08:44:08.973Z</time></trkpt><trkpt lat="44.0173878" lon="12.5241257"><ele>68.0</ele><time>2026-03-22T08:44:09.971Z</time></trkpt><trkpt lat="44.0173341" lon="12.5242046"><ele>67.33333333333333</ele><time>2026-03-22T08:44:10.973Z</time></trkpt><trkpt lat="44.0172824" lon="12.5242763"><ele>66.66666666666667</ele><time>2026-03-22T08:44:11.971Z</time></trkpt><trkpt lat="44.0172355" lon="12.5243586"><ele>66.0</ele><time>2026-03-22T08:44:12.973Z</time></trkpt><trkpt lat="44.0171889" lon="12.5244422"><ele>66.0</ele><time>2026-03-22T08:44:13.973Z</time></trkpt><trkpt lat="44.0171464" lon="12.524532"><ele>66.0</ele><time>2026-03-22T08:44:14.973Z</time></trkpt><trkpt lat="44.0170968" lon="12.5246103"><ele>66.0</ele><time>2026-03-22T08:44:15.973Z</time></trkpt><trkpt lat="44.0170363" lon="12.5246821"><ele>66.0</ele><time>2026-03-22T08:44:16.972Z</time></trkpt><trkpt lat="44.0169635" lon="12.5247724"><ele>66.0</ele><time>2026-03-22T08:44:17.972Z</time></trkpt><trkpt lat="44.0168781" lon="12.5248894"><ele>66.0</ele><time>2026-03-22T08:44:18.973Z</time></trkpt><trkpt lat="44.0167967" lon="12.5250141"><ele>67.0</ele><time>2026-03-22T08:44:19.973Z</time></trkpt><trkpt lat="44.0167276" lon="12.5251351"><ele>68.0</ele><time>2026-03-22T08:44:20.973Z</time></trkpt><trkpt lat="44.016657" lon="12.5252613"><ele>69.0</ele><time>2026-03-22T08:44:21.972Z</time></trkpt><trkpt lat="44.0165811" lon="12.5253895"><ele>70.0</ele><time>2026-03-22T08:44:22.973Z</time></trkpt><trkpt lat="44.016506" lon="12.5255225"><ele>71.0</ele><time>2026-03-22T08:44:23.973Z</time></trkpt><trkpt lat="44.0164357" lon="12.5256545"><ele>72.0</ele><time>2026-03-22T08:44:24.973Z</time></trkpt><trkpt lat="44.0163785" lon="12.5257661"><ele>73.0</ele><time>2026-03-22T08:44:25.973Z</time></trkpt><trkpt lat="44.0163318" lon="12.5258614"><ele>74.0</ele><time>2026-03-22T08:44:26.973Z</time></trkpt><trkpt lat="44.0162881" lon="12.5259499"><ele>75.0</ele><time>2026-03-22T08:44:27.972Z</time></trkpt><trkpt lat="44.016245" lon="12.5260491"><ele>75.0</ele><time>2026-03-22T08:44:28.972Z</time></trkpt><trkpt lat="44.0161983" lon="12.5261663"><ele>75.0</ele><time>2026-03-22T08:44:29.972Z</time></trkpt><trkpt lat="44.0161476" lon="12.5262946"><ele>75.0</ele><time>2026-03-22T08:44:30.972Z</time></trkpt><trkpt lat="44.0160904" lon="12.5264342"><ele>75.0</ele><time>2026-03-22T08:44:31.973Z</time></trkpt><trkpt lat="44.0160316" lon="12.5265702"><ele>75.0</ele><time>2026-03-22T08:44:32.972Z</time></trkpt><trkpt lat="44.0159877" lon="12.52669"><ele>75.0</ele><time>2026-03-22T08:44:33.973Z</time></trkpt><trkpt lat="44.0159484" lon="12.5268018"><ele>75.0</ele><time>2026-03-22T08:44:34.973Z</time></trkpt><trkpt lat="44.0159135" lon="12.5269008"><ele>75.0</ele><time>2026-03-22T08:44:35.973Z</time></trkpt><trkpt lat="44.0158774" lon="12.5269819"><ele>75.0</ele><time>2026-03-22T08:44:36.973Z</time></trkpt><trkpt lat="44.0158279" lon="12.52707"><ele>75.0</ele><time>2026-03-22T08:44:37.973Z</time></trkpt><trkpt lat="44.0157573" lon="12.5271754"><ele>75.0</ele><time>2026-03-22T08:44:38.973Z</time></trkpt><trkpt lat="44.0156733" lon="12.527295"><ele>74.5</ele><time>2026-03-22T08:44:39.972Z</time></trkpt><trkpt lat="44.0155816" lon="12.5274186"><ele>74.0</ele><time>2026-03-22T08:44:40.973Z</time></trkpt><trkpt lat="44.0154917" lon="12.5275429"><ele>73.5</ele><time>2026-03-22T08:44:41.972Z</time></trkpt><trkpt lat="44.0153994" lon="12.5276755"><ele>73.0</ele><time>2026-03-22T08:44:42.972Z</time></trkpt><trkpt lat="44.0153037" lon="12.527812"><ele>73.25</ele><time>2026-03-22T08:44:43.971Z</time></trkpt><trkpt lat="44.0152097" lon="12.5279339"><ele>73.5</ele><time>2026-03-22T08:44:44.973Z</time></trkpt><trkpt lat="44.0151158" lon="12.5280551"><ele>73.75</ele><time>2026-03-22T08:44:45.973Z</time></trkpt><trkpt lat="44.0150154" lon="12.5281834"><ele>74.0</ele><time>2026-03-22T08:44:46.972Z</time></trkpt><trkpt lat="44.0149107" lon="12.5283191"><ele>72.5</ele><time>2026-03-22T08:44:47.973Z</time></trkpt><trkpt lat="44.0148039" lon="12.5284593"><ele>71.0</ele><time>2026-03-22T08:44:48.973Z</time></trkpt><trkpt lat="44.0146957" lon="12.5285975"><ele>69.5</ele><time>2026-03-22T08:44:49.972Z</time></trkpt><trkpt lat="44.0145857" lon="12.5287414"><ele>68.0</ele><time>2026-03-22T08:44:50.973Z</time></trkpt><trkpt lat="44.014476" lon="12.5288844"><ele>68.0</ele><time>2026-03-22T08:44:51.973Z</time></trkpt><trkpt lat="44.0143704" lon="12.52902"><ele>68.0</ele><time>2026-03-22T08:44:52.973Z</time></trkpt><trkpt lat="44.0142676" lon="12.5291502"><ele>68.0</ele><time>2026-03-22T08:44:53.973Z</time></trkpt><trkpt lat="44.0141633" lon="12.5292701"><ele>68.0</ele><time>2026-03-22T08:44:54.972Z</time></trkpt><trkpt lat="44.0140462" lon="12.5293683"><ele>68.0</ele><time>2026-03-22T08:44:55.972Z</time></trkpt><trkpt lat="44.0139203" lon="12.5294368"><ele>68.0</ele><time>2026-03-22T08:44:56.972Z</time></trkpt><trkpt lat="44.0138012" lon="12.5294857"><ele>68.0</ele><time>2026-03-22T08:44:57.972Z</time></trkpt><trkpt lat="44.013688" lon="12.5295398"><ele>68.0</ele><time>2026-03-22T08:44:58.972Z</time></trkpt><trkpt lat="44.0135703" lon="12.5296077"><ele>68.0</ele><time>2026-03-22T08:44:59.972Z</time></trkpt><trkpt lat="44.013435" lon="12.5296932"><ele>68.0</ele><time>2026-03-22T08:45:00.973Z</time></trkpt><trkpt lat="44.0132974" lon="12.5297924"><ele>68.0</ele><time>2026-03-22T08:45:01.971Z</time></trkpt><trkpt lat="44.0131666" lon="12.5298981"><ele>68.0</ele><time>2026-03-22T08:45:02.973Z</time></trkpt><trkpt lat="44.0130414" lon="12.5300161"><ele>68.0</ele><time>2026-03-22T08:45:03.972Z</time></trkpt><trkpt lat="44.0129186" lon="12.5301294"><ele>68.0</ele><time>2026-03-22T08:45:04.973Z</time></trkpt><trkpt lat="44.0127985" lon="12.5302448"><ele>68.0</ele><time>2026-03-22T08:45:05.973Z</time></trkpt><trkpt lat="44.0126747" lon="12.530362"><ele>67.0</ele><time>2026-03-22T08:45:06.972Z</time></trkpt><trkpt lat="44.0125484" lon="12.5304766"><ele>66.0</ele><time>2026-03-22T08:45:07.973Z</time></trkpt><trkpt lat="44.012427" lon="12.530591"><ele>65.0</ele><time>2026-03-22T08:45:08.972Z</time></trkpt><trkpt lat="44.0123144" lon="12.5306851"><ele>64.0</ele><time>2026-03-22T08:45:09.973Z</time></trkpt><trkpt lat="44.0122093" lon="12.530774"><ele>62.800000000000004</ele><time>2026-03-22T08:45:10.973Z</time></trkpt><trkpt lat="44.0121201" lon="12.5308594"><ele>61.60000000000001</ele><time>2026-03-22T08:45:11.971Z</time></trkpt><trkpt lat="44.0120525" lon="12.530957"><ele>60.4</ele><time>2026-03-22T08:45:12.973Z</time></trkpt><trkpt lat="44.0120069" lon="12.5310741"><ele>59.2</ele><time>2026-03-22T08:45:13.973Z</time></trkpt><trkpt lat="44.011982" lon="12.5312263"><ele>58.0</ele><time>2026-03-22T08:45:14.973Z</time></trkpt><trkpt lat="44.0119761" lon="12.5314192"><ele>56.75</ele><time>2026-03-22T08:45:15.972Z</time></trkpt><trkpt lat="44.0119714" lon="12.5316291"><ele>55.5</ele><time>2026-03-22T08:45:16.971Z</time></trkpt><trkpt lat="44.0119661" lon="12.5318116"><ele>54.25</ele><time>2026-03-22T08:45:17.972Z</time></trkpt><trkpt lat="44.0119646" lon="12.5319806"><ele>53.0</ele><time>2026-03-22T08:45:18.973Z</time></trkpt><trkpt lat="44.0119639" lon="12.5321403"><ele>53.0</ele><time>2026-03-22T08:45:19.972Z</time></trkpt><trkpt lat="44.0119636" lon="12.532303"><ele>53.0</ele><time>2026-03-22T08:45:20.973Z</time></trkpt><trkpt lat="44.0119621" lon="12.5324426"><ele>53.0</ele><time>2026-03-22T08:45:21.972Z</time></trkpt><trkpt lat="44.0119703" lon="12.5325625"><ele>53.0</ele><time>2026-03-22T08:45:22.973Z</time></trkpt><trkpt lat="44.0120083" lon="12.5326788"><ele>53.0</ele><time>2026-03-22T08:45:23.973Z</time></trkpt><trkpt lat="44.0120695" lon="12.5328086"><ele>53.25</ele><time>2026-03-22T08:45:24.972Z</time></trkpt><trkpt lat="44.0121599" lon="12.5329464"><ele>53.5</ele><time>2026-03-22T08:45:25.972Z</time></trkpt><trkpt lat="44.0122507" lon="12.533078"><ele>53.75</ele><time>2026-03-22T08:45:26.972Z</time></trkpt><trkpt lat="44.0123443" lon="12.5332076"><ele>54.0</ele><time>2026-03-22T08:45:27.973Z</time></trkpt><trkpt lat="44.0124451" lon="12.5333367"><ele>52.25</ele><time>2026-03-22T08:45:28.972Z</time></trkpt><trkpt lat="44.0125485" lon="12.5334624"><ele>50.5</ele><time>2026-03-22T08:45:29.972Z</time></trkpt><trkpt lat="44.0126594" lon="12.5335808"><ele>48.75</ele><time>2026-03-22T08:45:30.972Z</time></trkpt><trkpt lat="44.0127718" lon="12.5336975"><ele>47.0</ele><time>2026-03-22T08:45:31.971Z</time></trkpt><trkpt lat="44.0128822" lon="12.5338166"><ele>45.0</ele><time>2026-03-22T08:45:32.973Z</time></trkpt><trkpt lat="44.0129997" lon="12.5339371"><ele>43.0</ele><time>2026-03-22T08:45:33.973Z</time></trkpt><trkpt lat="44.0131214" lon="12.5340497"><ele>41.0</ele><time>2026-03-22T08:45:34.973Z</time></trkpt><trkpt lat="44.0132388" lon="12.5341627"><ele>39.0</ele><time>2026-03-22T08:45:35.973Z</time></trkpt><trkpt lat="44.0133622" lon="12.5342926"><ele>36.666666666666664</ele><time>2026-03-22T08:45:36.971Z</time></trkpt><trkpt lat="44.0134868" lon="12.5344548"><ele>34.33333333333333</ele><time>2026-03-22T08:45:37.972Z</time></trkpt><trkpt lat="44.0136042" lon="12.5346357"><ele>32.0</ele><time>2026-03-22T08:45:38.973Z</time></trkpt><trkpt lat="44.0137121" lon="12.5348236"><ele>30.333333333333332</ele><time>2026-03-22T08:45:39.973Z</time></trkpt><trkpt lat="44.013813" lon="12.5350075"><ele>28.666666666666664</ele><time>2026-03-22T08:45:40.972Z</time></trkpt><trkpt lat="44.01391" lon="12.5351893"><ele>27.0</ele><time>2026-03-22T08:45:41.973Z</time></trkpt><trkpt lat="44.0140067" lon="12.5353724"><ele>26.666666666666664</ele><time>2026-03-22T08:45:42.972Z</time></trkpt><trkpt lat="44.0141046" lon="12.5355571"><ele>26.333333333333332</ele><time>2026-03-22T08:45:43.973Z</time></trkpt><trkpt lat="44.0142042" lon="12.5357431"><ele>26.0</ele><time>2026-03-22T08:45:44.972Z</time></trkpt><trkpt lat="44.0143024" lon="12.5359318"><ele>26.0</ele><time>2026-03-22T08:45:45.972Z</time></trkpt><trkpt lat="44.0143864" lon="12.536115"><ele>26.0</ele><time>2026-03-22T08:45:46.973Z</time></trkpt><trkpt lat="44.0144562" lon="12.5362906"><ele>26.0</ele><time>2026-03-22T08:45:47.972Z</time></trkpt><trkpt lat="44.0145077" lon="12.5364698"><ele>26.0</ele><time>2026-03-22T08:45:48.972Z</time></trkpt><trkpt lat="44.0145444" lon="12.5366783"><ele>26.0</ele><time>2026-03-22T08:45:49.973Z</time></trkpt><trkpt lat="44.0145756" lon="12.5369115"><ele>26.0</ele><time>2026-03-22T08:45:50.972Z</time></trkpt><trkpt lat="44.0146095" lon="12.5371572"><ele>26.0</ele><time>2026-03-22T08:45:51.973Z</time></trkpt><trkpt lat="44.0146448" lon="12.5374105"><ele>26.0</ele><time>2026-03-22T08:45:52.973Z</time></trkpt><trkpt lat="44.0146872" lon="12.5376668"><ele>26.0</ele><time>2026-03-22T08:45:53.972Z</time></trkpt><trkpt lat="44.014753" lon="12.5379299"><ele>26.0</ele><time>2026-03-22T08:45:54.973Z</time></trkpt><trkpt lat="44.0148249" lon="12.5381733"><ele>25.0</ele><time>2026-03-22T08:45:55.972Z</time></trkpt><trkpt lat="44.0148896" lon="12.5383799"><ele>24.0</ele><time>2026-03-22T08:45:56.973Z</time></trkpt><trkpt lat="44.0149481" lon="12.538578"><ele>23.0</ele><time>2026-03-22T08:45:57.972Z</time></trkpt><trkpt lat="44.0149843" lon="12.5387788"><ele>24.666666666666668</ele><time>2026-03-22T08:45:58.972Z</time></trkpt><trkpt lat="44.0150013" lon="12.5389852"><ele>26.333333333333336</ele><time>2026-03-22T08:45:59.972Z</time></trkpt><trkpt lat="44.015011" lon="12.5391973"><ele>28.0</ele><time>2026-03-22T08:46:00.972Z</time></trkpt><trkpt lat="44.0150176" lon="12.5394163"><ele>27.666666666666668</ele><time>2026-03-22T08:46:01.972Z</time></trkpt><trkpt lat="44.0150219" lon="12.5396424"><ele>27.333333333333336</ele><time>2026-03-22T08:46:02.972Z</time></trkpt><trkpt lat="44.0150269" lon="12.539874"><ele>27.0</ele><time>2026-03-22T08:46:03.973Z</time></trkpt><trkpt lat="44.0150325" lon="12.5401102"><ele>27.0</ele><time>2026-03-22T08:46:04.973Z</time></trkpt><trkpt lat="44.0150392" lon="12.5403512"><ele>27.0</ele><time>2026-03-22T08:46:05.972Z</time></trkpt><trkpt lat="44.0150462" lon="12.5405994"><ele>27.0</ele><time>2026-03-22T08:46:06.973Z</time></trkpt><trkpt lat="44.0150528" lon="12.5408558"><ele>27.0</ele><time>2026-03-22T08:46:07.972Z</time></trkpt><trkpt lat="44.0150572" lon="12.5411167"><ele>27.0</ele><time>2026-03-22T08:46:08.972Z</time></trkpt><trkpt lat="44.0150617" lon="12.5413861"><ele>27.0</ele><time>2026-03-22T08:46:09.973Z</time></trkpt><trkpt lat="44.0150685" lon="12.5416643"><ele>26.666666666666664</ele><time>2026-03-22T08:46:10.972Z</time></trkpt><trkpt lat="44.0150753" lon="12.5419453"><ele>26.333333333333332</ele><time>2026-03-22T08:46:11.973Z</time></trkpt><trkpt lat="44.0150801" lon="12.5422221"><ele>26.0</ele><time>2026-03-22T08:46:12.971Z</time></trkpt><trkpt lat="44.0150833" lon="12.5424804"><ele>25.333333333333332</ele><time>2026-03-22T08:46:13.973Z</time></trkpt><trkpt lat="44.0150888" lon="12.5427291"><ele>24.666666666666664</ele><time>2026-03-22T08:46:14.972Z</time></trkpt><trkpt lat="44.0150954" lon="12.5429657"><ele>24.0</ele><time>2026-03-22T08:46:15.973Z</time></trkpt><trkpt lat="44.0151016" lon="12.5431908"><ele>23.75</ele><time>2026-03-22T08:46:16.972Z</time></trkpt><trkpt lat="44.0151057" lon="12.5433992"><ele>23.5</ele><time>2026-03-22T08:46:17.972Z</time></trkpt><trkpt lat="44.015108" lon="12.5435767"><ele>23.25</ele><time>2026-03-22T08:46:18.972Z</time></trkpt><trkpt lat="44.0151092" lon="12.5437448"><ele>23.0</ele><time>2026-03-22T08:46:19.971Z</time></trkpt><trkpt lat="44.0151125" lon="12.5438928"><ele>23.0</ele><time>2026-03-22T08:46:20.973Z</time></trkpt><trkpt lat="44.0151178" lon="12.5440241"><ele>23.0</ele><time>2026-03-22T08:46:21.973Z</time></trkpt><trkpt lat="44.0151238" lon="12.5441423"><ele>23.0</ele><time>2026-03-22T08:46:22.973Z</time></trkpt><trkpt lat="44.0151265" lon="12.5442496"><ele>23.0</ele><time>2026-03-22T08:46:23.971Z</time></trkpt><trkpt lat="44.0151296" lon="12.5443395"><ele>23.0</ele><time>2026-03-22T08:46:24.973Z</time></trkpt><trkpt lat="44.0151314" lon="12.5444939"><ele>23.0</ele><time>2026-03-22T08:46:26.973Z</time></trkpt><trkpt lat="44.0150518" lon="12.5445524"><ele>22.5</ele><time>2026-03-22T08:46:29.972Z</time></trkpt><trkpt lat="44.0149382" lon="12.5444463"><ele>22.0</ele><time>2026-03-22T08:46:31.972Z</time></trkpt><trkpt lat="44.0148546" lon="12.5443698"><ele>21.5</ele><time>2026-03-22T08:46:32.973Z</time></trkpt><trkpt lat="44.0147515" lon="12.5442985"><ele>21.0</ele><time>2026-03-22T08:46:33.973Z</time></trkpt><trkpt lat="44.0146385" lon="12.5442308"><ele>21.0</ele><time>2026-03-22T08:46:34.973Z</time></trkpt><trkpt lat="44.0145274" lon="12.5441612"><ele>21.0</ele><time>2026-03-22T08:46:35.972Z</time></trkpt><trkpt lat="44.0144311" lon="12.5440911"><ele>21.0</ele><time>2026-03-22T08:46:36.973Z</time></trkpt><trkpt lat="44.0143426" lon="12.5440234"><ele>21.0</ele><time>2026-03-22T08:46:37.973Z</time></trkpt><trkpt lat="44.0142737" lon="12.5439515"><ele>21.0</ele><time>2026-03-22T08:46:38.972Z</time></trkpt><trkpt lat="44.014216" lon="12.5438926"><ele>21.4</ele><time>2026-03-22T08:46:39.973Z</time></trkpt><trkpt lat="44.0141081" lon="12.5438754"><ele>21.8</ele><time>2026-03-22T08:46:41.972Z</time></trkpt><trkpt lat="44.0140417" lon="12.5439216"><ele>22.2</ele><time>2026-03-22T08:46:42.972Z</time></trkpt><trkpt lat="44.0139721" lon="12.5440201"><ele>22.599999999999998</ele><time>2026-03-22T08:46:43.973Z</time></trkpt><trkpt lat="44.0138868" lon="12.544144"><ele>23.0</ele><time>2026-03-22T08:46:44.973Z</time></trkpt><trkpt lat="44.0137992" lon="12.5442761"><ele>23.0</ele><time>2026-03-22T08:46:45.973Z</time></trkpt><trkpt lat="44.0137094" lon="12.5444147"><ele>23.0</ele><time>2026-03-22T08:46:46.973Z</time></trkpt><trkpt lat="44.0136208" lon="12.5445518"><ele>23.0</ele><time>2026-03-22T08:46:47.973Z</time></trkpt><trkpt lat="44.0135318" lon="12.544691"><ele>23.0</ele><time>2026-03-22T08:46:48.973Z</time></trkpt><trkpt lat="44.0134355" lon="12.5448312"><ele>23.75</ele><time>2026-03-22T08:46:49.972Z</time></trkpt><trkpt lat="44.013345" lon="12.5449629"><ele>24.5</ele><time>2026-03-22T08:46:50.972Z</time></trkpt><trkpt lat="44.0132596" lon="12.545083"><ele>25.25</ele><time>2026-03-22T08:46:51.973Z</time></trkpt><trkpt lat="44.0131767" lon="12.5451882"><ele>26.0</ele><time>2026-03-22T08:46:52.972Z</time></trkpt><trkpt lat="44.0130994" lon="12.5452883"><ele>26.166666666666664</ele><time>2026-03-22T08:46:53.972Z</time></trkpt><trkpt lat="44.0130299" lon="12.5453824"><ele>26.333333333333332</ele><time>2026-03-22T08:46:54.973Z</time></trkpt><trkpt lat="44.0129625" lon="12.5454684"><ele>26.5</ele><time>2026-03-22T08:46:55.972Z</time></trkpt><trkpt lat="44.0129016" lon="12.5455488"><ele>26.666666666666664</ele><time>2026-03-22T08:46:56.972Z</time></trkpt><trkpt lat="44.0128466" lon="12.5456246"><ele>26.833333333333332</ele><time>2026-03-22T08:46:57.973Z</time></trkpt><trkpt lat="44.0127939" lon="12.5456968"><ele>27.0</ele><time>2026-03-22T08:46:58.973Z</time></trkpt><trkpt lat="44.0127439" lon="12.5457636"><ele>27.0</ele><time>2026-03-22T08:46:59.973Z</time></trkpt><trkpt lat="44.0126972" lon="12.5458224"><ele>27.0</ele><time>2026-03-22T08:47:00.973Z</time></trkpt><trkpt lat="44.0126217" lon="12.5459204"><ele>27.0</ele><time>2026-03-22T08:47:02.973Z</time></trkpt><trkpt lat="44.0125699" lon="12.5459885"><ele>27.0</ele><time>2026-03-22T08:47:04.972Z</time></trkpt><trkpt lat="44.0125134" lon="12.5460836"><ele>27.0</ele><time>2026-03-22T08:48:46.972Z</time></trkpt><trkpt lat="44.0124358" lon="12.5461923"><ele>27.0</ele><time>2026-03-22T08:48:48.973Z</time></trkpt><trkpt lat="44.0123813" lon="12.5462531"><ele>26.666666666666668</ele><time>2026-03-22T08:48:49.973Z</time></trkpt><trkpt lat="44.0123166" lon="12.546331"><ele>26.333333333333336</ele><time>2026-03-22T08:48:50.972Z</time></trkpt><trkpt lat="44.0122477" lon="12.5464164"><ele>26.0</ele><time>2026-03-22T08:48:51.972Z</time></trkpt><trkpt lat="44.0121824" lon="12.546501"><ele>25.666666666666668</ele><time>2026-03-22T08:48:52.973Z</time></trkpt><trkpt lat="44.0121192" lon="12.5465806"><ele>25.333333333333336</ele><time>2026-03-22T08:48:53.973Z</time></trkpt><trkpt lat="44.0120479" lon="12.54666"><ele>25.0</ele><time>2026-03-22T08:48:54.972Z</time></trkpt><trkpt lat="44.0119693" lon="12.5467394"><ele>25.0</ele><time>2026-03-22T08:48:55.971Z</time></trkpt><trkpt lat="44.0118885" lon="12.5468172"><ele>25.0</ele><time>2026-03-22T08:48:56.973Z</time></trkpt><trkpt lat="44.011819" lon="12.5468883"><ele>25.0</ele><time>2026-03-22T08:48:57.972Z</time></trkpt><trkpt lat="44.0117471" lon="12.546953"><ele>25.0</ele><time>2026-03-22T08:48:58.973Z</time></trkpt><trkpt lat="44.011673" lon="12.5470301"><ele>25.0</ele><time>2026-03-22T08:48:59.973Z</time></trkpt><trkpt lat="44.0115918" lon="12.5471084"><ele>25.0</ele><time>2026-03-22T08:49:00.972Z</time></trkpt><trkpt lat="44.0115037" lon="12.5471877"><ele>25.0</ele><time>2026-03-22T08:49:01.973Z</time></trkpt><trkpt lat="44.0114092" lon="12.5472637"><ele>25.0</ele><time>2026-03-22T08:49:02.973Z</time></trkpt><trkpt lat="44.0113119" lon="12.5473354"><ele>25.0</ele><time>2026-03-22T08:49:03.973Z</time></trkpt><trkpt lat="44.0112084" lon="12.5474079"><ele>25.0</ele><time>2026-03-22T08:49:04.973Z</time></trkpt><trkpt lat="44.0110993" lon="12.5474833"><ele>25.0</ele><time>2026-03-22T08:49:05.972Z</time></trkpt><trkpt lat="44.0109917" lon="12.5475545"><ele>25.0</ele><time>2026-03-22T08:49:06.973Z</time></trkpt><trkpt lat="44.0108879" lon="12.5476223"><ele>25.0</ele><time>2026-03-22T08:49:07.973Z</time></trkpt><trkpt lat="44.01078" lon="12.5476824"><ele>25.0</ele><time>2026-03-22T08:49:08.973Z</time></trkpt><trkpt lat="44.010671" lon="12.5477465"><ele>25.75</ele><time>2026-03-22T08:49:09.972Z</time></trkpt><trkpt lat="44.0105546" lon="12.5478168"><ele>26.5</ele><time>2026-03-22T08:49:10.973Z</time></trkpt><trkpt lat="44.0104388" lon="12.5478932"><ele>27.25</ele><time>2026-03-22T08:49:11.972Z</time></trkpt><trkpt lat="44.0103232" lon="12.547979"><ele>28.0</ele><time>2026-03-22T08:49:12.971Z</time></trkpt><trkpt lat="44.0102129" lon="12.5480713"><ele>28.0</ele><time>2026-03-22T08:49:13.972Z</time></trkpt><trkpt lat="44.0101145" lon="12.5481611"><ele>28.0</ele><time>2026-03-22T08:49:14.972Z</time></trkpt><trkpt lat="44.0100248" lon="12.5482516"><ele>28.0</ele><time>2026-03-22T08:49:15.971Z</time></trkpt><trkpt lat="44.0099395" lon="12.5483501"><ele>28.0</ele><time>2026-03-22T08:49:16.972Z</time></trkpt><trkpt lat="44.0098528" lon="12.5484602"><ele>28.0</ele><time>2026-03-22T08:49:17.973Z</time></trkpt><trkpt lat="44.0097568" lon="12.5485804"><ele>28.0</ele><time>2026-03-22T08:49:18.971Z</time></trkpt><trkpt lat="44.0096552" lon="12.5487162"><ele>28.0</ele><time>2026-03-22T08:49:19.972Z</time></trkpt><trkpt lat="44.0095609" lon="12.5488408"><ele>28.0</ele><time>2026-03-22T08:49:20.973Z</time></trkpt><trkpt lat="44.0094757" lon="12.5489644"><ele>28.0</ele><time>2026-03-22T08:49:21.971Z</time></trkpt><trkpt lat="44.0093932" lon="12.5490846"><ele>28.0</ele><time>2026-03-22T08:49:22.973Z</time></trkpt><trkpt lat="44.009311" lon="12.54921"><ele>28.0</ele><time>2026-03-22T08:49:23.973Z</time></trkpt><trkpt lat="44.0092331" lon="12.549329"><ele>28.0</ele><time>2026-03-22T08:49:24.972Z</time></trkpt><trkpt lat="44.009158" lon="12.5494485"><ele>27.75</ele><time>2026-03-22T08:49:25.973Z</time></trkpt><trkpt lat="44.0090761" lon="12.5495766"><ele>27.5</ele><time>2026-03-22T08:49:26.972Z</time></trkpt><trkpt lat="44.0089938" lon="12.5497139"><ele>27.25</ele><time>2026-03-22T08:49:27.972Z</time></trkpt><trkpt lat="44.0089063" lon="12.549852"><ele>27.0</ele><time>2026-03-22T08:49:28.972Z</time></trkpt><trkpt lat="44.0088236" lon="12.5499872"><ele>27.0</ele><time>2026-03-22T08:49:29.973Z</time></trkpt><trkpt lat="44.0087493" lon="12.5501141"><ele>27.000000000000004</ele><time>2026-03-22T08:49:30.973Z</time></trkpt><trkpt lat="44.0086911" lon="12.5502258"><ele>27.000000000000004</ele><time>2026-03-22T08:49:31.973Z</time></trkpt><trkpt lat="44.0086512" lon="12.5503354"><ele>27.0</ele><time>2026-03-22T08:49:32.973Z</time></trkpt><trkpt lat="44.0086288" lon="12.5504487"><ele>27.0</ele><time>2026-03-22T08:49:33.973Z</time></trkpt><trkpt lat="44.0086349" lon="12.550556"><ele>27.400000000000002</ele><time>2026-03-22T08:49:34.973Z</time></trkpt><trkpt lat="44.0086619" lon="12.550663"><ele>27.800000000000004</ele><time>2026-03-22T08:49:35.972Z</time></trkpt><trkpt lat="44.0087168" lon="12.5507799"><ele>28.2</ele><time>2026-03-22T08:49:36.972Z</time></trkpt><trkpt lat="44.0087922" lon="12.5508997"><ele>28.6</ele><time>2026-03-22T08:49:37.972Z</time></trkpt><trkpt lat="44.0088794" lon="12.5510269"><ele>29.0</ele><time>2026-03-22T08:49:38.972Z</time></trkpt><trkpt lat="44.0089674" lon="12.5511631"><ele>28.499999999999996</ele><time>2026-03-22T08:49:39.973Z</time></trkpt><trkpt lat="44.0090381" lon="12.5512794"><ele>28.0</ele><time>2026-03-22T08:49:40.972Z</time></trkpt><trkpt lat="44.0090954" lon="12.551383"><ele>27.5</ele><time>2026-03-22T08:49:41.972Z</time></trkpt><trkpt lat="44.0091346" lon="12.5514891"><ele>27.0</ele><time>2026-03-22T08:49:42.973Z</time></trkpt><trkpt lat="44.0091395" lon="12.5515892"><ele>26.499999999999996</ele><time>2026-03-22T08:49:43.973Z</time></trkpt><trkpt lat="44.0091204" lon="12.5516856"><ele>26.0</ele><time>2026-03-22T08:49:44.973Z</time></trkpt><trkpt lat="44.0090627" lon="12.5517891"><ele>26.0</ele><time>2026-03-22T08:49:45.973Z</time></trkpt><trkpt lat="44.0089764" lon="12.5518886"><ele>26.0</ele><time>2026-03-22T08:49:46.972Z</time></trkpt><trkpt lat="44.0088629" lon="12.5519738"><ele>26.0</ele><time>2026-03-22T08:49:47.973Z</time></trkpt><trkpt lat="44.0087351" lon="12.5520454"><ele>26.0</ele><time>2026-03-22T08:49:48.973Z</time></trkpt><trkpt lat="44.0085909" lon="12.552115"><ele>25.666666666666664</ele><time>2026-03-22T08:49:49.972Z</time></trkpt><trkpt lat="44.0084469" lon="12.5522004"><ele>25.333333333333336</ele><time>2026-03-22T08:49:50.972Z</time></trkpt><trkpt lat="44.0083124" lon="12.552305"><ele>25.0</ele><time>2026-03-22T08:49:51.973Z</time></trkpt><trkpt lat="44.0081913" lon="12.5524079"><ele>25.5</ele><time>2026-03-22T08:49:52.973Z</time></trkpt><trkpt lat="44.0080711" lon="12.5525183"><ele>26.0</ele><time>2026-03-22T08:49:53.972Z</time></trkpt><trkpt lat="44.0079522" lon="12.5526452"><ele>26.5</ele><time>2026-03-22T08:49:54.973Z</time></trkpt><trkpt lat="44.0078361" lon="12.5527846"><ele>27.0</ele><time>2026-03-22T08:49:55.973Z</time></trkpt><trkpt lat="44.0077229" lon="12.5529348"><ele>27.0</ele><time>2026-03-22T08:49:56.972Z</time></trkpt><trkpt lat="44.0076068" lon="12.5530846"><ele>27.0</ele><time>2026-03-22T08:49:57.973Z</time></trkpt><trkpt lat="44.0074895" lon="12.5532349"><ele>27.0</ele><time>2026-03-22T08:49:58.972Z</time></trkpt><trkpt lat="44.0073692" lon="12.5533863"><ele>27.0</ele><time>2026-03-22T08:49:59.972Z</time></trkpt><trkpt lat="44.0072451" lon="12.5535346"><ele>27.0</ele><time>2026-03-22T08:50:00.972Z</time></trkpt><trkpt lat="44.0071162" lon="12.5536802"><ele>27.0</ele><time>2026-03-22T08:50:01.971Z</time></trkpt><trkpt lat="44.0069812" lon="12.553819"><ele>27.0</ele><time>2026-03-22T08:50:02.973Z</time></trkpt><trkpt lat="44.0068384" lon="12.5539531"><ele>27.0</ele><time>2026-03-22T08:50:03.972Z</time></trkpt><trkpt lat="44.0066882" lon="12.5540852"><ele>27.0</ele><time>2026-03-22T08:50:04.972Z</time></trkpt><trkpt lat="44.0065393" lon="12.5542129"><ele>28.0</ele><time>2026-03-22T08:50:05.971Z</time></trkpt><trkpt lat="44.0063861" lon="12.5543278"><ele>29.0</ele><time>2026-03-22T08:50:06.973Z</time></trkpt><trkpt lat="44.00623" lon="12.5544306"><ele>30.0</ele><time>2026-03-22T08:50:07.972Z</time></trkpt><trkpt lat="44.0060707" lon="12.5545229"><ele>30.333333333333336</ele><time>2026-03-22T08:50:08.973Z</time></trkpt><trkpt lat="44.0059109" lon="12.5546115"><ele>30.666666666666668</ele><time>2026-03-22T08:50:09.972Z</time></trkpt><trkpt lat="44.0057544" lon="12.5546973"><ele>31.0</ele><time>2026-03-22T08:50:10.972Z</time></trkpt><trkpt lat="44.005607" lon="12.5547774"><ele>31.0</ele><time>2026-03-22T08:50:11.972Z</time></trkpt><trkpt lat="44.0054683" lon="12.5548603"><ele>31.0</ele><time>2026-03-22T08:50:12.973Z</time></trkpt><trkpt lat="44.0053362" lon="12.5549647"><ele>31.0</ele><time>2026-03-22T08:50:13.973Z</time></trkpt><trkpt lat="44.0052065" lon="12.555092"><ele>31.0</ele><time>2026-03-22T08:50:14.973Z</time></trkpt><trkpt lat="44.0050796" lon="12.5552356"><ele>31.0</ele><time>2026-03-22T08:50:15.972Z</time></trkpt><trkpt lat="44.0049524" lon="12.5553716"><ele>31.0</ele><time>2026-03-22T08:50:16.973Z</time></trkpt><trkpt lat="44.0048245" lon="12.5554947"><ele>31.25</ele><time>2026-03-22T08:50:17.972Z</time></trkpt><trkpt lat="44.0047006" lon="12.5556026"><ele>31.5</ele><time>2026-03-22T08:50:18.972Z</time></trkpt><trkpt lat="44.0045787" lon="12.5557035"><ele>31.75</ele><time>2026-03-22T08:50:19.971Z</time></trkpt><trkpt lat="44.0044586" lon="12.5558096"><ele>32.0</ele><time>2026-03-22T08:50:20.973Z</time></trkpt><trkpt lat="44.0043388" lon="12.5559137"><ele>32.0</ele><time>2026-03-22T08:50:21.972Z</time></trkpt><trkpt lat="44.0042146" lon="12.5560173"><ele>32.0</ele><time>2026-03-22T08:50:22.973Z</time></trkpt><trkpt lat="44.0040868" lon="12.556121"><ele>32.0</ele><time>2026-03-22T08:50:23.973Z</time></trkpt><trkpt lat="44.0039577" lon="12.5562249"><ele>32.0</ele><time>2026-03-22T08:50:24.972Z</time></trkpt><trkpt lat="44.003828" lon="12.5563309"><ele>32.0</ele><time>2026-03-22T08:50:25.973Z</time></trkpt><trkpt lat="44.0036917" lon="12.5564327"><ele>32.0</ele><time>2026-03-22T08:50:26.973Z</time></trkpt><trkpt lat="44.0035478" lon="12.5565214"><ele>32.0</ele><time>2026-03-22T08:50:27.973Z</time></trkpt><trkpt lat="44.0033965" lon="12.5566023"><ele>33.33333333333333</ele><time>2026-03-22T08:50:28.973Z</time></trkpt><trkpt lat="44.0032392" lon="12.5566954"><ele>34.666666666666664</ele><time>2026-03-22T08:50:29.972Z</time></trkpt><trkpt lat="44.0030905" lon="12.5567938"><ele>36.0</ele><time>2026-03-22T08:50:30.973Z</time></trkpt><trkpt lat="44.0029581" lon="12.5568983"><ele>36.0</ele><time>2026-03-22T08:50:31.973Z</time></trkpt><trkpt lat="44.0028383" lon="12.5570066"><ele>36.0</ele><time>2026-03-22T08:50:32.973Z</time></trkpt><trkpt lat="44.00273" lon="12.5571121"><ele>36.0</ele><time>2026-03-22T08:50:33.973Z</time></trkpt><trkpt lat="44.0026209" lon="12.5572156"><ele>36.0</ele><time>2026-03-22T08:50:34.973Z</time></trkpt><trkpt lat="44.0025197" lon="12.5573142"><ele>36.4</ele><time>2026-03-22T08:50:35.973Z</time></trkpt><trkpt lat="44.0024244" lon="12.557406"><ele>36.8</ele><time>2026-03-22T08:50:36.972Z</time></trkpt><trkpt lat="44.0023337" lon="12.5574886"><ele>37.199999999999996</ele><time>2026-03-22T08:50:37.972Z</time></trkpt><trkpt lat="44.0022369" lon="12.5575655"><ele>37.6</ele><time>2026-03-22T08:50:38.973Z</time></trkpt><trkpt lat="44.0021351" lon="12.5576342"><ele>38.0</ele><time>2026-03-22T08:50:39.971Z</time></trkpt><trkpt lat="44.0020307" lon="12.5576984"><ele>38.0</ele><time>2026-03-22T08:50:40.973Z</time></trkpt><trkpt lat="44.0019179" lon="12.5577518"><ele>38.0</ele><time>2026-03-22T08:50:41.972Z</time></trkpt><trkpt lat="44.0018043" lon="12.5577925"><ele>38.0</ele><time>2026-03-22T08:50:42.972Z</time></trkpt><trkpt lat="44.0016904" lon="12.5578239"><ele>38.0</ele><time>2026-03-22T08:50:43.972Z</time></trkpt><trkpt lat="44.0015737" lon="12.5578572"><ele>37.0</ele><time>2026-03-22T08:50:44.972Z</time></trkpt><trkpt lat="44.0014529" lon="12.5578915"><ele>36.0</ele><time>2026-03-22T08:50:45.973Z</time></trkpt><trkpt lat="44.0013285" lon="12.5579407"><ele>35.0</ele><time>2026-03-22T08:50:46.973Z</time></trkpt><trkpt lat="44.0012078" lon="12.5580016"><ele>34.0</ele><time>2026-03-22T08:50:47.972Z</time></trkpt><trkpt lat="44.0010968" lon="12.558073"><ele>34.0</ele><time>2026-03-22T08:50:48.973Z</time></trkpt><trkpt lat="44.0009905" lon="12.5581554"><ele>34.0</ele><time>2026-03-22T08:50:49.973Z</time></trkpt><trkpt lat="44.0008857" lon="12.5582515"><ele>34.0</ele><time>2026-03-22T08:50:50.973Z</time></trkpt><trkpt lat="44.0007883" lon="12.5583499"><ele>34.0</ele><time>2026-03-22T08:50:51.973Z</time></trkpt><trkpt lat="44.0006957" lon="12.5584443"><ele>34.4</ele><time>2026-03-22T08:50:52.972Z</time></trkpt><trkpt lat="44.0006086" lon="12.5585318"><ele>34.8</ele><time>2026-03-22T08:50:53.972Z</time></trkpt><trkpt lat="44.0005284" lon="12.5586263"><ele>35.2</ele><time>2026-03-22T08:50:54.972Z</time></trkpt><trkpt lat="44.0004526" lon="12.5587205"><ele>35.6</ele><time>2026-03-22T08:50:55.971Z</time></trkpt><trkpt lat="44.0003803" lon="12.5588106"><ele>36.0</ele><time>2026-03-22T08:50:56.973Z</time></trkpt><trkpt lat="44.0003118" lon="12.5588956"><ele>35.2</ele><time>2026-03-22T08:50:57.972Z</time></trkpt><trkpt lat="44.0002372" lon="12.5589837"><ele>34.400000000000006</ele><time>2026-03-22T08:50:58.972Z</time></trkpt><trkpt lat="44.0001544" lon="12.5590728"><ele>33.6</ele><time>2026-03-22T08:50:59.971Z</time></trkpt><trkpt lat="44.0000651" lon="12.5591645"><ele>32.800000000000004</ele><time>2026-03-22T08:51:00.973Z</time></trkpt><trkpt lat="43.9999798" lon="12.5592476"><ele>32.0</ele><time>2026-03-22T08:51:01.973Z</time></trkpt><trkpt lat="43.99989" lon="12.5593283"><ele>32.0</ele><time>2026-03-22T08:51:02.972Z</time></trkpt><trkpt lat="43.999794" lon="12.5594054"><ele>32.0</ele><time>2026-03-22T08:51:03.973Z</time></trkpt><trkpt lat="43.9996933" lon="12.5594797"><ele>32.0</ele><time>2026-03-22T08:51:04.972Z</time></trkpt><trkpt lat="43.9995861" lon="12.5595549"><ele>32.0</ele><time>2026-03-22T08:51:05.973Z</time></trkpt><trkpt lat="43.9994817" lon="12.5596218"><ele>32.0</ele><time>2026-03-22T08:51:06.973Z</time></trkpt><trkpt lat="43.9993843" lon="12.5596844"><ele>32.0</ele><time>2026-03-22T08:51:07.972Z</time></trkpt><trkpt lat="43.9992834" lon="12.559756"><ele>32.0</ele><time>2026-03-22T08:51:08.973Z</time></trkpt><trkpt lat="43.9991798" lon="12.5598293"><ele>32.0</ele><time>2026-03-22T08:51:09.973Z</time></trkpt><trkpt lat="43.9990729" lon="12.5599081"><ele>32.25</ele><time>2026-03-22T08:51:10.972Z</time></trkpt><trkpt lat="43.9989638" lon="12.5599802"><ele>32.5</ele><time>2026-03-22T08:51:11.973Z</time></trkpt><trkpt lat="43.9988529" lon="12.5600501"><ele>32.75</ele><time>2026-03-22T08:51:12.973Z</time></trkpt><trkpt lat="43.9987419" lon="12.5601195"><ele>33.0</ele><time>2026-03-22T08:51:13.972Z</time></trkpt><trkpt lat="43.9986316" lon="12.560185"><ele>33.0</ele><time>2026-03-22T08:51:14.973Z</time></trkpt><trkpt lat="43.9985282" lon="12.5602368"><ele>33.0</ele><time>2026-03-22T08:51:15.972Z</time></trkpt><trkpt lat="43.9984173" lon="12.5602882"><ele>33.0</ele><time>2026-03-22T08:51:16.973Z</time></trkpt><trkpt lat="43.998307" lon="12.5603313"><ele>33.0</ele><time>2026-03-22T08:51:17.972Z</time></trkpt><trkpt lat="43.998205" lon="12.5603689"><ele>33.0</ele><time>2026-03-22T08:51:18.972Z</time></trkpt><trkpt lat="43.9981088" lon="12.5604007"><ele>33.199999999999996</ele><time>2026-03-22T08:51:19.972Z</time></trkpt><trkpt lat="43.9980093" lon="12.5604267"><ele>33.4</ele><time>2026-03-22T08:51:20.972Z</time></trkpt><trkpt lat="43.9979056" lon="12.5604438"><ele>33.599999999999994</ele><time>2026-03-22T08:51:21.973Z</time></trkpt><trkpt lat="43.9977997" lon="12.5604369"><ele>33.8</ele><time>2026-03-22T08:51:22.972Z</time></trkpt><trkpt lat="43.9976914" lon="12.560409"><ele>34.0</ele><time>2026-03-22T08:51:23.973Z</time></trkpt><trkpt lat="43.9975833" lon="12.5603636"><ele>34.2</ele><time>2026-03-22T08:51:24.973Z</time></trkpt><trkpt lat="43.9974827" lon="12.5603176"><ele>34.4</ele><time>2026-03-22T08:51:25.973Z</time></trkpt><trkpt lat="43.9973901" lon="12.5602798"><ele>34.6</ele><time>2026-03-22T08:51:26.973Z</time></trkpt><trkpt lat="43.9973026" lon="12.5602603"><ele>34.8</ele><time>2026-03-22T08:51:27.971Z</time></trkpt><trkpt lat="43.9972184" lon="12.560272"><ele>35.0</ele><time>2026-03-22T08:51:28.972Z</time></trkpt><trkpt lat="43.9971479" lon="12.56031"><ele>35.166666666666664</ele><time>2026-03-22T08:51:29.972Z</time></trkpt><trkpt lat="43.9970931" lon="12.5603741"><ele>35.33333333333333</ele><time>2026-03-22T08:51:30.973Z</time></trkpt><trkpt lat="43.9970553" lon="12.5604634"><ele>35.5</ele><time>2026-03-22T08:51:31.972Z</time></trkpt><trkpt lat="43.9970361" lon="12.5605703"><ele>35.666666666666664</ele><time>2026-03-22T08:51:32.973Z</time></trkpt><trkpt lat="43.9970205" lon="12.5606962"><ele>35.833333333333336</ele><time>2026-03-22T08:51:33.972Z</time></trkpt><trkpt lat="43.9970044" lon="12.5608347"><ele>36.0</ele><time>2026-03-22T08:51:34.972Z</time></trkpt><trkpt lat="43.9969919" lon="12.5609682"><ele>36.0</ele><time>2026-03-22T08:51:35.973Z</time></trkpt><trkpt lat="43.9969787" lon="12.5610841"><ele>36.0</ele><time>2026-03-22T08:51:36.973Z</time></trkpt><trkpt lat="43.9969665" lon="12.5611868"><ele>36.0</ele><time>2026-03-22T08:51:37.972Z</time></trkpt><trkpt lat="43.9969531" lon="12.5612893"><ele>36.0</ele><time>2026-03-22T08:51:38.973Z</time></trkpt><trkpt lat="43.9969442" lon="12.5613829"><ele>36.0</ele><time>2026-03-22T08:51:39.972Z</time></trkpt><trkpt lat="43.9969321" lon="12.561478"><ele>36.0</ele><time>2026-03-22T08:51:40.973Z</time></trkpt><trkpt lat="43.9969175" lon="12.5615852"><ele>36.0</ele><time>2026-03-22T08:51:41.973Z</time></trkpt><trkpt lat="43.9969029" lon="12.5617083"><ele>36.0</ele><time>2026-03-22T08:51:42.972Z</time></trkpt><trkpt lat="43.9968849" lon="12.5618355"><ele>36.0</ele><time>2026-03-22T08:51:43.973Z</time></trkpt><trkpt lat="43.9968676" lon="12.5619562"><ele>36.0</ele><time>2026-03-22T08:51:44.973Z</time></trkpt><trkpt lat="43.9968523" lon="12.5620641"><ele>36.0</ele><time>2026-03-22T08:51:45.973Z</time></trkpt><trkpt lat="43.9968301" lon="12.5622113"><ele>35.4</ele><time>2026-03-22T08:51:47.972Z</time></trkpt><trkpt lat="43.9967667" lon="12.5622872"><ele>34.8</ele><time>2026-03-22T08:51:49.973Z</time></trkpt><trkpt lat="43.9967039" lon="12.5622787"><ele>34.199999999999996</ele><time>2026-03-22T08:51:50.973Z</time></trkpt><trkpt lat="43.996616" lon="12.5622575"><ele>33.6</ele><time>2026-03-22T08:51:51.973Z</time></trkpt><trkpt lat="43.9965159" lon="12.5622208"><ele>33.0</ele><time>2026-03-22T08:51:52.972Z</time></trkpt><trkpt lat="43.9964052" lon="12.562178"><ele>34.5</ele><time>2026-03-22T08:51:53.973Z</time></trkpt><trkpt lat="43.9962891" lon="12.5621295"><ele>36.0</ele><time>2026-03-22T08:51:54.973Z</time></trkpt><trkpt lat="43.9961763" lon="12.5620874"><ele>37.5</ele><time>2026-03-22T08:51:55.973Z</time></trkpt><trkpt lat="43.9960665" lon="12.5620347"><ele>39.0</ele><time>2026-03-22T08:51:56.973Z</time></trkpt><trkpt lat="43.9959555" lon="12.5619742"><ele>39.0</ele><time>2026-03-22T08:51:57.973Z</time></trkpt><trkpt lat="43.9958504" lon="12.5619053"><ele>39.0</ele><time>2026-03-22T08:51:58.973Z</time></trkpt><trkpt lat="43.995748" lon="12.5618246"><ele>39.0</ele><time>2026-03-22T08:51:59.972Z</time></trkpt><trkpt lat="43.9956465" lon="12.5617387"><ele>39.0</ele><time>2026-03-22T08:52:00.972Z</time></trkpt><trkpt lat="43.9955461" lon="12.5616505"><ele>40.75</ele><time>2026-03-22T08:52:01.973Z</time></trkpt><trkpt lat="43.9954443" lon="12.5615644"><ele>42.5</ele><time>2026-03-22T08:52:02.972Z</time></trkpt><trkpt lat="43.9953447" lon="12.5614754"><ele>44.25</ele><time>2026-03-22T08:52:03.973Z</time></trkpt><trkpt lat="43.995244" lon="12.5613894"><ele>46.0</ele><time>2026-03-22T08:52:04.972Z</time></trkpt><trkpt lat="43.9951504" lon="12.5613017"><ele>46.0</ele><time>2026-03-22T08:52:05.972Z</time></trkpt><trkpt lat="43.9950589" lon="12.5612177"><ele>46.0</ele><time>2026-03-22T08:52:06.973Z</time></trkpt><trkpt lat="43.9949769" lon="12.5611246"><ele>46.0</ele><time>2026-03-22T08:52:07.972Z</time></trkpt><trkpt lat="43.9949212" lon="12.5610169"><ele>46.0</ele><time>2026-03-22T08:52:08.973Z</time></trkpt><trkpt lat="43.9948877" lon="12.5608926"><ele>46.0</ele><time>2026-03-22T08:52:09.972Z</time></trkpt><trkpt lat="43.9948795" lon="12.5607503"><ele>46.5</ele><time>2026-03-22T08:52:10.973Z</time></trkpt><trkpt lat="43.9948776" lon="12.5605975"><ele>47.0</ele><time>2026-03-22T08:52:11.973Z</time></trkpt><trkpt lat="43.9948713" lon="12.5604194"><ele>47.5</ele><time>2026-03-22T08:52:12.972Z</time></trkpt><trkpt lat="43.9948514" lon="12.5602333"><ele>48.0</ele><time>2026-03-22T08:52:13.973Z</time></trkpt><trkpt lat="43.9948213" lon="12.5600415"><ele>48.0</ele><time>2026-03-22T08:52:14.972Z</time></trkpt><trkpt lat="43.9947828" lon="12.5598446"><ele>48.0</ele><time>2026-03-22T08:52:15.972Z</time></trkpt><trkpt lat="43.9947446" lon="12.5596413"><ele>48.0</ele><time>2026-03-22T08:52:16.973Z</time></trkpt><trkpt lat="43.9947048" lon="12.5594485"><ele>48.0</ele><time>2026-03-22T08:52:17.973Z</time></trkpt><trkpt lat="43.9946622" lon="12.5592757"><ele>47.75</ele><time>2026-03-22T08:52:18.973Z</time></trkpt><trkpt lat="43.9946074" lon="12.5591111"><ele>47.5</ele><time>2026-03-22T08:52:19.972Z</time></trkpt><trkpt lat="43.9945311" lon="12.5589724"><ele>47.25</ele><time>2026-03-22T08:52:20.973Z</time></trkpt><trkpt lat="43.9944321" lon="12.5588477"><ele>47.0</ele><time>2026-03-22T08:52:21.973Z</time></trkpt><trkpt lat="43.9943191" lon="12.5587353"><ele>46.25</ele><time>2026-03-22T08:52:22.972Z</time></trkpt><trkpt lat="43.9942001" lon="12.5586246"><ele>45.5</ele><time>2026-03-22T08:52:23.973Z</time></trkpt><trkpt lat="43.9940776" lon="12.5585119"><ele>44.75</ele><time>2026-03-22T08:52:24.972Z</time></trkpt><trkpt lat="43.9939481" lon="12.5584017"><ele>44.0</ele><time>2026-03-22T08:52:25.972Z</time></trkpt><trkpt lat="43.9938148" lon="12.5582951"><ele>48.0</ele><time>2026-03-22T08:52:26.973Z</time></trkpt><trkpt lat="43.9936789" lon="12.5581891"><ele>52.0</ele><time>2026-03-22T08:52:27.972Z</time></trkpt><trkpt lat="43.9935414" lon="12.5580787"><ele>56.0</ele><time>2026-03-22T08:52:28.973Z</time></trkpt><trkpt lat="43.9934016" lon="12.5579669"><ele>59.0</ele><time>2026-03-22T08:52:29.972Z</time></trkpt><trkpt lat="43.9932589" lon="12.5578575"><ele>62.0</ele><time>2026-03-22T08:52:30.973Z</time></trkpt><trkpt lat="43.9931143" lon="12.5577475"><ele>65.0</ele><time>2026-03-22T08:52:31.971Z</time></trkpt><trkpt lat="43.9929734" lon="12.5576325"><ele>65.0</ele><time>2026-03-22T08:52:32.973Z</time></trkpt><trkpt lat="43.9928289" lon="12.5575209"><ele>65.0</ele><time>2026-03-22T08:52:33.973Z</time></trkpt><trkpt lat="43.9926852" lon="12.5574106"><ele>65.0</ele><time>2026-03-22T08:52:34.973Z</time></trkpt><trkpt lat="43.9925389" lon="12.557304"><ele>68.66666666666667</ele><time>2026-03-22T08:52:35.973Z</time></trkpt><trkpt lat="43.9923855" lon="12.5572093"><ele>72.33333333333333</ele><time>2026-03-22T08:52:36.973Z</time></trkpt><trkpt lat="43.9922276" lon="12.5571241"><ele>76.0</ele><time>2026-03-22T08:52:37.973Z</time></trkpt><trkpt lat="43.9920664" lon="12.5570391"><ele>76.33333333333333</ele><time>2026-03-22T08:52:38.973Z</time></trkpt><trkpt lat="43.9919014" lon="12.5569541"><ele>76.66666666666667</ele><time>2026-03-22T08:52:39.973Z</time></trkpt><trkpt lat="43.9917285" lon="12.5568631"><ele>77.0</ele><time>2026-03-22T08:52:40.971Z</time></trkpt><trkpt lat="43.9915431" lon="12.5567677"><ele>77.0</ele><time>2026-03-22T08:52:41.972Z</time></trkpt><trkpt lat="43.9913758" lon="12.5566807"><ele>77.0</ele><time>2026-03-22T08:52:42.973Z</time></trkpt><trkpt lat="43.991219" lon="12.5566001"><ele>77.0</ele><time>2026-03-22T08:52:43.973Z</time></trkpt><trkpt lat="43.9910741" lon="12.556523"><ele>77.0</ele><time>2026-03-22T08:52:44.972Z</time></trkpt><trkpt lat="43.9909353" lon="12.5564502"><ele>77.0</ele><time>2026-03-22T08:52:45.972Z</time></trkpt><trkpt lat="43.9907939" lon="12.5563757"><ele>77.0</ele><time>2026-03-22T08:52:46.972Z</time></trkpt><trkpt lat="43.9906556" lon="12.5563048"><ele>77.0</ele><time>2026-03-22T08:52:47.972Z</time></trkpt><trkpt lat="43.9905148" lon="12.5562323"><ele>79.0</ele><time>2026-03-22T08:52:48.973Z</time></trkpt><trkpt lat="43.9903738" lon="12.556163"><ele>81.0</ele><time>2026-03-22T08:52:49.972Z</time></trkpt><trkpt lat="43.9902272" lon="12.5560897"><ele>83.0</ele><time>2026-03-22T08:52:50.973Z</time></trkpt><trkpt lat="43.9900781" lon="12.5560137"><ele>86.0</ele><time>2026-03-22T08:52:51.971Z</time></trkpt><trkpt lat="43.9899291" lon="12.5559349"><ele>89.0</ele><time>2026-03-22T08:52:52.973Z</time></trkpt><trkpt lat="43.9897782" lon="12.5558591"><ele>92.0</ele><time>2026-03-22T08:52:53.971Z</time></trkpt><trkpt lat="43.9896296" lon="12.5557877"><ele>92.0</ele><time>2026-03-22T08:52:54.973Z</time></trkpt><trkpt lat="43.9894825" lon="12.5557145"><ele>92.0</ele><time>2026-03-22T08:52:55.972Z</time></trkpt><trkpt lat="43.9893374" lon="12.555657"><ele>92.0</ele><time>2026-03-22T08:52:56.973Z</time></trkpt><trkpt lat="43.9891847" lon="12.5556215"><ele>95.66666666666667</ele><time>2026-03-22T08:52:57.973Z</time></trkpt><trkpt lat="43.9890298" lon="12.5555947"><ele>99.33333333333334</ele><time>2026-03-22T08:52:58.972Z</time></trkpt><trkpt lat="43.9888731" lon="12.5555772"><ele>103.0</ele><time>2026-03-22T08:52:59.973Z</time></trkpt><trkpt lat="43.988723" lon="12.555566"><ele>103.0</ele><time>2026-03-22T08:53:00.973Z</time></trkpt><trkpt lat="43.9885879" lon="12.5555525"><ele>103.0</ele><time>2026-03-22T08:53:01.971Z</time></trkpt><trkpt lat="43.9884657" lon="12.5555237"><ele>103.0</ele><time>2026-03-22T08:53:02.973Z</time></trkpt><trkpt lat="43.9883495" lon="12.555474"><ele>103.0</ele><time>2026-03-22T08:53:03.973Z</time></trkpt><trkpt lat="43.9882405" lon="12.5554015"><ele>103.75</ele><time>2026-03-22T08:53:04.972Z</time></trkpt><trkpt lat="43.9881363" lon="12.5552967"><ele>104.5</ele><time>2026-03-22T08:53:05.973Z</time></trkpt><trkpt lat="43.9880311" lon="12.5551793"><ele>105.25</ele><time>2026-03-22T08:53:06.972Z</time></trkpt><trkpt lat="43.987928" lon="12.5550513"><ele>106.0</ele><time>2026-03-22T08:53:07.973Z</time></trkpt><trkpt lat="43.9878277" lon="12.5549272"><ele>106.0</ele><time>2026-03-22T08:53:08.973Z</time></trkpt><trkpt lat="43.98773" lon="12.5547988"><ele>106.0</ele><time>2026-03-22T08:53:09.973Z</time></trkpt><trkpt lat="43.9876375" lon="12.5546687"><ele>106.0</ele><time>2026-03-22T08:53:10.971Z</time></trkpt><trkpt lat="43.98754" lon="12.5545339"><ele>106.0</ele><time>2026-03-22T08:53:11.972Z</time></trkpt><trkpt lat="43.9874353" lon="12.5544054"><ele>107.0</ele><time>2026-03-22T08:53:12.973Z</time></trkpt><trkpt lat="43.9873291" lon="12.554278"><ele>108.0</ele><time>2026-03-22T08:53:13.973Z</time></trkpt><trkpt lat="43.9872297" lon="12.5541652"><ele>109.0</ele><time>2026-03-22T08:53:14.972Z</time></trkpt><trkpt lat="43.9871338" lon="12.5540709"><ele>110.0</ele><time>2026-03-22T08:53:15.972Z</time></trkpt><trkpt lat="43.9870399" lon="12.554008"><ele>110.0</ele><time>2026-03-22T08:53:16.973Z</time></trkpt><trkpt lat="43.9869404" lon="12.5539863"><ele>110.0</ele><time>2026-03-22T08:53:17.973Z</time></trkpt><trkpt lat="43.9868388" lon="12.5540048"><ele>110.0</ele><time>2026-03-22T08:53:18.971Z</time></trkpt><trkpt lat="43.9867259" lon="12.5540526"><ele>110.0</ele><time>2026-03-22T08:53:19.973Z</time></trkpt><trkpt lat="43.9866043" lon="12.5541014"><ele>110.0</ele><time>2026-03-22T08:53:20.972Z</time></trkpt><trkpt lat="43.9864789" lon="12.554152"><ele>111.5</ele><time>2026-03-22T08:53:21.972Z</time></trkpt><trkpt lat="43.9863474" lon="12.5542064"><ele>113.0</ele><time>2026-03-22T08:53:22.973Z</time></trkpt><trkpt lat="43.9862207" lon="12.5542556"><ele>114.5</ele><time>2026-03-22T08:53:23.972Z</time></trkpt><trkpt lat="43.9861064" lon="12.5543017"><ele>116.0</ele><time>2026-03-22T08:53:24.973Z</time></trkpt><trkpt lat="43.9860056" lon="12.5543427"><ele>115.99999999999999</ele><time>2026-03-22T08:53:25.973Z</time></trkpt><trkpt lat="43.9859186" lon="12.5543787"><ele>116.0</ele><time>2026-03-22T08:53:26.973Z</time></trkpt><trkpt lat="43.9858462" lon="12.5544063"><ele>116.0</ele><time>2026-03-22T08:53:27.972Z</time></trkpt><trkpt lat="43.9857789" lon="12.5544309"><ele>116.0</ele><time>2026-03-22T08:53:28.973Z</time></trkpt><trkpt lat="43.9857161" lon="12.5544481"><ele>115.99999999999999</ele><time>2026-03-22T08:53:29.972Z</time></trkpt><trkpt lat="43.9855971" lon="12.554458"><ele>116.0</ele><time>2026-03-22T08:53:31.973Z</time></trkpt><trkpt lat="43.9855279" lon="12.5544848"><ele>116.4</ele><time>2026-03-22T08:53:32.971Z</time></trkpt><trkpt lat="43.9854498" lon="12.5545338"><ele>116.8</ele><time>2026-03-22T08:53:33.972Z</time></trkpt><trkpt lat="43.9853555" lon="12.5545955"><ele>117.20000000000002</ele><time>2026-03-22T08:53:34.973Z</time></trkpt><trkpt lat="43.9852389" lon="12.5546513"><ele>117.60000000000001</ele><time>2026-03-22T08:53:35.972Z</time></trkpt><trkpt lat="43.9851154" lon="12.5546979"><ele>118.0</ele><time>2026-03-22T08:53:36.972Z</time></trkpt><trkpt lat="43.9849846" lon="12.5547413"><ele>119.75</ele><time>2026-03-22T08:53:37.972Z</time></trkpt><trkpt lat="43.9848485" lon="12.5547829"><ele>121.5</ele><time>2026-03-22T08:53:38.972Z</time></trkpt><trkpt lat="43.9847047" lon="12.5548282"><ele>123.25</ele><time>2026-03-22T08:53:39.971Z</time></trkpt><trkpt lat="43.9845549" lon="12.5548821"><ele>125.0</ele><time>2026-03-22T08:53:40.973Z</time></trkpt><trkpt lat="43.9843997" lon="12.5549442"><ele>125.0</ele><time>2026-03-22T08:53:41.973Z</time></trkpt><trkpt lat="43.9842454" lon="12.5550033"><ele>125.0</ele><time>2026-03-22T08:53:42.973Z</time></trkpt><trkpt lat="43.9840901" lon="12.5550659"><ele>125.0</ele><time>2026-03-22T08:53:43.973Z</time></trkpt><trkpt lat="43.98394" lon="12.55513"><ele>126.0</ele><time>2026-03-22T08:53:44.973Z</time></trkpt><trkpt lat="43.983788" lon="12.5551978"><ele>127.0</ele><time>2026-03-22T08:53:45.973Z</time></trkpt><trkpt lat="43.9836369" lon="12.5552718"><ele>128.0</ele><time>2026-03-22T08:53:46.972Z</time></trkpt><trkpt lat="43.9834882" lon="12.5553516"><ele>125.66666666666666</ele><time>2026-03-22T08:53:47.973Z</time></trkpt><trkpt lat="43.9833421" lon="12.555436"><ele>123.33333333333334</ele><time>2026-03-22T08:53:48.972Z</time></trkpt><trkpt lat="43.9831985" lon="12.5555147"><ele>121.0</ele><time>2026-03-22T08:53:49.973Z</time></trkpt><trkpt lat="43.9830677" lon="12.5555809"><ele>121.0</ele><time>2026-03-22T08:53:50.972Z</time></trkpt><trkpt lat="43.9829456" lon="12.555644"><ele>121.0</ele><time>2026-03-22T08:53:51.972Z</time></trkpt><trkpt lat="43.9828297" lon="12.5557009"><ele>121.0</ele><time>2026-03-22T08:53:52.972Z</time></trkpt><trkpt lat="43.9827229" lon="12.5557506"><ele>121.0</ele><time>2026-03-22T08:53:53.972Z</time></trkpt><trkpt lat="43.9826212" lon="12.5557929"><ele>121.0</ele><time>2026-03-22T08:53:54.972Z</time></trkpt><trkpt lat="43.9825227" lon="12.5558279"><ele>121.0</ele><time>2026-03-22T08:53:55.972Z</time></trkpt><trkpt lat="43.9824218" lon="12.5558647"><ele>121.0</ele><time>2026-03-22T08:53:56.973Z</time></trkpt><trkpt lat="43.9823181" lon="12.5558964"><ele>121.0</ele><time>2026-03-22T08:53:57.973Z</time></trkpt><trkpt lat="43.9822086" lon="12.555924"><ele>121.0</ele><time>2026-03-22T08:53:58.972Z</time></trkpt><trkpt lat="43.9820963" lon="12.5559551"><ele>122.6</ele><time>2026-03-22T08:53:59.973Z</time></trkpt><trkpt lat="43.9819827" lon="12.5559941"><ele>124.19999999999999</ele><time>2026-03-22T08:54:00.973Z</time></trkpt><trkpt lat="43.9818826" lon="12.5560326"><ele>125.80000000000001</ele><time>2026-03-22T08:54:01.972Z</time></trkpt><trkpt lat="43.9817822" lon="12.5560844"><ele>127.4</ele><time>2026-03-22T08:54:02.972Z</time></trkpt><trkpt lat="43.9816929" lon="12.5561302"><ele>129.0</ele><time>2026-03-22T08:54:03.972Z</time></trkpt><trkpt lat="43.9816109" lon="12.5561734"><ele>129.0</ele><time>2026-03-22T08:54:04.973Z</time></trkpt><trkpt lat="43.9815386" lon="12.556209"><ele>129.0</ele><time>2026-03-22T08:54:05.972Z</time></trkpt><trkpt lat="43.9814646" lon="12.556249"><ele>129.0</ele><time>2026-03-22T08:54:06.972Z</time></trkpt><trkpt lat="43.9813873" lon="12.5562851"><ele>129.0</ele><time>2026-03-22T08:54:07.972Z</time></trkpt><trkpt lat="43.9813126" lon="12.5563354"><ele>129.0</ele><time>2026-03-22T08:54:08.972Z</time></trkpt><trkpt lat="43.9812638" lon="12.5564084"><ele>129.0</ele><time>2026-03-22T08:54:09.973Z</time></trkpt><trkpt lat="43.9812276" lon="12.5565062"><ele>129.0</ele><time>2026-03-22T08:54:10.972Z</time></trkpt><trkpt lat="43.9812045" lon="12.5566375"><ele>129.0</ele><time>2026-03-22T08:54:11.973Z</time></trkpt><trkpt lat="43.9811881" lon="12.5567892"><ele>129.0</ele><time>2026-03-22T08:54:12.972Z</time></trkpt><trkpt lat="43.9811715" lon="12.5569379"><ele>129.0</ele><time>2026-03-22T08:54:13.973Z</time></trkpt><trkpt lat="43.9811575" lon="12.5570857"><ele>129.0</ele><time>2026-03-22T08:54:14.971Z</time></trkpt><trkpt lat="43.9811423" lon="12.5572291"><ele>127.75</ele><time>2026-03-22T08:54:15.972Z</time></trkpt><trkpt lat="43.981119" lon="12.5573745"><ele>126.5</ele><time>2026-03-22T08:54:16.973Z</time></trkpt><trkpt lat="43.9810812" lon="12.5575283"><ele>125.25</ele><time>2026-03-22T08:54:17.973Z</time></trkpt><trkpt lat="43.9810269" lon="12.557686"><ele>124.0</ele><time>2026-03-22T08:54:18.972Z</time></trkpt><trkpt lat="43.9809676" lon="12.5578426"><ele>123.0</ele><time>2026-03-22T08:54:19.972Z</time></trkpt><trkpt lat="43.9809097" lon="12.5580004"><ele>122.0</ele><time>2026-03-22T08:54:20.972Z</time></trkpt><trkpt lat="43.9808642" lon="12.5581658"><ele>121.0</ele><time>2026-03-22T08:54:21.973Z</time></trkpt><trkpt lat="43.9808439" lon="12.5583417"><ele>120.0</ele><time>2026-03-22T08:54:22.973Z</time></trkpt><trkpt lat="43.9808236" lon="12.5585207"><ele>119.0</ele><time>2026-03-22T08:54:23.973Z</time></trkpt><trkpt lat="43.9808035" lon="12.5587046"><ele>118.0</ele><time>2026-03-22T08:54:24.972Z</time></trkpt><trkpt lat="43.9807822" lon="12.5588969"><ele>117.0</ele><time>2026-03-22T08:54:25.972Z</time></trkpt><trkpt lat="43.9807619" lon="12.5590935"><ele>116.0</ele><time>2026-03-22T08:54:26.972Z</time></trkpt><trkpt lat="43.980739" lon="12.559292"><ele>116.0</ele><time>2026-03-22T08:54:27.973Z</time></trkpt><trkpt lat="43.9807138" lon="12.5594878"><ele>116.0</ele><time>2026-03-22T08:54:28.973Z</time></trkpt><trkpt lat="43.9806879" lon="12.5596845"><ele>116.0</ele><time>2026-03-22T08:54:29.973Z</time></trkpt><trkpt lat="43.980662" lon="12.5598741"><ele>116.0</ele><time>2026-03-22T08:54:30.973Z</time></trkpt><trkpt lat="43.9806386" lon="12.5600592"><ele>115.5</ele><time>2026-03-22T08:54:31.973Z</time></trkpt><trkpt lat="43.9806181" lon="12.5602432"><ele>115.0</ele><time>2026-03-22T08:54:32.973Z</time></trkpt><trkpt lat="43.9805982" lon="12.5604231"><ele>114.5</ele><time>2026-03-22T08:54:33.973Z</time></trkpt><trkpt lat="43.9805799" lon="12.5606016"><ele>114.0</ele><time>2026-03-22T08:54:34.972Z</time></trkpt><trkpt lat="43.9805623" lon="12.5607812"><ele>112.25</ele><time>2026-03-22T08:54:35.972Z</time></trkpt><trkpt lat="43.9805425" lon="12.5609567"><ele>110.5</ele><time>2026-03-22T08:54:36.973Z</time></trkpt><trkpt lat="43.9805244" lon="12.5611337"><ele>108.75</ele><time>2026-03-22T08:54:37.972Z</time></trkpt><trkpt lat="43.9804968" lon="12.5613073"><ele>107.0</ele><time>2026-03-22T08:54:38.973Z</time></trkpt><trkpt lat="43.9804617" lon="12.5614736"><ele>105.0</ele><time>2026-03-22T08:54:39.973Z</time></trkpt><trkpt lat="43.9804267" lon="12.5616427"><ele>103.0</ele><time>2026-03-22T08:54:40.972Z</time></trkpt><trkpt lat="43.9803894" lon="12.5618126"><ele>101.0</ele><time>2026-03-22T08:54:41.972Z</time></trkpt><trkpt lat="43.9803548" lon="12.5619895"><ele>99.0</ele><time>2026-03-22T08:54:42.972Z</time></trkpt><trkpt lat="43.9803182" lon="12.5621803"><ele>95.66666666666667</ele><time>2026-03-22T08:54:43.973Z</time></trkpt><trkpt lat="43.9802775" lon="12.5623814"><ele>92.33333333333334</ele><time>2026-03-22T08:54:44.973Z</time></trkpt><trkpt lat="43.9802386" lon="12.5625834"><ele>89.0</ele><time>2026-03-22T08:54:45.973Z</time></trkpt><trkpt lat="43.9802027" lon="12.5627851"><ele>87.75</ele><time>2026-03-22T08:54:46.973Z</time></trkpt><trkpt lat="43.9801625" lon="12.5629847"><ele>86.5</ele><time>2026-03-22T08:54:47.973Z</time></trkpt><trkpt lat="43.9801159" lon="12.5631788"><ele>85.25</ele><time>2026-03-22T08:54:48.972Z</time></trkpt><trkpt lat="43.9800606" lon="12.5633699"><ele>84.0</ele><time>2026-03-22T08:54:49.971Z</time></trkpt><trkpt lat="43.9799986" lon="12.5635524"><ele>82.2</ele><time>2026-03-22T08:54:50.973Z</time></trkpt><trkpt lat="43.9799426" lon="12.5637156"><ele>80.4</ele><time>2026-03-22T08:54:51.973Z</time></trkpt><trkpt lat="43.9798938" lon="12.5638601"><ele>78.6</ele><time>2026-03-22T08:54:52.972Z</time></trkpt><trkpt lat="43.9798567" lon="12.5639835"><ele>76.8</ele><time>2026-03-22T08:54:53.972Z</time></trkpt><trkpt lat="43.979832" lon="12.5640962"><ele>75.0</ele><time>2026-03-22T08:54:54.972Z</time></trkpt><trkpt lat="43.9798316" lon="12.5642115"><ele>75.0</ele><time>2026-03-22T08:54:55.973Z</time></trkpt><trkpt lat="43.9798624" lon="12.5643239"><ele>75.0</ele><time>2026-03-22T08:54:56.973Z</time></trkpt><trkpt lat="43.9799266" lon="12.5644244"><ele>75.0</ele><time>2026-03-22T08:54:57.973Z</time></trkpt><trkpt lat="43.980021" lon="12.5645256"><ele>75.0</ele><time>2026-03-22T08:54:58.973Z</time></trkpt><trkpt lat="43.9801324" lon="12.5646324"><ele>75.0</ele><time>2026-03-22T08:54:59.973Z</time></trkpt><trkpt lat="43.9802368" lon="12.5647334"><ele>72.33333333333333</ele><time>2026-03-22T08:55:00.973Z</time></trkpt><trkpt lat="43.9803242" lon="12.5648197"><ele>69.66666666666667</ele><time>2026-03-22T08:55:01.972Z</time></trkpt><trkpt lat="43.980397" lon="12.5648927"><ele>67.0</ele><time>2026-03-22T08:55:02.972Z</time></trkpt><trkpt lat="43.9804534" lon="12.5649667"><ele>64.33333333333334</ele><time>2026-03-22T08:55:03.973Z</time></trkpt><trkpt lat="43.9804871" lon="12.5650615"><ele>61.66666666666667</ele><time>2026-03-22T08:55:04.972Z</time></trkpt><trkpt lat="43.9804905" lon="12.5651705"><ele>59.0</ele><time>2026-03-22T08:55:05.973Z</time></trkpt><trkpt lat="43.980461" lon="12.5652965"><ele>56.25</ele><time>2026-03-22T08:55:06.973Z</time></trkpt><trkpt lat="43.9804013" lon="12.565442"><ele>53.5</ele><time>2026-03-22T08:55:07.972Z</time></trkpt><trkpt lat="43.9803205" lon="12.5655934"><ele>50.75</ele><time>2026-03-22T08:55:08.974Z</time></trkpt><trkpt lat="43.9802325" lon="12.5657466"><ele>48.0</ele><time>2026-03-22T08:55:09.973Z</time></trkpt><trkpt lat="43.9801476" lon="12.5658954"><ele>48.0</ele><time>2026-03-22T08:55:10.973Z</time></trkpt><trkpt lat="43.9800694" lon="12.5660317"><ele>48.0</ele><time>2026-03-22T08:55:11.973Z</time></trkpt><trkpt lat="43.9800034" lon="12.5661529"><ele>48.0</ele><time>2026-03-22T08:55:12.974Z</time></trkpt><trkpt lat="43.9799452" lon="12.5662614"><ele>48.0</ele><time>2026-03-22T08:55:13.973Z</time></trkpt><trkpt lat="43.9798977" lon="12.5663543"><ele>48.0</ele><time>2026-03-22T08:55:14.973Z</time></trkpt><trkpt lat="43.979864" lon="12.5664299"><ele>47.5</ele><time>2026-03-22T08:55:15.974Z</time></trkpt><trkpt lat="43.9798102" lon="12.5665456"><ele>47.0</ele><time>2026-03-22T08:55:17.974Z</time></trkpt><trkpt lat="43.9797837" lon="12.5666357"><ele>46.5</ele><time>2026-03-22T08:55:24.973Z</time></trkpt><trkpt lat="43.9798327" lon="12.5667131"><ele>46.0</ele><time>2026-03-22T08:55:26.973Z</time></trkpt><trkpt lat="43.9799022" lon="12.5667587"><ele>45.5</ele><time>2026-03-22T08:55:27.974Z</time></trkpt><trkpt lat="43.9799939" lon="12.5668076"><ele>45.0</ele><time>2026-03-22T08:55:28.973Z</time></trkpt><trkpt lat="43.9800978" lon="12.5668686"><ele>45.0</ele><time>2026-03-22T08:55:29.973Z</time></trkpt><trkpt lat="43.9801943" lon="12.566932"><ele>45.0</ele><time>2026-03-22T08:55:30.972Z</time></trkpt><trkpt lat="43.9802817" lon="12.5669975"><ele>45.0</ele><time>2026-03-22T08:55:31.974Z</time></trkpt><trkpt lat="43.9803561" lon="12.567073"><ele>45.0</ele><time>2026-03-22T08:55:32.974Z</time></trkpt><trkpt lat="43.9804191" lon="12.5671486"><ele>45.0</ele><time>2026-03-22T08:55:33.974Z</time></trkpt><trkpt lat="43.9804711" lon="12.5672215"><ele>45.0</ele><time>2026-03-22T08:55:34.974Z</time></trkpt><trkpt lat="43.9805168" lon="12.5673425"><ele>45.0</ele><time>2026-03-22T08:55:36.974Z</time></trkpt><trkpt lat="43.9804441" lon="12.5674335"><ele>45.0</ele><time>2026-03-22T08:55:38.974Z</time></trkpt><trkpt lat="43.9803645" lon="12.5674795"><ele>45.0</ele><time>2026-03-22T08:55:39.973Z</time></trkpt><trkpt lat="43.9802705" lon="12.5675345"><ele>45.0</ele><time>2026-03-22T08:55:40.974Z</time></trkpt><trkpt lat="43.9801881" lon="12.5676126"><ele>45.0</ele><time>2026-03-22T08:55:41.973Z</time></trkpt><trkpt lat="43.9801231" lon="12.5677166"><ele>45.0</ele><time>2026-03-22T08:55:42.973Z</time></trkpt><trkpt lat="43.9800715" lon="12.5678061"><ele>45.0</ele><time>2026-03-22T08:55:43.973Z</time></trkpt><trkpt lat="43.980032" lon="12.5678812"><ele>45.0</ele><time>2026-03-22T08:55:44.973Z</time></trkpt><trkpt lat="43.9799103" lon="12.567958"><ele>45.0</ele><time>2026-03-22T08:55:46.974Z</time></trkpt><trkpt lat="43.9798262" lon="12.5679868"><ele>43.833333333333336</ele><time>2026-03-22T08:55:47.973Z</time></trkpt><trkpt lat="43.9797433" lon="12.5680153"><ele>42.666666666666664</ele><time>2026-03-22T08:55:48.973Z</time></trkpt><trkpt lat="43.9796765" lon="12.5680542"><ele>41.5</ele><time>2026-03-22T08:55:49.973Z</time></trkpt><trkpt lat="43.9796203" lon="12.5681179"><ele>40.33333333333333</ele><time>2026-03-22T08:55:50.973Z</time></trkpt><trkpt lat="43.9795739" lon="12.5682028"><ele>39.166666666666664</ele><time>2026-03-22T08:55:51.974Z</time></trkpt><trkpt lat="43.9795464" lon="12.5683561"><ele>38.0</ele><time>2026-03-22T08:55:53.974Z</time></trkpt><trkpt lat="43.9795707" lon="12.5685152"><ele>38.0</ele><time>2026-03-22T08:55:55.974Z</time></trkpt><trkpt lat="43.9795604" lon="12.5686437"><ele>38.0</ele><time>2026-03-22T08:55:57.973Z</time></trkpt><trkpt lat="43.9794395" lon="12.5687131"><ele>38.0</ele><time>2026-03-22T08:55:59.974Z</time></trkpt><trkpt lat="43.9793229" lon="12.5687577"><ele>38.0</ele><time>2026-03-22T08:56:00.974Z</time></trkpt><trkpt lat="43.9792028" lon="12.568829"><ele>38.25</ele><time>2026-03-22T08:56:01.972Z</time></trkpt><trkpt lat="43.9790809" lon="12.5689105"><ele>38.5</ele><time>2026-03-22T08:56:02.974Z</time></trkpt><trkpt lat="43.9789711" lon="12.5689963"><ele>38.75</ele><time>2026-03-22T08:56:03.974Z</time></trkpt><trkpt lat="43.9788404" lon="12.5690971"><ele>39.0</ele><time>2026-03-22T08:56:04.973Z</time></trkpt><trkpt lat="43.9787227" lon="12.569176"><ele>39.0</ele><time>2026-03-22T08:56:05.974Z</time></trkpt><trkpt lat="43.9786166" lon="12.5692431"><ele>39.0</ele><time>2026-03-22T08:56:06.973Z</time></trkpt><trkpt lat="43.9785337" lon="12.569282"><ele>39.0</ele><time>2026-03-22T08:56:07.973Z</time></trkpt><trkpt lat="43.9784689" lon="12.5693011"><ele>39.0</ele><time>2026-03-22T08:56:08.974Z</time></trkpt><trkpt lat="43.9784061" lon="12.5693201"><ele>39.0</ele><time>2026-03-22T08:56:09.973Z</time></trkpt><trkpt lat="43.9783361" lon="12.5691726"><ele>39.166666666666664</ele><time>2026-03-22T08:56:11.973Z</time></trkpt><trkpt lat="43.9783125" lon="12.5690579"><ele>39.333333333333336</ele><time>2026-03-22T08:56:12.973Z</time></trkpt><trkpt lat="43.9782822" lon="12.5689331"><ele>39.5</ele><time>2026-03-22T08:56:13.973Z</time></trkpt><trkpt lat="43.9782396" lon="12.56882"><ele>39.66666666666667</ele><time>2026-03-22T08:56:14.973Z</time></trkpt><trkpt lat="43.9781957" lon="12.5687212"><ele>39.833333333333336</ele><time>2026-03-22T08:56:15.973Z</time></trkpt><trkpt lat="43.9781779" lon="12.5686238"><ele>40.0</ele><time>2026-03-22T08:56:16.974Z</time></trkpt><trkpt lat="43.9781694" lon="12.5685157"><ele>40.0</ele><time>2026-03-22T08:56:17.973Z</time></trkpt><trkpt lat="43.9781537" lon="12.5684221"><ele>40.0</ele><time>2026-03-22T08:56:18.973Z</time></trkpt><trkpt lat="43.9781101" lon="12.5683217"><ele>40.0</ele><time>2026-03-22T08:56:19.972Z</time></trkpt><trkpt lat="43.9780522" lon="12.5682222"><ele>40.0</ele><time>2026-03-22T08:56:20.973Z</time></trkpt><trkpt lat="43.9779736" lon="12.5681301"><ele>40.0</ele><time>2026-03-22T08:56:21.973Z</time></trkpt><trkpt lat="43.977882" lon="12.5680449"><ele>40.0</ele><time>2026-03-22T08:56:22.974Z</time></trkpt><trkpt lat="43.9777911" lon="12.5679592"><ele>40.0</ele><time>2026-03-22T08:56:23.974Z</time></trkpt><trkpt lat="43.9777076" lon="12.5678961"><ele>40.0</ele><time>2026-03-22T08:56:24.974Z</time></trkpt><trkpt lat="43.9776234" lon="12.5678347"><ele>40.0</ele><time>2026-03-22T08:56:25.973Z</time></trkpt><trkpt lat="43.9775502" lon="12.5677815"><ele>40.0</ele><time>2026-03-22T08:56:26.973Z</time></trkpt><trkpt lat="43.9774813" lon="12.5677345"><ele>40.333333333333336</ele><time>2026-03-22T08:56:27.974Z</time></trkpt><trkpt lat="43.9774219" lon="12.5676997"><ele>40.66666666666667</ele><time>2026-03-22T08:56:28.974Z</time></trkpt><trkpt lat="43.9773409" lon="12.5676426"><ele>41.0</ele><time>2026-03-22T08:56:30.973Z</time></trkpt><trkpt lat="43.9772801" lon="12.5676134"><ele>41.333333333333336</ele><time>2026-03-22T08:56:32.974Z</time></trkpt><trkpt lat="43.9772036" lon="12.5677155"><ele>41.666666666666664</ele><time>2026-03-22T08:56:35.974Z</time></trkpt><trkpt lat="43.9771826" lon="12.5678198"><ele>42.0</ele><time>2026-03-22T08:56:36.973Z</time></trkpt><trkpt lat="43.9771687" lon="12.5679432"><ele>41.333333333333336</ele><time>2026-03-22T08:56:37.973Z</time></trkpt><trkpt lat="43.977158" lon="12.5680568"><ele>40.666666666666664</ele><time>2026-03-22T08:56:38.973Z</time></trkpt><trkpt lat="43.9771458" lon="12.5681642"><ele>40.0</ele><time>2026-03-22T08:56:39.974Z</time></trkpt><trkpt lat="43.9771327" lon="12.5682741"><ele>39.33333333333333</ele><time>2026-03-22T08:56:40.974Z</time></trkpt><trkpt lat="43.9771235" lon="12.5683668"><ele>38.666666666666664</ele><time>2026-03-22T08:56:41.972Z</time></trkpt><trkpt lat="43.977117" lon="12.5684575"><ele>38.0</ele><time>2026-03-22T08:56:42.973Z</time></trkpt><trkpt lat="43.9771047" lon="12.5685746"><ele>37.8</ele><time>2026-03-22T08:56:43.974Z</time></trkpt><trkpt lat="43.9770778" lon="12.5687"><ele>37.599999999999994</ele><time>2026-03-22T08:56:44.974Z</time></trkpt><trkpt lat="43.9770287" lon="12.5687963"><ele>37.400000000000006</ele><time>2026-03-22T08:56:45.972Z</time></trkpt><trkpt lat="43.9769499" lon="12.568872"><ele>37.2</ele><time>2026-03-22T08:56:46.974Z</time></trkpt><trkpt lat="43.9768502" lon="12.5689375"><ele>37.0</ele><time>2026-03-22T08:56:47.973Z</time></trkpt><trkpt lat="43.9767489" lon="12.5690098"><ele>37.75</ele><time>2026-03-22T08:56:48.974Z</time></trkpt><trkpt lat="43.9766634" lon="12.5691124"><ele>38.5</ele><time>2026-03-22T08:56:49.972Z</time></trkpt><trkpt lat="43.9765896" lon="12.5692504"><ele>39.25</ele><time>2026-03-22T08:56:50.974Z</time></trkpt><trkpt lat="43.9765126" lon="12.5694108"><ele>40.0</ele><time>2026-03-22T08:56:51.973Z</time></trkpt><trkpt lat="43.9764263" lon="12.5695726"><ele>40.25</ele><time>2026-03-22T08:56:52.974Z</time></trkpt><trkpt lat="43.9763479" lon="12.5697322"><ele>40.5</ele><time>2026-03-22T08:56:53.974Z</time></trkpt><trkpt lat="43.9762998" lon="12.5699013"><ele>40.75</ele><time>2026-03-22T08:56:54.973Z</time></trkpt><trkpt lat="43.9762793" lon="12.5700828"><ele>41.0</ele><time>2026-03-22T08:56:55.973Z</time></trkpt><trkpt lat="43.9762747" lon="12.5702806"><ele>41.8</ele><time>2026-03-22T08:56:56.973Z</time></trkpt><trkpt lat="43.9762763" lon="12.5704766"><ele>42.599999999999994</ele><time>2026-03-22T08:56:57.974Z</time></trkpt><trkpt lat="43.9762725" lon="12.5706352"><ele>43.4</ele><time>2026-03-22T08:56:58.973Z</time></trkpt><trkpt lat="43.9762642" lon="12.5707616"><ele>44.2</ele><time>2026-03-22T08:56:59.974Z</time></trkpt><trkpt lat="43.9762131" lon="12.5708696"><ele>45.0</ele><time>2026-03-22T08:57:00.973Z</time></trkpt><trkpt lat="43.9761243" lon="12.5709689"><ele>45.0</ele><time>2026-03-22T08:57:01.973Z</time></trkpt><trkpt lat="43.9760111" lon="12.5710715"><ele>45.0</ele><time>2026-03-22T08:57:02.973Z</time></trkpt><trkpt lat="43.9758741" lon="12.5711994"><ele>45.0</ele><time>2026-03-22T08:57:03.973Z</time></trkpt><trkpt lat="43.9757099" lon="12.5713517"><ele>47.5</ele><time>2026-03-22T08:57:04.974Z</time></trkpt><trkpt lat="43.9755142" lon="12.5715087"><ele>50.0</ele><time>2026-03-22T08:57:05.974Z</time></trkpt><trkpt lat="43.9753091" lon="12.5716479"><ele>50.0</ele><time>2026-03-22T08:57:06.974Z</time></trkpt><trkpt lat="43.9751315" lon="12.5717608"><ele>50.0</ele><time>2026-03-22T08:57:07.973Z</time></trkpt><trkpt lat="43.9749826" lon="12.5718489"><ele>50.0</ele><time>2026-03-22T08:57:08.974Z</time></trkpt><trkpt lat="43.9748599" lon="12.5719291"><ele>49.833333333333336</ele><time>2026-03-22T08:57:09.974Z</time></trkpt><trkpt lat="43.9747635" lon="12.5720004"><ele>49.66666666666667</ele><time>2026-03-22T08:57:10.973Z</time></trkpt><trkpt lat="43.974695" lon="12.5720654"><ele>49.5</ele><time>2026-03-22T08:57:11.973Z</time></trkpt><trkpt lat="43.9746493" lon="12.5721398"><ele>49.33333333333333</ele><time>2026-03-22T08:57:12.974Z</time></trkpt><trkpt lat="43.9746275" lon="12.5722296"><ele>49.166666666666664</ele><time>2026-03-22T08:57:13.973Z</time></trkpt><trkpt lat="43.9746342" lon="12.5723355"><ele>49.0</ele><time>2026-03-22T08:57:14.974Z</time></trkpt><trkpt lat="43.9746627" lon="12.5724604"><ele>49.5</ele><time>2026-03-22T08:57:15.973Z</time></trkpt><trkpt lat="43.9747035" lon="12.5726173"><ele>50.0</ele><time>2026-03-22T08:57:16.974Z</time></trkpt><trkpt lat="43.974747" lon="12.5728052"><ele>50.5</ele><time>2026-03-22T08:57:17.973Z</time></trkpt><trkpt lat="43.9747871" lon="12.5730089"><ele>51.0</ele><time>2026-03-22T08:57:18.973Z</time></trkpt><trkpt lat="43.9748267" lon="12.5732263"><ele>51.0</ele><time>2026-03-22T08:57:19.973Z</time></trkpt><trkpt lat="43.9748678" lon="12.5734524"><ele>51.0</ele><time>2026-03-22T08:57:20.974Z</time></trkpt><trkpt lat="43.974909" lon="12.5736778"><ele>51.0</ele><time>2026-03-22T08:57:21.974Z</time></trkpt><trkpt lat="43.9749477" lon="12.57389"><ele>51.0</ele><time>2026-03-22T08:57:22.973Z</time></trkpt><trkpt lat="43.9749855" lon="12.5740869"><ele>51.0</ele><time>2026-03-22T08:57:23.973Z</time></trkpt><trkpt lat="43.9750196" lon="12.5742732"><ele>51.0</ele><time>2026-03-22T08:57:24.974Z</time></trkpt><trkpt lat="43.9750521" lon="12.5744522"><ele>51.0</ele><time>2026-03-22T08:57:25.974Z</time></trkpt><trkpt lat="43.9750858" lon="12.5746325"><ele>51.25</ele><time>2026-03-22T08:57:26.974Z</time></trkpt><trkpt lat="43.9751193" lon="12.5748184"><ele>51.5</ele><time>2026-03-22T08:57:27.974Z</time></trkpt><trkpt lat="43.9751516" lon="12.5750057"><ele>51.75</ele><time>2026-03-22T08:57:28.973Z</time></trkpt><trkpt lat="43.9751842" lon="12.575193"><ele>52.0</ele><time>2026-03-22T08:57:29.974Z</time></trkpt><trkpt lat="43.9752154" lon="12.5753708"><ele>52.0</ele><time>2026-03-22T08:57:30.974Z</time></trkpt><trkpt lat="43.9752413" lon="12.5755287"><ele>52.0</ele><time>2026-03-22T08:57:31.973Z</time></trkpt><trkpt lat="43.9752605" lon="12.5756541"><ele>52.0</ele><time>2026-03-22T08:57:32.974Z</time></trkpt><trkpt lat="43.9752761" lon="12.5757584"><ele>52.0</ele><time>2026-03-22T08:57:33.973Z</time></trkpt><trkpt lat="43.9752909" lon="12.5758477"><ele>52.0</ele><time>2026-03-22T08:57:34.973Z</time></trkpt><trkpt lat="43.9753191" lon="12.5759813"><ele>52.0</ele><time>2026-03-22T08:57:36.973Z</time></trkpt><trkpt lat="43.975356" lon="12.5760722"><ele>52.0</ele><time>2026-03-22T08:57:42.972Z</time></trkpt><trkpt lat="43.9754289" lon="12.5762214"><ele>52.0</ele><time>2026-03-22T08:57:44.974Z</time></trkpt><trkpt lat="43.9754576" lon="12.5763252"><ele>52.0</ele><time>2026-03-22T08:57:45.973Z</time></trkpt><trkpt lat="43.9754791" lon="12.5764519"><ele>52.0</ele><time>2026-03-22T08:57:46.973Z</time></trkpt><trkpt lat="43.9755049" lon="12.5766005"><ele>51.75</ele><time>2026-03-22T08:57:47.973Z</time></trkpt><trkpt lat="43.9755372" lon="12.5767555"><ele>51.5</ele><time>2026-03-22T08:57:48.974Z</time></trkpt><trkpt lat="43.9755707" lon="12.5769176"><ele>51.25</ele><time>2026-03-22T08:57:49.973Z</time></trkpt><trkpt lat="43.9756006" lon="12.5770915"><ele>51.0</ele><time>2026-03-22T08:57:50.973Z</time></trkpt><trkpt lat="43.9756291" lon="12.5772568"><ele>51.199999999999996</ele><time>2026-03-22T08:57:51.973Z</time></trkpt><trkpt lat="43.9756555" lon="12.5774079"><ele>51.4</ele><time>2026-03-22T08:57:52.974Z</time></trkpt><trkpt lat="43.9756856" lon="12.5775336"><ele>51.6</ele><time>2026-03-22T08:57:53.973Z</time></trkpt><trkpt lat="43.9757256" lon="12.5776485"><ele>51.8</ele><time>2026-03-22T08:57:54.973Z</time></trkpt><trkpt lat="43.9757909" lon="12.5777382"><ele>52.0</ele><time>2026-03-22T08:57:55.973Z</time></trkpt><trkpt lat="43.9758673" lon="12.5778016"><ele>51.99999999999999</ele><time>2026-03-22T08:57:56.972Z</time></trkpt><trkpt lat="43.9759478" lon="12.5778394"><ele>52.0</ele><time>2026-03-22T08:57:57.973Z</time></trkpt><trkpt lat="43.9760143" lon="12.5778877"><ele>52.0</ele><time>2026-03-22T08:57:58.973Z</time></trkpt><trkpt lat="43.9760689" lon="12.5779631"><ele>52.0</ele><time>2026-03-22T08:57:59.974Z</time></trkpt><trkpt lat="43.976098" lon="12.5780664"><ele>51.99999999999999</ele><time>2026-03-22T08:58:00.974Z</time></trkpt><trkpt lat="43.9761125" lon="12.578185"><ele>52.0</ele><time>2026-03-22T08:58:01.974Z</time></trkpt><trkpt lat="43.9761219" lon="12.5783277"><ele>53.2</ele><time>2026-03-22T08:58:02.972Z</time></trkpt><trkpt lat="43.9761375" lon="12.5784784"><ele>54.400000000000006</ele><time>2026-03-22T08:58:03.973Z</time></trkpt><trkpt lat="43.9761558" lon="12.5786324"><ele>55.599999999999994</ele><time>2026-03-22T08:58:04.974Z</time></trkpt><trkpt lat="43.9761783" lon="12.5787885"><ele>56.8</ele><time>2026-03-22T08:58:05.974Z</time></trkpt><trkpt lat="43.9761956" lon="12.5789157"><ele>58.0</ele><time>2026-03-22T08:58:06.973Z</time></trkpt><trkpt lat="43.9761906" lon="12.5790246"><ele>60.599999999999994</ele><time>2026-03-22T08:58:07.973Z</time></trkpt><trkpt lat="43.9761623" lon="12.5791335"><ele>63.199999999999996</ele><time>2026-03-22T08:58:08.973Z</time></trkpt><trkpt lat="43.976111" lon="12.5792433"><ele>65.8</ele><time>2026-03-22T08:58:09.973Z</time></trkpt><trkpt lat="43.9760546" lon="12.5793564"><ele>68.39999999999999</ele><time>2026-03-22T08:58:10.974Z</time></trkpt><trkpt lat="43.9760015" lon="12.5794893"><ele>71.0</ele><time>2026-03-22T08:58:11.972Z</time></trkpt><trkpt lat="43.9759402" lon="12.5796187"><ele>74.0</ele><time>2026-03-22T08:58:12.974Z</time></trkpt><trkpt lat="43.9758735" lon="12.5797527"><ele>77.0</ele><time>2026-03-22T08:58:13.974Z</time></trkpt><trkpt lat="43.9758072" lon="12.5798913"><ele>80.0</ele><time>2026-03-22T08:58:14.973Z</time></trkpt><trkpt lat="43.9757359" lon="12.5800254"><ele>83.0</ele><time>2026-03-22T08:58:15.973Z</time></trkpt><trkpt lat="43.9756699" lon="12.5801369"><ele>83.4</ele><time>2026-03-22T08:58:16.974Z</time></trkpt><trkpt lat="43.9756143" lon="12.5802287"><ele>83.80000000000001</ele><time>2026-03-22T08:58:17.973Z</time></trkpt><trkpt lat="43.9755565" lon="12.5803195"><ele>84.2</ele><time>2026-03-22T08:58:18.973Z</time></trkpt><trkpt lat="43.9755026" lon="12.58042"><ele>84.6</ele><time>2026-03-22T08:58:19.974Z</time></trkpt><trkpt lat="43.9754538" lon="12.580535"><ele>85.0</ele><time>2026-03-22T08:58:20.973Z</time></trkpt><trkpt lat="43.9754109" lon="12.5806577"><ele>87.8</ele><time>2026-03-22T08:58:21.973Z</time></trkpt><trkpt lat="43.9753717" lon="12.5807772"><ele>90.6</ele><time>2026-03-22T08:58:22.973Z</time></trkpt><trkpt lat="43.9753252" lon="12.5808971"><ele>93.4</ele><time>2026-03-22T08:58:23.974Z</time></trkpt><trkpt lat="43.9752636" lon="12.5810112"><ele>96.2</ele><time>2026-03-22T08:58:24.974Z</time></trkpt><trkpt lat="43.9751898" lon="12.5811206"><ele>99.0</ele><time>2026-03-22T08:58:25.973Z</time></trkpt><trkpt lat="43.9751048" lon="12.5812279"><ele>98.6</ele><time>2026-03-22T08:58:26.973Z</time></trkpt><trkpt lat="43.9750163" lon="12.581326"><ele>98.2</ele><time>2026-03-22T08:58:27.973Z</time></trkpt><trkpt lat="43.9749389" lon="12.5814145"><ele>97.8</ele><time>2026-03-22T08:58:28.973Z</time></trkpt><trkpt lat="43.9748604" lon="12.5814934"><ele>97.39999999999999</ele><time>2026-03-22T08:58:29.973Z</time></trkpt><trkpt lat="43.9747799" lon="12.5815734"><ele>97.0</ele><time>2026-03-22T08:58:30.973Z</time></trkpt><trkpt lat="43.9747129" lon="12.5816415"><ele>97.00000000000001</ele><time>2026-03-22T08:58:31.973Z</time></trkpt><trkpt lat="43.9746517" lon="12.5817226"><ele>97.0</ele><time>2026-03-22T08:58:32.974Z</time></trkpt><trkpt lat="43.9746003" lon="12.5818158"><ele>97.0</ele><time>2026-03-22T08:58:33.973Z</time></trkpt><trkpt lat="43.9745617" lon="12.5819141"><ele>97.0</ele><time>2026-03-22T08:58:34.974Z</time></trkpt><trkpt lat="43.9745319" lon="12.5820048"><ele>97.00000000000001</ele><time>2026-03-22T08:58:35.973Z</time></trkpt><trkpt lat="43.9744719" lon="12.5821366"><ele>97.0</ele><time>2026-03-22T08:58:37.973Z</time></trkpt><trkpt lat="43.9743772" lon="12.5821511"><ele>96.00000000000001</ele><time>2026-03-22T08:58:39.973Z</time></trkpt><trkpt lat="43.9743041" lon="12.5821163"><ele>95.0</ele><time>2026-03-22T08:58:40.974Z</time></trkpt><trkpt lat="43.9742254" lon="12.582053"><ele>94.0</ele><time>2026-03-22T08:58:41.973Z</time></trkpt><trkpt lat="43.9741443" lon="12.5819953"><ele>93.0</ele><time>2026-03-22T08:58:42.974Z</time></trkpt><trkpt lat="43.9740651" lon="12.5819432"><ele>92.0</ele><time>2026-03-22T08:58:43.972Z</time></trkpt><trkpt lat="43.9739823" lon="12.5819019"><ele>91.0</ele><time>2026-03-22T08:58:44.974Z</time></trkpt><trkpt lat="43.9738913" lon="12.5818678"><ele>90.83333333333333</ele><time>2026-03-22T08:58:45.974Z</time></trkpt><trkpt lat="43.9738079" lon="12.5818388"><ele>90.66666666666666</ele><time>2026-03-22T08:58:46.973Z</time></trkpt><trkpt lat="43.9737297" lon="12.5818174"><ele>90.5</ele><time>2026-03-22T08:58:47.974Z</time></trkpt><trkpt lat="43.9736539" lon="12.5818054"><ele>90.33333333333333</ele><time>2026-03-22T08:58:48.974Z</time></trkpt><trkpt lat="43.9735848" lon="12.581824"><ele>90.16666666666667</ele><time>2026-03-22T08:58:49.973Z</time></trkpt><trkpt lat="43.9735233" lon="12.5818876"><ele>90.0</ele><time>2026-03-22T08:58:50.974Z</time></trkpt><trkpt lat="43.9734689" lon="12.5819979"><ele>87.5</ele><time>2026-03-22T08:58:51.973Z</time></trkpt><trkpt lat="43.9734197" lon="12.5821517"><ele>85.0</ele><time>2026-03-22T08:58:52.974Z</time></trkpt><trkpt lat="43.973373" lon="12.5823264"><ele>82.5</ele><time>2026-03-22T08:58:53.974Z</time></trkpt><trkpt lat="43.973331" lon="12.5825195"><ele>80.0</ele><time>2026-03-22T08:58:54.973Z</time></trkpt><trkpt lat="43.9732981" lon="12.5827313"><ele>75.33333333333334</ele><time>2026-03-22T08:58:55.973Z</time></trkpt><trkpt lat="43.9732671" lon="12.5829596"><ele>70.66666666666667</ele><time>2026-03-22T08:58:56.973Z</time></trkpt><trkpt lat="43.9732379" lon="12.5832012"><ele>66.0</ele><time>2026-03-22T08:58:57.973Z</time></trkpt><trkpt lat="43.9732063" lon="12.58344"><ele>66.0</ele><time>2026-03-22T08:58:58.973Z</time></trkpt><trkpt lat="43.97317" lon="12.5836708"><ele>66.0</ele><time>2026-03-22T08:58:59.973Z</time></trkpt><trkpt lat="43.9731282" lon="12.583899"><ele>66.0</ele><time>2026-03-22T08:59:00.972Z</time></trkpt><trkpt lat="43.9730844" lon="12.584123"><ele>64.33333333333333</ele><time>2026-03-22T08:59:01.973Z</time></trkpt><trkpt lat="43.9730396" lon="12.5843433"><ele>62.666666666666664</ele><time>2026-03-22T08:59:02.973Z</time></trkpt><trkpt lat="43.9729955" lon="12.5845688"><ele>61.0</ele><time>2026-03-22T08:59:03.973Z</time></trkpt><trkpt lat="43.9729532" lon="12.5847946"><ele>59.33333333333333</ele><time>2026-03-22T08:59:04.974Z</time></trkpt><trkpt lat="43.9729134" lon="12.5850214"><ele>57.66666666666667</ele><time>2026-03-22T08:59:05.973Z</time></trkpt><trkpt lat="43.9728729" lon="12.5852527"><ele>56.0</ele><time>2026-03-22T08:59:06.973Z</time></trkpt><trkpt lat="43.9728312" lon="12.5854876"><ele>55.0</ele><time>2026-03-22T08:59:07.974Z</time></trkpt><trkpt lat="43.9727876" lon="12.5857292"><ele>54.0</ele><time>2026-03-22T08:59:08.974Z</time></trkpt><trkpt lat="43.9727461" lon="12.5859708"><ele>53.0</ele><time>2026-03-22T08:59:09.973Z</time></trkpt><trkpt lat="43.9726994" lon="12.5862174"><ele>52.0</ele><time>2026-03-22T08:59:10.974Z</time></trkpt><trkpt lat="43.972656" lon="12.5864581"><ele>51.0</ele><time>2026-03-22T08:59:11.974Z</time></trkpt><trkpt lat="43.9726114" lon="12.5866917"><ele>50.0</ele><time>2026-03-22T08:59:12.972Z</time></trkpt><trkpt lat="43.9725631" lon="12.5869338"><ele>52.0</ele><time>2026-03-22T08:59:13.973Z</time></trkpt><trkpt lat="43.9725104" lon="12.5871957"><ele>54.0</ele><time>2026-03-22T08:59:14.974Z</time></trkpt><trkpt lat="43.9724579" lon="12.5874437"><ele>56.0</ele><time>2026-03-22T08:59:15.973Z</time></trkpt><trkpt lat="43.9724087" lon="12.5876779"><ele>55.75</ele><time>2026-03-22T08:59:16.973Z</time></trkpt><trkpt lat="43.9723665" lon="12.5878837"><ele>55.5</ele><time>2026-03-22T08:59:17.974Z</time></trkpt><trkpt lat="43.9723293" lon="12.5880517"><ele>55.25</ele><time>2026-03-22T08:59:18.974Z</time></trkpt><trkpt lat="43.9722965" lon="12.5881884"><ele>55.0</ele><time>2026-03-22T08:59:19.974Z</time></trkpt><trkpt lat="43.9722678" lon="12.5882851"><ele>55.0</ele><time>2026-03-22T08:59:20.974Z</time></trkpt><trkpt lat="43.9721885" lon="12.5883675"><ele>55.0</ele><time>2026-03-22T08:59:22.974Z</time></trkpt><trkpt lat="43.9720538" lon="12.5883191"><ele>55.0</ele><time>2026-03-22T08:59:24.974Z</time></trkpt><trkpt lat="43.9719563" lon="12.5882916"><ele>55.0</ele><time>2026-03-22T08:59:25.973Z</time></trkpt><trkpt lat="43.9718805" lon="12.588291"><ele>55.0</ele><time>2026-03-22T08:59:26.974Z</time></trkpt><trkpt lat="43.9717645" lon="12.5883494"><ele>56.6</ele><time>2026-03-22T08:59:28.974Z</time></trkpt><trkpt lat="43.9716695" lon="12.5884332"><ele>58.2</ele><time>2026-03-22T08:59:30.973Z</time></trkpt><trkpt lat="43.971606" lon="12.5884829"><ele>59.8</ele><time>2026-03-22T08:59:32.974Z</time></trkpt><trkpt lat="43.971561" lon="12.5885965"><ele>61.4</ele><time>2026-03-22T08:59:46.973Z</time></trkpt><trkpt lat="43.9716339" lon="12.5887596"><ele>63.0</ele><time>2026-03-22T08:59:48.973Z</time></trkpt><trkpt lat="43.9716893" lon="12.5888737"><ele>61.4</ele><time>2026-03-22T08:59:49.974Z</time></trkpt><trkpt lat="43.9717497" lon="12.5889947"><ele>59.8</ele><time>2026-03-22T08:59:50.974Z</time></trkpt><trkpt lat="43.9718072" lon="12.5891048"><ele>58.2</ele><time>2026-03-22T08:59:51.974Z</time></trkpt><trkpt lat="43.9718636" lon="12.5892077"><ele>56.6</ele><time>2026-03-22T08:59:52.974Z</time></trkpt><trkpt lat="43.9719072" lon="12.5893113"><ele>55.0</ele><time>2026-03-22T08:59:53.973Z</time></trkpt><trkpt lat="43.9719302" lon="12.5894176"><ele>55.75</ele><time>2026-03-22T08:59:54.973Z</time></trkpt><trkpt lat="43.9719336" lon="12.5895204"><ele>56.5</ele><time>2026-03-22T08:59:55.974Z</time></trkpt><trkpt lat="43.9719072" lon="12.5896331"><ele>57.25</ele><time>2026-03-22T08:59:56.973Z</time></trkpt><trkpt lat="43.9718414" lon="12.5897783"><ele>58.0</ele><time>2026-03-22T08:59:57.972Z</time></trkpt><trkpt lat="43.9717415" lon="12.5899771"><ele>58.33333333333333</ele><time>2026-03-22T08:59:58.974Z</time></trkpt><trkpt lat="43.9716267" lon="12.5902071"><ele>58.66666666666667</ele><time>2026-03-22T08:59:59.974Z</time></trkpt><trkpt lat="43.9715179" lon="12.590416"><ele>59.0</ele><time>2026-03-22T09:00:00.974Z</time></trkpt><trkpt lat="43.9714103" lon="12.590616"><ele>57.333333333333336</ele><time>2026-03-22T09:00:01.973Z</time></trkpt><trkpt lat="43.9713037" lon="12.5908057"><ele>55.66666666666667</ele><time>2026-03-22T09:00:02.973Z</time></trkpt><trkpt lat="43.9711909" lon="12.5909866"><ele>54.0</ele><time>2026-03-22T09:00:03.974Z</time></trkpt><trkpt lat="43.9710671" lon="12.591171"><ele>51.666666666666664</ele><time>2026-03-22T09:00:04.973Z</time></trkpt><trkpt lat="43.9709406" lon="12.5913672"><ele>49.33333333333333</ele><time>2026-03-22T09:00:05.973Z</time></trkpt><trkpt lat="43.9708106" lon="12.5915734"><ele>47.0</ele><time>2026-03-22T09:00:06.973Z</time></trkpt><trkpt lat="43.9706796" lon="12.591781"><ele>45.0</ele><time>2026-03-22T09:00:07.973Z</time></trkpt><trkpt lat="43.9705474" lon="12.591985"><ele>43.0</ele><time>2026-03-22T09:00:08.974Z</time></trkpt><trkpt lat="43.9704154" lon="12.5921729"><ele>41.0</ele><time>2026-03-22T09:00:09.973Z</time></trkpt><trkpt lat="43.9702841" lon="12.5923462"><ele>39.33333333333333</ele><time>2026-03-22T09:00:10.973Z</time></trkpt><trkpt lat="43.9701587" lon="12.5925071"><ele>37.666666666666664</ele><time>2026-03-22T09:00:11.974Z</time></trkpt><trkpt lat="43.9700398" lon="12.5926533"><ele>36.0</ele><time>2026-03-22T09:00:12.973Z</time></trkpt><trkpt lat="43.9699253" lon="12.592789"><ele>36.0</ele><time>2026-03-22T09:00:13.974Z</time></trkpt><trkpt lat="43.9698092" lon="12.5929292"><ele>36.0</ele><time>2026-03-22T09:00:14.973Z</time></trkpt><trkpt lat="43.9696915" lon="12.5930693"><ele>36.0</ele><time>2026-03-22T09:00:15.974Z</time></trkpt><trkpt lat="43.9695717" lon="12.5932073"><ele>36.0</ele><time>2026-03-22T09:00:16.974Z</time></trkpt><trkpt lat="43.9694481" lon="12.5933502"><ele>36.0</ele><time>2026-03-22T09:00:17.973Z</time></trkpt><trkpt lat="43.9693238" lon="12.5934993"><ele>36.0</ele><time>2026-03-22T09:00:18.973Z</time></trkpt><trkpt lat="43.9692046" lon="12.5936551"><ele>36.333333333333336</ele><time>2026-03-22T09:00:19.973Z</time></trkpt><trkpt lat="43.969094" lon="12.5938263"><ele>36.66666666666667</ele><time>2026-03-22T09:00:20.972Z</time></trkpt><trkpt lat="43.9689928" lon="12.5939955"><ele>37.0</ele><time>2026-03-22T09:00:21.973Z</time></trkpt><trkpt lat="43.9689084" lon="12.5941504"><ele>37.0</ele><time>2026-03-22T09:00:22.974Z</time></trkpt><trkpt lat="43.9688358" lon="12.5942786"><ele>37.0</ele><time>2026-03-22T09:00:23.974Z</time></trkpt><trkpt lat="43.9687719" lon="12.59439"><ele>37.0</ele><time>2026-03-22T09:00:24.973Z</time></trkpt><trkpt lat="43.9687168" lon="12.5944824"><ele>37.0</ele><time>2026-03-22T09:00:25.974Z</time></trkpt><trkpt lat="43.9686689" lon="12.5945458"><ele>37.0</ele><time>2026-03-22T09:00:26.973Z</time></trkpt><trkpt lat="43.9685607" lon="12.5945818"><ele>37.0</ele><time>2026-03-22T09:00:28.973Z</time></trkpt><trkpt lat="43.9684951" lon="12.5945384"><ele>37.0</ele><time>2026-03-22T09:00:29.973Z</time></trkpt><trkpt lat="43.9684262" lon="12.5944655"><ele>37.0</ele><time>2026-03-22T09:00:30.974Z</time></trkpt><trkpt lat="43.9683434" lon="12.5943723"><ele>37.0</ele><time>2026-03-22T09:00:31.974Z</time></trkpt><trkpt lat="43.9682503" lon="12.5942664"><ele>37.0</ele><time>2026-03-22T09:00:32.974Z</time></trkpt><trkpt lat="43.9681507" lon="12.5941509"><ele>37.25</ele><time>2026-03-22T09:00:33.974Z</time></trkpt><trkpt lat="43.9680542" lon="12.5940283"><ele>37.5</ele><time>2026-03-22T09:00:34.973Z</time></trkpt><trkpt lat="43.9679498" lon="12.5938974"><ele>37.75</ele><time>2026-03-22T09:00:35.973Z</time></trkpt><trkpt lat="43.9678401" lon="12.5937534"><ele>38.0</ele><time>2026-03-22T09:00:36.974Z</time></trkpt><trkpt lat="43.9677266" lon="12.5935964"><ele>38.0</ele><time>2026-03-22T09:00:37.973Z</time></trkpt><trkpt lat="43.9676102" lon="12.5934269"><ele>38.0</ele><time>2026-03-22T09:00:38.974Z</time></trkpt><trkpt lat="43.9674927" lon="12.5932551"><ele>38.0</ele><time>2026-03-22T09:00:39.973Z</time></trkpt><trkpt lat="43.9673714" lon="12.5930786"><ele>38.33333333333333</ele><time>2026-03-22T09:00:40.974Z</time></trkpt><trkpt lat="43.9672476" lon="12.5928981"><ele>38.666666666666664</ele><time>2026-03-22T09:00:41.973Z</time></trkpt><trkpt lat="43.9671186" lon="12.5927103"><ele>39.0</ele><time>2026-03-22T09:00:42.974Z</time></trkpt><trkpt lat="43.9669908" lon="12.5925287"><ele>39.0</ele><time>2026-03-22T09:00:43.973Z</time></trkpt><trkpt lat="43.9668774" lon="12.5923667"><ele>39.0</ele><time>2026-03-22T09:00:44.974Z</time></trkpt><trkpt lat="43.9667775" lon="12.5922077"><ele>39.0</ele><time>2026-03-22T09:00:45.974Z</time></trkpt><trkpt lat="43.9666956" lon="12.592043"><ele>41.0</ele><time>2026-03-22T09:00:46.974Z</time></trkpt><trkpt lat="43.9666273" lon="12.5918555"><ele>43.0</ele><time>2026-03-22T09:00:47.974Z</time></trkpt><trkpt lat="43.9665672" lon="12.5916551"><ele>45.0</ele><time>2026-03-22T09:00:48.972Z</time></trkpt><trkpt lat="43.966514" lon="12.5914624"><ele>45.0</ele><time>2026-03-22T09:00:49.974Z</time></trkpt><trkpt lat="43.9664654" lon="12.5912915"><ele>45.0</ele><time>2026-03-22T09:00:50.973Z</time></trkpt><trkpt lat="43.9664122" lon="12.591135"><ele>45.0</ele><time>2026-03-22T09:00:51.974Z</time></trkpt><trkpt lat="43.9663408" lon="12.5910031"><ele>45.0</ele><time>2026-03-22T09:00:52.972Z</time></trkpt><trkpt lat="43.9662459" lon="12.5908896"><ele>44.666666666666664</ele><time>2026-03-22T09:00:53.974Z</time></trkpt><trkpt lat="43.9661231" lon="12.5907915"><ele>44.33333333333333</ele><time>2026-03-22T09:00:54.974Z</time></trkpt><trkpt lat="43.9659842" lon="12.590703"><ele>44.0</ele><time>2026-03-22T09:00:55.973Z</time></trkpt><trkpt lat="43.9658375" lon="12.5906196"><ele>49.0</ele><time>2026-03-22T09:00:56.974Z</time></trkpt><trkpt lat="43.9656847" lon="12.5905414"><ele>54.0</ele><time>2026-03-22T09:00:57.973Z</time></trkpt><trkpt lat="43.9655378" lon="12.5904703"><ele>59.0</ele><time>2026-03-22T09:00:58.974Z</time></trkpt><trkpt lat="43.965406" lon="12.5904074"><ele>59.5</ele><time>2026-03-22T09:00:59.974Z</time></trkpt><trkpt lat="43.9652911" lon="12.5903355"><ele>60.0</ele><time>2026-03-22T09:01:00.974Z</time></trkpt><trkpt lat="43.9651836" lon="12.5902396"><ele>60.5</ele><time>2026-03-22T09:01:01.973Z</time></trkpt><trkpt lat="43.965075" lon="12.5901124"><ele>61.0</ele><time>2026-03-22T09:01:02.973Z</time></trkpt><trkpt lat="43.9649607" lon="12.5899744"><ele>64.0</ele><time>2026-03-22T09:01:03.973Z</time></trkpt><trkpt lat="43.9648434" lon="12.5898282"><ele>67.0</ele><time>2026-03-22T09:01:04.973Z</time></trkpt><trkpt lat="43.9647237" lon="12.5896748"><ele>70.0</ele><time>2026-03-22T09:01:05.972Z</time></trkpt><trkpt lat="43.9645987" lon="12.5895212"><ele>70.0</ele><time>2026-03-22T09:01:06.974Z</time></trkpt><trkpt lat="43.9644726" lon="12.5893708"><ele>70.0</ele><time>2026-03-22T09:01:07.972Z</time></trkpt><trkpt lat="43.9643546" lon="12.5892285"><ele>70.0</ele><time>2026-03-22T09:01:08.973Z</time></trkpt><trkpt lat="43.9642429" lon="12.5890707"><ele>73.0</ele><time>2026-03-22T09:01:09.974Z</time></trkpt><trkpt lat="43.9641242" lon="12.5888688"><ele>76.0</ele><time>2026-03-22T09:01:10.974Z</time></trkpt><trkpt lat="43.9640132" lon="12.5886791"><ele>79.0</ele><time>2026-03-22T09:01:11.974Z</time></trkpt><trkpt lat="43.9639131" lon="12.5885139"><ele>79.0</ele><time>2026-03-22T09:01:12.973Z</time></trkpt><trkpt lat="43.9638143" lon="12.5883805"><ele>79.0</ele><time>2026-03-22T09:01:13.973Z</time></trkpt><trkpt lat="43.9636853" lon="12.5882643"><ele>79.0</ele><time>2026-03-22T09:01:14.973Z</time></trkpt><trkpt lat="43.9635388" lon="12.5881546"><ele>79.0</ele><time>2026-03-22T09:01:15.974Z</time></trkpt><trkpt lat="43.9633912" lon="12.5880519"><ele>79.0</ele><time>2026-03-22T09:01:16.973Z</time></trkpt><trkpt lat="43.9632446" lon="12.5879535"><ele>79.0</ele><time>2026-03-22T09:01:17.973Z</time></trkpt><trkpt lat="43.9630961" lon="12.5878544"><ele>81.33333333333333</ele><time>2026-03-22T09:01:18.974Z</time></trkpt><trkpt lat="43.9629455" lon="12.5877631"><ele>83.66666666666667</ele><time>2026-03-22T09:01:19.974Z</time></trkpt><trkpt lat="43.9627934" lon="12.5876781"><ele>86.0</ele><time>2026-03-22T09:01:20.973Z</time></trkpt><trkpt lat="43.9626416" lon="12.5875983"><ele>89.0</ele><time>2026-03-22T09:01:21.974Z</time></trkpt><trkpt lat="43.9624893" lon="12.5875194"><ele>92.0</ele><time>2026-03-22T09:01:22.972Z</time></trkpt><trkpt lat="43.9623402" lon="12.5874457"><ele>95.0</ele><time>2026-03-22T09:01:23.974Z</time></trkpt><trkpt lat="43.9622099" lon="12.5873829"><ele>95.0</ele><time>2026-03-22T09:01:24.974Z</time></trkpt><trkpt lat="43.9620859" lon="12.5873398"><ele>95.0</ele><time>2026-03-22T09:01:25.972Z</time></trkpt><trkpt lat="43.9619561" lon="12.5873254"><ele>95.0</ele><time>2026-03-22T09:01:26.973Z</time></trkpt><trkpt lat="43.9618094" lon="12.5873472"><ele>95.0</ele><time>2026-03-22T09:01:27.973Z</time></trkpt><trkpt lat="43.9616535" lon="12.5874067"><ele>97.66666666666667</ele><time>2026-03-22T09:01:28.973Z</time></trkpt><trkpt lat="43.9614942" lon="12.587507"><ele>100.33333333333334</ele><time>2026-03-22T09:01:29.974Z</time></trkpt><trkpt lat="43.9613557" lon="12.5876265"><ele>103.0</ele><time>2026-03-22T09:01:30.974Z</time></trkpt><trkpt lat="43.9612414" lon="12.5877396"><ele>103.0</ele><time>2026-03-22T09:01:31.974Z</time></trkpt><trkpt lat="43.9611528" lon="12.5878391"><ele>103.0</ele><time>2026-03-22T09:01:32.974Z</time></trkpt><trkpt lat="43.961066" lon="12.5879223"><ele>103.0</ele><time>2026-03-22T09:01:33.973Z</time></trkpt><trkpt lat="43.96099" lon="12.5879663"><ele>103.0</ele><time>2026-03-22T09:01:34.973Z</time></trkpt><trkpt lat="43.9609142" lon="12.5879548"><ele>103.0</ele><time>2026-03-22T09:01:35.974Z</time></trkpt><trkpt lat="43.9608269" lon="12.5878949"><ele>103.25</ele><time>2026-03-22T09:01:36.973Z</time></trkpt><trkpt lat="43.9607205" lon="12.5877971"><ele>103.5</ele><time>2026-03-22T09:01:37.973Z</time></trkpt><trkpt lat="43.9605874" lon="12.5876985"><ele>103.75</ele><time>2026-03-22T09:01:38.973Z</time></trkpt><trkpt lat="43.9604412" lon="12.5876215"><ele>104.0</ele><time>2026-03-22T09:01:39.973Z</time></trkpt><trkpt lat="43.9602888" lon="12.587568"><ele>104.0</ele><time>2026-03-22T09:01:40.973Z</time></trkpt><trkpt lat="43.96014" lon="12.5875449"><ele>104.0</ele><time>2026-03-22T09:01:41.973Z</time></trkpt><trkpt lat="43.9599842" lon="12.5875519"><ele>104.0</ele><time>2026-03-22T09:01:42.974Z</time></trkpt><trkpt lat="43.9598275" lon="12.5875789"><ele>104.5</ele><time>2026-03-22T09:01:43.974Z</time></trkpt><trkpt lat="43.9596781" lon="12.5876248"><ele>105.0</ele><time>2026-03-22T09:01:44.973Z</time></trkpt><trkpt lat="43.9595417" lon="12.5876762"><ele>105.5</ele><time>2026-03-22T09:01:45.973Z</time></trkpt><trkpt lat="43.9594161" lon="12.5877353"><ele>106.0</ele><time>2026-03-22T09:01:46.973Z</time></trkpt><trkpt lat="43.9593025" lon="12.5878094"><ele>107.5</ele><time>2026-03-22T09:01:47.974Z</time></trkpt><trkpt lat="43.9591978" lon="12.5879075"><ele>109.0</ele><time>2026-03-22T09:01:48.972Z</time></trkpt><trkpt lat="43.9591042" lon="12.5880422"><ele>110.5</ele><time>2026-03-22T09:01:49.974Z</time></trkpt><trkpt lat="43.9589981" lon="12.588198"><ele>112.0</ele><time>2026-03-22T09:01:50.973Z</time></trkpt><trkpt lat="43.9588794" lon="12.5883595"><ele>112.0</ele><time>2026-03-22T09:01:51.974Z</time></trkpt><trkpt lat="43.9587545" lon="12.5885259"><ele>112.0</ele><time>2026-03-22T09:01:52.974Z</time></trkpt><trkpt lat="43.9586221" lon="12.5886899"><ele>112.0</ele><time>2026-03-22T09:01:53.973Z</time></trkpt><trkpt lat="43.9584826" lon="12.5888459"><ele>110.33333333333334</ele><time>2026-03-22T09:01:54.973Z</time></trkpt><trkpt lat="43.9583337" lon="12.5889853"><ele>108.66666666666666</ele><time>2026-03-22T09:01:55.973Z</time></trkpt><trkpt lat="43.9581794" lon="12.5891165"><ele>107.0</ele><time>2026-03-22T09:01:56.973Z</time></trkpt><trkpt lat="43.9580204" lon="12.5892382"><ele>107.0</ele><time>2026-03-22T09:01:57.973Z</time></trkpt><trkpt lat="43.9578602" lon="12.5893609"><ele>107.0</ele><time>2026-03-22T09:01:58.974Z</time></trkpt><trkpt lat="43.9577056" lon="12.5894814"><ele>107.0</ele><time>2026-03-22T09:01:59.973Z</time></trkpt><trkpt lat="43.9575683" lon="12.589586"><ele>107.19999999999999</ele><time>2026-03-22T09:02:00.974Z</time></trkpt><trkpt lat="43.95745" lon="12.5896808"><ele>107.39999999999999</ele><time>2026-03-22T09:02:01.973Z</time></trkpt><trkpt lat="43.9573567" lon="12.5897725"><ele>107.60000000000001</ele><time>2026-03-22T09:02:02.973Z</time></trkpt><trkpt lat="43.9572852" lon="12.5898679"><ele>107.80000000000001</ele><time>2026-03-22T09:02:03.974Z</time></trkpt><trkpt lat="43.9572342" lon="12.5899824"><ele>108.0</ele><time>2026-03-22T09:02:04.974Z</time></trkpt><trkpt lat="43.9571793" lon="12.5901375"><ele>108.0</ele><time>2026-03-22T09:02:05.973Z</time></trkpt><trkpt lat="43.9571194" lon="12.5903258"><ele>108.0</ele><time>2026-03-22T09:02:06.973Z</time></trkpt><trkpt lat="43.9570523" lon="12.5905284"><ele>108.0</ele><time>2026-03-22T09:02:07.973Z</time></trkpt><trkpt lat="43.9569798" lon="12.5907419"><ele>108.66666666666666</ele><time>2026-03-22T09:02:08.972Z</time></trkpt><trkpt lat="43.9569019" lon="12.5909646"><ele>109.33333333333333</ele><time>2026-03-22T09:02:09.974Z</time></trkpt><trkpt lat="43.9568224" lon="12.5911881"><ele>110.0</ele><time>2026-03-22T09:02:10.974Z</time></trkpt><trkpt lat="43.9567456" lon="12.591402"><ele>110.25</ele><time>2026-03-22T09:02:11.974Z</time></trkpt><trkpt lat="43.9566748" lon="12.5915896"><ele>110.5</ele><time>2026-03-22T09:02:12.974Z</time></trkpt><trkpt lat="43.9566141" lon="12.5917514"><ele>110.75</ele><time>2026-03-22T09:02:13.974Z</time></trkpt><trkpt lat="43.9565645" lon="12.5918803"><ele>111.0</ele><time>2026-03-22T09:02:14.973Z</time></trkpt><trkpt lat="43.9565372" lon="12.5919927"><ele>110.8</ele><time>2026-03-22T09:02:15.973Z</time></trkpt><trkpt lat="43.9565455" lon="12.5921056"><ele>110.6</ele><time>2026-03-22T09:02:16.973Z</time></trkpt><trkpt lat="43.956587" lon="12.5922363"><ele>110.4</ele><time>2026-03-22T09:02:17.973Z</time></trkpt><trkpt lat="43.9566529" lon="12.5923756"><ele>110.2</ele><time>2026-03-22T09:02:18.974Z</time></trkpt><trkpt lat="43.9567185" lon="12.5925007"><ele>110.0</ele><time>2026-03-22T09:02:19.974Z</time></trkpt><trkpt lat="43.9567558" lon="12.5926085"><ele>110.0</ele><time>2026-03-22T09:02:20.973Z</time></trkpt><trkpt lat="43.9567662" lon="12.5927103"><ele>110.0</ele><time>2026-03-22T09:02:21.972Z</time></trkpt><trkpt lat="43.9567401" lon="12.5928016"><ele>110.0</ele><time>2026-03-22T09:02:22.973Z</time></trkpt><trkpt lat="43.9566745" lon="12.5928955"><ele>110.0</ele><time>2026-03-22T09:02:23.974Z</time></trkpt><trkpt lat="43.9565809" lon="12.5930049"><ele>110.0</ele><time>2026-03-22T09:02:24.973Z</time></trkpt><trkpt lat="43.9564742" lon="12.5931276"><ele>111.33333333333333</ele><time>2026-03-22T09:02:25.974Z</time></trkpt><trkpt lat="43.9563574" lon="12.5932569"><ele>112.66666666666666</ele><time>2026-03-22T09:02:26.972Z</time></trkpt><trkpt lat="43.956238" lon="12.5933895"><ele>114.0</ele><time>2026-03-22T09:02:27.973Z</time></trkpt><trkpt lat="43.9561206" lon="12.5935278"><ele>114.0</ele><time>2026-03-22T09:02:28.972Z</time></trkpt><trkpt lat="43.9560032" lon="12.5936557"><ele>114.0</ele><time>2026-03-22T09:02:29.974Z</time></trkpt><trkpt lat="43.9558868" lon="12.5937713"><ele>114.0</ele><time>2026-03-22T09:02:30.974Z</time></trkpt><trkpt lat="43.9557798" lon="12.5938789"><ele>114.0</ele><time>2026-03-22T09:02:31.973Z</time></trkpt><trkpt lat="43.9556765" lon="12.5939774"><ele>115.25</ele><time>2026-03-22T09:02:32.973Z</time></trkpt><trkpt lat="43.9555761" lon="12.5940764"><ele>116.5</ele><time>2026-03-22T09:02:33.973Z</time></trkpt><trkpt lat="43.9554737" lon="12.5941811"><ele>117.75</ele><time>2026-03-22T09:02:34.973Z</time></trkpt><trkpt lat="43.9553731" lon="12.5942889"><ele>119.0</ele><time>2026-03-22T09:02:35.972Z</time></trkpt><trkpt lat="43.955267" lon="12.5944016"><ele>118.5</ele><time>2026-03-22T09:02:36.974Z</time></trkpt><trkpt lat="43.9551522" lon="12.59451"><ele>118.0</ele><time>2026-03-22T09:02:37.973Z</time></trkpt><trkpt lat="43.9550355" lon="12.5946166"><ele>117.5</ele><time>2026-03-22T09:02:38.974Z</time></trkpt><trkpt lat="43.9549186" lon="12.5947244"><ele>117.0</ele><time>2026-03-22T09:02:39.972Z</time></trkpt><trkpt lat="43.9548163" lon="12.5948213"><ele>118.39999999999999</ele><time>2026-03-22T09:02:40.974Z</time></trkpt><trkpt lat="43.9547257" lon="12.594907"><ele>119.79999999999998</ele><time>2026-03-22T09:02:41.973Z</time></trkpt><trkpt lat="43.9546504" lon="12.5949846"><ele>121.2</ele><time>2026-03-22T09:02:42.974Z</time></trkpt><trkpt lat="43.9545848" lon="12.5950453"><ele>122.6</ele><time>2026-03-22T09:02:43.973Z</time></trkpt><trkpt lat="43.9545272" lon="12.5950994"><ele>124.0</ele><time>2026-03-22T09:02:44.974Z</time></trkpt><trkpt lat="43.9544267" lon="12.5951675"><ele>124.0</ele><time>2026-03-22T09:02:46.973Z</time></trkpt><trkpt lat="43.9543542" lon="12.5952432"><ele>124.0</ele><time>2026-03-22T09:02:49.974Z</time></trkpt><trkpt lat="43.9543387" lon="12.5954331"><ele>124.0</ele><time>2026-03-22T09:02:51.974Z</time></trkpt><trkpt lat="43.954336" lon="12.5955754"><ele>124.0</ele><time>2026-03-22T09:02:52.974Z</time></trkpt><trkpt lat="43.9543312" lon="12.5957373"><ele>124.0</ele><time>2026-03-22T09:02:53.973Z</time></trkpt><trkpt lat="43.9543248" lon="12.5958974"><ele>124.2</ele><time>2026-03-22T09:02:54.974Z</time></trkpt><trkpt lat="43.9543128" lon="12.5960318"><ele>124.4</ele><time>2026-03-22T09:02:55.973Z</time></trkpt><trkpt lat="43.9542915" lon="12.5961447"><ele>124.6</ele><time>2026-03-22T09:02:56.973Z</time></trkpt><trkpt lat="43.9542688" lon="12.5962415"><ele>124.8</ele><time>2026-03-22T09:02:57.974Z</time></trkpt><trkpt lat="43.9542308" lon="12.5963937"><ele>125.0</ele><time>2026-03-22T09:02:59.973Z</time></trkpt><trkpt lat="43.9541543" lon="12.596469"><ele>123.75</ele><time>2026-03-22T09:03:02.973Z</time></trkpt><trkpt lat="43.9540305" lon="12.5964162"><ele>122.5</ele><time>2026-03-22T09:03:04.974Z</time></trkpt><trkpt lat="43.9539378" lon="12.5963629"><ele>121.25</ele><time>2026-03-22T09:03:05.973Z</time></trkpt><trkpt lat="43.9538267" lon="12.5963201"><ele>120.0</ele><time>2026-03-22T09:03:06.973Z</time></trkpt><trkpt lat="43.9537009" lon="12.5962954"><ele>120.0</ele><time>2026-03-22T09:03:07.972Z</time></trkpt><trkpt lat="43.953563" lon="12.5963039"><ele>120.0</ele><time>2026-03-22T09:03:08.973Z</time></trkpt><trkpt lat="43.9534224" lon="12.5963348"><ele>120.0</ele><time>2026-03-22T09:03:09.973Z</time></trkpt><trkpt lat="43.953288" lon="12.5963819"><ele>120.0</ele><time>2026-03-22T09:03:10.974Z</time></trkpt><trkpt lat="43.9531625" lon="12.5964208"><ele>121.0</ele><time>2026-03-22T09:03:11.974Z</time></trkpt><trkpt lat="43.9530445" lon="12.5964282"><ele>122.0</ele><time>2026-03-22T09:03:12.974Z</time></trkpt><trkpt lat="43.952921" lon="12.5964065"><ele>123.0</ele><time>2026-03-22T09:03:13.973Z</time></trkpt><trkpt lat="43.9528062" lon="12.5963271"><ele>124.0</ele><time>2026-03-22T09:03:14.972Z</time></trkpt><trkpt lat="43.9527067" lon="12.5961963"><ele>126.0</ele><time>2026-03-22T09:03:15.973Z</time></trkpt><trkpt lat="43.9526011" lon="12.5960496"><ele>128.0</ele><time>2026-03-22T09:03:16.974Z</time></trkpt><trkpt lat="43.9524885" lon="12.5958981"><ele>130.0</ele><time>2026-03-22T09:03:17.974Z</time></trkpt><trkpt lat="43.9523702" lon="12.5957348"><ele>130.0</ele><time>2026-03-22T09:03:18.973Z</time></trkpt><trkpt lat="43.952245" lon="12.5955672"><ele>130.0</ele><time>2026-03-22T09:03:19.973Z</time></trkpt><trkpt lat="43.9521163" lon="12.5954007"><ele>130.0</ele><time>2026-03-22T09:03:20.973Z</time></trkpt><trkpt lat="43.9519819" lon="12.5952462"><ele>129.33333333333334</ele><time>2026-03-22T09:03:21.972Z</time></trkpt><trkpt lat="43.9518369" lon="12.5951084"><ele>128.66666666666666</ele><time>2026-03-22T09:03:22.974Z</time></trkpt><trkpt lat="43.9516835" lon="12.5949944"><ele>128.0</ele><time>2026-03-22T09:03:23.972Z</time></trkpt><trkpt lat="43.9515298" lon="12.5949038"><ele>128.0</ele><time>2026-03-22T09:03:24.974Z</time></trkpt><trkpt lat="43.9513779" lon="12.59483"><ele>128.0</ele><time>2026-03-22T09:03:25.973Z</time></trkpt><trkpt lat="43.9512277" lon="12.5947838"><ele>128.0</ele><time>2026-03-22T09:03:26.974Z</time></trkpt><trkpt lat="43.9510836" lon="12.5947625"><ele>128.0</ele><time>2026-03-22T09:03:27.973Z</time></trkpt><trkpt lat="43.9509394" lon="12.5947599"><ele>128.0</ele><time>2026-03-22T09:03:28.973Z</time></trkpt><trkpt lat="43.9507927" lon="12.5947701"><ele>128.0</ele><time>2026-03-22T09:03:29.973Z</time></trkpt><trkpt lat="43.9506428" lon="12.5947911"><ele>128.0</ele><time>2026-03-22T09:03:30.974Z</time></trkpt><trkpt lat="43.9504898" lon="12.5948159"><ele>129.0</ele><time>2026-03-22T09:03:31.974Z</time></trkpt><trkpt lat="43.9503333" lon="12.5948407"><ele>130.0</ele><time>2026-03-22T09:03:32.974Z</time></trkpt><trkpt lat="43.9501743" lon="12.5948655"><ele>131.0</ele><time>2026-03-22T09:03:33.973Z</time></trkpt><trkpt lat="43.9500121" lon="12.5948947"><ele>131.0</ele><time>2026-03-22T09:03:34.974Z</time></trkpt><trkpt lat="43.9498582" lon="12.5949245"><ele>131.0</ele><time>2026-03-22T09:03:35.973Z</time></trkpt><trkpt lat="43.9497145" lon="12.5949517"><ele>131.0</ele><time>2026-03-22T09:03:36.972Z</time></trkpt><trkpt lat="43.9495767" lon="12.5949744"><ele>131.0</ele><time>2026-03-22T09:03:37.974Z</time></trkpt><trkpt lat="43.9494465" lon="12.5949953"><ele>131.0</ele><time>2026-03-22T09:03:38.974Z</time></trkpt><trkpt lat="43.9493215" lon="12.5950141"><ele>131.0</ele><time>2026-03-22T09:03:39.974Z</time></trkpt><trkpt lat="43.9491975" lon="12.5950299"><ele>131.0</ele><time>2026-03-22T09:03:40.973Z</time></trkpt><trkpt lat="43.9490652" lon="12.595043"><ele>131.0</ele><time>2026-03-22T09:03:41.973Z</time></trkpt><trkpt lat="43.948927" lon="12.5950593"><ele>130.75</ele><time>2026-03-22T09:03:42.973Z</time></trkpt><trkpt lat="43.9487806" lon="12.5950753"><ele>130.5</ele><time>2026-03-22T09:03:43.973Z</time></trkpt><trkpt lat="43.9486342" lon="12.5950877"><ele>130.25</ele><time>2026-03-22T09:03:44.974Z</time></trkpt><trkpt lat="43.9484953" lon="12.5951041"><ele>130.0</ele><time>2026-03-22T09:03:45.972Z</time></trkpt><trkpt lat="43.9483584" lon="12.5951212"><ele>129.5</ele><time>2026-03-22T09:03:46.974Z</time></trkpt><trkpt lat="43.9482289" lon="12.5951334"><ele>129.0</ele><time>2026-03-22T09:03:47.974Z</time></trkpt><trkpt lat="43.9481052" lon="12.5951457"><ele>128.5</ele><time>2026-03-22T09:03:48.973Z</time></trkpt><trkpt lat="43.9479927" lon="12.5951561"><ele>128.0</ele><time>2026-03-22T09:03:49.974Z</time></trkpt><trkpt lat="43.9478829" lon="12.5951615"><ele>128.0</ele><time>2026-03-22T09:03:50.974Z</time></trkpt><trkpt lat="43.9477695" lon="12.5951633"><ele>128.0</ele><time>2026-03-22T09:03:51.973Z</time></trkpt><trkpt lat="43.9476538" lon="12.595159"><ele>128.0</ele><time>2026-03-22T09:03:52.974Z</time></trkpt><trkpt lat="43.947535" lon="12.5951483"><ele>128.0</ele><time>2026-03-22T09:03:53.974Z</time></trkpt><trkpt lat="43.9474116" lon="12.5951307"><ele>128.5</ele><time>2026-03-22T09:03:54.973Z</time></trkpt><trkpt lat="43.9472839" lon="12.5951165"><ele>129.0</ele><time>2026-03-22T09:03:55.974Z</time></trkpt><trkpt lat="43.9471538" lon="12.5951045"><ele>129.5</ele><time>2026-03-22T09:03:56.973Z</time></trkpt><trkpt lat="43.9470082" lon="12.5950998"><ele>130.0</ele><time>2026-03-22T09:03:57.973Z</time></trkpt><trkpt lat="43.9468476" lon="12.5950975"><ele>129.33333333333334</ele><time>2026-03-22T09:03:58.973Z</time></trkpt><trkpt lat="43.9466801" lon="12.5950909"><ele>128.66666666666666</ele><time>2026-03-22T09:03:59.972Z</time></trkpt><trkpt lat="43.9465105" lon="12.5950912"><ele>128.0</ele><time>2026-03-22T09:04:00.973Z</time></trkpt><trkpt lat="43.9463507" lon="12.5950985"><ele>128.0</ele><time>2026-03-22T09:04:01.973Z</time></trkpt><trkpt lat="43.9462035" lon="12.5951081"><ele>128.0</ele><time>2026-03-22T09:04:02.974Z</time></trkpt><trkpt lat="43.9460579" lon="12.5951184"><ele>128.0</ele><time>2026-03-22T09:04:03.974Z</time></trkpt><trkpt lat="43.9459125" lon="12.595125"><ele>128.0</ele><time>2026-03-22T09:04:04.974Z</time></trkpt><trkpt lat="43.9457685" lon="12.5951285"><ele>127.5</ele><time>2026-03-22T09:04:05.974Z</time></trkpt><trkpt lat="43.9456313" lon="12.5951334"><ele>127.0</ele><time>2026-03-22T09:04:06.974Z</time></trkpt><trkpt lat="43.9454957" lon="12.5951432"><ele>126.5</ele><time>2026-03-22T09:04:07.974Z</time></trkpt><trkpt lat="43.9453576" lon="12.5951645"><ele>126.0</ele><time>2026-03-22T09:04:08.973Z</time></trkpt><trkpt lat="43.9452198" lon="12.5952052"><ele>126.0</ele><time>2026-03-22T09:04:09.973Z</time></trkpt><trkpt lat="43.9450827" lon="12.5952814"><ele>126.0</ele><time>2026-03-22T09:04:10.974Z</time></trkpt><trkpt lat="43.9449291" lon="12.5953961"><ele>126.0</ele><time>2026-03-22T09:04:11.974Z</time></trkpt><trkpt lat="43.9447505" lon="12.5955292"><ele>125.66666666666666</ele><time>2026-03-22T09:04:12.973Z</time></trkpt><trkpt lat="43.9445646" lon="12.5956543"><ele>125.33333333333333</ele><time>2026-03-22T09:04:13.974Z</time></trkpt><trkpt lat="43.9443896" lon="12.5957695"><ele>125.0</ele><time>2026-03-22T09:04:14.974Z</time></trkpt><trkpt lat="43.9442258" lon="12.5958752"><ele>127.33333333333333</ele><time>2026-03-22T09:04:15.973Z</time></trkpt><trkpt lat="43.9440774" lon="12.595979"><ele>129.66666666666666</ele><time>2026-03-22T09:04:16.974Z</time></trkpt><trkpt lat="43.9439405" lon="12.5960717"><ele>132.0</ele><time>2026-03-22T09:04:17.973Z</time></trkpt><trkpt lat="43.9438081" lon="12.596149"><ele>131.0</ele><time>2026-03-22T09:04:18.974Z</time></trkpt><trkpt lat="43.9436788" lon="12.5962045"><ele>130.0</ele><time>2026-03-22T09:04:19.973Z</time></trkpt><trkpt lat="43.9435377" lon="12.5962305"><ele>129.0</ele><time>2026-03-22T09:04:20.974Z</time></trkpt><trkpt lat="43.9433903" lon="12.5962213"><ele>128.0</ele><time>2026-03-22T09:04:21.972Z</time></trkpt><trkpt lat="43.9432553" lon="12.5961916"><ele>130.5</ele><time>2026-03-22T09:04:22.973Z</time></trkpt><trkpt lat="43.9431297" lon="12.5961577"><ele>133.0</ele><time>2026-03-22T09:04:23.973Z</time></trkpt><trkpt lat="43.9429996" lon="12.5961153"><ele>135.5</ele><time>2026-03-22T09:04:24.974Z</time></trkpt><trkpt lat="43.9428716" lon="12.5960762"><ele>138.0</ele><time>2026-03-22T09:04:25.973Z</time></trkpt><trkpt lat="43.9427558" lon="12.5960425"><ele>138.0</ele><time>2026-03-22T09:04:26.974Z</time></trkpt><trkpt lat="43.9426454" lon="12.5960074"><ele>138.0</ele><time>2026-03-22T09:04:27.973Z</time></trkpt><trkpt lat="43.9425309" lon="12.5959716"><ele>138.0</ele><time>2026-03-22T09:04:28.974Z</time></trkpt><trkpt lat="43.9424157" lon="12.5959382"><ele>138.0</ele><time>2026-03-22T09:04:29.974Z</time></trkpt><trkpt lat="43.9423028" lon="12.5959035"><ele>137.4</ele><time>2026-03-22T09:04:30.973Z</time></trkpt><trkpt lat="43.942197" lon="12.5958705"><ele>136.8</ele><time>2026-03-22T09:04:31.974Z</time></trkpt><trkpt lat="43.942092" lon="12.5958358"><ele>136.2</ele><time>2026-03-22T09:04:32.973Z</time></trkpt><trkpt lat="43.9419868" lon="12.5958046"><ele>135.6</ele><time>2026-03-22T09:04:33.974Z</time></trkpt><trkpt lat="43.9418798" lon="12.5957766"><ele>135.0</ele><time>2026-03-22T09:04:34.974Z</time></trkpt><trkpt lat="43.9417722" lon="12.5957466"><ele>135.4</ele><time>2026-03-22T09:04:35.973Z</time></trkpt><trkpt lat="43.9416662" lon="12.5957181"><ele>135.8</ele><time>2026-03-22T09:04:36.974Z</time></trkpt><trkpt lat="43.9415583" lon="12.5956892"><ele>136.2</ele><time>2026-03-22T09:04:37.974Z</time></trkpt><trkpt lat="43.9414461" lon="12.5956565"><ele>136.6</ele><time>2026-03-22T09:04:38.973Z</time></trkpt><trkpt lat="43.9413322" lon="12.5956205"><ele>137.0</ele><time>2026-03-22T09:04:39.974Z</time></trkpt><trkpt lat="43.941223" lon="12.5955896"><ele>137.0</ele><time>2026-03-22T09:04:40.974Z</time></trkpt><trkpt lat="43.9411181" lon="12.5955638"><ele>137.0</ele><time>2026-03-22T09:04:41.973Z</time></trkpt><trkpt lat="43.9410135" lon="12.5955432"><ele>137.0</ele><time>2026-03-22T09:04:42.974Z</time></trkpt><trkpt lat="43.9409168" lon="12.5955255"><ele>137.0</ele><time>2026-03-22T09:04:43.973Z</time></trkpt><trkpt lat="43.9408325" lon="12.5955093"><ele>137.0</ele><time>2026-03-22T09:04:44.974Z</time></trkpt><trkpt lat="43.9407562" lon="12.595492"><ele>136.6</ele><time>2026-03-22T09:04:45.974Z</time></trkpt><trkpt lat="43.9406727" lon="12.5954733"><ele>136.2</ele><time>2026-03-22T09:04:46.973Z</time></trkpt><trkpt lat="43.9405709" lon="12.5954546"><ele>135.8</ele><time>2026-03-22T09:04:47.974Z</time></trkpt><trkpt lat="43.9404564" lon="12.5954321"><ele>135.4</ele><time>2026-03-22T09:04:48.973Z</time></trkpt><trkpt lat="43.9403323" lon="12.5954099"><ele>135.0</ele><time>2026-03-22T09:04:49.974Z</time></trkpt><trkpt lat="43.9402057" lon="12.5953855"><ele>135.0</ele><time>2026-03-22T09:04:50.974Z</time></trkpt><trkpt lat="43.9400766" lon="12.5953606"><ele>135.0</ele><time>2026-03-22T09:04:51.973Z</time></trkpt><trkpt lat="43.9399531" lon="12.5953378"><ele>135.0</ele><time>2026-03-22T09:04:52.974Z</time></trkpt><trkpt lat="43.939833" lon="12.5953211"><ele>135.0</ele><time>2026-03-22T09:04:53.973Z</time></trkpt><trkpt lat="43.9397113" lon="12.5953133"><ele>135.25</ele><time>2026-03-22T09:04:54.973Z</time></trkpt><trkpt lat="43.9395832" lon="12.5953273"><ele>135.5</ele><time>2026-03-22T09:04:55.974Z</time></trkpt><trkpt lat="43.9394534" lon="12.5953457"><ele>135.75</ele><time>2026-03-22T09:04:56.973Z</time></trkpt><trkpt lat="43.9393189" lon="12.595366"><ele>136.0</ele><time>2026-03-22T09:04:57.974Z</time></trkpt><trkpt lat="43.939182" lon="12.5953785"><ele>136.25</ele><time>2026-03-22T09:04:58.973Z</time></trkpt><trkpt lat="43.9390505" lon="12.5953778"><ele>136.5</ele><time>2026-03-22T09:04:59.972Z</time></trkpt><trkpt lat="43.9389246" lon="12.5953577"><ele>136.75</ele><time>2026-03-22T09:05:00.974Z</time></trkpt><trkpt lat="43.9388058" lon="12.5953286"><ele>137.0</ele><time>2026-03-22T09:05:01.974Z</time></trkpt><trkpt lat="43.9386914" lon="12.5952841"><ele>137.4</ele><time>2026-03-22T09:05:02.974Z</time></trkpt><trkpt lat="43.9385851" lon="12.5952332"><ele>137.79999999999998</ele><time>2026-03-22T09:05:03.974Z</time></trkpt><trkpt lat="43.9384845" lon="12.5951786"><ele>138.2</ele><time>2026-03-22T09:05:04.974Z</time></trkpt><trkpt lat="43.9383784" lon="12.5951314"><ele>138.6</ele><time>2026-03-22T09:05:05.973Z</time></trkpt><trkpt lat="43.9382716" lon="12.5951141"><ele>139.0</ele><time>2026-03-22T09:05:06.974Z</time></trkpt><trkpt lat="43.9381724" lon="12.5951047"><ele>139.0</ele><time>2026-03-22T09:05:07.974Z</time></trkpt><trkpt lat="43.9380727" lon="12.5950993"><ele>139.0</ele><time>2026-03-22T09:05:08.974Z</time></trkpt><trkpt lat="43.9379767" lon="12.5950948"><ele>139.0</ele><time>2026-03-22T09:05:09.973Z</time></trkpt><trkpt lat="43.9378844" lon="12.5950843"><ele>139.0</ele><time>2026-03-22T09:05:10.974Z</time></trkpt><trkpt lat="43.9377972" lon="12.5950675"><ele>139.0</ele><time>2026-03-22T09:05:11.974Z</time></trkpt><trkpt lat="43.937719" lon="12.5950443"><ele>139.0</ele><time>2026-03-22T09:05:12.974Z</time></trkpt><trkpt lat="43.9376425" lon="12.595022"><ele>139.0</ele><time>2026-03-22T09:05:13.973Z</time></trkpt><trkpt lat="43.9375807" lon="12.594997"><ele>139.0</ele><time>2026-03-22T09:05:14.974Z</time></trkpt><trkpt lat="43.9374864" lon="12.595024"><ele>139.0</ele><time>2026-03-22T09:05:16.974Z</time></trkpt><trkpt lat="43.9373877" lon="12.5950365"><ele>139.0</ele><time>2026-03-22T09:05:18.974Z</time></trkpt><trkpt lat="43.9373166" lon="12.5950257"><ele>139.0</ele><time>2026-03-22T09:05:19.974Z</time></trkpt><trkpt lat="43.9372317" lon="12.5950156"><ele>139.16666666666669</ele><time>2026-03-22T09:05:20.973Z</time></trkpt><trkpt lat="43.9371481" lon="12.5950115"><ele>139.33333333333334</ele><time>2026-03-22T09:05:21.973Z</time></trkpt><trkpt lat="43.9370608" lon="12.5950156"><ele>139.5</ele><time>2026-03-22T09:05:22.973Z</time></trkpt><trkpt lat="43.9369693" lon="12.5950144"><ele>139.66666666666666</ele><time>2026-03-22T09:05:23.973Z</time></trkpt><trkpt lat="43.9368771" lon="12.5950162"><ele>139.83333333333331</ele><time>2026-03-22T09:05:24.974Z</time></trkpt><trkpt lat="43.9367854" lon="12.5950179"><ele>140.0</ele><time>2026-03-22T09:05:25.973Z</time></trkpt><trkpt lat="43.9366908" lon="12.5950236"><ele>141.0</ele><time>2026-03-22T09:05:26.973Z</time></trkpt><trkpt lat="43.9365952" lon="12.5950258"><ele>142.0</ele><time>2026-03-22T09:05:27.974Z</time></trkpt><trkpt lat="43.9365052" lon="12.5950303"><ele>143.0</ele><time>2026-03-22T09:05:28.973Z</time></trkpt><trkpt lat="43.9364158" lon="12.5950394"><ele>144.0</ele><time>2026-03-22T09:05:29.974Z</time></trkpt><trkpt lat="43.9363297" lon="12.5950418"><ele>145.0</ele><time>2026-03-22T09:05:30.974Z</time></trkpt><trkpt lat="43.9362467" lon="12.5950321"><ele>146.0</ele><time>2026-03-22T09:05:31.974Z</time></trkpt><trkpt lat="43.9361777" lon="12.5950292"><ele>146.0</ele><time>2026-03-22T09:05:32.973Z</time></trkpt><trkpt lat="43.9361141" lon="12.5950305"><ele>146.0</ele><time>2026-03-22T09:05:33.974Z</time></trkpt><trkpt lat="43.9360332" lon="12.5950995"><ele>146.0</ele><time>2026-03-22T09:05:35.973Z</time></trkpt><trkpt lat="43.936029" lon="12.5952656"><ele>146.0</ele><time>2026-03-22T09:05:37.973Z</time></trkpt><trkpt lat="43.9360345" lon="12.5953856"><ele>146.0</ele><time>2026-03-22T09:05:38.973Z</time></trkpt><trkpt lat="43.9360431" lon="12.5954975"><ele>146.0</ele><time>2026-03-22T09:05:39.973Z</time></trkpt><trkpt lat="43.9360575" lon="12.5956175"><ele>145.83333333333331</ele><time>2026-03-22T09:05:40.974Z</time></trkpt><trkpt lat="43.9360689" lon="12.5957415"><ele>145.66666666666666</ele><time>2026-03-22T09:05:41.973Z</time></trkpt><trkpt lat="43.9360789" lon="12.5958589"><ele>145.5</ele><time>2026-03-22T09:05:42.974Z</time></trkpt><trkpt lat="43.9360882" lon="12.5959735"><ele>145.33333333333334</ele><time>2026-03-22T09:05:43.974Z</time></trkpt><trkpt lat="43.9360979" lon="12.5960858"><ele>145.16666666666669</ele><time>2026-03-22T09:05:44.973Z</time></trkpt><trkpt lat="43.9361082" lon="12.5962106"><ele>145.0</ele><time>2026-03-22T09:05:45.972Z</time></trkpt><trkpt lat="43.9361196" lon="12.5963476"><ele>144.0</ele><time>2026-03-22T09:05:46.973Z</time></trkpt><trkpt lat="43.9361322" lon="12.5964952"><ele>143.0</ele><time>2026-03-22T09:05:47.973Z</time></trkpt><trkpt lat="43.9361437" lon="12.5966538"><ele>142.0</ele><time>2026-03-22T09:05:48.973Z</time></trkpt><trkpt lat="43.9361535" lon="12.5968076"><ele>141.0</ele><time>2026-03-22T09:05:49.974Z</time></trkpt><trkpt lat="43.9361646" lon="12.5969594"><ele>140.0</ele><time>2026-03-22T09:05:50.974Z</time></trkpt><trkpt lat="43.9361745" lon="12.5971091"><ele>139.0</ele><time>2026-03-22T09:05:51.974Z</time></trkpt><trkpt lat="43.9361844" lon="12.5972571"><ele>138.0</ele><time>2026-03-22T09:05:52.974Z</time></trkpt><trkpt lat="43.936192" lon="12.5974107"><ele>137.0</ele><time>2026-03-22T09:05:53.974Z</time></trkpt><trkpt lat="43.9361988" lon="12.5975622"><ele>136.0</ele><time>2026-03-22T09:05:54.973Z</time></trkpt><trkpt lat="43.9362088" lon="12.5977177"><ele>135.0</ele><time>2026-03-22T09:05:55.973Z</time></trkpt><trkpt lat="43.9362181" lon="12.5978953"><ele>133.0</ele><time>2026-03-22T09:05:56.974Z</time></trkpt><trkpt lat="43.9362272" lon="12.5980875"><ele>131.0</ele><time>2026-03-22T09:05:57.974Z</time></trkpt><trkpt lat="43.9362383" lon="12.598292"><ele>129.0</ele><time>2026-03-22T09:05:58.974Z</time></trkpt><trkpt lat="43.9362488" lon="12.598509"><ele>127.0</ele><time>2026-03-22T09:05:59.972Z</time></trkpt><trkpt lat="43.9362636" lon="12.5987321"><ele>125.33333333333334</ele><time>2026-03-22T09:06:00.974Z</time></trkpt><trkpt lat="43.9362803" lon="12.5989599"><ele>123.66666666666666</ele><time>2026-03-22T09:06:01.974Z</time></trkpt><trkpt lat="43.9363005" lon="12.5991885"><ele>122.0</ele><time>2026-03-22T09:06:02.973Z</time></trkpt><trkpt lat="43.9363259" lon="12.5994073"><ele>120.5</ele><time>2026-03-22T09:06:03.973Z</time></trkpt><trkpt lat="43.9363584" lon="12.599618"><ele>119.0</ele><time>2026-03-22T09:06:04.973Z</time></trkpt><trkpt lat="43.9364014" lon="12.5998065"><ele>117.5</ele><time>2026-03-22T09:06:05.974Z</time></trkpt><trkpt lat="43.9364499" lon="12.5999843"><ele>116.0</ele><time>2026-03-22T09:06:06.973Z</time></trkpt><trkpt lat="43.9364958" lon="12.6001461"><ele>116.0</ele><time>2026-03-22T09:06:07.973Z</time></trkpt><trkpt lat="43.9365425" lon="12.6003048"><ele>116.0</ele><time>2026-03-22T09:06:08.974Z</time></trkpt><trkpt lat="43.9365748" lon="12.6004696"><ele>116.0</ele><time>2026-03-22T09:06:09.974Z</time></trkpt><trkpt lat="43.9366022" lon="12.6006586"><ele>116.0</ele><time>2026-03-22T09:06:10.973Z</time></trkpt><trkpt lat="43.9366306" lon="12.6008674"><ele>113.33333333333333</ele><time>2026-03-22T09:06:11.973Z</time></trkpt><trkpt lat="43.9366579" lon="12.6010883"><ele>110.66666666666666</ele><time>2026-03-22T09:06:12.974Z</time></trkpt><trkpt lat="43.9366858" lon="12.6013186"><ele>108.0</ele><time>2026-03-22T09:06:13.974Z</time></trkpt><trkpt lat="43.9367155" lon="12.6015575"><ele>105.66666666666666</ele><time>2026-03-22T09:06:14.974Z</time></trkpt><trkpt lat="43.9367456" lon="12.601792"><ele>103.33333333333333</ele><time>2026-03-22T09:06:15.974Z</time></trkpt><trkpt lat="43.9367743" lon="12.602019"><ele>101.0</ele><time>2026-03-22T09:06:16.973Z</time></trkpt><trkpt lat="43.9368001" lon="12.6022331"><ele>99.5</ele><time>2026-03-22T09:06:17.974Z</time></trkpt><trkpt lat="43.936827" lon="12.6024419"><ele>98.0</ele><time>2026-03-22T09:06:18.972Z</time></trkpt><trkpt lat="43.936852" lon="12.6026409"><ele>96.5</ele><time>2026-03-22T09:06:19.973Z</time></trkpt><trkpt lat="43.9368699" lon="12.602816"><ele>95.0</ele><time>2026-03-22T09:06:20.973Z</time></trkpt><trkpt lat="43.9368845" lon="12.6029748"><ele>94.0</ele><time>2026-03-22T09:06:21.973Z</time></trkpt><trkpt lat="43.9368999" lon="12.6031136"><ele>93.0</ele><time>2026-03-22T09:06:22.973Z</time></trkpt><trkpt lat="43.9369135" lon="12.6032432"><ele>92.0</ele><time>2026-03-22T09:06:23.973Z</time></trkpt><trkpt lat="43.9369219" lon="12.6033447"><ele>91.0</ele><time>2026-03-22T09:06:24.973Z</time></trkpt><trkpt lat="43.9369534" lon="12.6034746"><ele>90.0</ele><time>2026-03-22T09:06:26.974Z</time></trkpt><trkpt lat="43.9370137" lon="12.6035202"><ele>89.0</ele><time>2026-03-22T09:06:28.974Z</time></trkpt><trkpt lat="43.937148" lon="12.6035156"><ele>89.0</ele><time>2026-03-22T09:06:30.973Z</time></trkpt><trkpt lat="43.9372329" lon="12.6034853"><ele>89.0</ele><time>2026-03-22T09:06:31.973Z</time></trkpt><trkpt lat="43.9373286" lon="12.6034426"><ele>89.0</ele><time>2026-03-22T09:06:32.973Z</time></trkpt><trkpt lat="43.9374309" lon="12.6033958"><ele>89.0</ele><time>2026-03-22T09:06:33.974Z</time></trkpt><trkpt lat="43.9375415" lon="12.6033481"><ele>89.0</ele><time>2026-03-22T09:06:34.974Z</time></trkpt><trkpt lat="43.937655" lon="12.6033067"><ele>88.16666666666667</ele><time>2026-03-22T09:06:35.973Z</time></trkpt><trkpt lat="43.937766" lon="12.6032786"><ele>87.33333333333334</ele><time>2026-03-22T09:06:36.973Z</time></trkpt><trkpt lat="43.937856" lon="12.6032771"><ele>86.5</ele><time>2026-03-22T09:06:37.973Z</time></trkpt><trkpt lat="43.9379384" lon="12.6033002"><ele>85.66666666666667</ele><time>2026-03-22T09:06:38.973Z</time></trkpt><trkpt lat="43.9380064" lon="12.6033562"><ele>84.83333333333333</ele><time>2026-03-22T09:06:39.973Z</time></trkpt><trkpt lat="43.9380607" lon="12.6034366"><ele>84.0</ele><time>2026-03-22T09:06:40.973Z</time></trkpt><trkpt lat="43.9381248" lon="12.6035585"><ele>82.25</ele><time>2026-03-22T09:06:41.973Z</time></trkpt><trkpt lat="43.9381956" lon="12.6036925"><ele>80.5</ele><time>2026-03-22T09:06:42.973Z</time></trkpt><trkpt lat="43.938271" lon="12.6038215"><ele>78.75</ele><time>2026-03-22T09:06:43.973Z</time></trkpt><trkpt lat="43.9383448" lon="12.603949"><ele>77.0</ele><time>2026-03-22T09:06:44.974Z</time></trkpt><trkpt lat="43.9384176" lon="12.6040816"><ele>76.0</ele><time>2026-03-22T09:06:45.974Z</time></trkpt><trkpt lat="43.93849" lon="12.6042244"><ele>75.0</ele><time>2026-03-22T09:06:46.973Z</time></trkpt><trkpt lat="43.9385579" lon="12.6043694"><ele>74.0</ele><time>2026-03-22T09:06:47.974Z</time></trkpt><trkpt lat="43.9386212" lon="12.6045115"><ele>73.0</ele><time>2026-03-22T09:06:48.973Z</time></trkpt><trkpt lat="43.9386854" lon="12.6046511"><ele>72.6</ele><time>2026-03-22T09:06:49.973Z</time></trkpt><trkpt lat="43.9387452" lon="12.6047877"><ele>72.19999999999999</ele><time>2026-03-22T09:06:50.973Z</time></trkpt><trkpt lat="43.9388012" lon="12.6049202"><ele>71.8</ele><time>2026-03-22T09:06:51.974Z</time></trkpt><trkpt lat="43.9388495" lon="12.6050364"><ele>71.39999999999999</ele><time>2026-03-22T09:06:52.973Z</time></trkpt><trkpt lat="43.9388965" lon="12.6051412"><ele>71.0</ele><time>2026-03-22T09:06:53.973Z</time></trkpt><trkpt lat="43.9389381" lon="12.605241"><ele>70.0</ele><time>2026-03-22T09:06:54.973Z</time></trkpt><trkpt lat="43.9389753" lon="12.6053369"><ele>69.0</ele><time>2026-03-22T09:06:55.974Z</time></trkpt><trkpt lat="43.939013" lon="12.6054445"><ele>68.0</ele><time>2026-03-22T09:06:56.974Z</time></trkpt><trkpt lat="43.9390419" lon="12.6055534"><ele>67.0</ele><time>2026-03-22T09:06:57.974Z</time></trkpt><trkpt lat="43.9390701" lon="12.6056856"><ele>66.0</ele><time>2026-03-22T09:06:58.972Z</time></trkpt><trkpt lat="43.9390915" lon="12.6058358"><ele>66.0</ele><time>2026-03-22T09:06:59.974Z</time></trkpt><trkpt lat="43.939116" lon="12.6059967"><ele>66.0</ele><time>2026-03-22T09:07:00.973Z</time></trkpt><trkpt lat="43.939138" lon="12.6061572"><ele>66.0</ele><time>2026-03-22T09:07:01.974Z</time></trkpt><trkpt lat="43.9391611" lon="12.6063087"><ele>66.0</ele><time>2026-03-22T09:07:02.973Z</time></trkpt><trkpt lat="43.9391841" lon="12.6064514"><ele>64.8</ele><time>2026-03-22T09:07:03.973Z</time></trkpt><trkpt lat="43.9392053" lon="12.6065885"><ele>63.599999999999994</ele><time>2026-03-22T09:07:04.974Z</time></trkpt><trkpt lat="43.9392315" lon="12.6067256"><ele>62.4</ele><time>2026-03-22T09:07:05.973Z</time></trkpt><trkpt lat="43.9392581" lon="12.6068569"><ele>61.2</ele><time>2026-03-22T09:07:06.974Z</time></trkpt><trkpt lat="43.9392802" lon="12.6069787"><ele>60.0</ele><time>2026-03-22T09:07:07.974Z</time></trkpt><trkpt lat="43.9392985" lon="12.6070959"><ele>59.4</ele><time>2026-03-22T09:07:08.974Z</time></trkpt><trkpt lat="43.939313" lon="12.607214"><ele>58.8</ele><time>2026-03-22T09:07:09.974Z</time></trkpt><trkpt lat="43.9393262" lon="12.6073288"><ele>58.2</ele><time>2026-03-22T09:07:10.974Z</time></trkpt><trkpt lat="43.9393408" lon="12.6074634"><ele>57.6</ele><time>2026-03-22T09:07:11.974Z</time></trkpt><trkpt lat="43.9393588" lon="12.6076057"><ele>57.0</ele><time>2026-03-22T09:07:12.974Z</time></trkpt><trkpt lat="43.9393782" lon="12.6077496"><ele>56.6</ele><time>2026-03-22T09:07:13.974Z</time></trkpt><trkpt lat="43.9394043" lon="12.6078923"><ele>56.2</ele><time>2026-03-22T09:07:14.973Z</time></trkpt><trkpt lat="43.9394347" lon="12.6080368"><ele>55.8</ele><time>2026-03-22T09:07:15.974Z</time></trkpt><trkpt lat="43.9394669" lon="12.6081627"><ele>55.4</ele><time>2026-03-22T09:07:16.974Z</time></trkpt><trkpt lat="43.9395161" lon="12.6082836"><ele>55.0</ele><time>2026-03-22T09:07:17.973Z</time></trkpt><trkpt lat="43.9395854" lon="12.6084447"><ele>55.0</ele><time>2026-03-22T09:07:18.973Z</time></trkpt><trkpt lat="43.9396579" lon="12.6086323"><ele>55.0</ele><time>2026-03-22T09:07:19.973Z</time></trkpt><trkpt lat="43.9397186" lon="12.6088012"><ele>55.0</ele><time>2026-03-22T09:07:20.974Z</time></trkpt><trkpt lat="43.9397753" lon="12.6089527"><ele>55.0</ele><time>2026-03-22T09:07:21.973Z</time></trkpt><trkpt lat="43.9398265" lon="12.6090961"><ele>55.2</ele><time>2026-03-22T09:07:22.974Z</time></trkpt><trkpt lat="43.9398809" lon="12.6092331"><ele>55.4</ele><time>2026-03-22T09:07:23.973Z</time></trkpt><trkpt lat="43.9399287" lon="12.6093595"><ele>55.599999999999994</ele><time>2026-03-22T09:07:24.974Z</time></trkpt><trkpt lat="43.9399742" lon="12.6094787"><ele>55.8</ele><time>2026-03-22T09:07:25.972Z</time></trkpt><trkpt lat="43.9400144" lon="12.6095797"><ele>56.0</ele><time>2026-03-22T09:07:26.974Z</time></trkpt><trkpt lat="43.9400504" lon="12.6096619"><ele>56.0</ele><time>2026-03-22T09:07:27.974Z</time></trkpt><trkpt lat="43.9401364" lon="12.6097512"><ele>55.99999999999999</ele><time>2026-03-22T09:07:29.973Z</time></trkpt><trkpt lat="43.9402434" lon="12.6097534"><ele>55.99999999999999</ele><time>2026-03-22T09:07:31.974Z</time></trkpt><trkpt lat="43.9403499" lon="12.6097613"><ele>56.0</ele><time>2026-03-22T09:07:33.973Z</time></trkpt><trkpt lat="43.9404391" lon="12.6098821"><ele>56.0</ele><time>2026-03-22T09:07:35.973Z</time></trkpt><trkpt lat="43.9404699" lon="12.6099878"><ele>56.0</ele><time>2026-03-22T09:07:36.973Z</time></trkpt><trkpt lat="43.9404831" lon="12.6100974"><ele>55.99999999999999</ele><time>2026-03-22T09:07:37.974Z</time></trkpt><trkpt lat="43.9404909" lon="12.610225"><ele>55.99999999999999</ele><time>2026-03-22T09:07:38.974Z</time></trkpt><trkpt lat="43.9405037" lon="12.6103652"><ele>56.0</ele><time>2026-03-22T09:07:39.974Z</time></trkpt><trkpt lat="43.9405197" lon="12.6105048"><ele>56.0</ele><time>2026-03-22T09:07:40.973Z</time></trkpt><trkpt lat="43.9405331" lon="12.6106413"><ele>55.333333333333336</ele><time>2026-03-22T09:07:41.974Z</time></trkpt><trkpt lat="43.940548" lon="12.6107656"><ele>54.66666666666667</ele><time>2026-03-22T09:07:42.974Z</time></trkpt><trkpt lat="43.9405594" lon="12.6108835"><ele>54.0</ele><time>2026-03-22T09:07:43.974Z</time></trkpt><trkpt lat="43.940566" lon="12.6109882"><ele>53.33333333333333</ele><time>2026-03-22T09:07:44.973Z</time></trkpt><trkpt lat="43.9405617" lon="12.6110886"><ele>52.666666666666664</ele><time>2026-03-22T09:07:45.974Z</time></trkpt><trkpt lat="43.9405484" lon="12.6111989"><ele>52.0</ele><time>2026-03-22T09:07:46.974Z</time></trkpt><trkpt lat="43.9405301" lon="12.6112992"><ele>52.0</ele><time>2026-03-22T09:07:47.974Z</time></trkpt><trkpt lat="43.9405027" lon="12.6113874"><ele>52.0</ele><time>2026-03-22T09:07:48.973Z</time></trkpt><trkpt lat="43.940462" lon="12.6114654"><ele>52.0</ele><time>2026-03-22T09:07:49.973Z</time></trkpt><trkpt lat="43.9404059" lon="12.6115754"><ele>52.0</ele><time>2026-03-22T09:07:50.974Z</time></trkpt><trkpt lat="43.9403391" lon="12.6116926"><ele>52.0</ele><time>2026-03-22T09:07:51.973Z</time></trkpt><trkpt lat="43.9402649" lon="12.6118098"><ele>52.0</ele><time>2026-03-22T09:07:52.974Z</time></trkpt><trkpt lat="43.9401873" lon="12.6119319"><ele>52.0</ele><time>2026-03-22T09:07:53.973Z</time></trkpt><trkpt lat="43.9401205" lon="12.6120408"><ele>52.0</ele><time>2026-03-22T09:07:54.973Z</time></trkpt><trkpt lat="43.9400566" lon="12.6121441"><ele>52.0</ele><time>2026-03-22T09:07:55.974Z</time></trkpt><trkpt lat="43.9399929" lon="12.6122541"><ele>52.0</ele><time>2026-03-22T09:07:56.974Z</time></trkpt><trkpt lat="43.9399322" lon="12.6123706"><ele>52.6</ele><time>2026-03-22T09:07:57.973Z</time></trkpt><trkpt lat="43.9398749" lon="12.6124822"><ele>53.2</ele><time>2026-03-22T09:07:58.974Z</time></trkpt><trkpt lat="43.9398185" lon="12.612601"><ele>53.8</ele><time>2026-03-22T09:07:59.974Z</time></trkpt><trkpt lat="43.939768" lon="12.612725"><ele>54.4</ele><time>2026-03-22T09:08:00.973Z</time></trkpt><trkpt lat="43.9397199" lon="12.6128547"><ele>55.0</ele><time>2026-03-22T09:08:01.974Z</time></trkpt><trkpt lat="43.9396748" lon="12.6129936"><ele>55.4</ele><time>2026-03-22T09:08:02.973Z</time></trkpt><trkpt lat="43.9396377" lon="12.613134"><ele>55.8</ele><time>2026-03-22T09:08:03.974Z</time></trkpt><trkpt lat="43.9396019" lon="12.6132715"><ele>56.2</ele><time>2026-03-22T09:08:04.974Z</time></trkpt><trkpt lat="43.9395674" lon="12.6134179"><ele>56.6</ele><time>2026-03-22T09:08:05.973Z</time></trkpt><trkpt lat="43.9395337" lon="12.6135649"><ele>57.0</ele><time>2026-03-22T09:08:06.972Z</time></trkpt><trkpt lat="43.9394974" lon="12.6137117"><ele>57.75</ele><time>2026-03-22T09:08:07.974Z</time></trkpt><trkpt lat="43.93946" lon="12.6138638"><ele>58.5</ele><time>2026-03-22T09:08:08.973Z</time></trkpt><trkpt lat="43.9394245" lon="12.6140141"><ele>59.25</ele><time>2026-03-22T09:08:09.973Z</time></trkpt><trkpt lat="43.9393854" lon="12.614159"><ele>60.0</ele><time>2026-03-22T09:08:10.973Z</time></trkpt><trkpt lat="43.9393423" lon="12.6143039"><ele>60.0</ele><time>2026-03-22T09:08:11.974Z</time></trkpt><trkpt lat="43.9392967" lon="12.6144387"><ele>60.0</ele><time>2026-03-22T09:08:12.972Z</time></trkpt><trkpt lat="43.9392437" lon="12.6145624"><ele>60.0</ele><time>2026-03-22T09:08:13.974Z</time></trkpt><trkpt lat="43.9391845" lon="12.6146765"><ele>60.0</ele><time>2026-03-22T09:08:14.974Z</time></trkpt><trkpt lat="43.9391243" lon="12.614783"><ele>60.0</ele><time>2026-03-22T09:08:15.973Z</time></trkpt><trkpt lat="43.9390662" lon="12.6148897"><ele>61.2</ele><time>2026-03-22T09:08:16.974Z</time></trkpt><trkpt lat="43.9390137" lon="12.6150009"><ele>62.4</ele><time>2026-03-22T09:08:17.973Z</time></trkpt><trkpt lat="43.9389693" lon="12.6151125"><ele>63.599999999999994</ele><time>2026-03-22T09:08:18.974Z</time></trkpt><trkpt lat="43.9389291" lon="12.6152226"><ele>64.8</ele><time>2026-03-22T09:08:19.973Z</time></trkpt><trkpt lat="43.9388942" lon="12.6153471"><ele>66.0</ele><time>2026-03-22T09:08:20.973Z</time></trkpt><trkpt lat="43.9388562" lon="12.6154928"><ele>67.39999999999999</ele><time>2026-03-22T09:08:21.973Z</time></trkpt><trkpt lat="43.9388244" lon="12.6156227"><ele>68.8</ele><time>2026-03-22T09:08:22.974Z</time></trkpt><trkpt lat="43.9387925" lon="12.61575"><ele>70.19999999999999</ele><time>2026-03-22T09:08:23.973Z</time></trkpt><trkpt lat="43.9387584" lon="12.6158779"><ele>71.6</ele><time>2026-03-22T09:08:24.974Z</time></trkpt><trkpt lat="43.9387212" lon="12.615987"><ele>73.0</ele><time>2026-03-22T09:08:25.972Z</time></trkpt><trkpt lat="43.9386737" lon="12.6160863"><ele>74.0</ele><time>2026-03-22T09:08:26.974Z</time></trkpt><trkpt lat="43.9386279" lon="12.616172"><ele>75.0</ele><time>2026-03-22T09:08:27.972Z</time></trkpt><trkpt lat="43.9385842" lon="12.6162593"><ele>76.0</ele><time>2026-03-22T09:08:28.974Z</time></trkpt><trkpt lat="43.938545" lon="12.6163462"><ele>77.0</ele><time>2026-03-22T09:08:29.974Z</time></trkpt><trkpt lat="43.9385014" lon="12.6164522"><ele>78.0</ele><time>2026-03-22T09:08:30.974Z</time></trkpt><trkpt lat="43.9384524" lon="12.6165734"><ele>79.0</ele><time>2026-03-22T09:08:31.973Z</time></trkpt><trkpt lat="43.9383919" lon="12.6167224"><ele>81.2</ele><time>2026-03-22T09:08:32.974Z</time></trkpt><trkpt lat="43.9383331" lon="12.6168678"><ele>83.4</ele><time>2026-03-22T09:08:33.973Z</time></trkpt><trkpt lat="43.9382842" lon="12.6169877"><ele>85.6</ele><time>2026-03-22T09:08:34.974Z</time></trkpt><trkpt lat="43.9382408" lon="12.6170889"><ele>87.8</ele><time>2026-03-22T09:08:35.974Z</time></trkpt><trkpt lat="43.9382016" lon="12.617183"><ele>90.0</ele><time>2026-03-22T09:08:36.974Z</time></trkpt><trkpt lat="43.9381668" lon="12.6172957"><ele>90.83333333333333</ele><time>2026-03-22T09:08:37.973Z</time></trkpt><trkpt lat="43.9381357" lon="12.6174209"><ele>91.66666666666667</ele><time>2026-03-22T09:08:38.974Z</time></trkpt><trkpt lat="43.938107" lon="12.6175388"><ele>92.5</ele><time>2026-03-22T09:08:39.973Z</time></trkpt><trkpt lat="43.9380927" lon="12.6176515"><ele>93.33333333333334</ele><time>2026-03-22T09:08:40.973Z</time></trkpt><trkpt lat="43.9380957" lon="12.6177639"><ele>94.16666666666667</ele><time>2026-03-22T09:08:41.974Z</time></trkpt><trkpt lat="43.9381103" lon="12.6178865"><ele>95.0</ele><time>2026-03-22T09:08:42.974Z</time></trkpt><trkpt lat="43.9381236" lon="12.6180048"><ele>96.0</ele><time>2026-03-22T09:08:43.974Z</time></trkpt><trkpt lat="43.9381308" lon="12.6181055"><ele>97.0</ele><time>2026-03-22T09:08:44.974Z</time></trkpt><trkpt lat="43.9381325" lon="12.6182161"><ele>98.0</ele><time>2026-03-22T09:08:45.973Z</time></trkpt><trkpt lat="43.9381259" lon="12.6183315"><ele>99.0</ele><time>2026-03-22T09:08:46.972Z</time></trkpt><trkpt lat="43.9381109" lon="12.6184428"><ele>99.99999999999999</ele><time>2026-03-22T09:08:47.974Z</time></trkpt><trkpt lat="43.9380948" lon="12.6185552"><ele>101.0</ele><time>2026-03-22T09:08:48.972Z</time></trkpt><trkpt lat="43.9380745" lon="12.6186611"><ele>101.4</ele><time>2026-03-22T09:08:49.974Z</time></trkpt><trkpt lat="43.9380559" lon="12.6187547"><ele>101.8</ele><time>2026-03-22T09:08:50.973Z</time></trkpt><trkpt lat="43.9380292" lon="12.6189365"><ele>102.2</ele><time>2026-03-22T09:08:52.974Z</time></trkpt><trkpt lat="43.9380074" lon="12.6190485"><ele>102.60000000000001</ele><time>2026-03-22T09:08:53.974Z</time></trkpt><trkpt lat="43.9379854" lon="12.6191527"><ele>103.0</ele><time>2026-03-22T09:08:54.974Z</time></trkpt><trkpt lat="43.9379628" lon="12.6192688"><ele>103.0</ele><time>2026-03-22T09:08:55.973Z</time></trkpt><trkpt lat="43.9379366" lon="12.619399"><ele>103.0</ele><time>2026-03-22T09:08:56.974Z</time></trkpt><trkpt lat="43.9379131" lon="12.6195284"><ele>103.0</ele><time>2026-03-22T09:08:57.974Z</time></trkpt><trkpt lat="43.937893" lon="12.6196577"><ele>103.0</ele><time>2026-03-22T09:08:58.974Z</time></trkpt><trkpt lat="43.9378744" lon="12.6197905"><ele>103.0</ele><time>2026-03-22T09:08:59.974Z</time></trkpt><trkpt lat="43.9378566" lon="12.6199288"><ele>104.60000000000001</ele><time>2026-03-22T09:09:00.973Z</time></trkpt><trkpt lat="43.937843" lon="12.6200653"><ele>106.2</ele><time>2026-03-22T09:09:01.973Z</time></trkpt><trkpt lat="43.9378358" lon="12.6202093"><ele>107.8</ele><time>2026-03-22T09:09:02.974Z</time></trkpt><trkpt lat="43.9378367" lon="12.6203549"><ele>109.4</ele><time>2026-03-22T09:09:03.973Z</time></trkpt><trkpt lat="43.937842" lon="12.6205073"><ele>111.0</ele><time>2026-03-22T09:09:04.973Z</time></trkpt><trkpt lat="43.9378501" lon="12.6206673"><ele>113.0</ele><time>2026-03-22T09:09:05.973Z</time></trkpt><trkpt lat="43.9378548" lon="12.6208136"><ele>115.0</ele><time>2026-03-22T09:09:06.973Z</time></trkpt><trkpt lat="43.9378609" lon="12.620949"><ele>117.0</ele><time>2026-03-22T09:09:07.974Z</time></trkpt><trkpt lat="43.9378603" lon="12.6210767"><ele>119.0</ele><time>2026-03-22T09:09:08.974Z</time></trkpt><trkpt lat="43.9378518" lon="12.6211916"><ele>121.0</ele><time>2026-03-22T09:09:09.973Z</time></trkpt><trkpt lat="43.9378292" lon="12.6213011"><ele>123.16666666666667</ele><time>2026-03-22T09:09:10.973Z</time></trkpt><trkpt lat="43.9377991" lon="12.6214091"><ele>125.33333333333334</ele><time>2026-03-22T09:09:11.973Z</time></trkpt><trkpt lat="43.9377655" lon="12.6215055"><ele>127.5</ele><time>2026-03-22T09:09:12.974Z</time></trkpt><trkpt lat="43.9377213" lon="12.6215842"><ele>129.66666666666666</ele><time>2026-03-22T09:09:13.974Z</time></trkpt><trkpt lat="43.937639" lon="12.6216721"><ele>131.83333333333331</ele><time>2026-03-22T09:09:15.974Z</time></trkpt><trkpt lat="43.937538" lon="12.6217287"><ele>134.0</ele><time>2026-03-22T09:09:17.974Z</time></trkpt><trkpt lat="43.9374828" lon="12.6217777"><ele>134.8</ele><time>2026-03-22T09:09:18.974Z</time></trkpt><trkpt lat="43.9374319" lon="12.6218486"><ele>135.60000000000002</ele><time>2026-03-22T09:09:19.974Z</time></trkpt><trkpt lat="43.9373742" lon="12.6219469"><ele>136.4</ele><time>2026-03-22T09:09:20.973Z</time></trkpt><trkpt lat="43.9373295" lon="12.6220718"><ele>137.20000000000002</ele><time>2026-03-22T09:09:21.973Z</time></trkpt><trkpt lat="43.9373018" lon="12.622213"><ele>138.0</ele><time>2026-03-22T09:09:22.974Z</time></trkpt><trkpt lat="43.9372959" lon="12.6223541"><ele>140.5</ele><time>2026-03-22T09:09:23.973Z</time></trkpt><trkpt lat="43.9373068" lon="12.6225016"><ele>143.0</ele><time>2026-03-22T09:09:24.973Z</time></trkpt><trkpt lat="43.9373343" lon="12.6226696"><ele>145.5</ele><time>2026-03-22T09:09:25.973Z</time></trkpt><trkpt lat="43.9373794" lon="12.6228553"><ele>148.0</ele><time>2026-03-22T09:09:26.974Z</time></trkpt><trkpt lat="43.9374316" lon="12.6230602"><ele>149.33333333333334</ele><time>2026-03-22T09:09:27.974Z</time></trkpt><trkpt lat="43.9374852" lon="12.6232806"><ele>150.66666666666666</ele><time>2026-03-22T09:09:28.974Z</time></trkpt><trkpt lat="43.9375367" lon="12.6234817"><ele>152.0</ele><time>2026-03-22T09:09:29.972Z</time></trkpt><trkpt lat="43.9375752" lon="12.6236636"><ele>153.0</ele><time>2026-03-22T09:09:30.973Z</time></trkpt><trkpt lat="43.9375912" lon="12.6238464"><ele>154.0</ele><time>2026-03-22T09:09:31.974Z</time></trkpt><trkpt lat="43.9375819" lon="12.6240254"><ele>155.0</ele><time>2026-03-22T09:09:32.974Z</time></trkpt><trkpt lat="43.9375386" lon="12.6241809"><ele>156.0</ele><time>2026-03-22T09:09:33.974Z</time></trkpt><trkpt lat="43.9374652" lon="12.6243232"><ele>156.0</ele><time>2026-03-22T09:09:34.973Z</time></trkpt><trkpt lat="43.9373616" lon="12.6244476"><ele>156.0</ele><time>2026-03-22T09:09:35.973Z</time></trkpt><trkpt lat="43.9372347" lon="12.6245579"><ele>156.0</ele><time>2026-03-22T09:09:36.972Z</time></trkpt><trkpt lat="43.937094" lon="12.624666"><ele>156.0</ele><time>2026-03-22T09:09:37.974Z</time></trkpt><trkpt lat="43.9369634" lon="12.6247714"><ele>156.25</ele><time>2026-03-22T09:09:38.973Z</time></trkpt><trkpt lat="43.9368429" lon="12.6248621"><ele>156.5</ele><time>2026-03-22T09:09:39.973Z</time></trkpt><trkpt lat="43.9367327" lon="12.6249261"><ele>156.75</ele><time>2026-03-22T09:09:40.973Z</time></trkpt><trkpt lat="43.9366339" lon="12.6249562"><ele>157.0</ele><time>2026-03-22T09:09:41.974Z</time></trkpt><trkpt lat="43.9365392" lon="12.6249586"><ele>157.0</ele><time>2026-03-22T09:09:42.974Z</time></trkpt><trkpt lat="43.9364561" lon="12.6249522"><ele>157.0</ele><time>2026-03-22T09:09:43.973Z</time></trkpt><trkpt lat="43.9363862" lon="12.6249431"><ele>157.0</ele><time>2026-03-22T09:09:44.973Z</time></trkpt><trkpt lat="43.9363225" lon="12.62493"><ele>157.0</ele><time>2026-03-22T09:09:45.973Z</time></trkpt><trkpt lat="43.9362426" lon="12.6249078"><ele>157.0</ele><time>2026-03-22T09:09:46.974Z</time></trkpt><trkpt lat="43.9361374" lon="12.6248823"><ele>157.0</ele><time>2026-03-22T09:09:47.974Z</time></trkpt><trkpt lat="43.9360198" lon="12.624857"><ele>157.0</ele><time>2026-03-22T09:09:48.973Z</time></trkpt><trkpt lat="43.9358965" lon="12.624829"><ele>157.0</ele><time>2026-03-22T09:09:49.974Z</time></trkpt><trkpt lat="43.9357742" lon="12.6248011"><ele>157.0</ele><time>2026-03-22T09:09:50.973Z</time></trkpt><trkpt lat="43.9356599" lon="12.6247781"><ele>157.0</ele><time>2026-03-22T09:09:51.974Z</time></trkpt><trkpt lat="43.9355435" lon="12.6247596"><ele>156.75</ele><time>2026-03-22T09:09:52.973Z</time></trkpt><trkpt lat="43.9354248" lon="12.624745"><ele>156.5</ele><time>2026-03-22T09:09:53.972Z</time></trkpt><trkpt lat="43.9353038" lon="12.6247392"><ele>156.25</ele><time>2026-03-22T09:09:54.974Z</time></trkpt><trkpt lat="43.935174" lon="12.6247517"><ele>156.0</ele><time>2026-03-22T09:09:55.972Z</time></trkpt><trkpt lat="43.9350242" lon="12.6247781"><ele>156.66666666666666</ele><time>2026-03-22T09:09:56.974Z</time></trkpt><trkpt lat="43.9348615" lon="12.624818"><ele>157.33333333333331</ele><time>2026-03-22T09:09:57.974Z</time></trkpt><trkpt lat="43.9346691" lon="12.6248666"><ele>158.0</ele><time>2026-03-22T09:09:58.974Z</time></trkpt><trkpt lat="43.9344727" lon="12.6249055"><ele>158.0</ele><time>2026-03-22T09:09:59.974Z</time></trkpt><trkpt lat="43.9342938" lon="12.6249383"><ele>158.0</ele><time>2026-03-22T09:10:00.974Z</time></trkpt><trkpt lat="43.9341264" lon="12.6249708"><ele>158.0</ele><time>2026-03-22T09:10:01.972Z</time></trkpt><trkpt lat="43.9339684" lon="12.6249987"><ele>159.75</ele><time>2026-03-22T09:10:02.973Z</time></trkpt><trkpt lat="43.9338265" lon="12.6250169"><ele>161.5</ele><time>2026-03-22T09:10:03.973Z</time></trkpt><trkpt lat="43.9336954" lon="12.6250291"><ele>163.25</ele><time>2026-03-22T09:10:04.973Z</time></trkpt><trkpt lat="43.933582" lon="12.6250391"><ele>165.0</ele><time>2026-03-22T09:10:05.974Z</time></trkpt><trkpt lat="43.9334856" lon="12.6250491"><ele>165.0</ele><time>2026-03-22T09:10:06.973Z</time></trkpt><trkpt lat="43.9333984" lon="12.6250999"><ele>165.0</ele><time>2026-03-22T09:10:07.974Z</time></trkpt><trkpt lat="43.9333068" lon="12.6251825"><ele>165.0</ele><time>2026-03-22T09:10:08.973Z</time></trkpt><trkpt lat="43.9332063" lon="12.6252877"><ele>165.0</ele><time>2026-03-22T09:10:09.974Z</time></trkpt><trkpt lat="43.9331092" lon="12.6254021"><ele>166.0</ele><time>2026-03-22T09:10:10.973Z</time></trkpt><trkpt lat="43.9330112" lon="12.6255096"><ele>167.0</ele><time>2026-03-22T09:10:11.973Z</time></trkpt><trkpt lat="43.9329212" lon="12.6256106"><ele>168.0</ele><time>2026-03-22T09:10:12.974Z</time></trkpt><trkpt lat="43.9328295" lon="12.6257083"><ele>169.0</ele><time>2026-03-22T09:10:13.974Z</time></trkpt><trkpt lat="43.9327408" lon="12.6258007"><ele>169.0</ele><time>2026-03-22T09:10:14.973Z</time></trkpt><trkpt lat="43.9326566" lon="12.6258841"><ele>169.0</ele><time>2026-03-22T09:10:15.974Z</time></trkpt><trkpt lat="43.9325804" lon="12.6259579"><ele>169.0</ele><time>2026-03-22T09:10:16.974Z</time></trkpt><trkpt lat="43.9325116" lon="12.6260245"><ele>169.0</ele><time>2026-03-22T09:10:17.973Z</time></trkpt><trkpt lat="43.9324444" lon="12.6260852"><ele>169.0</ele><time>2026-03-22T09:10:18.974Z</time></trkpt><trkpt lat="43.9323755" lon="12.6261466"><ele>169.0</ele><time>2026-03-22T09:10:19.974Z</time></trkpt><trkpt lat="43.9323086" lon="12.6262031"><ele>169.5</ele><time>2026-03-22T09:10:20.973Z</time></trkpt><trkpt lat="43.9322509" lon="12.6262466"><ele>170.0</ele><time>2026-03-22T09:10:21.973Z</time></trkpt><trkpt lat="43.9321727" lon="12.6262923"><ele>170.5</ele><time>2026-03-22T09:10:23.974Z</time></trkpt><trkpt lat="43.9321023" lon="12.6263247"><ele>171.0</ele><time>2026-03-22T09:10:25.974Z</time></trkpt><trkpt lat="43.932029" lon="12.6264025"><ele>171.5</ele><time>2026-03-22T09:10:27.973Z</time></trkpt><trkpt lat="43.9319607" lon="12.6265219"><ele>172.0</ele><time>2026-03-22T09:10:29.974Z</time></trkpt><trkpt lat="43.9319149" lon="12.6266431"><ele>172.0</ele><time>2026-03-22T09:10:31.972Z</time></trkpt><trkpt lat="43.9318878" lon="12.6267533"><ele>172.0</ele><time>2026-03-22T09:10:33.973Z</time></trkpt><trkpt lat="43.9318606" lon="12.6268807"><ele>172.0</ele><time>2026-03-22T09:10:35.974Z</time></trkpt><trkpt lat="43.9318278" lon="12.6270275"><ele>172.0</ele><time>2026-03-22T09:10:37.972Z</time></trkpt><trkpt lat="43.9317948" lon="12.6271922"><ele>172.0</ele><time>2026-03-22T09:10:39.974Z</time></trkpt><trkpt lat="43.9317744" lon="12.6272844"><ele>172.0</ele><time>2026-03-22T09:10:40.973Z</time></trkpt><trkpt lat="43.9317427" lon="12.627417"><ele>172.0</ele><time>2026-03-22T09:10:42.972Z</time></trkpt><trkpt lat="43.931723" lon="12.6275117"><ele>172.0</ele><time>2026-03-22T09:10:44.974Z</time></trkpt><trkpt lat="43.9317067" lon="12.6276376"><ele>172.0</ele><time>2026-03-22T09:10:47.974Z</time></trkpt><trkpt lat="43.9317656" lon="12.6275836"><ele>172.0</ele><time>2026-03-22T09:10:51.972Z</time></trkpt><trkpt lat="43.9317724" lon="12.6274912"><ele>172.0</ele><time>2026-03-22T09:10:52.974Z</time></trkpt><trkpt lat="43.9317866" lon="12.6273548"><ele>172.0</ele><time>2026-03-22T09:10:53.974Z</time></trkpt><trkpt lat="43.9318198" lon="12.6271776"><ele>172.0</ele><time>2026-03-22T09:10:54.974Z</time></trkpt><trkpt lat="43.9318544" lon="12.6270012"><ele>172.0</ele><time>2026-03-22T09:10:55.973Z</time></trkpt><trkpt lat="43.9318901" lon="12.6268405"><ele>172.0</ele><time>2026-03-22T09:10:56.974Z</time></trkpt><trkpt lat="43.931927" lon="12.6266917"><ele>172.0</ele><time>2026-03-22T09:10:57.974Z</time></trkpt><trkpt lat="43.9319661" lon="12.6265667"><ele>172.0</ele><time>2026-03-22T09:10:58.973Z</time></trkpt><trkpt lat="43.93201" lon="12.6264664"><ele>172.0</ele><time>2026-03-22T09:10:59.974Z</time></trkpt><trkpt lat="43.9320648" lon="12.6263991"><ele>172.0</ele><time>2026-03-22T09:11:00.974Z</time></trkpt><trkpt lat="43.9321244" lon="12.6263557"><ele>172.0</ele><time>2026-03-22T09:11:01.973Z</time></trkpt><trkpt lat="43.9321826" lon="12.6263209"><ele>172.0</ele><time>2026-03-22T09:11:02.974Z</time></trkpt><trkpt lat="43.9322583" lon="12.626279"><ele>172.0</ele><time>2026-03-22T09:11:04.973Z</time></trkpt><trkpt lat="43.9323481" lon="12.6262151"><ele>172.0</ele><time>2026-03-22T09:11:06.973Z</time></trkpt><trkpt lat="43.9324017" lon="12.6261659"><ele>172.0</ele><time>2026-03-22T09:11:07.973Z</time></trkpt><trkpt lat="43.9324674" lon="12.6261042"><ele>172.0</ele><time>2026-03-22T09:11:08.974Z</time></trkpt><trkpt lat="43.9325401" lon="12.626034"><ele>172.0</ele><time>2026-03-22T09:11:09.974Z</time></trkpt><trkpt lat="43.9326191" lon="12.6259557"><ele>172.0</ele><time>2026-03-22T09:11:10.974Z</time></trkpt><trkpt lat="43.9326932" lon="12.6258783"><ele>171.39999999999998</ele><time>2026-03-22T09:11:11.973Z</time></trkpt><trkpt lat="43.9327656" lon="12.6257986"><ele>170.79999999999998</ele><time>2026-03-22T09:11:12.973Z</time></trkpt><trkpt lat="43.9328458" lon="12.6257132"><ele>170.2</ele><time>2026-03-22T09:11:13.973Z</time></trkpt><trkpt lat="43.9329296" lon="12.6256216"><ele>169.6</ele><time>2026-03-22T09:11:14.974Z</time></trkpt><trkpt lat="43.9330119" lon="12.625528"><ele>169.0</ele><time>2026-03-22T09:11:15.974Z</time></trkpt><trkpt lat="43.9330868" lon="12.6254475"><ele>169.0</ele><time>2026-03-22T09:11:16.973Z</time></trkpt><trkpt lat="43.9331526" lon="12.6253743"><ele>169.0</ele><time>2026-03-22T09:11:17.973Z</time></trkpt><trkpt lat="43.9332099" lon="12.6253078"><ele>169.0</ele><time>2026-03-22T09:11:18.973Z</time></trkpt><trkpt lat="43.9332626" lon="12.6252473"><ele>169.0</ele><time>2026-03-22T09:11:19.973Z</time></trkpt><trkpt lat="43.9333434" lon="12.6251555"><ele>169.0</ele><time>2026-03-22T09:11:21.973Z</time></trkpt><trkpt lat="43.9333867" lon="12.6250834"><ele>169.0</ele><time>2026-03-22T09:11:27.973Z</time></trkpt><trkpt lat="43.9333538" lon="12.6249696"><ele>169.6</ele><time>2026-03-22T09:11:30.973Z</time></trkpt><trkpt lat="43.9332809" lon="12.6249454"><ele>170.2</ele><time>2026-03-22T09:11:31.974Z</time></trkpt><trkpt lat="43.9331945" lon="12.6249057"><ele>170.79999999999998</ele><time>2026-03-22T09:11:32.974Z</time></trkpt><trkpt lat="43.9330947" lon="12.6248587"><ele>171.39999999999998</ele><time>2026-03-22T09:11:33.973Z</time></trkpt><trkpt lat="43.9329994" lon="12.624818"><ele>172.0</ele><time>2026-03-22T09:11:34.973Z</time></trkpt><trkpt lat="43.9329177" lon="12.6247748"><ele>172.0</ele><time>2026-03-22T09:11:35.973Z</time></trkpt><trkpt lat="43.9328352" lon="12.6247279"><ele>172.0</ele><time>2026-03-22T09:11:36.974Z</time></trkpt><trkpt lat="43.932739" lon="12.6246775"><ele>172.0</ele><time>2026-03-22T09:11:37.974Z</time></trkpt><trkpt lat="43.9326351" lon="12.6246404"><ele>172.0</ele><time>2026-03-22T09:11:38.974Z</time></trkpt><trkpt lat="43.9325255" lon="12.6246256"><ele>172.0</ele><time>2026-03-22T09:11:39.974Z</time></trkpt><trkpt lat="43.9324192" lon="12.6246445"><ele>173.8</ele><time>2026-03-22T09:11:40.973Z</time></trkpt><trkpt lat="43.9323096" lon="12.6246904"><ele>175.6</ele><time>2026-03-22T09:11:41.974Z</time></trkpt><trkpt lat="43.9322121" lon="12.624747"><ele>177.4</ele><time>2026-03-22T09:11:42.974Z</time></trkpt><trkpt lat="43.9321225" lon="12.6248046"><ele>179.20000000000002</ele><time>2026-03-22T09:11:43.974Z</time></trkpt><trkpt lat="43.9320386" lon="12.6248631"><ele>181.0</ele><time>2026-03-22T09:11:44.972Z</time></trkpt><trkpt lat="43.9319621" lon="12.6249174"><ele>181.0</ele><time>2026-03-22T09:11:45.974Z</time></trkpt><trkpt lat="43.9318865" lon="12.6249747"><ele>181.0</ele><time>2026-03-22T09:11:46.973Z</time></trkpt><trkpt lat="43.9318142" lon="12.6250351"><ele>181.0</ele><time>2026-03-22T09:11:47.974Z</time></trkpt><trkpt lat="43.93175" lon="12.6251118"><ele>181.0</ele><time>2026-03-22T09:11:48.974Z</time></trkpt><trkpt lat="43.9316991" lon="12.6251995"><ele>181.0</ele><time>2026-03-22T09:11:49.974Z</time></trkpt><trkpt lat="43.9316683" lon="12.6252839"><ele>181.0</ele><time>2026-03-22T09:11:50.974Z</time></trkpt><trkpt lat="43.9316474" lon="12.6253707"><ele>180.60000000000002</ele><time>2026-03-22T09:11:51.973Z</time></trkpt><trkpt lat="43.931589" lon="12.6254929"><ele>180.2</ele><time>2026-03-22T09:11:53.974Z</time></trkpt><trkpt lat="43.9315029" lon="12.6254803"><ele>179.8</ele><time>2026-03-22T09:11:55.974Z</time></trkpt><trkpt lat="43.9314518" lon="12.6254231"><ele>179.39999999999998</ele><time>2026-03-22T09:11:56.973Z</time></trkpt><trkpt lat="43.9313835" lon="12.6253401"><ele>179.0</ele><time>2026-03-22T09:11:57.972Z</time></trkpt><trkpt lat="43.9312994" lon="12.6252304"><ele>178.5</ele><time>2026-03-22T09:11:58.974Z</time></trkpt><trkpt lat="43.9312014" lon="12.6251066"><ele>178.0</ele><time>2026-03-22T09:11:59.974Z</time></trkpt><trkpt lat="43.9310941" lon="12.624971"><ele>177.5</ele><time>2026-03-22T09:12:00.973Z</time></trkpt><trkpt lat="43.9309895" lon="12.6248349"><ele>177.0</ele><time>2026-03-22T09:12:01.973Z</time></trkpt><trkpt lat="43.9308774" lon="12.6246945"><ele>173.66666666666666</ele><time>2026-03-22T09:12:02.974Z</time></trkpt><trkpt lat="43.9307606" lon="12.6245529"><ele>170.33333333333331</ele><time>2026-03-22T09:12:03.974Z</time></trkpt><trkpt lat="43.9306468" lon="12.6244098"><ele>167.0</ele><time>2026-03-22T09:12:04.973Z</time></trkpt><trkpt lat="43.9305166" lon="12.6242609"><ele>166.33333333333331</ele><time>2026-03-22T09:12:05.973Z</time></trkpt><trkpt lat="43.9303686" lon="12.6240916"><ele>165.66666666666666</ele><time>2026-03-22T09:12:06.972Z</time></trkpt><trkpt lat="43.9302356" lon="12.6239254"><ele>165.0</ele><time>2026-03-22T09:12:07.974Z</time></trkpt><trkpt lat="43.9301101" lon="12.6237684"><ele>164.25</ele><time>2026-03-22T09:12:08.974Z</time></trkpt><trkpt lat="43.929992" lon="12.6236277"><ele>163.5</ele><time>2026-03-22T09:12:09.974Z</time></trkpt><trkpt lat="43.9298775" lon="12.623494"><ele>162.75</ele><time>2026-03-22T09:12:10.973Z</time></trkpt><trkpt lat="43.929769" lon="12.6233755"><ele>162.0</ele><time>2026-03-22T09:12:11.973Z</time></trkpt><trkpt lat="43.9296673" lon="12.6232528"><ele>162.0</ele><time>2026-03-22T09:12:12.974Z</time></trkpt><trkpt lat="43.929564" lon="12.6231241"><ele>162.0</ele><time>2026-03-22T09:12:13.973Z</time></trkpt><trkpt lat="43.9294553" lon="12.6229914"><ele>162.0</ele><time>2026-03-22T09:12:14.973Z</time></trkpt><trkpt lat="43.929344" lon="12.6228551"><ele>162.0</ele><time>2026-03-22T09:12:15.974Z</time></trkpt><trkpt lat="43.9292232" lon="12.6227133"><ele>161.33333333333334</ele><time>2026-03-22T09:12:16.973Z</time></trkpt><trkpt lat="43.929099" lon="12.6225623"><ele>160.66666666666669</ele><time>2026-03-22T09:12:17.974Z</time></trkpt><trkpt lat="43.9289717" lon="12.6224201"><ele>160.0</ele><time>2026-03-22T09:12:18.974Z</time></trkpt><trkpt lat="43.9288498" lon="12.622285"><ele>160.0</ele><time>2026-03-22T09:12:19.973Z</time></trkpt><trkpt lat="43.9287317" lon="12.6221682"><ele>160.0</ele><time>2026-03-22T09:12:20.973Z</time></trkpt><trkpt lat="43.9286176" lon="12.6220657"><ele>160.0</ele><time>2026-03-22T09:12:21.973Z</time></trkpt><trkpt lat="43.9285129" lon="12.6219711"><ele>160.0</ele><time>2026-03-22T09:12:22.974Z</time></trkpt><trkpt lat="43.9284101" lon="12.6218808"><ele>159.75</ele><time>2026-03-22T09:12:23.974Z</time></trkpt><trkpt lat="43.9283044" lon="12.6217928"><ele>159.5</ele><time>2026-03-22T09:12:24.974Z</time></trkpt><trkpt lat="43.9281965" lon="12.6217057"><ele>159.25</ele><time>2026-03-22T09:12:25.973Z</time></trkpt><trkpt lat="43.9280835" lon="12.6216171"><ele>159.0</ele><time>2026-03-22T09:12:26.974Z</time></trkpt><trkpt lat="43.9279665" lon="12.6215333"><ele>159.0</ele><time>2026-03-22T09:12:27.974Z</time></trkpt><trkpt lat="43.92785" lon="12.6214618"><ele>159.0</ele><time>2026-03-22T09:12:28.974Z</time></trkpt><trkpt lat="43.9277324" lon="12.6213912"><ele>159.0</ele><time>2026-03-22T09:12:29.973Z</time></trkpt><trkpt lat="43.9276138" lon="12.6213229"><ele>159.0</ele><time>2026-03-22T09:12:30.974Z</time></trkpt><trkpt lat="43.9274939" lon="12.6212503"><ele>158.25</ele><time>2026-03-22T09:12:31.973Z</time></trkpt><trkpt lat="43.9273723" lon="12.6211758"><ele>157.5</ele><time>2026-03-22T09:12:32.974Z</time></trkpt><trkpt lat="43.9272426" lon="12.6211062"><ele>156.75</ele><time>2026-03-22T09:12:33.973Z</time></trkpt><trkpt lat="43.9271009" lon="12.621046"><ele>156.0</ele><time>2026-03-22T09:12:34.973Z</time></trkpt><trkpt lat="43.9269504" lon="12.6209806"><ele>157.0</ele><time>2026-03-22T09:12:35.974Z</time></trkpt><trkpt lat="43.9268008" lon="12.6209031"><ele>158.0</ele><time>2026-03-22T09:12:36.973Z</time></trkpt><trkpt lat="43.9266581" lon="12.620801"><ele>159.0</ele><time>2026-03-22T09:12:37.974Z</time></trkpt><trkpt lat="43.9265185" lon="12.6206916"><ele>159.0</ele><time>2026-03-22T09:12:38.973Z</time></trkpt><trkpt lat="43.9263803" lon="12.6205782"><ele>159.0</ele><time>2026-03-22T09:12:39.974Z</time></trkpt><trkpt lat="43.9262446" lon="12.6204571"><ele>159.0</ele><time>2026-03-22T09:12:40.974Z</time></trkpt><trkpt lat="43.9261109" lon="12.6203391"><ele>161.0</ele><time>2026-03-22T09:12:41.974Z</time></trkpt><trkpt lat="43.9259815" lon="12.6202165"><ele>163.0</ele><time>2026-03-22T09:12:42.974Z</time></trkpt><trkpt lat="43.9258575" lon="12.6200884"><ele>165.0</ele><time>2026-03-22T09:12:43.973Z</time></trkpt><trkpt lat="43.9257353" lon="12.619966"><ele>165.5</ele><time>2026-03-22T09:12:44.973Z</time></trkpt><trkpt lat="43.9256077" lon="12.6198562"><ele>166.0</ele><time>2026-03-22T09:12:45.973Z</time></trkpt><trkpt lat="43.925479" lon="12.6197557"><ele>166.5</ele><time>2026-03-22T09:12:46.974Z</time></trkpt><trkpt lat="43.925352" lon="12.6196611"><ele>167.0</ele><time>2026-03-22T09:12:47.974Z</time></trkpt><trkpt lat="43.9252239" lon="12.6195668"><ele>167.5</ele><time>2026-03-22T09:12:48.974Z</time></trkpt><trkpt lat="43.9250967" lon="12.6194753"><ele>168.0</ele><time>2026-03-22T09:12:49.973Z</time></trkpt><trkpt lat="43.9249694" lon="12.6193834"><ele>168.5</ele><time>2026-03-22T09:12:50.973Z</time></trkpt><trkpt lat="43.9248342" lon="12.6192863"><ele>169.0</ele><time>2026-03-22T09:12:51.974Z</time></trkpt><trkpt lat="43.9246993" lon="12.6191889"><ele>171.0</ele><time>2026-03-22T09:12:52.973Z</time></trkpt><trkpt lat="43.9245629" lon="12.6190966"><ele>173.0</ele><time>2026-03-22T09:12:53.974Z</time></trkpt><trkpt lat="43.9244265" lon="12.619007"><ele>175.0</ele><time>2026-03-22T09:12:54.974Z</time></trkpt><trkpt lat="43.9242962" lon="12.6189173"><ele>177.0</ele><time>2026-03-22T09:12:55.973Z</time></trkpt><trkpt lat="43.9241821" lon="12.6188414"><ele>178.0</ele><time>2026-03-22T09:12:56.974Z</time></trkpt><trkpt lat="43.9240788" lon="12.6187708"><ele>179.0</ele><time>2026-03-22T09:12:57.973Z</time></trkpt><trkpt lat="43.9239777" lon="12.6186996"><ele>180.0</ele><time>2026-03-22T09:12:58.973Z</time></trkpt><trkpt lat="43.9238744" lon="12.618626"><ele>181.0</ele><time>2026-03-22T09:12:59.972Z</time></trkpt><trkpt lat="43.9237679" lon="12.6185521"><ele>181.8</ele><time>2026-03-22T09:13:00.974Z</time></trkpt><trkpt lat="43.9236608" lon="12.6184787"><ele>182.60000000000002</ele><time>2026-03-22T09:13:01.973Z</time></trkpt><trkpt lat="43.9235576" lon="12.6184075"><ele>183.4</ele><time>2026-03-22T09:13:02.972Z</time></trkpt><trkpt lat="43.9234632" lon="12.6183411"><ele>184.2</ele><time>2026-03-22T09:13:03.974Z</time></trkpt><trkpt lat="43.9233798" lon="12.6182756"><ele>185.0</ele><time>2026-03-22T09:13:04.974Z</time></trkpt><trkpt lat="43.9233071" lon="12.6182123"><ele>186.4</ele><time>2026-03-22T09:13:05.974Z</time></trkpt><trkpt lat="43.9232472" lon="12.618159"><ele>187.8</ele><time>2026-03-22T09:13:06.974Z</time></trkpt><trkpt lat="43.9231356" lon="12.6181464"><ele>189.2</ele><time>2026-03-22T09:13:08.973Z</time></trkpt><trkpt lat="43.9230666" lon="12.6181952"><ele>190.6</ele><time>2026-03-22T09:13:09.973Z</time></trkpt><trkpt lat="43.9229878" lon="12.6182759"><ele>192.0</ele><time>2026-03-22T09:13:10.973Z</time></trkpt><trkpt lat="43.9228963" lon="12.6183715"><ele>192.0</ele><time>2026-03-22T09:13:11.973Z</time></trkpt><trkpt lat="43.9227973" lon="12.6184664"><ele>192.0</ele><time>2026-03-22T09:13:12.974Z</time></trkpt><trkpt lat="43.9226895" lon="12.6185667"><ele>192.0</ele><time>2026-03-22T09:13:13.974Z</time></trkpt><trkpt lat="43.9225799" lon="12.6186738"><ele>192.0</ele><time>2026-03-22T09:13:14.973Z</time></trkpt><trkpt lat="43.9224686" lon="12.6187823"><ele>192.0</ele><time>2026-03-22T09:13:15.972Z</time></trkpt><trkpt lat="43.9223529" lon="12.6188861"><ele>192.0</ele><time>2026-03-22T09:13:16.973Z</time></trkpt><trkpt lat="43.9222418" lon="12.618995"><ele>192.0</ele><time>2026-03-22T09:13:17.973Z</time></trkpt><trkpt lat="43.9221322" lon="12.6191004"><ele>192.0</ele><time>2026-03-22T09:13:18.973Z</time></trkpt><trkpt lat="43.9220212" lon="12.6192018"><ele>192.0</ele><time>2026-03-22T09:13:19.973Z</time></trkpt><trkpt lat="43.9219085" lon="12.6193008"><ele>192.0</ele><time>2026-03-22T09:13:20.973Z</time></trkpt><trkpt lat="43.9217902" lon="12.6194018"><ele>192.0</ele><time>2026-03-22T09:13:21.973Z</time></trkpt><trkpt lat="43.9216719" lon="12.6195006"><ele>192.0</ele><time>2026-03-22T09:13:22.974Z</time></trkpt><trkpt lat="43.9215589" lon="12.6195944"><ele>191.75</ele><time>2026-03-22T09:13:23.973Z</time></trkpt><trkpt lat="43.9214525" lon="12.6196845"><ele>191.5</ele><time>2026-03-22T09:13:24.973Z</time></trkpt><trkpt lat="43.9213596" lon="12.6197791"><ele>191.25</ele><time>2026-03-22T09:13:25.973Z</time></trkpt><trkpt lat="43.9212828" lon="12.6198914"><ele>191.0</ele><time>2026-03-22T09:13:26.973Z</time></trkpt><trkpt lat="43.9212218" lon="12.6200257"><ele>191.0</ele><time>2026-03-22T09:13:27.974Z</time></trkpt><trkpt lat="43.9211742" lon="12.6201873"><ele>191.0</ele><time>2026-03-22T09:13:28.972Z</time></trkpt><trkpt lat="43.9211342" lon="12.6203584"><ele>191.0</ele><time>2026-03-22T09:13:29.974Z</time></trkpt><trkpt lat="43.9210948" lon="12.6205368"><ele>191.0</ele><time>2026-03-22T09:13:30.973Z</time></trkpt><trkpt lat="43.9210519" lon="12.6207223"><ele>189.5</ele><time>2026-03-22T09:13:31.974Z</time></trkpt><trkpt lat="43.921007" lon="12.6209144"><ele>188.0</ele><time>2026-03-22T09:13:32.974Z</time></trkpt><trkpt lat="43.9209701" lon="12.6211066"><ele>186.5</ele><time>2026-03-22T09:13:33.974Z</time></trkpt><trkpt lat="43.9209395" lon="12.6213026"><ele>185.0</ele><time>2026-03-22T09:13:34.974Z</time></trkpt><trkpt lat="43.9209161" lon="12.621498"><ele>186.0</ele><time>2026-03-22T09:13:35.973Z</time></trkpt><trkpt lat="43.9208968" lon="12.6217026"><ele>187.0</ele><time>2026-03-22T09:13:36.974Z</time></trkpt><trkpt lat="43.9208812" lon="12.6219098"><ele>188.0</ele><time>2026-03-22T09:13:37.974Z</time></trkpt><trkpt lat="43.9208665" lon="12.6221049"><ele>189.0</ele><time>2026-03-22T09:13:38.973Z</time></trkpt><trkpt lat="43.9208514" lon="12.6222933"><ele>189.0</ele><time>2026-03-22T09:13:39.974Z</time></trkpt><trkpt lat="43.9208364" lon="12.6224812"><ele>189.0</ele><time>2026-03-22T09:13:40.973Z</time></trkpt><trkpt lat="43.9208199" lon="12.6226667"><ele>189.0</ele><time>2026-03-22T09:13:41.974Z</time></trkpt><trkpt lat="43.9208027" lon="12.6228507"><ele>189.0</ele><time>2026-03-22T09:13:42.974Z</time></trkpt><trkpt lat="43.9207877" lon="12.6230318"><ele>187.75</ele><time>2026-03-22T09:13:43.974Z</time></trkpt><trkpt lat="43.9207731" lon="12.623206"><ele>186.5</ele><time>2026-03-22T09:13:44.974Z</time></trkpt><trkpt lat="43.9207603" lon="12.6233747"><ele>185.25</ele><time>2026-03-22T09:13:45.974Z</time></trkpt><trkpt lat="43.9207537" lon="12.6235373"><ele>184.0</ele><time>2026-03-22T09:13:46.972Z</time></trkpt><trkpt lat="43.9207539" lon="12.6236948"><ele>182.79999999999998</ele><time>2026-03-22T09:13:47.973Z</time></trkpt><trkpt lat="43.9207581" lon="12.6238435"><ele>181.6</ele><time>2026-03-22T09:13:48.974Z</time></trkpt><trkpt lat="43.9207673" lon="12.6239759"><ele>180.4</ele><time>2026-03-22T09:13:49.973Z</time></trkpt><trkpt lat="43.9207726" lon="12.624093"><ele>179.2</ele><time>2026-03-22T09:13:50.973Z</time></trkpt><trkpt lat="43.9207791" lon="12.6241846"><ele>178.0</ele><time>2026-03-22T09:13:51.973Z</time></trkpt><trkpt lat="43.9207933" lon="12.6243377"><ele>178.0</ele><time>2026-03-22T09:13:53.974Z</time></trkpt><trkpt lat="43.9208011" lon="12.6244298"><ele>178.0</ele><time>2026-03-22T09:13:55.973Z</time></trkpt><trkpt lat="43.9208131" lon="12.6245239"><ele>178.0</ele><time>2026-03-22T09:14:01.973Z</time></trkpt><trkpt lat="43.9207832" lon="12.6246293"><ele>178.0</ele><time>2026-03-22T09:14:05.974Z</time></trkpt><trkpt lat="43.9207281" lon="12.6246888"><ele>178.0</ele><time>2026-03-22T09:14:07.974Z</time></trkpt><trkpt lat="43.9206468" lon="12.6247603"><ele>178.0</ele><time>2026-03-22T09:14:09.973Z</time></trkpt><trkpt lat="43.9205539" lon="12.6248657"><ele>177.28571428571428</ele><time>2026-03-22T09:14:11.974Z</time></trkpt><trkpt lat="43.9205027" lon="12.6249246"><ele>176.57142857142856</ele><time>2026-03-22T09:14:12.974Z</time></trkpt><trkpt lat="43.9204536" lon="12.6249887"><ele>175.85714285714283</ele><time>2026-03-22T09:14:13.974Z</time></trkpt><trkpt lat="43.9203904" lon="12.6251153"><ele>175.14285714285714</ele><time>2026-03-22T09:14:15.973Z</time></trkpt><trkpt lat="43.9203585" lon="12.6251986"><ele>174.42857142857144</ele><time>2026-03-22T09:14:17.973Z</time></trkpt><trkpt lat="43.9203217" lon="12.6252747"><ele>173.7142857142857</ele><time>2026-03-22T09:14:19.974Z</time></trkpt><trkpt lat="43.9202755" lon="12.6253445"><ele>173.0</ele><time>2026-03-22T09:14:21.973Z</time></trkpt><trkpt lat="43.9202226" lon="12.6254664"><ele>172.0</ele><time>2026-03-22T09:14:23.974Z</time></trkpt><trkpt lat="43.9201992" lon="12.6256048"><ele>171.0</ele><time>2026-03-22T09:14:25.974Z</time></trkpt><trkpt lat="43.9201727" lon="12.6257002"><ele>170.0</ele><time>2026-03-22T09:14:27.974Z</time></trkpt><trkpt lat="43.9201258" lon="12.6257767"><ele>169.0</ele><time>2026-03-22T09:14:30.973Z</time></trkpt><trkpt lat="43.9200299" lon="12.6257852"><ele>168.0</ele><time>2026-03-22T09:14:32.973Z</time></trkpt><trkpt lat="43.919925" lon="12.6257745"><ele>166.66666666666666</ele><time>2026-03-22T09:14:34.974Z</time></trkpt><trkpt lat="43.9197903" lon="12.6257678"><ele>165.33333333333334</ele><time>2026-03-22T09:14:36.973Z</time></trkpt><trkpt lat="43.9197154" lon="12.6257559"><ele>164.0</ele><time>2026-03-22T09:14:37.973Z</time></trkpt><trkpt lat="43.9196457" lon="12.6257446"><ele>162.66666666666669</ele><time>2026-03-22T09:14:38.974Z</time></trkpt><trkpt lat="43.9195741" lon="12.6257315"><ele>161.33333333333334</ele><time>2026-03-22T09:14:39.974Z</time></trkpt><trkpt lat="43.9195051" lon="12.6257166"><ele>160.0</ele><time>2026-03-22T09:14:40.973Z</time></trkpt><trkpt lat="43.9193995" lon="12.625708"><ele>160.0</ele><time>2026-03-22T09:14:42.974Z</time></trkpt><trkpt lat="43.9193321" lon="12.6257554"><ele>160.0</ele><time>2026-03-22T09:14:44.974Z</time></trkpt><trkpt lat="43.9193008" lon="12.6258354"><ele>160.0</ele><time>2026-03-22T09:14:46.974Z</time></trkpt><trkpt lat="43.9192639" lon="12.6259154"><ele>160.0</ele><time>2026-03-22T09:14:48.973Z</time></trkpt><trkpt lat="43.9192227" lon="12.6260011"><ele>160.0</ele><time>2026-03-22T09:14:50.973Z</time></trkpt><trkpt lat="43.9191824" lon="12.6260746"><ele>160.0</ele><time>2026-03-22T09:14:52.973Z</time></trkpt><trkpt lat="43.9191246" lon="12.6261218"><ele>160.0</ele><time>2026-03-22T09:14:54.973Z</time></trkpt><trkpt lat="43.9190304" lon="12.6261647"><ele>157.6</ele><time>2026-03-22T09:14:56.973Z</time></trkpt><trkpt lat="43.9189618" lon="12.6262322"><ele>155.2</ele><time>2026-03-22T09:14:58.974Z</time></trkpt><trkpt lat="43.9188883" lon="12.626315"><ele>152.8</ele><time>2026-03-22T09:15:00.974Z</time></trkpt><trkpt lat="43.9188029" lon="12.626407"><ele>150.4</ele><time>2026-03-22T09:15:02.974Z</time></trkpt><trkpt lat="43.9187248" lon="12.626504"><ele>148.0</ele><time>2026-03-22T09:15:04.973Z</time></trkpt><trkpt lat="43.9186547" lon="12.6265872"><ele>148.0</ele><time>2026-03-22T09:15:06.973Z</time></trkpt><trkpt lat="43.9185883" lon="12.626665"><ele>148.0</ele><time>2026-03-22T09:15:08.973Z</time></trkpt><trkpt lat="43.9184981" lon="12.6267862"><ele>148.0</ele><time>2026-03-22T09:15:10.973Z</time></trkpt><trkpt lat="43.9184178" lon="12.6268717"><ele>148.0</ele><time>2026-03-22T09:15:12.973Z</time></trkpt><trkpt lat="43.9183585" lon="12.6269146"><ele>148.0</ele><time>2026-03-22T09:15:14.973Z</time></trkpt><trkpt lat="43.9182906" lon="12.6269119"><ele>148.0</ele><time>2026-03-22T09:15:16.974Z</time></trkpt><trkpt lat="43.91821" lon="12.6268528"><ele>147.66666666666669</ele><time>2026-03-22T09:15:18.974Z</time></trkpt><trkpt lat="43.9181437" lon="12.6267878"><ele>147.33333333333334</ele><time>2026-03-22T09:15:20.974Z</time></trkpt><trkpt lat="43.9180713" lon="12.6267123"><ele>147.0</ele><time>2026-03-22T09:15:22.973Z</time></trkpt><trkpt lat="43.9180331" lon="12.6266313"><ele>146.66666666666666</ele><time>2026-03-22T09:15:36.974Z</time></trkpt><trkpt lat="43.9179654" lon="12.6266074"><ele>146.33333333333331</ele><time>2026-03-22T09:15:41.973Z</time></trkpt><trkpt lat="43.9179016" lon="12.6267452"><ele>146.0</ele><time>2026-03-22T09:15:44.974Z</time></trkpt><trkpt lat="43.9178539" lon="12.6268564"><ele>144.0</ele><time>2026-03-22T09:15:45.974Z</time></trkpt><trkpt lat="43.9177967" lon="12.6269825"><ele>142.0</ele><time>2026-03-22T09:15:46.973Z</time></trkpt><trkpt lat="43.9177452" lon="12.6271048"><ele>140.0</ele><time>2026-03-22T09:15:47.974Z</time></trkpt><trkpt lat="43.9176965" lon="12.6272271"><ele>138.0</ele><time>2026-03-22T09:15:48.974Z</time></trkpt><trkpt lat="43.9176514" lon="12.6273481"><ele>136.0</ele><time>2026-03-22T09:15:49.974Z</time></trkpt><trkpt lat="43.9176084" lon="12.6274612"><ele>134.8</ele><time>2026-03-22T09:15:50.974Z</time></trkpt><trkpt lat="43.9175676" lon="12.6275712"><ele>133.6</ele><time>2026-03-22T09:15:51.973Z</time></trkpt><trkpt lat="43.9175279" lon="12.6276864"><ele>132.4</ele><time>2026-03-22T09:15:52.974Z</time></trkpt><trkpt lat="43.9174887" lon="12.6278026"><ele>131.2</ele><time>2026-03-22T09:15:53.974Z</time></trkpt><trkpt lat="43.9174478" lon="12.6279203"><ele>130.0</ele><time>2026-03-22T09:15:54.973Z</time></trkpt><trkpt lat="43.9174087" lon="12.6280421"><ele>128.6</ele><time>2026-03-22T09:15:55.973Z</time></trkpt><trkpt lat="43.9173716" lon="12.6281643"><ele>127.2</ele><time>2026-03-22T09:15:56.973Z</time></trkpt><trkpt lat="43.9173335" lon="12.6282848"><ele>125.80000000000001</ele><time>2026-03-22T09:15:57.974Z</time></trkpt><trkpt lat="43.9172984" lon="12.6284091"><ele>124.4</ele><time>2026-03-22T09:15:58.974Z</time></trkpt><trkpt lat="43.9172653" lon="12.6285305"><ele>123.0</ele><time>2026-03-22T09:15:59.972Z</time></trkpt><trkpt lat="43.9172343" lon="12.6286498"><ele>121.66666666666667</ele><time>2026-03-22T09:16:00.973Z</time></trkpt><trkpt lat="43.9172079" lon="12.628767"><ele>120.33333333333334</ele><time>2026-03-22T09:16:01.973Z</time></trkpt><trkpt lat="43.9171872" lon="12.6288716"><ele>119.0</ele><time>2026-03-22T09:16:02.974Z</time></trkpt><trkpt lat="43.9171723" lon="12.6289677"><ele>117.66666666666667</ele><time>2026-03-22T09:16:03.974Z</time></trkpt><trkpt lat="43.9171623" lon="12.6290628"><ele>116.33333333333334</ele><time>2026-03-22T09:16:04.974Z</time></trkpt><trkpt lat="43.9171522" lon="12.6292213"><ele>115.0</ele><time>2026-03-22T09:16:06.973Z</time></trkpt><trkpt lat="43.9171518" lon="12.6293616"><ele>113.33333333333334</ele><time>2026-03-22T09:16:08.973Z</time></trkpt><trkpt lat="43.917153" lon="12.629492"><ele>111.66666666666667</ele><time>2026-03-22T09:16:10.974Z</time></trkpt><trkpt lat="43.9171531" lon="12.6296056"><ele>110.0</ele><time>2026-03-22T09:16:12.974Z</time></trkpt><trkpt lat="43.9171576" lon="12.6297132"><ele>108.33333333333334</ele><time>2026-03-22T09:16:14.973Z</time></trkpt><trkpt lat="43.9171585" lon="12.6298212"><ele>106.66666666666667</ele><time>2026-03-22T09:16:16.974Z</time></trkpt><trkpt lat="43.9171269" lon="12.6299209"><ele>105.0</ele><time>2026-03-22T09:16:18.974Z</time></trkpt><trkpt lat="43.9170535" lon="12.6300339"><ele>105.0</ele><time>2026-03-22T09:16:20.974Z</time></trkpt><trkpt lat="43.9169811" lon="12.6301442"><ele>105.0</ele><time>2026-03-22T09:16:22.973Z</time></trkpt><trkpt lat="43.9169044" lon="12.6302561"><ele>105.0</ele><time>2026-03-22T09:16:24.973Z</time></trkpt><trkpt lat="43.9167994" lon="12.6303652"><ele>105.0</ele><time>2026-03-22T09:16:26.974Z</time></trkpt><trkpt lat="43.9167426" lon="12.6304252"><ele>105.0</ele><time>2026-03-22T09:16:27.972Z</time></trkpt><trkpt lat="43.9166852" lon="12.6304956"><ele>104.33333333333333</ele><time>2026-03-22T09:16:28.973Z</time></trkpt><trkpt lat="43.9166317" lon="12.6305665"><ele>103.66666666666666</ele><time>2026-03-22T09:16:29.974Z</time></trkpt><trkpt lat="43.9165851" lon="12.6306369"><ele>103.0</ele><time>2026-03-22T09:16:30.974Z</time></trkpt><trkpt lat="43.916531" lon="12.630709"><ele>102.33333333333333</ele><time>2026-03-22T09:16:31.973Z</time></trkpt><trkpt lat="43.9164709" lon="12.6307883"><ele>101.66666666666666</ele><time>2026-03-22T09:16:32.974Z</time></trkpt><trkpt lat="43.9164122" lon="12.6308767"><ele>101.0</ele><time>2026-03-22T09:16:33.974Z</time></trkpt><trkpt lat="43.9163485" lon="12.6309677"><ele>101.0</ele><time>2026-03-22T09:16:34.972Z</time></trkpt><trkpt lat="43.9162814" lon="12.6310593"><ele>101.0</ele><time>2026-03-22T09:16:35.974Z</time></trkpt><trkpt lat="43.9162081" lon="12.6311489"><ele>101.0</ele><time>2026-03-22T09:16:36.973Z</time></trkpt><trkpt lat="43.9161356" lon="12.6312355"><ele>101.0</ele><time>2026-03-22T09:16:37.973Z</time></trkpt><trkpt lat="43.9160643" lon="12.6313212"><ele>101.0</ele><time>2026-03-22T09:16:38.974Z</time></trkpt><trkpt lat="43.9159872" lon="12.6314168"><ele>100.8</ele><time>2026-03-22T09:16:39.974Z</time></trkpt><trkpt lat="43.9159052" lon="12.6315164"><ele>100.6</ele><time>2026-03-22T09:16:40.973Z</time></trkpt><trkpt lat="43.9158249" lon="12.6316131"><ele>100.4</ele><time>2026-03-22T09:16:41.973Z</time></trkpt><trkpt lat="43.9157488" lon="12.6317118"><ele>100.2</ele><time>2026-03-22T09:16:42.974Z</time></trkpt><trkpt lat="43.9156814" lon="12.6318033"><ele>100.0</ele><time>2026-03-22T09:16:43.974Z</time></trkpt><trkpt lat="43.9156233" lon="12.6318802"><ele>99.00000000000001</ele><time>2026-03-22T09:16:44.973Z</time></trkpt><trkpt lat="43.9155642" lon="12.631949"><ele>98.0</ele><time>2026-03-22T09:16:45.974Z</time></trkpt><trkpt lat="43.915501" lon="12.6320063"><ele>97.0</ele><time>2026-03-22T09:16:46.973Z</time></trkpt><trkpt lat="43.9154266" lon="12.6320453"><ele>96.0</ele><time>2026-03-22T09:16:47.974Z</time></trkpt><trkpt lat="43.9153343" lon="12.632069"><ele>95.0</ele><time>2026-03-22T09:16:48.974Z</time></trkpt><trkpt lat="43.9152307" lon="12.6320822"><ele>94.0</ele><time>2026-03-22T09:16:49.973Z</time></trkpt><trkpt lat="43.9151294" lon="12.6320985"><ele>92.4</ele><time>2026-03-22T09:16:50.972Z</time></trkpt><trkpt lat="43.9150319" lon="12.6321146"><ele>90.80000000000001</ele><time>2026-03-22T09:16:51.974Z</time></trkpt><trkpt lat="43.9149304" lon="12.6321299"><ele>89.19999999999999</ele><time>2026-03-22T09:16:52.974Z</time></trkpt><trkpt lat="43.9148208" lon="12.632142"><ele>87.6</ele><time>2026-03-22T09:16:53.974Z</time></trkpt><trkpt lat="43.9147086" lon="12.6321512"><ele>86.0</ele><time>2026-03-22T09:16:54.974Z</time></trkpt><trkpt lat="43.9145962" lon="12.6321652"><ele>86.0</ele><time>2026-03-22T09:16:55.972Z</time></trkpt><trkpt lat="43.9144868" lon="12.6321822"><ele>86.0</ele><time>2026-03-22T09:16:56.974Z</time></trkpt><trkpt lat="43.9143787" lon="12.6321951"><ele>86.0</ele><time>2026-03-22T09:16:57.973Z</time></trkpt><trkpt lat="43.9142748" lon="12.6322078"><ele>86.0</ele><time>2026-03-22T09:16:58.974Z</time></trkpt><trkpt lat="43.9141777" lon="12.6322208"><ele>86.0</ele><time>2026-03-22T09:16:59.974Z</time></trkpt><trkpt lat="43.9140862" lon="12.6322343"><ele>85.66666666666667</ele><time>2026-03-22T09:17:00.973Z</time></trkpt><trkpt lat="43.914" lon="12.6322475"><ele>85.33333333333334</ele><time>2026-03-22T09:17:01.974Z</time></trkpt><trkpt lat="43.9139205" lon="12.6322607"><ele>85.0</ele><time>2026-03-22T09:17:02.974Z</time></trkpt><trkpt lat="43.9138439" lon="12.6322695"><ele>84.66666666666667</ele><time>2026-03-22T09:17:03.973Z</time></trkpt><trkpt lat="43.9137738" lon="12.6322816"><ele>84.33333333333333</ele><time>2026-03-22T09:17:04.973Z</time></trkpt><trkpt lat="43.9137084" lon="12.6322927"><ele>84.0</ele><time>2026-03-22T09:17:05.974Z</time></trkpt><trkpt lat="43.9135952" lon="12.6322988"><ele>84.0</ele><time>2026-03-22T09:17:07.974Z</time></trkpt><trkpt lat="43.9135066" lon="12.6323097"><ele>84.0</ele><time>2026-03-22T09:17:09.974Z</time></trkpt><trkpt lat="43.9134298" lon="12.6323293"><ele>84.0</ele><time>2026-03-22T09:21:10.973Z</time></trkpt><trkpt lat="43.9133611" lon="12.6323429"><ele>84.0</ele><time>2026-03-22T09:21:16.974Z</time></trkpt><trkpt lat="43.9133123" lon="12.632404"><ele>84.0</ele><time>2026-03-22T09:21:19.973Z</time></trkpt><trkpt lat="43.9132742" lon="12.6325646"><ele>84.0</ele><time>2026-03-22T09:21:21.973Z</time></trkpt><trkpt lat="43.9132742" lon="12.6326683"><ele>83.6</ele><time>2026-03-22T09:21:22.974Z</time></trkpt><trkpt lat="43.9132696" lon="12.6327745"><ele>83.2</ele><time>2026-03-22T09:21:23.973Z</time></trkpt><trkpt lat="43.9132651" lon="12.6328989"><ele>82.8</ele><time>2026-03-22T09:21:24.974Z</time></trkpt><trkpt lat="43.9132629" lon="12.6330356"><ele>82.39999999999999</ele><time>2026-03-22T09:21:25.974Z</time></trkpt><trkpt lat="43.9132604" lon="12.6331825"><ele>82.0</ele><time>2026-03-22T09:21:26.973Z</time></trkpt><trkpt lat="43.9132563" lon="12.6333186"><ele>81.6</ele><time>2026-03-22T09:21:27.973Z</time></trkpt><trkpt lat="43.9132531" lon="12.63346"><ele>81.19999999999999</ele><time>2026-03-22T09:21:28.973Z</time></trkpt><trkpt lat="43.9132503" lon="12.6336103"><ele>80.8</ele><time>2026-03-22T09:21:29.974Z</time></trkpt><trkpt lat="43.913247" lon="12.6337642"><ele>80.4</ele><time>2026-03-22T09:21:30.972Z</time></trkpt><trkpt lat="43.9132421" lon="12.633931"><ele>80.0</ele><time>2026-03-22T09:21:31.974Z</time></trkpt><trkpt lat="43.913239" lon="12.6341079"><ele>79.0</ele><time>2026-03-22T09:21:32.974Z</time></trkpt><trkpt lat="43.9132342" lon="12.6342771"><ele>78.0</ele><time>2026-03-22T09:21:33.973Z</time></trkpt><trkpt lat="43.9132309" lon="12.6344341"><ele>77.0</ele><time>2026-03-22T09:21:34.974Z</time></trkpt><trkpt lat="43.9132274" lon="12.6345883"><ele>76.0</ele><time>2026-03-22T09:21:35.974Z</time></trkpt><trkpt lat="43.9132228" lon="12.6347392"><ele>75.6</ele><time>2026-03-22T09:21:36.973Z</time></trkpt><trkpt lat="43.9132193" lon="12.6348966"><ele>75.19999999999999</ele><time>2026-03-22T09:21:37.974Z</time></trkpt><trkpt lat="43.9132147" lon="12.6350454"><ele>74.80000000000001</ele><time>2026-03-22T09:21:38.974Z</time></trkpt><trkpt lat="43.9132117" lon="12.6351934"><ele>74.4</ele><time>2026-03-22T09:21:39.973Z</time></trkpt><trkpt lat="43.9132066" lon="12.6353557"><ele>74.0</ele><time>2026-03-22T09:21:40.974Z</time></trkpt><trkpt lat="43.9132004" lon="12.6355254"><ele>73.75</ele><time>2026-03-22T09:21:41.974Z</time></trkpt><trkpt lat="43.9131976" lon="12.6356986"><ele>73.5</ele><time>2026-03-22T09:21:42.972Z</time></trkpt><trkpt lat="43.9131983" lon="12.6358631"><ele>73.25</ele><time>2026-03-22T09:21:43.974Z</time></trkpt><trkpt lat="43.9132042" lon="12.6360144"><ele>73.0</ele><time>2026-03-22T09:21:44.974Z</time></trkpt><trkpt lat="43.9132219" lon="12.63617"><ele>73.25</ele><time>2026-03-22T09:21:45.974Z</time></trkpt><trkpt lat="43.9132532" lon="12.636328"><ele>73.5</ele><time>2026-03-22T09:21:46.974Z</time></trkpt><trkpt lat="43.9132948" lon="12.6364816"><ele>73.75</ele><time>2026-03-22T09:21:47.972Z</time></trkpt><trkpt lat="43.9133462" lon="12.6366378"><ele>74.0</ele><time>2026-03-22T09:21:48.974Z</time></trkpt><trkpt lat="43.9134078" lon="12.6367883"><ele>74.0</ele><time>2026-03-22T09:21:49.973Z</time></trkpt><trkpt lat="43.9134753" lon="12.6369354"><ele>74.0</ele><time>2026-03-22T09:21:50.974Z</time></trkpt><trkpt lat="43.9135437" lon="12.6370777"><ele>74.0</ele><time>2026-03-22T09:21:51.973Z</time></trkpt><trkpt lat="43.9136093" lon="12.6372153"><ele>74.0</ele><time>2026-03-22T09:21:52.974Z</time></trkpt><trkpt lat="43.9136753" lon="12.6373475"><ele>74.0</ele><time>2026-03-22T09:21:53.974Z</time></trkpt><trkpt lat="43.913743" lon="12.6374825"><ele>74.0</ele><time>2026-03-22T09:21:54.972Z</time></trkpt><trkpt lat="43.9138116" lon="12.6376198"><ele>74.0</ele><time>2026-03-22T09:21:55.973Z</time></trkpt><trkpt lat="43.9138785" lon="12.6377605"><ele>74.0</ele><time>2026-03-22T09:21:56.973Z</time></trkpt><trkpt lat="43.9139489" lon="12.6379017"><ele>74.0</ele><time>2026-03-22T09:21:57.973Z</time></trkpt><trkpt lat="43.9140159" lon="12.6380392"><ele>74.0</ele><time>2026-03-22T09:21:58.973Z</time></trkpt><trkpt lat="43.9140835" lon="12.6381749"><ele>74.0</ele><time>2026-03-22T09:21:59.973Z</time></trkpt><trkpt lat="43.914148" lon="12.6383069"><ele>74.0</ele><time>2026-03-22T09:22:00.973Z</time></trkpt><trkpt lat="43.9142105" lon="12.6384321"><ele>73.8</ele><time>2026-03-22T09:22:01.973Z</time></trkpt><trkpt lat="43.9142723" lon="12.6385497"><ele>73.60000000000001</ele><time>2026-03-22T09:22:02.973Z</time></trkpt><trkpt lat="43.9143302" lon="12.6386672"><ele>73.4</ele><time>2026-03-22T09:22:03.974Z</time></trkpt><trkpt lat="43.9143888" lon="12.638778"><ele>73.2</ele><time>2026-03-22T09:22:04.973Z</time></trkpt><trkpt lat="43.9144397" lon="12.6388852"><ele>73.0</ele><time>2026-03-22T09:22:05.974Z</time></trkpt><trkpt lat="43.914489" lon="12.6389831"><ele>73.0</ele><time>2026-03-22T09:22:06.974Z</time></trkpt><trkpt lat="43.9145337" lon="12.6390743"><ele>73.0</ele><time>2026-03-22T09:22:07.974Z</time></trkpt><trkpt lat="43.9145713" lon="12.6391618"><ele>73.0</ele><time>2026-03-22T09:22:08.974Z</time></trkpt><trkpt lat="43.9146045" lon="12.6392452"><ele>73.0</ele><time>2026-03-22T09:22:09.972Z</time></trkpt><trkpt lat="43.9146337" lon="12.6393259"><ele>73.0</ele><time>2026-03-22T09:22:10.974Z</time></trkpt><trkpt lat="43.9146621" lon="12.6394161"><ele>73.0</ele><time>2026-03-22T09:22:11.973Z</time></trkpt><trkpt lat="43.9146838" lon="12.6395132"><ele>73.0</ele><time>2026-03-22T09:22:12.973Z</time></trkpt><trkpt lat="43.9147072" lon="12.6396313"><ele>72.75</ele><time>2026-03-22T09:22:13.973Z</time></trkpt><trkpt lat="43.9147236" lon="12.6397725"><ele>72.5</ele><time>2026-03-22T09:22:14.974Z</time></trkpt><trkpt lat="43.9147246" lon="12.6399292"><ele>72.25</ele><time>2026-03-22T09:22:15.973Z</time></trkpt><trkpt lat="43.91471" lon="12.6400978"><ele>72.0</ele><time>2026-03-22T09:22:16.972Z</time></trkpt><trkpt lat="43.9146854" lon="12.6402771"><ele>70.5</ele><time>2026-03-22T09:22:17.974Z</time></trkpt><trkpt lat="43.914656" lon="12.640462"><ele>69.0</ele><time>2026-03-22T09:22:18.973Z</time></trkpt><trkpt lat="43.9146228" lon="12.6406546"><ele>67.5</ele><time>2026-03-22T09:22:19.974Z</time></trkpt><trkpt lat="43.9145889" lon="12.6408449"><ele>66.0</ele><time>2026-03-22T09:22:20.972Z</time></trkpt><trkpt lat="43.9145568" lon="12.6410277"><ele>65.5</ele><time>2026-03-22T09:22:21.974Z</time></trkpt><trkpt lat="43.9145209" lon="12.6412146"><ele>65.0</ele><time>2026-03-22T09:22:22.974Z</time></trkpt><trkpt lat="43.9144888" lon="12.6413897"><ele>64.5</ele><time>2026-03-22T09:22:23.974Z</time></trkpt><trkpt lat="43.9144579" lon="12.6415656"><ele>64.0</ele><time>2026-03-22T09:22:24.974Z</time></trkpt><trkpt lat="43.9144282" lon="12.6417396"><ele>64.0</ele><time>2026-03-22T09:22:25.974Z</time></trkpt><trkpt lat="43.9144005" lon="12.6418988"><ele>64.0</ele><time>2026-03-22T09:22:26.974Z</time></trkpt><trkpt lat="43.9143732" lon="12.642053"><ele>64.0</ele><time>2026-03-22T09:22:27.973Z</time></trkpt><trkpt lat="43.9143477" lon="12.6422011"><ele>64.0</ele><time>2026-03-22T09:22:28.974Z</time></trkpt><trkpt lat="43.9143229" lon="12.6423398"><ele>64.0</ele><time>2026-03-22T09:22:29.974Z</time></trkpt><trkpt lat="43.9143013" lon="12.6424633"><ele>64.33333333333333</ele><time>2026-03-22T09:22:30.974Z</time></trkpt><trkpt lat="43.9142857" lon="12.6425621"><ele>64.66666666666666</ele><time>2026-03-22T09:22:31.972Z</time></trkpt><trkpt lat="43.9142634" lon="12.6427132"><ele>65.0</ele><time>2026-03-22T09:22:33.973Z</time></trkpt><trkpt lat="43.9142553" lon="12.6428104"><ele>65.33333333333333</ele><time>2026-03-22T09:22:35.974Z</time></trkpt><trkpt lat="43.9142601" lon="12.6429112"><ele>65.66666666666667</ele><time>2026-03-22T09:22:37.974Z</time></trkpt><trkpt lat="43.9142749" lon="12.6430565"><ele>66.0</ele><time>2026-03-22T09:22:39.974Z</time></trkpt><trkpt lat="43.9142896" lon="12.643143"><ele>66.8</ele><time>2026-03-22T09:22:40.973Z</time></trkpt><trkpt lat="43.9143102" lon="12.6432467"><ele>67.6</ele><time>2026-03-22T09:22:41.974Z</time></trkpt><trkpt lat="43.9143326" lon="12.6433632"><ele>68.4</ele><time>2026-03-22T09:22:42.974Z</time></trkpt><trkpt lat="43.9143563" lon="12.6434845"><ele>69.2</ele><time>2026-03-22T09:22:43.974Z</time></trkpt><trkpt lat="43.9143826" lon="12.6436196"><ele>70.0</ele><time>2026-03-22T09:22:44.973Z</time></trkpt><trkpt lat="43.9144076" lon="12.6437582"><ele>70.2</ele><time>2026-03-22T09:22:45.974Z</time></trkpt><trkpt lat="43.9144331" lon="12.6439049"><ele>70.4</ele><time>2026-03-22T09:22:46.973Z</time></trkpt><trkpt lat="43.9144602" lon="12.6440517"><ele>70.6</ele><time>2026-03-22T09:22:47.974Z</time></trkpt><trkpt lat="43.9144818" lon="12.6441904"><ele>70.8</ele><time>2026-03-22T09:22:48.973Z</time></trkpt><trkpt lat="43.9144972" lon="12.6443303"><ele>71.0</ele><time>2026-03-22T09:22:49.974Z</time></trkpt><trkpt lat="43.9145078" lon="12.6444805"><ele>71.0</ele><time>2026-03-22T09:22:50.974Z</time></trkpt><trkpt lat="43.9145151" lon="12.644615"><ele>71.0</ele><time>2026-03-22T09:22:51.974Z</time></trkpt><trkpt lat="43.9145237" lon="12.6447431"><ele>71.0</ele><time>2026-03-22T09:22:52.974Z</time></trkpt><trkpt lat="43.9145282" lon="12.6448723"><ele>71.0</ele><time>2026-03-22T09:22:53.974Z</time></trkpt><trkpt lat="43.9145288" lon="12.6449926"><ele>71.0</ele><time>2026-03-22T09:22:54.974Z</time></trkpt><trkpt lat="43.9145319" lon="12.6451117"><ele>71.0</ele><time>2026-03-22T09:22:55.974Z</time></trkpt><trkpt lat="43.9145369" lon="12.6452142"><ele>71.0</ele><time>2026-03-22T09:22:56.974Z</time></trkpt><trkpt lat="43.9145375" lon="12.6453049"><ele>71.0</ele><time>2026-03-22T09:22:57.973Z</time></trkpt><trkpt lat="43.9145307" lon="12.6454429"><ele>71.0</ele><time>2026-03-22T09:22:59.974Z</time></trkpt><trkpt lat="43.9144905" lon="12.6455211"><ele>71.0</ele><time>2026-03-22T09:23:01.973Z</time></trkpt><trkpt lat="43.9144293" lon="12.6455498"><ele>71.0</ele><time>2026-03-22T09:23:03.974Z</time></trkpt><trkpt lat="43.9143654" lon="12.6455626"><ele>71.0</ele><time>2026-03-22T09:23:05.974Z</time></trkpt><trkpt lat="43.9142974" lon="12.6456074"><ele>70.83333333333334</ele><time>2026-03-22T09:23:07.973Z</time></trkpt><trkpt lat="43.9142811" lon="12.6456921"><ele>70.66666666666667</ele><time>2026-03-22T09:23:08.974Z</time></trkpt><trkpt lat="43.9142754" lon="12.6457984"><ele>70.5</ele><time>2026-03-22T09:23:09.973Z</time></trkpt><trkpt lat="43.9142762" lon="12.6459295"><ele>70.33333333333333</ele><time>2026-03-22T09:23:10.974Z</time></trkpt><trkpt lat="43.914279" lon="12.6460758"><ele>70.16666666666666</ele><time>2026-03-22T09:23:11.974Z</time></trkpt><trkpt lat="43.914281" lon="12.6462211"><ele>70.0</ele><time>2026-03-22T09:23:12.973Z</time></trkpt><trkpt lat="43.9142835" lon="12.6463612"><ele>70.4</ele><time>2026-03-22T09:23:13.973Z</time></trkpt><trkpt lat="43.9142817" lon="12.6465052"><ele>70.8</ele><time>2026-03-22T09:23:14.974Z</time></trkpt><trkpt lat="43.9142844" lon="12.6466542"><ele>71.2</ele><time>2026-03-22T09:23:15.974Z</time></trkpt><trkpt lat="43.9142849" lon="12.6468046"><ele>71.6</ele><time>2026-03-22T09:23:16.973Z</time></trkpt><trkpt lat="43.9142865" lon="12.6469537"><ele>72.0</ele><time>2026-03-22T09:23:17.973Z</time></trkpt><trkpt lat="43.9142884" lon="12.6470928"><ele>72.33333333333333</ele><time>2026-03-22T09:23:18.973Z</time></trkpt><trkpt lat="43.9142887" lon="12.6472187"><ele>72.66666666666667</ele><time>2026-03-22T09:23:19.973Z</time></trkpt><trkpt lat="43.91429" lon="12.6473335"><ele>73.0</ele><time>2026-03-22T09:23:20.973Z</time></trkpt><trkpt lat="43.9142921" lon="12.647438"><ele>73.33333333333334</ele><time>2026-03-22T09:23:21.974Z</time></trkpt><trkpt lat="43.914295" lon="12.6475489"><ele>73.66666666666667</ele><time>2026-03-22T09:23:22.974Z</time></trkpt><trkpt lat="43.9142977" lon="12.6476546"><ele>74.0</ele><time>2026-03-22T09:23:23.973Z</time></trkpt><trkpt lat="43.9143085" lon="12.6477475"><ele>74.60000000000001</ele><time>2026-03-22T09:23:24.973Z</time></trkpt><trkpt lat="43.9143351" lon="12.6479118"><ele>75.2</ele><time>2026-03-22T09:23:26.973Z</time></trkpt><trkpt lat="43.9143652" lon="12.6480657"><ele>75.80000000000001</ele><time>2026-03-22T09:23:28.973Z</time></trkpt><trkpt lat="43.9143815" lon="12.6481813"><ele>76.4</ele><time>2026-03-22T09:23:30.973Z</time></trkpt><trkpt lat="43.9143959" lon="12.6482829"><ele>77.0</ele><time>2026-03-22T09:23:32.973Z</time></trkpt><trkpt lat="43.914418" lon="12.6484061"><ele>77.0</ele><time>2026-03-22T09:23:35.974Z</time></trkpt><trkpt lat="43.914426" lon="12.6485353"><ele>77.0</ele><time>2026-03-22T09:23:37.974Z</time></trkpt><trkpt lat="43.9144595" lon="12.6487113"><ele>77.0</ele><time>2026-03-22T09:23:39.972Z</time></trkpt><trkpt lat="43.9144956" lon="12.6488228"><ele>77.0</ele><time>2026-03-22T09:23:40.973Z</time></trkpt><trkpt lat="43.914531" lon="12.6489444"><ele>77.0</ele><time>2026-03-22T09:23:41.974Z</time></trkpt><trkpt lat="43.9145682" lon="12.6490723"><ele>77.0</ele><time>2026-03-22T09:23:42.974Z</time></trkpt><trkpt lat="43.9146011" lon="12.6492133"><ele>77.0</ele><time>2026-03-22T09:23:43.973Z</time></trkpt><trkpt lat="43.9146404" lon="12.6493572"><ele>77.0</ele><time>2026-03-22T09:23:44.974Z</time></trkpt><trkpt lat="43.9146714" lon="12.6495019"><ele>77.0</ele><time>2026-03-22T09:23:45.973Z</time></trkpt><trkpt lat="43.9146986" lon="12.6496403"><ele>77.0</ele><time>2026-03-22T09:23:46.973Z</time></trkpt><trkpt lat="43.9147197" lon="12.6497713"><ele>77.0</ele><time>2026-03-22T09:23:47.974Z</time></trkpt><trkpt lat="43.9147423" lon="12.6498909"><ele>77.0</ele><time>2026-03-22T09:23:48.972Z</time></trkpt><trkpt lat="43.9147598" lon="12.6500015"><ele>77.0</ele><time>2026-03-22T09:23:49.973Z</time></trkpt><trkpt lat="43.914769" lon="12.6501201"><ele>77.0</ele><time>2026-03-22T09:23:50.973Z</time></trkpt><trkpt lat="43.9147825" lon="12.650259"><ele>77.0</ele><time>2026-03-22T09:23:51.974Z</time></trkpt><trkpt lat="43.9148057" lon="12.6504085"><ele>76.75</ele><time>2026-03-22T09:23:52.973Z</time></trkpt><trkpt lat="43.9148402" lon="12.6505654"><ele>76.5</ele><time>2026-03-22T09:23:53.973Z</time></trkpt><trkpt lat="43.9148852" lon="12.6507271"><ele>76.25</ele><time>2026-03-22T09:23:54.974Z</time></trkpt><trkpt lat="43.9149244" lon="12.65089"><ele>76.0</ele><time>2026-03-22T09:23:55.973Z</time></trkpt><trkpt lat="43.9149602" lon="12.6510432"><ele>76.2</ele><time>2026-03-22T09:23:56.974Z</time></trkpt><trkpt lat="43.9149921" lon="12.6511939"><ele>76.39999999999999</ele><time>2026-03-22T09:23:57.974Z</time></trkpt><trkpt lat="43.9150214" lon="12.6513362"><ele>76.6</ele><time>2026-03-22T09:23:58.972Z</time></trkpt><trkpt lat="43.9150429" lon="12.6514626"><ele>76.8</ele><time>2026-03-22T09:23:59.974Z</time></trkpt><trkpt lat="43.9150624" lon="12.6515694"><ele>77.0</ele><time>2026-03-22T09:24:00.974Z</time></trkpt><trkpt lat="43.9150365" lon="12.6517131"><ele>77.0</ele><time>2026-03-22T09:24:02.974Z</time></trkpt><trkpt lat="43.9149263" lon="12.6517398"><ele>77.0</ele><time>2026-03-22T09:24:04.973Z</time></trkpt><trkpt lat="43.9148535" lon="12.651693"><ele>77.0</ele><time>2026-03-22T09:24:05.974Z</time></trkpt><trkpt lat="43.9147671" lon="12.6516067"><ele>77.0</ele><time>2026-03-22T09:24:06.973Z</time></trkpt><trkpt lat="43.91467" lon="12.6515119"><ele>77.0</ele><time>2026-03-22T09:24:07.973Z</time></trkpt><trkpt lat="43.9145617" lon="12.6514015"><ele>77.0</ele><time>2026-03-22T09:24:08.974Z</time></trkpt><trkpt lat="43.9144508" lon="12.6512903"><ele>77.0</ele><time>2026-03-22T09:24:09.973Z</time></trkpt><trkpt lat="43.9143408" lon="12.6511777"><ele>77.0</ele><time>2026-03-22T09:24:10.974Z</time></trkpt><trkpt lat="43.9142337" lon="12.6510716"><ele>77.0</ele><time>2026-03-22T09:24:11.974Z</time></trkpt><trkpt lat="43.9141235" lon="12.6509609"><ele>77.75</ele><time>2026-03-22T09:24:12.973Z</time></trkpt><trkpt lat="43.9140136" lon="12.6508497"><ele>78.5</ele><time>2026-03-22T09:24:13.973Z</time></trkpt><trkpt lat="43.9139036" lon="12.6507383"><ele>79.25</ele><time>2026-03-22T09:24:14.973Z</time></trkpt><trkpt lat="43.9137938" lon="12.6506241"><ele>80.0</ele><time>2026-03-22T09:24:15.973Z</time></trkpt><trkpt lat="43.9136825" lon="12.6505133"><ele>80.0</ele><time>2026-03-22T09:24:16.972Z</time></trkpt><trkpt lat="43.9135793" lon="12.6504077"><ele>80.0</ele><time>2026-03-22T09:24:17.974Z</time></trkpt><trkpt lat="43.9134838" lon="12.6503126"><ele>80.0</ele><time>2026-03-22T09:24:18.974Z</time></trkpt><trkpt lat="43.9133943" lon="12.6502273"><ele>80.0</ele><time>2026-03-22T09:24:19.974Z</time></trkpt><trkpt lat="43.9133131" lon="12.6501492"><ele>80.4</ele><time>2026-03-22T09:24:20.974Z</time></trkpt><trkpt lat="43.9132374" lon="12.6500699"><ele>80.8</ele><time>2026-03-22T09:24:21.972Z</time></trkpt><trkpt lat="43.9131632" lon="12.6499945"><ele>81.19999999999999</ele><time>2026-03-22T09:24:22.974Z</time></trkpt><trkpt lat="43.9131025" lon="12.6499305"><ele>81.6</ele><time>2026-03-22T09:24:23.974Z</time></trkpt><trkpt lat="43.913003" lon="12.6498889"><ele>82.0</ele><time>2026-03-22T09:24:25.972Z</time></trkpt><trkpt lat="43.9128917" lon="12.6499886"><ele>82.0</ele><time>2026-03-22T09:24:27.973Z</time></trkpt><trkpt lat="43.9128387" lon="12.6500752"><ele>82.0</ele><time>2026-03-22T09:24:28.974Z</time></trkpt><trkpt lat="43.9127891" lon="12.650161"><ele>82.0</ele><time>2026-03-22T09:24:29.974Z</time></trkpt><trkpt lat="43.9127502" lon="12.6502356"><ele>82.0</ele><time>2026-03-22T09:24:30.973Z</time></trkpt><trkpt lat="43.912713" lon="12.6503074"><ele>82.0</ele><time>2026-03-22T09:24:31.973Z</time></trkpt><trkpt lat="43.9126562" lon="12.6504182"><ele>82.0</ele><time>2026-03-22T09:24:33.973Z</time></trkpt><trkpt lat="43.9126025" lon="12.6505142"><ele>82.33333333333333</ele><time>2026-03-22T09:24:35.974Z</time></trkpt><trkpt lat="43.9125374" lon="12.6505957"><ele>82.66666666666666</ele><time>2026-03-22T09:24:38.973Z</time></trkpt><trkpt lat="43.912486" lon="12.6506841"><ele>83.0</ele><time>2026-03-22T09:24:41.974Z</time></trkpt><trkpt lat="43.9124352" lon="12.6507683"><ele>83.33333333333333</ele><time>2026-03-22T09:24:43.974Z</time></trkpt><trkpt lat="43.9123521" lon="12.6508808"><ele>83.66666666666667</ele><time>2026-03-22T09:24:45.974Z</time></trkpt><trkpt lat="43.9123001" lon="12.6509373"><ele>84.0</ele><time>2026-03-22T09:24:46.974Z</time></trkpt><trkpt lat="43.9122405" lon="12.6510081"><ele>84.0</ele><time>2026-03-22T09:24:47.973Z</time></trkpt><trkpt lat="43.9121679" lon="12.6510867"><ele>84.0</ele><time>2026-03-22T09:24:48.974Z</time></trkpt><trkpt lat="43.9120852" lon="12.6511718"><ele>84.0</ele><time>2026-03-22T09:24:49.974Z</time></trkpt><trkpt lat="43.9120007" lon="12.6512531"><ele>84.0</ele><time>2026-03-22T09:24:50.974Z</time></trkpt><trkpt lat="43.9119051" lon="12.6513485"><ele>84.0</ele><time>2026-03-22T09:24:51.972Z</time></trkpt><trkpt lat="43.9118084" lon="12.6514456"><ele>85.25</ele><time>2026-03-22T09:24:52.974Z</time></trkpt><trkpt lat="43.9117145" lon="12.6515427"><ele>86.5</ele><time>2026-03-22T09:24:53.974Z</time></trkpt><trkpt lat="43.9116175" lon="12.6516419"><ele>87.75</ele><time>2026-03-22T09:24:54.973Z</time></trkpt><trkpt lat="43.911522" lon="12.6517374"><ele>89.0</ele><time>2026-03-22T09:24:55.973Z</time></trkpt><trkpt lat="43.9114285" lon="12.6518364"><ele>89.0</ele><time>2026-03-22T09:24:56.974Z</time></trkpt><trkpt lat="43.9113407" lon="12.651947"><ele>89.0</ele><time>2026-03-22T09:24:57.974Z</time></trkpt><trkpt lat="43.9112597" lon="12.6520762"><ele>89.0</ele><time>2026-03-22T09:24:58.973Z</time></trkpt><trkpt lat="43.9111943" lon="12.6522075"><ele>89.0</ele><time>2026-03-22T09:24:59.972Z</time></trkpt><trkpt lat="43.9111458" lon="12.6523567"><ele>89.25</ele><time>2026-03-22T09:25:00.973Z</time></trkpt><trkpt lat="43.9111047" lon="12.6525122"><ele>89.5</ele><time>2026-03-22T09:25:01.973Z</time></trkpt><trkpt lat="43.9110636" lon="12.6526652"><ele>89.75</ele><time>2026-03-22T09:25:02.974Z</time></trkpt><trkpt lat="43.9110244" lon="12.6528056"><ele>90.0</ele><time>2026-03-22T09:25:03.972Z</time></trkpt><trkpt lat="43.9109811" lon="12.6529388"><ele>90.2</ele><time>2026-03-22T09:25:04.974Z</time></trkpt><trkpt lat="43.9109366" lon="12.653067"><ele>90.4</ele><time>2026-03-22T09:25:05.973Z</time></trkpt><trkpt lat="43.9108923" lon="12.653192"><ele>90.6</ele><time>2026-03-22T09:25:06.974Z</time></trkpt><trkpt lat="43.9108467" lon="12.6533109"><ele>90.8</ele><time>2026-03-22T09:25:07.974Z</time></trkpt><trkpt lat="43.9107991" lon="12.6534201"><ele>91.0</ele><time>2026-03-22T09:25:08.973Z</time></trkpt><trkpt lat="43.9107435" lon="12.653529"><ele>93.0</ele><time>2026-03-22T09:25:09.974Z</time></trkpt><trkpt lat="43.9106852" lon="12.6536324"><ele>95.0</ele><time>2026-03-22T09:25:10.973Z</time></trkpt><trkpt lat="43.910626" lon="12.6537462"><ele>97.0</ele><time>2026-03-22T09:25:11.974Z</time></trkpt><trkpt lat="43.9105696" lon="12.6538641"><ele>99.0</ele><time>2026-03-22T09:25:12.973Z</time></trkpt><trkpt lat="43.9105165" lon="12.6539928"><ele>101.0</ele><time>2026-03-22T09:25:13.973Z</time></trkpt><trkpt lat="43.9104736" lon="12.654141"><ele>101.0</ele><time>2026-03-22T09:25:14.973Z</time></trkpt><trkpt lat="43.9104367" lon="12.6543062"><ele>101.0</ele><time>2026-03-22T09:25:15.973Z</time></trkpt><trkpt lat="43.910398" lon="12.6544893"><ele>101.0</ele><time>2026-03-22T09:25:16.974Z</time></trkpt><trkpt lat="43.910357" lon="12.654681"><ele>101.0</ele><time>2026-03-22T09:25:17.974Z</time></trkpt><trkpt lat="43.9103172" lon="12.6548696"><ele>100.25</ele><time>2026-03-22T09:25:18.973Z</time></trkpt><trkpt lat="43.9102779" lon="12.6550584"><ele>99.5</ele><time>2026-03-22T09:25:19.973Z</time></trkpt><trkpt lat="43.9102351" lon="12.6552453"><ele>98.75</ele><time>2026-03-22T09:25:20.973Z</time></trkpt><trkpt lat="43.9101944" lon="12.6554302"><ele>98.0</ele><time>2026-03-22T09:25:21.973Z</time></trkpt><trkpt lat="43.9101705" lon="12.6556169"><ele>96.5</ele><time>2026-03-22T09:25:22.974Z</time></trkpt><trkpt lat="43.9101706" lon="12.6557925"><ele>95.0</ele><time>2026-03-22T09:25:23.973Z</time></trkpt><trkpt lat="43.9101908" lon="12.6559691"><ele>93.5</ele><time>2026-03-22T09:25:24.973Z</time></trkpt><trkpt lat="43.9102403" lon="12.6561416"><ele>92.0</ele><time>2026-03-22T09:25:25.974Z</time></trkpt><trkpt lat="43.9103013" lon="12.65631"><ele>90.25</ele><time>2026-03-22T09:25:26.974Z</time></trkpt><trkpt lat="43.910361" lon="12.6564757"><ele>88.5</ele><time>2026-03-22T09:25:27.972Z</time></trkpt><trkpt lat="43.9104123" lon="12.6566459"><ele>86.75</ele><time>2026-03-22T09:25:28.973Z</time></trkpt><trkpt lat="43.9104586" lon="12.656831"><ele>85.0</ele><time>2026-03-22T09:25:29.973Z</time></trkpt><trkpt lat="43.9104978" lon="12.6570378"><ele>83.66666666666666</ele><time>2026-03-22T09:25:30.973Z</time></trkpt><trkpt lat="43.9105319" lon="12.657256"><ele>82.33333333333333</ele><time>2026-03-22T09:25:31.973Z</time></trkpt><trkpt lat="43.9105571" lon="12.657478"><ele>81.0</ele><time>2026-03-22T09:25:32.973Z</time></trkpt><trkpt lat="43.9105685" lon="12.657691"><ele>79.75</ele><time>2026-03-22T09:25:33.972Z</time></trkpt><trkpt lat="43.9105679" lon="12.6578907"><ele>78.5</ele><time>2026-03-22T09:25:34.972Z</time></trkpt><trkpt lat="43.910563" lon="12.658076"><ele>77.25</ele><time>2026-03-22T09:25:35.973Z</time></trkpt><trkpt lat="43.9105561" lon="12.6582313"><ele>76.0</ele><time>2026-03-22T09:25:36.973Z</time></trkpt><trkpt lat="43.9105458" lon="12.6583625"><ele>76.0</ele><time>2026-03-22T09:25:37.972Z</time></trkpt><trkpt lat="43.9105181" lon="12.6584644"><ele>76.0</ele><time>2026-03-22T09:25:38.973Z</time></trkpt><trkpt lat="43.9104303" lon="12.6585317"><ele>76.0</ele><time>2026-03-22T09:25:40.971Z</time></trkpt><trkpt lat="43.9103655" lon="12.6585058"><ele>76.0</ele><time>2026-03-22T09:25:41.973Z</time></trkpt><trkpt lat="43.9102778" lon="12.6584399"><ele>76.0</ele><time>2026-03-22T09:25:42.973Z</time></trkpt><trkpt lat="43.9101817" lon="12.6583325"><ele>76.0</ele><time>2026-03-22T09:25:43.972Z</time></trkpt><trkpt lat="43.9100754" lon="12.6582038"><ele>76.0</ele><time>2026-03-22T09:25:44.973Z</time></trkpt><trkpt lat="43.9099507" lon="12.6580727"><ele>76.0</ele><time>2026-03-22T09:25:45.972Z</time></trkpt><trkpt lat="43.9098218" lon="12.6579254"><ele>75.66666666666666</ele><time>2026-03-22T09:25:46.972Z</time></trkpt><trkpt lat="43.9096864" lon="12.6577628"><ele>75.33333333333333</ele><time>2026-03-22T09:25:47.973Z</time></trkpt><trkpt lat="43.9095414" lon="12.6575941"><ele>75.0</ele><time>2026-03-22T09:25:48.972Z</time></trkpt><trkpt lat="43.9093921" lon="12.6574171"><ele>75.33333333333333</ele><time>2026-03-22T09:25:49.972Z</time></trkpt><trkpt lat="43.9092403" lon="12.6572339"><ele>75.66666666666666</ele><time>2026-03-22T09:25:50.971Z</time></trkpt><trkpt lat="43.9090838" lon="12.6570488"><ele>76.0</ele><time>2026-03-22T09:25:51.973Z</time></trkpt><trkpt lat="43.9089243" lon="12.6568634"><ele>76.0</ele><time>2026-03-22T09:25:52.972Z</time></trkpt><trkpt lat="43.9087626" lon="12.6566769"><ele>76.0</ele><time>2026-03-22T09:25:53.972Z</time></trkpt><trkpt lat="43.908601" lon="12.6564864"><ele>76.0</ele><time>2026-03-22T09:25:54.971Z</time></trkpt><trkpt lat="43.908438" lon="12.656296"><ele>76.66666666666666</ele><time>2026-03-22T09:25:55.972Z</time></trkpt><trkpt lat="43.9082747" lon="12.6561035"><ele>77.33333333333333</ele><time>2026-03-22T09:25:56.973Z</time></trkpt><trkpt lat="43.9081111" lon="12.6559112"><ele>78.0</ele><time>2026-03-22T09:25:57.972Z</time></trkpt><trkpt lat="43.9079466" lon="12.6557178"><ele>78.0</ele><time>2026-03-22T09:25:58.973Z</time></trkpt><trkpt lat="43.9077808" lon="12.6555242"><ele>78.0</ele><time>2026-03-22T09:25:59.972Z</time></trkpt><trkpt lat="43.9076154" lon="12.6553279"><ele>78.0</ele><time>2026-03-22T09:26:00.972Z</time></trkpt><trkpt lat="43.9074502" lon="12.6551302"><ele>79.0</ele><time>2026-03-22T09:26:01.973Z</time></trkpt><trkpt lat="43.9072875" lon="12.6549349"><ele>80.0</ele><time>2026-03-22T09:26:02.972Z</time></trkpt><trkpt lat="43.9071252" lon="12.6547427"><ele>81.0</ele><time>2026-03-22T09:26:03.973Z</time></trkpt><trkpt lat="43.9069637" lon="12.6545542"><ele>81.66666666666667</ele><time>2026-03-22T09:26:04.973Z</time></trkpt><trkpt lat="43.9068045" lon="12.6543685"><ele>82.33333333333334</ele><time>2026-03-22T09:26:05.972Z</time></trkpt><trkpt lat="43.9066472" lon="12.6541831"><ele>83.0</ele><time>2026-03-22T09:26:06.973Z</time></trkpt><trkpt lat="43.9064917" lon="12.6539993"><ele>83.0</ele><time>2026-03-22T09:26:07.973Z</time></trkpt><trkpt lat="43.9063385" lon="12.6538179"><ele>83.0</ele><time>2026-03-22T09:26:08.971Z</time></trkpt><trkpt lat="43.9061891" lon="12.6536387"><ele>83.0</ele><time>2026-03-22T09:26:09.972Z</time></trkpt><trkpt lat="43.9060443" lon="12.6534635"><ele>84.33333333333334</ele><time>2026-03-22T09:26:10.973Z</time></trkpt><trkpt lat="43.9059059" lon="12.6532862"><ele>85.66666666666667</ele><time>2026-03-22T09:26:11.972Z</time></trkpt><trkpt lat="43.9057747" lon="12.653101"><ele>87.0</ele><time>2026-03-22T09:26:12.972Z</time></trkpt><trkpt lat="43.9056532" lon="12.6529035"><ele>90.0</ele><time>2026-03-22T09:26:13.972Z</time></trkpt><trkpt lat="43.9055411" lon="12.6526957"><ele>93.0</ele><time>2026-03-22T09:26:14.973Z</time></trkpt><trkpt lat="43.9054404" lon="12.6524722"><ele>96.0</ele><time>2026-03-22T09:26:15.973Z</time></trkpt><trkpt lat="43.9053571" lon="12.6522322"><ele>96.0</ele><time>2026-03-22T09:26:16.972Z</time></trkpt><trkpt lat="43.905287" lon="12.6519776"><ele>96.0</ele><time>2026-03-22T09:26:17.972Z</time></trkpt><trkpt lat="43.905233" lon="12.6517099"><ele>96.0</ele><time>2026-03-22T09:26:18.973Z</time></trkpt><trkpt lat="43.9051978" lon="12.6514341"><ele>97.33333333333334</ele><time>2026-03-22T09:26:19.972Z</time></trkpt><trkpt lat="43.9051817" lon="12.6511525"><ele>98.66666666666667</ele><time>2026-03-22T09:26:20.973Z</time></trkpt><trkpt lat="43.9051787" lon="12.6508679"><ele>100.0</ele><time>2026-03-22T09:26:21.972Z</time></trkpt><trkpt lat="43.9051839" lon="12.6505814"><ele>101.66666666666667</ele><time>2026-03-22T09:26:22.973Z</time></trkpt><trkpt lat="43.9051956" lon="12.6502965"><ele>103.33333333333334</ele><time>2026-03-22T09:26:23.973Z</time></trkpt><trkpt lat="43.9052088" lon="12.6500165"><ele>105.0</ele><time>2026-03-22T09:26:24.972Z</time></trkpt><trkpt lat="43.9052224" lon="12.6497535"><ele>105.33333333333334</ele><time>2026-03-22T09:26:25.972Z</time></trkpt><trkpt lat="43.9052309" lon="12.6495069"><ele>105.66666666666667</ele><time>2026-03-22T09:26:26.973Z</time></trkpt><trkpt lat="43.9052254" lon="12.6492772"><ele>106.0</ele><time>2026-03-22T09:26:27.972Z</time></trkpt><trkpt lat="43.9052015" lon="12.6490639"><ele>106.25</ele><time>2026-03-22T09:26:28.972Z</time></trkpt><trkpt lat="43.9051607" lon="12.6488633"><ele>106.5</ele><time>2026-03-22T09:26:29.972Z</time></trkpt><trkpt lat="43.9051056" lon="12.6486883"><ele>106.75</ele><time>2026-03-22T09:26:30.972Z</time></trkpt><trkpt lat="43.9050365" lon="12.6485286"><ele>107.0</ele><time>2026-03-22T09:26:31.971Z</time></trkpt><trkpt lat="43.9049644" lon="12.6483963"><ele>104.39999999999999</ele><time>2026-03-22T09:26:32.973Z</time></trkpt><trkpt lat="43.9048931" lon="12.6482798"><ele>101.79999999999998</ele><time>2026-03-22T09:26:33.971Z</time></trkpt><trkpt lat="43.904822" lon="12.6481755"><ele>99.2</ele><time>2026-03-22T09:26:34.972Z</time></trkpt><trkpt lat="43.9047547" lon="12.6480715"><ele>96.6</ele><time>2026-03-22T09:26:35.973Z</time></trkpt><trkpt lat="43.9046981" lon="12.6479712"><ele>94.0</ele><time>2026-03-22T09:26:36.972Z</time></trkpt><trkpt lat="43.904654" lon="12.6478773"><ele>94.0</ele><time>2026-03-22T09:26:37.973Z</time></trkpt><trkpt lat="43.9046018" lon="12.6478193"><ele>94.0</ele><time>2026-03-22T09:26:38.972Z</time></trkpt><trkpt lat="43.9044842" lon="12.6478532"><ele>94.0</ele><time>2026-03-22T09:26:40.973Z</time></trkpt><trkpt lat="43.9044275" lon="12.6479444"><ele>94.0</ele><time>2026-03-22T09:26:41.972Z</time></trkpt><trkpt lat="43.9043787" lon="12.6480864"><ele>94.0</ele><time>2026-03-22T09:26:42.972Z</time></trkpt><trkpt lat="43.9043346" lon="12.6482676"><ele>94.0</ele><time>2026-03-22T09:26:43.972Z</time></trkpt><trkpt lat="43.9043005" lon="12.6484705"><ele>94.0</ele><time>2026-03-22T09:26:44.972Z</time></trkpt><trkpt lat="43.9042709" lon="12.6486908"><ele>94.0</ele><time>2026-03-22T09:26:45.972Z</time></trkpt><trkpt lat="43.9042489" lon="12.6489172"><ele>93.66666666666666</ele><time>2026-03-22T09:26:46.973Z</time></trkpt><trkpt lat="43.9042326" lon="12.6491306"><ele>93.33333333333333</ele><time>2026-03-22T09:26:47.972Z</time></trkpt><trkpt lat="43.9042069" lon="12.6493368"><ele>93.0</ele><time>2026-03-22T09:26:48.972Z</time></trkpt><trkpt lat="43.9041703" lon="12.6495349"><ele>93.0</ele><time>2026-03-22T09:26:49.973Z</time></trkpt><trkpt lat="43.9041224" lon="12.6497008"><ele>93.0</ele><time>2026-03-22T09:26:50.972Z</time></trkpt><trkpt lat="43.9040562" lon="12.6498324"><ele>93.0</ele><time>2026-03-22T09:26:51.973Z</time></trkpt><trkpt lat="43.9039665" lon="12.649935"><ele>93.0</ele><time>2026-03-22T09:26:52.973Z</time></trkpt><trkpt lat="43.9038489" lon="12.6500124"><ele>93.0</ele><time>2026-03-22T09:26:53.973Z</time></trkpt><trkpt lat="43.9037082" lon="12.6500759"><ele>93.0</ele><time>2026-03-22T09:26:54.971Z</time></trkpt><trkpt lat="43.903574" lon="12.6501507"><ele>93.0</ele><time>2026-03-22T09:26:55.972Z</time></trkpt><trkpt lat="43.9034576" lon="12.6502496"><ele>93.0</ele><time>2026-03-22T09:26:56.973Z</time></trkpt><trkpt lat="43.9033552" lon="12.6503832"><ele>94.33333333333334</ele><time>2026-03-22T09:26:57.972Z</time></trkpt><trkpt lat="43.9032688" lon="12.6505505"><ele>95.66666666666667</ele><time>2026-03-22T09:26:58.973Z</time></trkpt><trkpt lat="43.9031976" lon="12.6507342"><ele>97.0</ele><time>2026-03-22T09:26:59.972Z</time></trkpt><trkpt lat="43.9031351" lon="12.6509267"><ele>97.0</ele><time>2026-03-22T09:27:00.972Z</time></trkpt><trkpt lat="43.90308" lon="12.6511092"><ele>97.0</ele><time>2026-03-22T09:27:01.972Z</time></trkpt><trkpt lat="43.903026" lon="12.6512854"><ele>97.0</ele><time>2026-03-22T09:27:02.972Z</time></trkpt><trkpt lat="43.9029616" lon="12.6514347"><ele>97.0</ele><time>2026-03-22T09:27:03.972Z</time></trkpt><trkpt lat="43.9028821" lon="12.6515634"><ele>96.0</ele><time>2026-03-22T09:27:04.972Z</time></trkpt><trkpt lat="43.9027857" lon="12.6516814"><ele>95.0</ele><time>2026-03-22T09:27:05.973Z</time></trkpt><trkpt lat="43.9026815" lon="12.6517882"><ele>94.0</ele><time>2026-03-22T09:27:06.972Z</time></trkpt><trkpt lat="43.9025781" lon="12.6518834"><ele>93.0</ele><time>2026-03-22T09:27:07.972Z</time></trkpt><trkpt lat="43.9024776" lon="12.6519684"><ele>92.75</ele><time>2026-03-22T09:27:08.972Z</time></trkpt><trkpt lat="43.9023732" lon="12.6520482"><ele>92.5</ele><time>2026-03-22T09:27:09.973Z</time></trkpt><trkpt lat="43.9022655" lon="12.6521136"><ele>92.25</ele><time>2026-03-22T09:27:10.972Z</time></trkpt><trkpt lat="43.9021618" lon="12.6521683"><ele>92.0</ele><time>2026-03-22T09:27:11.973Z</time></trkpt><trkpt lat="43.9020625" lon="12.6522084"><ele>92.0</ele><time>2026-03-22T09:27:12.972Z</time></trkpt><trkpt lat="43.901959" lon="12.6522467"><ele>92.0</ele><time>2026-03-22T09:27:13.972Z</time></trkpt><trkpt lat="43.90185" lon="12.6522866"><ele>92.0</ele><time>2026-03-22T09:27:14.972Z</time></trkpt><trkpt lat="43.9017424" lon="12.6523277"><ele>92.0</ele><time>2026-03-22T09:27:15.973Z</time></trkpt><trkpt lat="43.9016364" lon="12.6523718"><ele>92.0</ele><time>2026-03-22T09:27:16.972Z</time></trkpt><trkpt lat="43.9015435" lon="12.6524448"><ele>92.8</ele><time>2026-03-22T09:27:17.973Z</time></trkpt><trkpt lat="43.9014653" lon="12.652545"><ele>93.6</ele><time>2026-03-22T09:27:18.972Z</time></trkpt><trkpt lat="43.9014011" lon="12.6526686"><ele>94.39999999999999</ele><time>2026-03-22T09:27:19.973Z</time></trkpt><trkpt lat="43.9013504" lon="12.6528"><ele>95.19999999999999</ele><time>2026-03-22T09:27:20.972Z</time></trkpt><trkpt lat="43.9013006" lon="12.6529391"><ele>96.0</ele><time>2026-03-22T09:27:21.973Z</time></trkpt><trkpt lat="43.9012478" lon="12.653067"><ele>94.4</ele><time>2026-03-22T09:27:22.973Z</time></trkpt><trkpt lat="43.9011726" lon="12.6531618"><ele>92.8</ele><time>2026-03-22T09:27:23.972Z</time></trkpt><trkpt lat="43.9010857" lon="12.6532297"><ele>91.2</ele><time>2026-03-22T09:27:24.972Z</time></trkpt><trkpt lat="43.900985" lon="12.6532641"><ele>89.60000000000001</ele><time>2026-03-22T09:27:25.972Z</time></trkpt><trkpt lat="43.9008708" lon="12.6532675"><ele>88.0</ele><time>2026-03-22T09:27:26.973Z</time></trkpt><trkpt lat="43.9007413" lon="12.653249"><ele>87.25</ele><time>2026-03-22T09:27:27.973Z</time></trkpt><trkpt lat="43.9006033" lon="12.6532272"><ele>86.5</ele><time>2026-03-22T09:27:28.972Z</time></trkpt><trkpt lat="43.9004657" lon="12.6532054"><ele>85.75</ele><time>2026-03-22T09:27:29.972Z</time></trkpt><trkpt lat="43.9003301" lon="12.6531888"><ele>85.0</ele><time>2026-03-22T09:27:30.973Z</time></trkpt><trkpt lat="43.9002022" lon="12.6531871"><ele>84.0</ele><time>2026-03-22T09:27:31.972Z</time></trkpt><trkpt lat="43.9000807" lon="12.6531949"><ele>83.0</ele><time>2026-03-22T09:27:32.973Z</time></trkpt><trkpt lat="43.89996" lon="12.6532075"><ele>82.0</ele><time>2026-03-22T09:27:33.972Z</time></trkpt><trkpt lat="43.8998438" lon="12.6532254"><ele>81.0</ele><time>2026-03-22T09:27:34.973Z</time></trkpt><trkpt lat="43.8997317" lon="12.6532552"><ele>81.0</ele><time>2026-03-22T09:27:35.973Z</time></trkpt><trkpt lat="43.8996224" lon="12.6532791"><ele>81.0</ele><time>2026-03-22T09:27:36.972Z</time></trkpt><trkpt lat="43.8995227" lon="12.6533032"><ele>81.0</ele><time>2026-03-22T09:27:37.973Z</time></trkpt><trkpt lat="43.8994387" lon="12.6533274"><ele>81.0</ele><time>2026-03-22T09:27:38.973Z</time></trkpt><trkpt lat="43.8993763" lon="12.6533506"><ele>81.0</ele><time>2026-03-22T09:27:39.972Z</time></trkpt><trkpt lat="43.8992613" lon="12.6534181"><ele>80.33333333333333</ele><time>2026-03-22T09:27:41.973Z</time></trkpt><trkpt lat="43.8992017" lon="12.6534761"><ele>79.66666666666667</ele><time>2026-03-22T09:27:42.972Z</time></trkpt><trkpt lat="43.8991416" lon="12.6535516"><ele>79.0</ele><time>2026-03-22T09:27:43.972Z</time></trkpt><trkpt lat="43.8990827" lon="12.6536271"><ele>78.33333333333334</ele><time>2026-03-22T09:27:44.973Z</time></trkpt><trkpt lat="43.8990195" lon="12.653719"><ele>77.66666666666667</ele><time>2026-03-22T09:27:45.972Z</time></trkpt><trkpt lat="43.898949" lon="12.6538168"><ele>77.0</ele><time>2026-03-22T09:27:46.973Z</time></trkpt><trkpt lat="43.8988801" lon="12.6539119"><ele>76.5</ele><time>2026-03-22T09:27:47.973Z</time></trkpt><trkpt lat="43.8988189" lon="12.6540051"><ele>76.0</ele><time>2026-03-22T09:27:48.973Z</time></trkpt><trkpt lat="43.8987579" lon="12.6540892"><ele>75.5</ele><time>2026-03-22T09:27:49.973Z</time></trkpt><trkpt lat="43.8986941" lon="12.654144"><ele>75.0</ele><time>2026-03-22T09:27:50.972Z</time></trkpt><trkpt lat="43.8986263" lon="12.6541751"><ele>74.5</ele><time>2026-03-22T09:27:51.972Z</time></trkpt><trkpt lat="43.8985635" lon="12.6541658"><ele>74.0</ele><time>2026-03-22T09:27:52.972Z</time></trkpt><trkpt lat="43.8985013" lon="12.6541304"><ele>74.0</ele><time>2026-03-22T09:27:53.973Z</time></trkpt><trkpt lat="43.8984182" lon="12.6540174"><ele>74.0</ele><time>2026-03-22T09:27:55.973Z</time></trkpt><trkpt lat="43.8983755" lon="12.6539192"><ele>74.0</ele><time>2026-03-22T09:27:56.973Z</time></trkpt><trkpt lat="43.8983306" lon="12.6538103"><ele>74.0</ele><time>2026-03-22T09:27:57.973Z</time></trkpt><trkpt lat="43.8982862" lon="12.6537058"><ele>74.0</ele><time>2026-03-22T09:27:58.972Z</time></trkpt><trkpt lat="43.8982514" lon="12.653608"><ele>74.0</ele><time>2026-03-22T09:27:59.972Z</time></trkpt><trkpt lat="43.8982196" lon="12.6535199"><ele>74.0</ele><time>2026-03-22T09:28:00.973Z</time></trkpt><trkpt lat="43.8981875" lon="12.6534388"><ele>74.0</ele><time>2026-03-22T09:28:01.973Z</time></trkpt><trkpt lat="43.8981352" lon="12.6532789"><ele>74.0</ele><time>2026-03-22T09:28:03.972Z</time></trkpt><trkpt lat="43.8981019" lon="12.6531132"><ele>74.0</ele><time>2026-03-22T09:28:05.972Z</time></trkpt><trkpt lat="43.8980669" lon="12.6530227"><ele>74.0</ele><time>2026-03-22T09:28:06.973Z</time></trkpt><trkpt lat="43.8979902" lon="12.6529356"><ele>74.0</ele><time>2026-03-22T09:28:07.972Z</time></trkpt><trkpt lat="43.8979115" lon="12.6528543"><ele>74.0</ele><time>2026-03-22T09:28:08.973Z</time></trkpt><trkpt lat="43.8978288" lon="12.6527776"><ele>74.0</ele><time>2026-03-22T09:28:09.973Z</time></trkpt><trkpt lat="43.8977573" lon="12.6527161"><ele>74.0</ele><time>2026-03-22T09:28:10.972Z</time></trkpt><trkpt lat="43.8976943" lon="12.6526679"><ele>74.0</ele><time>2026-03-22T09:28:11.972Z</time></trkpt><trkpt lat="43.8976353" lon="12.6526145"><ele>74.0</ele><time>2026-03-22T09:28:12.971Z</time></trkpt><trkpt lat="43.8975797" lon="12.6525635"><ele>74.0</ele><time>2026-03-22T09:28:13.973Z</time></trkpt><trkpt lat="43.8975171" lon="12.6524915"><ele>74.0</ele><time>2026-03-22T09:28:14.972Z</time></trkpt><trkpt lat="43.8974615" lon="12.6524291"><ele>74.0</ele><time>2026-03-22T09:28:15.972Z</time></trkpt><trkpt lat="43.8974032" lon="12.6523691"><ele>74.0</ele><time>2026-03-22T09:28:16.972Z</time></trkpt><trkpt lat="43.8973515" lon="12.6522981"><ele>74.0</ele><time>2026-03-22T09:28:17.973Z</time></trkpt><trkpt lat="43.8972853" lon="12.6521733"><ele>74.2</ele><time>2026-03-22T09:28:19.973Z</time></trkpt><trkpt lat="43.8972638" lon="12.6520722"><ele>74.4</ele><time>2026-03-22T09:28:20.973Z</time></trkpt><trkpt lat="43.8972488" lon="12.6519214"><ele>74.6</ele><time>2026-03-22T09:28:22.973Z</time></trkpt><trkpt lat="43.897294" lon="12.6518024"><ele>74.8</ele><time>2026-03-22T09:28:24.972Z</time></trkpt><trkpt lat="43.8973489" lon="12.6516449"><ele>75.0</ele><time>2026-03-22T09:28:26.973Z</time></trkpt><trkpt lat="43.8974" lon="12.6514913"><ele>75.0</ele><time>2026-03-22T09:28:28.972Z</time></trkpt><trkpt lat="43.8973965" lon="12.6513508"><ele>75.0</ele><time>2026-03-22T09:28:29.972Z</time></trkpt><trkpt lat="43.8973935" lon="12.6512414"><ele>75.0</ele><time>2026-03-22T09:28:30.972Z</time></trkpt><trkpt lat="43.8973784" lon="12.6511447"><ele>75.0</ele><time>2026-03-22T09:28:31.972Z</time></trkpt><trkpt lat="43.8973492" lon="12.6510536"><ele>75.0</ele><time>2026-03-22T09:28:32.973Z</time></trkpt><trkpt lat="43.8973103" lon="12.650968"><ele>75.0</ele><time>2026-03-22T09:28:33.973Z</time></trkpt><trkpt lat="43.8972711" lon="12.6508832"><ele>75.2</ele><time>2026-03-22T09:28:34.972Z</time></trkpt><trkpt lat="43.897211" lon="12.650815"><ele>75.4</ele><time>2026-03-22T09:28:35.973Z</time></trkpt><trkpt lat="43.897147" lon="12.6507628"><ele>75.6</ele><time>2026-03-22T09:28:36.973Z</time></trkpt><trkpt lat="43.8970751" lon="12.6506446"><ele>75.8</ele><time>2026-03-22T09:28:38.972Z</time></trkpt><trkpt lat="43.8970552" lon="12.6505537"><ele>76.0</ele><time>2026-03-22T09:28:39.973Z</time></trkpt><trkpt lat="43.8970436" lon="12.6503906"><ele>75.8</ele><time>2026-03-22T09:28:41.972Z</time></trkpt><trkpt lat="43.8970653" lon="12.6502483"><ele>75.6</ele><time>2026-03-22T09:28:43.972Z</time></trkpt><trkpt lat="43.8970822" lon="12.6501403"><ele>75.4</ele><time>2026-03-22T09:28:44.973Z</time></trkpt><trkpt lat="43.8971019" lon="12.649992"><ele>75.2</ele><time>2026-03-22T09:28:46.973Z</time></trkpt><trkpt lat="43.8971584" lon="12.6498577"><ele>75.0</ele><time>2026-03-22T09:28:48.973Z</time></trkpt><trkpt lat="43.897254" lon="12.6497401"><ele>75.0</ele><time>2026-03-22T09:28:50.972Z</time></trkpt><trkpt lat="43.8973133" lon="12.6497012"><ele>75.0</ele><time>2026-03-22T09:28:51.973Z</time></trkpt><trkpt lat="43.8974107" lon="12.6496668"><ele>75.0</ele><time>2026-03-22T09:28:52.973Z</time></trkpt><trkpt lat="43.8974737" lon="12.649603"><ele>75.0</ele><time>2026-03-22T09:28:53.972Z</time></trkpt><trkpt lat="43.8975218" lon="12.6495306"><ele>75.0</ele><time>2026-03-22T09:28:54.973Z</time></trkpt><trkpt lat="43.8975651" lon="12.6494431"><ele>75.0</ele><time>2026-03-22T09:28:55.973Z</time></trkpt><trkpt lat="43.8975862" lon="12.6493547"><ele>76.4</ele><time>2026-03-22T09:28:56.972Z</time></trkpt><trkpt lat="43.8975922" lon="12.6492593"><ele>77.8</ele><time>2026-03-22T09:28:57.973Z</time></trkpt><trkpt lat="43.8975924" lon="12.6491404"><ele>79.19999999999999</ele><time>2026-03-22T09:28:58.973Z</time></trkpt><trkpt lat="43.8975811" lon="12.6490503"><ele>80.6</ele><time>2026-03-22T09:28:59.972Z</time></trkpt><trkpt lat="43.8974679" lon="12.6489042"><ele>82.0</ele><time>2026-03-22T09:29:00.973Z</time></trkpt><trkpt lat="43.8974054" lon="12.6487905"><ele>82.0</ele><time>2026-03-22T09:29:01.972Z</time></trkpt><trkpt lat="43.8973381" lon="12.648689"><ele>82.0</ele><time>2026-03-22T09:29:02.973Z</time></trkpt><trkpt lat="43.8972667" lon="12.6485954"><ele>82.0</ele><time>2026-03-22T09:29:03.973Z</time></trkpt><trkpt lat="43.8971866" lon="12.6485043"><ele>82.0</ele><time>2026-03-22T09:29:04.973Z</time></trkpt><trkpt lat="43.897099" lon="12.6484131"><ele>82.0</ele><time>2026-03-22T09:29:05.972Z</time></trkpt><trkpt lat="43.897006" lon="12.6483255"><ele>82.0</ele><time>2026-03-22T09:29:06.972Z</time></trkpt><trkpt lat="43.8969093" lon="12.6482341"><ele>82.0</ele><time>2026-03-22T09:29:07.973Z</time></trkpt><trkpt lat="43.8968154" lon="12.6481534"><ele>82.0</ele><time>2026-03-22T09:29:08.973Z</time></trkpt><trkpt lat="43.8967162" lon="12.6480813"><ele>82.0</ele><time>2026-03-22T09:29:09.972Z</time></trkpt><trkpt lat="43.8966164" lon="12.648016"><ele>82.0</ele><time>2026-03-22T09:29:10.971Z</time></trkpt><trkpt lat="43.8965159" lon="12.647969"><ele>82.0</ele><time>2026-03-22T09:29:11.972Z</time></trkpt><trkpt lat="43.8964142" lon="12.6479092"><ele>82.0</ele><time>2026-03-22T09:29:12.973Z</time></trkpt><trkpt lat="43.8963157" lon="12.6478365"><ele>82.0</ele><time>2026-03-22T09:29:13.973Z</time></trkpt><trkpt lat="43.8962255" lon="12.6477808"><ele>82.0</ele><time>2026-03-22T09:29:14.973Z</time></trkpt><trkpt lat="43.8961419" lon="12.6477206"><ele>82.19999999999999</ele><time>2026-03-22T09:29:15.973Z</time></trkpt><trkpt lat="43.8960502" lon="12.647667"><ele>82.4</ele><time>2026-03-22T09:29:16.972Z</time></trkpt><trkpt lat="43.8959595" lon="12.6476131"><ele>82.6</ele><time>2026-03-22T09:29:17.971Z</time></trkpt><trkpt lat="43.8958701" lon="12.6475664"><ele>82.80000000000001</ele><time>2026-03-22T09:29:18.973Z</time></trkpt><trkpt lat="43.8957789" lon="12.647521"><ele>83.0</ele><time>2026-03-22T09:29:19.972Z</time></trkpt><trkpt lat="43.8956934" lon="12.6474758"><ele>83.0</ele><time>2026-03-22T09:29:20.973Z</time></trkpt><trkpt lat="43.8956057" lon="12.647432"><ele>83.0</ele><time>2026-03-22T09:29:21.972Z</time></trkpt><trkpt lat="43.8955287" lon="12.6473969"><ele>83.0</ele><time>2026-03-22T09:29:22.972Z</time></trkpt><trkpt lat="43.8954554" lon="12.6473588"><ele>83.0</ele><time>2026-03-22T09:29:23.972Z</time></trkpt><trkpt lat="43.8953779" lon="12.6473257"><ele>83.0</ele><time>2026-03-22T09:29:24.972Z</time></trkpt><trkpt lat="43.8952991" lon="12.6472866"><ele>83.0</ele><time>2026-03-22T09:29:25.972Z</time></trkpt><trkpt lat="43.8952204" lon="12.6472536"><ele>83.0</ele><time>2026-03-22T09:29:26.972Z</time></trkpt><trkpt lat="43.8951189" lon="12.6472399"><ele>83.0</ele><time>2026-03-22T09:29:27.973Z</time></trkpt><trkpt lat="43.8950176" lon="12.6472299"><ele>83.0</ele><time>2026-03-22T09:29:28.972Z</time></trkpt><trkpt lat="43.8949249" lon="12.6472167"><ele>83.0</ele><time>2026-03-22T09:29:29.973Z</time></trkpt><trkpt lat="43.8948273" lon="12.6472045"><ele>83.0</ele><time>2026-03-22T09:29:30.973Z</time></trkpt><trkpt lat="43.8947253" lon="12.6471931"><ele>82.80000000000001</ele><time>2026-03-22T09:29:31.973Z</time></trkpt><trkpt lat="43.8946357" lon="12.6471966"><ele>82.6</ele><time>2026-03-22T09:29:32.973Z</time></trkpt><trkpt lat="43.8945424" lon="12.6471939"><ele>82.4</ele><time>2026-03-22T09:29:33.972Z</time></trkpt><trkpt lat="43.8944557" lon="12.6471982"><ele>82.19999999999999</ele><time>2026-03-22T09:29:34.972Z</time></trkpt><trkpt lat="43.8943675" lon="12.6471988"><ele>82.0</ele><time>2026-03-22T09:29:35.973Z</time></trkpt><trkpt lat="43.8942746" lon="12.6472152"><ele>82.6</ele><time>2026-03-22T09:29:36.972Z</time></trkpt><trkpt lat="43.89418" lon="12.6472022"><ele>83.19999999999999</ele><time>2026-03-22T09:29:37.972Z</time></trkpt><trkpt lat="43.89409" lon="12.6471749"><ele>83.8</ele><time>2026-03-22T09:29:38.972Z</time></trkpt><trkpt lat="43.8940013" lon="12.6471804"><ele>84.4</ele><time>2026-03-22T09:29:39.973Z</time></trkpt><trkpt lat="43.8939062" lon="12.6471457"><ele>85.0</ele><time>2026-03-22T09:29:40.973Z</time></trkpt><trkpt lat="43.8938213" lon="12.6471242"><ele>85.0</ele><time>2026-03-22T09:29:41.972Z</time></trkpt><trkpt lat="43.8937454" lon="12.6470957"><ele>85.0</ele><time>2026-03-22T09:29:42.972Z</time></trkpt><trkpt lat="43.8936656" lon="12.6470513"><ele>85.0</ele><time>2026-03-22T09:29:43.973Z</time></trkpt><trkpt lat="43.8935782" lon="12.6470019"><ele>85.0</ele><time>2026-03-22T09:29:44.973Z</time></trkpt><trkpt lat="43.893502" lon="12.646957"><ele>85.0</ele><time>2026-03-22T09:29:45.972Z</time></trkpt><trkpt lat="43.8934325" lon="12.6469086"><ele>85.0</ele><time>2026-03-22T09:29:46.973Z</time></trkpt><trkpt lat="43.8933723" lon="12.6468673"><ele>84.8</ele><time>2026-03-22T09:29:47.973Z</time></trkpt><trkpt lat="43.8933079" lon="12.6468226"><ele>84.6</ele><time>2026-03-22T09:29:48.973Z</time></trkpt><trkpt lat="43.8932329" lon="12.6467789"><ele>84.4</ele><time>2026-03-22T09:29:49.971Z</time></trkpt><trkpt lat="43.8931481" lon="12.646727"><ele>84.2</ele><time>2026-03-22T09:29:50.972Z</time></trkpt><trkpt lat="43.8930557" lon="12.6466745"><ele>84.0</ele><time>2026-03-22T09:29:51.972Z</time></trkpt><trkpt lat="43.8929392" lon="12.6466095"><ele>84.0</ele><time>2026-03-22T09:29:52.973Z</time></trkpt><trkpt lat="43.892821" lon="12.6465346"><ele>84.0</ele><time>2026-03-22T09:29:53.973Z</time></trkpt><trkpt lat="43.892715" lon="12.6464734"><ele>84.0</ele><time>2026-03-22T09:29:54.973Z</time></trkpt><trkpt lat="43.8925925" lon="12.6464141"><ele>84.0</ele><time>2026-03-22T09:29:55.973Z</time></trkpt><trkpt lat="43.8924539" lon="12.6463433"><ele>84.0</ele><time>2026-03-22T09:29:56.973Z</time></trkpt><trkpt lat="43.8923373" lon="12.6462759"><ele>84.0</ele><time>2026-03-22T09:29:57.972Z</time></trkpt><trkpt lat="43.8922371" lon="12.6462283"><ele>84.0</ele><time>2026-03-22T09:29:58.973Z</time></trkpt><trkpt lat="43.8921441" lon="12.6461749"><ele>84.0</ele><time>2026-03-22T09:29:59.973Z</time></trkpt><trkpt lat="43.8920434" lon="12.6461169"><ele>84.0</ele><time>2026-03-22T09:30:00.972Z</time></trkpt><trkpt lat="43.8919423" lon="12.6460607"><ele>84.0</ele><time>2026-03-22T09:30:01.973Z</time></trkpt><trkpt lat="43.8918372" lon="12.6460075"><ele>84.0</ele><time>2026-03-22T09:30:02.973Z</time></trkpt><trkpt lat="43.8917366" lon="12.6459592"><ele>84.0</ele><time>2026-03-22T09:30:03.972Z</time></trkpt><trkpt lat="43.8916308" lon="12.6459096"><ele>84.0</ele><time>2026-03-22T09:30:04.972Z</time></trkpt><trkpt lat="43.8915292" lon="12.6458709"><ele>84.0</ele><time>2026-03-22T09:30:05.972Z</time></trkpt><trkpt lat="43.8914292" lon="12.6458327"><ele>83.75</ele><time>2026-03-22T09:30:06.972Z</time></trkpt><trkpt lat="43.8913172" lon="12.6457974"><ele>83.5</ele><time>2026-03-22T09:30:07.973Z</time></trkpt><trkpt lat="43.8911775" lon="12.6457513"><ele>83.25</ele><time>2026-03-22T09:30:08.973Z</time></trkpt><trkpt lat="43.8910093" lon="12.6456999"><ele>83.0</ele><time>2026-03-22T09:30:09.972Z</time></trkpt><trkpt lat="43.8908534" lon="12.6456423"><ele>83.5</ele><time>2026-03-22T09:30:10.973Z</time></trkpt><trkpt lat="43.8907064" lon="12.6455831"><ele>84.0</ele><time>2026-03-22T09:30:11.972Z</time></trkpt><trkpt lat="43.8905598" lon="12.6455255"><ele>84.5</ele><time>2026-03-22T09:30:12.973Z</time></trkpt><trkpt lat="43.8904213" lon="12.6454833"><ele>85.0</ele><time>2026-03-22T09:30:13.972Z</time></trkpt><trkpt lat="43.8902908" lon="12.6454428"><ele>85.0</ele><time>2026-03-22T09:30:14.973Z</time></trkpt><trkpt lat="43.8901565" lon="12.6454028"><ele>85.0</ele><time>2026-03-22T09:30:15.973Z</time></trkpt><trkpt lat="43.8900415" lon="12.6453914"><ele>85.0</ele><time>2026-03-22T09:30:16.973Z</time></trkpt><trkpt lat="43.8899247" lon="12.6453825"><ele>85.0</ele><time>2026-03-22T09:30:17.971Z</time></trkpt><trkpt lat="43.8898046" lon="12.6453872"><ele>86.75</ele><time>2026-03-22T09:30:18.973Z</time></trkpt><trkpt lat="43.8896566" lon="12.6454075"><ele>88.5</ele><time>2026-03-22T09:30:19.972Z</time></trkpt><trkpt lat="43.8895174" lon="12.6454133"><ele>90.25</ele><time>2026-03-22T09:30:20.973Z</time></trkpt><trkpt lat="43.8893783" lon="12.6454748"><ele>92.0</ele><time>2026-03-22T09:30:21.971Z</time></trkpt><trkpt lat="43.8892604" lon="12.6455489"><ele>93.19999999999999</ele><time>2026-03-22T09:30:22.972Z</time></trkpt><trkpt lat="43.8891621" lon="12.6455824"><ele>94.4</ele><time>2026-03-22T09:30:23.972Z</time></trkpt><trkpt lat="43.8890655" lon="12.6456083"><ele>95.6</ele><time>2026-03-22T09:30:24.973Z</time></trkpt><trkpt lat="43.8889719" lon="12.6456111"><ele>96.80000000000001</ele><time>2026-03-22T09:30:25.973Z</time></trkpt><trkpt lat="43.8888262" lon="12.6455479"><ele>98.0</ele><time>2026-03-22T09:30:26.972Z</time></trkpt><trkpt lat="43.8886769" lon="12.6454799"><ele>98.0</ele><time>2026-03-22T09:30:27.973Z</time></trkpt><trkpt lat="43.8885146" lon="12.6454081"><ele>98.0</ele><time>2026-03-22T09:30:28.973Z</time></trkpt><trkpt lat="43.8883501" lon="12.6453335"><ele>98.0</ele><time>2026-03-22T09:30:29.972Z</time></trkpt><trkpt lat="43.8882016" lon="12.6452626"><ele>96.0</ele><time>2026-03-22T09:30:30.973Z</time></trkpt><trkpt lat="43.8880865" lon="12.645204"><ele>94.0</ele><time>2026-03-22T09:30:31.972Z</time></trkpt><trkpt lat="43.8879823" lon="12.6451493"><ele>92.0</ele><time>2026-03-22T09:30:32.972Z</time></trkpt><trkpt lat="43.8878826" lon="12.6450842"><ele>90.0</ele><time>2026-03-22T09:30:33.971Z</time></trkpt><trkpt lat="43.8877902" lon="12.6450153"><ele>88.0</ele><time>2026-03-22T09:30:34.972Z</time></trkpt><trkpt lat="43.8877164" lon="12.6449605"><ele>88.0</ele><time>2026-03-22T09:30:35.971Z</time></trkpt><trkpt lat="43.8876552" lon="12.6449252"><ele>88.0</ele><time>2026-03-22T09:30:36.973Z</time></trkpt><trkpt lat="43.8875878" lon="12.6448937"><ele>88.0</ele><time>2026-03-22T09:30:37.972Z</time></trkpt><trkpt lat="43.8875196" lon="12.6448642"><ele>88.0</ele><time>2026-03-22T09:30:38.972Z</time></trkpt><trkpt lat="43.8874437" lon="12.6448381"><ele>88.0</ele><time>2026-03-22T09:30:39.973Z</time></trkpt><trkpt lat="43.8873498" lon="12.6449132"><ele>88.0</ele><time>2026-03-22T09:30:40.972Z</time></trkpt><trkpt lat="43.8872747" lon="12.6449509"><ele>89.2</ele><time>2026-03-22T09:30:41.972Z</time></trkpt><trkpt lat="43.8871566" lon="12.6449844"><ele>90.4</ele><time>2026-03-22T09:30:43.972Z</time></trkpt><trkpt lat="43.8870515" lon="12.6449883"><ele>91.60000000000001</ele><time>2026-03-22T09:30:44.973Z</time></trkpt><trkpt lat="43.8869482" lon="12.6449855"><ele>92.80000000000001</ele><time>2026-03-22T09:30:45.973Z</time></trkpt><trkpt lat="43.8868509" lon="12.6449736"><ele>94.0</ele><time>2026-03-22T09:30:46.972Z</time></trkpt><trkpt lat="43.8867289" lon="12.6449261"><ele>97.25</ele><time>2026-03-22T09:30:47.972Z</time></trkpt><trkpt lat="43.8865935" lon="12.6448862"><ele>100.5</ele><time>2026-03-22T09:30:48.973Z</time></trkpt><trkpt lat="43.8864596" lon="12.6448557"><ele>103.75</ele><time>2026-03-22T09:30:49.973Z</time></trkpt><trkpt lat="43.8863186" lon="12.6448013"><ele>107.0</ele><time>2026-03-22T09:30:50.973Z</time></trkpt><trkpt lat="43.8861781" lon="12.6447499"><ele>107.0</ele><time>2026-03-22T09:30:51.972Z</time></trkpt><trkpt lat="43.8860802" lon="12.6446575"><ele>106.99999999999999</ele><time>2026-03-22T09:30:52.973Z</time></trkpt><trkpt lat="43.8859976" lon="12.6445732"><ele>106.99999999999999</ele><time>2026-03-22T09:30:53.973Z</time></trkpt><trkpt lat="43.8859326" lon="12.6444951"><ele>107.0</ele><time>2026-03-22T09:30:54.971Z</time></trkpt><trkpt lat="43.8858672" lon="12.644412"><ele>107.0</ele><time>2026-03-22T09:30:55.972Z</time></trkpt><trkpt lat="43.8857926" lon="12.6443215"><ele>105.5</ele><time>2026-03-22T09:30:56.972Z</time></trkpt><trkpt lat="43.8857139" lon="12.6442319"><ele>104.0</ele><time>2026-03-22T09:30:57.973Z</time></trkpt><trkpt lat="43.8856436" lon="12.6441033"><ele>102.5</ele><time>2026-03-22T09:30:58.972Z</time></trkpt><trkpt lat="43.8855783" lon="12.6439535"><ele>101.0</ele><time>2026-03-22T09:30:59.973Z</time></trkpt><trkpt lat="43.885526" lon="12.6438193"><ele>101.0</ele><time>2026-03-22T09:31:00.973Z</time></trkpt><trkpt lat="43.8854713" lon="12.6437032"><ele>101.0</ele><time>2026-03-22T09:31:01.973Z</time></trkpt><trkpt lat="43.8854274" lon="12.643579"><ele>101.0</ele><time>2026-03-22T09:31:02.972Z</time></trkpt><trkpt lat="43.8853753" lon="12.6434514"><ele>101.0</ele><time>2026-03-22T09:31:03.973Z</time></trkpt><trkpt lat="43.8853008" lon="12.6433201"><ele>101.0</ele><time>2026-03-22T09:31:04.973Z</time></trkpt><trkpt lat="43.8852194" lon="12.6431946"><ele>100.66666666666666</ele><time>2026-03-22T09:31:05.972Z</time></trkpt><trkpt lat="43.8851476" lon="12.643096"><ele>100.33333333333333</ele><time>2026-03-22T09:31:06.972Z</time></trkpt><trkpt lat="43.8850757" lon="12.6430208"><ele>100.0</ele><time>2026-03-22T09:31:07.973Z</time></trkpt><trkpt lat="43.8850006" lon="12.6429576"><ele>99.66666666666666</ele><time>2026-03-22T09:31:08.972Z</time></trkpt><trkpt lat="43.884928" lon="12.6429042"><ele>99.33333333333333</ele><time>2026-03-22T09:31:09.973Z</time></trkpt><trkpt lat="43.8848538" lon="12.6428628"><ele>99.0</ele><time>2026-03-22T09:31:10.973Z</time></trkpt><trkpt lat="43.8847661" lon="12.6428365"><ele>99.0</ele><time>2026-03-22T09:31:11.972Z</time></trkpt><trkpt lat="43.8846706" lon="12.6428255"><ele>99.0</ele><time>2026-03-22T09:31:12.972Z</time></trkpt><trkpt lat="43.8845623" lon="12.6428143"><ele>99.0</ele><time>2026-03-22T09:31:13.973Z</time></trkpt><trkpt lat="43.884452" lon="12.6428117"><ele>99.0</ele><time>2026-03-22T09:31:14.972Z</time></trkpt><trkpt lat="43.8843509" lon="12.6428115"><ele>99.0</ele><time>2026-03-22T09:31:15.973Z</time></trkpt><trkpt lat="43.8842611" lon="12.64281"><ele>99.66666666666667</ele><time>2026-03-22T09:31:16.972Z</time></trkpt><trkpt lat="43.88417" lon="12.6428121"><ele>100.33333333333334</ele><time>2026-03-22T09:31:17.972Z</time></trkpt><trkpt lat="43.8840781" lon="12.6428145"><ele>101.0</ele><time>2026-03-22T09:31:18.973Z</time></trkpt><trkpt lat="43.8840042" lon="12.6428184"><ele>101.66666666666667</ele><time>2026-03-22T09:31:19.973Z</time></trkpt><trkpt lat="43.8839132" lon="12.6428059"><ele>102.33333333333334</ele><time>2026-03-22T09:31:20.973Z</time></trkpt><trkpt lat="43.8838451" lon="12.6428004"><ele>103.0</ele><time>2026-03-22T09:31:21.973Z</time></trkpt><trkpt lat="43.8837163" lon="12.6427908"><ele>103.0</ele><time>2026-03-22T09:31:23.972Z</time></trkpt><trkpt lat="43.8836265" lon="12.6428128"><ele>103.0</ele><time>2026-03-22T09:31:24.973Z</time></trkpt><trkpt lat="43.8835304" lon="12.6428279"><ele>103.0</ele><time>2026-03-22T09:31:25.972Z</time></trkpt><trkpt lat="43.8834437" lon="12.6428416"><ele>103.0</ele><time>2026-03-22T09:31:26.972Z</time></trkpt><trkpt lat="43.8833437" lon="12.6428638"><ele>103.0</ele><time>2026-03-22T09:31:27.972Z</time></trkpt><trkpt lat="43.8832567" lon="12.6428771"><ele>105.0</ele><time>2026-03-22T09:31:28.972Z</time></trkpt><trkpt lat="43.8831751" lon="12.6428933"><ele>107.0</ele><time>2026-03-22T09:31:29.973Z</time></trkpt><trkpt lat="43.883085" lon="12.6429049"><ele>109.00000000000001</ele><time>2026-03-22T09:31:30.971Z</time></trkpt><trkpt lat="43.8829845" lon="12.6429289"><ele>111.0</ele><time>2026-03-22T09:31:31.972Z</time></trkpt><trkpt lat="43.8828815" lon="12.6429209"><ele>113.0</ele><time>2026-03-22T09:31:32.973Z</time></trkpt><trkpt lat="43.8827401" lon="12.6429574"><ele>113.0</ele><time>2026-03-22T09:31:33.972Z</time></trkpt><trkpt lat="43.8826214" lon="12.6429733"><ele>113.0</ele><time>2026-03-22T09:31:34.972Z</time></trkpt><trkpt lat="43.8825146" lon="12.6429621"><ele>113.0</ele><time>2026-03-22T09:31:35.971Z</time></trkpt><trkpt lat="43.882405" lon="12.642917"><ele>113.0</ele><time>2026-03-22T09:31:36.973Z</time></trkpt><trkpt lat="43.882279" lon="12.6429086"><ele>113.80000000000001</ele><time>2026-03-22T09:31:37.972Z</time></trkpt><trkpt lat="43.8821632" lon="12.6428954"><ele>114.60000000000001</ele><time>2026-03-22T09:31:38.972Z</time></trkpt><trkpt lat="43.8820757" lon="12.6428904"><ele>115.39999999999999</ele><time>2026-03-22T09:31:39.971Z</time></trkpt><trkpt lat="43.8819639" lon="12.6428898"><ele>116.19999999999999</ele><time>2026-03-22T09:31:40.973Z</time></trkpt><trkpt lat="43.8818463" lon="12.6428938"><ele>117.0</ele><time>2026-03-22T09:31:41.973Z</time></trkpt><trkpt lat="43.8817347" lon="12.6428987"><ele>117.8</ele><time>2026-03-22T09:31:42.973Z</time></trkpt><trkpt lat="43.8816338" lon="12.6428866"><ele>118.6</ele><time>2026-03-22T09:31:43.973Z</time></trkpt><trkpt lat="43.8815595" lon="12.6428546"><ele>119.39999999999999</ele><time>2026-03-22T09:31:44.972Z</time></trkpt><trkpt lat="43.8814744" lon="12.6428451"><ele>120.19999999999999</ele><time>2026-03-22T09:31:45.972Z</time></trkpt><trkpt lat="43.88138" lon="12.6428397"><ele>121.0</ele><time>2026-03-22T09:31:46.972Z</time></trkpt><trkpt lat="43.8812746" lon="12.6428569"><ele>121.0</ele><time>2026-03-22T09:31:47.972Z</time></trkpt><trkpt lat="43.8811764" lon="12.6428612"><ele>121.0</ele><time>2026-03-22T09:31:48.972Z</time></trkpt><trkpt lat="43.8810719" lon="12.6428687"><ele>121.0</ele><time>2026-03-22T09:31:49.973Z</time></trkpt><trkpt lat="43.8809549" lon="12.6429243"><ele>121.0</ele><time>2026-03-22T09:31:50.972Z</time></trkpt><trkpt lat="43.8808538" lon="12.6429502"><ele>121.0</ele><time>2026-03-22T09:31:51.972Z</time></trkpt><trkpt lat="43.8807554" lon="12.6429736"><ele>119.8</ele><time>2026-03-22T09:31:52.972Z</time></trkpt><trkpt lat="43.880667" lon="12.6430005"><ele>118.6</ele><time>2026-03-22T09:31:53.972Z</time></trkpt><trkpt lat="43.8805836" lon="12.6430204"><ele>117.4</ele><time>2026-03-22T09:31:54.972Z</time></trkpt><trkpt lat="43.8804999" lon="12.6430585"><ele>116.2</ele><time>2026-03-22T09:31:55.972Z</time></trkpt><trkpt lat="43.8804089" lon="12.6431007"><ele>115.0</ele><time>2026-03-22T09:31:56.973Z</time></trkpt><trkpt lat="43.8803105" lon="12.643137"><ele>115.0</ele><time>2026-03-22T09:31:57.972Z</time></trkpt><trkpt lat="43.8802107" lon="12.64317"><ele>115.0</ele><time>2026-03-22T09:31:58.972Z</time></trkpt><trkpt lat="43.8800958" lon="12.6431915"><ele>115.0</ele><time>2026-03-22T09:31:59.972Z</time></trkpt><trkpt lat="43.8799625" lon="12.6431989"><ele>115.0</ele><time>2026-03-22T09:32:00.973Z</time></trkpt><trkpt lat="43.8798245" lon="12.6431998"><ele>112.33333333333334</ele><time>2026-03-22T09:32:01.971Z</time></trkpt><trkpt lat="43.8796698" lon="12.6432216"><ele>109.66666666666666</ele><time>2026-03-22T09:32:02.972Z</time></trkpt><trkpt lat="43.8795034" lon="12.6432508"><ele>107.0</ele><time>2026-03-22T09:32:03.971Z</time></trkpt><trkpt lat="43.8793279" lon="12.6432864"><ele>106.75</ele><time>2026-03-22T09:32:04.972Z</time></trkpt><trkpt lat="43.879154" lon="12.6433204"><ele>106.5</ele><time>2026-03-22T09:32:05.973Z</time></trkpt><trkpt lat="43.8790123" lon="12.643344"><ele>106.25</ele><time>2026-03-22T09:32:06.972Z</time></trkpt><trkpt lat="43.878884" lon="12.6433662"><ele>106.0</ele><time>2026-03-22T09:32:07.972Z</time></trkpt><trkpt lat="43.8787685" lon="12.6433852"><ele>106.0</ele><time>2026-03-22T09:32:08.973Z</time></trkpt><trkpt lat="43.8786612" lon="12.6434152"><ele>106.0</ele><time>2026-03-22T09:32:09.973Z</time></trkpt><trkpt lat="43.8785574" lon="12.6434629"><ele>106.0</ele><time>2026-03-22T09:32:10.973Z</time></trkpt><trkpt lat="43.8784525" lon="12.6435403"><ele>106.0</ele><time>2026-03-22T09:32:11.972Z</time></trkpt><trkpt lat="43.8783517" lon="12.6436352"><ele>111.75</ele><time>2026-03-22T09:32:12.973Z</time></trkpt><trkpt lat="43.8782622" lon="12.6437708"><ele>117.5</ele><time>2026-03-22T09:32:13.972Z</time></trkpt><trkpt lat="43.8781671" lon="12.6438932"><ele>123.25</ele><time>2026-03-22T09:32:14.973Z</time></trkpt><trkpt lat="43.8780652" lon="12.643969"><ele>129.0</ele><time>2026-03-22T09:32:15.972Z</time></trkpt><trkpt lat="43.8779476" lon="12.6440205"><ele>129.0</ele><time>2026-03-22T09:32:16.972Z</time></trkpt><trkpt lat="43.8778222" lon="12.6440276"><ele>129.0</ele><time>2026-03-22T09:32:17.972Z</time></trkpt><trkpt lat="43.8776766" lon="12.6439611"><ele>129.0</ele><time>2026-03-22T09:32:18.973Z</time></trkpt><trkpt lat="43.8775127" lon="12.6438908"><ele>125.0</ele><time>2026-03-22T09:32:19.973Z</time></trkpt><trkpt lat="43.8773664" lon="12.6438312"><ele>121.0</ele><time>2026-03-22T09:32:20.973Z</time></trkpt><trkpt lat="43.8772539" lon="12.6437725"><ele>117.0</ele><time>2026-03-22T09:32:21.972Z</time></trkpt><trkpt lat="43.8771665" lon="12.6436932"><ele>113.0</ele><time>2026-03-22T09:32:22.972Z</time></trkpt><trkpt lat="43.8771039" lon="12.6435963"><ele>112.2</ele><time>2026-03-22T09:32:23.972Z</time></trkpt><trkpt lat="43.8770739" lon="12.6434887"><ele>111.4</ele><time>2026-03-22T09:32:24.972Z</time></trkpt><trkpt lat="43.8770603" lon="12.643365"><ele>110.60000000000001</ele><time>2026-03-22T09:32:25.973Z</time></trkpt><trkpt lat="43.8770444" lon="12.6432631"><ele>109.80000000000001</ele><time>2026-03-22T09:32:26.972Z</time></trkpt><trkpt lat="43.8769949" lon="12.6431644"><ele>109.0</ele><time>2026-03-22T09:32:29.972Z</time></trkpt><trkpt lat="43.8769142" lon="12.6429937"><ele>109.0</ele><time>2026-03-22T09:32:31.973Z</time></trkpt><trkpt lat="43.8768467" lon="12.6428278"><ele>109.0</ele><time>2026-03-22T09:32:32.973Z</time></trkpt><trkpt lat="43.8767856" lon="12.6426306"><ele>109.0</ele><time>2026-03-22T09:32:33.972Z</time></trkpt><trkpt lat="43.8767291" lon="12.6424359"><ele>109.0</ele><time>2026-03-22T09:32:34.973Z</time></trkpt><trkpt lat="43.8766829" lon="12.6422413"><ele>109.6</ele><time>2026-03-22T09:32:35.972Z</time></trkpt><trkpt lat="43.8766351" lon="12.6420948"><ele>110.2</ele><time>2026-03-22T09:32:36.972Z</time></trkpt><trkpt lat="43.8765945" lon="12.6419476"><ele>110.79999999999998</ele><time>2026-03-22T09:32:37.973Z</time></trkpt><trkpt lat="43.87655" lon="12.6418214"><ele>111.39999999999999</ele><time>2026-03-22T09:32:38.972Z</time></trkpt><trkpt lat="43.8764757" lon="12.6417182"><ele>112.0</ele><time>2026-03-22T09:32:39.972Z</time></trkpt><trkpt lat="43.8763693" lon="12.6415836"><ele>112.0</ele><time>2026-03-22T09:32:40.973Z</time></trkpt><trkpt lat="43.8762615" lon="12.6414367"><ele>112.0</ele><time>2026-03-22T09:32:41.972Z</time></trkpt><trkpt lat="43.8761477" lon="12.6412936"><ele>112.0</ele><time>2026-03-22T09:32:42.973Z</time></trkpt><trkpt lat="43.876056" lon="12.6411352"><ele>112.0</ele><time>2026-03-22T09:32:43.973Z</time></trkpt><trkpt lat="43.8759577" lon="12.6409319"><ele>112.0</ele><time>2026-03-22T09:32:44.972Z</time></trkpt><trkpt lat="43.8758555" lon="12.6406962"><ele>112.0</ele><time>2026-03-22T09:32:45.972Z</time></trkpt><trkpt lat="43.8757598" lon="12.6404782"><ele>112.0</ele><time>2026-03-22T09:32:46.973Z</time></trkpt><trkpt lat="43.8756755" lon="12.6402903"><ele>112.0</ele><time>2026-03-22T09:32:47.972Z</time></trkpt><trkpt lat="43.875603" lon="12.6401224"><ele>112.0</ele><time>2026-03-22T09:32:48.973Z</time></trkpt><trkpt lat="43.8754962" lon="12.6399526"><ele>112.0</ele><time>2026-03-22T09:32:49.971Z</time></trkpt><trkpt lat="43.8753966" lon="12.6397668"><ele>112.0</ele><time>2026-03-22T09:32:50.972Z</time></trkpt><trkpt lat="43.8752574" lon="12.6395305"><ele>112.0</ele><time>2026-03-22T09:32:51.973Z</time></trkpt><trkpt lat="43.8751436" lon="12.639347"><ele>113.5</ele><time>2026-03-22T09:32:52.973Z</time></trkpt><trkpt lat="43.8750291" lon="12.6391634"><ele>115.0</ele><time>2026-03-22T09:32:53.973Z</time></trkpt><trkpt lat="43.8749498" lon="12.6390266"><ele>116.5</ele><time>2026-03-22T09:32:54.973Z</time></trkpt><trkpt lat="43.8748639" lon="12.6389253"><ele>118.0</ele><time>2026-03-22T09:32:55.973Z</time></trkpt><trkpt lat="43.8747863" lon="12.638818"><ele>118.0</ele><time>2026-03-22T09:32:56.972Z</time></trkpt><trkpt lat="43.8746996" lon="12.6387315"><ele>118.0</ele><time>2026-03-22T09:32:57.972Z</time></trkpt><trkpt lat="43.87457" lon="12.6386583"><ele>118.0</ele><time>2026-03-22T09:32:58.973Z</time></trkpt><trkpt lat="43.8744193" lon="12.6385513"><ele>118.0</ele><time>2026-03-22T09:32:59.972Z</time></trkpt><trkpt lat="43.8742499" lon="12.6384234"><ele>117.75</ele><time>2026-03-22T09:33:00.972Z</time></trkpt><trkpt lat="43.8741001" lon="12.6383025"><ele>117.5</ele><time>2026-03-22T09:33:01.973Z</time></trkpt><trkpt lat="43.8739855" lon="12.6382121"><ele>117.25</ele><time>2026-03-22T09:33:02.972Z</time></trkpt><trkpt lat="43.8738807" lon="12.6381046"><ele>117.0</ele><time>2026-03-22T09:33:03.972Z</time></trkpt><trkpt lat="43.873771" lon="12.637979"><ele>117.0</ele><time>2026-03-22T09:33:04.973Z</time></trkpt><trkpt lat="43.8736546" lon="12.6378437"><ele>117.0</ele><time>2026-03-22T09:33:05.972Z</time></trkpt><trkpt lat="43.8735259" lon="12.637654"><ele>117.0</ele><time>2026-03-22T09:33:06.972Z</time></trkpt><trkpt lat="43.8734016" lon="12.6374585"><ele>117.33333333333334</ele><time>2026-03-22T09:33:07.972Z</time></trkpt><trkpt lat="43.8732646" lon="12.6372031"><ele>117.66666666666667</ele><time>2026-03-22T09:33:08.972Z</time></trkpt><trkpt lat="43.8731264" lon="12.6369718"><ele>118.0</ele><time>2026-03-22T09:33:09.973Z</time></trkpt><trkpt lat="43.8729918" lon="12.6367496"><ele>118.0</ele><time>2026-03-22T09:33:10.973Z</time></trkpt><trkpt lat="43.8729006" lon="12.6365346"><ele>118.0</ele><time>2026-03-22T09:33:11.972Z</time></trkpt><trkpt lat="43.8728072" lon="12.6363473"><ele>118.0</ele><time>2026-03-22T09:33:12.973Z</time></trkpt><trkpt lat="43.8727222" lon="12.6361486"><ele>117.33333333333334</ele><time>2026-03-22T09:33:13.973Z</time></trkpt><trkpt lat="43.8726349" lon="12.6359443"><ele>116.66666666666666</ele><time>2026-03-22T09:33:14.973Z</time></trkpt><trkpt lat="43.8725499" lon="12.6357365"><ele>116.0</ele><time>2026-03-22T09:33:15.971Z</time></trkpt><trkpt lat="43.8724658" lon="12.635539"><ele>116.0</ele><time>2026-03-22T09:33:16.973Z</time></trkpt><trkpt lat="43.8723965" lon="12.6353832"><ele>116.0</ele><time>2026-03-22T09:33:17.972Z</time></trkpt><trkpt lat="43.8723192" lon="12.6352327"><ele>116.0</ele><time>2026-03-22T09:33:18.973Z</time></trkpt><trkpt lat="43.8722426" lon="12.6351029"><ele>116.0</ele><time>2026-03-22T09:33:19.973Z</time></trkpt><trkpt lat="43.8721634" lon="12.6349845"><ele>116.4</ele><time>2026-03-22T09:33:20.972Z</time></trkpt><trkpt lat="43.8720881" lon="12.6348685"><ele>116.8</ele><time>2026-03-22T09:33:21.972Z</time></trkpt><trkpt lat="43.871987" lon="12.6348265"><ele>117.20000000000002</ele><time>2026-03-22T09:33:22.973Z</time></trkpt><trkpt lat="43.8719108" lon="12.6347613"><ele>117.60000000000001</ele><time>2026-03-22T09:33:23.971Z</time></trkpt><trkpt lat="43.8718527" lon="12.6347173"><ele>118.0</ele><time>2026-03-22T09:33:24.973Z</time></trkpt><trkpt lat="43.8717825" lon="12.6346462"><ele>118.16666666666667</ele><time>2026-03-22T09:33:26.973Z</time></trkpt><trkpt lat="43.8717232" lon="12.6346015"><ele>118.33333333333334</ele><time>2026-03-22T09:33:29.972Z</time></trkpt><trkpt lat="43.871659" lon="12.6345408"><ele>118.5</ele><time>2026-03-22T09:45:40.972Z</time></trkpt><trkpt lat="43.8715877" lon="12.634475"><ele>118.66666666666666</ele><time>2026-03-22T09:45:59.973Z</time></trkpt><trkpt lat="43.8715196" lon="12.6344029"><ele>118.83333333333333</ele><time>2026-03-22T09:46:00.972Z</time></trkpt><trkpt lat="43.871466" lon="12.6343285"><ele>119.0</ele><time>2026-03-22T09:46:01.973Z</time></trkpt><trkpt lat="43.8714012" lon="12.6342428"><ele>119.4</ele><time>2026-03-22T09:46:02.973Z</time></trkpt><trkpt lat="43.8713289" lon="12.6341493"><ele>119.80000000000001</ele><time>2026-03-22T09:46:03.972Z</time></trkpt><trkpt lat="43.871257" lon="12.6340523"><ele>120.19999999999999</ele><time>2026-03-22T09:46:04.973Z</time></trkpt><trkpt lat="43.8711725" lon="12.6339588"><ele>120.6</ele><time>2026-03-22T09:46:05.972Z</time></trkpt><trkpt lat="43.8711035" lon="12.6338599"><ele>121.0</ele><time>2026-03-22T09:46:06.972Z</time></trkpt><trkpt lat="43.8710113" lon="12.6337632"><ele>120.6</ele><time>2026-03-22T09:46:07.973Z</time></trkpt><trkpt lat="43.8709168" lon="12.6336586"><ele>120.19999999999999</ele><time>2026-03-22T09:46:08.973Z</time></trkpt><trkpt lat="43.8708362" lon="12.6335622"><ele>119.80000000000001</ele><time>2026-03-22T09:46:09.972Z</time></trkpt><trkpt lat="43.8707566" lon="12.6334591"><ele>119.4</ele><time>2026-03-22T09:46:10.973Z</time></trkpt><trkpt lat="43.8706915" lon="12.6333666"><ele>119.0</ele><time>2026-03-22T09:46:11.972Z</time></trkpt><trkpt lat="43.870625" lon="12.6332498"><ele>120.25</ele><time>2026-03-22T09:46:12.971Z</time></trkpt><trkpt lat="43.8705699" lon="12.6331198"><ele>121.5</ele><time>2026-03-22T09:46:13.972Z</time></trkpt><trkpt lat="43.8705167" lon="12.6329766"><ele>122.75</ele><time>2026-03-22T09:46:14.972Z</time></trkpt><trkpt lat="43.8704619" lon="12.6328022"><ele>124.0</ele><time>2026-03-22T09:46:15.973Z</time></trkpt><trkpt lat="43.8704113" lon="12.6326355"><ele>124.80000000000001</ele><time>2026-03-22T09:46:16.972Z</time></trkpt><trkpt lat="43.8703609" lon="12.632482"><ele>125.60000000000001</ele><time>2026-03-22T09:46:17.972Z</time></trkpt><trkpt lat="43.8703072" lon="12.632346"><ele>126.4</ele><time>2026-03-22T09:46:18.973Z</time></trkpt><trkpt lat="43.8702438" lon="12.6322108"><ele>127.2</ele><time>2026-03-22T09:46:19.973Z</time></trkpt><trkpt lat="43.8702025" lon="12.6320921"><ele>128.0</ele><time>2026-03-22T09:46:20.973Z</time></trkpt><trkpt lat="43.8701709" lon="12.631971"><ele>129.0</ele><time>2026-03-22T09:46:21.972Z</time></trkpt><trkpt lat="43.8701294" lon="12.6318648"><ele>130.0</ele><time>2026-03-22T09:46:22.972Z</time></trkpt><trkpt lat="43.8700922" lon="12.6317546"><ele>131.0</ele><time>2026-03-22T09:46:23.973Z</time></trkpt><trkpt lat="43.8700531" lon="12.63163"><ele>132.0</ele><time>2026-03-22T09:46:24.973Z</time></trkpt><trkpt lat="43.8700126" lon="12.6315013"><ele>133.0</ele><time>2026-03-22T09:46:25.973Z</time></trkpt><trkpt lat="43.8699689" lon="12.6313653"><ele>131.75</ele><time>2026-03-22T09:46:26.973Z</time></trkpt><trkpt lat="43.8699208" lon="12.6312146"><ele>130.5</ele><time>2026-03-22T09:46:27.972Z</time></trkpt><trkpt lat="43.8698721" lon="12.6310624"><ele>129.25</ele><time>2026-03-22T09:46:28.973Z</time></trkpt><trkpt lat="43.8698237" lon="12.6309153"><ele>128.0</ele><time>2026-03-22T09:46:29.971Z</time></trkpt><trkpt lat="43.8697844" lon="12.6307892"><ele>128.0</ele><time>2026-03-22T09:46:30.973Z</time></trkpt><trkpt lat="43.8697476" lon="12.630662"><ele>128.0</ele><time>2026-03-22T09:46:31.972Z</time></trkpt><trkpt lat="43.8697051" lon="12.6305202"><ele>128.0</ele><time>2026-03-22T09:46:32.973Z</time></trkpt><trkpt lat="43.8696613" lon="12.6303715"><ele>128.0</ele><time>2026-03-22T09:46:33.972Z</time></trkpt><trkpt lat="43.8696132" lon="12.6302231"><ele>128.0</ele><time>2026-03-22T09:46:34.973Z</time></trkpt><trkpt lat="43.8695604" lon="12.6300776"><ele>127.60000000000001</ele><time>2026-03-22T09:46:35.973Z</time></trkpt><trkpt lat="43.869496" lon="12.6299332"><ele>127.20000000000002</ele><time>2026-03-22T09:46:36.972Z</time></trkpt><trkpt lat="43.8694355" lon="12.6297922"><ele>126.8</ele><time>2026-03-22T09:46:37.973Z</time></trkpt><trkpt lat="43.8693784" lon="12.6296752"><ele>126.4</ele><time>2026-03-22T09:46:38.972Z</time></trkpt><trkpt lat="43.8693249" lon="12.6295579"><ele>126.0</ele><time>2026-03-22T09:46:39.972Z</time></trkpt><trkpt lat="43.8692713" lon="12.6294486"><ele>126.0</ele><time>2026-03-22T09:46:40.972Z</time></trkpt><trkpt lat="43.8692248" lon="12.6293546"><ele>126.0</ele><time>2026-03-22T09:46:41.972Z</time></trkpt><trkpt lat="43.8691777" lon="12.6292748"><ele>126.0</ele><time>2026-03-22T09:46:42.972Z</time></trkpt><trkpt lat="43.869132" lon="12.6292147"><ele>126.0</ele><time>2026-03-22T09:46:43.973Z</time></trkpt><trkpt lat="43.8690451" lon="12.6291298"><ele>126.0</ele><time>2026-03-22T09:46:45.972Z</time></trkpt><trkpt lat="43.8689277" lon="12.6291388"><ele>126.0</ele><time>2026-03-22T09:46:47.973Z</time></trkpt><trkpt lat="43.8688307" lon="12.6291798"><ele>126.0</ele><time>2026-03-22T09:46:48.973Z</time></trkpt><trkpt lat="43.8687287" lon="12.6292218"><ele>126.0</ele><time>2026-03-22T09:46:49.972Z</time></trkpt><trkpt lat="43.8686409" lon="12.6292588"><ele>126.0</ele><time>2026-03-22T09:46:50.973Z</time></trkpt><trkpt lat="43.8685479" lon="12.6292912"><ele>126.0</ele><time>2026-03-22T09:46:51.972Z</time></trkpt><trkpt lat="43.8684508" lon="12.6293267"><ele>126.0</ele><time>2026-03-22T09:46:52.973Z</time></trkpt><trkpt lat="43.8683601" lon="12.6293563"><ele>126.33333333333333</ele><time>2026-03-22T09:46:53.972Z</time></trkpt><trkpt lat="43.8682865" lon="12.6293704"><ele>126.66666666666666</ele><time>2026-03-22T09:46:54.973Z</time></trkpt><trkpt lat="43.8682109" lon="12.6293781"><ele>127.0</ele><time>2026-03-22T09:46:55.973Z</time></trkpt><trkpt lat="43.8681366" lon="12.6293746"><ele>127.33333333333333</ele><time>2026-03-22T09:46:56.973Z</time></trkpt><trkpt lat="43.8680613" lon="12.6293652"><ele>127.66666666666666</ele><time>2026-03-22T09:46:57.973Z</time></trkpt><trkpt lat="43.8679657" lon="12.629348"><ele>128.0</ele><time>2026-03-22T09:46:59.973Z</time></trkpt><trkpt lat="43.8679426" lon="12.6294375"><ele>127.83333333333333</ele><time>2026-03-22T09:47:02.973Z</time></trkpt><trkpt lat="43.8680245" lon="12.6295113"><ele>127.66666666666666</ele><time>2026-03-22T09:47:04.972Z</time></trkpt><trkpt lat="43.8681246" lon="12.6295551"><ele>127.5</ele><time>2026-03-22T09:47:06.972Z</time></trkpt><trkpt lat="43.868204" lon="12.6295847"><ele>127.33333333333334</ele><time>2026-03-22T09:47:08.972Z</time></trkpt><trkpt lat="43.8682534" lon="12.6296452"><ele>127.16666666666667</ele><time>2026-03-22T09:47:10.972Z</time></trkpt><trkpt lat="43.8682946" lon="12.6297406"><ele>127.0</ele><time>2026-03-22T09:47:13.973Z</time></trkpt><trkpt lat="43.8682487" lon="12.629851"><ele>127.00000000000001</ele><time>2026-03-22T09:47:15.973Z</time></trkpt><trkpt lat="43.8681984" lon="12.629905"><ele>127.0</ele><time>2026-03-22T09:47:16.973Z</time></trkpt><trkpt lat="43.8681343" lon="12.6299498"><ele>127.0</ele><time>2026-03-22T09:47:17.973Z</time></trkpt><trkpt lat="43.8680601" lon="12.6300009"><ele>127.0</ele><time>2026-03-22T09:47:18.973Z</time></trkpt><trkpt lat="43.8679958" lon="12.6300754"><ele>127.00000000000001</ele><time>2026-03-22T09:47:19.972Z</time></trkpt><trkpt lat="43.867953" lon="12.6301612"><ele>127.0</ele><time>2026-03-22T09:47:20.973Z</time></trkpt><trkpt lat="43.8679371" lon="12.6303257"><ele>128.14285714285714</ele><time>2026-03-22T09:47:22.973Z</time></trkpt><trkpt lat="43.8679539" lon="12.6304288"><ele>129.28571428571428</ele><time>2026-03-22T09:47:23.972Z</time></trkpt><trkpt lat="43.8679708" lon="12.6305414"><ele>130.42857142857142</ele><time>2026-03-22T09:47:24.973Z</time></trkpt><trkpt lat="43.867983" lon="12.6306451"><ele>131.57142857142856</ele><time>2026-03-22T09:47:25.973Z</time></trkpt><trkpt lat="43.8679811" lon="12.6307412"><ele>132.7142857142857</ele><time>2026-03-22T09:47:26.973Z</time></trkpt><trkpt lat="43.8679667" lon="12.6308351"><ele>133.85714285714286</ele><time>2026-03-22T09:47:27.973Z</time></trkpt><trkpt lat="43.8679445" lon="12.6309259"><ele>135.0</ele><time>2026-03-22T09:47:28.973Z</time></trkpt><trkpt lat="43.8679152" lon="12.6310112"><ele>135.0</ele><time>2026-03-22T09:47:29.973Z</time></trkpt><trkpt lat="43.8678851" lon="12.6310907"><ele>135.0</ele><time>2026-03-22T09:47:30.972Z</time></trkpt><trkpt lat="43.8678523" lon="12.6311759"><ele>135.0</ele><time>2026-03-22T09:47:31.973Z</time></trkpt><trkpt lat="43.867818" lon="12.6312645"><ele>135.0</ele><time>2026-03-22T09:47:32.973Z</time></trkpt><trkpt lat="43.8677803" lon="12.631351"><ele>135.0</ele><time>2026-03-22T09:47:33.971Z</time></trkpt><trkpt lat="43.867746" lon="12.6314457"><ele>135.0</ele><time>2026-03-22T09:47:34.972Z</time></trkpt><trkpt lat="43.8677177" lon="12.6315502"><ele>135.0</ele><time>2026-03-22T09:47:35.973Z</time></trkpt><trkpt lat="43.8676878" lon="12.6316357"><ele>137.33333333333334</ele><time>2026-03-22T09:47:36.973Z</time></trkpt><trkpt lat="43.867653" lon="12.6317152"><ele>139.66666666666666</ele><time>2026-03-22T09:47:37.973Z</time></trkpt><trkpt lat="43.867618" lon="12.631796"><ele>142.0</ele><time>2026-03-22T09:47:38.972Z</time></trkpt><trkpt lat="43.8675822" lon="12.6318716"><ele>144.33333333333331</ele><time>2026-03-22T09:47:39.971Z</time></trkpt><trkpt lat="43.8675524" lon="12.6319566"><ele>146.66666666666666</ele><time>2026-03-22T09:47:40.972Z</time></trkpt><trkpt lat="43.8674952" lon="12.6320994"><ele>149.0</ele><time>2026-03-22T09:47:42.973Z</time></trkpt><trkpt lat="43.8674503" lon="12.6321857"><ele>154.5</ele><time>2026-03-22T09:47:43.972Z</time></trkpt><trkpt lat="43.8674091" lon="12.6322595"><ele>160.0</ele><time>2026-03-22T09:47:44.972Z</time></trkpt><trkpt lat="43.8673309" lon="12.6324027"><ele>165.5</ele><time>2026-03-22T09:47:46.971Z</time></trkpt><trkpt lat="43.8672889" lon="12.6324798"><ele>171.0</ele><time>2026-03-22T09:47:47.972Z</time></trkpt><trkpt lat="43.8672449" lon="12.632556"><ele>176.5</ele><time>2026-03-22T09:47:48.973Z</time></trkpt><trkpt lat="43.8672013" lon="12.6326433"><ele>182.0</ele><time>2026-03-22T09:47:49.972Z</time></trkpt><trkpt lat="43.8671594" lon="12.6327429"><ele>182.66666666666666</ele><time>2026-03-22T09:47:50.973Z</time></trkpt><trkpt lat="43.8671215" lon="12.6328368"><ele>183.33333333333331</ele><time>2026-03-22T09:47:51.972Z</time></trkpt><trkpt lat="43.8670851" lon="12.632926"><ele>184.0</ele><time>2026-03-22T09:47:52.973Z</time></trkpt><trkpt lat="43.8670132" lon="12.6330518"><ele>184.66666666666666</ele><time>2026-03-22T09:47:54.973Z</time></trkpt><trkpt lat="43.866969" lon="12.6331144"><ele>185.33333333333334</ele><time>2026-03-22T09:47:55.972Z</time></trkpt><trkpt lat="43.8669162" lon="12.633173"><ele>186.0</ele><time>2026-03-22T09:47:56.972Z</time></trkpt><trkpt lat="43.8668539" lon="12.6332214"><ele>186.00000000000003</ele><time>2026-03-22T09:47:57.973Z</time></trkpt><trkpt lat="43.8667895" lon="12.6332637"><ele>186.0</ele><time>2026-03-22T09:47:58.973Z</time></trkpt><trkpt lat="43.866722" lon="12.6333116"><ele>186.0</ele><time>2026-03-22T09:47:59.973Z</time></trkpt><trkpt lat="43.8666661" lon="12.6333548"><ele>186.0</ele><time>2026-03-22T09:48:00.973Z</time></trkpt><trkpt lat="43.8666092" lon="12.6333999"><ele>186.0</ele><time>2026-03-22T09:48:01.973Z</time></trkpt><trkpt lat="43.8665436" lon="12.6334552"><ele>186.00000000000003</ele><time>2026-03-22T09:48:02.972Z</time></trkpt><trkpt lat="43.8664766" lon="12.6335183"><ele>186.0</ele><time>2026-03-22T09:48:03.972Z</time></trkpt><trkpt lat="43.8664101" lon="12.633582"><ele>187.16666666666666</ele><time>2026-03-22T09:48:04.973Z</time></trkpt><trkpt lat="43.8663421" lon="12.633641"><ele>188.33333333333331</ele><time>2026-03-22T09:48:05.972Z</time></trkpt><trkpt lat="43.8662735" lon="12.633703"><ele>189.5</ele><time>2026-03-22T09:48:06.972Z</time></trkpt><trkpt lat="43.8662029" lon="12.6337529"><ele>190.66666666666666</ele><time>2026-03-22T09:48:07.973Z</time></trkpt><trkpt lat="43.8661427" lon="12.6337931"><ele>191.83333333333331</ele><time>2026-03-22T09:48:08.973Z</time></trkpt><trkpt lat="43.8660351" lon="12.6338654"><ele>193.0</ele><time>2026-03-22T09:48:10.972Z</time></trkpt><trkpt lat="43.8659747" lon="12.6339071"><ele>195.2857142857143</ele><time>2026-03-22T09:48:11.972Z</time></trkpt><trkpt lat="43.8659116" lon="12.6339494"><ele>197.57142857142858</ele><time>2026-03-22T09:48:12.971Z</time></trkpt><trkpt lat="43.865845" lon="12.6339939"><ele>199.85714285714286</ele><time>2026-03-22T09:48:13.973Z</time></trkpt><trkpt lat="43.8657769" lon="12.6340415"><ele>202.14285714285717</ele><time>2026-03-22T09:48:14.972Z</time></trkpt><trkpt lat="43.8657133" lon="12.6340912"><ele>204.42857142857142</ele><time>2026-03-22T09:48:15.973Z</time></trkpt><trkpt lat="43.86565" lon="12.6341529"><ele>206.71428571428572</ele><time>2026-03-22T09:48:16.972Z</time></trkpt><trkpt lat="43.8655867" lon="12.6342139"><ele>209.0</ele><time>2026-03-22T09:48:17.973Z</time></trkpt><trkpt lat="43.8655245" lon="12.634278"><ele>209.00000000000003</ele><time>2026-03-22T09:48:18.972Z</time></trkpt><trkpt lat="43.8654677" lon="12.6343354"><ele>209.0</ele><time>2026-03-22T09:48:19.973Z</time></trkpt><trkpt lat="43.8654142" lon="12.6343861"><ele>209.0</ele><time>2026-03-22T09:48:20.972Z</time></trkpt><trkpt lat="43.8653139" lon="12.634486"><ele>209.0</ele><time>2026-03-22T09:48:22.972Z</time></trkpt><trkpt lat="43.8652235" lon="12.6345892"><ele>209.00000000000003</ele><time>2026-03-22T09:48:24.973Z</time></trkpt><trkpt lat="43.8651712" lon="12.6346568"><ele>209.0</ele><time>2026-03-22T09:48:25.972Z</time></trkpt><trkpt lat="43.8651205" lon="12.6347233"><ele>209.50000000000003</ele><time>2026-03-22T09:48:26.972Z</time></trkpt><trkpt lat="43.8650633" lon="12.6347983"><ele>210.0</ele><time>2026-03-22T09:48:27.973Z</time></trkpt><trkpt lat="43.86501" lon="12.6348673"><ele>210.5</ele><time>2026-03-22T09:48:28.972Z</time></trkpt><trkpt lat="43.8649474" lon="12.6349502"><ele>211.0</ele><time>2026-03-22T09:48:29.972Z</time></trkpt><trkpt lat="43.8648898" lon="12.6350275"><ele>211.50000000000003</ele><time>2026-03-22T09:48:30.972Z</time></trkpt><trkpt lat="43.8648283" lon="12.635115"><ele>212.0</ele><time>2026-03-22T09:48:31.973Z</time></trkpt><trkpt lat="43.8647661" lon="12.6351986"><ele>212.0</ele><time>2026-03-22T09:48:32.973Z</time></trkpt><trkpt lat="43.8646994" lon="12.6352904"><ele>212.0</ele><time>2026-03-22T09:48:33.972Z</time></trkpt><trkpt lat="43.8646357" lon="12.6353839"><ele>212.0</ele><time>2026-03-22T09:48:34.973Z</time></trkpt><trkpt lat="43.8645739" lon="12.6354757"><ele>212.0</ele><time>2026-03-22T09:48:35.972Z</time></trkpt><trkpt lat="43.8645105" lon="12.6355676"><ele>212.0</ele><time>2026-03-22T09:48:36.973Z</time></trkpt><trkpt lat="43.8644469" lon="12.6356641"><ele>211.39999999999998</ele><time>2026-03-22T09:48:37.972Z</time></trkpt><trkpt lat="43.8643841" lon="12.6357627"><ele>210.79999999999998</ele><time>2026-03-22T09:48:38.972Z</time></trkpt><trkpt lat="43.8643234" lon="12.6358636"><ele>210.2</ele><time>2026-03-22T09:48:39.973Z</time></trkpt><trkpt lat="43.8642586" lon="12.6359694"><ele>209.6</ele><time>2026-03-22T09:48:40.972Z</time></trkpt><trkpt lat="43.8641969" lon="12.6360766"><ele>209.0</ele><time>2026-03-22T09:48:41.972Z</time></trkpt><trkpt lat="43.8641372" lon="12.6361826"><ele>210.66666666666669</ele><time>2026-03-22T09:48:42.973Z</time></trkpt><trkpt lat="43.8640782" lon="12.6362841"><ele>212.33333333333334</ele><time>2026-03-22T09:48:43.973Z</time></trkpt><trkpt lat="43.8640203" lon="12.6363823"><ele>214.0</ele><time>2026-03-22T09:48:44.972Z</time></trkpt><trkpt lat="43.8639716" lon="12.636465"><ele>215.66666666666669</ele><time>2026-03-22T09:48:45.973Z</time></trkpt><trkpt lat="43.8639263" lon="12.6365425"><ele>217.33333333333334</ele><time>2026-03-22T09:48:46.973Z</time></trkpt><trkpt lat="43.8638797" lon="12.6366155"><ele>219.0</ele><time>2026-03-22T09:48:47.972Z</time></trkpt><trkpt lat="43.8638257" lon="12.6366922"><ele>219.0</ele><time>2026-03-22T09:48:48.972Z</time></trkpt><trkpt lat="43.8637696" lon="12.6367578"><ele>219.0</ele><time>2026-03-22T09:48:49.972Z</time></trkpt><trkpt lat="43.8637102" lon="12.6368209"><ele>219.0</ele><time>2026-03-22T09:48:50.973Z</time></trkpt><trkpt lat="43.8636528" lon="12.6368646"><ele>219.0</ele><time>2026-03-22T09:48:51.972Z</time></trkpt><trkpt lat="43.8635397" lon="12.6369453"><ele>219.0</ele><time>2026-03-22T09:48:53.972Z</time></trkpt><trkpt lat="43.8634843" lon="12.6369923"><ele>219.0</ele><time>2026-03-22T09:48:54.973Z</time></trkpt><trkpt lat="43.8633869" lon="12.6370777"><ele>220.66666666666666</ele><time>2026-03-22T09:48:56.973Z</time></trkpt><trkpt lat="43.8632795" lon="12.6371739"><ele>222.33333333333331</ele><time>2026-03-22T09:48:58.972Z</time></trkpt><trkpt lat="43.8632214" lon="12.6372348"><ele>224.0</ele><time>2026-03-22T09:48:59.972Z</time></trkpt><trkpt lat="43.8631677" lon="12.6373012"><ele>225.66666666666666</ele><time>2026-03-22T09:49:00.973Z</time></trkpt><trkpt lat="43.8631242" lon="12.637366"><ele>227.33333333333331</ele><time>2026-03-22T09:49:01.972Z</time></trkpt><trkpt lat="43.8630583" lon="12.6374727"><ele>229.0</ele><time>2026-03-22T09:49:03.973Z</time></trkpt><trkpt lat="43.8630176" lon="12.6375639"><ele>228.99999999999997</ele><time>2026-03-22T09:49:05.973Z</time></trkpt><trkpt lat="43.8629889" lon="12.6376501"><ele>229.0</ele><time>2026-03-22T09:50:19.972Z</time></trkpt><trkpt lat="43.8629385" lon="12.6377641"><ele>229.0</ele><time>2026-03-22T09:50:21.973Z</time></trkpt><trkpt lat="43.862859" lon="12.637882"><ele>229.0</ele><time>2026-03-22T09:50:23.972Z</time></trkpt><trkpt lat="43.8628026" lon="12.6379512"><ele>228.99999999999997</ele><time>2026-03-22T09:50:24.973Z</time></trkpt><trkpt lat="43.8627421" lon="12.6380151"><ele>229.0</ele><time>2026-03-22T09:50:25.972Z</time></trkpt><trkpt lat="43.8626808" lon="12.6380806"><ele>229.57142857142856</ele><time>2026-03-22T09:50:26.971Z</time></trkpt><trkpt lat="43.862627" lon="12.6381433"><ele>230.14285714285717</ele><time>2026-03-22T09:50:27.972Z</time></trkpt><trkpt lat="43.862572" lon="12.6382117"><ele>230.71428571428572</ele><time>2026-03-22T09:50:28.971Z</time></trkpt><trkpt lat="43.8625221" lon="12.6382839"><ele>231.28571428571428</ele><time>2026-03-22T09:50:29.973Z</time></trkpt><trkpt lat="43.8624782" lon="12.6383567"><ele>231.85714285714283</ele><time>2026-03-22T09:50:30.973Z</time></trkpt><trkpt lat="43.8624423" lon="12.6384451"><ele>232.42857142857144</ele><time>2026-03-22T09:50:31.973Z</time></trkpt><trkpt lat="43.8624113" lon="12.6385336"><ele>233.0</ele><time>2026-03-22T09:50:32.973Z</time></trkpt><trkpt lat="43.8623728" lon="12.6386312"><ele>235.83333333333334</ele><time>2026-03-22T09:50:33.972Z</time></trkpt><trkpt lat="43.8623326" lon="12.6387251"><ele>238.66666666666669</ele><time>2026-03-22T09:50:34.973Z</time></trkpt><trkpt lat="43.8622915" lon="12.6388131"><ele>241.5</ele><time>2026-03-22T09:50:35.972Z</time></trkpt><trkpt lat="43.8622422" lon="12.6388985"><ele>244.33333333333331</ele><time>2026-03-22T09:50:36.973Z</time></trkpt><trkpt lat="43.862189" lon="12.6389795"><ele>247.16666666666666</ele><time>2026-03-22T09:50:37.972Z</time></trkpt><trkpt lat="43.8621407" lon="12.6390569"><ele>250.0</ele><time>2026-03-22T09:50:38.972Z</time></trkpt><trkpt lat="43.8620919" lon="12.6391212"><ele>249.99999999999997</ele><time>2026-03-22T09:50:39.972Z</time></trkpt><trkpt lat="43.86203" lon="12.639198"><ele>250.0</ele><time>2026-03-22T09:50:40.973Z</time></trkpt><trkpt lat="43.8619647" lon="12.6392727"><ele>250.0</ele><time>2026-03-22T09:50:41.973Z</time></trkpt><trkpt lat="43.8619057" lon="12.6393466"><ele>250.0</ele><time>2026-03-22T09:50:42.972Z</time></trkpt><trkpt lat="43.8618486" lon="12.639422"><ele>249.99999999999997</ele><time>2026-03-22T09:50:43.973Z</time></trkpt><trkpt lat="43.8617872" lon="12.6395095"><ele>250.0</ele><time>2026-03-22T09:50:44.973Z</time></trkpt><trkpt lat="43.8617319" lon="12.6395851"><ele>252.49999999999997</ele><time>2026-03-22T09:50:45.972Z</time></trkpt><trkpt lat="43.8616776" lon="12.6396648"><ele>255.0</ele><time>2026-03-22T09:50:46.973Z</time></trkpt><trkpt lat="43.8616321" lon="12.6397442"><ele>257.5</ele><time>2026-03-22T09:50:47.973Z</time></trkpt><trkpt lat="43.8615867" lon="12.6398422"><ele>260.0</ele><time>2026-03-22T09:50:48.973Z</time></trkpt><trkpt lat="43.8615338" lon="12.6399411"><ele>262.5</ele><time>2026-03-22T09:50:49.971Z</time></trkpt><trkpt lat="43.8614874" lon="12.6400463"><ele>265.0</ele><time>2026-03-22T09:50:50.971Z</time></trkpt><trkpt lat="43.8614371" lon="12.6401377"><ele>265.0</ele><time>2026-03-22T09:50:51.971Z</time></trkpt><trkpt lat="43.8613807" lon="12.6402134"><ele>265.0</ele><time>2026-03-22T09:50:52.971Z</time></trkpt><trkpt lat="43.8613206" lon="12.6402653"><ele>265.0</ele><time>2026-03-22T09:50:53.973Z</time></trkpt><trkpt lat="43.861255" lon="12.6403001"><ele>265.0</ele><time>2026-03-22T09:50:54.973Z</time></trkpt><trkpt lat="43.861143" lon="12.6403456"><ele>265.0</ele><time>2026-03-22T09:50:56.972Z</time></trkpt><trkpt lat="43.8610149" lon="12.6403647"><ele>266.8333333333333</ele><time>2026-03-22T09:50:58.973Z</time></trkpt><trkpt lat="43.860944" lon="12.6403763"><ele>268.66666666666663</ele><time>2026-03-22T09:50:59.972Z</time></trkpt><trkpt lat="43.860867" lon="12.6403868"><ele>270.5</ele><time>2026-03-22T09:51:00.971Z</time></trkpt><trkpt lat="43.8607784" lon="12.640402"><ele>272.3333333333333</ele><time>2026-03-22T09:51:01.972Z</time></trkpt><trkpt lat="43.8606954" lon="12.6404208"><ele>274.1666666666667</ele><time>2026-03-22T09:51:02.973Z</time></trkpt><trkpt lat="43.8606126" lon="12.6404394"><ele>276.0</ele><time>2026-03-22T09:51:03.972Z</time></trkpt><trkpt lat="43.8605357" lon="12.6404605"><ele>276.0</ele><time>2026-03-22T09:51:04.973Z</time></trkpt><trkpt lat="43.8604636" lon="12.6404847"><ele>276.0</ele><time>2026-03-22T09:51:05.972Z</time></trkpt><trkpt lat="43.8603903" lon="12.6405179"><ele>276.0</ele><time>2026-03-22T09:51:06.973Z</time></trkpt><trkpt lat="43.8603189" lon="12.6405471"><ele>276.0</ele><time>2026-03-22T09:51:07.973Z</time></trkpt><trkpt lat="43.8602468" lon="12.6405762"><ele>276.0</ele><time>2026-03-22T09:51:08.971Z</time></trkpt><trkpt lat="43.8601831" lon="12.6405988"><ele>276.0</ele><time>2026-03-22T09:51:09.972Z</time></trkpt><trkpt lat="43.8601193" lon="12.6406084"><ele>276.0</ele><time>2026-03-22T09:51:10.973Z</time></trkpt><trkpt lat="43.8599956" lon="12.6406073"><ele>279.1666666666667</ele><time>2026-03-22T09:51:12.973Z</time></trkpt><trkpt lat="43.8598831" lon="12.6405934"><ele>282.3333333333333</ele><time>2026-03-22T09:51:14.972Z</time></trkpt><trkpt lat="43.8598123" lon="12.6405514"><ele>285.5</ele><time>2026-03-22T09:51:16.973Z</time></trkpt><trkpt lat="43.8597806" lon="12.640475"><ele>288.66666666666663</ele><time>2026-03-22T09:51:18.973Z</time></trkpt><trkpt lat="43.8597993" lon="12.6403798"><ele>291.8333333333333</ele><time>2026-03-22T09:51:24.972Z</time></trkpt><trkpt lat="43.8598429" lon="12.6402904"><ele>295.0</ele><time>2026-03-22T09:51:27.973Z</time></trkpt><trkpt lat="43.8598696" lon="12.6402021"><ele>295.3333333333333</ele><time>2026-03-22T09:51:30.973Z</time></trkpt><trkpt lat="43.8598097" lon="12.6401034"><ele>295.66666666666663</ele><time>2026-03-22T09:51:33.971Z</time></trkpt><trkpt lat="43.8597393" lon="12.6400592"><ele>296.0</ele><time>2026-03-22T09:51:35.973Z</time></trkpt><trkpt lat="43.8596687" lon="12.6400718"><ele>296.3333333333333</ele><time>2026-03-22T09:51:36.973Z</time></trkpt><trkpt lat="43.8595832" lon="12.6400572"><ele>296.6666666666667</ele><time>2026-03-22T09:51:38.972Z</time></trkpt><trkpt lat="43.8594735" lon="12.6400103"><ele>297.0</ele><time>2026-03-22T09:51:40.973Z</time></trkpt><trkpt lat="43.8594056" lon="12.6400028"><ele>297.0</ele><time>2026-03-22T09:51:41.973Z</time></trkpt><trkpt lat="43.8593172" lon="12.6399787"><ele>297.0</ele><time>2026-03-22T09:51:43.973Z</time></trkpt><trkpt lat="43.8592462" lon="12.6400423"><ele>297.0</ele><time>2026-03-22T09:51:45.972Z</time></trkpt><trkpt lat="43.859185" lon="12.6400986"><ele>297.0</ele><time>2026-03-22T09:51:47.972Z</time></trkpt><trkpt lat="43.8591567" lon="12.6401895"><ele>297.0</ele><time>2026-03-22T10:03:23.973Z</time></trkpt><trkpt lat="43.8591142" lon="12.6403429"><ele>297.0</ele><time>2026-03-22T10:03:25.973Z</time></trkpt><trkpt lat="43.8590604" lon="12.6404686"><ele>299.8333333333333</ele><time>2026-03-22T10:03:27.973Z</time></trkpt><trkpt lat="43.8589979" lon="12.6406107"><ele>302.6666666666667</ele><time>2026-03-22T10:03:29.972Z</time></trkpt><trkpt lat="43.8589632" lon="12.6406847"><ele>305.5</ele><time>2026-03-22T10:03:30.972Z</time></trkpt><trkpt lat="43.8588972" lon="12.640797"><ele>308.33333333333337</ele><time>2026-03-22T10:03:32.973Z</time></trkpt><trkpt lat="43.858841" lon="12.6408446"><ele>311.1666666666667</ele><time>2026-03-22T10:03:33.973Z</time></trkpt><trkpt lat="43.8587799" lon="12.640892"><ele>314.0</ele><time>2026-03-22T10:03:34.972Z</time></trkpt><trkpt lat="43.8587094" lon="12.6409297"><ele>313.99999999999994</ele><time>2026-03-22T10:03:35.973Z</time></trkpt><trkpt lat="43.8586404" lon="12.6409723"><ele>314.0</ele><time>2026-03-22T10:03:36.973Z</time></trkpt><trkpt lat="43.8585716" lon="12.6410129"><ele>314.0</ele><time>2026-03-22T10:03:37.973Z</time></trkpt><trkpt lat="43.858517" lon="12.6410596"><ele>314.0</ele><time>2026-03-22T10:03:38.971Z</time></trkpt><trkpt lat="43.8584611" lon="12.6411161"><ele>314.0</ele><time>2026-03-22T10:03:39.971Z</time></trkpt><trkpt lat="43.8584071" lon="12.6411751"><ele>313.99999999999994</ele><time>2026-03-22T10:03:40.972Z</time></trkpt><trkpt lat="43.8583578" lon="12.6412396"><ele>314.0</ele><time>2026-03-22T10:03:41.972Z</time></trkpt><trkpt lat="43.8583056" lon="12.6413206"><ele>317.6</ele><time>2026-03-22T10:03:42.972Z</time></trkpt><trkpt lat="43.8582615" lon="12.6414093"><ele>321.2</ele><time>2026-03-22T10:03:43.972Z</time></trkpt><trkpt lat="43.8582275" lon="12.6415198"><ele>324.8</ele><time>2026-03-22T10:03:44.973Z</time></trkpt><trkpt lat="43.8581815" lon="12.6416346"><ele>328.40000000000003</ele><time>2026-03-22T10:03:45.972Z</time></trkpt><trkpt lat="43.8581381" lon="12.6417661"><ele>332.0</ele><time>2026-03-22T10:03:46.971Z</time></trkpt><trkpt lat="43.8580894" lon="12.6419067"><ele>332.0</ele><time>2026-03-22T10:03:47.972Z</time></trkpt><trkpt lat="43.8580443" lon="12.6420706"><ele>332.0</ele><time>2026-03-22T10:03:48.973Z</time></trkpt><trkpt lat="43.8579931" lon="12.6422368"><ele>332.0</ele><time>2026-03-22T10:03:49.973Z</time></trkpt><trkpt lat="43.8579428" lon="12.6424067"><ele>332.0</ele><time>2026-03-22T10:03:50.972Z</time></trkpt><trkpt lat="43.8579056" lon="12.6425836"><ele>332.0</ele><time>2026-03-22T10:03:51.973Z</time></trkpt><trkpt lat="43.8578505" lon="12.6427548"><ele>332.0</ele><time>2026-03-22T10:03:52.973Z</time></trkpt><trkpt lat="43.8577989" lon="12.6429211"><ele>332.0</ele><time>2026-03-22T10:03:53.973Z</time></trkpt><trkpt lat="43.8577463" lon="12.643084"><ele>332.0</ele><time>2026-03-22T10:03:54.973Z</time></trkpt><trkpt lat="43.8576988" lon="12.6432392"><ele>331.0</ele><time>2026-03-22T10:03:55.973Z</time></trkpt><trkpt lat="43.8576617" lon="12.643397"><ele>330.0</ele><time>2026-03-22T10:03:56.972Z</time></trkpt><trkpt lat="43.8576302" lon="12.6435611"><ele>329.0</ele><time>2026-03-22T10:03:57.971Z</time></trkpt><trkpt lat="43.8576053" lon="12.6437284"><ele>328.0</ele><time>2026-03-22T10:03:58.972Z</time></trkpt><trkpt lat="43.8575785" lon="12.6439001"><ele>332.79999999999995</ele><time>2026-03-22T10:03:59.973Z</time></trkpt><trkpt lat="43.8575487" lon="12.6440709"><ele>337.6</ele><time>2026-03-22T10:04:00.972Z</time></trkpt><trkpt lat="43.8575183" lon="12.6442242"><ele>342.4</ele><time>2026-03-22T10:04:01.972Z</time></trkpt><trkpt lat="43.8574778" lon="12.6443604"><ele>347.20000000000005</ele><time>2026-03-22T10:04:02.972Z</time></trkpt><trkpt lat="43.8574323" lon="12.6444597"><ele>352.0</ele><time>2026-03-22T10:04:03.972Z</time></trkpt><trkpt lat="43.8573898" lon="12.6445329"><ele>352.20000000000005</ele><time>2026-03-22T10:04:04.972Z</time></trkpt><trkpt lat="43.8573378" lon="12.644666"><ele>352.4</ele><time>2026-03-22T10:04:06.972Z</time></trkpt><trkpt lat="43.8573449" lon="12.6448397"><ele>352.6</ele><time>2026-03-22T10:04:08.971Z</time></trkpt><trkpt lat="43.8573703" lon="12.6449953"><ele>352.79999999999995</ele><time>2026-03-22T10:04:10.972Z</time></trkpt><trkpt lat="43.8573904" lon="12.6450913"><ele>353.0</ele><time>2026-03-22T10:04:11.972Z</time></trkpt><trkpt lat="43.8574099" lon="12.6452033"><ele>353.4</ele><time>2026-03-22T10:04:12.971Z</time></trkpt><trkpt lat="43.8574274" lon="12.6453264"><ele>353.79999999999995</ele><time>2026-03-22T10:04:13.972Z</time></trkpt><trkpt lat="43.8574486" lon="12.6454586"><ele>354.2</ele><time>2026-03-22T10:04:14.973Z</time></trkpt><trkpt lat="43.857472" lon="12.6455922"><ele>354.6</ele><time>2026-03-22T10:04:15.973Z</time></trkpt><trkpt lat="43.8574852" lon="12.645718"><ele>355.0</ele><time>2026-03-22T10:04:16.973Z</time></trkpt><trkpt lat="43.8574943" lon="12.6458565"><ele>355.0</ele><time>2026-03-22T10:04:17.973Z</time></trkpt><trkpt lat="43.8574955" lon="12.6459898"><ele>355.0</ele><time>2026-03-22T10:04:18.972Z</time></trkpt><trkpt lat="43.8574909" lon="12.646126"><ele>355.0</ele><time>2026-03-22T10:04:19.971Z</time></trkpt><trkpt lat="43.8574849" lon="12.6462402"><ele>355.0</ele><time>2026-03-22T10:04:20.972Z</time></trkpt><trkpt lat="43.8574771" lon="12.6463366"><ele>355.0</ele><time>2026-03-22T10:04:21.973Z</time></trkpt><trkpt lat="43.8574416" lon="12.6464579"><ele>355.0</ele><time>2026-03-22T10:04:23.972Z</time></trkpt><trkpt lat="43.8573236" lon="12.6464752"><ele>355.0</ele><time>2026-03-22T10:04:25.972Z</time></trkpt><trkpt lat="43.857205" lon="12.6464884"><ele>355.0</ele><time>2026-03-22T10:04:27.972Z</time></trkpt><trkpt lat="43.857139" lon="12.6464977"><ele>355.0</ele><time>2026-03-22T10:04:29.972Z</time></trkpt><trkpt lat="43.8571577" lon="12.6463727"><ele>355.0</ele><time>2026-03-22T10:04:32.973Z</time></trkpt><trkpt lat="43.857198" lon="12.6463012"><ele>355.0</ele><time>2026-03-22T10:04:33.973Z</time></trkpt><trkpt lat="43.8572148" lon="12.6462014"><ele>355.0</ele><time>2026-03-22T10:04:34.973Z</time></trkpt><trkpt lat="43.8572117" lon="12.6460552"><ele>355.0</ele><time>2026-03-22T10:04:35.973Z</time></trkpt><trkpt lat="43.8571909" lon="12.6458949"><ele>355.0</ele><time>2026-03-22T10:04:36.973Z</time></trkpt><trkpt lat="43.8571545" lon="12.6457174"><ele>355.0</ele><time>2026-03-22T10:04:37.973Z</time></trkpt><trkpt lat="43.8571091" lon="12.6455378"><ele>355.0</ele><time>2026-03-22T10:04:38.973Z</time></trkpt><trkpt lat="43.8570622" lon="12.6453717"><ele>354.6</ele><time>2026-03-22T10:04:39.972Z</time></trkpt><trkpt lat="43.8570154" lon="12.6452098"><ele>354.2</ele><time>2026-03-22T10:04:40.971Z</time></trkpt><trkpt lat="43.8569702" lon="12.6450627"><ele>353.79999999999995</ele><time>2026-03-22T10:04:41.973Z</time></trkpt><trkpt lat="43.8569206" lon="12.6449419"><ele>353.4</ele><time>2026-03-22T10:04:42.972Z</time></trkpt><trkpt lat="43.8568638" lon="12.644832"><ele>353.0</ele><time>2026-03-22T10:04:43.971Z</time></trkpt><trkpt lat="43.8567985" lon="12.6447435"><ele>353.59999999999997</ele><time>2026-03-22T10:04:44.973Z</time></trkpt><trkpt lat="43.856732" lon="12.6446703"><ele>354.2</ele><time>2026-03-22T10:04:45.973Z</time></trkpt><trkpt lat="43.856659" lon="12.644605"><ele>354.8</ele><time>2026-03-22T10:04:46.972Z</time></trkpt><trkpt lat="43.8565778" lon="12.64454"><ele>355.4</ele><time>2026-03-22T10:04:47.972Z</time></trkpt><trkpt lat="43.8564943" lon="12.6444639"><ele>356.0</ele><time>2026-03-22T10:04:48.971Z</time></trkpt><trkpt lat="43.8564146" lon="12.6443713"><ele>356.0</ele><time>2026-03-22T10:04:49.972Z</time></trkpt><trkpt lat="43.8563479" lon="12.6442669"><ele>356.0</ele><time>2026-03-22T10:04:50.972Z</time></trkpt><trkpt lat="43.8562851" lon="12.6441544"><ele>356.0</ele><time>2026-03-22T10:04:51.972Z</time></trkpt><trkpt lat="43.8562015" lon="12.6440551"><ele>356.0</ele><time>2026-03-22T10:04:52.973Z</time></trkpt><trkpt lat="43.8561084" lon="12.643986"><ele>356.0</ele><time>2026-03-22T10:04:53.972Z</time></trkpt><trkpt lat="43.8560197" lon="12.6439299"><ele>352.6666666666667</ele><time>2026-03-22T10:04:54.972Z</time></trkpt><trkpt lat="43.8559356" lon="12.6438915"><ele>349.33333333333337</ele><time>2026-03-22T10:04:55.973Z</time></trkpt><trkpt lat="43.8558507" lon="12.6438594"><ele>346.0</ele><time>2026-03-22T10:04:56.973Z</time></trkpt><trkpt lat="43.8557695" lon="12.6438288"><ele>342.6666666666667</ele><time>2026-03-22T10:04:57.973Z</time></trkpt><trkpt lat="43.8556924" lon="12.6437953"><ele>339.3333333333333</ele><time>2026-03-22T10:04:58.973Z</time></trkpt><trkpt lat="43.8556178" lon="12.6437525"><ele>336.0</ele><time>2026-03-22T10:04:59.972Z</time></trkpt><trkpt lat="43.8555556" lon="12.6436994"><ele>336.0</ele><time>2026-03-22T10:05:00.973Z</time></trkpt><trkpt lat="43.8555044" lon="12.6436372"><ele>336.0</ele><time>2026-03-22T10:05:01.972Z</time></trkpt><trkpt lat="43.8554683" lon="12.6435453"><ele>336.0</ele><time>2026-03-22T10:05:02.972Z</time></trkpt><trkpt lat="43.855436" lon="12.6434328"><ele>336.0</ele><time>2026-03-22T10:05:03.972Z</time></trkpt><trkpt lat="43.8554257" lon="12.6432732"><ele>336.0</ele><time>2026-03-22T10:05:04.973Z</time></trkpt><trkpt lat="43.8554139" lon="12.643119"><ele>338.6</ele><time>2026-03-22T10:05:05.972Z</time></trkpt><trkpt lat="43.8553948" lon="12.6429726"><ele>341.20000000000005</ele><time>2026-03-22T10:05:06.972Z</time></trkpt><trkpt lat="43.8553707" lon="12.6428393"><ele>343.79999999999995</ele><time>2026-03-22T10:05:07.972Z</time></trkpt><trkpt lat="43.8553406" lon="12.6427128"><ele>346.4</ele><time>2026-03-22T10:05:08.973Z</time></trkpt><trkpt lat="43.8553063" lon="12.6425936"><ele>349.0</ele><time>2026-03-22T10:05:09.973Z</time></trkpt><trkpt lat="43.8552601" lon="12.6424832"><ele>348.0</ele><time>2026-03-22T10:05:10.973Z</time></trkpt><trkpt lat="43.8552162" lon="12.6423791"><ele>347.0</ele><time>2026-03-22T10:05:11.973Z</time></trkpt><trkpt lat="43.8551765" lon="12.6422967"><ele>346.0</ele><time>2026-03-22T10:05:12.973Z</time></trkpt><trkpt lat="43.8551447" lon="12.6422112"><ele>345.0</ele><time>2026-03-22T10:05:13.972Z</time></trkpt><trkpt lat="43.8551105" lon="12.6421359"><ele>344.0</ele><time>2026-03-22T10:05:14.972Z</time></trkpt><trkpt lat="43.8550457" lon="12.6419952"><ele>343.0</ele><time>2026-03-22T10:05:16.973Z</time></trkpt><trkpt lat="43.8549974" lon="12.6418807"><ele>343.0</ele><time>2026-03-22T10:05:18.973Z</time></trkpt><trkpt lat="43.854955" lon="12.6418032"><ele>343.0</ele><time>2026-03-22T10:05:20.973Z</time></trkpt><trkpt lat="43.8549004" lon="12.6417357"><ele>343.0</ele><time>2026-03-22T10:05:23.972Z</time></trkpt><trkpt lat="43.8548401" lon="12.6416844"><ele>343.0</ele><time>2026-03-22T10:05:29.973Z</time></trkpt><trkpt lat="43.8547206" lon="12.6416358"><ele>343.0</ele><time>2026-03-22T10:06:19.973Z</time></trkpt><trkpt lat="43.8546605" lon="12.6415793"><ele>343.0</ele><time>2026-03-22T10:06:20.973Z</time></trkpt><trkpt lat="43.8546108" lon="12.6414951"><ele>343.0</ele><time>2026-03-22T10:06:21.973Z</time></trkpt><trkpt lat="43.8545731" lon="12.6413859"><ele>343.0</ele><time>2026-03-22T10:06:22.973Z</time></trkpt><trkpt lat="43.8545457" lon="12.6412584"><ele>343.0</ele><time>2026-03-22T10:06:23.972Z</time></trkpt><trkpt lat="43.854533" lon="12.6411309"><ele>343.0</ele><time>2026-03-22T10:06:24.972Z</time></trkpt><trkpt lat="43.854539" lon="12.6410025"><ele>343.0</ele><time>2026-03-22T10:06:25.972Z</time></trkpt><trkpt lat="43.8545557" lon="12.6408863"><ele>345.4</ele><time>2026-03-22T10:06:26.973Z</time></trkpt><trkpt lat="43.8545693" lon="12.6407647"><ele>347.79999999999995</ele><time>2026-03-22T10:06:27.972Z</time></trkpt><trkpt lat="43.8545733" lon="12.6406493"><ele>350.2</ele><time>2026-03-22T10:06:28.972Z</time></trkpt><trkpt lat="43.8545634" lon="12.6405259"><ele>352.6</ele><time>2026-03-22T10:06:29.972Z</time></trkpt><trkpt lat="43.8545375" lon="12.6403999"><ele>355.0</ele><time>2026-03-22T10:06:30.972Z</time></trkpt><trkpt lat="43.8545038" lon="12.6402639"><ele>355.5</ele><time>2026-03-22T10:06:31.973Z</time></trkpt><trkpt lat="43.8544079" lon="12.6401264"><ele>356.0</ele><time>2026-03-22T10:06:32.973Z</time></trkpt><trkpt lat="43.8543183" lon="12.6399821"><ele>356.5</ele><time>2026-03-22T10:06:33.973Z</time></trkpt><trkpt lat="43.8542327" lon="12.6398521"><ele>357.0</ele><time>2026-03-22T10:06:34.972Z</time></trkpt><trkpt lat="43.8541547" lon="12.6397354"><ele>353.0</ele><time>2026-03-22T10:06:35.973Z</time></trkpt><trkpt lat="43.8540903" lon="12.6396257"><ele>349.0</ele><time>2026-03-22T10:06:36.972Z</time></trkpt><trkpt lat="43.8540297" lon="12.6395161"><ele>345.0</ele><time>2026-03-22T10:06:37.973Z</time></trkpt><trkpt lat="43.8539784" lon="12.6394056"><ele>341.0</ele><time>2026-03-22T10:06:38.972Z</time></trkpt><trkpt lat="43.8539258" lon="12.6393092"><ele>337.0</ele><time>2026-03-22T10:06:39.973Z</time></trkpt><trkpt lat="43.8538706" lon="12.6392419"><ele>337.0</ele><time>2026-03-22T10:06:40.972Z</time></trkpt><trkpt lat="43.8538211" lon="12.6391712"><ele>337.0</ele><time>2026-03-22T10:06:41.973Z</time></trkpt><trkpt lat="43.8537612" lon="12.6391135"><ele>337.0</ele><time>2026-03-22T10:06:42.972Z</time></trkpt><trkpt lat="43.8537003" lon="12.6390818"><ele>337.0</ele><time>2026-03-22T10:06:43.972Z</time></trkpt><trkpt lat="43.8536249" lon="12.6390788"><ele>337.0</ele><time>2026-03-22T10:06:44.972Z</time></trkpt><trkpt lat="43.8535273" lon="12.639108"><ele>337.0</ele><time>2026-03-22T10:06:45.972Z</time></trkpt><trkpt lat="43.8534096" lon="12.6391634"><ele>333.0</ele><time>2026-03-22T10:06:46.973Z</time></trkpt><trkpt lat="43.8532801" lon="12.6392292"><ele>329.0</ele><time>2026-03-22T10:06:47.973Z</time></trkpt><trkpt lat="43.8531598" lon="12.6392931"><ele>325.0</ele><time>2026-03-22T10:06:48.972Z</time></trkpt><trkpt lat="43.8530565" lon="12.6393453"><ele>321.0</ele><time>2026-03-22T10:06:49.973Z</time></trkpt><trkpt lat="43.8529799" lon="12.6393865"><ele>321.0</ele><time>2026-03-22T10:06:50.972Z</time></trkpt><trkpt lat="43.8529208" lon="12.6394234"><ele>321.0</ele><time>2026-03-22T10:06:51.972Z</time></trkpt><trkpt lat="43.8528836" lon="12.6395076"><ele>321.0</ele><time>2026-03-22T10:06:53.972Z</time></trkpt><trkpt lat="43.8529409" lon="12.6395644"><ele>321.0</ele><time>2026-03-22T10:06:54.973Z</time></trkpt><trkpt lat="43.8530029" lon="12.6395982"><ele>321.0</ele><time>2026-03-22T10:06:55.972Z</time></trkpt><trkpt lat="43.8530834" lon="12.6396261"><ele>321.0</ele><time>2026-03-22T10:06:56.973Z</time></trkpt><trkpt lat="43.8531877" lon="12.6396323"><ele>319.5</ele><time>2026-03-22T10:06:57.972Z</time></trkpt><trkpt lat="43.8532829" lon="12.6396309"><ele>318.0</ele><time>2026-03-22T10:06:58.972Z</time></trkpt><trkpt lat="43.8533799" lon="12.6396377"><ele>316.5</ele><time>2026-03-22T10:06:59.972Z</time></trkpt><trkpt lat="43.853452" lon="12.6396442"><ele>315.0</ele><time>2026-03-22T10:07:00.973Z</time></trkpt><trkpt lat="43.8534844" lon="12.6397566"><ele>313.5</ele><time>2026-03-22T10:07:02.972Z</time></trkpt><trkpt lat="43.8534089" lon="12.6398115"><ele>312.0</ele><time>2026-03-22T10:07:03.972Z</time></trkpt><trkpt lat="43.8533352" lon="12.6398659"><ele>312.0</ele><time>2026-03-22T10:07:04.972Z</time></trkpt><trkpt lat="43.8532144" lon="12.6399364"><ele>312.0</ele><time>2026-03-22T10:07:05.973Z</time></trkpt><trkpt lat="43.85311" lon="12.6400922"><ele>312.0</ele><time>2026-03-22T10:07:06.972Z</time></trkpt><trkpt lat="43.8530179" lon="12.6402529"><ele>312.0</ele><time>2026-03-22T10:07:07.973Z</time></trkpt><trkpt lat="43.852932" lon="12.6404153"><ele>307.0</ele><time>2026-03-22T10:07:08.973Z</time></trkpt><trkpt lat="43.8528536" lon="12.6405873"><ele>302.0</ele><time>2026-03-22T10:07:09.972Z</time></trkpt><trkpt lat="43.8527807" lon="12.6407517"><ele>297.0</ele><time>2026-03-22T10:07:10.973Z</time></trkpt><trkpt lat="43.8527132" lon="12.6409183"><ele>292.0</ele><time>2026-03-22T10:07:11.971Z</time></trkpt><trkpt lat="43.8526423" lon="12.6410841"><ele>288.75</ele><time>2026-03-22T10:07:12.972Z</time></trkpt><trkpt lat="43.8525827" lon="12.6412251"><ele>285.5</ele><time>2026-03-22T10:07:13.972Z</time></trkpt><trkpt lat="43.8525235" lon="12.6413729"><ele>282.25</ele><time>2026-03-22T10:07:14.973Z</time></trkpt><trkpt lat="43.8524643" lon="12.6415253"><ele>279.0</ele><time>2026-03-22T10:07:15.973Z</time></trkpt><trkpt lat="43.8524009" lon="12.6416788"><ele>279.0</ele><time>2026-03-22T10:07:16.972Z</time></trkpt><trkpt lat="43.8523534" lon="12.6418232"><ele>279.0</ele><time>2026-03-22T10:07:17.973Z</time></trkpt><trkpt lat="43.8522944" lon="12.6419578"><ele>279.0</ele><time>2026-03-22T10:07:18.972Z</time></trkpt><trkpt lat="43.8522313" lon="12.6420781"><ele>279.0</ele><time>2026-03-22T10:07:19.972Z</time></trkpt><trkpt lat="43.8521614" lon="12.6421664"><ele>279.0</ele><time>2026-03-22T10:07:20.972Z</time></trkpt><trkpt lat="43.8520914" lon="12.6422452"><ele>277.2857142857143</ele><time>2026-03-22T10:07:21.972Z</time></trkpt><trkpt lat="43.8520275" lon="12.6422949"><ele>275.57142857142856</ele><time>2026-03-22T10:07:22.972Z</time></trkpt><trkpt lat="43.8519607" lon="12.6423235"><ele>273.8571428571429</ele><time>2026-03-22T10:07:23.973Z</time></trkpt><trkpt lat="43.8518859" lon="12.6423414"><ele>272.1428571428571</ele><time>2026-03-22T10:07:24.972Z</time></trkpt><trkpt lat="43.8518142" lon="12.642319"><ele>270.42857142857144</ele><time>2026-03-22T10:07:25.972Z</time></trkpt><trkpt lat="43.851748" lon="12.6422808"><ele>268.7142857142857</ele><time>2026-03-22T10:07:26.973Z</time></trkpt><trkpt lat="43.8516868" lon="12.6422233"><ele>267.0</ele><time>2026-03-22T10:07:27.972Z</time></trkpt><trkpt lat="43.8516149" lon="12.6421369"><ele>265.75</ele><time>2026-03-22T10:07:28.972Z</time></trkpt><trkpt lat="43.8515347" lon="12.6420292"><ele>264.5</ele><time>2026-03-22T10:07:29.972Z</time></trkpt><trkpt lat="43.8514317" lon="12.6419082"><ele>263.25</ele><time>2026-03-22T10:07:30.972Z</time></trkpt><trkpt lat="43.8513201" lon="12.6417924"><ele>262.0</ele><time>2026-03-22T10:07:31.972Z</time></trkpt><trkpt lat="43.8512257" lon="12.6416904"><ele>264.2</ele><time>2026-03-22T10:07:32.973Z</time></trkpt><trkpt lat="43.8511505" lon="12.6415886"><ele>266.4</ele><time>2026-03-22T10:07:33.972Z</time></trkpt><trkpt lat="43.8510978" lon="12.6414828"><ele>268.6</ele><time>2026-03-22T10:07:34.973Z</time></trkpt><trkpt lat="43.8510557" lon="12.6413597"><ele>270.8</ele><time>2026-03-22T10:07:35.973Z</time></trkpt><trkpt lat="43.851015" lon="12.641216"><ele>273.0</ele><time>2026-03-22T10:07:36.973Z</time></trkpt><trkpt lat="43.8509874" lon="12.641072"><ele>271.2</ele><time>2026-03-22T10:07:37.972Z</time></trkpt><trkpt lat="43.8509441" lon="12.6409644"><ele>269.4</ele><time>2026-03-22T10:07:38.973Z</time></trkpt><trkpt lat="43.8509004" lon="12.6408679"><ele>267.59999999999997</ele><time>2026-03-22T10:07:39.972Z</time></trkpt><trkpt lat="43.8508113" lon="12.6408125"><ele>265.8</ele><time>2026-03-22T10:07:40.972Z</time></trkpt><trkpt lat="43.8507186" lon="12.6407602"><ele>264.0</ele><time>2026-03-22T10:07:41.972Z</time></trkpt><trkpt lat="43.8505852" lon="12.6407421"><ele>264.0</ele><time>2026-03-22T10:07:42.973Z</time></trkpt><trkpt lat="43.8504633" lon="12.6407197"><ele>264.0</ele><time>2026-03-22T10:07:43.973Z</time></trkpt><trkpt lat="43.8503563" lon="12.6406791"><ele>264.0</ele><time>2026-03-22T10:07:44.972Z</time></trkpt><trkpt lat="43.8502624" lon="12.6406328"><ele>264.0</ele><time>2026-03-22T10:07:45.972Z</time></trkpt><trkpt lat="43.8501759" lon="12.6405942"><ele>264.0</ele><time>2026-03-22T10:07:46.973Z</time></trkpt><trkpt lat="43.8500999" lon="12.6405756"><ele>262.59999999999997</ele><time>2026-03-22T10:07:47.973Z</time></trkpt><trkpt lat="43.8500274" lon="12.6405911"><ele>261.2</ele><time>2026-03-22T10:07:48.972Z</time></trkpt><trkpt lat="43.8499373" lon="12.6406386"><ele>259.79999999999995</ele><time>2026-03-22T10:07:49.971Z</time></trkpt><trkpt lat="43.8498154" lon="12.6407196"><ele>258.4</ele><time>2026-03-22T10:07:50.972Z</time></trkpt><trkpt lat="43.8497032" lon="12.6408093"><ele>257.0</ele><time>2026-03-22T10:07:51.972Z</time></trkpt><trkpt lat="43.8495964" lon="12.6409094"><ele>257.0</ele><time>2026-03-22T10:07:52.972Z</time></trkpt><trkpt lat="43.8494913" lon="12.6410513"><ele>257.0</ele><time>2026-03-22T10:07:53.973Z</time></trkpt><trkpt lat="43.84939" lon="12.6412129"><ele>257.0</ele><time>2026-03-22T10:07:54.972Z</time></trkpt><trkpt lat="43.8493026" lon="12.6413965"><ele>252.66666666666669</ele><time>2026-03-22T10:07:55.973Z</time></trkpt><trkpt lat="43.8492101" lon="12.6415485"><ele>248.33333333333331</ele><time>2026-03-22T10:07:56.973Z</time></trkpt><trkpt lat="43.8491032" lon="12.641684"><ele>244.0</ele><time>2026-03-22T10:07:57.971Z</time></trkpt><trkpt lat="43.8489666" lon="12.6418118"><ele>244.0</ele><time>2026-03-22T10:07:58.973Z</time></trkpt><trkpt lat="43.8488412" lon="12.641928"><ele>244.0</ele><time>2026-03-22T10:07:59.972Z</time></trkpt><trkpt lat="43.8487316" lon="12.6420227"><ele>244.0</ele><time>2026-03-22T10:08:00.972Z</time></trkpt><trkpt lat="43.848631" lon="12.6420901"><ele>244.0</ele><time>2026-03-22T10:08:01.973Z</time></trkpt><trkpt lat="43.8485215" lon="12.6421316"><ele>241.6</ele><time>2026-03-22T10:08:02.972Z</time></trkpt><trkpt lat="43.8483951" lon="12.6421574"><ele>239.2</ele><time>2026-03-22T10:08:03.973Z</time></trkpt><trkpt lat="43.8482802" lon="12.6421878"><ele>236.79999999999998</ele><time>2026-03-22T10:08:04.973Z</time></trkpt><trkpt lat="43.8481853" lon="12.6422232"><ele>234.39999999999998</ele><time>2026-03-22T10:08:05.972Z</time></trkpt><trkpt lat="43.8480989" lon="12.6422822"><ele>232.0</ele><time>2026-03-22T10:08:06.971Z</time></trkpt><trkpt lat="43.8480222" lon="12.6423722"><ele>232.0</ele><time>2026-03-22T10:08:07.972Z</time></trkpt><trkpt lat="43.8479679" lon="12.642477"><ele>232.0</ele><time>2026-03-22T10:08:08.973Z</time></trkpt><trkpt lat="43.8479412" lon="12.6425925"><ele>232.0</ele><time>2026-03-22T10:08:09.973Z</time></trkpt><trkpt lat="43.8479399" lon="12.6427275"><ele>232.0</ele><time>2026-03-22T10:08:10.973Z</time></trkpt><trkpt lat="43.8479573" lon="12.6428723"><ele>232.0</ele><time>2026-03-22T10:08:11.972Z</time></trkpt><trkpt lat="43.847958" lon="12.64301"><ele>230.8</ele><time>2026-03-22T10:08:12.972Z</time></trkpt><trkpt lat="43.8479303" lon="12.6431264"><ele>229.6</ele><time>2026-03-22T10:08:13.971Z</time></trkpt><trkpt lat="43.8478799" lon="12.6432154"><ele>228.40000000000003</ele><time>2026-03-22T10:08:14.973Z</time></trkpt><trkpt lat="43.8478069" lon="12.643264"><ele>227.20000000000002</ele><time>2026-03-22T10:08:15.973Z</time></trkpt><trkpt lat="43.8477129" lon="12.6432677"><ele>226.0</ele><time>2026-03-22T10:08:16.972Z</time></trkpt><trkpt lat="43.8475934" lon="12.6432453"><ele>224.8</ele><time>2026-03-22T10:08:17.972Z</time></trkpt><trkpt lat="43.8474707" lon="12.6432135"><ele>223.60000000000002</ele><time>2026-03-22T10:08:18.973Z</time></trkpt><trkpt lat="43.8473715" lon="12.6431665"><ele>222.4</ele><time>2026-03-22T10:08:19.972Z</time></trkpt><trkpt lat="43.8472997" lon="12.6431115"><ele>221.2</ele><time>2026-03-22T10:08:20.973Z</time></trkpt><trkpt lat="43.8472468" lon="12.6430363"><ele>220.0</ele><time>2026-03-22T10:08:21.972Z</time></trkpt><trkpt lat="43.8472171" lon="12.6429279"><ele>219.99999999999997</ele><time>2026-03-22T10:08:22.973Z</time></trkpt><trkpt lat="43.8472105" lon="12.6428044"><ele>220.0</ele><time>2026-03-22T10:08:23.972Z</time></trkpt><trkpt lat="43.8472087" lon="12.6427092"><ele>220.0</ele><time>2026-03-22T10:08:24.973Z</time></trkpt><trkpt lat="43.8471344" lon="12.6426042"><ele>220.0</ele><time>2026-03-22T10:08:26.972Z</time></trkpt><trkpt lat="43.8470594" lon="12.6426039"><ele>219.99999999999997</ele><time>2026-03-22T10:08:27.972Z</time></trkpt><trkpt lat="43.8469554" lon="12.6426452"><ele>220.0</ele><time>2026-03-22T10:08:28.972Z</time></trkpt><trkpt lat="43.8468278" lon="12.6427056"><ele>214.0</ele><time>2026-03-22T10:08:29.971Z</time></trkpt><trkpt lat="43.8466813" lon="12.6427629"><ele>208.0</ele><time>2026-03-22T10:08:30.972Z</time></trkpt><trkpt lat="43.8465271" lon="12.6428206"><ele>202.0</ele><time>2026-03-22T10:08:31.973Z</time></trkpt><trkpt lat="43.8463857" lon="12.6428827"><ele>202.0</ele><time>2026-03-22T10:08:32.972Z</time></trkpt><trkpt lat="43.8462626" lon="12.6429463"><ele>202.0</ele><time>2026-03-22T10:08:33.973Z</time></trkpt><trkpt lat="43.8461524" lon="12.6430026"><ele>202.0</ele><time>2026-03-22T10:08:34.971Z</time></trkpt><trkpt lat="43.8460495" lon="12.6430401"><ele>202.0</ele><time>2026-03-22T10:08:35.971Z</time></trkpt><trkpt lat="43.8459497" lon="12.6430468"><ele>198.39999999999998</ele><time>2026-03-22T10:08:36.972Z</time></trkpt><trkpt lat="43.8458552" lon="12.6430111"><ele>194.79999999999998</ele><time>2026-03-22T10:08:37.972Z</time></trkpt><trkpt lat="43.8457756" lon="12.6429354"><ele>191.2</ele><time>2026-03-22T10:08:38.972Z</time></trkpt><trkpt lat="43.8457167" lon="12.6428246"><ele>187.6</ele><time>2026-03-22T10:08:39.973Z</time></trkpt><trkpt lat="43.845677" lon="12.6426912"><ele>184.0</ele><time>2026-03-22T10:08:40.973Z</time></trkpt><trkpt lat="43.8456458" lon="12.6425755"><ele>183.66666666666669</ele><time>2026-03-22T10:08:41.973Z</time></trkpt><trkpt lat="43.8456043" lon="12.642483"><ele>183.33333333333334</ele><time>2026-03-22T10:08:42.973Z</time></trkpt><trkpt lat="43.8455441" lon="12.6424082"><ele>183.0</ele><time>2026-03-22T10:08:43.972Z</time></trkpt><trkpt lat="43.845466" lon="12.6423686"><ele>182.66666666666666</ele><time>2026-03-22T10:08:44.973Z</time></trkpt><trkpt lat="43.8453793" lon="12.6423773"><ele>182.33333333333331</ele><time>2026-03-22T10:08:45.972Z</time></trkpt><trkpt lat="43.8452867" lon="12.6424341"><ele>182.0</ele><time>2026-03-22T10:08:46.972Z</time></trkpt><trkpt lat="43.8451864" lon="12.6425215"><ele>179.2</ele><time>2026-03-22T10:08:47.973Z</time></trkpt><trkpt lat="43.8450856" lon="12.6425893"><ele>176.39999999999998</ele><time>2026-03-22T10:08:48.973Z</time></trkpt><trkpt lat="43.8449913" lon="12.6426219"><ele>173.60000000000002</ele><time>2026-03-22T10:08:49.973Z</time></trkpt><trkpt lat="43.8448898" lon="12.6426137"><ele>170.8</ele><time>2026-03-22T10:08:50.973Z</time></trkpt><trkpt lat="43.8447687" lon="12.6425537"><ele>168.0</ele><time>2026-03-22T10:08:51.972Z</time></trkpt><trkpt lat="43.8446251" lon="12.6424601"><ele>168.0</ele><time>2026-03-22T10:08:52.973Z</time></trkpt><trkpt lat="43.8444602" lon="12.6423474"><ele>168.0</ele><time>2026-03-22T10:08:53.972Z</time></trkpt><trkpt lat="43.8442746" lon="12.6422216"><ele>168.0</ele><time>2026-03-22T10:08:54.972Z</time></trkpt><trkpt lat="43.8440639" lon="12.6420939"><ele>163.0</ele><time>2026-03-22T10:08:55.971Z</time></trkpt><trkpt lat="43.8438503" lon="12.6419778"><ele>158.0</ele><time>2026-03-22T10:08:56.972Z</time></trkpt><trkpt lat="43.8436637" lon="12.6418796"><ele>153.0</ele><time>2026-03-22T10:08:57.972Z</time></trkpt><trkpt lat="43.8434974" lon="12.6417855"><ele>148.33333333333334</ele><time>2026-03-22T10:08:58.973Z</time></trkpt><trkpt lat="43.8433428" lon="12.6416959"><ele>143.66666666666669</ele><time>2026-03-22T10:08:59.972Z</time></trkpt><trkpt lat="43.8431918" lon="12.6416028"><ele>139.0</ele><time>2026-03-22T10:09:00.972Z</time></trkpt><trkpt lat="43.8430468" lon="12.6415"><ele>139.0</ele><time>2026-03-22T10:09:01.973Z</time></trkpt><trkpt lat="43.8429117" lon="12.6413928"><ele>139.0</ele><time>2026-03-22T10:09:02.972Z</time></trkpt><trkpt lat="43.8427917" lon="12.6412826"><ele>139.0</ele><time>2026-03-22T10:09:03.972Z</time></trkpt><trkpt lat="43.8426878" lon="12.6411775"><ele>139.0</ele><time>2026-03-22T10:09:04.972Z</time></trkpt><trkpt lat="43.8425977" lon="12.6410687"><ele>136.0</ele><time>2026-03-22T10:09:05.973Z</time></trkpt><trkpt lat="43.8425171" lon="12.640951"><ele>133.0</ele><time>2026-03-22T10:09:06.973Z</time></trkpt><trkpt lat="43.8424534" lon="12.6408292"><ele>130.0</ele><time>2026-03-22T10:09:07.973Z</time></trkpt><trkpt lat="43.8424021" lon="12.6407185"><ele>127.0</ele><time>2026-03-22T10:09:08.972Z</time></trkpt><trkpt lat="43.842339" lon="12.6406319"><ele>124.0</ele><time>2026-03-22T10:09:09.973Z</time></trkpt><trkpt lat="43.8422473" lon="12.6405889"><ele>124.0</ele><time>2026-03-22T10:09:10.972Z</time></trkpt><trkpt lat="43.8421407" lon="12.6405675"><ele>124.0</ele><time>2026-03-22T10:09:11.973Z</time></trkpt><trkpt lat="43.8420281" lon="12.6405832"><ele>124.0</ele><time>2026-03-22T10:09:12.972Z</time></trkpt><trkpt lat="43.8419187" lon="12.6406163"><ele>124.0</ele><time>2026-03-22T10:09:13.972Z</time></trkpt><trkpt lat="43.8418242" lon="12.6406673"><ele>124.0</ele><time>2026-03-22T10:09:14.971Z</time></trkpt><trkpt lat="43.8417443" lon="12.6407302"><ele>123.33333333333334</ele><time>2026-03-22T10:09:15.973Z</time></trkpt><trkpt lat="43.8416806" lon="12.6407921"><ele>122.66666666666667</ele><time>2026-03-22T10:09:16.973Z</time></trkpt><trkpt lat="43.8416355" lon="12.6408633"><ele>122.0</ele><time>2026-03-22T10:09:17.971Z</time></trkpt><trkpt lat="43.8416085" lon="12.6409498"><ele>121.33333333333334</ele><time>2026-03-22T10:09:18.972Z</time></trkpt><trkpt lat="43.8415943" lon="12.6410746"><ele>120.66666666666667</ele><time>2026-03-22T10:09:19.972Z</time></trkpt><trkpt lat="43.8415855" lon="12.6412384"><ele>120.0</ele><time>2026-03-22T10:09:20.973Z</time></trkpt><trkpt lat="43.8415663" lon="12.6414087"><ele>120.0</ele><time>2026-03-22T10:09:21.972Z</time></trkpt><trkpt lat="43.8415108" lon="12.6415627"><ele>120.0</ele><time>2026-03-22T10:09:22.972Z</time></trkpt><trkpt lat="43.841446" lon="12.6417283"><ele>120.0</ele><time>2026-03-22T10:09:23.973Z</time></trkpt><trkpt lat="43.8414068" lon="12.6418753"><ele>120.0</ele><time>2026-03-22T10:09:24.972Z</time></trkpt><trkpt lat="43.8413829" lon="12.6420504"><ele>120.33333333333334</ele><time>2026-03-22T10:09:25.972Z</time></trkpt><trkpt lat="43.8413502" lon="12.6422838"><ele>120.66666666666667</ele><time>2026-03-22T10:09:26.972Z</time></trkpt><trkpt lat="43.8412958" lon="12.6425586"><ele>121.0</ele><time>2026-03-22T10:09:27.972Z</time></trkpt><trkpt lat="43.8412252" lon="12.6428614"><ele>123.0</ele><time>2026-03-22T10:09:28.972Z</time></trkpt><trkpt lat="43.8411491" lon="12.6431915"><ele>125.0</ele><time>2026-03-22T10:09:29.973Z</time></trkpt><trkpt lat="43.8410762" lon="12.6434883"><ele>126.66666666666666</ele><time>2026-03-22T10:09:30.973Z</time></trkpt><trkpt lat="43.8410072" lon="12.6437342"><ele>128.33333333333334</ele><time>2026-03-22T10:09:31.973Z</time></trkpt><trkpt lat="43.8409477" lon="12.6439439"><ele>130.0</ele><time>2026-03-22T10:09:32.973Z</time></trkpt><trkpt lat="43.8408931" lon="12.6441294"><ele>127.0</ele><time>2026-03-22T10:09:33.972Z</time></trkpt><trkpt lat="43.8408591" lon="12.6442955"><ele>124.0</ele><time>2026-03-22T10:09:34.972Z</time></trkpt><trkpt lat="43.8408483" lon="12.6444545"><ele>121.0</ele><time>2026-03-22T10:09:35.973Z</time></trkpt><trkpt lat="43.8408559" lon="12.6446324"><ele>118.0</ele><time>2026-03-22T10:09:36.972Z</time></trkpt><trkpt lat="43.8408554" lon="12.6448017"><ele>118.0</ele><time>2026-03-22T10:09:37.971Z</time></trkpt><trkpt lat="43.8408206" lon="12.6449787"><ele>118.0</ele><time>2026-03-22T10:09:38.971Z</time></trkpt><trkpt lat="43.8407696" lon="12.6452018"><ele>118.0</ele><time>2026-03-22T10:09:39.972Z</time></trkpt><trkpt lat="43.8407183" lon="12.6454303"><ele>118.5</ele><time>2026-03-22T10:09:40.973Z</time></trkpt><trkpt lat="43.8406756" lon="12.6456321"><ele>119.0</ele><time>2026-03-22T10:09:41.972Z</time></trkpt><trkpt lat="43.8406269" lon="12.645801"><ele>119.5</ele><time>2026-03-22T10:09:42.973Z</time></trkpt><trkpt lat="43.8405596" lon="12.6459543"><ele>120.0</ele><time>2026-03-22T10:09:43.973Z</time></trkpt><trkpt lat="43.8404757" lon="12.6460912"><ele>120.33333333333334</ele><time>2026-03-22T10:09:44.973Z</time></trkpt><trkpt lat="43.8403594" lon="12.6462125"><ele>120.66666666666667</ele><time>2026-03-22T10:09:45.973Z</time></trkpt><trkpt lat="43.8402067" lon="12.6463075"><ele>121.0</ele><time>2026-03-22T10:09:46.973Z</time></trkpt><trkpt lat="43.8400335" lon="12.6463809"><ele>121.0</ele><time>2026-03-22T10:09:47.972Z</time></trkpt><trkpt lat="43.839847" lon="12.6464501"><ele>121.0</ele><time>2026-03-22T10:09:48.972Z</time></trkpt><trkpt lat="43.839664" lon="12.6465215"><ele>121.0</ele><time>2026-03-22T10:09:49.972Z</time></trkpt><trkpt lat="43.8395104" lon="12.6465905"><ele>121.0</ele><time>2026-03-22T10:09:50.973Z</time></trkpt><trkpt lat="43.8393734" lon="12.646652"><ele>121.0</ele><time>2026-03-22T10:09:51.973Z</time></trkpt><trkpt lat="43.8392495" lon="12.6467168"><ele>121.0</ele><time>2026-03-22T10:09:52.972Z</time></trkpt><trkpt lat="43.839146" lon="12.6467903"><ele>121.0</ele><time>2026-03-22T10:09:53.971Z</time></trkpt><trkpt lat="43.8390582" lon="12.646862"><ele>120.83333333333334</ele><time>2026-03-22T10:09:54.973Z</time></trkpt><trkpt lat="43.8389944" lon="12.6469249"><ele>120.66666666666667</ele><time>2026-03-22T10:09:55.972Z</time></trkpt><trkpt lat="43.8389448" lon="12.6469797"><ele>120.5</ele><time>2026-03-22T10:09:56.972Z</time></trkpt><trkpt lat="43.8388689" lon="12.647045"><ele>120.33333333333334</ele><time>2026-03-22T10:09:58.972Z</time></trkpt><trkpt lat="43.8387885" lon="12.6470436"><ele>120.16666666666667</ele><time>2026-03-22T10:10:00.973Z</time></trkpt><trkpt lat="43.8386654" lon="12.6469681"><ele>120.0</ele><time>2026-03-22T10:10:02.972Z</time></trkpt><trkpt lat="43.8385943" lon="12.6468846"><ele>119.85714285714286</ele><time>2026-03-22T10:10:03.972Z</time></trkpt><trkpt lat="43.8385475" lon="12.6468027"><ele>119.71428571428571</ele><time>2026-03-22T10:10:04.973Z</time></trkpt><trkpt lat="43.838516" lon="12.6467193"><ele>119.57142857142857</ele><time>2026-03-22T10:10:05.973Z</time></trkpt><trkpt lat="43.8385215" lon="12.646623"><ele>119.42857142857143</ele><time>2026-03-22T10:10:06.972Z</time></trkpt><trkpt lat="43.8385464" lon="12.6465056"><ele>119.28571428571428</ele><time>2026-03-22T10:10:07.973Z</time></trkpt><trkpt lat="43.8385589" lon="12.646401"><ele>119.14285714285714</ele><time>2026-03-22T10:10:08.972Z</time></trkpt><trkpt lat="43.8385437" lon="12.6463158"><ele>119.0</ele><time>2026-03-22T10:10:09.973Z</time></trkpt><trkpt lat="43.8384898" lon="12.6462082"><ele>116.5</ele><time>2026-03-22T10:10:10.971Z</time></trkpt><trkpt lat="43.8384134" lon="12.646069"><ele>114.0</ele><time>2026-03-22T10:10:11.972Z</time></trkpt><trkpt lat="43.8383353" lon="12.6459334"><ele>111.5</ele><time>2026-03-22T10:10:12.971Z</time></trkpt><trkpt lat="43.8382552" lon="12.6458188"><ele>109.0</ele><time>2026-03-22T10:10:13.973Z</time></trkpt><trkpt lat="43.838156" lon="12.6457279"><ele>109.0</ele><time>2026-03-22T10:10:14.972Z</time></trkpt><trkpt lat="43.8380593" lon="12.6456618"><ele>109.0</ele><time>2026-03-22T10:10:15.973Z</time></trkpt><trkpt lat="43.8379877" lon="12.645628"><ele>109.0</ele><time>2026-03-22T10:10:16.972Z</time></trkpt><trkpt lat="43.8378726" lon="12.6456463"><ele>109.0</ele><time>2026-03-22T10:10:18.973Z</time></trkpt><trkpt lat="43.8378183" lon="12.6457541"><ele>109.0</ele><time>2026-03-22T10:10:19.973Z</time></trkpt><trkpt lat="43.8377589" lon="12.6459031"><ele>109.00000000000001</ele><time>2026-03-22T10:10:20.971Z</time></trkpt><trkpt lat="43.8377033" lon="12.6460124"><ele>109.0</ele><time>2026-03-22T10:10:21.973Z</time></trkpt><trkpt lat="43.8376424" lon="12.6460738"><ele>109.0</ele><time>2026-03-22T10:10:22.972Z</time></trkpt><trkpt lat="43.8375697" lon="12.6460811"><ele>109.0</ele><time>2026-03-22T10:10:23.973Z</time></trkpt><trkpt lat="43.837505" lon="12.6460335"><ele>109.00000000000001</ele><time>2026-03-22T10:10:24.972Z</time></trkpt><trkpt lat="43.8374495" lon="12.6459464"><ele>109.0</ele><time>2026-03-22T10:10:25.973Z</time></trkpt><trkpt lat="43.8373972" lon="12.6458414"><ele>109.66666666666667</ele><time>2026-03-22T10:10:26.972Z</time></trkpt><trkpt lat="43.837341" lon="12.6457242"><ele>110.33333333333334</ele><time>2026-03-22T10:10:27.973Z</time></trkpt><trkpt lat="43.8372792" lon="12.6456182"><ele>111.0</ele><time>2026-03-22T10:10:28.973Z</time></trkpt><trkpt lat="43.8372168" lon="12.6455547"><ele>111.66666666666666</ele><time>2026-03-22T10:10:29.972Z</time></trkpt><trkpt lat="43.8371508" lon="12.6455175"><ele>112.33333333333333</ele><time>2026-03-22T10:10:30.973Z</time></trkpt><trkpt lat="43.837073" lon="12.6454889"><ele>113.0</ele><time>2026-03-22T10:10:31.972Z</time></trkpt><trkpt lat="43.8369894" lon="12.6454732"><ele>113.0</ele><time>2026-03-22T10:10:32.972Z</time></trkpt><trkpt lat="43.8368754" lon="12.6454619"><ele>113.0</ele><time>2026-03-22T10:10:33.973Z</time></trkpt><trkpt lat="43.8367454" lon="12.6454988"><ele>113.0</ele><time>2026-03-22T10:10:34.973Z</time></trkpt><trkpt lat="43.8366255" lon="12.6455526"><ele>113.0</ele><time>2026-03-22T10:10:35.973Z</time></trkpt><trkpt lat="43.8365328" lon="12.6456024"><ele>115.33333333333333</ele><time>2026-03-22T10:10:36.973Z</time></trkpt><trkpt lat="43.8364657" lon="12.6456546"><ele>117.66666666666666</ele><time>2026-03-22T10:10:37.972Z</time></trkpt><trkpt lat="43.8364163" lon="12.6457273"><ele>120.0</ele><time>2026-03-22T10:10:38.973Z</time></trkpt><trkpt lat="43.8363768" lon="12.6458187"><ele>122.33333333333334</ele><time>2026-03-22T10:10:39.973Z</time></trkpt><trkpt lat="43.8363427" lon="12.6459413"><ele>124.66666666666667</ele><time>2026-03-22T10:10:40.972Z</time></trkpt><trkpt lat="43.836312" lon="12.6460981"><ele>127.0</ele><time>2026-03-22T10:10:41.973Z</time></trkpt><trkpt lat="43.8362822" lon="12.6462906"><ele>127.0</ele><time>2026-03-22T10:10:42.972Z</time></trkpt><trkpt lat="43.8362482" lon="12.6465315"><ele>127.0</ele><time>2026-03-22T10:10:43.972Z</time></trkpt><trkpt lat="43.8362139" lon="12.6467977"><ele>127.0</ele><time>2026-03-22T10:10:44.973Z</time></trkpt><trkpt lat="43.8361792" lon="12.6470355"><ele>127.0</ele><time>2026-03-22T10:10:45.973Z</time></trkpt><trkpt lat="43.8361504" lon="12.6472351"><ele>127.0</ele><time>2026-03-22T10:10:46.971Z</time></trkpt><trkpt lat="43.8361237" lon="12.6474143"><ele>127.0</ele><time>2026-03-22T10:10:47.971Z</time></trkpt><trkpt lat="43.8360892" lon="12.647587"><ele>127.0</ele><time>2026-03-22T10:10:48.973Z</time></trkpt><trkpt lat="43.8360362" lon="12.6477817"><ele>132.0</ele><time>2026-03-22T10:10:49.973Z</time></trkpt><trkpt lat="43.8359627" lon="12.6480007"><ele>137.0</ele><time>2026-03-22T10:10:50.972Z</time></trkpt><trkpt lat="43.8358822" lon="12.648221"><ele>142.0</ele><time>2026-03-22T10:10:51.973Z</time></trkpt><trkpt lat="43.8358066" lon="12.6484115"><ele>142.0</ele><time>2026-03-22T10:10:52.972Z</time></trkpt><trkpt lat="43.8357316" lon="12.648595"><ele>142.0</ele><time>2026-03-22T10:10:53.973Z</time></trkpt><trkpt lat="43.8356478" lon="12.6487866"><ele>142.0</ele><time>2026-03-22T10:10:54.972Z</time></trkpt><trkpt lat="43.8355604" lon="12.6489777"><ele>140.75</ele><time>2026-03-22T10:10:55.972Z</time></trkpt><trkpt lat="43.8354804" lon="12.6491554"><ele>139.5</ele><time>2026-03-22T10:10:56.972Z</time></trkpt><trkpt lat="43.8354094" lon="12.6493166"><ele>138.25</ele><time>2026-03-22T10:10:57.973Z</time></trkpt><trkpt lat="43.8353452" lon="12.6494619"><ele>137.0</ele><time>2026-03-22T10:10:58.973Z</time></trkpt><trkpt lat="43.8352799" lon="12.6495988"><ele>135.75</ele><time>2026-03-22T10:10:59.971Z</time></trkpt><trkpt lat="43.8352017" lon="12.6497297"><ele>134.5</ele><time>2026-03-22T10:11:00.973Z</time></trkpt><trkpt lat="43.8351204" lon="12.6498574"><ele>133.25</ele><time>2026-03-22T10:11:01.973Z</time></trkpt><trkpt lat="43.835036" lon="12.6499847"><ele>132.0</ele><time>2026-03-22T10:11:02.973Z</time></trkpt><trkpt lat="43.8349413" lon="12.6501065"><ele>135.75</ele><time>2026-03-22T10:11:03.972Z</time></trkpt><trkpt lat="43.8348406" lon="12.6502259"><ele>139.5</ele><time>2026-03-22T10:11:04.972Z</time></trkpt><trkpt lat="43.834743" lon="12.6503455"><ele>143.25</ele><time>2026-03-22T10:11:05.973Z</time></trkpt><trkpt lat="43.8346447" lon="12.6504636"><ele>147.0</ele><time>2026-03-22T10:11:06.973Z</time></trkpt><trkpt lat="43.8345424" lon="12.6505884"><ele>147.0</ele><time>2026-03-22T10:11:07.972Z</time></trkpt><trkpt lat="43.8344395" lon="12.6507232"><ele>147.0</ele><time>2026-03-22T10:11:08.972Z</time></trkpt><trkpt lat="43.8343393" lon="12.6508584"><ele>147.0</ele><time>2026-03-22T10:11:09.973Z</time></trkpt><trkpt lat="43.8342413" lon="12.6509887"><ele>147.0</ele><time>2026-03-22T10:11:10.972Z</time></trkpt><trkpt lat="43.8341436" lon="12.6511155"><ele>151.5</ele><time>2026-03-22T10:11:11.973Z</time></trkpt><trkpt lat="43.8340464" lon="12.651244"><ele>156.0</ele><time>2026-03-22T10:11:12.972Z</time></trkpt><trkpt lat="43.8339503" lon="12.6513668"><ele>160.5</ele><time>2026-03-22T10:11:13.971Z</time></trkpt><trkpt lat="43.8338526" lon="12.6514895"><ele>165.0</ele><time>2026-03-22T10:11:14.972Z</time></trkpt><trkpt lat="43.8337531" lon="12.6516132"><ele>165.0</ele><time>2026-03-22T10:11:15.972Z</time></trkpt><trkpt lat="43.8336532" lon="12.6517329"><ele>165.0</ele><time>2026-03-22T10:11:16.973Z</time></trkpt><trkpt lat="43.8335442" lon="12.6518468"><ele>165.0</ele><time>2026-03-22T10:11:17.972Z</time></trkpt><trkpt lat="43.8334355" lon="12.6519417"><ele>165.0</ele><time>2026-03-22T10:11:18.973Z</time></trkpt><trkpt lat="43.833346" lon="12.6519975"><ele>165.33333333333334</ele><time>2026-03-22T10:11:19.973Z</time></trkpt><trkpt lat="43.8332684" lon="12.6520177"><ele>165.66666666666666</ele><time>2026-03-22T10:11:20.972Z</time></trkpt><trkpt lat="43.8331966" lon="12.6520067"><ele>166.0</ele><time>2026-03-22T10:11:21.972Z</time></trkpt><trkpt lat="43.8331387" lon="12.6519616"><ele>166.33333333333331</ele><time>2026-03-22T10:11:22.973Z</time></trkpt><trkpt lat="43.8330913" lon="12.651882"><ele>166.66666666666666</ele><time>2026-03-22T10:11:23.973Z</time></trkpt><trkpt lat="43.8330593" lon="12.6517723"><ele>167.0</ele><time>2026-03-22T10:11:24.971Z</time></trkpt><trkpt lat="43.8330408" lon="12.6516357"><ele>169.75</ele><time>2026-03-22T10:11:25.973Z</time></trkpt><trkpt lat="43.833021" lon="12.6514775"><ele>172.5</ele><time>2026-03-22T10:11:26.972Z</time></trkpt><trkpt lat="43.8329947" lon="12.6513045"><ele>175.25</ele><time>2026-03-22T10:11:27.972Z</time></trkpt><trkpt lat="43.832961" lon="12.6511237"><ele>178.0</ele><time>2026-03-22T10:11:28.973Z</time></trkpt><trkpt lat="43.832927" lon="12.6509421"><ele>180.0</ele><time>2026-03-22T10:11:29.972Z</time></trkpt><trkpt lat="43.8328873" lon="12.6507556"><ele>182.0</ele><time>2026-03-22T10:11:30.972Z</time></trkpt><trkpt lat="43.8328406" lon="12.6505722"><ele>184.0</ele><time>2026-03-22T10:11:31.972Z</time></trkpt><trkpt lat="43.8327909" lon="12.6503982"><ele>186.0</ele><time>2026-03-22T10:11:32.973Z</time></trkpt><trkpt lat="43.8327338" lon="12.6502292"><ele>187.25</ele><time>2026-03-22T10:11:33.971Z</time></trkpt><trkpt lat="43.8326696" lon="12.6500561"><ele>188.5</ele><time>2026-03-22T10:11:34.972Z</time></trkpt><trkpt lat="43.8326035" lon="12.6498801"><ele>189.75</ele><time>2026-03-22T10:11:35.973Z</time></trkpt><trkpt lat="43.8325345" lon="12.6497117"><ele>191.0</ele><time>2026-03-22T10:11:36.972Z</time></trkpt><trkpt lat="43.8324605" lon="12.6495484"><ele>193.25</ele><time>2026-03-22T10:11:37.972Z</time></trkpt><trkpt lat="43.8323839" lon="12.6493818"><ele>195.5</ele><time>2026-03-22T10:11:38.973Z</time></trkpt><trkpt lat="43.8323068" lon="12.6492064"><ele>197.75</ele><time>2026-03-22T10:11:39.972Z</time></trkpt><trkpt lat="43.8322289" lon="12.6490273"><ele>200.0</ele><time>2026-03-22T10:11:40.972Z</time></trkpt><trkpt lat="43.8321554" lon="12.6488532"><ele>200.0</ele><time>2026-03-22T10:11:41.973Z</time></trkpt><trkpt lat="43.8320833" lon="12.648689"><ele>200.0</ele><time>2026-03-22T10:11:42.973Z</time></trkpt><trkpt lat="43.8320168" lon="12.6485463"><ele>200.0</ele><time>2026-03-22T10:11:43.973Z</time></trkpt><trkpt lat="43.8319499" lon="12.6484112"><ele>200.0</ele><time>2026-03-22T10:11:44.972Z</time></trkpt><trkpt lat="43.8318744" lon="12.6482785"><ele>199.5</ele><time>2026-03-22T10:11:45.972Z</time></trkpt><trkpt lat="43.8317874" lon="12.6481565"><ele>199.0</ele><time>2026-03-22T10:11:46.973Z</time></trkpt><trkpt lat="43.8316776" lon="12.6480379"><ele>198.5</ele><time>2026-03-22T10:11:47.972Z</time></trkpt><trkpt lat="43.8315385" lon="12.6479011"><ele>198.0</ele><time>2026-03-22T10:11:48.971Z</time></trkpt><trkpt lat="43.831385" lon="12.6477606"><ele>198.0</ele><time>2026-03-22T10:11:49.971Z</time></trkpt><trkpt lat="43.831243" lon="12.6476384"><ele>198.0</ele><time>2026-03-22T10:11:50.972Z</time></trkpt><trkpt lat="43.8311093" lon="12.6475267"><ele>198.0</ele><time>2026-03-22T10:11:51.971Z</time></trkpt><trkpt lat="43.8309794" lon="12.6474243"><ele>199.0</ele><time>2026-03-22T10:11:52.972Z</time></trkpt><trkpt lat="43.8308507" lon="12.6473269"><ele>200.0</ele><time>2026-03-22T10:11:53.971Z</time></trkpt><trkpt lat="43.8307184" lon="12.6472268"><ele>201.0</ele><time>2026-03-22T10:11:54.971Z</time></trkpt><trkpt lat="43.830585" lon="12.6471236"><ele>201.0</ele><time>2026-03-22T10:11:55.972Z</time></trkpt><trkpt lat="43.8304489" lon="12.6470216"><ele>201.0</ele><time>2026-03-22T10:11:56.971Z</time></trkpt><trkpt lat="43.8303148" lon="12.6469157"><ele>201.0</ele><time>2026-03-22T10:11:57.971Z</time></trkpt><trkpt lat="43.8301801" lon="12.6468016"><ele>202.0</ele><time>2026-03-22T10:11:58.972Z</time></trkpt><trkpt lat="43.8300453" lon="12.646675"><ele>203.0</ele><time>2026-03-22T10:11:59.972Z</time></trkpt><trkpt lat="43.8299072" lon="12.6465513"><ele>204.0</ele><time>2026-03-22T10:12:00.97Z</time></trkpt><trkpt lat="43.8297626" lon="12.6464328"><ele>204.0</ele><time>2026-03-22T10:12:01.972Z</time></trkpt><trkpt lat="43.8296152" lon="12.6463084"><ele>204.0</ele><time>2026-03-22T10:12:02.971Z</time></trkpt><trkpt lat="43.8294713" lon="12.6461748"><ele>204.0</ele><time>2026-03-22T10:12:03.972Z</time></trkpt><trkpt lat="43.8293354" lon="12.6460389"><ele>205.0</ele><time>2026-03-22T10:12:04.972Z</time></trkpt><trkpt lat="43.8292006" lon="12.6459087"><ele>206.0</ele><time>2026-03-22T10:12:05.971Z</time></trkpt><trkpt lat="43.8290679" lon="12.6457807"><ele>207.0</ele><time>2026-03-22T10:12:06.971Z</time></trkpt><trkpt lat="43.8289344" lon="12.6456558"><ele>207.0</ele><time>2026-03-22T10:12:07.971Z</time></trkpt><trkpt lat="43.8288031" lon="12.6455353"><ele>207.0</ele><time>2026-03-22T10:12:08.972Z</time></trkpt><trkpt lat="43.828683" lon="12.6454247"><ele>207.0</ele><time>2026-03-22T10:12:09.971Z</time></trkpt><trkpt lat="43.8285702" lon="12.6453182"><ele>207.0</ele><time>2026-03-22T10:12:10.971Z</time></trkpt><trkpt lat="43.828465" lon="12.6452223"><ele>208.39999999999998</ele><time>2026-03-22T10:12:11.971Z</time></trkpt><trkpt lat="43.828372" lon="12.6451506"><ele>209.79999999999998</ele><time>2026-03-22T10:12:12.971Z</time></trkpt><trkpt lat="43.8282869" lon="12.645104"><ele>211.2</ele><time>2026-03-22T10:12:13.972Z</time></trkpt><trkpt lat="43.8281951" lon="12.6450882"><ele>212.6</ele><time>2026-03-22T10:12:14.97Z</time></trkpt><trkpt lat="43.8280856" lon="12.6450965"><ele>214.0</ele><time>2026-03-22T10:12:15.971Z</time></trkpt><trkpt lat="43.8279543" lon="12.6451138"><ele>214.0</ele><time>2026-03-22T10:12:16.971Z</time></trkpt><trkpt lat="43.827803" lon="12.6451323"><ele>214.0</ele><time>2026-03-22T10:12:17.971Z</time></trkpt><trkpt lat="43.8276268" lon="12.6451499"><ele>214.0</ele><time>2026-03-22T10:12:18.971Z</time></trkpt><trkpt lat="43.8274616" lon="12.6451665"><ele>214.6</ele><time>2026-03-22T10:12:19.971Z</time></trkpt><trkpt lat="43.8273423" lon="12.64518"><ele>215.2</ele><time>2026-03-22T10:12:20.971Z</time></trkpt><trkpt lat="43.8272509" lon="12.6451999"><ele>215.79999999999998</ele><time>2026-03-22T10:12:21.97Z</time></trkpt><trkpt lat="43.8271721" lon="12.645241"><ele>216.39999999999998</ele><time>2026-03-22T10:12:22.971Z</time></trkpt><trkpt lat="43.8270933" lon="12.645297"><ele>217.0</ele><time>2026-03-22T10:12:23.972Z</time></trkpt><trkpt lat="43.8270247" lon="12.6453349"><ele>216.99999999999997</ele><time>2026-03-22T10:12:24.972Z</time></trkpt><trkpt lat="43.8269426" lon="12.6453289"><ele>217.0</ele><time>2026-03-22T10:12:26.972Z</time></trkpt><trkpt lat="43.8269182" lon="12.6452399"><ele>217.0</ele><time>2026-03-22T10:12:28.972Z</time></trkpt><trkpt lat="43.8269178" lon="12.6451482"><ele>217.0</ele><time>2026-03-22T10:12:29.971Z</time></trkpt><trkpt lat="43.8269224" lon="12.6450048"><ele>216.99999999999997</ele><time>2026-03-22T10:12:30.972Z</time></trkpt><trkpt lat="43.826929" lon="12.6448303"><ele>217.0</ele><time>2026-03-22T10:12:31.971Z</time></trkpt><trkpt lat="43.8269342" lon="12.6446486"><ele>219.0</ele><time>2026-03-22T10:12:32.971Z</time></trkpt><trkpt lat="43.8269317" lon="12.6444747"><ele>221.0</ele><time>2026-03-22T10:12:33.972Z</time></trkpt><trkpt lat="43.8269274" lon="12.6443053"><ele>223.0</ele><time>2026-03-22T10:12:34.972Z</time></trkpt><trkpt lat="43.8269229" lon="12.6441366"><ele>225.0</ele><time>2026-03-22T10:12:35.971Z</time></trkpt><trkpt lat="43.826919" lon="12.6439614"><ele>225.0</ele><time>2026-03-22T10:12:36.971Z</time></trkpt><trkpt lat="43.8269132" lon="12.6437794"><ele>225.0</ele><time>2026-03-22T10:12:37.97Z</time></trkpt><trkpt lat="43.826908" lon="12.6435867"><ele>225.0</ele><time>2026-03-22T10:12:38.972Z</time></trkpt><trkpt lat="43.8268952" lon="12.6433832"><ele>225.0</ele><time>2026-03-22T10:12:39.972Z</time></trkpt><trkpt lat="43.8268747" lon="12.6431762"><ele>225.0</ele><time>2026-03-22T10:12:40.971Z</time></trkpt><trkpt lat="43.8268517" lon="12.6429863"><ele>225.0</ele><time>2026-03-22T10:12:41.972Z</time></trkpt><trkpt lat="43.8268279" lon="12.6428114"><ele>225.0</ele><time>2026-03-22T10:12:42.972Z</time></trkpt><trkpt lat="43.8268021" lon="12.6426469"><ele>225.0</ele><time>2026-03-22T10:12:43.971Z</time></trkpt><trkpt lat="43.8267679" lon="12.6425122"><ele>225.0</ele><time>2026-03-22T10:12:44.972Z</time></trkpt><trkpt lat="43.8267231" lon="12.6424064"><ele>225.0</ele><time>2026-03-22T10:12:45.972Z</time></trkpt><trkpt lat="43.8266635" lon="12.6423188"><ele>225.0</ele><time>2026-03-22T10:12:46.972Z</time></trkpt><trkpt lat="43.8265882" lon="12.6422576"><ele>225.0</ele><time>2026-03-22T10:12:47.971Z</time></trkpt><trkpt lat="43.8264961" lon="12.6422272"><ele>225.0</ele><time>2026-03-22T10:12:48.971Z</time></trkpt><trkpt lat="43.8263936" lon="12.6422282"><ele>225.0</ele><time>2026-03-22T10:12:49.972Z</time></trkpt><trkpt lat="43.8262772" lon="12.6422428"><ele>225.0</ele><time>2026-03-22T10:12:50.971Z</time></trkpt><trkpt lat="43.8261717" lon="12.6422447"><ele>225.0</ele><time>2026-03-22T10:12:51.972Z</time></trkpt><trkpt lat="43.8260915" lon="12.6422157"><ele>225.0</ele><time>2026-03-22T10:12:52.972Z</time></trkpt><trkpt lat="43.8260313" lon="12.6421519"><ele>225.0</ele><time>2026-03-22T10:12:53.97Z</time></trkpt><trkpt lat="43.8259923" lon="12.6420579"><ele>225.8</ele><time>2026-03-22T10:12:54.972Z</time></trkpt><trkpt lat="43.8259788" lon="12.6419516"><ele>226.6</ele><time>2026-03-22T10:12:55.971Z</time></trkpt><trkpt lat="43.8259954" lon="12.6418424"><ele>227.39999999999998</ele><time>2026-03-22T10:12:56.971Z</time></trkpt><trkpt lat="43.8260331" lon="12.6417269"><ele>228.2</ele><time>2026-03-22T10:12:57.971Z</time></trkpt><trkpt lat="43.826082" lon="12.6416019"><ele>229.0</ele><time>2026-03-22T10:12:58.971Z</time></trkpt><trkpt lat="43.8261184" lon="12.6414739"><ele>229.0</ele><time>2026-03-22T10:12:59.971Z</time></trkpt><trkpt lat="43.8261259" lon="12.6413477"><ele>228.99999999999997</ele><time>2026-03-22T10:13:00.971Z</time></trkpt><trkpt lat="43.8261119" lon="12.6412196"><ele>228.99999999999997</ele><time>2026-03-22T10:13:01.972Z</time></trkpt><trkpt lat="43.8260779" lon="12.6410778"><ele>229.0</ele><time>2026-03-22T10:13:02.971Z</time></trkpt><trkpt lat="43.8260264" lon="12.6409127"><ele>229.0</ele><time>2026-03-22T10:13:03.972Z</time></trkpt><trkpt lat="43.8259629" lon="12.6407495"><ele>233.75</ele><time>2026-03-22T10:13:04.971Z</time></trkpt><trkpt lat="43.8258903" lon="12.6405969"><ele>238.5</ele><time>2026-03-22T10:13:05.972Z</time></trkpt><trkpt lat="43.8258086" lon="12.6404582"><ele>243.25</ele><time>2026-03-22T10:13:06.971Z</time></trkpt><trkpt lat="43.8257256" lon="12.6403274"><ele>248.0</ele><time>2026-03-22T10:13:07.972Z</time></trkpt><trkpt lat="43.8256407" lon="12.6402108"><ele>249.0</ele><time>2026-03-22T10:13:08.972Z</time></trkpt><trkpt lat="43.8255518" lon="12.6401142"><ele>250.0</ele><time>2026-03-22T10:13:09.972Z</time></trkpt><trkpt lat="43.825449" lon="12.640041"><ele>251.0</ele><time>2026-03-22T10:13:10.972Z</time></trkpt><trkpt lat="43.8253286" lon="12.6399751"><ele>252.0</ele><time>2026-03-22T10:13:11.971Z</time></trkpt><trkpt lat="43.8252097" lon="12.6398994"><ele>252.75</ele><time>2026-03-22T10:13:12.971Z</time></trkpt><trkpt lat="43.8251104" lon="12.63981"><ele>253.5</ele><time>2026-03-22T10:13:13.971Z</time></trkpt><trkpt lat="43.8250349" lon="12.6397136"><ele>254.25</ele><time>2026-03-22T10:13:14.972Z</time></trkpt><trkpt lat="43.8249648" lon="12.6396023"><ele>255.0</ele><time>2026-03-22T10:13:15.972Z</time></trkpt><trkpt lat="43.8248848" lon="12.6394682"><ele>259.0</ele><time>2026-03-22T10:13:16.972Z</time></trkpt><trkpt lat="43.8248014" lon="12.6393153"><ele>263.0</ele><time>2026-03-22T10:13:17.971Z</time></trkpt><trkpt lat="43.824724" lon="12.6391626"><ele>267.0</ele><time>2026-03-22T10:13:18.971Z</time></trkpt><trkpt lat="43.8246585" lon="12.6390256"><ele>271.0</ele><time>2026-03-22T10:13:19.971Z</time></trkpt><trkpt lat="43.8245924" lon="12.6388764"><ele>271.0</ele><time>2026-03-22T10:13:20.972Z</time></trkpt><trkpt lat="43.8245356" lon="12.6387445"><ele>271.0</ele><time>2026-03-22T10:13:21.97Z</time></trkpt><trkpt lat="43.824493" lon="12.6386445"><ele>271.0</ele><time>2026-03-22T10:13:22.972Z</time></trkpt><trkpt lat="43.8244626" lon="12.6385494"><ele>271.0</ele><time>2026-03-22T10:13:23.971Z</time></trkpt><trkpt lat="43.8244517" lon="12.6384409"><ele>271.0</ele><time>2026-03-22T10:13:24.972Z</time></trkpt><trkpt lat="43.8244573" lon="12.6383052"><ele>271.0</ele><time>2026-03-22T10:13:25.971Z</time></trkpt><trkpt lat="43.8244739" lon="12.6381306"><ele>274.0</ele><time>2026-03-22T10:13:26.971Z</time></trkpt><trkpt lat="43.8244936" lon="12.6379237"><ele>277.0</ele><time>2026-03-22T10:13:27.97Z</time></trkpt><trkpt lat="43.8245058" lon="12.6377264"><ele>280.0</ele><time>2026-03-22T10:13:28.972Z</time></trkpt><trkpt lat="43.8245102" lon="12.6375353"><ele>283.0</ele><time>2026-03-22T10:13:29.972Z</time></trkpt><trkpt lat="43.8245051" lon="12.6373302"><ele>283.5</ele><time>2026-03-22T10:13:30.971Z</time></trkpt><trkpt lat="43.8244899" lon="12.6371299"><ele>284.0</ele><time>2026-03-22T10:13:31.972Z</time></trkpt><trkpt lat="43.824469" lon="12.6369381"><ele>284.5</ele><time>2026-03-22T10:13:32.972Z</time></trkpt><trkpt lat="43.8244401" lon="12.6367484"><ele>285.0</ele><time>2026-03-22T10:13:33.972Z</time></trkpt><trkpt lat="43.8244006" lon="12.6365725"><ele>282.5</ele><time>2026-03-22T10:13:34.972Z</time></trkpt><trkpt lat="43.8243493" lon="12.6364022"><ele>280.0</ele><time>2026-03-22T10:13:35.972Z</time></trkpt><trkpt lat="43.8242856" lon="12.6362444"><ele>277.5</ele><time>2026-03-22T10:13:36.971Z</time></trkpt><trkpt lat="43.8242118" lon="12.6360962"><ele>275.0</ele><time>2026-03-22T10:13:37.972Z</time></trkpt><trkpt lat="43.8241338" lon="12.6359418"><ele>275.0</ele><time>2026-03-22T10:13:38.97Z</time></trkpt><trkpt lat="43.824051" lon="12.6357872"><ele>275.0</ele><time>2026-03-22T10:13:39.97Z</time></trkpt><trkpt lat="43.8239664" lon="12.6356289"><ele>275.0</ele><time>2026-03-22T10:13:40.972Z</time></trkpt><trkpt lat="43.8238831" lon="12.6354654"><ele>275.0</ele><time>2026-03-22T10:13:41.971Z</time></trkpt><trkpt lat="43.8238071" lon="12.6353039"><ele>272.5</ele><time>2026-03-22T10:13:42.97Z</time></trkpt><trkpt lat="43.8237358" lon="12.6351474"><ele>270.0</ele><time>2026-03-22T10:13:43.972Z</time></trkpt><trkpt lat="43.8236613" lon="12.6349824"><ele>267.5</ele><time>2026-03-22T10:13:44.972Z</time></trkpt><trkpt lat="43.8235833" lon="12.6348022"><ele>265.0</ele><time>2026-03-22T10:13:45.971Z</time></trkpt><trkpt lat="43.8235069" lon="12.634623"><ele>267.75</ele><time>2026-03-22T10:13:46.972Z</time></trkpt><trkpt lat="43.8234348" lon="12.6344616"><ele>270.5</ele><time>2026-03-22T10:13:47.972Z</time></trkpt><trkpt lat="43.8233626" lon="12.6343174"><ele>273.25</ele><time>2026-03-22T10:13:48.971Z</time></trkpt><trkpt lat="43.8232837" lon="12.6341764"><ele>276.0</ele><time>2026-03-22T10:13:49.972Z</time></trkpt><trkpt lat="43.8231913" lon="12.6340064"><ele>276.0</ele><time>2026-03-22T10:13:50.971Z</time></trkpt><trkpt lat="43.8230855" lon="12.6338112"><ele>276.0</ele><time>2026-03-22T10:13:51.971Z</time></trkpt><trkpt lat="43.8229795" lon="12.633614"><ele>276.0</ele><time>2026-03-22T10:13:52.971Z</time></trkpt><trkpt lat="43.8228741" lon="12.6334173"><ele>276.0</ele><time>2026-03-22T10:13:53.97Z</time></trkpt><trkpt lat="43.8227676" lon="12.6332176"><ele>276.0</ele><time>2026-03-22T10:13:54.971Z</time></trkpt><trkpt lat="43.8226668" lon="12.6330222"><ele>276.0</ele><time>2026-03-22T10:13:55.971Z</time></trkpt><trkpt lat="43.8225717" lon="12.6328325"><ele>278.0</ele><time>2026-03-22T10:13:56.972Z</time></trkpt><trkpt lat="43.8224709" lon="12.6326463"><ele>280.0</ele><time>2026-03-22T10:13:57.972Z</time></trkpt><trkpt lat="43.8223576" lon="12.6324446"><ele>282.0</ele><time>2026-03-22T10:13:58.972Z</time></trkpt><trkpt lat="43.8222528" lon="12.6322463"><ele>282.0</ele><time>2026-03-22T10:13:59.97Z</time></trkpt><trkpt lat="43.8221492" lon="12.6320377"><ele>282.0</ele><time>2026-03-22T10:14:00.971Z</time></trkpt><trkpt lat="43.82203" lon="12.6318042"><ele>282.0</ele><time>2026-03-22T10:14:01.971Z</time></trkpt><trkpt lat="43.8219104" lon="12.6315749"><ele>282.0</ele><time>2026-03-22T10:14:02.971Z</time></trkpt><trkpt lat="43.8217933" lon="12.6313508"><ele>282.0</ele><time>2026-03-22T10:14:03.971Z</time></trkpt><trkpt lat="43.8216864" lon="12.6311436"><ele>282.0</ele><time>2026-03-22T10:14:04.97Z</time></trkpt><trkpt lat="43.8215861" lon="12.630945"><ele>286.0</ele><time>2026-03-22T10:14:05.971Z</time></trkpt><trkpt lat="43.8214905" lon="12.630759"><ele>290.0</ele><time>2026-03-22T10:14:06.971Z</time></trkpt><trkpt lat="43.8214076" lon="12.6305954"><ele>294.0</ele><time>2026-03-22T10:14:07.972Z</time></trkpt><trkpt lat="43.8213275" lon="12.6304308"><ele>293.6666666666667</ele><time>2026-03-22T10:14:08.971Z</time></trkpt><trkpt lat="43.8212532" lon="12.630245"><ele>293.33333333333337</ele><time>2026-03-22T10:14:09.972Z</time></trkpt><trkpt lat="43.8211867" lon="12.6300387"><ele>293.0</ele><time>2026-03-22T10:14:10.972Z</time></trkpt><trkpt lat="43.821134" lon="12.6298264"><ele>293.0</ele><time>2026-03-22T10:14:11.97Z</time></trkpt><trkpt lat="43.821101" lon="12.6296224"><ele>293.0</ele><time>2026-03-22T10:14:12.972Z</time></trkpt><trkpt lat="43.82108" lon="12.6294112"><ele>293.0</ele><time>2026-03-22T10:14:13.971Z</time></trkpt><trkpt lat="43.8210629" lon="12.6292047"><ele>292.75</ele><time>2026-03-22T10:14:14.971Z</time></trkpt><trkpt lat="43.8210573" lon="12.6290113"><ele>292.5</ele><time>2026-03-22T10:14:15.972Z</time></trkpt><trkpt lat="43.8210575" lon="12.6287968"><ele>292.25</ele><time>2026-03-22T10:14:16.972Z</time></trkpt><trkpt lat="43.8210598" lon="12.6285924"><ele>292.0</ele><time>2026-03-22T10:14:17.972Z</time></trkpt><trkpt lat="43.8210618" lon="12.6284253"><ele>292.5</ele><time>2026-03-22T10:14:18.971Z</time></trkpt><trkpt lat="43.8210601" lon="12.62826"><ele>293.0</ele><time>2026-03-22T10:14:19.972Z</time></trkpt><trkpt lat="43.8210491" lon="12.6280887"><ele>293.5</ele><time>2026-03-22T10:14:20.972Z</time></trkpt><trkpt lat="43.8210311" lon="12.6279043"><ele>294.0</ele><time>2026-03-22T10:14:21.971Z</time></trkpt><trkpt lat="43.8210147" lon="12.6277024"><ele>295.75</ele><time>2026-03-22T10:14:22.972Z</time></trkpt><trkpt lat="43.8210046" lon="12.6275194"><ele>297.5</ele><time>2026-03-22T10:14:23.972Z</time></trkpt><trkpt lat="43.8210041" lon="12.6273447"><ele>299.25</ele><time>2026-03-22T10:14:24.972Z</time></trkpt><trkpt lat="43.8210161" lon="12.6271949"><ele>301.0</ele><time>2026-03-22T10:14:25.97Z</time></trkpt><trkpt lat="43.8210523" lon="12.6270605"><ele>304.5</ele><time>2026-03-22T10:14:26.972Z</time></trkpt><trkpt lat="43.821101" lon="12.6269093"><ele>308.0</ele><time>2026-03-22T10:14:27.972Z</time></trkpt><trkpt lat="43.8211438" lon="12.6267462"><ele>311.5</ele><time>2026-03-22T10:14:28.971Z</time></trkpt><trkpt lat="43.8211692" lon="12.6265822"><ele>315.0</ele><time>2026-03-22T10:14:29.971Z</time></trkpt><trkpt lat="43.8211826" lon="12.6263908"><ele>315.0</ele><time>2026-03-22T10:14:30.971Z</time></trkpt><trkpt lat="43.8211881" lon="12.6261835"><ele>315.0</ele><time>2026-03-22T10:14:31.971Z</time></trkpt><trkpt lat="43.8211892" lon="12.6259899"><ele>315.0</ele><time>2026-03-22T10:14:32.972Z</time></trkpt><trkpt lat="43.821186" lon="12.6258204"><ele>315.0</ele><time>2026-03-22T10:14:33.971Z</time></trkpt><trkpt lat="43.8211748" lon="12.6256753"><ele>316.0</ele><time>2026-03-22T10:14:34.972Z</time></trkpt><trkpt lat="43.821156" lon="12.6255511"><ele>317.0</ele><time>2026-03-22T10:14:35.971Z</time></trkpt><trkpt lat="43.8211329" lon="12.6254609"><ele>318.0</ele><time>2026-03-22T10:14:36.971Z</time></trkpt><trkpt lat="43.8210823" lon="12.6253676"><ele>319.0</ele><time>2026-03-22T10:14:38.972Z</time></trkpt><trkpt lat="43.8209979" lon="12.6254305"><ele>320.0</ele><time>2026-03-22T10:14:41.972Z</time></trkpt><trkpt lat="43.8209673" lon="12.6255123"><ele>321.0</ele><time>2026-03-22T10:14:42.972Z</time></trkpt><trkpt lat="43.8209237" lon="12.6256268"><ele>321.0</ele><time>2026-03-22T10:14:43.972Z</time></trkpt><trkpt lat="43.8208671" lon="12.6257556"><ele>321.0</ele><time>2026-03-22T10:14:44.97Z</time></trkpt><trkpt lat="43.8208112" lon="12.6258958"><ele>321.0</ele><time>2026-03-22T10:14:45.972Z</time></trkpt><trkpt lat="43.8207467" lon="12.6260464"><ele>321.0</ele><time>2026-03-22T10:14:46.972Z</time></trkpt><trkpt lat="43.8206849" lon="12.6261919"><ele>320.75</ele><time>2026-03-22T10:14:47.971Z</time></trkpt><trkpt lat="43.8206254" lon="12.6263325"><ele>320.5</ele><time>2026-03-22T10:14:48.971Z</time></trkpt><trkpt lat="43.8205628" lon="12.6264656"><ele>320.25</ele><time>2026-03-22T10:14:49.971Z</time></trkpt><trkpt lat="43.8204908" lon="12.6265865"><ele>320.0</ele><time>2026-03-22T10:14:50.971Z</time></trkpt><trkpt lat="43.820415" lon="12.6266986"><ele>320.0</ele><time>2026-03-22T10:14:51.972Z</time></trkpt><trkpt lat="43.8203379" lon="12.6268041"><ele>320.0</ele><time>2026-03-22T10:14:52.971Z</time></trkpt><trkpt lat="43.8202524" lon="12.6269018"><ele>320.0</ele><time>2026-03-22T10:14:53.973Z</time></trkpt><trkpt lat="43.8201647" lon="12.6269916"><ele>320.0</ele><time>2026-03-22T10:14:54.973Z</time></trkpt><trkpt lat="43.8200775" lon="12.6270736"><ele>320.0</ele><time>2026-03-22T10:14:55.972Z</time></trkpt><trkpt lat="43.8199914" lon="12.6271515"><ele>319.4</ele><time>2026-03-22T10:14:56.973Z</time></trkpt><trkpt lat="43.8199052" lon="12.6272276"><ele>318.8</ele><time>2026-03-22T10:14:57.972Z</time></trkpt><trkpt lat="43.81982" lon="12.6273035"><ele>318.2</ele><time>2026-03-22T10:14:58.973Z</time></trkpt><trkpt lat="43.8197426" lon="12.6273751"><ele>317.6</ele><time>2026-03-22T10:14:59.972Z</time></trkpt><trkpt lat="43.8196617" lon="12.6274503"><ele>317.0</ele><time>2026-03-22T10:15:00.973Z</time></trkpt><trkpt lat="43.819576" lon="12.6275343"><ele>317.0</ele><time>2026-03-22T10:15:01.973Z</time></trkpt><trkpt lat="43.8194862" lon="12.6276265"><ele>317.0</ele><time>2026-03-22T10:15:02.972Z</time></trkpt><trkpt lat="43.8193998" lon="12.627719"><ele>317.0</ele><time>2026-03-22T10:15:03.972Z</time></trkpt><trkpt lat="43.819319" lon="12.6278106"><ele>317.0</ele><time>2026-03-22T10:15:04.972Z</time></trkpt><trkpt lat="43.819247" lon="12.6279103"><ele>317.0</ele><time>2026-03-22T10:15:05.972Z</time></trkpt><trkpt lat="43.8191865" lon="12.6280145"><ele>314.83333333333337</ele><time>2026-03-22T10:15:06.972Z</time></trkpt><trkpt lat="43.8191366" lon="12.6281251"><ele>312.6666666666667</ele><time>2026-03-22T10:15:07.973Z</time></trkpt><trkpt lat="43.8190996" lon="12.6282376"><ele>310.5</ele><time>2026-03-22T10:15:08.972Z</time></trkpt><trkpt lat="43.8190685" lon="12.6283526"><ele>308.3333333333333</ele><time>2026-03-22T10:15:09.973Z</time></trkpt><trkpt lat="43.8190369" lon="12.6284628"><ele>306.16666666666663</ele><time>2026-03-22T10:15:10.972Z</time></trkpt><trkpt lat="43.8190079" lon="12.6285702"><ele>304.0</ele><time>2026-03-22T10:15:11.973Z</time></trkpt><trkpt lat="43.8189832" lon="12.6286727"><ele>302.8333333333333</ele><time>2026-03-22T10:15:12.972Z</time></trkpt><trkpt lat="43.8189628" lon="12.6287696"><ele>301.66666666666663</ele><time>2026-03-22T10:15:13.973Z</time></trkpt><trkpt lat="43.8189422" lon="12.6288639"><ele>300.5</ele><time>2026-03-22T10:15:14.972Z</time></trkpt><trkpt lat="43.8189189" lon="12.6289591"><ele>299.3333333333333</ele><time>2026-03-22T10:15:15.973Z</time></trkpt><trkpt lat="43.8188947" lon="12.6290543"><ele>298.1666666666667</ele><time>2026-03-22T10:15:16.973Z</time></trkpt><trkpt lat="43.8188661" lon="12.6291571"><ele>297.0</ele><time>2026-03-22T10:15:17.972Z</time></trkpt><trkpt lat="43.8188161" lon="12.6292704"><ele>297.0</ele><time>2026-03-22T10:15:18.972Z</time></trkpt><trkpt lat="43.8187387" lon="12.6293676"><ele>297.0</ele><time>2026-03-22T10:15:19.973Z</time></trkpt><trkpt lat="43.8186542" lon="12.6294333"><ele>297.0</ele><time>2026-03-22T10:15:20.973Z</time></trkpt><trkpt lat="43.8185667" lon="12.6294859"><ele>297.0</ele><time>2026-03-22T10:15:21.972Z</time></trkpt><trkpt lat="43.8184764" lon="12.62953"><ele>297.0</ele><time>2026-03-22T10:15:22.973Z</time></trkpt><trkpt lat="43.8183849" lon="12.6295688"><ele>294.2</ele><time>2026-03-22T10:15:23.973Z</time></trkpt><trkpt lat="43.818294" lon="12.6296056"><ele>291.4</ele><time>2026-03-22T10:15:24.971Z</time></trkpt><trkpt lat="43.8182045" lon="12.6296403"><ele>288.6</ele><time>2026-03-22T10:15:25.972Z</time></trkpt><trkpt lat="43.8181192" lon="12.6296747"><ele>285.8</ele><time>2026-03-22T10:15:26.972Z</time></trkpt><trkpt lat="43.818033" lon="12.6297105"><ele>283.0</ele><time>2026-03-22T10:15:27.971Z</time></trkpt><trkpt lat="43.8179489" lon="12.6297467"><ele>283.0</ele><time>2026-03-22T10:15:28.973Z</time></trkpt><trkpt lat="43.817873" lon="12.6297792"><ele>283.0</ele><time>2026-03-22T10:15:29.973Z</time></trkpt><trkpt lat="43.8178032" lon="12.6298082"><ele>283.0</ele><time>2026-03-22T10:15:30.973Z</time></trkpt><trkpt lat="43.8177393" lon="12.6298369"><ele>283.0</ele><time>2026-03-22T10:15:31.973Z</time></trkpt><trkpt lat="43.8176244" lon="12.6298845"><ele>283.0</ele><time>2026-03-22T10:15:33.973Z</time></trkpt><trkpt lat="43.8175635" lon="12.6299091"><ele>283.0</ele><time>2026-03-22T10:15:34.972Z</time></trkpt><trkpt lat="43.8174362" lon="12.6299587"><ele>284.6</ele><time>2026-03-22T10:15:36.972Z</time></trkpt><trkpt lat="43.817367" lon="12.6299875"><ele>286.20000000000005</ele><time>2026-03-22T10:15:37.973Z</time></trkpt><trkpt lat="43.8172975" lon="12.6300171"><ele>287.8</ele><time>2026-03-22T10:15:38.972Z</time></trkpt><trkpt lat="43.8172169" lon="12.6300528"><ele>289.40000000000003</ele><time>2026-03-22T10:15:39.973Z</time></trkpt><trkpt lat="43.8171101" lon="12.6300928"><ele>291.0</ele><time>2026-03-22T10:15:40.973Z</time></trkpt><trkpt lat="43.8169928" lon="12.6301386"><ele>291.0</ele><time>2026-03-22T10:15:41.972Z</time></trkpt><trkpt lat="43.8168684" lon="12.6301833"><ele>291.0</ele><time>2026-03-22T10:15:42.973Z</time></trkpt><trkpt lat="43.8167402" lon="12.6302315"><ele>291.0</ele><time>2026-03-22T10:15:43.972Z</time></trkpt><trkpt lat="43.8166111" lon="12.6302799"><ele>291.0</ele><time>2026-03-22T10:15:44.972Z</time></trkpt><trkpt lat="43.8164869" lon="12.6303294"><ele>288.5</ele><time>2026-03-22T10:15:45.973Z</time></trkpt><trkpt lat="43.8163628" lon="12.6303781"><ele>286.0</ele><time>2026-03-22T10:15:46.971Z</time></trkpt><trkpt lat="43.8162335" lon="12.6304298"><ele>283.5</ele><time>2026-03-22T10:15:47.972Z</time></trkpt><trkpt lat="43.8161001" lon="12.6304842"><ele>281.0</ele><time>2026-03-22T10:15:48.973Z</time></trkpt><trkpt lat="43.815962" lon="12.6305403"><ele>281.0</ele><time>2026-03-22T10:15:49.973Z</time></trkpt><trkpt lat="43.8158203" lon="12.6305934"><ele>281.0</ele><time>2026-03-22T10:15:50.972Z</time></trkpt><trkpt lat="43.8156767" lon="12.6306514"><ele>281.0</ele><time>2026-03-22T10:15:51.972Z</time></trkpt><trkpt lat="43.8155332" lon="12.6307121"><ele>281.0</ele><time>2026-03-22T10:15:52.973Z</time></trkpt><trkpt lat="43.8153925" lon="12.6307742"><ele>281.0</ele><time>2026-03-22T10:15:53.973Z</time></trkpt><trkpt lat="43.8152619" lon="12.6308485"><ele>281.0</ele><time>2026-03-22T10:15:54.972Z</time></trkpt><trkpt lat="43.8151336" lon="12.6309446"><ele>281.0</ele><time>2026-03-22T10:15:55.972Z</time></trkpt><trkpt lat="43.8150031" lon="12.6310577"><ele>281.0</ele><time>2026-03-22T10:15:56.973Z</time></trkpt><trkpt lat="43.8148854" lon="12.6311575"><ele>279.6</ele><time>2026-03-22T10:15:57.973Z</time></trkpt><trkpt lat="43.814782" lon="12.6312539"><ele>278.20000000000005</ele><time>2026-03-22T10:15:58.972Z</time></trkpt><trkpt lat="43.8146843" lon="12.6313419"><ele>276.79999999999995</ele><time>2026-03-22T10:15:59.972Z</time></trkpt><trkpt lat="43.8145902" lon="12.6314101"><ele>275.4</ele><time>2026-03-22T10:16:00.972Z</time></trkpt><trkpt lat="43.8144934" lon="12.6314463"><ele>274.0</ele><time>2026-03-22T10:16:01.972Z</time></trkpt><trkpt lat="43.8143927" lon="12.631442"><ele>278.4</ele><time>2026-03-22T10:16:02.972Z</time></trkpt><trkpt lat="43.8142957" lon="12.6313928"><ele>282.79999999999995</ele><time>2026-03-22T10:16:03.973Z</time></trkpt><trkpt lat="43.8142189" lon="12.6312997"><ele>287.20000000000005</ele><time>2026-03-22T10:16:04.973Z</time></trkpt><trkpt lat="43.8141658" lon="12.6311752"><ele>291.6</ele><time>2026-03-22T10:16:05.972Z</time></trkpt><trkpt lat="43.814125" lon="12.6310518"><ele>296.0</ele><time>2026-03-22T10:16:06.973Z</time></trkpt><trkpt lat="43.8140849" lon="12.6309671"><ele>296.0</ele><time>2026-03-22T10:16:07.973Z</time></trkpt><trkpt lat="43.8139781" lon="12.6309278"><ele>296.0</ele><time>2026-03-22T10:16:09.972Z</time></trkpt><trkpt lat="43.8139231" lon="12.6309814"><ele>296.0</ele><time>2026-03-22T10:16:10.973Z</time></trkpt><trkpt lat="43.8138698" lon="12.6310779"><ele>296.0</ele><time>2026-03-22T10:16:11.972Z</time></trkpt><trkpt lat="43.8138058" lon="12.6312148"><ele>296.0</ele><time>2026-03-22T10:16:12.973Z</time></trkpt><trkpt lat="43.8137111" lon="12.6313561"><ele>296.0</ele><time>2026-03-22T10:16:13.972Z</time></trkpt><trkpt lat="43.8135931" lon="12.6314703"><ele>296.0</ele><time>2026-03-22T10:16:14.973Z</time></trkpt><trkpt lat="43.8134476" lon="12.6315636"><ele>296.0</ele><time>2026-03-22T10:16:15.972Z</time></trkpt><trkpt lat="43.8132596" lon="12.6316508"><ele>303.0</ele><time>2026-03-22T10:16:16.972Z</time></trkpt><trkpt lat="43.8130977" lon="12.6317144"><ele>310.0</ele><time>2026-03-22T10:16:17.973Z</time></trkpt><trkpt lat="43.8129424" lon="12.6317641"><ele>317.0</ele><time>2026-03-22T10:16:18.973Z</time></trkpt><trkpt lat="43.8128009" lon="12.6318061"><ele>317.0</ele><time>2026-03-22T10:16:19.972Z</time></trkpt><trkpt lat="43.8126729" lon="12.6318494"><ele>317.0</ele><time>2026-03-22T10:16:20.973Z</time></trkpt><trkpt lat="43.8125454" lon="12.6318975"><ele>317.0</ele><time>2026-03-22T10:16:21.972Z</time></trkpt><trkpt lat="43.812423" lon="12.6319449"><ele>317.0</ele><time>2026-03-22T10:16:22.973Z</time></trkpt><trkpt lat="43.8123029" lon="12.6319877"><ele>313.5</ele><time>2026-03-22T10:16:23.973Z</time></trkpt><trkpt lat="43.8121821" lon="12.6320245"><ele>310.0</ele><time>2026-03-22T10:16:24.973Z</time></trkpt><trkpt lat="43.8120656" lon="12.6320522"><ele>306.5</ele><time>2026-03-22T10:16:25.973Z</time></trkpt><trkpt lat="43.811947" lon="12.6320677"><ele>303.0</ele><time>2026-03-22T10:16:26.972Z</time></trkpt><trkpt lat="43.8118354" lon="12.6320746"><ele>307.6</ele><time>2026-03-22T10:16:27.971Z</time></trkpt><trkpt lat="43.8117366" lon="12.6320754"><ele>312.20000000000005</ele><time>2026-03-22T10:16:28.972Z</time></trkpt><trkpt lat="43.8116514" lon="12.6320772"><ele>316.8</ele><time>2026-03-22T10:16:29.972Z</time></trkpt><trkpt lat="43.811578" lon="12.6320831"><ele>321.40000000000003</ele><time>2026-03-22T10:16:30.972Z</time></trkpt><trkpt lat="43.8114596" lon="12.6320829"><ele>326.0</ele><time>2026-03-22T10:16:32.973Z</time></trkpt><trkpt lat="43.8113673" lon="12.6320899"><ele>326.0</ele><time>2026-03-22T10:16:34.972Z</time></trkpt><trkpt lat="43.811293" lon="12.6320373"><ele>326.0</ele><time>2026-03-22T10:16:37.972Z</time></trkpt><trkpt lat="43.8113359" lon="12.6319469"><ele>326.0</ele><time>2026-03-22T10:16:41.973Z</time></trkpt><trkpt lat="43.8112814" lon="12.6318897"><ele>326.0</ele><time>2026-03-22T10:17:08.973Z</time></trkpt><trkpt lat="43.8111595" lon="12.6319944"><ele>326.0</ele><time>2026-03-22T10:17:10.972Z</time></trkpt><trkpt lat="43.8110778" lon="12.6320496"><ele>326.0</ele><time>2026-03-22T10:17:11.972Z</time></trkpt><trkpt lat="43.8110017" lon="12.6320989"><ele>326.0</ele><time>2026-03-22T10:17:12.972Z</time></trkpt><trkpt lat="43.8109297" lon="12.6321467"><ele>326.0</ele><time>2026-03-22T10:17:13.973Z</time></trkpt><trkpt lat="43.8108597" lon="12.6321876"><ele>326.0</ele><time>2026-03-22T10:17:14.973Z</time></trkpt><trkpt lat="43.8107989" lon="12.63222"><ele>326.0</ele><time>2026-03-22T10:17:15.972Z</time></trkpt><trkpt lat="43.8107003" lon="12.6322252"><ele>326.0</ele><time>2026-03-22T10:17:17.973Z</time></trkpt><trkpt lat="43.8106227" lon="12.6321036"><ele>326.6</ele><time>2026-03-22T10:17:19.972Z</time></trkpt><trkpt lat="43.8106141" lon="12.6320009"><ele>327.20000000000005</ele><time>2026-03-22T10:17:20.972Z</time></trkpt><trkpt lat="43.8106401" lon="12.6318906"><ele>327.79999999999995</ele><time>2026-03-22T10:17:21.973Z</time></trkpt><trkpt lat="43.8106947" lon="12.6317633"><ele>328.4</ele><time>2026-03-22T10:17:22.973Z</time></trkpt><trkpt lat="43.8107773" lon="12.6316114"><ele>329.0</ele><time>2026-03-22T10:17:23.972Z</time></trkpt><trkpt lat="43.8108557" lon="12.6314723"><ele>329.0</ele><time>2026-03-22T10:17:24.972Z</time></trkpt><trkpt lat="43.8109325" lon="12.6313359"><ele>329.0</ele><time>2026-03-22T10:17:25.972Z</time></trkpt><trkpt lat="43.8110138" lon="12.6312096"><ele>329.0</ele><time>2026-03-22T10:17:26.972Z</time></trkpt><trkpt lat="43.8110897" lon="12.6310893"><ele>329.0</ele><time>2026-03-22T10:17:27.972Z</time></trkpt><trkpt lat="43.8111631" lon="12.6309642"><ele>330.25</ele><time>2026-03-22T10:17:28.972Z</time></trkpt><trkpt lat="43.8112343" lon="12.6308287"><ele>331.5</ele><time>2026-03-22T10:17:29.973Z</time></trkpt><trkpt lat="43.8113022" lon="12.6306891"><ele>332.75</ele><time>2026-03-22T10:17:30.972Z</time></trkpt><trkpt lat="43.8113725" lon="12.6305403"><ele>334.0</ele><time>2026-03-22T10:17:31.973Z</time></trkpt><trkpt lat="43.8114456" lon="12.6303781"><ele>330.75</ele><time>2026-03-22T10:17:32.972Z</time></trkpt><trkpt lat="43.8115119" lon="12.630213"><ele>327.5</ele><time>2026-03-22T10:17:33.973Z</time></trkpt><trkpt lat="43.8115834" lon="12.630028"><ele>324.25</ele><time>2026-03-22T10:17:34.973Z</time></trkpt><trkpt lat="43.8116547" lon="12.6298358"><ele>321.0</ele><time>2026-03-22T10:17:35.972Z</time></trkpt><trkpt lat="43.8117218" lon="12.6296393"><ele>320.0</ele><time>2026-03-22T10:17:36.973Z</time></trkpt><trkpt lat="43.8117911" lon="12.6294367"><ele>319.0</ele><time>2026-03-22T10:17:37.972Z</time></trkpt><trkpt lat="43.8118641" lon="12.6291965"><ele>318.0</ele><time>2026-03-22T10:17:38.972Z</time></trkpt><trkpt lat="43.8119331" lon="12.6289666"><ele>318.0</ele><time>2026-03-22T10:17:39.973Z</time></trkpt><trkpt lat="43.8119935" lon="12.6287562"><ele>318.0</ele><time>2026-03-22T10:17:40.973Z</time></trkpt><trkpt lat="43.812055" lon="12.6285565"><ele>318.0</ele><time>2026-03-22T10:17:41.973Z</time></trkpt><trkpt lat="43.8121104" lon="12.6283668"><ele>315.0</ele><time>2026-03-22T10:17:42.973Z</time></trkpt><trkpt lat="43.8121751" lon="12.6281737"><ele>312.0</ele><time>2026-03-22T10:17:43.972Z</time></trkpt><trkpt lat="43.8122546" lon="12.6279755"><ele>309.0</ele><time>2026-03-22T10:17:44.973Z</time></trkpt><trkpt lat="43.8123294" lon="12.6278105"><ele>306.75</ele><time>2026-03-22T10:17:45.972Z</time></trkpt><trkpt lat="43.8124043" lon="12.6276545"><ele>304.5</ele><time>2026-03-22T10:17:46.971Z</time></trkpt><trkpt lat="43.8124835" lon="12.6275139"><ele>302.25</ele><time>2026-03-22T10:17:47.972Z</time></trkpt><trkpt lat="43.8125582" lon="12.6274117"><ele>300.0</ele><time>2026-03-22T10:17:48.972Z</time></trkpt><trkpt lat="43.8126283" lon="12.6273348"><ele>300.0</ele><time>2026-03-22T10:17:49.971Z</time></trkpt><trkpt lat="43.8126883" lon="12.6272718"><ele>300.0</ele><time>2026-03-22T10:17:50.973Z</time></trkpt><trkpt lat="43.8127233" lon="12.6271956"><ele>300.0</ele><time>2026-03-22T10:17:51.973Z</time></trkpt><trkpt lat="43.8126854" lon="12.6270622"><ele>300.0</ele><time>2026-03-22T10:17:53.972Z</time></trkpt><trkpt lat="43.8125253" lon="12.6270622"><ele>300.0</ele><time>2026-03-22T10:17:55.972Z</time></trkpt><trkpt lat="43.8123893" lon="12.6270944"><ele>300.0</ele><time>2026-03-22T10:17:56.973Z</time></trkpt><trkpt lat="43.8122636" lon="12.6271242"><ele>300.0</ele><time>2026-03-22T10:17:57.972Z</time></trkpt><trkpt lat="43.8121373" lon="12.627133"><ele>300.0</ele><time>2026-03-22T10:17:58.971Z</time></trkpt><trkpt lat="43.8120104" lon="12.6271127"><ele>300.0</ele><time>2026-03-22T10:17:59.973Z</time></trkpt><trkpt lat="43.811871" lon="12.6270514"><ele>295.0</ele><time>2026-03-22T10:18:00.973Z</time></trkpt><trkpt lat="43.8117302" lon="12.6269595"><ele>290.0</ele><time>2026-03-22T10:18:01.973Z</time></trkpt><trkpt lat="43.8116101" lon="12.6268627"><ele>285.0</ele><time>2026-03-22T10:18:02.973Z</time></trkpt><trkpt lat="43.8115144" lon="12.6267563"><ele>280.0</ele><time>2026-03-22T10:18:03.972Z</time></trkpt><trkpt lat="43.8114425" lon="12.6266274"><ele>280.0</ele><time>2026-03-22T10:18:04.972Z</time></trkpt><trkpt lat="43.8113972" lon="12.6264762"><ele>280.0</ele><time>2026-03-22T10:18:05.972Z</time></trkpt><trkpt lat="43.81139" lon="12.6263182"><ele>280.0</ele><time>2026-03-22T10:18:06.973Z</time></trkpt><trkpt lat="43.8114003" lon="12.6261177"><ele>280.0</ele><time>2026-03-22T10:18:07.972Z</time></trkpt><trkpt lat="43.8114054" lon="12.6259041"><ele>278.0</ele><time>2026-03-22T10:18:08.972Z</time></trkpt><trkpt lat="43.8113847" lon="12.6256843"><ele>276.0</ele><time>2026-03-22T10:18:09.972Z</time></trkpt><trkpt lat="43.8113415" lon="12.6254576"><ele>274.0</ele><time>2026-03-22T10:18:10.972Z</time></trkpt><trkpt lat="43.8112857" lon="12.6252362"><ele>271.66666666666663</ele><time>2026-03-22T10:18:11.972Z</time></trkpt><trkpt lat="43.8112303" lon="12.6250264"><ele>269.3333333333333</ele><time>2026-03-22T10:18:12.972Z</time></trkpt><trkpt lat="43.8111804" lon="12.6248216"><ele>267.0</ele><time>2026-03-22T10:18:13.973Z</time></trkpt><trkpt lat="43.8111367" lon="12.6246231"><ele>267.0</ele><time>2026-03-22T10:18:14.972Z</time></trkpt><trkpt lat="43.8110914" lon="12.624445"><ele>267.0</ele><time>2026-03-22T10:18:15.973Z</time></trkpt><trkpt lat="43.8110244" lon="12.6242832"><ele>267.0</ele><time>2026-03-22T10:18:16.973Z</time></trkpt><trkpt lat="43.8109309" lon="12.6241375"><ele>267.0</ele><time>2026-03-22T10:18:17.973Z</time></trkpt><trkpt lat="43.8108167" lon="12.6240026"><ele>267.0</ele><time>2026-03-22T10:18:18.973Z</time></trkpt><trkpt lat="43.8106923" lon="12.6238704"><ele>267.0</ele><time>2026-03-22T10:18:19.972Z</time></trkpt><trkpt lat="43.8105754" lon="12.6237183"><ele>267.0</ele><time>2026-03-22T10:18:20.973Z</time></trkpt><trkpt lat="43.8104626" lon="12.6235476"><ele>264.3333333333333</ele><time>2026-03-22T10:18:21.972Z</time></trkpt><trkpt lat="43.8103587" lon="12.623375"><ele>261.66666666666663</ele><time>2026-03-22T10:18:22.972Z</time></trkpt><trkpt lat="43.8102558" lon="12.6232014"><ele>259.0</ele><time>2026-03-22T10:18:23.972Z</time></trkpt><trkpt lat="43.8101524" lon="12.6230164"><ele>257.3333333333333</ele><time>2026-03-22T10:18:24.972Z</time></trkpt><trkpt lat="43.8100587" lon="12.6228235"><ele>255.66666666666669</ele><time>2026-03-22T10:18:25.973Z</time></trkpt><trkpt lat="43.8099682" lon="12.6226257"><ele>254.0</ele><time>2026-03-22T10:18:26.973Z</time></trkpt><trkpt lat="43.809881" lon="12.6224249"><ele>254.0</ele><time>2026-03-22T10:18:27.972Z</time></trkpt><trkpt lat="43.809795" lon="12.6222252"><ele>254.0</ele><time>2026-03-22T10:18:28.973Z</time></trkpt><trkpt lat="43.8097119" lon="12.6220336"><ele>254.0</ele><time>2026-03-22T10:18:29.973Z</time></trkpt><trkpt lat="43.8096274" lon="12.6218591"><ele>252.0</ele><time>2026-03-22T10:18:30.972Z</time></trkpt><trkpt lat="43.8095376" lon="12.6217005"><ele>250.0</ele><time>2026-03-22T10:18:31.972Z</time></trkpt><trkpt lat="43.8094425" lon="12.6215499"><ele>248.0</ele><time>2026-03-22T10:18:32.972Z</time></trkpt><trkpt lat="43.8093384" lon="12.6214003"><ele>246.0</ele><time>2026-03-22T10:18:33.972Z</time></trkpt><trkpt lat="43.8092287" lon="12.6212531"><ele>244.25</ele><time>2026-03-22T10:18:34.973Z</time></trkpt><trkpt lat="43.8091169" lon="12.6211158"><ele>242.5</ele><time>2026-03-22T10:18:35.973Z</time></trkpt><trkpt lat="43.8090197" lon="12.6209994"><ele>240.75</ele><time>2026-03-22T10:18:36.973Z</time></trkpt><trkpt lat="43.8089324" lon="12.6208917"><ele>239.0</ele><time>2026-03-22T10:18:37.972Z</time></trkpt><trkpt lat="43.8088327" lon="12.6208103"><ele>239.0</ele><time>2026-03-22T10:18:38.973Z</time></trkpt><trkpt lat="43.8087189" lon="12.6207618"><ele>239.0</ele><time>2026-03-22T10:18:39.973Z</time></trkpt><trkpt lat="43.8085915" lon="12.6207468"><ele>239.0</ele><time>2026-03-22T10:18:40.973Z</time></trkpt><trkpt lat="43.8084649" lon="12.6207411"><ele>239.0</ele><time>2026-03-22T10:18:41.973Z</time></trkpt><trkpt lat="43.8083628" lon="12.6207197"><ele>236.66666666666669</ele><time>2026-03-22T10:18:42.973Z</time></trkpt><trkpt lat="43.8082686" lon="12.6206684"><ele>234.33333333333334</ele><time>2026-03-22T10:18:43.973Z</time></trkpt><trkpt lat="43.8081881" lon="12.6205875"><ele>232.0</ele><time>2026-03-22T10:18:44.973Z</time></trkpt><trkpt lat="43.8081376" lon="12.6204899"><ele>229.66666666666669</ele><time>2026-03-22T10:18:45.973Z</time></trkpt><trkpt lat="43.808125" lon="12.6203881"><ele>227.33333333333334</ele><time>2026-03-22T10:18:46.973Z</time></trkpt><trkpt lat="43.8081492" lon="12.6202985"><ele>225.0</ele><time>2026-03-22T10:18:47.972Z</time></trkpt><trkpt lat="43.8082193" lon="12.6202069"><ele>225.5</ele><time>2026-03-22T10:18:48.973Z</time></trkpt><trkpt lat="43.8083319" lon="12.620108"><ele>226.0</ele><time>2026-03-22T10:18:49.973Z</time></trkpt><trkpt lat="43.808443" lon="12.6200199"><ele>226.5</ele><time>2026-03-22T10:18:50.972Z</time></trkpt><trkpt lat="43.8085476" lon="12.6199356"><ele>227.0</ele><time>2026-03-22T10:18:51.973Z</time></trkpt><trkpt lat="43.8086418" lon="12.6198503"><ele>227.0</ele><time>2026-03-22T10:18:52.972Z</time></trkpt><trkpt lat="43.8087274" lon="12.6197323"><ele>227.0</ele><time>2026-03-22T10:18:53.972Z</time></trkpt><trkpt lat="43.8088044" lon="12.6195844"><ele>227.0</ele><time>2026-03-22T10:18:54.973Z</time></trkpt><trkpt lat="43.8088727" lon="12.6194284"><ele>227.0</ele><time>2026-03-22T10:18:55.973Z</time></trkpt><trkpt lat="43.8089342" lon="12.6192865"><ele>224.83333333333334</ele><time>2026-03-22T10:18:56.973Z</time></trkpt><trkpt lat="43.8089809" lon="12.6191748"><ele>222.66666666666669</ele><time>2026-03-22T10:18:57.973Z</time></trkpt><trkpt lat="43.8090141" lon="12.6190807"><ele>220.5</ele><time>2026-03-22T10:18:58.972Z</time></trkpt><trkpt lat="43.8090275" lon="12.6189914"><ele>218.33333333333331</ele><time>2026-03-22T10:18:59.973Z</time></trkpt><trkpt lat="43.8089442" lon="12.6189029"><ele>216.16666666666666</ele><time>2026-03-22T10:19:01.973Z</time></trkpt><trkpt lat="43.8088643" lon="12.6189127"><ele>214.0</ele><time>2026-03-22T10:19:02.973Z</time></trkpt><trkpt lat="43.8087984" lon="12.6189033"><ele>213.99999999999997</ele><time>2026-03-22T10:19:03.972Z</time></trkpt><trkpt lat="43.808709" lon="12.6187813"><ele>214.0</ele><time>2026-03-22T10:19:05.973Z</time></trkpt><trkpt lat="43.8086989" lon="12.6186656"><ele>214.0</ele><time>2026-03-22T10:19:06.971Z</time></trkpt><trkpt lat="43.8087187" lon="12.6185588"><ele>214.0</ele><time>2026-03-22T10:19:07.972Z</time></trkpt><trkpt lat="43.8087655" lon="12.6184771"><ele>213.99999999999997</ele><time>2026-03-22T10:19:08.972Z</time></trkpt><trkpt lat="43.8088329" lon="12.6184249"><ele>214.0</ele><time>2026-03-22T10:19:09.972Z</time></trkpt><trkpt lat="43.8089335" lon="12.6184054"><ele>211.6</ele><time>2026-03-22T10:19:10.972Z</time></trkpt><trkpt lat="43.8090516" lon="12.618428"><ele>209.2</ele><time>2026-03-22T10:19:11.973Z</time></trkpt><trkpt lat="43.8091746" lon="12.6184717"><ele>206.79999999999998</ele><time>2026-03-22T10:19:12.972Z</time></trkpt><trkpt lat="43.8092774" lon="12.6184988"><ele>204.39999999999998</ele><time>2026-03-22T10:19:13.972Z</time></trkpt><trkpt lat="43.8093737" lon="12.618493"><ele>202.0</ele><time>2026-03-22T10:19:14.973Z</time></trkpt><trkpt lat="43.8094655" lon="12.6184493"><ele>199.8</ele><time>2026-03-22T10:19:15.973Z</time></trkpt><trkpt lat="43.809531" lon="12.6183677"><ele>197.6</ele><time>2026-03-22T10:19:16.972Z</time></trkpt><trkpt lat="43.8095647" lon="12.6182496"><ele>195.4</ele><time>2026-03-22T10:19:17.973Z</time></trkpt><trkpt lat="43.8095561" lon="12.6181077"><ele>193.20000000000002</ele><time>2026-03-22T10:19:18.973Z</time></trkpt><trkpt lat="43.8095125" lon="12.6179592"><ele>191.0</ele><time>2026-03-22T10:19:19.972Z</time></trkpt><trkpt lat="43.8094485" lon="12.6178431"><ele>191.20000000000002</ele><time>2026-03-22T10:19:20.973Z</time></trkpt><trkpt lat="43.8093684" lon="12.6177624"><ele>191.4</ele><time>2026-03-22T10:19:21.972Z</time></trkpt><trkpt lat="43.8092693" lon="12.6177254"><ele>191.6</ele><time>2026-03-22T10:19:22.973Z</time></trkpt><trkpt lat="43.8091489" lon="12.6177178"><ele>191.8</ele><time>2026-03-22T10:19:23.971Z</time></trkpt><trkpt lat="43.8090238" lon="12.6177058"><ele>192.0</ele><time>2026-03-22T10:19:24.972Z</time></trkpt><trkpt lat="43.8088745" lon="12.6177256"><ele>192.0</ele><time>2026-03-22T10:19:25.972Z</time></trkpt><trkpt lat="43.8087304" lon="12.6177372"><ele>192.0</ele><time>2026-03-22T10:19:26.973Z</time></trkpt><trkpt lat="43.8085883" lon="12.6177765"><ele>192.0</ele><time>2026-03-22T10:19:27.973Z</time></trkpt><trkpt lat="43.808452" lon="12.6178526"><ele>192.0</ele><time>2026-03-22T10:19:28.973Z</time></trkpt><trkpt lat="43.8083146" lon="12.6179563"><ele>192.66666666666669</ele><time>2026-03-22T10:19:29.973Z</time></trkpt><trkpt lat="43.8081802" lon="12.6180469"><ele>193.33333333333334</ele><time>2026-03-22T10:19:30.972Z</time></trkpt><trkpt lat="43.8080405" lon="12.6181237"><ele>194.0</ele><time>2026-03-22T10:19:31.972Z</time></trkpt><trkpt lat="43.807884" lon="12.6181523"><ele>194.0</ele><time>2026-03-22T10:19:32.973Z</time></trkpt><trkpt lat="43.8077159" lon="12.6181918"><ele>194.0</ele><time>2026-03-22T10:19:33.973Z</time></trkpt><trkpt lat="43.8075434" lon="12.6182604"><ele>194.0</ele><time>2026-03-22T10:19:34.972Z</time></trkpt><trkpt lat="43.8073719" lon="12.6183383"><ele>188.66666666666669</ele><time>2026-03-22T10:19:35.972Z</time></trkpt><trkpt lat="43.8072069" lon="12.6184273"><ele>183.33333333333334</ele><time>2026-03-22T10:19:36.972Z</time></trkpt><trkpt lat="43.8070472" lon="12.6185267"><ele>178.0</ele><time>2026-03-22T10:19:37.973Z</time></trkpt><trkpt lat="43.8069021" lon="12.6186244"><ele>176.66666666666669</ele><time>2026-03-22T10:19:38.973Z</time></trkpt><trkpt lat="43.8067569" lon="12.6187242"><ele>175.33333333333334</ele><time>2026-03-22T10:19:39.973Z</time></trkpt><trkpt lat="43.8066254" lon="12.6188169"><ele>174.0</ele><time>2026-03-22T10:19:40.973Z</time></trkpt><trkpt lat="43.8064957" lon="12.6189093"><ele>174.0</ele><time>2026-03-22T10:19:41.973Z</time></trkpt><trkpt lat="43.8063698" lon="12.6190176"><ele>174.0</ele><time>2026-03-22T10:19:42.973Z</time></trkpt><trkpt lat="43.8062519" lon="12.6191268"><ele>174.0</ele><time>2026-03-22T10:19:43.972Z</time></trkpt><trkpt lat="43.8061364" lon="12.6192436"><ele>174.0</ele><time>2026-03-22T10:19:44.972Z</time></trkpt><trkpt lat="43.8060204" lon="12.6193564"><ele>170.75</ele><time>2026-03-22T10:19:45.973Z</time></trkpt><trkpt lat="43.805912" lon="12.6194631"><ele>167.5</ele><time>2026-03-22T10:19:46.973Z</time></trkpt><trkpt lat="43.8058145" lon="12.6195664"><ele>164.25</ele><time>2026-03-22T10:19:47.972Z</time></trkpt><trkpt lat="43.8057065" lon="12.6196411"><ele>161.0</ele><time>2026-03-22T10:19:48.971Z</time></trkpt><trkpt lat="43.8055793" lon="12.6196755"><ele>161.0</ele><time>2026-03-22T10:19:49.971Z</time></trkpt><trkpt lat="43.8054345" lon="12.6196727"><ele>161.0</ele><time>2026-03-22T10:19:50.972Z</time></trkpt><trkpt lat="43.8052867" lon="12.6196464"><ele>161.0</ele><time>2026-03-22T10:19:51.971Z</time></trkpt><trkpt lat="43.8051394" lon="12.6196075"><ele>161.0</ele><time>2026-03-22T10:19:52.973Z</time></trkpt><trkpt lat="43.8049858" lon="12.619565"><ele>158.0</ele><time>2026-03-22T10:19:53.973Z</time></trkpt><trkpt lat="43.8048353" lon="12.6195185"><ele>155.0</ele><time>2026-03-22T10:19:54.973Z</time></trkpt><trkpt lat="43.8046987" lon="12.6194772"><ele>152.0</ele><time>2026-03-22T10:19:55.973Z</time></trkpt><trkpt lat="43.8045781" lon="12.6194116"><ele>149.0</ele><time>2026-03-22T10:19:56.972Z</time></trkpt><trkpt lat="43.8044823" lon="12.6193527"><ele>149.0</ele><time>2026-03-22T10:19:57.971Z</time></trkpt><trkpt lat="43.8044064" lon="12.6192697"><ele>149.0</ele><time>2026-03-22T10:19:58.973Z</time></trkpt><trkpt lat="43.8043602" lon="12.6191566"><ele>149.0</ele><time>2026-03-22T10:19:59.973Z</time></trkpt><trkpt lat="43.8043582" lon="12.6190372"><ele>149.0</ele><time>2026-03-22T10:20:00.972Z</time></trkpt><trkpt lat="43.8043952" lon="12.6189158"><ele>149.0</ele><time>2026-03-22T10:20:01.973Z</time></trkpt><trkpt lat="43.8044709" lon="12.6187807"><ele>148.5</ele><time>2026-03-22T10:20:02.973Z</time></trkpt><trkpt lat="43.8045582" lon="12.6186339"><ele>148.0</ele><time>2026-03-22T10:20:03.973Z</time></trkpt><trkpt lat="43.8046535" lon="12.6184792"><ele>147.5</ele><time>2026-03-22T10:20:04.972Z</time></trkpt><trkpt lat="43.8047334" lon="12.6183291"><ele>147.0</ele><time>2026-03-22T10:20:05.973Z</time></trkpt><trkpt lat="43.8047933" lon="12.6181694"><ele>147.0</ele><time>2026-03-22T10:20:06.972Z</time></trkpt><trkpt lat="43.8048219" lon="12.6180013"><ele>147.0</ele><time>2026-03-22T10:20:07.973Z</time></trkpt><trkpt lat="43.8048236" lon="12.6178159"><ele>147.0</ele><time>2026-03-22T10:20:08.973Z</time></trkpt><trkpt lat="43.804804" lon="12.6176124"><ele>147.0</ele><time>2026-03-22T10:20:09.972Z</time></trkpt><trkpt lat="43.8047778" lon="12.6174011"><ele>146.25</ele><time>2026-03-22T10:20:10.972Z</time></trkpt><trkpt lat="43.8047522" lon="12.617201"><ele>145.5</ele><time>2026-03-22T10:20:11.972Z</time></trkpt><trkpt lat="43.8047346" lon="12.6170032"><ele>144.75</ele><time>2026-03-22T10:20:12.972Z</time></trkpt><trkpt lat="43.8047212" lon="12.6168238"><ele>144.0</ele><time>2026-03-22T10:20:13.973Z</time></trkpt><trkpt lat="43.8047048" lon="12.6166469"><ele>143.2</ele><time>2026-03-22T10:20:14.971Z</time></trkpt><trkpt lat="43.8046848" lon="12.6164787"><ele>142.4</ele><time>2026-03-22T10:20:15.973Z</time></trkpt><trkpt lat="43.8046587" lon="12.6163286"><ele>141.6</ele><time>2026-03-22T10:20:16.973Z</time></trkpt><trkpt lat="43.8046034" lon="12.6162009"><ele>140.8</ele><time>2026-03-22T10:20:17.972Z</time></trkpt><trkpt lat="43.8045344" lon="12.6161095"><ele>140.0</ele><time>2026-03-22T10:20:18.973Z</time></trkpt><trkpt lat="43.8044521" lon="12.6160587"><ele>139.25</ele><time>2026-03-22T10:20:19.973Z</time></trkpt><trkpt lat="43.8043546" lon="12.6160573"><ele>138.5</ele><time>2026-03-22T10:20:20.972Z</time></trkpt><trkpt lat="43.8042389" lon="12.6160851"><ele>137.75</ele><time>2026-03-22T10:20:21.973Z</time></trkpt><trkpt lat="43.8041204" lon="12.6162048"><ele>137.0</ele><time>2026-03-22T10:20:22.973Z</time></trkpt><trkpt lat="43.8040014" lon="12.6163091"><ele>137.0</ele><time>2026-03-22T10:20:23.973Z</time></trkpt><trkpt lat="43.8038841" lon="12.6164109"><ele>137.0</ele><time>2026-03-22T10:20:24.973Z</time></trkpt><trkpt lat="43.803774" lon="12.616507"><ele>137.0</ele><time>2026-03-22T10:20:25.972Z</time></trkpt><trkpt lat="43.8036743" lon="12.6165858"><ele>137.0</ele><time>2026-03-22T10:20:26.973Z</time></trkpt><trkpt lat="43.8035806" lon="12.6166555"><ele>135.79999999999998</ele><time>2026-03-22T10:20:27.971Z</time></trkpt><trkpt lat="43.8034842" lon="12.6167215"><ele>134.6</ele><time>2026-03-22T10:20:28.973Z</time></trkpt><trkpt lat="43.8034078" lon="12.6167534"><ele>133.39999999999998</ele><time>2026-03-22T10:20:29.973Z</time></trkpt><trkpt lat="43.8033114" lon="12.6167878"><ele>132.2</ele><time>2026-03-22T10:20:30.972Z</time></trkpt><trkpt lat="43.8031993" lon="12.6168286"><ele>131.0</ele><time>2026-03-22T10:20:31.972Z</time></trkpt><trkpt lat="43.803073" lon="12.6168796"><ele>131.0</ele><time>2026-03-22T10:20:32.971Z</time></trkpt><trkpt lat="43.8029231" lon="12.6169488"><ele>131.0</ele><time>2026-03-22T10:20:33.971Z</time></trkpt><trkpt lat="43.8027665" lon="12.6170278"><ele>131.0</ele><time>2026-03-22T10:20:34.973Z</time></trkpt><trkpt lat="43.8026171" lon="12.6171088"><ele>131.0</ele><time>2026-03-22T10:20:35.973Z</time></trkpt><trkpt lat="43.8024755" lon="12.6171896"><ele>131.0</ele><time>2026-03-22T10:20:36.972Z</time></trkpt><trkpt lat="43.8023479" lon="12.617272"><ele>131.0</ele><time>2026-03-22T10:20:37.973Z</time></trkpt><trkpt lat="43.8022313" lon="12.6173617"><ele>131.0</ele><time>2026-03-22T10:20:38.972Z</time></trkpt><trkpt lat="43.8021265" lon="12.617459"><ele>131.0</ele><time>2026-03-22T10:20:39.973Z</time></trkpt><trkpt lat="43.8020333" lon="12.6175632"><ele>131.0</ele><time>2026-03-22T10:20:40.973Z</time></trkpt><trkpt lat="43.8019536" lon="12.6176706"><ele>131.0</ele><time>2026-03-22T10:20:41.973Z</time></trkpt><trkpt lat="43.8018813" lon="12.6177677"><ele>131.0</ele><time>2026-03-22T10:20:42.972Z</time></trkpt><trkpt lat="43.8018123" lon="12.6178601"><ele>131.0</ele><time>2026-03-22T10:20:43.972Z</time></trkpt><trkpt lat="43.8017491" lon="12.6179452"><ele>130.16666666666666</ele><time>2026-03-22T10:20:44.972Z</time></trkpt><trkpt lat="43.8016927" lon="12.6180235"><ele>129.33333333333331</ele><time>2026-03-22T10:20:45.973Z</time></trkpt><trkpt lat="43.8016442" lon="12.6180847"><ele>128.5</ele><time>2026-03-22T10:20:46.973Z</time></trkpt><trkpt lat="43.8015964" lon="12.6181423"><ele>127.66666666666666</ele><time>2026-03-22T10:20:47.972Z</time></trkpt><trkpt lat="43.801521" lon="12.6182243"><ele>126.83333333333333</ele><time>2026-03-22T10:20:49.973Z</time></trkpt><trkpt lat="43.8014549" lon="12.6182862"><ele>126.0</ele><time>2026-03-22T10:20:51.972Z</time></trkpt><trkpt lat="43.8013933" lon="12.6183423"><ele>126.0</ele><time>2026-03-22T10:20:53.971Z</time></trkpt><trkpt lat="43.8013142" lon="12.6183906"><ele>126.0</ele><time>2026-03-22T10:22:22.973Z</time></trkpt><trkpt lat="43.8012556" lon="12.618435"><ele>126.0</ele><time>2026-03-22T10:22:29.972Z</time></trkpt><trkpt lat="43.8011988" lon="12.618481"><ele>126.0</ele><time>2026-03-22T10:22:31.971Z</time></trkpt><trkpt lat="43.8011079" lon="12.6185491"><ele>126.0</ele><time>2026-03-22T10:22:33.972Z</time></trkpt><trkpt lat="43.8010326" lon="12.6185983"><ele>126.0</ele><time>2026-03-22T10:22:35.973Z</time></trkpt><trkpt lat="43.8009649" lon="12.6186354"><ele>125.6</ele><time>2026-03-22T10:22:37.973Z</time></trkpt><trkpt lat="43.8008932" lon="12.618673"><ele>125.19999999999999</ele><time>2026-03-22T10:22:39.972Z</time></trkpt><trkpt lat="43.8008081" lon="12.6187186"><ele>124.80000000000001</ele><time>2026-03-22T10:22:41.973Z</time></trkpt><trkpt lat="43.8007108" lon="12.6187732"><ele>124.4</ele><time>2026-03-22T10:22:43.973Z</time></trkpt><trkpt lat="43.8005949" lon="12.6188192"><ele>124.0</ele><time>2026-03-22T10:22:45.973Z</time></trkpt><trkpt lat="43.8005292" lon="12.6188422"><ele>124.00000000000001</ele><time>2026-03-22T10:22:46.972Z</time></trkpt><trkpt lat="43.8004529" lon="12.6188621"><ele>124.0</ele><time>2026-03-22T10:22:47.973Z</time></trkpt><trkpt lat="43.8003804" lon="12.6188752"><ele>124.0</ele><time>2026-03-22T10:22:48.972Z</time></trkpt><trkpt lat="43.800302" lon="12.6188887"><ele>124.0</ele><time>2026-03-22T10:22:49.972Z</time></trkpt><trkpt lat="43.8002205" lon="12.6189008"><ele>124.00000000000001</ele><time>2026-03-22T10:22:50.973Z</time></trkpt><trkpt lat="43.8001457" lon="12.6189084"><ele>124.0</ele><time>2026-03-22T10:22:51.972Z</time></trkpt><trkpt lat="43.8000688" lon="12.6189177"><ele>123.33333333333334</ele><time>2026-03-22T10:22:52.972Z</time></trkpt><trkpt lat="43.7999832" lon="12.6189302"><ele>122.66666666666667</ele><time>2026-03-22T10:22:53.973Z</time></trkpt><trkpt lat="43.7999043" lon="12.6189361"><ele>122.0</ele><time>2026-03-22T10:22:54.972Z</time></trkpt><trkpt lat="43.7998291" lon="12.618946"><ele>121.33333333333334</ele><time>2026-03-22T10:22:55.972Z</time></trkpt><trkpt lat="43.7997592" lon="12.618956"><ele>120.66666666666667</ele><time>2026-03-22T10:22:56.972Z</time></trkpt><trkpt lat="43.799638" lon="12.6189804"><ele>120.0</ele><time>2026-03-22T10:22:58.972Z</time></trkpt><trkpt lat="43.7995409" lon="12.6190029"><ele>120.0</ele><time>2026-03-22T10:23:00.972Z</time></trkpt><trkpt lat="43.7994769" lon="12.6190217"><ele>120.0</ele><time>2026-03-22T10:23:02.972Z</time></trkpt><trkpt lat="43.7994102" lon="12.6190579"><ele>120.0</ele><time>2026-03-22T10:23:05.972Z</time></trkpt><trkpt lat="43.7993379" lon="12.6190508"><ele>120.0</ele><time>2026-03-22T10:23:16.97Z</time></trkpt><trkpt lat="43.7992621" lon="12.6190531"><ele>120.0</ele><time>2026-03-22T10:23:19.971Z</time></trkpt><trkpt lat="43.7991667" lon="12.6190412"><ele>120.0</ele><time>2026-03-22T10:23:22.971Z</time></trkpt><trkpt lat="43.7990965" lon="12.6190707"><ele>119.66666666666667</ele><time>2026-03-22T10:23:25.972Z</time></trkpt><trkpt lat="43.7990372" lon="12.6190139"><ele>119.33333333333334</ele><time>2026-03-22T10:46:56.97Z</time></trkpt><trkpt lat="43.7989747" lon="12.6189932"><ele>119.0</ele><time>2026-03-22T10:47:00.97Z</time></trkpt><trkpt lat="43.7989127" lon="12.6190546"><ele>118.66666666666667</ele><time>2026-03-22T10:47:24.97Z</time></trkpt><trkpt lat="43.7988238" lon="12.6190675"><ele>118.33333333333334</ele><time>2026-03-22T10:47:26.97Z</time></trkpt><trkpt lat="43.7987462" lon="12.61908"><ele>118.0</ele><time>2026-03-22T10:47:28.97Z</time></trkpt><trkpt lat="43.7986689" lon="12.6190835"><ele>118.00000000000001</ele><time>2026-03-22T10:47:31.97Z</time></trkpt><trkpt lat="43.7985939" lon="12.6190871"><ele>118.0</ele><time>2026-03-22T10:47:35.971Z</time></trkpt><trkpt lat="43.7985198" lon="12.6191"><ele>118.0</ele><time>2026-03-22T10:47:38.969Z</time></trkpt><trkpt lat="43.7984495" lon="12.6191016"><ele>118.0</ele><time>2026-03-22T10:47:40.97Z</time></trkpt><trkpt lat="43.7983319" lon="12.6190641"><ele>118.00000000000001</ele><time>2026-03-22T10:47:42.971Z</time></trkpt><trkpt lat="43.7982636" lon="12.6190235"><ele>118.0</ele><time>2026-03-22T10:47:43.971Z</time></trkpt><trkpt lat="43.7981907" lon="12.6189772"><ele>117.60000000000001</ele><time>2026-03-22T10:47:44.97Z</time></trkpt><trkpt lat="43.7981114" lon="12.6189333"><ele>117.20000000000002</ele><time>2026-03-22T10:47:45.971Z</time></trkpt><trkpt lat="43.7980271" lon="12.6188907"><ele>116.8</ele><time>2026-03-22T10:47:46.971Z</time></trkpt><trkpt lat="43.7979411" lon="12.6188466"><ele>116.4</ele><time>2026-03-22T10:47:47.971Z</time></trkpt><trkpt lat="43.7978481" lon="12.6187982"><ele>116.0</ele><time>2026-03-22T10:47:48.97Z</time></trkpt><trkpt lat="43.7977461" lon="12.6187566"><ele>115.0</ele><time>2026-03-22T10:47:49.97Z</time></trkpt><trkpt lat="43.797642" lon="12.6187263"><ele>114.0</ele><time>2026-03-22T10:47:50.97Z</time></trkpt><trkpt lat="43.7975412" lon="12.618701"><ele>113.0</ele><time>2026-03-22T10:47:51.971Z</time></trkpt><trkpt lat="43.7974384" lon="12.618687"><ele>112.0</ele><time>2026-03-22T10:47:52.969Z</time></trkpt><trkpt lat="43.7973334" lon="12.6186755"><ele>111.0</ele><time>2026-03-22T10:47:53.971Z</time></trkpt><trkpt lat="43.7972273" lon="12.6186705"><ele>111.0</ele><time>2026-03-22T10:47:54.971Z</time></trkpt><trkpt lat="43.797117" lon="12.6186627"><ele>111.0</ele><time>2026-03-22T10:47:55.971Z</time></trkpt><trkpt lat="43.7970057" lon="12.6186604"><ele>111.0</ele><time>2026-03-22T10:47:56.971Z</time></trkpt><trkpt lat="43.7968896" lon="12.6186633"><ele>111.0</ele><time>2026-03-22T10:47:57.971Z</time></trkpt><trkpt lat="43.7967695" lon="12.618669"><ele>110.25</ele><time>2026-03-22T10:47:58.97Z</time></trkpt><trkpt lat="43.7966415" lon="12.6186715"><ele>109.5</ele><time>2026-03-22T10:47:59.97Z</time></trkpt><trkpt lat="43.796512" lon="12.6186776"><ele>108.75</ele><time>2026-03-22T10:48:00.97Z</time></trkpt><trkpt lat="43.7963839" lon="12.6186831"><ele>108.0</ele><time>2026-03-22T10:48:01.97Z</time></trkpt><trkpt lat="43.7962552" lon="12.6186895"><ele>108.0</ele><time>2026-03-22T10:48:02.971Z</time></trkpt><trkpt lat="43.7961231" lon="12.6186973"><ele>108.0</ele><time>2026-03-22T10:48:03.97Z</time></trkpt><trkpt lat="43.7959894" lon="12.6187071"><ele>108.0</ele><time>2026-03-22T10:48:04.97Z</time></trkpt><trkpt lat="43.7958609" lon="12.6187159"><ele>108.0</ele><time>2026-03-22T10:48:05.97Z</time></trkpt><trkpt lat="43.7957404" lon="12.6187247"><ele>107.83333333333333</ele><time>2026-03-22T10:48:06.971Z</time></trkpt><trkpt lat="43.795638" lon="12.6187325"><ele>107.66666666666666</ele><time>2026-03-22T10:48:07.97Z</time></trkpt><trkpt lat="43.7955427" lon="12.6187386"><ele>107.5</ele><time>2026-03-22T10:48:08.971Z</time></trkpt><trkpt lat="43.7954518" lon="12.6187451"><ele>107.33333333333333</ele><time>2026-03-22T10:48:09.97Z</time></trkpt><trkpt lat="43.7953683" lon="12.6187492"><ele>107.16666666666666</ele><time>2026-03-22T10:48:10.971Z</time></trkpt><trkpt lat="43.7952935" lon="12.6187515"><ele>107.0</ele><time>2026-03-22T10:48:11.97Z</time></trkpt><trkpt lat="43.795221" lon="12.6187586"><ele>106.83333333333333</ele><time>2026-03-22T10:48:12.971Z</time></trkpt><trkpt lat="43.7951435" lon="12.6187602"><ele>106.66666666666666</ele><time>2026-03-22T10:48:13.971Z</time></trkpt><trkpt lat="43.7950648" lon="12.618765"><ele>106.5</ele><time>2026-03-22T10:48:14.97Z</time></trkpt><trkpt lat="43.7949829" lon="12.6187686"><ele>106.33333333333334</ele><time>2026-03-22T10:48:15.97Z</time></trkpt><trkpt lat="43.7948963" lon="12.6187735"><ele>106.16666666666667</ele><time>2026-03-22T10:48:16.969Z</time></trkpt><trkpt lat="43.7948166" lon="12.618777"><ele>106.0</ele><time>2026-03-22T10:48:17.969Z</time></trkpt><trkpt lat="43.7947376" lon="12.6187829"><ele>106.00000000000001</ele><time>2026-03-22T10:48:18.969Z</time></trkpt><trkpt lat="43.794656" lon="12.6187888"><ele>106.0</ele><time>2026-03-22T10:48:19.97Z</time></trkpt><trkpt lat="43.794576" lon="12.6187942"><ele>106.0</ele><time>2026-03-22T10:48:20.971Z</time></trkpt><trkpt lat="43.7944947" lon="12.6187997"><ele>106.0</ele><time>2026-03-22T10:48:21.969Z</time></trkpt><trkpt lat="43.7944144" lon="12.6188057"><ele>106.00000000000001</ele><time>2026-03-22T10:48:22.969Z</time></trkpt><trkpt lat="43.7943337" lon="12.6188104"><ele>106.0</ele><time>2026-03-22T10:48:23.971Z</time></trkpt><trkpt lat="43.7942524" lon="12.6188146"><ele>105.85714285714286</ele><time>2026-03-22T10:48:24.97Z</time></trkpt><trkpt lat="43.794174" lon="12.6188163"><ele>105.71428571428571</ele><time>2026-03-22T10:48:25.971Z</time></trkpt><trkpt lat="43.794101" lon="12.6188197"><ele>105.57142857142857</ele><time>2026-03-22T10:48:26.97Z</time></trkpt><trkpt lat="43.7940287" lon="12.6188216"><ele>105.42857142857143</ele><time>2026-03-22T10:48:27.97Z</time></trkpt><trkpt lat="43.7939549" lon="12.6188237"><ele>105.28571428571428</ele><time>2026-03-22T10:48:28.97Z</time></trkpt><trkpt lat="43.793883" lon="12.6188257"><ele>105.14285714285714</ele><time>2026-03-22T10:48:29.969Z</time></trkpt><trkpt lat="43.7938106" lon="12.6188248"><ele>105.0</ele><time>2026-03-22T10:48:30.971Z</time></trkpt><trkpt lat="43.7937026" lon="12.6188249"><ele>105.0</ele><time>2026-03-22T10:48:32.971Z</time></trkpt><trkpt lat="43.793625" lon="12.6188007"><ele>105.0</ele><time>2026-03-22T10:48:35.97Z</time></trkpt><trkpt lat="43.7935629" lon="12.6187636"><ele>105.0</ele><time>2026-03-22T10:48:39.97Z</time></trkpt><trkpt lat="43.7934823" lon="12.618738"><ele>105.0</ele><time>2026-03-22T10:49:32.971Z</time></trkpt><trkpt lat="43.7934197" lon="12.6186992"><ele>105.0</ele><time>2026-03-22T10:49:33.97Z</time></trkpt><trkpt lat="43.7933437" lon="12.6186551"><ele>105.0</ele><time>2026-03-22T10:49:34.97Z</time></trkpt><trkpt lat="43.7932626" lon="12.6186291"><ele>105.85714285714286</ele><time>2026-03-22T10:49:35.97Z</time></trkpt><trkpt lat="43.7931885" lon="12.6186169"><ele>106.71428571428572</ele><time>2026-03-22T10:49:36.971Z</time></trkpt><trkpt lat="43.7931172" lon="12.6186143"><ele>107.57142857142857</ele><time>2026-03-22T10:49:37.97Z</time></trkpt><trkpt lat="43.7930476" lon="12.6186386"><ele>108.42857142857143</ele><time>2026-03-22T10:49:38.971Z</time></trkpt><trkpt lat="43.792981" lon="12.6186761"><ele>109.28571428571429</ele><time>2026-03-22T10:49:39.97Z</time></trkpt><trkpt lat="43.7929102" lon="12.6187285"><ele>110.14285714285714</ele><time>2026-03-22T10:49:40.97Z</time></trkpt><trkpt lat="43.7928415" lon="12.618782"><ele>111.0</ele><time>2026-03-22T10:49:41.971Z</time></trkpt><trkpt lat="43.7927725" lon="12.6188356"><ele>111.0</ele><time>2026-03-22T10:49:42.971Z</time></trkpt><trkpt lat="43.7927077" lon="12.6188852"><ele>111.0</ele><time>2026-03-22T10:49:43.97Z</time></trkpt><trkpt lat="43.7926458" lon="12.6189209"><ele>111.0</ele><time>2026-03-22T10:49:44.97Z</time></trkpt><trkpt lat="43.7925831" lon="12.6189428"><ele>111.0</ele><time>2026-03-22T10:49:45.971Z</time></trkpt><trkpt lat="43.7924909" lon="12.6188653"><ele>111.0</ele><time>2026-03-22T10:49:47.971Z</time></trkpt><trkpt lat="43.7925253" lon="12.6187008"><ele>111.0</ele><time>2026-03-22T10:49:49.971Z</time></trkpt><trkpt lat="43.7925984" lon="12.6186166"><ele>112.19999999999999</ele><time>2026-03-22T10:49:50.97Z</time></trkpt><trkpt lat="43.7926772" lon="12.61854"><ele>113.39999999999999</ele><time>2026-03-22T10:49:51.97Z</time></trkpt><trkpt lat="43.7927431" lon="12.6184605"><ele>114.6</ele><time>2026-03-22T10:49:52.97Z</time></trkpt><trkpt lat="43.7927895" lon="12.6183588"><ele>115.8</ele><time>2026-03-22T10:49:53.971Z</time></trkpt><trkpt lat="43.7928029" lon="12.6182369"><ele>117.0</ele><time>2026-03-22T10:49:54.969Z</time></trkpt><trkpt lat="43.7927909" lon="12.6181092"><ele>117.0</ele><time>2026-03-22T10:49:55.97Z</time></trkpt><trkpt lat="43.7927615" lon="12.6179868"><ele>117.0</ele><time>2026-03-22T10:49:56.97Z</time></trkpt><trkpt lat="43.7927274" lon="12.617879"><ele>117.0</ele><time>2026-03-22T10:49:57.97Z</time></trkpt><trkpt lat="43.792697" lon="12.6177912"><ele>117.0</ele><time>2026-03-22T10:49:58.971Z</time></trkpt><trkpt lat="43.7926701" lon="12.6177122"><ele>117.0</ele><time>2026-03-22T10:49:59.971Z</time></trkpt><trkpt lat="43.792638" lon="12.6176279"><ele>117.0</ele><time>2026-03-22T10:50:00.971Z</time></trkpt><trkpt lat="43.7926018" lon="12.6175151"><ele>118.6</ele><time>2026-03-22T10:50:01.971Z</time></trkpt><trkpt lat="43.7925652" lon="12.6173865"><ele>120.19999999999999</ele><time>2026-03-22T10:50:02.971Z</time></trkpt><trkpt lat="43.7925272" lon="12.6172546"><ele>121.8</ele><time>2026-03-22T10:50:03.97Z</time></trkpt><trkpt lat="43.7925122" lon="12.6171113"><ele>123.4</ele><time>2026-03-22T10:50:04.97Z</time></trkpt><trkpt lat="43.7925129" lon="12.6169581"><ele>125.0</ele><time>2026-03-22T10:50:05.97Z</time></trkpt><trkpt lat="43.792528" lon="12.6167959"><ele>125.0</ele><time>2026-03-22T10:50:06.97Z</time></trkpt><trkpt lat="43.7925578" lon="12.6166289"><ele>125.0</ele><time>2026-03-22T10:50:07.969Z</time></trkpt><trkpt lat="43.792609" lon="12.6164699"><ele>125.0</ele><time>2026-03-22T10:50:08.97Z</time></trkpt><trkpt lat="43.7926751" lon="12.6163346"><ele>125.0</ele><time>2026-03-22T10:50:09.971Z</time></trkpt><trkpt lat="43.7927579" lon="12.6162248"><ele>126.0</ele><time>2026-03-22T10:50:10.97Z</time></trkpt><trkpt lat="43.7928574" lon="12.6161321"><ele>127.0</ele><time>2026-03-22T10:50:11.971Z</time></trkpt><trkpt lat="43.7929639" lon="12.6160535"><ele>128.0</ele><time>2026-03-22T10:50:12.971Z</time></trkpt><trkpt lat="43.793075" lon="12.6159804"><ele>129.0</ele><time>2026-03-22T10:50:13.97Z</time></trkpt><trkpt lat="43.7931874" lon="12.6158934"><ele>129.0</ele><time>2026-03-22T10:50:14.971Z</time></trkpt><trkpt lat="43.793294" lon="12.6157862"><ele>129.0</ele><time>2026-03-22T10:50:15.97Z</time></trkpt><trkpt lat="43.7933912" lon="12.6156617"><ele>129.0</ele><time>2026-03-22T10:50:16.97Z</time></trkpt><trkpt lat="43.7934797" lon="12.6155241"><ele>129.0</ele><time>2026-03-22T10:50:17.97Z</time></trkpt><trkpt lat="43.7935637" lon="12.6153769"><ele>126.5</ele><time>2026-03-22T10:50:18.971Z</time></trkpt><trkpt lat="43.7936438" lon="12.6152252"><ele>124.0</ele><time>2026-03-22T10:50:19.97Z</time></trkpt><trkpt lat="43.7937118" lon="12.6150772"><ele>121.5</ele><time>2026-03-22T10:50:20.969Z</time></trkpt><trkpt lat="43.7937682" lon="12.6149218"><ele>119.0</ele><time>2026-03-22T10:50:21.97Z</time></trkpt><trkpt lat="43.7938152" lon="12.6147638"><ele>119.0</ele><time>2026-03-22T10:50:22.969Z</time></trkpt><trkpt lat="43.793856" lon="12.6146175"><ele>119.0</ele><time>2026-03-22T10:50:23.97Z</time></trkpt><trkpt lat="43.7938932" lon="12.614479"><ele>119.0</ele><time>2026-03-22T10:50:24.971Z</time></trkpt><trkpt lat="43.7939279" lon="12.6143464"><ele>119.0</ele><time>2026-03-22T10:50:25.97Z</time></trkpt><trkpt lat="43.793961" lon="12.6142194"><ele>119.0</ele><time>2026-03-22T10:50:26.971Z</time></trkpt><trkpt lat="43.793995" lon="12.614087"><ele>120.0</ele><time>2026-03-22T10:50:27.97Z</time></trkpt><trkpt lat="43.7940299" lon="12.6139484"><ele>121.0</ele><time>2026-03-22T10:50:28.971Z</time></trkpt><trkpt lat="43.7940656" lon="12.6138066"><ele>122.0</ele><time>2026-03-22T10:50:29.97Z</time></trkpt><trkpt lat="43.7941036" lon="12.6136604"><ele>123.0</ele><time>2026-03-22T10:50:30.97Z</time></trkpt><trkpt lat="43.7941445" lon="12.6135108"><ele>124.0</ele><time>2026-03-22T10:50:31.971Z</time></trkpt><trkpt lat="43.7941845" lon="12.6133577"><ele>125.2</ele><time>2026-03-22T10:50:32.97Z</time></trkpt><trkpt lat="43.794223" lon="12.6132031"><ele>126.4</ele><time>2026-03-22T10:50:33.971Z</time></trkpt><trkpt lat="43.7942629" lon="12.6130446"><ele>127.6</ele><time>2026-03-22T10:50:34.971Z</time></trkpt><trkpt lat="43.7943018" lon="12.6128976"><ele>128.8</ele><time>2026-03-22T10:50:35.971Z</time></trkpt><trkpt lat="43.7943321" lon="12.6127725"><ele>130.0</ele><time>2026-03-22T10:50:36.97Z</time></trkpt><trkpt lat="43.7943601" lon="12.6126572"><ele>130.0</ele><time>2026-03-22T10:50:37.971Z</time></trkpt><trkpt lat="43.7943953" lon="12.6125374"><ele>130.0</ele><time>2026-03-22T10:50:38.971Z</time></trkpt><trkpt lat="43.7944401" lon="12.6124173"><ele>130.0</ele><time>2026-03-22T10:50:39.971Z</time></trkpt><trkpt lat="43.7944946" lon="12.6122931"><ele>130.0</ele><time>2026-03-22T10:50:40.97Z</time></trkpt><trkpt lat="43.7945537" lon="12.6121747"><ele>130.0</ele><time>2026-03-22T10:50:41.97Z</time></trkpt><trkpt lat="43.7946187" lon="12.6120591"><ele>130.4</ele><time>2026-03-22T10:50:42.971Z</time></trkpt><trkpt lat="43.7946824" lon="12.611941"><ele>130.8</ele><time>2026-03-22T10:50:43.971Z</time></trkpt><trkpt lat="43.7947511" lon="12.6118189"><ele>131.2</ele><time>2026-03-22T10:50:44.971Z</time></trkpt><trkpt lat="43.7948224" lon="12.6116954"><ele>131.6</ele><time>2026-03-22T10:50:45.97Z</time></trkpt><trkpt lat="43.7948947" lon="12.6115714"><ele>132.0</ele><time>2026-03-22T10:50:46.971Z</time></trkpt><trkpt lat="43.7949713" lon="12.6114528"><ele>132.0</ele><time>2026-03-22T10:50:47.971Z</time></trkpt><trkpt lat="43.7950525" lon="12.6113331"><ele>132.0</ele><time>2026-03-22T10:50:48.971Z</time></trkpt><trkpt lat="43.7951365" lon="12.6112156"><ele>132.0</ele><time>2026-03-22T10:50:49.97Z</time></trkpt><trkpt lat="43.7952245" lon="12.6111051"><ele>132.0</ele><time>2026-03-22T10:50:50.971Z</time></trkpt><trkpt lat="43.795319" lon="12.6110013"><ele>130.5</ele><time>2026-03-22T10:50:51.971Z</time></trkpt><trkpt lat="43.7954151" lon="12.6109054"><ele>129.0</ele><time>2026-03-22T10:50:52.97Z</time></trkpt><trkpt lat="43.7955138" lon="12.6108111"><ele>127.5</ele><time>2026-03-22T10:50:53.97Z</time></trkpt><trkpt lat="43.7956062" lon="12.6107235"><ele>126.0</ele><time>2026-03-22T10:50:54.97Z</time></trkpt><trkpt lat="43.7957006" lon="12.6106368"><ele>126.0</ele><time>2026-03-22T10:50:55.971Z</time></trkpt><trkpt lat="43.795795" lon="12.6105486"><ele>126.0</ele><time>2026-03-22T10:50:56.97Z</time></trkpt><trkpt lat="43.7958857" lon="12.6104572"><ele>126.0</ele><time>2026-03-22T10:50:57.97Z</time></trkpt><trkpt lat="43.7959633" lon="12.6103635"><ele>126.0</ele><time>2026-03-22T10:50:58.971Z</time></trkpt><trkpt lat="43.7960365" lon="12.6102717"><ele>126.0</ele><time>2026-03-22T10:50:59.97Z</time></trkpt><trkpt lat="43.7961047" lon="12.6101863"><ele>126.66666666666667</ele><time>2026-03-22T10:51:00.97Z</time></trkpt><trkpt lat="43.7961671" lon="12.6101069"><ele>127.33333333333334</ele><time>2026-03-22T10:51:01.97Z</time></trkpt><trkpt lat="43.7962289" lon="12.610038"><ele>128.0</ele><time>2026-03-22T10:51:02.97Z</time></trkpt><trkpt lat="43.7962956" lon="12.6099922"><ele>128.66666666666669</ele><time>2026-03-22T10:51:03.97Z</time></trkpt><trkpt lat="43.7963761" lon="12.6099643"><ele>129.33333333333334</ele><time>2026-03-22T10:51:04.971Z</time></trkpt><trkpt lat="43.7964683" lon="12.6099595"><ele>130.0</ele><time>2026-03-22T10:51:05.971Z</time></trkpt><trkpt lat="43.7965634" lon="12.6099632"><ele>130.0</ele><time>2026-03-22T10:51:06.97Z</time></trkpt><trkpt lat="43.7966496" lon="12.6099759"><ele>130.0</ele><time>2026-03-22T10:51:07.97Z</time></trkpt><trkpt lat="43.7967254" lon="12.6099869"><ele>130.0</ele><time>2026-03-22T10:51:08.971Z</time></trkpt><trkpt lat="43.7968052" lon="12.6099715"><ele>130.0</ele><time>2026-03-22T10:51:09.97Z</time></trkpt><trkpt lat="43.7968831" lon="12.6099269"><ele>130.0</ele><time>2026-03-22T10:51:10.971Z</time></trkpt><trkpt lat="43.7969653" lon="12.6098751"><ele>130.0</ele><time>2026-03-22T10:51:11.97Z</time></trkpt><trkpt lat="43.7970594" lon="12.6098574"><ele>129.2</ele><time>2026-03-22T10:51:12.971Z</time></trkpt><trkpt lat="43.7971458" lon="12.6098151"><ele>128.4</ele><time>2026-03-22T10:51:13.971Z</time></trkpt><trkpt lat="43.7972275" lon="12.6097527"><ele>127.6</ele><time>2026-03-22T10:51:14.971Z</time></trkpt><trkpt lat="43.7973093" lon="12.6096785"><ele>126.8</ele><time>2026-03-22T10:51:15.971Z</time></trkpt><trkpt lat="43.7973894" lon="12.6095884"><ele>126.0</ele><time>2026-03-22T10:51:16.969Z</time></trkpt><trkpt lat="43.7974657" lon="12.6094822"><ele>128.25</ele><time>2026-03-22T10:51:17.969Z</time></trkpt><trkpt lat="43.7975313" lon="12.6093608"><ele>130.5</ele><time>2026-03-22T10:51:18.971Z</time></trkpt><trkpt lat="43.797589" lon="12.6092243"><ele>132.75</ele><time>2026-03-22T10:51:19.97Z</time></trkpt><trkpt lat="43.7976403" lon="12.6090779"><ele>135.0</ele><time>2026-03-22T10:51:20.97Z</time></trkpt><trkpt lat="43.797682" lon="12.6089278"><ele>136.5</ele><time>2026-03-22T10:51:21.97Z</time></trkpt><trkpt lat="43.7977262" lon="12.608776"><ele>138.0</ele><time>2026-03-22T10:51:22.969Z</time></trkpt><trkpt lat="43.7977734" lon="12.6086269"><ele>139.5</ele><time>2026-03-22T10:51:23.97Z</time></trkpt><trkpt lat="43.7978206" lon="12.6084734"><ele>141.0</ele><time>2026-03-22T10:51:24.97Z</time></trkpt><trkpt lat="43.7978667" lon="12.6083324"><ele>142.8</ele><time>2026-03-22T10:51:25.971Z</time></trkpt><trkpt lat="43.797915" lon="12.6082096"><ele>144.6</ele><time>2026-03-22T10:51:26.97Z</time></trkpt><trkpt lat="43.7979709" lon="12.6080896"><ele>146.4</ele><time>2026-03-22T10:51:27.971Z</time></trkpt><trkpt lat="43.798038" lon="12.6079656"><ele>148.2</ele><time>2026-03-22T10:51:28.97Z</time></trkpt><trkpt lat="43.7981167" lon="12.6078395"><ele>150.0</ele><time>2026-03-22T10:51:29.97Z</time></trkpt><trkpt lat="43.7982044" lon="12.6077132"><ele>150.5</ele><time>2026-03-22T10:51:30.97Z</time></trkpt><trkpt lat="43.7983028" lon="12.607586"><ele>151.0</ele><time>2026-03-22T10:51:31.97Z</time></trkpt><trkpt lat="43.7984205" lon="12.6074579"><ele>151.5</ele><time>2026-03-22T10:51:32.971Z</time></trkpt><trkpt lat="43.7985561" lon="12.6073377"><ele>152.0</ele><time>2026-03-22T10:51:33.969Z</time></trkpt><trkpt lat="43.7987072" lon="12.6072186"><ele>153.0</ele><time>2026-03-22T10:51:34.97Z</time></trkpt><trkpt lat="43.7988563" lon="12.6070988"><ele>154.0</ele><time>2026-03-22T10:51:35.97Z</time></trkpt><trkpt lat="43.79898" lon="12.6069836"><ele>155.0</ele><time>2026-03-22T10:51:36.97Z</time></trkpt><trkpt lat="43.799084" lon="12.6068434"><ele>157.0</ele><time>2026-03-22T10:51:37.971Z</time></trkpt><trkpt lat="43.7991653" lon="12.6066748"><ele>159.0</ele><time>2026-03-22T10:51:38.971Z</time></trkpt><trkpt lat="43.7992334" lon="12.6064733"><ele>161.0</ele><time>2026-03-22T10:51:39.97Z</time></trkpt><trkpt lat="43.7993025" lon="12.6062395"><ele>158.66666666666666</ele><time>2026-03-22T10:51:40.971Z</time></trkpt><trkpt lat="43.7993789" lon="12.6060159"><ele>156.33333333333334</ele><time>2026-03-22T10:51:41.971Z</time></trkpt><trkpt lat="43.7994525" lon="12.6057908"><ele>154.0</ele><time>2026-03-22T10:51:42.971Z</time></trkpt><trkpt lat="43.799522" lon="12.6055857"><ele>154.0</ele><time>2026-03-22T10:51:43.971Z</time></trkpt><trkpt lat="43.7995873" lon="12.6054012"><ele>154.0</ele><time>2026-03-22T10:51:44.971Z</time></trkpt><trkpt lat="43.799661" lon="12.6052434"><ele>154.0</ele><time>2026-03-22T10:51:45.97Z</time></trkpt><trkpt lat="43.799764" lon="12.6050911"><ele>154.0</ele><time>2026-03-22T10:51:46.971Z</time></trkpt><trkpt lat="43.7998954" lon="12.604917"><ele>155.0</ele><time>2026-03-22T10:51:47.971Z</time></trkpt><trkpt lat="43.8000436" lon="12.60473"><ele>156.0</ele><time>2026-03-22T10:51:48.971Z</time></trkpt><trkpt lat="43.800189" lon="12.6045678"><ele>157.0</ele><time>2026-03-22T10:51:49.97Z</time></trkpt><trkpt lat="43.8003325" lon="12.6043902"><ele>157.0</ele><time>2026-03-22T10:51:50.971Z</time></trkpt><trkpt lat="43.8004728" lon="12.6041966"><ele>157.0</ele><time>2026-03-22T10:51:51.971Z</time></trkpt><trkpt lat="43.8006116" lon="12.6039884"><ele>157.0</ele><time>2026-03-22T10:51:52.971Z</time></trkpt><trkpt lat="43.8007348" lon="12.6038044"><ele>158.66666666666669</ele><time>2026-03-22T10:51:53.97Z</time></trkpt><trkpt lat="43.8008534" lon="12.6036223"><ele>160.33333333333334</ele><time>2026-03-22T10:51:54.97Z</time></trkpt><trkpt lat="43.8009546" lon="12.6034519"><ele>162.0</ele><time>2026-03-22T10:51:55.969Z</time></trkpt><trkpt lat="43.8010357" lon="12.603298"><ele>162.0</ele><time>2026-03-22T10:51:56.97Z</time></trkpt><trkpt lat="43.8011028" lon="12.6031411"><ele>162.0</ele><time>2026-03-22T10:51:57.97Z</time></trkpt><trkpt lat="43.8011509" lon="12.6029711"><ele>162.0</ele><time>2026-03-22T10:51:58.97Z</time></trkpt><trkpt lat="43.8011722" lon="12.6027997"><ele>162.0</ele><time>2026-03-22T10:51:59.971Z</time></trkpt><trkpt lat="43.8011643" lon="12.6026159"><ele>166.0</ele><time>2026-03-22T10:52:00.97Z</time></trkpt><trkpt lat="43.8011307" lon="12.6024286"><ele>170.0</ele><time>2026-03-22T10:52:01.971Z</time></trkpt><trkpt lat="43.8010895" lon="12.6022528"><ele>174.0</ele><time>2026-03-22T10:52:02.97Z</time></trkpt><trkpt lat="43.801059" lon="12.6021062"><ele>178.0</ele><time>2026-03-22T10:52:03.971Z</time></trkpt><trkpt lat="43.8010426" lon="12.6019795"><ele>180.8</ele><time>2026-03-22T10:52:04.97Z</time></trkpt><trkpt lat="43.8010493" lon="12.6018542"><ele>183.60000000000002</ele><time>2026-03-22T10:52:05.97Z</time></trkpt><trkpt lat="43.8010858" lon="12.6017393"><ele>186.39999999999998</ele><time>2026-03-22T10:52:06.97Z</time></trkpt><trkpt lat="43.8011511" lon="12.6016483"><ele>189.2</ele><time>2026-03-22T10:52:07.97Z</time></trkpt><trkpt lat="43.8012416" lon="12.6015624"><ele>192.0</ele><time>2026-03-22T10:52:08.971Z</time></trkpt><trkpt lat="43.8013329" lon="12.6014741"><ele>192.0</ele><time>2026-03-22T10:52:09.971Z</time></trkpt><trkpt lat="43.8014025" lon="12.6013826"><ele>192.0</ele><time>2026-03-22T10:52:10.97Z</time></trkpt><trkpt lat="43.8014619" lon="12.6012604"><ele>192.0</ele><time>2026-03-22T10:52:11.97Z</time></trkpt><trkpt lat="43.8015049" lon="12.6011103"><ele>192.0</ele><time>2026-03-22T10:52:12.97Z</time></trkpt><trkpt lat="43.8015568" lon="12.6009425"><ele>192.39999999999998</ele><time>2026-03-22T10:52:13.97Z</time></trkpt><trkpt lat="43.8016223" lon="12.6008237"><ele>192.79999999999998</ele><time>2026-03-22T10:52:14.97Z</time></trkpt><trkpt lat="43.8017067" lon="12.6007321"><ele>193.2</ele><time>2026-03-22T10:52:15.971Z</time></trkpt><trkpt lat="43.8018115" lon="12.6006601"><ele>193.6</ele><time>2026-03-22T10:52:16.971Z</time></trkpt><trkpt lat="43.8019129" lon="12.6006141"><ele>194.0</ele><time>2026-03-22T10:52:17.97Z</time></trkpt><trkpt lat="43.8020182" lon="12.6005755"><ele>198.25</ele><time>2026-03-22T10:52:18.971Z</time></trkpt><trkpt lat="43.80213" lon="12.6005337"><ele>202.5</ele><time>2026-03-22T10:52:19.969Z</time></trkpt><trkpt lat="43.8022631" lon="12.6004874"><ele>206.75</ele><time>2026-03-22T10:52:20.971Z</time></trkpt><trkpt lat="43.8024245" lon="12.6004294"><ele>211.0</ele><time>2026-03-22T10:52:21.97Z</time></trkpt><trkpt lat="43.8025653" lon="12.6003704"><ele>212.0</ele><time>2026-03-22T10:52:22.97Z</time></trkpt><trkpt lat="43.8027035" lon="12.600294"><ele>213.0</ele><time>2026-03-22T10:52:23.971Z</time></trkpt><trkpt lat="43.8028491" lon="12.6001903"><ele>214.0</ele><time>2026-03-22T10:52:24.971Z</time></trkpt><trkpt lat="43.8029882" lon="12.6000703"><ele>214.0</ele><time>2026-03-22T10:52:25.97Z</time></trkpt><trkpt lat="43.8031056" lon="12.5999597"><ele>214.0</ele><time>2026-03-22T10:52:26.97Z</time></trkpt><trkpt lat="43.8032227" lon="12.599858"><ele>214.0</ele><time>2026-03-22T10:52:27.969Z</time></trkpt><trkpt lat="43.8033539" lon="12.5997579"><ele>214.0</ele><time>2026-03-22T10:52:28.97Z</time></trkpt><trkpt lat="43.8034872" lon="12.5996363"><ele>212.0</ele><time>2026-03-22T10:52:29.969Z</time></trkpt><trkpt lat="43.8036196" lon="12.5994782"><ele>210.0</ele><time>2026-03-22T10:52:30.971Z</time></trkpt><trkpt lat="43.8037551" lon="12.5992797"><ele>208.0</ele><time>2026-03-22T10:52:31.97Z</time></trkpt><trkpt lat="43.8038909" lon="12.5990543"><ele>208.0</ele><time>2026-03-22T10:52:32.971Z</time></trkpt><trkpt lat="43.8040139" lon="12.5988427"><ele>208.0</ele><time>2026-03-22T10:52:33.971Z</time></trkpt><trkpt lat="43.8041223" lon="12.5986434"><ele>208.0</ele><time>2026-03-22T10:52:34.971Z</time></trkpt><trkpt lat="43.804225" lon="12.5984615"><ele>207.33333333333331</ele><time>2026-03-22T10:52:35.97Z</time></trkpt><trkpt lat="43.8043207" lon="12.5982805"><ele>206.66666666666669</ele><time>2026-03-22T10:52:36.97Z</time></trkpt><trkpt lat="43.8044006" lon="12.5980737"><ele>206.0</ele><time>2026-03-22T10:52:37.97Z</time></trkpt><trkpt lat="43.8044609" lon="12.5978488"><ele>200.66666666666669</ele><time>2026-03-22T10:52:38.971Z</time></trkpt><trkpt lat="43.8044959" lon="12.5975909"><ele>195.33333333333334</ele><time>2026-03-22T10:52:39.971Z</time></trkpt><trkpt lat="43.8045195" lon="12.5973117"><ele>190.0</ele><time>2026-03-22T10:52:40.97Z</time></trkpt><trkpt lat="43.804533" lon="12.5970544"><ele>193.66666666666669</ele><time>2026-03-22T10:52:41.97Z</time></trkpt><trkpt lat="43.804533" lon="12.5968059"><ele>197.33333333333334</ele><time>2026-03-22T10:52:42.97Z</time></trkpt><trkpt lat="43.8045161" lon="12.5965781"><ele>201.0</ele><time>2026-03-22T10:52:43.97Z</time></trkpt><trkpt lat="43.8044999" lon="12.5963678"><ele>205.0</ele><time>2026-03-22T10:52:44.971Z</time></trkpt><trkpt lat="43.8044924" lon="12.5961678"><ele>209.0</ele><time>2026-03-22T10:52:45.971Z</time></trkpt><trkpt lat="43.8045011" lon="12.5959866"><ele>213.0</ele><time>2026-03-22T10:52:46.971Z</time></trkpt><trkpt lat="43.8045385" lon="12.5958356"><ele>217.0</ele><time>2026-03-22T10:52:47.971Z</time></trkpt><trkpt lat="43.8045946" lon="12.5957345"><ele>217.0</ele><time>2026-03-22T10:52:48.971Z</time></trkpt><trkpt lat="43.8046635" lon="12.5956777"><ele>217.0</ele><time>2026-03-22T10:52:49.97Z</time></trkpt><trkpt lat="43.8047568" lon="12.5956199"><ele>217.0</ele><time>2026-03-22T10:52:50.971Z</time></trkpt><trkpt lat="43.8048342" lon="12.5955623"><ele>217.0</ele><time>2026-03-22T10:52:51.97Z</time></trkpt><trkpt lat="43.8049059" lon="12.5954829"><ele>217.0</ele><time>2026-03-22T10:52:52.971Z</time></trkpt><trkpt lat="43.8049718" lon="12.5953526"><ele>219.0</ele><time>2026-03-22T10:52:53.97Z</time></trkpt><trkpt lat="43.8050313" lon="12.5951694"><ele>221.0</ele><time>2026-03-22T10:52:54.971Z</time></trkpt><trkpt lat="43.8050762" lon="12.5949508"><ele>223.0</ele><time>2026-03-22T10:52:55.971Z</time></trkpt><trkpt lat="43.8051155" lon="12.5946989"><ele>222.0</ele><time>2026-03-22T10:52:56.97Z</time></trkpt><trkpt lat="43.8051395" lon="12.5944716"><ele>221.0</ele><time>2026-03-22T10:52:57.971Z</time></trkpt><trkpt lat="43.8051636" lon="12.5942528"><ele>220.0</ele><time>2026-03-22T10:52:58.97Z</time></trkpt><trkpt lat="43.8052085" lon="12.5940399"><ele>219.33333333333331</ele><time>2026-03-22T10:52:59.97Z</time></trkpt><trkpt lat="43.8052701" lon="12.5938325"><ele>218.66666666666669</ele><time>2026-03-22T10:53:00.971Z</time></trkpt><trkpt lat="43.8053548" lon="12.5936193"><ele>218.0</ele><time>2026-03-22T10:53:01.971Z</time></trkpt><trkpt lat="43.8054372" lon="12.5934196"><ele>218.0</ele><time>2026-03-22T10:53:02.97Z</time></trkpt><trkpt lat="43.8055132" lon="12.5932019"><ele>218.0</ele><time>2026-03-22T10:53:03.97Z</time></trkpt><trkpt lat="43.8055746" lon="12.5929721"><ele>218.0</ele><time>2026-03-22T10:53:04.971Z</time></trkpt><trkpt lat="43.8056298" lon="12.5927087"><ele>219.33333333333334</ele><time>2026-03-22T10:53:05.971Z</time></trkpt><trkpt lat="43.8056782" lon="12.5924205"><ele>220.66666666666669</ele><time>2026-03-22T10:53:06.971Z</time></trkpt><trkpt lat="43.8057147" lon="12.5921401"><ele>222.0</ele><time>2026-03-22T10:53:07.97Z</time></trkpt><trkpt lat="43.8057523" lon="12.5918122"><ele>222.0</ele><time>2026-03-22T10:53:08.971Z</time></trkpt><trkpt lat="43.8057794" lon="12.5914917"><ele>222.0</ele><time>2026-03-22T10:53:09.971Z</time></trkpt><trkpt lat="43.805795" lon="12.591194"><ele>222.0</ele><time>2026-03-22T10:53:10.97Z</time></trkpt><trkpt lat="43.8058023" lon="12.5909143"><ele>222.0</ele><time>2026-03-22T10:53:11.97Z</time></trkpt><trkpt lat="43.8058064" lon="12.5906311"><ele>222.0</ele><time>2026-03-22T10:53:12.97Z</time></trkpt><trkpt lat="43.8058058" lon="12.5903644"><ele>222.0</ele><time>2026-03-22T10:53:13.971Z</time></trkpt><trkpt lat="43.8058077" lon="12.5900871"><ele>222.33333333333331</ele><time>2026-03-22T10:53:14.971Z</time></trkpt><trkpt lat="43.8058195" lon="12.5897943"><ele>222.66666666666666</ele><time>2026-03-22T10:53:15.971Z</time></trkpt><trkpt lat="43.8058223" lon="12.5895405"><ele>223.0</ele><time>2026-03-22T10:53:16.97Z</time></trkpt><trkpt lat="43.8058085" lon="12.5892997"><ele>224.33333333333331</ele><time>2026-03-22T10:53:17.97Z</time></trkpt><trkpt lat="43.8057703" lon="12.5890359"><ele>225.66666666666669</ele><time>2026-03-22T10:53:18.971Z</time></trkpt><trkpt lat="43.80572" lon="12.5887604"><ele>227.0</ele><time>2026-03-22T10:53:19.971Z</time></trkpt><trkpt lat="43.8056742" lon="12.5884942"><ele>228.66666666666669</ele><time>2026-03-22T10:53:20.97Z</time></trkpt><trkpt lat="43.8056371" lon="12.5882555"><ele>230.33333333333331</ele><time>2026-03-22T10:53:21.971Z</time></trkpt><trkpt lat="43.8056109" lon="12.5880465"><ele>232.0</ele><time>2026-03-22T10:53:22.97Z</time></trkpt><trkpt lat="43.8056007" lon="12.5878621"><ele>234.5</ele><time>2026-03-22T10:53:23.97Z</time></trkpt><trkpt lat="43.805619" lon="12.587691"><ele>237.0</ele><time>2026-03-22T10:53:24.97Z</time></trkpt><trkpt lat="43.8056659" lon="12.5875211"><ele>239.5</ele><time>2026-03-22T10:53:25.971Z</time></trkpt><trkpt lat="43.8057032" lon="12.5873557"><ele>242.0</ele><time>2026-03-22T10:53:26.971Z</time></trkpt><trkpt lat="43.8057449" lon="12.5872031"><ele>242.0</ele><time>2026-03-22T10:53:27.971Z</time></trkpt><trkpt lat="43.8056858" lon="12.5870139"><ele>242.0</ele><time>2026-03-22T10:53:28.97Z</time></trkpt><trkpt lat="43.8056559" lon="12.5868293"><ele>242.0</ele><time>2026-03-22T10:53:29.969Z</time></trkpt><trkpt lat="43.8056368" lon="12.5866499"><ele>242.0</ele><time>2026-03-22T10:53:30.971Z</time></trkpt><trkpt lat="43.8056558" lon="12.5864846"><ele>242.0</ele><time>2026-03-22T10:53:31.971Z</time></trkpt><trkpt lat="43.8057062" lon="12.5862868"><ele>242.0</ele><time>2026-03-22T10:53:32.97Z</time></trkpt><trkpt lat="43.8057772" lon="12.5860556"><ele>242.0</ele><time>2026-03-22T10:53:33.97Z</time></trkpt><trkpt lat="43.8058539" lon="12.5858132"><ele>242.0</ele><time>2026-03-22T10:53:34.97Z</time></trkpt><trkpt lat="43.8059206" lon="12.5856007"><ele>242.0</ele><time>2026-03-22T10:53:35.971Z</time></trkpt><trkpt lat="43.8059918" lon="12.585386"><ele>242.0</ele><time>2026-03-22T10:53:36.971Z</time></trkpt><trkpt lat="43.8060518" lon="12.5851782"><ele>235.33333333333334</ele><time>2026-03-22T10:53:37.97Z</time></trkpt><trkpt lat="43.8060947" lon="12.5849738"><ele>228.66666666666669</ele><time>2026-03-22T10:53:38.97Z</time></trkpt><trkpt lat="43.8061185" lon="12.5847661"><ele>222.0</ele><time>2026-03-22T10:53:39.971Z</time></trkpt><trkpt lat="43.8061239" lon="12.5845594"><ele>221.66666666666669</ele><time>2026-03-22T10:53:40.971Z</time></trkpt><trkpt lat="43.8061123" lon="12.5843447"><ele>221.33333333333334</ele><time>2026-03-22T10:53:41.97Z</time></trkpt><trkpt lat="43.8060922" lon="12.5841033"><ele>221.0</ele><time>2026-03-22T10:53:42.971Z</time></trkpt><trkpt lat="43.8060634" lon="12.5838496"><ele>219.66666666666669</ele><time>2026-03-22T10:53:43.97Z</time></trkpt><trkpt lat="43.8060311" lon="12.5835932"><ele>218.33333333333331</ele><time>2026-03-22T10:53:44.97Z</time></trkpt><trkpt lat="43.8059964" lon="12.5833399"><ele>217.0</ele><time>2026-03-22T10:53:45.97Z</time></trkpt><trkpt lat="43.8059589" lon="12.5830851"><ele>224.0</ele><time>2026-03-22T10:53:46.971Z</time></trkpt><trkpt lat="43.8059295" lon="12.5828518"><ele>231.0</ele><time>2026-03-22T10:53:47.97Z</time></trkpt><trkpt lat="43.80591" lon="12.5826396"><ele>238.0</ele><time>2026-03-22T10:53:48.97Z</time></trkpt><trkpt lat="43.8058823" lon="12.5824443"><ele>238.0</ele><time>2026-03-22T10:53:49.971Z</time></trkpt><trkpt lat="43.8058334" lon="12.5822455"><ele>238.0</ele><time>2026-03-22T10:53:50.971Z</time></trkpt><trkpt lat="43.80576" lon="12.5820073"><ele>238.0</ele><time>2026-03-22T10:53:51.971Z</time></trkpt><trkpt lat="43.8056827" lon="12.5817426"><ele>236.33333333333331</ele><time>2026-03-22T10:53:52.971Z</time></trkpt><trkpt lat="43.8056212" lon="12.5815181"><ele>234.66666666666669</ele><time>2026-03-22T10:53:53.969Z</time></trkpt><trkpt lat="43.8055704" lon="12.5813174"><ele>233.0</ele><time>2026-03-22T10:53:54.97Z</time></trkpt><trkpt lat="43.805522" lon="12.5811212"><ele>231.66666666666669</ele><time>2026-03-22T10:53:55.97Z</time></trkpt><trkpt lat="43.805484" lon="12.5809003"><ele>230.33333333333331</ele><time>2026-03-22T10:53:56.971Z</time></trkpt><trkpt lat="43.8054706" lon="12.5806781"><ele>229.0</ele><time>2026-03-22T10:53:57.971Z</time></trkpt><trkpt lat="43.8054802" lon="12.5804636"><ele>228.79999999999998</ele><time>2026-03-22T10:53:58.971Z</time></trkpt><trkpt lat="43.8055001" lon="12.5802842"><ele>228.59999999999997</ele><time>2026-03-22T10:53:59.97Z</time></trkpt><trkpt lat="43.8055144" lon="12.5801297"><ele>228.4</ele><time>2026-03-22T10:54:00.97Z</time></trkpt><trkpt lat="43.8055143" lon="12.5799842"><ele>228.2</ele><time>2026-03-22T10:54:01.97Z</time></trkpt><trkpt lat="43.8054891" lon="12.5798697"><ele>228.0</ele><time>2026-03-22T10:54:02.971Z</time></trkpt><trkpt lat="43.8054362" lon="12.579744"><ele>228.0</ele><time>2026-03-22T10:54:03.971Z</time></trkpt><trkpt lat="43.8053542" lon="12.5795933"><ele>228.0</ele><time>2026-03-22T10:54:04.97Z</time></trkpt><trkpt lat="43.8052625" lon="12.5794407"><ele>228.0</ele><time>2026-03-22T10:54:05.97Z</time></trkpt><trkpt lat="43.8051919" lon="12.5792818"><ele>228.0</ele><time>2026-03-22T10:54:06.971Z</time></trkpt><trkpt lat="43.805143" lon="12.5790948"><ele>228.66666666666669</ele><time>2026-03-22T10:54:07.971Z</time></trkpt><trkpt lat="43.8051203" lon="12.5788629"><ele>229.33333333333334</ele><time>2026-03-22T10:54:08.971Z</time></trkpt><trkpt lat="43.8051087" lon="12.5785875"><ele>230.0</ele><time>2026-03-22T10:54:09.97Z</time></trkpt><trkpt lat="43.8050906" lon="12.5782752"><ele>230.0</ele><time>2026-03-22T10:54:10.971Z</time></trkpt><trkpt lat="43.805056" lon="12.5779684"><ele>230.0</ele><time>2026-03-22T10:54:11.971Z</time></trkpt><trkpt lat="43.8049959" lon="12.5776346"><ele>229.66666666666669</ele><time>2026-03-22T10:54:12.969Z</time></trkpt><trkpt lat="43.8049279" lon="12.5773267"><ele>229.33333333333331</ele><time>2026-03-22T10:54:13.971Z</time></trkpt><trkpt lat="43.8048593" lon="12.5770421"><ele>229.0</ele><time>2026-03-22T10:54:14.971Z</time></trkpt><trkpt lat="43.8047992" lon="12.5767876"><ele>229.66666666666666</ele><time>2026-03-22T10:54:15.97Z</time></trkpt><trkpt lat="43.8047419" lon="12.5765488"><ele>230.33333333333331</ele><time>2026-03-22T10:54:16.97Z</time></trkpt><trkpt lat="43.804681" lon="12.5762815"><ele>231.0</ele><time>2026-03-22T10:54:17.97Z</time></trkpt><trkpt lat="43.8046193" lon="12.5759951"><ele>233.25</ele><time>2026-03-22T10:54:18.971Z</time></trkpt><trkpt lat="43.8045652" lon="12.5757655"><ele>235.5</ele><time>2026-03-22T10:54:19.971Z</time></trkpt><trkpt lat="43.8045239" lon="12.5756001"><ele>237.75</ele><time>2026-03-22T10:54:20.971Z</time></trkpt><trkpt lat="43.8044953" lon="12.5754511"><ele>240.0</ele><time>2026-03-22T10:54:21.971Z</time></trkpt><trkpt lat="43.8044857" lon="12.575268"><ele>241.33333333333331</ele><time>2026-03-22T10:54:22.97Z</time></trkpt><trkpt lat="43.8044935" lon="12.5750476"><ele>242.66666666666666</ele><time>2026-03-22T10:54:23.971Z</time></trkpt><trkpt lat="43.8045018" lon="12.574821"><ele>244.0</ele><time>2026-03-22T10:54:24.971Z</time></trkpt><trkpt lat="43.8044834" lon="12.5745743"><ele>243.33333333333331</ele><time>2026-03-22T10:54:25.97Z</time></trkpt><trkpt lat="43.8044414" lon="12.5743241"><ele>242.66666666666669</ele><time>2026-03-22T10:54:26.971Z</time></trkpt><trkpt lat="43.8044003" lon="12.574106"><ele>242.0</ele><time>2026-03-22T10:54:27.971Z</time></trkpt><trkpt lat="43.8043664" lon="12.5739068"><ele>242.0</ele><time>2026-03-22T10:54:28.97Z</time></trkpt><trkpt lat="43.8043411" lon="12.5737124"><ele>242.0</ele><time>2026-03-22T10:54:29.97Z</time></trkpt><trkpt lat="43.8043221" lon="12.5735217"><ele>242.0</ele><time>2026-03-22T10:54:30.971Z</time></trkpt><trkpt lat="43.8043019" lon="12.5733383"><ele>242.0</ele><time>2026-03-22T10:54:31.971Z</time></trkpt><trkpt lat="43.804288" lon="12.5731689"><ele>242.2</ele><time>2026-03-22T10:54:32.97Z</time></trkpt><trkpt lat="43.8042846" lon="12.5730167"><ele>242.39999999999998</ele><time>2026-03-22T10:54:33.971Z</time></trkpt><trkpt lat="43.8042844" lon="12.572874"><ele>242.60000000000002</ele><time>2026-03-22T10:54:34.97Z</time></trkpt><trkpt lat="43.804279" lon="12.5727365"><ele>242.8</ele><time>2026-03-22T10:54:35.97Z</time></trkpt><trkpt lat="43.8042573" lon="12.5725954"><ele>243.0</ele><time>2026-03-22T10:54:36.97Z</time></trkpt><trkpt lat="43.8042126" lon="12.5724394"><ele>243.25</ele><time>2026-03-22T10:54:37.971Z</time></trkpt><trkpt lat="43.8041546" lon="12.5722835"><ele>243.5</ele><time>2026-03-22T10:54:38.971Z</time></trkpt><trkpt lat="43.8041006" lon="12.5721543"><ele>243.75</ele><time>2026-03-22T10:54:39.971Z</time></trkpt><trkpt lat="43.8040498" lon="12.5720257"><ele>244.0</ele><time>2026-03-22T10:54:40.971Z</time></trkpt><trkpt lat="43.8039968" lon="12.571889"><ele>245.0</ele><time>2026-03-22T10:54:41.97Z</time></trkpt><trkpt lat="43.8039349" lon="12.5717293"><ele>246.0</ele><time>2026-03-22T10:54:42.97Z</time></trkpt><trkpt lat="43.8038719" lon="12.5715483"><ele>247.0</ele><time>2026-03-22T10:54:43.971Z</time></trkpt><trkpt lat="43.8038239" lon="12.5713725"><ele>248.0</ele><time>2026-03-22T10:54:44.97Z</time></trkpt><trkpt lat="43.8037949" lon="12.5712024"><ele>248.2</ele><time>2026-03-22T10:54:45.971Z</time></trkpt><trkpt lat="43.8037931" lon="12.5710289"><ele>248.4</ele><time>2026-03-22T10:54:46.971Z</time></trkpt><trkpt lat="43.803832" lon="12.5708662"><ele>248.59999999999997</ele><time>2026-03-22T10:54:47.971Z</time></trkpt><trkpt lat="43.8038556" lon="12.5707283"><ele>248.79999999999998</ele><time>2026-03-22T10:54:48.971Z</time></trkpt><trkpt lat="43.803849" lon="12.5706087"><ele>249.0</ele><time>2026-03-22T10:54:49.969Z</time></trkpt><trkpt lat="43.8038063" lon="12.5704926"><ele>249.0</ele><time>2026-03-22T10:54:50.97Z</time></trkpt><trkpt lat="43.8037327" lon="12.5703895"><ele>249.0</ele><time>2026-03-22T10:54:51.971Z</time></trkpt><trkpt lat="43.8036389" lon="12.5702889"><ele>249.0</ele><time>2026-03-22T10:54:52.97Z</time></trkpt><trkpt lat="43.803542" lon="12.5701937"><ele>249.0</ele><time>2026-03-22T10:54:53.97Z</time></trkpt><trkpt lat="43.8034463" lon="12.5700919"><ele>253.0</ele><time>2026-03-22T10:54:54.97Z</time></trkpt><trkpt lat="43.8033539" lon="12.5699861"><ele>257.0</ele><time>2026-03-22T10:54:55.971Z</time></trkpt><trkpt lat="43.8032564" lon="12.5698693"><ele>261.0</ele><time>2026-03-22T10:54:56.971Z</time></trkpt><trkpt lat="43.8031558" lon="12.5697509"><ele>265.0</ele><time>2026-03-22T10:54:57.97Z</time></trkpt><trkpt lat="43.8030549" lon="12.5696346"><ele>266.75</ele><time>2026-03-22T10:54:58.971Z</time></trkpt><trkpt lat="43.8029539" lon="12.5695207"><ele>268.5</ele><time>2026-03-22T10:54:59.971Z</time></trkpt><trkpt lat="43.8028539" lon="12.5694141"><ele>270.25</ele><time>2026-03-22T10:55:00.971Z</time></trkpt><trkpt lat="43.8027593" lon="12.5693156"><ele>272.0</ele><time>2026-03-22T10:55:01.971Z</time></trkpt><trkpt lat="43.8026765" lon="12.5692068"><ele>272.25</ele><time>2026-03-22T10:55:02.971Z</time></trkpt><trkpt lat="43.8026029" lon="12.5690781"><ele>272.5</ele><time>2026-03-22T10:55:03.971Z</time></trkpt><trkpt lat="43.8025271" lon="12.5689221"><ele>272.75</ele><time>2026-03-22T10:55:04.969Z</time></trkpt><trkpt lat="43.8024572" lon="12.568757"><ele>273.0</ele><time>2026-03-22T10:55:05.971Z</time></trkpt><trkpt lat="43.8023927" lon="12.5686005"><ele>274.25</ele><time>2026-03-22T10:55:06.971Z</time></trkpt><trkpt lat="43.802325" lon="12.5684488"><ele>275.5</ele><time>2026-03-22T10:55:07.971Z</time></trkpt><trkpt lat="43.8022545" lon="12.5683099"><ele>276.75</ele><time>2026-03-22T10:55:08.971Z</time></trkpt><trkpt lat="43.8021788" lon="12.5681716"><ele>278.0</ele><time>2026-03-22T10:55:09.97Z</time></trkpt><trkpt lat="43.8021046" lon="12.5680294"><ele>278.0</ele><time>2026-03-22T10:55:10.971Z</time></trkpt><trkpt lat="43.8020448" lon="12.5678739"><ele>278.0</ele><time>2026-03-22T10:55:11.971Z</time></trkpt><trkpt lat="43.8020026" lon="12.5677176"><ele>278.0</ele><time>2026-03-22T10:55:12.971Z</time></trkpt><trkpt lat="43.8019723" lon="12.5675662"><ele>278.0</ele><time>2026-03-22T10:55:13.971Z</time></trkpt><trkpt lat="43.8019268" lon="12.5674127"><ele>277.25</ele><time>2026-03-22T10:55:14.97Z</time></trkpt><trkpt lat="43.8018541" lon="12.5672781"><ele>276.5</ele><time>2026-03-22T10:55:15.97Z</time></trkpt><trkpt lat="43.8017627" lon="12.5671584"><ele>275.75</ele><time>2026-03-22T10:55:16.971Z</time></trkpt><trkpt lat="43.8016632" lon="12.5670474"><ele>275.0</ele><time>2026-03-22T10:55:17.971Z</time></trkpt><trkpt lat="43.8015673" lon="12.5669172"><ele>277.25</ele><time>2026-03-22T10:55:18.97Z</time></trkpt><trkpt lat="43.8014711" lon="12.5667687"><ele>279.5</ele><time>2026-03-22T10:55:19.97Z</time></trkpt><trkpt lat="43.8013804" lon="12.566615"><ele>281.75</ele><time>2026-03-22T10:55:20.971Z</time></trkpt><trkpt lat="43.8012975" lon="12.5664759"><ele>284.0</ele><time>2026-03-22T10:55:21.971Z</time></trkpt><trkpt lat="43.8012067" lon="12.5663519"><ele>284.0</ele><time>2026-03-22T10:55:22.971Z</time></trkpt><trkpt lat="43.801103" lon="12.5662562"><ele>284.0</ele><time>2026-03-22T10:55:23.971Z</time></trkpt><trkpt lat="43.8009755" lon="12.5661931"><ele>284.0</ele><time>2026-03-22T10:55:24.97Z</time></trkpt><trkpt lat="43.8008248" lon="12.5661631"><ele>284.0</ele><time>2026-03-22T10:55:25.971Z</time></trkpt><trkpt lat="43.8006649" lon="12.5661714"><ele>282.25</ele><time>2026-03-22T10:55:26.969Z</time></trkpt><trkpt lat="43.8005092" lon="12.566214"><ele>280.5</ele><time>2026-03-22T10:55:27.97Z</time></trkpt><trkpt lat="43.8003695" lon="12.5662694"><ele>278.75</ele><time>2026-03-22T10:55:28.971Z</time></trkpt><trkpt lat="43.8002513" lon="12.5663239"><ele>277.0</ele><time>2026-03-22T10:55:29.97Z</time></trkpt><trkpt lat="43.8001488" lon="12.5663662"><ele>277.0</ele><time>2026-03-22T10:55:30.97Z</time></trkpt><trkpt lat="43.8000682" lon="12.5663849"><ele>277.0</ele><time>2026-03-22T10:55:31.971Z</time></trkpt><trkpt lat="43.7999792" lon="12.5663109"><ele>277.0</ele><time>2026-03-22T10:55:33.971Z</time></trkpt><trkpt lat="43.7999679" lon="12.5662197"><ele>277.0</ele><time>2026-03-22T10:55:34.971Z</time></trkpt><trkpt lat="43.7999819" lon="12.5661043"><ele>277.0</ele><time>2026-03-22T10:55:35.971Z</time></trkpt><trkpt lat="43.8000152" lon="12.5659558"><ele>277.0</ele><time>2026-03-22T10:55:36.971Z</time></trkpt><trkpt lat="43.8000396" lon="12.5658028"><ele>279.0</ele><time>2026-03-22T10:55:37.97Z</time></trkpt><trkpt lat="43.8000453" lon="12.5656602"><ele>281.0</ele><time>2026-03-22T10:55:38.971Z</time></trkpt><trkpt lat="43.8000237" lon="12.5655264"><ele>283.0</ele><time>2026-03-22T10:55:39.971Z</time></trkpt><trkpt lat="43.7999707" lon="12.5654106"><ele>285.0</ele><time>2026-03-22T10:55:40.969Z</time></trkpt><trkpt lat="43.7998967" lon="12.5653016"><ele>287.0</ele><time>2026-03-22T10:55:41.97Z</time></trkpt><trkpt lat="43.7998035" lon="12.5652139"><ele>287.0</ele><time>2026-03-22T10:55:42.969Z</time></trkpt><trkpt lat="43.7997031" lon="12.5651423"><ele>287.0</ele><time>2026-03-22T10:55:43.97Z</time></trkpt><trkpt lat="43.7996118" lon="12.565087"><ele>287.0</ele><time>2026-03-22T10:55:44.97Z</time></trkpt><trkpt lat="43.7995163" lon="12.5650525"><ele>287.0</ele><time>2026-03-22T10:55:45.969Z</time></trkpt><trkpt lat="43.7994136" lon="12.565045"><ele>287.0</ele><time>2026-03-22T10:55:46.97Z</time></trkpt><trkpt lat="43.7993113" lon="12.5650611"><ele>289.75</ele><time>2026-03-22T10:55:47.969Z</time></trkpt><trkpt lat="43.7992171" lon="12.5651021"><ele>292.5</ele><time>2026-03-22T10:55:48.97Z</time></trkpt><trkpt lat="43.7991179" lon="12.5651754"><ele>295.25</ele><time>2026-03-22T10:55:49.971Z</time></trkpt><trkpt lat="43.7990232" lon="12.565282"><ele>298.0</ele><time>2026-03-22T10:55:50.971Z</time></trkpt><trkpt lat="43.7989277" lon="12.5654124"><ele>298.0</ele><time>2026-03-22T10:55:51.97Z</time></trkpt><trkpt lat="43.7988407" lon="12.5655331"><ele>298.0</ele><time>2026-03-22T10:55:52.97Z</time></trkpt><trkpt lat="43.7987462" lon="12.5656567"><ele>298.0</ele><time>2026-03-22T10:55:53.97Z</time></trkpt><trkpt lat="43.7986602" lon="12.5657493"><ele>298.0</ele><time>2026-03-22T10:55:54.97Z</time></trkpt><trkpt lat="43.7985736" lon="12.5658117"><ele>300.0</ele><time>2026-03-22T10:55:55.97Z</time></trkpt><trkpt lat="43.7984798" lon="12.5658437"><ele>302.0</ele><time>2026-03-22T10:55:56.971Z</time></trkpt><trkpt lat="43.7983827" lon="12.5658286"><ele>304.0</ele><time>2026-03-22T10:55:57.97Z</time></trkpt><trkpt lat="43.7982676" lon="12.565763"><ele>306.0</ele><time>2026-03-22T10:55:58.971Z</time></trkpt><trkpt lat="43.798153" lon="12.5656616"><ele>306.0</ele><time>2026-03-22T10:55:59.97Z</time></trkpt><trkpt lat="43.7980612" lon="12.5655691"><ele>306.0</ele><time>2026-03-22T10:56:00.971Z</time></trkpt><trkpt lat="43.7979679" lon="12.5654702"><ele>306.0</ele><time>2026-03-22T10:56:01.971Z</time></trkpt><trkpt lat="43.7978774" lon="12.5653509"><ele>306.0</ele><time>2026-03-22T10:56:02.969Z</time></trkpt><trkpt lat="43.7977947" lon="12.5652048"><ele>306.5</ele><time>2026-03-22T10:56:03.969Z</time></trkpt><trkpt lat="43.7977193" lon="12.56504"><ele>307.0</ele><time>2026-03-22T10:56:04.971Z</time></trkpt><trkpt lat="43.7976513" lon="12.5648588"><ele>307.5</ele><time>2026-03-22T10:56:05.969Z</time></trkpt><trkpt lat="43.7975886" lon="12.5646759"><ele>308.0</ele><time>2026-03-22T10:56:06.971Z</time></trkpt><trkpt lat="43.7975329" lon="12.5645084"><ele>308.0</ele><time>2026-03-22T10:56:07.97Z</time></trkpt><trkpt lat="43.7974842" lon="12.5643549"><ele>308.0</ele><time>2026-03-22T10:56:08.969Z</time></trkpt><trkpt lat="43.7974422" lon="12.5642192"><ele>308.0</ele><time>2026-03-22T10:56:09.971Z</time></trkpt><trkpt lat="43.7974098" lon="12.5640847"><ele>308.0</ele><time>2026-03-22T10:56:10.97Z</time></trkpt><trkpt lat="43.7973919" lon="12.5639371"><ele>308.0</ele><time>2026-03-22T10:56:11.971Z</time></trkpt><trkpt lat="43.7973976" lon="12.5638032"><ele>308.0</ele><time>2026-03-22T10:56:12.97Z</time></trkpt><trkpt lat="43.7974297" lon="12.5636695"><ele>308.0</ele><time>2026-03-22T10:56:13.969Z</time></trkpt><trkpt lat="43.7974862" lon="12.5635232"><ele>308.0</ele><time>2026-03-22T10:56:14.969Z</time></trkpt><trkpt lat="43.7975626" lon="12.5633589"><ele>308.0</ele><time>2026-03-22T10:56:15.97Z</time></trkpt><trkpt lat="43.7976424" lon="12.563162"><ele>308.33333333333337</ele><time>2026-03-22T10:56:16.971Z</time></trkpt><trkpt lat="43.7977161" lon="12.5629553"><ele>308.6666666666667</ele><time>2026-03-22T10:56:17.97Z</time></trkpt><trkpt lat="43.7977806" lon="12.562757"><ele>309.0</ele><time>2026-03-22T10:56:18.97Z</time></trkpt><trkpt lat="43.7978419" lon="12.5625687"><ele>307.25</ele><time>2026-03-22T10:56:19.97Z</time></trkpt><trkpt lat="43.7978987" lon="12.5624031"><ele>305.5</ele><time>2026-03-22T10:56:20.97Z</time></trkpt><trkpt lat="43.7979528" lon="12.5622528"><ele>303.75</ele><time>2026-03-22T10:56:21.971Z</time></trkpt><trkpt lat="43.7980082" lon="12.5621098"><ele>302.0</ele><time>2026-03-22T10:56:22.969Z</time></trkpt><trkpt lat="43.798064" lon="12.561971"><ele>301.4</ele><time>2026-03-22T10:56:23.971Z</time></trkpt><trkpt lat="43.7981142" lon="12.5618378"><ele>300.79999999999995</ele><time>2026-03-22T10:56:24.971Z</time></trkpt><trkpt lat="43.7981481" lon="12.5617036"><ele>300.2</ele><time>2026-03-22T10:56:25.97Z</time></trkpt><trkpt lat="43.7981601" lon="12.5615608"><ele>299.59999999999997</ele><time>2026-03-22T10:56:26.969Z</time></trkpt><trkpt lat="43.7981482" lon="12.5614006"><ele>299.0</ele><time>2026-03-22T10:56:27.971Z</time></trkpt><trkpt lat="43.7981084" lon="12.561226"><ele>298.25</ele><time>2026-03-22T10:56:28.971Z</time></trkpt><trkpt lat="43.7980454" lon="12.5610527"><ele>297.5</ele><time>2026-03-22T10:56:29.97Z</time></trkpt><trkpt lat="43.7979652" lon="12.5608779"><ele>296.75</ele><time>2026-03-22T10:56:30.97Z</time></trkpt><trkpt lat="43.7978875" lon="12.5607026"><ele>296.0</ele><time>2026-03-22T10:56:31.971Z</time></trkpt><trkpt lat="43.7978373" lon="12.5605377"><ele>296.75</ele><time>2026-03-22T10:56:32.971Z</time></trkpt><trkpt lat="43.7978098" lon="12.5603608"><ele>297.5</ele><time>2026-03-22T10:56:33.969Z</time></trkpt><trkpt lat="43.7978038" lon="12.5601674"><ele>298.25</ele><time>2026-03-22T10:56:34.97Z</time></trkpt><trkpt lat="43.7978147" lon="12.5599781"><ele>299.0</ele><time>2026-03-22T10:56:35.97Z</time></trkpt><trkpt lat="43.7978283" lon="12.5598081"><ele>299.0</ele><time>2026-03-22T10:56:36.969Z</time></trkpt><trkpt lat="43.7978275" lon="12.5596596"><ele>299.0</ele><time>2026-03-22T10:56:37.97Z</time></trkpt><trkpt lat="43.7978125" lon="12.5595216"><ele>299.0</ele><time>2026-03-22T10:56:38.971Z</time></trkpt><trkpt lat="43.7977798" lon="12.5593878"><ele>299.0</ele><time>2026-03-22T10:56:39.97Z</time></trkpt><trkpt lat="43.7977265" lon="12.5592581"><ele>299.0</ele><time>2026-03-22T10:56:40.97Z</time></trkpt><trkpt lat="43.7976486" lon="12.559125"><ele>304.5</ele><time>2026-03-22T10:56:41.97Z</time></trkpt><trkpt lat="43.797557" lon="12.5589944"><ele>310.0</ele><time>2026-03-22T10:56:42.97Z</time></trkpt><trkpt lat="43.7974844" lon="12.5588635"><ele>315.5</ele><time>2026-03-22T10:56:43.97Z</time></trkpt><trkpt lat="43.79744" lon="12.5587244"><ele>321.0</ele><time>2026-03-22T10:56:44.97Z</time></trkpt><trkpt lat="43.7974198" lon="12.5585694"><ele>321.75</ele><time>2026-03-22T10:56:45.97Z</time></trkpt><trkpt lat="43.7974096" lon="12.5583806"><ele>322.5</ele><time>2026-03-22T10:56:46.97Z</time></trkpt><trkpt lat="43.7974065" lon="12.5581846"><ele>323.25</ele><time>2026-03-22T10:56:47.97Z</time></trkpt><trkpt lat="43.7973995" lon="12.5580038"><ele>324.0</ele><time>2026-03-22T10:56:48.971Z</time></trkpt><trkpt lat="43.7973726" lon="12.5578287"><ele>324.75</ele><time>2026-03-22T10:56:49.97Z</time></trkpt><trkpt lat="43.7973267" lon="12.5576403"><ele>325.5</ele><time>2026-03-22T10:56:50.971Z</time></trkpt><trkpt lat="43.7972673" lon="12.5574463"><ele>326.25</ele><time>2026-03-22T10:56:51.969Z</time></trkpt><trkpt lat="43.7972066" lon="12.5572589"><ele>327.0</ele><time>2026-03-22T10:56:52.97Z</time></trkpt><trkpt lat="43.7971493" lon="12.5570975"><ele>326.75</ele><time>2026-03-22T10:56:53.971Z</time></trkpt><trkpt lat="43.7970857" lon="12.5569538"><ele>326.5</ele><time>2026-03-22T10:56:54.969Z</time></trkpt><trkpt lat="43.7970079" lon="12.5568211"><ele>326.25</ele><time>2026-03-22T10:56:55.971Z</time></trkpt><trkpt lat="43.7969155" lon="12.5567063"><ele>326.0</ele><time>2026-03-22T10:56:56.971Z</time></trkpt><trkpt lat="43.796833" lon="12.5566162"><ele>328.5</ele><time>2026-03-22T10:56:57.971Z</time></trkpt><trkpt lat="43.7967571" lon="12.5565356"><ele>331.0</ele><time>2026-03-22T10:56:58.971Z</time></trkpt><trkpt lat="43.7966912" lon="12.5564647"><ele>333.5</ele><time>2026-03-22T10:56:59.97Z</time></trkpt><trkpt lat="43.7966369" lon="12.5564009"><ele>336.0</ele><time>2026-03-22T10:57:00.971Z</time></trkpt><trkpt lat="43.7965832" lon="12.5563399"><ele>338.5</ele><time>2026-03-22T10:57:01.971Z</time></trkpt><trkpt lat="43.79653" lon="12.5562807"><ele>341.0</ele><time>2026-03-22T10:57:02.971Z</time></trkpt><trkpt lat="43.7964788" lon="12.5562228"><ele>339.6666666666667</ele><time>2026-03-22T10:57:03.971Z</time></trkpt><trkpt lat="43.796428" lon="12.5561639"><ele>338.33333333333337</ele><time>2026-03-22T10:57:04.969Z</time></trkpt><trkpt lat="43.7963771" lon="12.5560976"><ele>337.0</ele><time>2026-03-22T10:57:05.971Z</time></trkpt><trkpt lat="43.7963328" lon="12.5560119"><ele>335.6666666666667</ele><time>2026-03-22T10:57:06.97Z</time></trkpt><trkpt lat="43.7963022" lon="12.5559091"><ele>334.3333333333333</ele><time>2026-03-22T10:57:07.969Z</time></trkpt><trkpt lat="43.7962959" lon="12.5557977"><ele>333.0</ele><time>2026-03-22T10:57:08.971Z</time></trkpt><trkpt lat="43.7963059" lon="12.5556644"><ele>333.0</ele><time>2026-03-22T10:57:09.971Z</time></trkpt><trkpt lat="43.7963286" lon="12.5555111"><ele>333.0</ele><time>2026-03-22T10:57:10.971Z</time></trkpt><trkpt lat="43.7963563" lon="12.5553426"><ele>333.0</ele><time>2026-03-22T10:57:11.97Z</time></trkpt><trkpt lat="43.7963871" lon="12.5551597"><ele>333.0</ele><time>2026-03-22T10:57:12.97Z</time></trkpt><trkpt lat="43.7964208" lon="12.5549667"><ele>332.0</ele><time>2026-03-22T10:57:13.97Z</time></trkpt><trkpt lat="43.7964621" lon="12.554763"><ele>331.0</ele><time>2026-03-22T10:57:14.971Z</time></trkpt><trkpt lat="43.7965011" lon="12.5545663"><ele>330.0</ele><time>2026-03-22T10:57:15.971Z</time></trkpt><trkpt lat="43.7965375" lon="12.5543895"><ele>329.0</ele><time>2026-03-22T10:57:16.971Z</time></trkpt><trkpt lat="43.7965689" lon="12.5542165"><ele>331.25</ele><time>2026-03-22T10:57:17.97Z</time></trkpt><trkpt lat="43.7965887" lon="12.554057"><ele>333.5</ele><time>2026-03-22T10:57:18.971Z</time></trkpt><trkpt lat="43.7965943" lon="12.5539071"><ele>335.75</ele><time>2026-03-22T10:57:19.97Z</time></trkpt><trkpt lat="43.7965831" lon="12.5537442"><ele>338.0</ele><time>2026-03-22T10:57:20.97Z</time></trkpt><trkpt lat="43.7965655" lon="12.5535686"><ele>339.0</ele><time>2026-03-22T10:57:21.971Z</time></trkpt><trkpt lat="43.7965517" lon="12.5533968"><ele>340.0</ele><time>2026-03-22T10:57:22.97Z</time></trkpt><trkpt lat="43.7965496" lon="12.5532183"><ele>341.0</ele><time>2026-03-22T10:57:23.971Z</time></trkpt><trkpt lat="43.7965649" lon="12.5530317"><ele>342.0</ele><time>2026-03-22T10:57:24.97Z</time></trkpt><trkpt lat="43.7965989" lon="12.5528371"><ele>342.75</ele><time>2026-03-22T10:57:25.971Z</time></trkpt><trkpt lat="43.7966436" lon="12.5526363"><ele>343.5</ele><time>2026-03-22T10:57:26.97Z</time></trkpt><trkpt lat="43.7966893" lon="12.5524461"><ele>344.25</ele><time>2026-03-22T10:57:27.97Z</time></trkpt><trkpt lat="43.7967304" lon="12.5522717"><ele>345.0</ele><time>2026-03-22T10:57:28.971Z</time></trkpt><trkpt lat="43.7967689" lon="12.552104"><ele>345.0</ele><time>2026-03-22T10:57:29.971Z</time></trkpt><trkpt lat="43.7968006" lon="12.5519305"><ele>345.0</ele><time>2026-03-22T10:57:30.971Z</time></trkpt><trkpt lat="43.7968383" lon="12.5517508"><ele>345.0</ele><time>2026-03-22T10:57:31.97Z</time></trkpt><trkpt lat="43.7968823" lon="12.5515784"><ele>345.0</ele><time>2026-03-22T10:57:32.971Z</time></trkpt><trkpt lat="43.7969324" lon="12.5514154"><ele>344.75</ele><time>2026-03-22T10:57:33.97Z</time></trkpt><trkpt lat="43.7969797" lon="12.5512542"><ele>344.5</ele><time>2026-03-22T10:57:34.971Z</time></trkpt><trkpt lat="43.7970234" lon="12.5510913"><ele>344.25</ele><time>2026-03-22T10:57:35.97Z</time></trkpt><trkpt lat="43.7970578" lon="12.5509259"><ele>344.0</ele><time>2026-03-22T10:57:36.971Z</time></trkpt><trkpt lat="43.7970829" lon="12.5507521"><ele>344.0</ele><time>2026-03-22T10:57:37.97Z</time></trkpt><trkpt lat="43.7970943" lon="12.5505747"><ele>344.0</ele><time>2026-03-22T10:57:38.971Z</time></trkpt><trkpt lat="43.7970958" lon="12.5504011"><ele>344.0</ele><time>2026-03-22T10:57:39.971Z</time></trkpt><trkpt lat="43.7970929" lon="12.5502371"><ele>344.0</ele><time>2026-03-22T10:57:40.97Z</time></trkpt><trkpt lat="43.79709" lon="12.5500822"><ele>345.6</ele><time>2026-03-22T10:57:41.97Z</time></trkpt><trkpt lat="43.7970869" lon="12.5499363"><ele>347.2</ele><time>2026-03-22T10:57:42.97Z</time></trkpt><trkpt lat="43.7970889" lon="12.5497992"><ele>348.8</ele><time>2026-03-22T10:57:43.971Z</time></trkpt><trkpt lat="43.7971003" lon="12.5496591"><ele>350.40000000000003</ele><time>2026-03-22T10:57:44.97Z</time></trkpt><trkpt lat="43.7971244" lon="12.5495449"><ele>352.0</ele><time>2026-03-22T10:57:45.971Z</time></trkpt><trkpt lat="43.7971624" lon="12.5494453"><ele>352.0</ele><time>2026-03-22T10:57:46.97Z</time></trkpt><trkpt lat="43.7972188" lon="12.5493522"><ele>352.0</ele><time>2026-03-22T10:57:47.971Z</time></trkpt><trkpt lat="43.7973026" lon="12.5492804"><ele>352.0</ele><time>2026-03-22T10:57:48.97Z</time></trkpt><trkpt lat="43.7974064" lon="12.5492156"><ele>352.0</ele><time>2026-03-22T10:57:49.971Z</time></trkpt><trkpt lat="43.7975205" lon="12.5491397"><ele>352.0</ele><time>2026-03-22T10:57:50.97Z</time></trkpt><trkpt lat="43.7976323" lon="12.5490432"><ele>350.0</ele><time>2026-03-22T10:57:51.971Z</time></trkpt><trkpt lat="43.797731" lon="12.5489341"><ele>348.0</ele><time>2026-03-22T10:57:52.97Z</time></trkpt><trkpt lat="43.797818" lon="12.5488005"><ele>346.0</ele><time>2026-03-22T10:57:53.969Z</time></trkpt><trkpt lat="43.7978984" lon="12.548639"><ele>344.0</ele><time>2026-03-22T10:57:54.97Z</time></trkpt><trkpt lat="43.7979749" lon="12.5484599"><ele>342.25</ele><time>2026-03-22T10:57:55.971Z</time></trkpt><trkpt lat="43.7980424" lon="12.5482794"><ele>340.5</ele><time>2026-03-22T10:57:56.97Z</time></trkpt><trkpt lat="43.7981064" lon="12.5481066"><ele>338.75</ele><time>2026-03-22T10:57:57.97Z</time></trkpt><trkpt lat="43.7981691" lon="12.5479406"><ele>337.0</ele><time>2026-03-22T10:57:58.971Z</time></trkpt><trkpt lat="43.7982274" lon="12.5477807"><ele>336.75</ele><time>2026-03-22T10:57:59.971Z</time></trkpt><trkpt lat="43.7982804" lon="12.5476106"><ele>336.5</ele><time>2026-03-22T10:58:00.971Z</time></trkpt><trkpt lat="43.7983257" lon="12.5474275"><ele>336.25</ele><time>2026-03-22T10:58:01.971Z</time></trkpt><trkpt lat="43.7983591" lon="12.5472343"><ele>336.0</ele><time>2026-03-22T10:58:02.97Z</time></trkpt><trkpt lat="43.7983804" lon="12.5470481"><ele>336.25</ele><time>2026-03-22T10:58:03.971Z</time></trkpt><trkpt lat="43.7983944" lon="12.5468768"><ele>336.5</ele><time>2026-03-22T10:58:04.969Z</time></trkpt><trkpt lat="43.7983999" lon="12.5467034"><ele>336.75</ele><time>2026-03-22T10:58:05.971Z</time></trkpt><trkpt lat="43.7983869" lon="12.5465259"><ele>337.0</ele><time>2026-03-22T10:58:06.971Z</time></trkpt><trkpt lat="43.7983542" lon="12.5463479"><ele>338.75</ele><time>2026-03-22T10:58:07.971Z</time></trkpt><trkpt lat="43.7983151" lon="12.5461771"><ele>340.5</ele><time>2026-03-22T10:58:08.97Z</time></trkpt><trkpt lat="43.7982786" lon="12.5460089"><ele>342.25</ele><time>2026-03-22T10:58:09.97Z</time></trkpt><trkpt lat="43.7982564" lon="12.5458335"><ele>344.0</ele><time>2026-03-22T10:58:10.971Z</time></trkpt><trkpt lat="43.7982581" lon="12.5456487"><ele>344.0</ele><time>2026-03-22T10:58:11.971Z</time></trkpt><trkpt lat="43.798263" lon="12.5454553"><ele>344.0</ele><time>2026-03-22T10:58:12.97Z</time></trkpt><trkpt lat="43.7982545" lon="12.5452598"><ele>344.0</ele><time>2026-03-22T10:58:13.971Z</time></trkpt><trkpt lat="43.7982256" lon="12.5450642"><ele>344.0</ele><time>2026-03-22T10:58:14.969Z</time></trkpt><trkpt lat="43.7981853" lon="12.5448839"><ele>345.75</ele><time>2026-03-22T10:58:15.971Z</time></trkpt><trkpt lat="43.7981432" lon="12.5447175"><ele>347.5</ele><time>2026-03-22T10:58:16.971Z</time></trkpt><trkpt lat="43.7981094" lon="12.5445597"><ele>349.25</ele><time>2026-03-22T10:58:17.969Z</time></trkpt><trkpt lat="43.7980841" lon="12.5443939"><ele>351.0</ele><time>2026-03-22T10:58:18.97Z</time></trkpt><trkpt lat="43.7980644" lon="12.5442143"><ele>350.25</ele><time>2026-03-22T10:58:19.97Z</time></trkpt><trkpt lat="43.7980486" lon="12.5440275"><ele>349.5</ele><time>2026-03-22T10:58:20.969Z</time></trkpt><trkpt lat="43.7980322" lon="12.5438346"><ele>348.75</ele><time>2026-03-22T10:58:21.97Z</time></trkpt><trkpt lat="43.7980175" lon="12.5436409"><ele>348.0</ele><time>2026-03-22T10:58:22.97Z</time></trkpt><trkpt lat="43.7980073" lon="12.5434461"><ele>348.0</ele><time>2026-03-22T10:58:23.969Z</time></trkpt><trkpt lat="43.7980044" lon="12.5432475"><ele>348.0</ele><time>2026-03-22T10:58:24.97Z</time></trkpt><trkpt lat="43.7980007" lon="12.5430479"><ele>348.0</ele><time>2026-03-22T10:58:25.97Z</time></trkpt><trkpt lat="43.7979961" lon="12.5428589"><ele>348.0</ele><time>2026-03-22T10:58:26.971Z</time></trkpt><trkpt lat="43.7979919" lon="12.5426712"><ele>348.0</ele><time>2026-03-22T10:58:27.971Z</time></trkpt><trkpt lat="43.7979814" lon="12.5424885"><ele>348.0</ele><time>2026-03-22T10:58:28.97Z</time></trkpt><trkpt lat="43.7979619" lon="12.5423174"><ele>348.0</ele><time>2026-03-22T10:58:29.97Z</time></trkpt><trkpt lat="43.7979303" lon="12.54216"><ele>348.0</ele><time>2026-03-22T10:58:30.971Z</time></trkpt><trkpt lat="43.7978846" lon="12.5420057"><ele>348.5</ele><time>2026-03-22T10:58:31.971Z</time></trkpt><trkpt lat="43.7978216" lon="12.541857"><ele>349.0</ele><time>2026-03-22T10:58:32.971Z</time></trkpt><trkpt lat="43.7977486" lon="12.5417098"><ele>349.5</ele><time>2026-03-22T10:58:33.97Z</time></trkpt><trkpt lat="43.7976746" lon="12.5415641"><ele>350.0</ele><time>2026-03-22T10:58:34.97Z</time></trkpt><trkpt lat="43.7976093" lon="12.5414078"><ele>350.5</ele><time>2026-03-22T10:58:35.97Z</time></trkpt><trkpt lat="43.7975619" lon="12.5412456"><ele>351.0</ele><time>2026-03-22T10:58:36.97Z</time></trkpt><trkpt lat="43.7975253" lon="12.541077"><ele>351.5</ele><time>2026-03-22T10:58:37.97Z</time></trkpt><trkpt lat="43.7974951" lon="12.5409029"><ele>352.0</ele><time>2026-03-22T10:58:38.97Z</time></trkpt><trkpt lat="43.7974698" lon="12.5407211"><ele>354.5</ele><time>2026-03-22T10:58:39.971Z</time></trkpt><trkpt lat="43.7974418" lon="12.5405328"><ele>357.0</ele><time>2026-03-22T10:58:40.969Z</time></trkpt><trkpt lat="43.7973974" lon="12.5403419"><ele>359.5</ele><time>2026-03-22T10:58:41.969Z</time></trkpt><trkpt lat="43.7973389" lon="12.5401571"><ele>362.0</ele><time>2026-03-22T10:58:42.969Z</time></trkpt><trkpt lat="43.7972658" lon="12.5399793"><ele>363.25</ele><time>2026-03-22T10:58:43.97Z</time></trkpt><trkpt lat="43.7971739" lon="12.5398132"><ele>364.5</ele><time>2026-03-22T10:58:44.97Z</time></trkpt><trkpt lat="43.7970724" lon="12.53967"><ele>365.75</ele><time>2026-03-22T10:58:45.97Z</time></trkpt><trkpt lat="43.7969716" lon="12.539551"><ele>367.0</ele><time>2026-03-22T10:58:46.97Z</time></trkpt><trkpt lat="43.7968657" lon="12.5394424"><ele>368.5</ele><time>2026-03-22T10:58:47.97Z</time></trkpt><trkpt lat="43.7967563" lon="12.5393262"><ele>370.0</ele><time>2026-03-22T10:58:48.971Z</time></trkpt><trkpt lat="43.7966508" lon="12.5391918"><ele>371.5</ele><time>2026-03-22T10:58:49.971Z</time></trkpt><trkpt lat="43.7965539" lon="12.5390431"><ele>373.0</ele><time>2026-03-22T10:58:50.97Z</time></trkpt><trkpt lat="43.7964656" lon="12.5389042"><ele>373.0</ele><time>2026-03-22T10:58:51.969Z</time></trkpt><trkpt lat="43.7963789" lon="12.5387761"><ele>373.0</ele><time>2026-03-22T10:58:52.971Z</time></trkpt><trkpt lat="43.7962819" lon="12.5386619"><ele>373.0</ele><time>2026-03-22T10:58:53.97Z</time></trkpt><trkpt lat="43.7961651" lon="12.5385668"><ele>373.0</ele><time>2026-03-22T10:58:54.97Z</time></trkpt><trkpt lat="43.7960269" lon="12.5384942"><ele>373.0</ele><time>2026-03-22T10:58:55.97Z</time></trkpt><trkpt lat="43.795873" lon="12.5384291"><ele>373.0</ele><time>2026-03-22T10:58:56.97Z</time></trkpt><trkpt lat="43.7957119" lon="12.538364"><ele>373.0</ele><time>2026-03-22T10:58:57.971Z</time></trkpt><trkpt lat="43.7955676" lon="12.5383029"><ele>373.0</ele><time>2026-03-22T10:58:58.971Z</time></trkpt><trkpt lat="43.7954395" lon="12.5382455"><ele>373.0</ele><time>2026-03-22T10:58:59.97Z</time></trkpt><trkpt lat="43.7953234" lon="12.5381915"><ele>373.0</ele><time>2026-03-22T10:59:00.971Z</time></trkpt><trkpt lat="43.7952216" lon="12.5381346"><ele>373.0</ele><time>2026-03-22T10:59:01.971Z</time></trkpt><trkpt lat="43.7951361" lon="12.5380559"><ele>372.5</ele><time>2026-03-22T10:59:02.971Z</time></trkpt><trkpt lat="43.7950653" lon="12.5379553"><ele>372.0</ele><time>2026-03-22T10:59:03.97Z</time></trkpt><trkpt lat="43.7950116" lon="12.5378249"><ele>371.5</ele><time>2026-03-22T10:59:04.97Z</time></trkpt><trkpt lat="43.7949712" lon="12.5376647"><ele>371.0</ele><time>2026-03-22T10:59:05.971Z</time></trkpt><trkpt lat="43.7949383" lon="12.5374651"><ele>371.0</ele><time>2026-03-22T10:59:06.971Z</time></trkpt><trkpt lat="43.7949103" lon="12.5372425"><ele>371.0</ele><time>2026-03-22T10:59:07.97Z</time></trkpt><trkpt lat="43.7948851" lon="12.537002"><ele>371.0</ele><time>2026-03-22T10:59:08.971Z</time></trkpt><trkpt lat="43.7948607" lon="12.5367614"><ele>370.5</ele><time>2026-03-22T10:59:09.971Z</time></trkpt><trkpt lat="43.7948345" lon="12.5365384"><ele>370.0</ele><time>2026-03-22T10:59:10.97Z</time></trkpt><trkpt lat="43.7947986" lon="12.5363347"><ele>369.5</ele><time>2026-03-22T10:59:11.97Z</time></trkpt><trkpt lat="43.7947527" lon="12.5361619"><ele>369.0</ele><time>2026-03-22T10:59:12.97Z</time></trkpt><trkpt lat="43.7947002" lon="12.5360127"><ele>367.25</ele><time>2026-03-22T10:59:13.971Z</time></trkpt><trkpt lat="43.7946419" lon="12.5358801"><ele>365.5</ele><time>2026-03-22T10:59:14.971Z</time></trkpt><trkpt lat="43.7945679" lon="12.5357583"><ele>363.75</ele><time>2026-03-22T10:59:15.971Z</time></trkpt><trkpt lat="43.7944809" lon="12.5356438"><ele>362.0</ele><time>2026-03-22T10:59:16.971Z</time></trkpt><trkpt lat="43.7943783" lon="12.535533"><ele>362.0</ele><time>2026-03-22T10:59:17.97Z</time></trkpt><trkpt lat="43.7942654" lon="12.5354239"><ele>362.0</ele><time>2026-03-22T10:59:18.971Z</time></trkpt><trkpt lat="43.7941404" lon="12.5353181"><ele>362.0</ele><time>2026-03-22T10:59:19.971Z</time></trkpt><trkpt lat="43.7940113" lon="12.5352126"><ele>362.0</ele><time>2026-03-22T10:59:20.97Z</time></trkpt><trkpt lat="43.793879" lon="12.5351124"><ele>362.0</ele><time>2026-03-22T10:59:21.97Z</time></trkpt><trkpt lat="43.7937502" lon="12.5350168"><ele>362.0</ele><time>2026-03-22T10:59:22.97Z</time></trkpt><trkpt lat="43.7936288" lon="12.5349298"><ele>362.0</ele><time>2026-03-22T10:59:23.971Z</time></trkpt><trkpt lat="43.7935165" lon="12.5348467"><ele>362.0</ele><time>2026-03-22T10:59:24.971Z</time></trkpt><trkpt lat="43.7934112" lon="12.5347638"><ele>362.0</ele><time>2026-03-22T10:59:25.969Z</time></trkpt><trkpt lat="43.7933129" lon="12.5346707"><ele>362.0</ele><time>2026-03-22T10:59:26.971Z</time></trkpt><trkpt lat="43.7932223" lon="12.5345545"><ele>362.0</ele><time>2026-03-22T10:59:27.97Z</time></trkpt><trkpt lat="43.7931488" lon="12.5344135"><ele>362.0</ele><time>2026-03-22T10:59:28.971Z</time></trkpt><trkpt lat="43.7930881" lon="12.5342489"><ele>363.0</ele><time>2026-03-22T10:59:29.97Z</time></trkpt><trkpt lat="43.7930139" lon="12.5340792"><ele>364.0</ele><time>2026-03-22T10:59:30.971Z</time></trkpt><trkpt lat="43.7929187" lon="12.5339284"><ele>365.0</ele><time>2026-03-22T10:59:31.97Z</time></trkpt><trkpt lat="43.7928114" lon="12.5337964"><ele>366.0</ele><time>2026-03-22T10:59:32.97Z</time></trkpt><trkpt lat="43.7926998" lon="12.533682"><ele>364.5</ele><time>2026-03-22T10:59:33.97Z</time></trkpt><trkpt lat="43.7925915" lon="12.5335863"><ele>363.0</ele><time>2026-03-22T10:59:34.97Z</time></trkpt><trkpt lat="43.7924848" lon="12.533506"><ele>361.5</ele><time>2026-03-22T10:59:35.969Z</time></trkpt><trkpt lat="43.7923792" lon="12.533434"><ele>360.0</ele><time>2026-03-22T10:59:36.971Z</time></trkpt><trkpt lat="43.7922657" lon="12.533364"><ele>360.0</ele><time>2026-03-22T10:59:37.971Z</time></trkpt><trkpt lat="43.7921395" lon="12.5333001"><ele>360.0</ele><time>2026-03-22T10:59:38.97Z</time></trkpt><trkpt lat="43.7920038" lon="12.5332488"><ele>360.0</ele><time>2026-03-22T10:59:39.971Z</time></trkpt><trkpt lat="43.7918722" lon="12.5332221"><ele>360.0</ele><time>2026-03-22T10:59:40.969Z</time></trkpt><trkpt lat="43.7917442" lon="12.5332176"><ele>359.4</ele><time>2026-03-22T10:59:41.971Z</time></trkpt><trkpt lat="43.7916224" lon="12.5332218"><ele>358.8</ele><time>2026-03-22T10:59:42.971Z</time></trkpt><trkpt lat="43.7915141" lon="12.5332164"><ele>358.20000000000005</ele><time>2026-03-22T10:59:43.971Z</time></trkpt><trkpt lat="43.7914159" lon="12.5331861"><ele>357.6</ele><time>2026-03-22T10:59:44.971Z</time></trkpt><trkpt lat="43.7913302" lon="12.5331289"><ele>357.0</ele><time>2026-03-22T10:59:45.969Z</time></trkpt><trkpt lat="43.7912556" lon="12.5330387"><ele>357.0</ele><time>2026-03-22T10:59:46.971Z</time></trkpt><trkpt lat="43.791181" lon="12.532921"><ele>357.0</ele><time>2026-03-22T10:59:47.97Z</time></trkpt><trkpt lat="43.7911038" lon="12.532784"><ele>357.0</ele><time>2026-03-22T10:59:48.969Z</time></trkpt><trkpt lat="43.7910239" lon="12.5326316"><ele>357.0</ele><time>2026-03-22T10:59:49.97Z</time></trkpt><trkpt lat="43.7909411" lon="12.5324647"><ele>357.5</ele><time>2026-03-22T10:59:50.971Z</time></trkpt><trkpt lat="43.7908524" lon="12.5322923"><ele>358.0</ele><time>2026-03-22T10:59:51.971Z</time></trkpt><trkpt lat="43.7907634" lon="12.5321253"><ele>358.5</ele><time>2026-03-22T10:59:52.971Z</time></trkpt><trkpt lat="43.790679" lon="12.5319686"><ele>359.0</ele><time>2026-03-22T10:59:53.97Z</time></trkpt><trkpt lat="43.7905897" lon="12.5318122"><ele>361.33333333333337</ele><time>2026-03-22T10:59:54.97Z</time></trkpt><trkpt lat="43.7904932" lon="12.5316501"><ele>363.6666666666667</ele><time>2026-03-22T10:59:55.971Z</time></trkpt><trkpt lat="43.790395" lon="12.5314852"><ele>366.0</ele><time>2026-03-22T10:59:56.97Z</time></trkpt><trkpt lat="43.7902984" lon="12.5313215"><ele>364.0</ele><time>2026-03-22T10:59:57.971Z</time></trkpt><trkpt lat="43.7902024" lon="12.5311551"><ele>362.0</ele><time>2026-03-22T10:59:58.97Z</time></trkpt><trkpt lat="43.7901092" lon="12.5309768"><ele>360.0</ele><time>2026-03-22T10:59:59.969Z</time></trkpt><trkpt lat="43.7900192" lon="12.5307908"><ele>358.3333333333333</ele><time>2026-03-22T11:00:00.97Z</time></trkpt><trkpt lat="43.7899305" lon="12.5306055"><ele>356.66666666666663</ele><time>2026-03-22T11:00:01.97Z</time></trkpt><trkpt lat="43.7898455" lon="12.5304283"><ele>355.0</ele><time>2026-03-22T11:00:02.969Z</time></trkpt><trkpt lat="43.7897659" lon="12.5302577"><ele>353.0</ele><time>2026-03-22T11:00:03.971Z</time></trkpt><trkpt lat="43.7896913" lon="12.5300863"><ele>351.0</ele><time>2026-03-22T11:00:04.97Z</time></trkpt><trkpt lat="43.7896205" lon="12.529922"><ele>349.0</ele><time>2026-03-22T11:00:05.97Z</time></trkpt><trkpt lat="43.7895576" lon="12.5297877"><ele>347.0</ele><time>2026-03-22T11:00:06.971Z</time></trkpt><trkpt lat="43.7894981" lon="12.5296909"><ele>347.0</ele><time>2026-03-22T11:00:07.97Z</time></trkpt><trkpt lat="43.7894301" lon="12.529629"><ele>347.0</ele><time>2026-03-22T11:00:08.97Z</time></trkpt><trkpt lat="43.7893496" lon="12.5295989"><ele>347.0</ele><time>2026-03-22T11:00:09.971Z</time></trkpt><trkpt lat="43.7892516" lon="12.5295891"><ele>347.0</ele><time>2026-03-22T11:00:10.971Z</time></trkpt><trkpt lat="43.789133" lon="12.5295768"><ele>347.0</ele><time>2026-03-22T11:00:11.97Z</time></trkpt><trkpt lat="43.7890007" lon="12.529547"><ele>349.25</ele><time>2026-03-22T11:00:12.97Z</time></trkpt><trkpt lat="43.7888631" lon="12.5295122"><ele>351.5</ele><time>2026-03-22T11:00:13.971Z</time></trkpt><trkpt lat="43.7887213" lon="12.5294868"><ele>353.75</ele><time>2026-03-22T11:00:14.971Z</time></trkpt><trkpt lat="43.7885879" lon="12.5294738"><ele>356.0</ele><time>2026-03-22T11:00:15.971Z</time></trkpt><trkpt lat="43.7884756" lon="12.5294678"><ele>358.8</ele><time>2026-03-22T11:00:16.969Z</time></trkpt><trkpt lat="43.7883819" lon="12.5294514"><ele>361.6</ele><time>2026-03-22T11:00:17.971Z</time></trkpt><trkpt lat="43.7882949" lon="12.529402"><ele>364.4</ele><time>2026-03-22T11:00:18.97Z</time></trkpt><trkpt lat="43.7882056" lon="12.5293141"><ele>367.2</ele><time>2026-03-22T11:00:19.969Z</time></trkpt><trkpt lat="43.7881169" lon="12.5291952"><ele>370.0</ele><time>2026-03-22T11:00:20.971Z</time></trkpt><trkpt lat="43.7880318" lon="12.5290624"><ele>370.0</ele><time>2026-03-22T11:00:21.971Z</time></trkpt><trkpt lat="43.7879566" lon="12.528949"><ele>370.0</ele><time>2026-03-22T11:00:22.97Z</time></trkpt><trkpt lat="43.7878875" lon="12.5288532"><ele>370.0</ele><time>2026-03-22T11:00:23.971Z</time></trkpt><trkpt lat="43.7878143" lon="12.5287519"><ele>370.0</ele><time>2026-03-22T11:00:24.97Z</time></trkpt><trkpt lat="43.7877377" lon="12.528638"><ele>370.0</ele><time>2026-03-22T11:00:25.969Z</time></trkpt><trkpt lat="43.7876653" lon="12.5285053"><ele>372.75</ele><time>2026-03-22T11:00:26.971Z</time></trkpt><trkpt lat="43.7876079" lon="12.5283577"><ele>375.5</ele><time>2026-03-22T11:00:27.971Z</time></trkpt><trkpt lat="43.787572" lon="12.5282009"><ele>378.25</ele><time>2026-03-22T11:00:28.97Z</time></trkpt><trkpt lat="43.7875471" lon="12.5280387"><ele>381.0</ele><time>2026-03-22T11:00:29.971Z</time></trkpt><trkpt lat="43.7875181" lon="12.5278841"><ele>382.75</ele><time>2026-03-22T11:00:30.97Z</time></trkpt><trkpt lat="43.7874738" lon="12.5277416"><ele>384.5</ele><time>2026-03-22T11:00:31.971Z</time></trkpt><trkpt lat="43.78741" lon="12.5276107"><ele>386.25</ele><time>2026-03-22T11:00:32.971Z</time></trkpt><trkpt lat="43.787334" lon="12.5274848"><ele>388.0</ele><time>2026-03-22T11:00:33.969Z</time></trkpt><trkpt lat="43.7872537" lon="12.5273591"><ele>388.0</ele><time>2026-03-22T11:00:34.971Z</time></trkpt><trkpt lat="43.7871725" lon="12.5272341"><ele>388.0</ele><time>2026-03-22T11:00:35.97Z</time></trkpt><trkpt lat="43.7870917" lon="12.5271077"><ele>388.0</ele><time>2026-03-22T11:00:36.969Z</time></trkpt><trkpt lat="43.7870086" lon="12.5269827"><ele>388.0</ele><time>2026-03-22T11:00:37.969Z</time></trkpt><trkpt lat="43.7869294" lon="12.5268717"><ele>386.2</ele><time>2026-03-22T11:00:38.971Z</time></trkpt><trkpt lat="43.7868548" lon="12.5267824"><ele>384.4</ele><time>2026-03-22T11:00:39.97Z</time></trkpt><trkpt lat="43.7867749" lon="12.5267162"><ele>382.59999999999997</ele><time>2026-03-22T11:00:40.97Z</time></trkpt><trkpt lat="43.7866833" lon="12.5266801"><ele>380.79999999999995</ele><time>2026-03-22T11:00:41.97Z</time></trkpt><trkpt lat="43.7865753" lon="12.5266696"><ele>379.0</ele><time>2026-03-22T11:00:42.971Z</time></trkpt><trkpt lat="43.7864574" lon="12.5266715"><ele>382.8333333333333</ele><time>2026-03-22T11:00:43.97Z</time></trkpt><trkpt lat="43.7863518" lon="12.5266813"><ele>386.66666666666663</ele><time>2026-03-22T11:00:44.97Z</time></trkpt><trkpt lat="43.7862814" lon="12.5266947"><ele>390.5</ele><time>2026-03-22T11:00:45.97Z</time></trkpt><trkpt lat="43.7862045" lon="12.5267315"><ele>394.3333333333333</ele><time>2026-03-22T11:00:47.971Z</time></trkpt><trkpt lat="43.7861411" lon="12.5267885"><ele>398.1666666666667</ele><time>2026-03-22T11:00:56.971Z</time></trkpt><trkpt lat="43.78608" lon="12.5268928"><ele>402.0</ele><time>2026-03-22T11:00:58.971Z</time></trkpt><trkpt lat="43.786039" lon="12.5269781"><ele>404.8</ele><time>2026-03-22T11:00:59.971Z</time></trkpt><trkpt lat="43.7859886" lon="12.5270848"><ele>407.6</ele><time>2026-03-22T11:01:00.971Z</time></trkpt><trkpt lat="43.7859327" lon="12.5271997"><ele>410.40000000000003</ele><time>2026-03-22T11:01:01.97Z</time></trkpt><trkpt lat="43.7858716" lon="12.5273291"><ele>413.20000000000005</ele><time>2026-03-22T11:01:02.971Z</time></trkpt><trkpt lat="43.7858123" lon="12.5274563"><ele>416.0</ele><time>2026-03-22T11:01:03.971Z</time></trkpt><trkpt lat="43.7857521" lon="12.5275864"><ele>416.0</ele><time>2026-03-22T11:01:04.97Z</time></trkpt><trkpt lat="43.7856826" lon="12.5277147"><ele>416.0</ele><time>2026-03-22T11:01:05.97Z</time></trkpt><trkpt lat="43.7856075" lon="12.5278436"><ele>416.0</ele><time>2026-03-22T11:01:06.969Z</time></trkpt><trkpt lat="43.7855311" lon="12.5279386"><ele>416.0</ele><time>2026-03-22T11:01:07.971Z</time></trkpt><trkpt lat="43.7854518" lon="12.5279946"><ele>416.0</ele><time>2026-03-22T11:01:08.971Z</time></trkpt><trkpt lat="43.7853692" lon="12.5280209"><ele>416.5</ele><time>2026-03-22T11:01:09.971Z</time></trkpt><trkpt lat="43.785263" lon="12.5280207"><ele>417.0</ele><time>2026-03-22T11:01:10.971Z</time></trkpt><trkpt lat="43.7851435" lon="12.5279915"><ele>417.5</ele><time>2026-03-22T11:01:11.97Z</time></trkpt><trkpt lat="43.7850219" lon="12.5279703"><ele>418.0</ele><time>2026-03-22T11:01:12.97Z</time></trkpt><trkpt lat="43.7849208" lon="12.5279654"><ele>418.0</ele><time>2026-03-22T11:01:13.971Z</time></trkpt><trkpt lat="43.7848203" lon="12.5279757"><ele>418.0</ele><time>2026-03-22T11:01:14.97Z</time></trkpt><trkpt lat="43.784708" lon="12.5279932"><ele>418.0</ele><time>2026-03-22T11:01:15.971Z</time></trkpt><trkpt lat="43.7845898" lon="12.5280109"><ele>418.0</ele><time>2026-03-22T11:01:16.97Z</time></trkpt><trkpt lat="43.7844657" lon="12.5280113"><ele>419.25</ele><time>2026-03-22T11:01:17.97Z</time></trkpt><trkpt lat="43.7843351" lon="12.5279899"><ele>420.5</ele><time>2026-03-22T11:01:18.971Z</time></trkpt><trkpt lat="43.7842027" lon="12.5279519"><ele>421.75</ele><time>2026-03-22T11:01:19.971Z</time></trkpt><trkpt lat="43.7840846" lon="12.5278817"><ele>423.0</ele><time>2026-03-22T11:01:20.971Z</time></trkpt><trkpt lat="43.7839887" lon="12.5278053"><ele>423.0</ele><time>2026-03-22T11:01:21.971Z</time></trkpt><trkpt lat="43.7838973" lon="12.5277484"><ele>423.0</ele><time>2026-03-22T11:01:22.97Z</time></trkpt><trkpt lat="43.7837942" lon="12.5277166"><ele>423.0</ele><time>2026-03-22T11:01:23.97Z</time></trkpt><trkpt lat="43.7836931" lon="12.527721"><ele>423.0</ele><time>2026-03-22T11:01:24.971Z</time></trkpt><trkpt lat="43.783588" lon="12.5277622"><ele>423.0</ele><time>2026-03-22T11:01:25.971Z</time></trkpt><trkpt lat="43.7834723" lon="12.5278282"><ele>426.25</ele><time>2026-03-22T11:01:26.97Z</time></trkpt><trkpt lat="43.7833511" lon="12.5278984"><ele>429.5</ele><time>2026-03-22T11:01:27.97Z</time></trkpt><trkpt lat="43.7832274" lon="12.527961"><ele>432.75</ele><time>2026-03-22T11:01:28.971Z</time></trkpt><trkpt lat="43.7831034" lon="12.5279947"><ele>436.0</ele><time>2026-03-22T11:01:29.97Z</time></trkpt><trkpt lat="43.7829751" lon="12.5280037"><ele>436.0</ele><time>2026-03-22T11:01:30.97Z</time></trkpt><trkpt lat="43.7828373" lon="12.527996"><ele>436.0</ele><time>2026-03-22T11:01:31.971Z</time></trkpt><trkpt lat="43.7826953" lon="12.5279793"><ele>436.0</ele><time>2026-03-22T11:01:32.971Z</time></trkpt><trkpt lat="43.7825455" lon="12.5279698"><ele>436.0</ele><time>2026-03-22T11:01:33.971Z</time></trkpt><trkpt lat="43.7823852" lon="12.5279695"><ele>439.6666666666667</ele><time>2026-03-22T11:01:34.969Z</time></trkpt><trkpt lat="43.7822245" lon="12.5279846"><ele>443.33333333333337</ele><time>2026-03-22T11:01:35.97Z</time></trkpt><trkpt lat="43.7820597" lon="12.5280194"><ele>447.0</ele><time>2026-03-22T11:01:36.97Z</time></trkpt><trkpt lat="43.7818926" lon="12.5280589"><ele>447.0</ele><time>2026-03-22T11:01:37.971Z</time></trkpt><trkpt lat="43.7817302" lon="12.5281033"><ele>447.0</ele><time>2026-03-22T11:01:38.971Z</time></trkpt><trkpt lat="43.7815771" lon="12.528157"><ele>447.0</ele><time>2026-03-22T11:01:39.971Z</time></trkpt><trkpt lat="43.7814254" lon="12.5282244"><ele>447.0</ele><time>2026-03-22T11:01:40.97Z</time></trkpt><trkpt lat="43.7812777" lon="12.5283031"><ele>447.0</ele><time>2026-03-22T11:01:41.971Z</time></trkpt><trkpt lat="43.7811332" lon="12.5283876"><ele>447.0</ele><time>2026-03-22T11:01:42.97Z</time></trkpt><trkpt lat="43.7809893" lon="12.528471"><ele>447.25</ele><time>2026-03-22T11:01:43.971Z</time></trkpt><trkpt lat="43.7808494" lon="12.528554"><ele>447.5</ele><time>2026-03-22T11:01:44.97Z</time></trkpt><trkpt lat="43.7807228" lon="12.528632"><ele>447.75</ele><time>2026-03-22T11:01:45.97Z</time></trkpt><trkpt lat="43.7806143" lon="12.5286946"><ele>448.0</ele><time>2026-03-22T11:01:46.97Z</time></trkpt><trkpt lat="43.7805195" lon="12.5287592"><ele>448.0</ele><time>2026-03-22T11:01:47.971Z</time></trkpt><trkpt lat="43.7804377" lon="12.5288425"><ele>447.99999999999994</ele><time>2026-03-22T11:01:48.97Z</time></trkpt><trkpt lat="43.7803607" lon="12.5289528"><ele>447.99999999999994</ele><time>2026-03-22T11:01:49.971Z</time></trkpt><trkpt lat="43.7803027" lon="12.5290665"><ele>448.0</ele><time>2026-03-22T11:01:50.971Z</time></trkpt><trkpt lat="43.7802606" lon="12.5291819"><ele>448.0</ele><time>2026-03-22T11:01:51.97Z</time></trkpt><trkpt lat="43.7802352" lon="12.529283"><ele>448.00000000000006</ele><time>2026-03-22T11:01:52.97Z</time></trkpt><trkpt lat="43.7802235" lon="12.5293728"><ele>448.0</ele><time>2026-03-22T11:01:53.971Z</time></trkpt><trkpt lat="43.7802124" lon="12.5295015"><ele>448.0</ele><time>2026-03-22T11:01:55.971Z</time></trkpt><trkpt lat="43.780224" lon="12.5296243"><ele>448.0</ele><time>2026-03-22T11:01:57.97Z</time></trkpt><trkpt lat="43.780288" lon="12.529773"><ele>448.00000000000006</ele><time>2026-03-22T11:01:59.971Z</time></trkpt><trkpt lat="43.7803375" lon="12.5298276"><ele>448.0</ele><time>2026-03-22T11:02:00.969Z</time></trkpt><trkpt lat="43.7804055" lon="12.5298682"><ele>445.59999999999997</ele><time>2026-03-22T11:02:01.971Z</time></trkpt><trkpt lat="43.7804892" lon="12.5298821"><ele>443.19999999999993</ele><time>2026-03-22T11:02:02.971Z</time></trkpt><trkpt lat="43.7805845" lon="12.5298722"><ele>440.8</ele><time>2026-03-22T11:02:03.97Z</time></trkpt><trkpt lat="43.7807044" lon="12.5298471"><ele>438.4</ele><time>2026-03-22T11:02:04.971Z</time></trkpt><trkpt lat="43.780831" lon="12.5298345"><ele>436.0</ele><time>2026-03-22T11:02:05.969Z</time></trkpt><trkpt lat="43.7809572" lon="12.5298367"><ele>437.5</ele><time>2026-03-22T11:02:06.97Z</time></trkpt><trkpt lat="43.7810719" lon="12.5298739"><ele>439.0</ele><time>2026-03-22T11:02:07.97Z</time></trkpt><trkpt lat="43.7811808" lon="12.5299476"><ele>440.5</ele><time>2026-03-22T11:02:08.969Z</time></trkpt><trkpt lat="43.7812785" lon="12.5300494"><ele>442.0</ele><time>2026-03-22T11:02:09.971Z</time></trkpt><trkpt lat="43.7813669" lon="12.5301779"><ele>442.0</ele><time>2026-03-22T11:02:10.971Z</time></trkpt><trkpt lat="43.7814414" lon="12.5303339"><ele>442.0</ele><time>2026-03-22T11:02:11.971Z</time></trkpt><trkpt lat="43.7814987" lon="12.5305118"><ele>442.0</ele><time>2026-03-22T11:02:12.969Z</time></trkpt><trkpt lat="43.7815517" lon="12.5307264"><ele>442.0</ele><time>2026-03-22T11:02:13.971Z</time></trkpt><trkpt lat="43.7816008" lon="12.5309403"><ele>439.5</ele><time>2026-03-22T11:02:14.97Z</time></trkpt><trkpt lat="43.7816426" lon="12.5311304"><ele>437.0</ele><time>2026-03-22T11:02:15.97Z</time></trkpt><trkpt lat="43.7816753" lon="12.531324"><ele>434.5</ele><time>2026-03-22T11:02:16.971Z</time></trkpt><trkpt lat="43.7816974" lon="12.5315259"><ele>432.0</ele><time>2026-03-22T11:02:17.97Z</time></trkpt><trkpt lat="43.7817083" lon="12.5317285"><ele>430.0</ele><time>2026-03-22T11:02:18.97Z</time></trkpt><trkpt lat="43.7817178" lon="12.5319391"><ele>428.0</ele><time>2026-03-22T11:02:19.971Z</time></trkpt><trkpt lat="43.7817314" lon="12.5321372"><ele>426.0</ele><time>2026-03-22T11:02:20.971Z</time></trkpt><trkpt lat="43.7817376" lon="12.5323197"><ele>424.0</ele><time>2026-03-22T11:02:21.97Z</time></trkpt><trkpt lat="43.7817436" lon="12.5324944"><ele>423.6</ele><time>2026-03-22T11:02:22.969Z</time></trkpt><trkpt lat="43.7817507" lon="12.5326464"><ele>423.2</ele><time>2026-03-22T11:02:23.97Z</time></trkpt><trkpt lat="43.7817748" lon="12.5327846"><ele>422.8</ele><time>2026-03-22T11:02:24.971Z</time></trkpt><trkpt lat="43.7818242" lon="12.5329277"><ele>422.40000000000003</ele><time>2026-03-22T11:02:25.97Z</time></trkpt><trkpt lat="43.7818796" lon="12.5330583"><ele>422.0</ele><time>2026-03-22T11:02:26.971Z</time></trkpt><trkpt lat="43.7819203" lon="12.5331862"><ele>420.25</ele><time>2026-03-22T11:02:27.969Z</time></trkpt><trkpt lat="43.7819451" lon="12.533325"><ele>418.5</ele><time>2026-03-22T11:02:28.971Z</time></trkpt><trkpt lat="43.7819302" lon="12.5334876"><ele>416.75</ele><time>2026-03-22T11:02:29.971Z</time></trkpt><trkpt lat="43.781893" lon="12.5336379"><ele>415.0</ele><time>2026-03-22T11:02:30.97Z</time></trkpt><trkpt lat="43.7818585" lon="12.5337942"><ele>411.75</ele><time>2026-03-22T11:02:31.971Z</time></trkpt><trkpt lat="43.7818507" lon="12.5339688"><ele>408.5</ele><time>2026-03-22T11:02:32.971Z</time></trkpt><trkpt lat="43.7818699" lon="12.5341717"><ele>405.25</ele><time>2026-03-22T11:02:33.971Z</time></trkpt><trkpt lat="43.781904" lon="12.5344048"><ele>402.0</ele><time>2026-03-22T11:02:34.969Z</time></trkpt><trkpt lat="43.7819459" lon="12.5346345"><ele>399.0</ele><time>2026-03-22T11:02:35.97Z</time></trkpt><trkpt lat="43.7819884" lon="12.5348347"><ele>396.0</ele><time>2026-03-22T11:02:36.97Z</time></trkpt><trkpt lat="43.7820317" lon="12.5350116"><ele>393.0</ele><time>2026-03-22T11:02:37.971Z</time></trkpt><trkpt lat="43.7820738" lon="12.5351712"><ele>390.0</ele><time>2026-03-22T11:02:38.97Z</time></trkpt><trkpt lat="43.7821177" lon="12.5353094"><ele>391.1666666666667</ele><time>2026-03-22T11:02:39.971Z</time></trkpt><trkpt lat="43.7821559" lon="12.5354238"><ele>392.33333333333337</ele><time>2026-03-22T11:02:40.971Z</time></trkpt><trkpt lat="43.7821652" lon="12.5355276"><ele>393.5</ele><time>2026-03-22T11:02:41.971Z</time></trkpt><trkpt lat="43.7821407" lon="12.5356165"><ele>394.6666666666667</ele><time>2026-03-22T11:02:42.971Z</time></trkpt><trkpt lat="43.7820873" lon="12.5356981"><ele>395.83333333333337</ele><time>2026-03-22T11:02:43.971Z</time></trkpt><trkpt lat="43.7819995" lon="12.5357984"><ele>397.0</ele><time>2026-03-22T11:02:44.971Z</time></trkpt><trkpt lat="43.7818812" lon="12.5359173"><ele>399.6666666666667</ele><time>2026-03-22T11:02:45.97Z</time></trkpt><trkpt lat="43.7817532" lon="12.5360456"><ele>402.33333333333337</ele><time>2026-03-22T11:02:46.971Z</time></trkpt><trkpt lat="43.78162" lon="12.5361567"><ele>405.0</ele><time>2026-03-22T11:02:47.971Z</time></trkpt><trkpt lat="43.7814824" lon="12.5362367"><ele>406.75</ele><time>2026-03-22T11:02:48.97Z</time></trkpt><trkpt lat="43.7813442" lon="12.5363013"><ele>408.5</ele><time>2026-03-22T11:02:49.971Z</time></trkpt><trkpt lat="43.7812156" lon="12.5363763"><ele>410.25</ele><time>2026-03-22T11:02:50.971Z</time></trkpt><trkpt lat="43.7810883" lon="12.5364761"><ele>412.0</ele><time>2026-03-22T11:02:51.97Z</time></trkpt><trkpt lat="43.780957" lon="12.5365881"><ele>407.25</ele><time>2026-03-22T11:02:52.971Z</time></trkpt><trkpt lat="43.7808309" lon="12.5366854"><ele>402.5</ele><time>2026-03-22T11:02:53.971Z</time></trkpt><trkpt lat="43.7806987" lon="12.5367662"><ele>397.75</ele><time>2026-03-22T11:02:54.971Z</time></trkpt><trkpt lat="43.780561" lon="12.5368472"><ele>393.0</ele><time>2026-03-22T11:02:55.971Z</time></trkpt><trkpt lat="43.7804319" lon="12.5369291"><ele>393.0</ele><time>2026-03-22T11:02:56.971Z</time></trkpt><trkpt lat="43.7803035" lon="12.5370068"><ele>393.0</ele><time>2026-03-22T11:02:57.971Z</time></trkpt><trkpt lat="43.7801733" lon="12.5370597"><ele>393.0</ele><time>2026-03-22T11:02:58.971Z</time></trkpt><trkpt lat="43.7800454" lon="12.5370811"><ele>393.0</ele><time>2026-03-22T11:02:59.97Z</time></trkpt><trkpt lat="43.7799116" lon="12.537071"><ele>389.25</ele><time>2026-03-22T11:03:00.971Z</time></trkpt><trkpt lat="43.7797815" lon="12.5370391"><ele>385.5</ele><time>2026-03-22T11:03:01.971Z</time></trkpt><trkpt lat="43.7796682" lon="12.5370044"><ele>381.75</ele><time>2026-03-22T11:03:02.971Z</time></trkpt><trkpt lat="43.7795573" lon="12.5369969"><ele>378.0</ele><time>2026-03-22T11:03:03.971Z</time></trkpt><trkpt lat="43.7794434" lon="12.5370133"><ele>377.59999999999997</ele><time>2026-03-22T11:03:04.971Z</time></trkpt><trkpt lat="43.77934" lon="12.5370421"><ele>377.2</ele><time>2026-03-22T11:03:05.969Z</time></trkpt><trkpt lat="43.7792521" lon="12.5370867"><ele>376.8</ele><time>2026-03-22T11:03:06.971Z</time></trkpt><trkpt lat="43.7791725" lon="12.5371452"><ele>376.4</ele><time>2026-03-22T11:03:07.97Z</time></trkpt><trkpt lat="43.7790952" lon="12.5372121"><ele>376.0</ele><time>2026-03-22T11:03:08.969Z</time></trkpt><trkpt lat="43.7790153" lon="12.5372816"><ele>376.0</ele><time>2026-03-22T11:03:09.97Z</time></trkpt><trkpt lat="43.7789424" lon="12.5373401"><ele>376.0</ele><time>2026-03-22T11:03:10.97Z</time></trkpt><trkpt lat="43.7788833" lon="12.5373833"><ele>376.0</ele><time>2026-03-22T11:03:11.97Z</time></trkpt><trkpt lat="43.7788106" lon="12.5374985"><ele>376.0</ele><time>2026-03-22T11:03:13.97Z</time></trkpt><trkpt lat="43.7788083" lon="12.537587"><ele>376.0</ele><time>2026-03-22T11:03:14.971Z</time></trkpt><trkpt lat="43.7788255" lon="12.5376837"><ele>376.0</ele><time>2026-03-22T11:03:15.969Z</time></trkpt><trkpt lat="43.778853" lon="12.5377765"><ele>376.0</ele><time>2026-03-22T11:03:16.969Z</time></trkpt><trkpt lat="43.7789006" lon="12.5378833"><ele>376.0</ele><time>2026-03-22T11:03:17.97Z</time></trkpt><trkpt lat="43.7789661" lon="12.5380171"><ele>376.0</ele><time>2026-03-22T11:03:18.97Z</time></trkpt><trkpt lat="43.7790335" lon="12.5381626"><ele>376.0</ele><time>2026-03-22T11:03:19.971Z</time></trkpt><trkpt lat="43.7790851" lon="12.5383094"><ele>374.20000000000005</ele><time>2026-03-22T11:03:20.97Z</time></trkpt><trkpt lat="43.7791138" lon="12.5384608"><ele>372.40000000000003</ele><time>2026-03-22T11:03:21.97Z</time></trkpt><trkpt lat="43.7791211" lon="12.53862"><ele>370.6</ele><time>2026-03-22T11:03:22.969Z</time></trkpt><trkpt lat="43.7791064" lon="12.5387648"><ele>368.8</ele><time>2026-03-22T11:03:23.971Z</time></trkpt><trkpt lat="43.7790901" lon="12.5388856"><ele>367.0</ele><time>2026-03-22T11:03:24.97Z</time></trkpt><trkpt lat="43.7790993" lon="12.5389924"><ele>363.75</ele><time>2026-03-22T11:03:25.971Z</time></trkpt><trkpt lat="43.7791405" lon="12.5391056"><ele>360.5</ele><time>2026-03-22T11:03:26.969Z</time></trkpt><trkpt lat="43.7792103" lon="12.539241"><ele>357.25</ele><time>2026-03-22T11:03:27.97Z</time></trkpt><trkpt lat="43.7792973" lon="12.5393981"><ele>354.0</ele><time>2026-03-22T11:03:28.971Z</time></trkpt><trkpt lat="43.7793826" lon="12.5395652"><ele>353.0</ele><time>2026-03-22T11:03:29.97Z</time></trkpt><trkpt lat="43.7794618" lon="12.5397427"><ele>352.0</ele><time>2026-03-22T11:03:30.97Z</time></trkpt><trkpt lat="43.7795164" lon="12.53994"><ele>351.0</ele><time>2026-03-22T11:03:31.97Z</time></trkpt><trkpt lat="43.7795558" lon="12.5401358"><ele>351.0</ele><time>2026-03-22T11:03:32.971Z</time></trkpt><trkpt lat="43.7796107" lon="12.5403357"><ele>351.0</ele><time>2026-03-22T11:03:33.971Z</time></trkpt><trkpt lat="43.7796906" lon="12.5405425"><ele>351.0</ele><time>2026-03-22T11:03:34.971Z</time></trkpt><trkpt lat="43.7797776" lon="12.5407444"><ele>349.3333333333333</ele><time>2026-03-22T11:03:35.971Z</time></trkpt><trkpt lat="43.7798426" lon="12.5409504"><ele>347.66666666666663</ele><time>2026-03-22T11:03:36.971Z</time></trkpt><trkpt lat="43.7798974" lon="12.5411897"><ele>346.0</ele><time>2026-03-22T11:03:37.97Z</time></trkpt><trkpt lat="43.7799612" lon="12.5414196"><ele>346.0</ele><time>2026-03-22T11:03:38.969Z</time></trkpt><trkpt lat="43.780022" lon="12.5416097"><ele>346.0</ele><time>2026-03-22T11:03:39.97Z</time></trkpt><trkpt lat="43.7800677" lon="12.5417858"><ele>346.0</ele><time>2026-03-22T11:03:40.97Z</time></trkpt><trkpt lat="43.7800924" lon="12.5419472"><ele>346.0</ele><time>2026-03-22T11:03:41.97Z</time></trkpt><trkpt lat="43.7800928" lon="12.5420888"><ele>347.0</ele><time>2026-03-22T11:03:42.971Z</time></trkpt><trkpt lat="43.7800845" lon="12.5422206"><ele>348.0</ele><time>2026-03-22T11:03:43.97Z</time></trkpt><trkpt lat="43.780024" lon="12.5423325"><ele>349.0</ele><time>2026-03-22T11:03:44.97Z</time></trkpt><trkpt lat="43.7799385" lon="12.5424331"><ele>350.0</ele><time>2026-03-22T11:03:45.97Z</time></trkpt><trkpt lat="43.7798328" lon="12.5425134"><ele>351.0</ele><time>2026-03-22T11:03:46.971Z</time></trkpt><trkpt lat="43.7796987" lon="12.5425906"><ele>351.0</ele><time>2026-03-22T11:03:47.971Z</time></trkpt><trkpt lat="43.7795716" lon="12.5426668"><ele>351.0</ele><time>2026-03-22T11:03:48.971Z</time></trkpt><trkpt lat="43.7794624" lon="12.5427432"><ele>351.0</ele><time>2026-03-22T11:03:49.971Z</time></trkpt><trkpt lat="43.7793674" lon="12.5428048"><ele>351.0</ele><time>2026-03-22T11:03:50.97Z</time></trkpt><trkpt lat="43.7792803" lon="12.5428379"><ele>348.5</ele><time>2026-03-22T11:03:51.971Z</time></trkpt><trkpt lat="43.7791931" lon="12.5428392"><ele>346.0</ele><time>2026-03-22T11:03:52.97Z</time></trkpt><trkpt lat="43.7791136" lon="12.5427838"><ele>343.5</ele><time>2026-03-22T11:03:53.97Z</time></trkpt><trkpt lat="43.7790392" lon="12.5427106"><ele>341.0</ele><time>2026-03-22T11:03:54.971Z</time></trkpt><trkpt lat="43.7789646" lon="12.5426604"><ele>338.5</ele><time>2026-03-22T11:03:55.971Z</time></trkpt><trkpt lat="43.7788812" lon="12.542652"><ele>336.0</ele><time>2026-03-22T11:03:56.97Z</time></trkpt><trkpt lat="43.7787802" lon="12.542655"><ele>336.0</ele><time>2026-03-22T11:03:57.969Z</time></trkpt><trkpt lat="43.7786747" lon="12.5426801"><ele>336.0</ele><time>2026-03-22T11:03:58.97Z</time></trkpt><trkpt lat="43.7785755" lon="12.5426949"><ele>336.0</ele><time>2026-03-22T11:03:59.97Z</time></trkpt><trkpt lat="43.7784823" lon="12.5427179"><ele>336.0</ele><time>2026-03-22T11:04:00.97Z</time></trkpt><trkpt lat="43.7783854" lon="12.5427736"><ele>336.0</ele><time>2026-03-22T11:04:01.97Z</time></trkpt><trkpt lat="43.7782744" lon="12.5428666"><ele>334.75</ele><time>2026-03-22T11:04:02.97Z</time></trkpt><trkpt lat="43.7781559" lon="12.5429747"><ele>333.5</ele><time>2026-03-22T11:04:03.971Z</time></trkpt><trkpt lat="43.7780495" lon="12.5430595"><ele>332.25</ele><time>2026-03-22T11:04:04.97Z</time></trkpt><trkpt lat="43.7779548" lon="12.5431287"><ele>331.0</ele><time>2026-03-22T11:04:05.971Z</time></trkpt><trkpt lat="43.7778687" lon="12.5431974"><ele>331.0</ele><time>2026-03-22T11:04:06.971Z</time></trkpt><trkpt lat="43.777792" lon="12.543266"><ele>331.0</ele><time>2026-03-22T11:04:07.971Z</time></trkpt><trkpt lat="43.7777274" lon="12.5433297"><ele>331.0</ele><time>2026-03-22T11:04:08.97Z</time></trkpt><trkpt lat="43.7776498" lon="12.5434359"><ele>331.0</ele><time>2026-03-22T11:04:10.969Z</time></trkpt><trkpt lat="43.7776672" lon="12.5435669"><ele>331.0</ele><time>2026-03-22T11:04:12.971Z</time></trkpt><trkpt lat="43.7776975" lon="12.5436828"><ele>329.8333333333333</ele><time>2026-03-22T11:04:14.971Z</time></trkpt><trkpt lat="43.77774" lon="12.5437899"><ele>328.66666666666663</ele><time>2026-03-22T11:04:17.971Z</time></trkpt><trkpt lat="43.7777308" lon="12.5438762"><ele>327.5</ele><time>2026-03-22T11:04:20.97Z</time></trkpt><trkpt lat="43.7776704" lon="12.5439302"><ele>326.3333333333333</ele><time>2026-03-22T11:04:23.97Z</time></trkpt><trkpt lat="43.7775835" lon="12.5439505"><ele>325.1666666666667</ele><time>2026-03-22T11:04:26.97Z</time></trkpt><trkpt lat="43.7775137" lon="12.5439597"><ele>324.0</ele><time>2026-03-22T11:04:28.971Z</time></trkpt><trkpt lat="43.7774291" lon="12.5439997"><ele>322.8333333333333</ele><time>2026-03-22T11:04:30.97Z</time></trkpt><trkpt lat="43.7773314" lon="12.5440879"><ele>321.6666666666667</ele><time>2026-03-22T11:04:32.971Z</time></trkpt><trkpt lat="43.7772715" lon="12.54415"><ele>320.5</ele><time>2026-03-22T11:04:34.97Z</time></trkpt><trkpt lat="43.7772095" lon="12.5442"><ele>319.33333333333337</ele><time>2026-03-22T11:04:36.971Z</time></trkpt><trkpt lat="43.7771466" lon="12.544204"><ele>318.1666666666667</ele><time>2026-03-22T11:05:00.97Z</time></trkpt><trkpt lat="43.7772222" lon="12.5441628"><ele>317.0</ele><time>2026-03-22T11:05:29.971Z</time></trkpt><trkpt lat="43.7772975" lon="12.5440937"><ele>317.0</ele><time>2026-03-22T11:05:32.97Z</time></trkpt><trkpt lat="43.7773434" lon="12.5440219"><ele>317.0</ele><time>2026-03-22T11:05:35.971Z</time></trkpt><trkpt lat="43.7773727" lon="12.5439072"><ele>317.0</ele><time>2026-03-22T11:05:38.97Z</time></trkpt><trkpt lat="43.777367" lon="12.5438104"><ele>317.0</ele><time>2026-03-22T11:05:41.969Z</time></trkpt><trkpt lat="43.7773064" lon="12.5437648"><ele>317.0</ele><time>2026-03-22T11:05:43.97Z</time></trkpt><trkpt lat="43.7772182" lon="12.5438512"><ele>317.0</ele><time>2026-03-22T11:05:44.97Z</time></trkpt><trkpt lat="43.777096" lon="12.543918"><ele>317.0</ele><time>2026-03-22T11:05:46.97Z</time></trkpt><trkpt lat="43.7769943" lon="12.5440044"><ele>317.0</ele><time>2026-03-22T11:05:48.97Z</time></trkpt><trkpt lat="43.7769096" lon="12.5441275"><ele>317.0</ele><time>2026-03-22T11:05:50.971Z</time></trkpt><trkpt lat="43.7768386" lon="12.5442674"><ele>317.0</ele><time>2026-03-22T11:05:52.97Z</time></trkpt><trkpt lat="43.7767948" lon="12.5443518"><ele>317.0</ele><time>2026-03-22T11:05:53.97Z</time></trkpt><trkpt lat="43.7767503" lon="12.5444411"><ele>314.0</ele><time>2026-03-22T11:05:54.969Z</time></trkpt><trkpt lat="43.776697" lon="12.5445333"><ele>311.0</ele><time>2026-03-22T11:05:55.97Z</time></trkpt><trkpt lat="43.776638" lon="12.5446212"><ele>308.0</ele><time>2026-03-22T11:05:56.97Z</time></trkpt><trkpt lat="43.7765772" lon="12.5447046"><ele>305.0</ele><time>2026-03-22T11:05:57.97Z</time></trkpt><trkpt lat="43.7765204" lon="12.5447827"><ele>302.0</ele><time>2026-03-22T11:05:58.97Z</time></trkpt><trkpt lat="43.776464" lon="12.544859"><ele>299.0</ele><time>2026-03-22T11:05:59.97Z</time></trkpt><trkpt lat="43.7764068" lon="12.5449323"><ele>298.6666666666667</ele><time>2026-03-22T11:06:00.971Z</time></trkpt><trkpt lat="43.7763492" lon="12.5450037"><ele>298.33333333333337</ele><time>2026-03-22T11:06:01.971Z</time></trkpt><trkpt lat="43.7762893" lon="12.5450846"><ele>298.0</ele><time>2026-03-22T11:06:02.971Z</time></trkpt><trkpt lat="43.7762254" lon="12.5451685"><ele>297.6666666666667</ele><time>2026-03-22T11:06:03.97Z</time></trkpt><trkpt lat="43.7761602" lon="12.5452371"><ele>297.3333333333333</ele><time>2026-03-22T11:06:04.969Z</time></trkpt><trkpt lat="43.7760897" lon="12.545293"><ele>297.0</ele><time>2026-03-22T11:06:05.97Z</time></trkpt><trkpt lat="43.7760165" lon="12.5453468"><ele>295.1666666666667</ele><time>2026-03-22T11:06:06.971Z</time></trkpt><trkpt lat="43.775944" lon="12.5453957"><ele>293.3333333333333</ele><time>2026-03-22T11:06:07.971Z</time></trkpt><trkpt lat="43.7758693" lon="12.5454387"><ele>291.5</ele><time>2026-03-22T11:06:08.971Z</time></trkpt><trkpt lat="43.7757947" lon="12.5454877"><ele>289.66666666666663</ele><time>2026-03-22T11:06:09.97Z</time></trkpt><trkpt lat="43.7757225" lon="12.5455449"><ele>287.8333333333333</ele><time>2026-03-22T11:06:10.97Z</time></trkpt><trkpt lat="43.7756509" lon="12.5456059"><ele>286.0</ele><time>2026-03-22T11:06:11.971Z</time></trkpt><trkpt lat="43.7755866" lon="12.5456708"><ele>286.0</ele><time>2026-03-22T11:06:12.971Z</time></trkpt><trkpt lat="43.7755281" lon="12.5457335"><ele>286.0</ele><time>2026-03-22T11:06:13.971Z</time></trkpt><trkpt lat="43.7754691" lon="12.5458061"><ele>286.0</ele><time>2026-03-22T11:06:14.971Z</time></trkpt><trkpt lat="43.7754077" lon="12.5458955"><ele>286.0</ele><time>2026-03-22T11:06:15.97Z</time></trkpt><trkpt lat="43.7753565" lon="12.5459962"><ele>286.0</ele><time>2026-03-22T11:06:16.97Z</time></trkpt><trkpt lat="43.7753144" lon="12.5460914"><ele>286.0</ele><time>2026-03-22T11:06:17.97Z</time></trkpt><trkpt lat="43.7752757" lon="12.5461844"><ele>284.66666666666663</ele><time>2026-03-22T11:06:18.97Z</time></trkpt><trkpt lat="43.7752376" lon="12.5462856"><ele>283.3333333333333</ele><time>2026-03-22T11:06:19.97Z</time></trkpt><trkpt lat="43.7751913" lon="12.5463858"><ele>282.0</ele><time>2026-03-22T11:06:20.97Z</time></trkpt><trkpt lat="43.7751369" lon="12.5464787"><ele>280.6666666666667</ele><time>2026-03-22T11:06:21.971Z</time></trkpt><trkpt lat="43.7750827" lon="12.5465655"><ele>279.33333333333337</ele><time>2026-03-22T11:06:22.97Z</time></trkpt><trkpt lat="43.775029" lon="12.5466486"><ele>278.0</ele><time>2026-03-22T11:06:23.971Z</time></trkpt><trkpt lat="43.7749746" lon="12.5467284"><ele>275.5</ele><time>2026-03-22T11:06:24.971Z</time></trkpt><trkpt lat="43.7749192" lon="12.5468021"><ele>273.0</ele><time>2026-03-22T11:06:25.971Z</time></trkpt><trkpt lat="43.7748652" lon="12.5468809"><ele>270.5</ele><time>2026-03-22T11:06:26.971Z</time></trkpt><trkpt lat="43.7748206" lon="12.5469688"><ele>268.0</ele><time>2026-03-22T11:06:27.971Z</time></trkpt><trkpt lat="43.7747966" lon="12.5470549"><ele>265.5</ele><time>2026-03-22T11:06:28.97Z</time></trkpt><trkpt lat="43.7747712" lon="12.5472108"><ele>263.0</ele><time>2026-03-22T11:06:30.97Z</time></trkpt><trkpt lat="43.7746919" lon="12.5473101"><ele>261.0</ele><time>2026-03-22T11:06:32.971Z</time></trkpt><trkpt lat="43.7746261" lon="12.5473328"><ele>259.0</ele><time>2026-03-22T11:06:33.97Z</time></trkpt><trkpt lat="43.7745478" lon="12.5473431"><ele>257.0</ele><time>2026-03-22T11:06:34.97Z</time></trkpt><trkpt lat="43.7744695" lon="12.5473399"><ele>255.0</ele><time>2026-03-22T11:06:35.971Z</time></trkpt><trkpt lat="43.7743913" lon="12.5473284"><ele>252.99999999999997</ele><time>2026-03-22T11:06:36.971Z</time></trkpt><trkpt lat="43.7743188" lon="12.547316"><ele>251.0</ele><time>2026-03-22T11:06:37.971Z</time></trkpt><trkpt lat="43.7742527" lon="12.5472948"><ele>249.0</ele><time>2026-03-22T11:06:38.971Z</time></trkpt><trkpt lat="43.7741904" lon="12.5472655"><ele>246.33333333333334</ele><time>2026-03-22T11:06:39.97Z</time></trkpt><trkpt lat="43.7740869" lon="12.5471699"><ele>243.66666666666669</ele><time>2026-03-22T11:06:41.971Z</time></trkpt><trkpt lat="43.7740463" lon="12.5470932"><ele>241.0</ele><time>2026-03-22T11:06:42.97Z</time></trkpt><trkpt lat="43.7740182" lon="12.5470121"><ele>238.33333333333334</ele><time>2026-03-22T11:06:43.97Z</time></trkpt><trkpt lat="43.7740056" lon="12.5468807"><ele>235.66666666666669</ele><time>2026-03-22T11:06:45.97Z</time></trkpt><trkpt lat="43.773998" lon="12.5467596"><ele>233.0</ele><time>2026-03-22T11:06:47.969Z</time></trkpt><trkpt lat="43.773974" lon="12.5466743"><ele>233.0</ele><time>2026-03-22T11:06:49.97Z</time></trkpt><trkpt lat="43.7739013" lon="12.5466415"><ele>233.0</ele><time>2026-03-22T11:06:51.971Z</time></trkpt><trkpt lat="43.7737777" lon="12.5466842"><ele>233.0</ele><time>2026-03-22T11:06:53.971Z</time></trkpt><trkpt lat="43.7736877" lon="12.5467221"><ele>233.0</ele><time>2026-03-22T11:06:54.97Z</time></trkpt><trkpt lat="43.7736077" lon="12.5467547"><ele>233.0</ele><time>2026-03-22T11:06:55.97Z</time></trkpt><trkpt lat="43.773538" lon="12.5467799"><ele>229.33333333333334</ele><time>2026-03-22T11:06:56.97Z</time></trkpt><trkpt lat="43.7734684" lon="12.5468025"><ele>225.66666666666669</ele><time>2026-03-22T11:06:57.971Z</time></trkpt><trkpt lat="43.7734027" lon="12.5468225"><ele>222.0</ele><time>2026-03-22T11:06:58.97Z</time></trkpt><trkpt lat="43.7733358" lon="12.5468521"><ele>218.33333333333331</ele><time>2026-03-22T11:06:59.97Z</time></trkpt><trkpt lat="43.7732678" lon="12.5469064"><ele>214.66666666666666</ele><time>2026-03-22T11:07:00.971Z</time></trkpt><trkpt lat="43.7732056" lon="12.5469873"><ele>211.0</ele><time>2026-03-22T11:07:01.97Z</time></trkpt><trkpt lat="43.7731579" lon="12.5470799"><ele>210.99999999999997</ele><time>2026-03-22T11:07:02.97Z</time></trkpt><trkpt lat="43.7731257" lon="12.5471791"><ele>211.0</ele><time>2026-03-22T11:07:03.971Z</time></trkpt><trkpt lat="43.7731023" lon="12.5472839"><ele>211.0</ele><time>2026-03-22T11:07:04.971Z</time></trkpt><trkpt lat="43.7730922" lon="12.5473736"><ele>211.0</ele><time>2026-03-22T11:07:05.971Z</time></trkpt><trkpt lat="43.7730959" lon="12.5475687"><ele>210.99999999999997</ele><time>2026-03-22T11:07:07.97Z</time></trkpt><trkpt lat="43.7730884" lon="12.5476683"><ele>211.0</ele><time>2026-03-22T11:07:08.971Z</time></trkpt><trkpt lat="43.7730625" lon="12.5477547"><ele>210.99999999999997</ele><time>2026-03-22T11:07:09.971Z</time></trkpt><trkpt lat="43.7730119" lon="12.5478444"><ele>211.0</ele><time>2026-03-22T11:07:10.97Z</time></trkpt><trkpt lat="43.7729491" lon="12.5479247"><ele>211.0</ele><time>2026-03-22T11:07:11.971Z</time></trkpt><trkpt lat="43.7728804" lon="12.5479932"><ele>211.0</ele><time>2026-03-22T11:07:12.971Z</time></trkpt><trkpt lat="43.7728041" lon="12.5480488"><ele>210.99999999999997</ele><time>2026-03-22T11:07:13.97Z</time></trkpt><trkpt lat="43.7727162" lon="12.5480851"><ele>211.0</ele><time>2026-03-22T11:07:14.97Z</time></trkpt><trkpt lat="43.7726162" lon="12.5480964"><ele>207.8</ele><time>2026-03-22T11:07:15.971Z</time></trkpt><trkpt lat="43.772516" lon="12.5480836"><ele>204.60000000000002</ele><time>2026-03-22T11:07:16.971Z</time></trkpt><trkpt lat="43.7724192" lon="12.5480658"><ele>201.4</ele><time>2026-03-22T11:07:17.971Z</time></trkpt><trkpt lat="43.7723245" lon="12.5480758"><ele>198.2</ele><time>2026-03-22T11:07:18.971Z</time></trkpt><trkpt lat="43.7722289" lon="12.5481247"><ele>195.0</ele><time>2026-03-22T11:07:19.97Z</time></trkpt><trkpt lat="43.7721279" lon="12.5482086"><ele>195.0</ele><time>2026-03-22T11:07:20.97Z</time></trkpt><trkpt lat="43.7720347" lon="12.5482959"><ele>195.0</ele><time>2026-03-22T11:07:21.971Z</time></trkpt><trkpt lat="43.7719548" lon="12.5483781"><ele>195.0</ele><time>2026-03-22T11:07:22.97Z</time></trkpt><trkpt lat="43.7718709" lon="12.5484612"><ele>195.0</ele><time>2026-03-22T11:07:23.971Z</time></trkpt><trkpt lat="43.7717958" lon="12.5485487"><ele>195.0</ele><time>2026-03-22T11:07:24.969Z</time></trkpt><trkpt lat="43.7717124" lon="12.5486389"><ele>193.25</ele><time>2026-03-22T11:07:25.97Z</time></trkpt><trkpt lat="43.7716226" lon="12.5487331"><ele>191.5</ele><time>2026-03-22T11:07:26.97Z</time></trkpt><trkpt lat="43.7715193" lon="12.5488362"><ele>189.75</ele><time>2026-03-22T11:07:27.969Z</time></trkpt><trkpt lat="43.7714132" lon="12.5489555"><ele>188.0</ele><time>2026-03-22T11:07:28.971Z</time></trkpt><trkpt lat="43.771307" lon="12.5490648"><ele>188.0</ele><time>2026-03-22T11:07:29.971Z</time></trkpt><trkpt lat="43.7712052" lon="12.5491577"><ele>188.0</ele><time>2026-03-22T11:07:30.971Z</time></trkpt><trkpt lat="43.7711091" lon="12.5492393"><ele>188.0</ele><time>2026-03-22T11:07:31.97Z</time></trkpt><trkpt lat="43.771026" lon="12.5492963"><ele>188.0</ele><time>2026-03-22T11:07:32.971Z</time></trkpt><trkpt lat="43.7709391" lon="12.5493239"><ele>188.0</ele><time>2026-03-22T11:07:33.971Z</time></trkpt><trkpt lat="43.7708602" lon="12.5493272"><ele>187.5</ele><time>2026-03-22T11:07:34.971Z</time></trkpt><trkpt lat="43.7707594" lon="12.5493207"><ele>187.0</ele><time>2026-03-22T11:07:35.97Z</time></trkpt><trkpt lat="43.7706394" lon="12.5493253"><ele>186.5</ele><time>2026-03-22T11:07:36.971Z</time></trkpt><trkpt lat="43.7705051" lon="12.5493343"><ele>186.0</ele><time>2026-03-22T11:07:37.971Z</time></trkpt><trkpt lat="43.770384" lon="12.549362"><ele>186.0</ele><time>2026-03-22T11:07:38.97Z</time></trkpt><trkpt lat="43.7702844" lon="12.5494116"><ele>186.0</ele><time>2026-03-22T11:07:39.971Z</time></trkpt><trkpt lat="43.7702046" lon="12.5494974"><ele>186.0</ele><time>2026-03-22T11:07:40.971Z</time></trkpt><trkpt lat="43.7701229" lon="12.5495961"><ele>186.0</ele><time>2026-03-22T11:07:41.971Z</time></trkpt><trkpt lat="43.7700535" lon="12.549672"><ele>186.0</ele><time>2026-03-22T11:07:42.969Z</time></trkpt><trkpt lat="43.7699472" lon="12.5496806"><ele>187.4</ele><time>2026-03-22T11:07:44.97Z</time></trkpt><trkpt lat="43.769871" lon="12.5495613"><ele>188.8</ele><time>2026-03-22T11:07:46.97Z</time></trkpt><trkpt lat="43.7698457" lon="12.5494455"><ele>190.20000000000002</ele><time>2026-03-22T11:07:47.971Z</time></trkpt><trkpt lat="43.769817" lon="12.5492924"><ele>191.60000000000002</ele><time>2026-03-22T11:07:48.97Z</time></trkpt><trkpt lat="43.769784" lon="12.5491153"><ele>193.0</ele><time>2026-03-22T11:07:49.971Z</time></trkpt><trkpt lat="43.7697437" lon="12.5489737"><ele>193.0</ele><time>2026-03-22T11:07:50.971Z</time></trkpt><trkpt lat="43.7696929" lon="12.5488713"><ele>193.0</ele><time>2026-03-22T11:07:51.969Z</time></trkpt><trkpt lat="43.769626" lon="12.5487818"><ele>193.0</ele><time>2026-03-22T11:07:52.97Z</time></trkpt><trkpt lat="43.7695395" lon="12.5487025"><ele>193.0</ele><time>2026-03-22T11:07:53.969Z</time></trkpt><trkpt lat="43.7694368" lon="12.5486461"><ele>193.0</ele><time>2026-03-22T11:07:54.969Z</time></trkpt><trkpt lat="43.7693159" lon="12.548606"><ele>198.75</ele><time>2026-03-22T11:07:55.97Z</time></trkpt><trkpt lat="43.7691832" lon="12.5485767"><ele>204.5</ele><time>2026-03-22T11:07:56.97Z</time></trkpt><trkpt lat="43.769057" lon="12.5485574"><ele>210.25</ele><time>2026-03-22T11:07:57.969Z</time></trkpt><trkpt lat="43.7689248" lon="12.5485143"><ele>216.0</ele><time>2026-03-22T11:07:58.97Z</time></trkpt><trkpt lat="43.7687919" lon="12.5484404"><ele>216.0</ele><time>2026-03-22T11:07:59.971Z</time></trkpt><trkpt lat="43.7686691" lon="12.5483511"><ele>216.0</ele><time>2026-03-22T11:08:00.97Z</time></trkpt><trkpt lat="43.7685547" lon="12.5482553"><ele>216.0</ele><time>2026-03-22T11:08:01.97Z</time></trkpt><trkpt lat="43.768447" lon="12.5481655"><ele>216.0</ele><time>2026-03-22T11:08:02.97Z</time></trkpt><trkpt lat="43.7683353" lon="12.5480837"><ele>213.75</ele><time>2026-03-22T11:08:03.971Z</time></trkpt><trkpt lat="43.7682157" lon="12.5480098"><ele>211.5</ele><time>2026-03-22T11:08:04.969Z</time></trkpt><trkpt lat="43.7681026" lon="12.5479457"><ele>209.25</ele><time>2026-03-22T11:08:05.969Z</time></trkpt><trkpt lat="43.768001" lon="12.5478912"><ele>207.0</ele><time>2026-03-22T11:08:06.97Z</time></trkpt><trkpt lat="43.7679083" lon="12.5478451"><ele>208.0</ele><time>2026-03-22T11:08:07.97Z</time></trkpt><trkpt lat="43.7678371" lon="12.5477873"><ele>209.0</ele><time>2026-03-22T11:08:08.971Z</time></trkpt><trkpt lat="43.7677881" lon="12.5477212"><ele>210.0</ele><time>2026-03-22T11:08:09.971Z</time></trkpt><trkpt lat="43.7676855" lon="12.5476172"><ele>211.0</ele><time>2026-03-22T11:08:11.969Z</time></trkpt><trkpt lat="43.7676089" lon="12.5475941"><ele>212.0</ele><time>2026-03-22T11:08:12.971Z</time></trkpt><trkpt lat="43.7675142" lon="12.5475739"><ele>212.0</ele><time>2026-03-22T11:08:13.971Z</time></trkpt><trkpt lat="43.7674076" lon="12.5475298"><ele>212.0</ele><time>2026-03-22T11:08:14.971Z</time></trkpt><trkpt lat="43.7672961" lon="12.5474652"><ele>212.0</ele><time>2026-03-22T11:08:15.97Z</time></trkpt><trkpt lat="43.767182" lon="12.5474218"><ele>212.0</ele><time>2026-03-22T11:08:16.97Z</time></trkpt><trkpt lat="43.7670686" lon="12.5474121"><ele>212.0</ele><time>2026-03-22T11:08:17.971Z</time></trkpt><trkpt lat="43.7669526" lon="12.547432"><ele>212.0</ele><time>2026-03-22T11:08:18.97Z</time></trkpt><trkpt lat="43.7668342" lon="12.5474734"><ele>212.0</ele><time>2026-03-22T11:08:19.971Z</time></trkpt><trkpt lat="43.7667142" lon="12.5475184"><ele>212.0</ele><time>2026-03-22T11:08:20.971Z</time></trkpt><trkpt lat="43.7665901" lon="12.5475655"><ele>209.75</ele><time>2026-03-22T11:08:21.969Z</time></trkpt><trkpt lat="43.7664638" lon="12.5476182"><ele>207.5</ele><time>2026-03-22T11:08:22.97Z</time></trkpt><trkpt lat="43.7663451" lon="12.5476769"><ele>205.25</ele><time>2026-03-22T11:08:23.971Z</time></trkpt><trkpt lat="43.766231" lon="12.5477493"><ele>203.0</ele><time>2026-03-22T11:08:24.971Z</time></trkpt><trkpt lat="43.7661149" lon="12.5478303"><ele>199.0</ele><time>2026-03-22T11:08:25.97Z</time></trkpt><trkpt lat="43.7660002" lon="12.5479164"><ele>195.0</ele><time>2026-03-22T11:08:26.971Z</time></trkpt><trkpt lat="43.7658945" lon="12.5480041"><ele>191.0</ele><time>2026-03-22T11:08:27.971Z</time></trkpt><trkpt lat="43.7657894" lon="12.5480783"><ele>187.0</ele><time>2026-03-22T11:08:28.971Z</time></trkpt><trkpt lat="43.7656681" lon="12.5481319"><ele>187.0</ele><time>2026-03-22T11:08:29.969Z</time></trkpt><trkpt lat="43.7655301" lon="12.5481668"><ele>187.0</ele><time>2026-03-22T11:08:30.971Z</time></trkpt><trkpt lat="43.7653827" lon="12.5481884"><ele>187.0</ele><time>2026-03-22T11:08:31.971Z</time></trkpt><trkpt lat="43.7652277" lon="12.5482071"><ele>187.0</ele><time>2026-03-22T11:08:32.971Z</time></trkpt><trkpt lat="43.7650695" lon="12.5482257"><ele>187.5</ele><time>2026-03-22T11:08:33.971Z</time></trkpt><trkpt lat="43.7649199" lon="12.548244"><ele>188.0</ele><time>2026-03-22T11:08:34.971Z</time></trkpt><trkpt lat="43.764779" lon="12.5482551"><ele>188.5</ele><time>2026-03-22T11:08:35.97Z</time></trkpt><trkpt lat="43.764639" lon="12.5482338"><ele>189.0</ele><time>2026-03-22T11:08:36.971Z</time></trkpt><trkpt lat="43.7644975" lon="12.5481731"><ele>188.33333333333334</ele><time>2026-03-22T11:08:37.971Z</time></trkpt><trkpt lat="43.7643558" lon="12.5480833"><ele>187.66666666666669</ele><time>2026-03-22T11:08:38.97Z</time></trkpt><trkpt lat="43.7642125" lon="12.5479795"><ele>187.0</ele><time>2026-03-22T11:08:39.971Z</time></trkpt><trkpt lat="43.7640664" lon="12.5478681"><ele>187.0</ele><time>2026-03-22T11:08:40.969Z</time></trkpt><trkpt lat="43.763916" lon="12.547752"><ele>187.0</ele><time>2026-03-22T11:08:41.97Z</time></trkpt><trkpt lat="43.7637607" lon="12.5476351"><ele>187.0</ele><time>2026-03-22T11:08:42.97Z</time></trkpt><trkpt lat="43.7636059" lon="12.54753"><ele>188.25</ele><time>2026-03-22T11:08:43.97Z</time></trkpt><trkpt lat="43.763459" lon="12.5474498"><ele>189.5</ele><time>2026-03-22T11:08:44.97Z</time></trkpt><trkpt lat="43.7633204" lon="12.5473889"><ele>190.75</ele><time>2026-03-22T11:08:45.97Z</time></trkpt><trkpt lat="43.7631844" lon="12.5473386"><ele>192.0</ele><time>2026-03-22T11:08:46.971Z</time></trkpt><trkpt lat="43.7630526" lon="12.5472753"><ele>192.0</ele><time>2026-03-22T11:08:47.97Z</time></trkpt><trkpt lat="43.7629332" lon="12.5471876"><ele>192.0</ele><time>2026-03-22T11:08:48.971Z</time></trkpt><trkpt lat="43.762822" lon="12.5470837"><ele>192.0</ele><time>2026-03-22T11:08:49.97Z</time></trkpt><trkpt lat="43.7627096" lon="12.5469801"><ele>192.0</ele><time>2026-03-22T11:08:50.971Z</time></trkpt><trkpt lat="43.7626091" lon="12.5468836"><ele>194.6</ele><time>2026-03-22T11:08:51.97Z</time></trkpt><trkpt lat="43.762516" lon="12.5468155"><ele>197.2</ele><time>2026-03-22T11:08:52.97Z</time></trkpt><trkpt lat="43.7624317" lon="12.5467699"><ele>199.8</ele><time>2026-03-22T11:08:53.971Z</time></trkpt><trkpt lat="43.7623598" lon="12.5467434"><ele>202.4</ele><time>2026-03-22T11:08:54.969Z</time></trkpt><trkpt lat="43.7622587" lon="12.5467008"><ele>205.0</ele><time>2026-03-22T11:08:56.969Z</time></trkpt><trkpt lat="43.7622102" lon="12.5465339"><ele>205.0</ele><time>2026-03-22T11:08:58.971Z</time></trkpt><trkpt lat="43.7621965" lon="12.5463856"><ele>205.0</ele><time>2026-03-22T11:08:59.97Z</time></trkpt><trkpt lat="43.7621778" lon="12.546203"><ele>205.0</ele><time>2026-03-22T11:09:00.97Z</time></trkpt><trkpt lat="43.7621419" lon="12.5460209"><ele>205.0</ele><time>2026-03-22T11:09:01.97Z</time></trkpt><trkpt lat="43.7620918" lon="12.5458428"><ele>204.66666666666666</ele><time>2026-03-22T11:09:02.97Z</time></trkpt><trkpt lat="43.76202" lon="12.5456659"><ele>204.33333333333331</ele><time>2026-03-22T11:09:03.971Z</time></trkpt><trkpt lat="43.7619335" lon="12.5454901"><ele>204.0</ele><time>2026-03-22T11:09:04.97Z</time></trkpt><trkpt lat="43.7618478" lon="12.5453122"><ele>204.0</ele><time>2026-03-22T11:09:05.971Z</time></trkpt><trkpt lat="43.7617604" lon="12.5451326"><ele>204.0</ele><time>2026-03-22T11:09:06.97Z</time></trkpt><trkpt lat="43.7616684" lon="12.5449552"><ele>204.0</ele><time>2026-03-22T11:09:07.971Z</time></trkpt><trkpt lat="43.7615707" lon="12.5447654"><ele>204.0</ele><time>2026-03-22T11:09:08.97Z</time></trkpt><trkpt lat="43.761471" lon="12.5445695"><ele>204.0</ele><time>2026-03-22T11:09:09.97Z</time></trkpt><trkpt lat="43.7613659" lon="12.544373"><ele>204.0</ele><time>2026-03-22T11:09:10.971Z</time></trkpt><trkpt lat="43.7612688" lon="12.544193"><ele>203.66666666666669</ele><time>2026-03-22T11:09:11.971Z</time></trkpt><trkpt lat="43.7611748" lon="12.5440109"><ele>203.33333333333334</ele><time>2026-03-22T11:09:12.971Z</time></trkpt><trkpt lat="43.7610826" lon="12.5438367"><ele>203.0</ele><time>2026-03-22T11:09:13.97Z</time></trkpt><trkpt lat="43.7609863" lon="12.5436543"><ele>203.0</ele><time>2026-03-22T11:09:14.97Z</time></trkpt><trkpt lat="43.7608791" lon="12.5434622"><ele>203.0</ele><time>2026-03-22T11:09:15.971Z</time></trkpt><trkpt lat="43.7607807" lon="12.5432852"><ele>203.0</ele><time>2026-03-22T11:09:16.971Z</time></trkpt><trkpt lat="43.7606833" lon="12.5431119"><ele>203.0</ele><time>2026-03-22T11:09:17.971Z</time></trkpt><trkpt lat="43.7605901" lon="12.542938"><ele>203.0</ele><time>2026-03-22T11:09:18.97Z</time></trkpt><trkpt lat="43.7604999" lon="12.5427866"><ele>203.0</ele><time>2026-03-22T11:09:19.971Z</time></trkpt><trkpt lat="43.7603866" lon="12.542647"><ele>204.66666666666669</ele><time>2026-03-22T11:09:20.971Z</time></trkpt><trkpt lat="43.7602898" lon="12.5424999"><ele>206.33333333333331</ele><time>2026-03-22T11:09:21.97Z</time></trkpt><trkpt lat="43.7601409" lon="12.5423925"><ele>208.0</ele><time>2026-03-22T11:09:22.97Z</time></trkpt><trkpt lat="43.7600092" lon="12.5422633"><ele>208.0</ele><time>2026-03-22T11:09:23.971Z</time></trkpt><trkpt lat="43.75987" lon="12.5421387"><ele>208.0</ele><time>2026-03-22T11:09:24.971Z</time></trkpt><trkpt lat="43.7597291" lon="12.5420055"><ele>208.0</ele><time>2026-03-22T11:09:25.97Z</time></trkpt><trkpt lat="43.7595759" lon="12.5418715"><ele>210.33333333333331</ele><time>2026-03-22T11:09:26.97Z</time></trkpt><trkpt lat="43.7594113" lon="12.5417243"><ele>212.66666666666669</ele><time>2026-03-22T11:09:27.969Z</time></trkpt><trkpt lat="43.759228" lon="12.5415629"><ele>215.0</ele><time>2026-03-22T11:09:28.97Z</time></trkpt><trkpt lat="43.7590283" lon="12.5413927"><ele>215.0</ele><time>2026-03-22T11:09:29.971Z</time></trkpt><trkpt lat="43.7588581" lon="12.5412485"><ele>215.0</ele><time>2026-03-22T11:09:30.969Z</time></trkpt><trkpt lat="43.758708" lon="12.5411176"><ele>215.0</ele><time>2026-03-22T11:09:31.971Z</time></trkpt><trkpt lat="43.7585731" lon="12.5409944"><ele>215.66666666666669</ele><time>2026-03-22T11:09:32.97Z</time></trkpt><trkpt lat="43.7584475" lon="12.5408619"><ele>216.33333333333331</ele><time>2026-03-22T11:09:33.97Z</time></trkpt><trkpt lat="43.7583329" lon="12.5407046"><ele>217.0</ele><time>2026-03-22T11:09:34.97Z</time></trkpt><trkpt lat="43.7582371" lon="12.5405278"><ele>213.0</ele><time>2026-03-22T11:09:35.97Z</time></trkpt><trkpt lat="43.7581531" lon="12.5403265"><ele>209.0</ele><time>2026-03-22T11:09:36.971Z</time></trkpt><trkpt lat="43.7580864" lon="12.5401218"><ele>205.0</ele><time>2026-03-22T11:09:37.97Z</time></trkpt><trkpt lat="43.758027" lon="12.5399292"><ele>205.0</ele><time>2026-03-22T11:09:38.97Z</time></trkpt><trkpt lat="43.7579696" lon="12.5397347"><ele>205.0</ele><time>2026-03-22T11:09:39.97Z</time></trkpt><trkpt lat="43.7579167" lon="12.5395365"><ele>205.0</ele><time>2026-03-22T11:09:40.971Z</time></trkpt><trkpt lat="43.7578712" lon="12.5393452"><ele>203.0</ele><time>2026-03-22T11:09:41.97Z</time></trkpt><trkpt lat="43.7578343" lon="12.5391472"><ele>201.0</ele><time>2026-03-22T11:09:42.97Z</time></trkpt><trkpt lat="43.7578104" lon="12.5389462"><ele>199.0</ele><time>2026-03-22T11:09:43.969Z</time></trkpt><trkpt lat="43.7577893" lon="12.5387483"><ele>197.0</ele><time>2026-03-22T11:09:44.97Z</time></trkpt><trkpt lat="43.7577654" lon="12.538566"><ele>197.0</ele><time>2026-03-22T11:09:45.97Z</time></trkpt><trkpt lat="43.7577449" lon="12.5383937"><ele>197.0</ele><time>2026-03-22T11:09:46.969Z</time></trkpt><trkpt lat="43.7577173" lon="12.5382366"><ele>197.0</ele><time>2026-03-22T11:09:47.971Z</time></trkpt><trkpt lat="43.7576806" lon="12.5380917"><ele>197.0</ele><time>2026-03-22T11:09:48.971Z</time></trkpt><trkpt lat="43.7576382" lon="12.5379337"><ele>199.33333333333334</ele><time>2026-03-22T11:09:49.97Z</time></trkpt><trkpt lat="43.7574773" lon="12.5378057"><ele>201.66666666666669</ele><time>2026-03-22T11:09:50.97Z</time></trkpt><trkpt lat="43.7573556" lon="12.5376545"><ele>204.0</ele><time>2026-03-22T11:09:51.971Z</time></trkpt><trkpt lat="43.7572499" lon="12.5375364"><ele>204.0</ele><time>2026-03-22T11:09:52.971Z</time></trkpt><trkpt lat="43.7571399" lon="12.537439"><ele>204.0</ele><time>2026-03-22T11:09:53.97Z</time></trkpt><trkpt lat="43.7569999" lon="12.5373837"><ele>204.0</ele><time>2026-03-22T11:09:54.97Z</time></trkpt><trkpt lat="43.756862" lon="12.5373487"><ele>204.0</ele><time>2026-03-22T11:09:55.971Z</time></trkpt><trkpt lat="43.756717" lon="12.537327"><ele>203.66666666666669</ele><time>2026-03-22T11:09:56.971Z</time></trkpt><trkpt lat="43.7565518" lon="12.5373074"><ele>203.33333333333334</ele><time>2026-03-22T11:09:57.97Z</time></trkpt><trkpt lat="43.7563681" lon="12.5372898"><ele>203.0</ele><time>2026-03-22T11:09:58.971Z</time></trkpt><trkpt lat="43.7561792" lon="12.53727"><ele>202.75</ele><time>2026-03-22T11:09:59.97Z</time></trkpt><trkpt lat="43.7560336" lon="12.5372602"><ele>202.5</ele><time>2026-03-22T11:10:00.971Z</time></trkpt><trkpt lat="43.7558964" lon="12.537227"><ele>202.25</ele><time>2026-03-22T11:10:01.97Z</time></trkpt><trkpt lat="43.7557662" lon="12.5371691"><ele>202.0</ele><time>2026-03-22T11:10:02.97Z</time></trkpt><trkpt lat="43.7556395" lon="12.53707"><ele>205.25</ele><time>2026-03-22T11:10:03.971Z</time></trkpt><trkpt lat="43.7555187" lon="12.5369469"><ele>208.5</ele><time>2026-03-22T11:10:04.97Z</time></trkpt><trkpt lat="43.7554088" lon="12.5368322"><ele>211.75</ele><time>2026-03-22T11:10:05.97Z</time></trkpt><trkpt lat="43.7553077" lon="12.5366929"><ele>215.0</ele><time>2026-03-22T11:10:06.971Z</time></trkpt><trkpt lat="43.7552128" lon="12.5365427"><ele>216.75</ele><time>2026-03-22T11:10:07.969Z</time></trkpt><trkpt lat="43.7550996" lon="12.5364116"><ele>218.5</ele><time>2026-03-22T11:10:08.97Z</time></trkpt><trkpt lat="43.7549797" lon="12.5363126"><ele>220.25</ele><time>2026-03-22T11:10:09.971Z</time></trkpt><trkpt lat="43.7548537" lon="12.5362262"><ele>222.0</ele><time>2026-03-22T11:10:10.97Z</time></trkpt><trkpt lat="43.7547231" lon="12.5361493"><ele>222.0</ele><time>2026-03-22T11:10:11.971Z</time></trkpt><trkpt lat="43.7545932" lon="12.5360845"><ele>222.0</ele><time>2026-03-22T11:10:12.969Z</time></trkpt><trkpt lat="43.7544511" lon="12.5360398"><ele>222.0</ele><time>2026-03-22T11:10:13.971Z</time></trkpt><trkpt lat="43.7543087" lon="12.5360218"><ele>222.0</ele><time>2026-03-22T11:10:14.969Z</time></trkpt><trkpt lat="43.7541765" lon="12.5360289"><ele>220.0</ele><time>2026-03-22T11:10:15.97Z</time></trkpt><trkpt lat="43.7540419" lon="12.5360417"><ele>218.0</ele><time>2026-03-22T11:10:16.97Z</time></trkpt><trkpt lat="43.7539042" lon="12.5360547"><ele>216.0</ele><time>2026-03-22T11:10:17.97Z</time></trkpt><trkpt lat="43.7537738" lon="12.5360567"><ele>214.0</ele><time>2026-03-22T11:10:18.971Z</time></trkpt><trkpt lat="43.7536516" lon="12.5360416"><ele>212.5</ele><time>2026-03-22T11:10:19.97Z</time></trkpt><trkpt lat="43.753537" lon="12.5360044"><ele>211.0</ele><time>2026-03-22T11:10:20.97Z</time></trkpt><trkpt lat="43.7534257" lon="12.5359347"><ele>209.5</ele><time>2026-03-22T11:10:21.971Z</time></trkpt><trkpt lat="43.7533103" lon="12.5358365"><ele>208.0</ele><time>2026-03-22T11:10:22.97Z</time></trkpt><trkpt lat="43.7531993" lon="12.5357259"><ele>208.0</ele><time>2026-03-22T11:10:23.97Z</time></trkpt><trkpt lat="43.7530874" lon="12.5355957"><ele>208.0</ele><time>2026-03-22T11:10:24.971Z</time></trkpt><trkpt lat="43.7529937" lon="12.5354484"><ele>208.0</ele><time>2026-03-22T11:10:25.971Z</time></trkpt><trkpt lat="43.7529144" lon="12.5352938"><ele>208.0</ele><time>2026-03-22T11:10:26.97Z</time></trkpt><trkpt lat="43.7528515" lon="12.5351223"><ele>207.25</ele><time>2026-03-22T11:10:27.969Z</time></trkpt><trkpt lat="43.7527938" lon="12.5349415"><ele>206.5</ele><time>2026-03-22T11:10:28.971Z</time></trkpt><trkpt lat="43.752737" lon="12.5347598"><ele>205.75</ele><time>2026-03-22T11:10:29.971Z</time></trkpt><trkpt lat="43.7526791" lon="12.5345674"><ele>205.0</ele><time>2026-03-22T11:10:30.971Z</time></trkpt><trkpt lat="43.7526167" lon="12.5343717"><ele>205.0</ele><time>2026-03-22T11:10:31.971Z</time></trkpt><trkpt lat="43.7525414" lon="12.53418"><ele>205.0</ele><time>2026-03-22T11:10:32.971Z</time></trkpt><trkpt lat="43.7524643" lon="12.533986"><ele>205.0</ele><time>2026-03-22T11:10:33.971Z</time></trkpt><trkpt lat="43.7523975" lon="12.5338069"><ele>206.4</ele><time>2026-03-22T11:10:34.971Z</time></trkpt><trkpt lat="43.7523441" lon="12.533661"><ele>207.8</ele><time>2026-03-22T11:10:35.97Z</time></trkpt><trkpt lat="43.7522994" lon="12.5335347"><ele>209.2</ele><time>2026-03-22T11:10:36.971Z</time></trkpt><trkpt lat="43.7522669" lon="12.5334011"><ele>210.6</ele><time>2026-03-22T11:10:37.971Z</time></trkpt><trkpt lat="43.7522538" lon="12.5332538"><ele>212.0</ele><time>2026-03-22T11:10:38.97Z</time></trkpt><trkpt lat="43.7522679" lon="12.5331105"><ele>212.0</ele><time>2026-03-22T11:10:39.971Z</time></trkpt><trkpt lat="43.7523078" lon="12.5329782"><ele>212.0</ele><time>2026-03-22T11:10:40.971Z</time></trkpt><trkpt lat="43.7523583" lon="12.5328543"><ele>212.0</ele><time>2026-03-22T11:10:41.971Z</time></trkpt><trkpt lat="43.7523884" lon="12.5327197"><ele>212.0</ele><time>2026-03-22T11:10:42.971Z</time></trkpt><trkpt lat="43.752389" lon="12.5325866"><ele>212.0</ele><time>2026-03-22T11:10:43.97Z</time></trkpt><trkpt lat="43.7523458" lon="12.5324768"><ele>214.25</ele><time>2026-03-22T11:10:44.97Z</time></trkpt><trkpt lat="43.752275" lon="12.5323824"><ele>216.5</ele><time>2026-03-22T11:10:45.969Z</time></trkpt><trkpt lat="43.7521905" lon="12.5322704"><ele>218.75</ele><time>2026-03-22T11:10:46.971Z</time></trkpt><trkpt lat="43.7520947" lon="12.5321311"><ele>221.0</ele><time>2026-03-22T11:10:47.97Z</time></trkpt><trkpt lat="43.7519858" lon="12.5319661"><ele>221.66666666666669</ele><time>2026-03-22T11:10:48.971Z</time></trkpt><trkpt lat="43.7518645" lon="12.531789"><ele>222.33333333333331</ele><time>2026-03-22T11:10:49.97Z</time></trkpt><trkpt lat="43.7517403" lon="12.5316103"><ele>223.0</ele><time>2026-03-22T11:10:50.971Z</time></trkpt><trkpt lat="43.751624" lon="12.5314458"><ele>223.0</ele><time>2026-03-22T11:10:51.97Z</time></trkpt><trkpt lat="43.751509" lon="12.5313032"><ele>223.0</ele><time>2026-03-22T11:10:52.97Z</time></trkpt><trkpt lat="43.7513867" lon="12.5311707"><ele>223.0</ele><time>2026-03-22T11:10:53.97Z</time></trkpt><trkpt lat="43.7512637" lon="12.5310398"><ele>223.33333333333331</ele><time>2026-03-22T11:10:54.971Z</time></trkpt><trkpt lat="43.7511439" lon="12.5309078"><ele>223.66666666666669</ele><time>2026-03-22T11:10:55.97Z</time></trkpt><trkpt lat="43.751024" lon="12.5307802"><ele>224.0</ele><time>2026-03-22T11:10:56.97Z</time></trkpt><trkpt lat="43.7509065" lon="12.5306613"><ele>224.0</ele><time>2026-03-22T11:10:57.971Z</time></trkpt><trkpt lat="43.7507992" lon="12.5305561"><ele>224.0</ele><time>2026-03-22T11:10:58.971Z</time></trkpt><trkpt lat="43.7506905" lon="12.5304501"><ele>224.0</ele><time>2026-03-22T11:10:59.97Z</time></trkpt><trkpt lat="43.7505777" lon="12.5303323"><ele>224.0</ele><time>2026-03-22T11:11:00.971Z</time></trkpt><trkpt lat="43.7504583" lon="12.5302074"><ele>225.33333333333334</ele><time>2026-03-22T11:11:01.971Z</time></trkpt><trkpt lat="43.7503281" lon="12.530075"><ele>226.66666666666669</ele><time>2026-03-22T11:11:02.971Z</time></trkpt><trkpt lat="43.7501894" lon="12.529933"><ele>228.0</ele><time>2026-03-22T11:11:03.971Z</time></trkpt><trkpt lat="43.7500417" lon="12.5297763"><ele>228.0</ele><time>2026-03-22T11:11:04.971Z</time></trkpt><trkpt lat="43.7498814" lon="12.5296038"><ele>228.0</ele><time>2026-03-22T11:11:05.97Z</time></trkpt><trkpt lat="43.7497237" lon="12.5294303"><ele>228.0</ele><time>2026-03-22T11:11:06.971Z</time></trkpt><trkpt lat="43.7495871" lon="12.5292867"><ele>231.33333333333331</ele><time>2026-03-22T11:11:07.971Z</time></trkpt><trkpt lat="43.7494593" lon="12.5291721"><ele>234.66666666666666</ele><time>2026-03-22T11:11:08.971Z</time></trkpt><trkpt lat="43.7493192" lon="12.5290803"><ele>238.0</ele><time>2026-03-22T11:11:09.97Z</time></trkpt><trkpt lat="43.7491549" lon="12.5289987"><ele>238.0</ele><time>2026-03-22T11:11:10.97Z</time></trkpt><trkpt lat="43.748969" lon="12.5289224"><ele>238.0</ele><time>2026-03-22T11:11:11.971Z</time></trkpt><trkpt lat="43.7487927" lon="12.528867"><ele>238.0</ele><time>2026-03-22T11:11:12.97Z</time></trkpt><trkpt lat="43.7486401" lon="12.5288378"><ele>236.0</ele><time>2026-03-22T11:11:13.969Z</time></trkpt><trkpt lat="43.7485078" lon="12.5288123"><ele>234.0</ele><time>2026-03-22T11:11:14.969Z</time></trkpt><trkpt lat="43.7483905" lon="12.5287724"><ele>232.0</ele><time>2026-03-22T11:11:15.971Z</time></trkpt><trkpt lat="43.7482723" lon="12.5287033"><ele>230.0</ele><time>2026-03-22T11:11:16.971Z</time></trkpt><trkpt lat="43.7481462" lon="12.5286015"><ele>233.25</ele><time>2026-03-22T11:11:17.971Z</time></trkpt><trkpt lat="43.7480294" lon="12.5284918"><ele>236.5</ele><time>2026-03-22T11:11:18.969Z</time></trkpt><trkpt lat="43.747915" lon="12.5283889"><ele>239.75</ele><time>2026-03-22T11:11:19.971Z</time></trkpt><trkpt lat="43.7477854" lon="12.5283101"><ele>243.0</ele><time>2026-03-22T11:11:20.97Z</time></trkpt><trkpt lat="43.7476397" lon="12.5282626"><ele>243.0</ele><time>2026-03-22T11:11:21.971Z</time></trkpt><trkpt lat="43.7474759" lon="12.5282334"><ele>243.0</ele><time>2026-03-22T11:11:22.97Z</time></trkpt><trkpt lat="43.7472975" lon="12.5282124"><ele>243.0</ele><time>2026-03-22T11:11:23.97Z</time></trkpt><trkpt lat="43.7471344" lon="12.5281839"><ele>243.0</ele><time>2026-03-22T11:11:24.97Z</time></trkpt><trkpt lat="43.7469706" lon="12.5281264"><ele>243.0</ele><time>2026-03-22T11:11:25.971Z</time></trkpt><trkpt lat="43.7468002" lon="12.5280408"><ele>243.0</ele><time>2026-03-22T11:11:26.971Z</time></trkpt><trkpt lat="43.746661" lon="12.5279438"><ele>247.0</ele><time>2026-03-22T11:11:27.97Z</time></trkpt><trkpt lat="43.7465441" lon="12.5278283"><ele>251.0</ele><time>2026-03-22T11:11:28.971Z</time></trkpt><trkpt lat="43.7464387" lon="12.527699"><ele>255.0</ele><time>2026-03-22T11:11:29.971Z</time></trkpt><trkpt lat="43.746341" lon="12.5275905"><ele>259.0</ele><time>2026-03-22T11:11:30.971Z</time></trkpt><trkpt lat="43.7462237" lon="12.5275035"><ele>259.0</ele><time>2026-03-22T11:11:31.97Z</time></trkpt><trkpt lat="43.7460874" lon="12.5274483"><ele>259.0</ele><time>2026-03-22T11:11:32.971Z</time></trkpt><trkpt lat="43.7459543" lon="12.5274182"><ele>259.0</ele><time>2026-03-22T11:11:33.97Z</time></trkpt><trkpt lat="43.7458452" lon="12.527382"><ele>259.0</ele><time>2026-03-22T11:11:34.971Z</time></trkpt><trkpt lat="43.7457515" lon="12.5273175"><ele>257.8</ele><time>2026-03-22T11:11:35.97Z</time></trkpt><trkpt lat="43.7456764" lon="12.5272304"><ele>256.59999999999997</ele><time>2026-03-22T11:11:36.97Z</time></trkpt><trkpt lat="43.7456371" lon="12.5271296"><ele>255.4</ele><time>2026-03-22T11:11:37.971Z</time></trkpt><trkpt lat="43.7456231" lon="12.5269928"><ele>254.2</ele><time>2026-03-22T11:11:38.97Z</time></trkpt><trkpt lat="43.745636" lon="12.5268273"><ele>253.0</ele><time>2026-03-22T11:11:39.971Z</time></trkpt><trkpt lat="43.7456673" lon="12.5266501"><ele>252.99999999999997</ele><time>2026-03-22T11:11:40.971Z</time></trkpt><trkpt lat="43.7456904" lon="12.5264994"><ele>253.0</ele><time>2026-03-22T11:11:41.971Z</time></trkpt><trkpt lat="43.7456991" lon="12.5263778"><ele>253.0</ele><time>2026-03-22T11:11:42.971Z</time></trkpt><trkpt lat="43.7456959" lon="12.5262686"><ele>253.0</ele><time>2026-03-22T11:11:43.971Z</time></trkpt><trkpt lat="43.7456737" lon="12.5261773"><ele>252.99999999999997</ele><time>2026-03-22T11:11:44.971Z</time></trkpt><trkpt lat="43.7456343" lon="12.5261039"><ele>253.0</ele><time>2026-03-22T11:11:45.97Z</time></trkpt><trkpt lat="43.7455871" lon="12.5260449"><ele>253.0</ele><time>2026-03-22T11:11:46.971Z</time></trkpt><trkpt lat="43.7455146" lon="12.5260174"><ele>253.0</ele><time>2026-03-22T11:11:47.97Z</time></trkpt><trkpt lat="43.7454303" lon="12.5260652"><ele>253.0</ele><time>2026-03-22T11:11:48.97Z</time></trkpt><trkpt lat="43.7453148" lon="12.5263289"><ele>253.0</ele><time>2026-03-22T11:11:49.971Z</time></trkpt><trkpt lat="43.7452297" lon="12.526488"><ele>254.2</ele><time>2026-03-22T11:11:50.971Z</time></trkpt><trkpt lat="43.7451648" lon="12.5265696"><ele>255.4</ele><time>2026-03-22T11:11:51.971Z</time></trkpt><trkpt lat="43.7450716" lon="12.526516"><ele>256.59999999999997</ele><time>2026-03-22T11:11:53.971Z</time></trkpt><trkpt lat="43.7450357" lon="12.526426"><ele>257.8</ele><time>2026-03-22T11:11:54.971Z</time></trkpt><trkpt lat="43.7449915" lon="12.5262737"><ele>259.0</ele><time>2026-03-22T11:11:55.969Z</time></trkpt><trkpt lat="43.7449307" lon="12.5261101"><ele>259.0</ele><time>2026-03-22T11:11:56.971Z</time></trkpt><trkpt lat="43.7448615" lon="12.5260024"><ele>259.0</ele><time>2026-03-22T11:11:57.969Z</time></trkpt><trkpt lat="43.7447819" lon="12.5259125"><ele>259.0</ele><time>2026-03-22T11:11:58.97Z</time></trkpt><trkpt lat="43.7446751" lon="12.5258451"><ele>259.0</ele><time>2026-03-22T11:11:59.97Z</time></trkpt><trkpt lat="43.7445247" lon="12.5257689"><ele>252.0</ele><time>2026-03-22T11:12:00.971Z</time></trkpt><trkpt lat="43.744352" lon="12.5256891"><ele>245.0</ele><time>2026-03-22T11:12:01.971Z</time></trkpt><trkpt lat="43.7442148" lon="12.5256449"><ele>238.0</ele><time>2026-03-22T11:12:02.97Z</time></trkpt><trkpt lat="43.7440849" lon="12.5255882"><ele>238.0</ele><time>2026-03-22T11:12:03.97Z</time></trkpt><trkpt lat="43.7439405" lon="12.5254909"><ele>238.0</ele><time>2026-03-22T11:12:04.971Z</time></trkpt><trkpt lat="43.7437644" lon="12.5253757"><ele>238.0</ele><time>2026-03-22T11:12:05.971Z</time></trkpt><trkpt lat="43.7435767" lon="12.5252764"><ele>242.66666666666666</ele><time>2026-03-22T11:12:06.97Z</time></trkpt><trkpt lat="43.7434045" lon="12.5251988"><ele>247.33333333333331</ele><time>2026-03-22T11:12:07.97Z</time></trkpt><trkpt lat="43.7432241" lon="12.5251487"><ele>252.0</ele><time>2026-03-22T11:12:08.97Z</time></trkpt><trkpt lat="43.7430276" lon="12.5251348"><ele>252.0</ele><time>2026-03-22T11:12:09.971Z</time></trkpt><trkpt lat="43.7428186" lon="12.5251352"><ele>252.0</ele><time>2026-03-22T11:12:10.969Z</time></trkpt><trkpt lat="43.7426524" lon="12.5251356"><ele>252.0</ele><time>2026-03-22T11:12:11.97Z</time></trkpt><trkpt lat="43.7424932" lon="12.5251279"><ele>249.25</ele><time>2026-03-22T11:12:12.97Z</time></trkpt><trkpt lat="43.7423397" lon="12.5250882"><ele>246.5</ele><time>2026-03-22T11:12:13.97Z</time></trkpt><trkpt lat="43.7422008" lon="12.5250314"><ele>243.75</ele><time>2026-03-22T11:12:14.971Z</time></trkpt><trkpt lat="43.7420759" lon="12.5249832"><ele>241.0</ele><time>2026-03-22T11:12:15.971Z</time></trkpt><trkpt lat="43.7419465" lon="12.5249372"><ele>238.25</ele><time>2026-03-22T11:12:16.971Z</time></trkpt><trkpt lat="43.7418367" lon="12.5249146"><ele>235.5</ele><time>2026-03-22T11:12:17.97Z</time></trkpt><trkpt lat="43.7417171" lon="12.524924"><ele>232.75</ele><time>2026-03-22T11:12:18.97Z</time></trkpt><trkpt lat="43.7415921" lon="12.5249515"><ele>230.0</ele><time>2026-03-22T11:12:19.971Z</time></trkpt><trkpt lat="43.741489" lon="12.524963"><ele>230.0</ele><time>2026-03-22T11:12:20.971Z</time></trkpt><trkpt lat="43.7413959" lon="12.5249367"><ele>230.0</ele><time>2026-03-22T11:12:21.971Z</time></trkpt><trkpt lat="43.7413172" lon="12.5248664"><ele>230.0</ele><time>2026-03-22T11:12:22.97Z</time></trkpt><trkpt lat="43.7412513" lon="12.5247567"><ele>230.0</ele><time>2026-03-22T11:12:23.971Z</time></trkpt><trkpt lat="43.7411963" lon="12.5246211"><ele>230.0</ele><time>2026-03-22T11:12:24.971Z</time></trkpt><trkpt lat="43.7411441" lon="12.5245189"><ele>231.4</ele><time>2026-03-22T11:12:25.972Z</time></trkpt><trkpt lat="43.7410692" lon="12.5244512"><ele>232.8</ele><time>2026-03-22T11:12:26.971Z</time></trkpt><trkpt lat="43.7409815" lon="12.5244295"><ele>234.2</ele><time>2026-03-22T11:12:27.971Z</time></trkpt><trkpt lat="43.740887" lon="12.5244471"><ele>235.6</ele><time>2026-03-22T11:12:28.971Z</time></trkpt><trkpt lat="43.740781" lon="12.5244906"><ele>237.0</ele><time>2026-03-22T11:12:29.972Z</time></trkpt><trkpt lat="43.7406852" lon="12.5244913"><ele>237.0</ele><time>2026-03-22T11:12:30.972Z</time></trkpt><trkpt lat="43.7405907" lon="12.5244251"><ele>237.0</ele><time>2026-03-22T11:12:31.971Z</time></trkpt><trkpt lat="43.7404719" lon="12.524312"><ele>237.0</ele><time>2026-03-22T11:12:32.971Z</time></trkpt><trkpt lat="43.7403308" lon="12.5241712"><ele>237.0</ele><time>2026-03-22T11:12:33.971Z</time></trkpt><trkpt lat="43.7401909" lon="12.5240491"><ele>235.25</ele><time>2026-03-22T11:12:34.972Z</time></trkpt><trkpt lat="43.7400621" lon="12.5239612"><ele>233.5</ele><time>2026-03-22T11:12:35.972Z</time></trkpt><trkpt lat="43.7399299" lon="12.5238933"><ele>231.75</ele><time>2026-03-22T11:12:36.972Z</time></trkpt><trkpt lat="43.7397968" lon="12.5238503"><ele>230.0</ele><time>2026-03-22T11:12:37.971Z</time></trkpt><trkpt lat="43.7396888" lon="12.5238218"><ele>230.00000000000003</ele><time>2026-03-22T11:12:38.972Z</time></trkpt><trkpt lat="43.7396067" lon="12.5237826"><ele>230.0</ele><time>2026-03-22T11:12:39.972Z</time></trkpt><trkpt lat="43.7395262" lon="12.5237311"><ele>230.0</ele><time>2026-03-22T11:12:40.971Z</time></trkpt><trkpt lat="43.7394494" lon="12.5236937"><ele>230.0</ele><time>2026-03-22T11:12:41.972Z</time></trkpt><trkpt lat="43.7393684" lon="12.5236722"><ele>230.00000000000003</ele><time>2026-03-22T11:12:42.971Z</time></trkpt><trkpt lat="43.7393015" lon="12.5237344"><ele>230.0</ele><time>2026-03-22T11:12:43.972Z</time></trkpt><trkpt lat="43.7392084" lon="12.5238826"><ele>230.2</ele><time>2026-03-22T11:12:44.972Z</time></trkpt><trkpt lat="43.7391101" lon="12.5239632"><ele>230.4</ele><time>2026-03-22T11:12:45.971Z</time></trkpt><trkpt lat="43.7390124" lon="12.5239881"><ele>230.60000000000002</ele><time>2026-03-22T11:12:46.971Z</time></trkpt><trkpt lat="43.7389204" lon="12.5239773"><ele>230.8</ele><time>2026-03-22T11:12:47.972Z</time></trkpt><trkpt lat="43.7388296" lon="12.5239299"><ele>231.0</ele><time>2026-03-22T11:12:48.972Z</time></trkpt><trkpt lat="43.7387383" lon="12.5238419"><ele>233.25</ele><time>2026-03-22T11:12:49.971Z</time></trkpt><trkpt lat="43.7386414" lon="12.5237218"><ele>235.5</ele><time>2026-03-22T11:12:50.972Z</time></trkpt><trkpt lat="43.7385388" lon="12.5235997"><ele>237.75</ele><time>2026-03-22T11:12:51.972Z</time></trkpt><trkpt lat="43.7384443" lon="12.5234924"><ele>240.0</ele><time>2026-03-22T11:12:52.972Z</time></trkpt><trkpt lat="43.7383671" lon="12.5233769"><ele>240.0</ele><time>2026-03-22T11:12:53.971Z</time></trkpt><trkpt lat="43.7383122" lon="12.5232423"><ele>240.0</ele><time>2026-03-22T11:12:54.971Z</time></trkpt><trkpt lat="43.7382807" lon="12.5230948"><ele>240.0</ele><time>2026-03-22T11:12:55.971Z</time></trkpt><trkpt lat="43.738271" lon="12.5229387"><ele>240.0</ele><time>2026-03-22T11:12:56.972Z</time></trkpt><trkpt lat="43.7382561" lon="12.5227904"><ele>240.0</ele><time>2026-03-22T11:12:57.972Z</time></trkpt><trkpt lat="43.7382291" lon="12.5226544"><ele>243.75</ele><time>2026-03-22T11:12:58.97Z</time></trkpt><trkpt lat="43.7381824" lon="12.5225328"><ele>247.5</ele><time>2026-03-22T11:12:59.972Z</time></trkpt><trkpt lat="43.738083" lon="12.5224357"><ele>251.25</ele><time>2026-03-22T11:13:00.971Z</time></trkpt><trkpt lat="43.7378859" lon="12.5224755"><ele>255.0</ele><time>2026-03-22T11:13:01.972Z</time></trkpt><trkpt lat="43.7377231" lon="12.5224845"><ele>252.5</ele><time>2026-03-22T11:13:02.972Z</time></trkpt><trkpt lat="43.7375788" lon="12.5224973"><ele>250.0</ele><time>2026-03-22T11:13:03.971Z</time></trkpt><trkpt lat="43.7374606" lon="12.5225022"><ele>247.5</ele><time>2026-03-22T11:13:04.972Z</time></trkpt><trkpt lat="43.737352" lon="12.5224946"><ele>245.0</ele><time>2026-03-22T11:13:05.972Z</time></trkpt><trkpt lat="43.737255" lon="12.5224546"><ele>245.0</ele><time>2026-03-22T11:13:06.971Z</time></trkpt><trkpt lat="43.737174" lon="12.5223772"><ele>245.0</ele><time>2026-03-22T11:13:07.972Z</time></trkpt><trkpt lat="43.7371066" lon="12.5222574"><ele>245.0</ele><time>2026-03-22T11:13:08.972Z</time></trkpt><trkpt lat="43.7370214" lon="12.5221039"><ele>245.0</ele><time>2026-03-22T11:13:09.972Z</time></trkpt><trkpt lat="43.7369229" lon="12.5219488"><ele>244.0</ele><time>2026-03-22T11:13:10.972Z</time></trkpt><trkpt lat="43.7368131" lon="12.5217819"><ele>243.0</ele><time>2026-03-22T11:13:11.972Z</time></trkpt><trkpt lat="43.736621" lon="12.5217085"><ele>242.0</ele><time>2026-03-22T11:13:12.972Z</time></trkpt><trkpt lat="43.7364731" lon="12.5216246"><ele>242.0</ele><time>2026-03-22T11:13:13.972Z</time></trkpt><trkpt lat="43.7363573" lon="12.5215464"><ele>242.0</ele><time>2026-03-22T11:13:14.972Z</time></trkpt><trkpt lat="43.7362735" lon="12.5214743"><ele>242.0</ele><time>2026-03-22T11:13:15.971Z</time></trkpt><trkpt lat="43.7362239" lon="12.5214079"><ele>242.0</ele><time>2026-03-22T11:13:16.972Z</time></trkpt><trkpt lat="43.736209" lon="12.5212125"><ele>242.0</ele><time>2026-03-22T11:13:18.972Z</time></trkpt><trkpt lat="43.7362215" lon="12.5210758"><ele>244.39999999999998</ele><time>2026-03-22T11:13:19.972Z</time></trkpt><trkpt lat="43.7362293" lon="12.5209374"><ele>246.79999999999998</ele><time>2026-03-22T11:13:20.972Z</time></trkpt><trkpt lat="43.7362286" lon="12.5207917"><ele>249.2</ele><time>2026-03-22T11:13:21.972Z</time></trkpt><trkpt lat="43.7362111" lon="12.5206337"><ele>251.6</ele><time>2026-03-22T11:13:22.972Z</time></trkpt><trkpt lat="43.7361769" lon="12.5204783"><ele>254.0</ele><time>2026-03-22T11:13:23.971Z</time></trkpt><trkpt lat="43.7360755" lon="12.5203716"><ele>254.33333333333334</ele><time>2026-03-22T11:13:24.972Z</time></trkpt><trkpt lat="43.7359625" lon="12.5202685"><ele>254.66666666666669</ele><time>2026-03-22T11:13:25.972Z</time></trkpt><trkpt lat="43.7357659" lon="12.5202648"><ele>255.0</ele><time>2026-03-22T11:13:26.971Z</time></trkpt><trkpt lat="43.7356213" lon="12.5202128"><ele>255.0</ele><time>2026-03-22T11:13:27.971Z</time></trkpt><trkpt lat="43.7355053" lon="12.5201707"><ele>255.0</ele><time>2026-03-22T11:13:28.972Z</time></trkpt><trkpt lat="43.7353901" lon="12.5201579"><ele>255.0</ele><time>2026-03-22T11:13:29.971Z</time></trkpt><trkpt lat="43.735279" lon="12.5202688"><ele>255.0</ele><time>2026-03-22T11:13:30.971Z</time></trkpt><trkpt lat="43.7351768" lon="12.5203641"><ele>250.75</ele><time>2026-03-22T11:13:31.972Z</time></trkpt><trkpt lat="43.7350872" lon="12.5204474"><ele>246.5</ele><time>2026-03-22T11:13:32.972Z</time></trkpt><trkpt lat="43.7349861" lon="12.5205661"><ele>242.25</ele><time>2026-03-22T11:13:33.972Z</time></trkpt><trkpt lat="43.7349455" lon="12.5207787"><ele>238.0</ele><time>2026-03-22T11:13:34.971Z</time></trkpt><trkpt lat="43.7348864" lon="12.5209441"><ele>238.0</ele><time>2026-03-22T11:13:35.972Z</time></trkpt><trkpt lat="43.7347966" lon="12.5210608"><ele>238.0</ele><time>2026-03-22T11:13:36.972Z</time></trkpt><trkpt lat="43.7346849" lon="12.5211435"><ele>238.0</ele><time>2026-03-22T11:13:37.971Z</time></trkpt><trkpt lat="43.7345707" lon="12.5211867"><ele>238.0</ele><time>2026-03-22T11:13:38.971Z</time></trkpt><trkpt lat="43.7344335" lon="12.5212387"><ele>239.33333333333331</ele><time>2026-03-22T11:13:39.971Z</time></trkpt><trkpt lat="43.7342578" lon="12.5212856"><ele>240.66666666666669</ele><time>2026-03-22T11:13:40.971Z</time></trkpt><trkpt lat="43.7340633" lon="12.5212408"><ele>242.0</ele><time>2026-03-22T11:13:41.971Z</time></trkpt><trkpt lat="43.7339114" lon="12.5212404"><ele>241.0</ele><time>2026-03-22T11:13:42.971Z</time></trkpt><trkpt lat="43.7337662" lon="12.5212032"><ele>240.0</ele><time>2026-03-22T11:13:43.972Z</time></trkpt><trkpt lat="43.733606" lon="12.5211308"><ele>239.0</ele><time>2026-03-22T11:13:44.972Z</time></trkpt><trkpt lat="43.7334118" lon="12.5210206"><ele>239.0</ele><time>2026-03-22T11:13:45.972Z</time></trkpt><trkpt lat="43.7332388" lon="12.5208946"><ele>239.0</ele><time>2026-03-22T11:13:46.971Z</time></trkpt><trkpt lat="43.7330662" lon="12.5207699"><ele>239.0</ele><time>2026-03-22T11:13:47.972Z</time></trkpt><trkpt lat="43.7328959" lon="12.5206348"><ele>239.0</ele><time>2026-03-22T11:13:48.971Z</time></trkpt><trkpt lat="43.7327283" lon="12.520441"><ele>239.0</ele><time>2026-03-22T11:13:49.97Z</time></trkpt><trkpt lat="43.7325973" lon="12.5202598"><ele>239.0</ele><time>2026-03-22T11:13:50.972Z</time></trkpt><trkpt lat="43.7324808" lon="12.5200996"><ele>241.75</ele><time>2026-03-22T11:13:51.97Z</time></trkpt><trkpt lat="43.7323867" lon="12.5199578"><ele>244.5</ele><time>2026-03-22T11:13:52.971Z</time></trkpt><trkpt lat="43.7322917" lon="12.5198348"><ele>247.25</ele><time>2026-03-22T11:13:53.972Z</time></trkpt><trkpt lat="43.7321789" lon="12.5197436"><ele>250.0</ele><time>2026-03-22T11:13:54.972Z</time></trkpt><trkpt lat="43.7320705" lon="12.519645"><ele>250.0</ele><time>2026-03-22T11:13:55.971Z</time></trkpt><trkpt lat="43.7319575" lon="12.5195679"><ele>250.0</ele><time>2026-03-22T11:13:56.972Z</time></trkpt><trkpt lat="43.7318611" lon="12.5195611"><ele>250.0</ele><time>2026-03-22T11:13:57.972Z</time></trkpt><trkpt lat="43.7317965" lon="12.5194742"><ele>250.0</ele><time>2026-03-22T11:13:58.971Z</time></trkpt><trkpt lat="43.7317462" lon="12.5193598"><ele>250.0</ele><time>2026-03-22T11:13:59.971Z</time></trkpt><trkpt lat="43.7317117" lon="12.5191911"><ele>248.8</ele><time>2026-03-22T11:14:00.971Z</time></trkpt><trkpt lat="43.7316772" lon="12.5190334"><ele>247.6</ele><time>2026-03-22T11:14:01.971Z</time></trkpt><trkpt lat="43.731636" lon="12.5189022"><ele>246.39999999999998</ele><time>2026-03-22T11:14:02.971Z</time></trkpt><trkpt lat="43.7316044" lon="12.5187879"><ele>245.2</ele><time>2026-03-22T11:14:03.971Z</time></trkpt><trkpt lat="43.7315203" lon="12.5187677"><ele>244.0</ele><time>2026-03-22T11:14:04.972Z</time></trkpt><trkpt lat="43.7314529" lon="12.5187268"><ele>244.0</ele><time>2026-03-22T11:14:05.971Z</time></trkpt><trkpt lat="43.7313663" lon="12.5187276"><ele>244.0</ele><time>2026-03-22T11:14:06.971Z</time></trkpt><trkpt lat="43.7312255" lon="12.5188023"><ele>244.0</ele><time>2026-03-22T11:14:07.972Z</time></trkpt><trkpt lat="43.7310625" lon="12.5189752"><ele>244.0</ele><time>2026-03-22T11:14:08.972Z</time></trkpt><trkpt lat="43.7309609" lon="12.5190131"><ele>244.0</ele><time>2026-03-22T11:14:09.971Z</time></trkpt><trkpt lat="43.7308643" lon="12.5190288"><ele>243.99999999999997</ele><time>2026-03-22T11:14:10.971Z</time></trkpt><trkpt lat="43.7307766" lon="12.5189934"><ele>243.99999999999997</ele><time>2026-03-22T11:14:11.971Z</time></trkpt><trkpt lat="43.7307046" lon="12.5189149"><ele>244.0</ele><time>2026-03-22T11:14:12.971Z</time></trkpt><trkpt lat="43.7306522" lon="12.5187967"><ele>244.0</ele><time>2026-03-22T11:14:13.972Z</time></trkpt><trkpt lat="43.7305915" lon="12.5186377"><ele>245.79999999999998</ele><time>2026-03-22T11:14:14.971Z</time></trkpt><trkpt lat="43.7305405" lon="12.5184933"><ele>247.59999999999997</ele><time>2026-03-22T11:14:15.971Z</time></trkpt><trkpt lat="43.7304987" lon="12.5183745"><ele>249.4</ele><time>2026-03-22T11:14:16.972Z</time></trkpt><trkpt lat="43.7304591" lon="12.5182749"><ele>251.2</ele><time>2026-03-22T11:14:17.972Z</time></trkpt><trkpt lat="43.7303672" lon="12.518208"><ele>253.0</ele><time>2026-03-22T11:14:19.971Z</time></trkpt><trkpt lat="43.7302828" lon="12.5182879"><ele>251.4</ele><time>2026-03-22T11:14:21.971Z</time></trkpt><trkpt lat="43.7302216" lon="12.5183778"><ele>249.8</ele><time>2026-03-22T11:14:22.97Z</time></trkpt><trkpt lat="43.7301268" lon="12.5183596"><ele>248.2</ele><time>2026-03-22T11:14:24.972Z</time></trkpt><trkpt lat="43.7300377" lon="12.5182564"><ele>246.6</ele><time>2026-03-22T11:14:26.972Z</time></trkpt><trkpt lat="43.7299818" lon="12.5181862"><ele>245.0</ele><time>2026-03-22T11:14:27.972Z</time></trkpt><trkpt lat="43.72991" lon="12.5181228"><ele>245.00000000000003</ele><time>2026-03-22T11:14:28.972Z</time></trkpt><trkpt lat="43.7298254" lon="12.5180478"><ele>245.0</ele><time>2026-03-22T11:14:29.972Z</time></trkpt><trkpt lat="43.729748" lon="12.5179906"><ele>245.0</ele><time>2026-03-22T11:14:30.972Z</time></trkpt><trkpt lat="43.7296852" lon="12.5179525"><ele>245.0</ele><time>2026-03-22T11:14:31.97Z</time></trkpt><trkpt lat="43.7295985" lon="12.5179123"><ele>245.00000000000003</ele><time>2026-03-22T11:14:33.971Z</time></trkpt><trkpt lat="43.7295395" lon="12.5178762"><ele>245.0</ele><time>2026-03-22T11:14:48.972Z</time></trkpt><trkpt lat="43.7294291" lon="12.517853"><ele>245.16666666666669</ele><time>2026-03-22T11:14:50.971Z</time></trkpt><trkpt lat="43.7293418" lon="12.5178551"><ele>245.33333333333334</ele><time>2026-03-22T11:14:51.972Z</time></trkpt><trkpt lat="43.7292687" lon="12.517874"><ele>245.5</ele><time>2026-03-22T11:14:52.971Z</time></trkpt><trkpt lat="43.729208" lon="12.5179148"><ele>245.66666666666669</ele><time>2026-03-22T11:14:53.971Z</time></trkpt><trkpt lat="43.7291447" lon="12.5179863"><ele>245.83333333333334</ele><time>2026-03-22T11:14:54.972Z</time></trkpt><trkpt lat="43.7290991" lon="12.5180945"><ele>246.0</ele><time>2026-03-22T11:14:55.972Z</time></trkpt><trkpt lat="43.7290615" lon="12.5182184"><ele>246.25</ele><time>2026-03-22T11:14:56.972Z</time></trkpt><trkpt lat="43.7290243" lon="12.5183712"><ele>246.5</ele><time>2026-03-22T11:14:57.972Z</time></trkpt><trkpt lat="43.7289823" lon="12.5185307"><ele>246.75</ele><time>2026-03-22T11:14:58.972Z</time></trkpt><trkpt lat="43.7289406" lon="12.5186929"><ele>247.0</ele><time>2026-03-22T11:14:59.972Z</time></trkpt><trkpt lat="43.728897" lon="12.5188556"><ele>247.39999999999998</ele><time>2026-03-22T11:15:00.972Z</time></trkpt><trkpt lat="43.7288537" lon="12.5190132"><ele>247.79999999999998</ele><time>2026-03-22T11:15:01.971Z</time></trkpt><trkpt lat="43.7288111" lon="12.5191651"><ele>248.2</ele><time>2026-03-22T11:15:02.972Z</time></trkpt><trkpt lat="43.728766" lon="12.5192828"><ele>248.6</ele><time>2026-03-22T11:15:03.972Z</time></trkpt><trkpt lat="43.7286978" lon="12.5193795"><ele>249.0</ele><time>2026-03-22T11:15:04.971Z</time></trkpt><trkpt lat="43.7286087" lon="12.519445"><ele>249.6</ele><time>2026-03-22T11:15:05.97Z</time></trkpt><trkpt lat="43.7285101" lon="12.5194641"><ele>250.2</ele><time>2026-03-22T11:15:06.971Z</time></trkpt><trkpt lat="43.7284045" lon="12.5194504"><ele>250.79999999999998</ele><time>2026-03-22T11:15:07.971Z</time></trkpt><trkpt lat="43.7282968" lon="12.5194068"><ele>251.39999999999998</ele><time>2026-03-22T11:15:08.971Z</time></trkpt><trkpt lat="43.7281795" lon="12.5193669"><ele>252.0</ele><time>2026-03-22T11:15:09.972Z</time></trkpt><trkpt lat="43.7280519" lon="12.5193185"><ele>252.0</ele><time>2026-03-22T11:15:10.972Z</time></trkpt><trkpt lat="43.7279229" lon="12.5192594"><ele>252.0</ele><time>2026-03-22T11:15:11.972Z</time></trkpt><trkpt lat="43.7278121" lon="12.5192017"><ele>252.0</ele><time>2026-03-22T11:15:12.972Z</time></trkpt><trkpt lat="43.7277148" lon="12.5191515"><ele>252.0</ele><time>2026-03-22T11:15:13.971Z</time></trkpt><trkpt lat="43.7276246" lon="12.5191056"><ele>252.0</ele><time>2026-03-22T11:15:14.972Z</time></trkpt><trkpt lat="43.7275531" lon="12.5190479"><ele>252.0</ele><time>2026-03-22T11:15:15.971Z</time></trkpt><trkpt lat="43.7275078" lon="12.5189703"><ele>252.0</ele><time>2026-03-22T11:15:16.971Z</time></trkpt><trkpt lat="43.7274888" lon="12.5188654"><ele>252.0</ele><time>2026-03-22T11:15:17.971Z</time></trkpt><trkpt lat="43.727476" lon="12.5187632"><ele>252.0</ele><time>2026-03-22T11:15:18.971Z</time></trkpt><trkpt lat="43.7275844" lon="12.5186566"><ele>252.0</ele><time>2026-03-22T11:15:19.971Z</time></trkpt><trkpt lat="43.7276704" lon="12.5185353"><ele>251.25</ele><time>2026-03-22T11:15:20.971Z</time></trkpt><trkpt lat="43.7277535" lon="12.5183953"><ele>250.5</ele><time>2026-03-22T11:15:21.972Z</time></trkpt><trkpt lat="43.7278317" lon="12.518227"><ele>249.75</ele><time>2026-03-22T11:15:22.97Z</time></trkpt><trkpt lat="43.7278928" lon="12.5180667"><ele>249.0</ele><time>2026-03-22T11:15:23.97Z</time></trkpt><trkpt lat="43.7279423" lon="12.5179186"><ele>248.5</ele><time>2026-03-22T11:15:24.97Z</time></trkpt><trkpt lat="43.7279751" lon="12.5177638"><ele>248.0</ele><time>2026-03-22T11:15:25.971Z</time></trkpt><trkpt lat="43.727996" lon="12.5175953"><ele>247.5</ele><time>2026-03-22T11:15:26.972Z</time></trkpt><trkpt lat="43.7279736" lon="12.5174182"><ele>247.0</ele><time>2026-03-22T11:15:27.972Z</time></trkpt><trkpt lat="43.727944" lon="12.5172477"><ele>247.0</ele><time>2026-03-22T11:15:28.972Z</time></trkpt><trkpt lat="43.7278991" lon="12.5171075"><ele>247.0</ele><time>2026-03-22T11:15:29.972Z</time></trkpt><trkpt lat="43.7278529" lon="12.5169718"><ele>247.0</ele><time>2026-03-22T11:15:30.972Z</time></trkpt><trkpt lat="43.7277568" lon="12.516867"><ele>247.0</ele><time>2026-03-22T11:15:31.971Z</time></trkpt><trkpt lat="43.7276614" lon="12.5168076"><ele>247.0</ele><time>2026-03-22T11:15:32.971Z</time></trkpt><trkpt lat="43.7275818" lon="12.516764"><ele>247.5</ele><time>2026-03-22T11:15:33.971Z</time></trkpt><trkpt lat="43.7274896" lon="12.5167227"><ele>248.0</ele><time>2026-03-22T11:15:34.971Z</time></trkpt><trkpt lat="43.7273949" lon="12.516873"><ele>248.5</ele><time>2026-03-22T11:15:35.972Z</time></trkpt><trkpt lat="43.72727" lon="12.5169468"><ele>249.0</ele><time>2026-03-22T11:15:36.971Z</time></trkpt><trkpt lat="43.7271581" lon="12.5169942"><ele>249.0</ele><time>2026-03-22T11:15:37.972Z</time></trkpt><trkpt lat="43.7270541" lon="12.5170047"><ele>249.0</ele><time>2026-03-22T11:15:38.972Z</time></trkpt><trkpt lat="43.7269424" lon="12.5169635"><ele>249.0</ele><time>2026-03-22T11:15:39.971Z</time></trkpt><trkpt lat="43.7268324" lon="12.516894"><ele>249.0</ele><time>2026-03-22T11:15:40.971Z</time></trkpt><trkpt lat="43.7267307" lon="12.5167663"><ele>253.33333333333331</ele><time>2026-03-22T11:15:41.972Z</time></trkpt><trkpt lat="43.7266282" lon="12.516628"><ele>257.66666666666663</ele><time>2026-03-22T11:15:42.971Z</time></trkpt><trkpt lat="43.7265285" lon="12.5164542"><ele>262.0</ele><time>2026-03-22T11:15:43.971Z</time></trkpt><trkpt lat="43.726434" lon="12.5162497"><ele>259.5</ele><time>2026-03-22T11:15:44.971Z</time></trkpt><trkpt lat="43.7263534" lon="12.5160315"><ele>257.0</ele><time>2026-03-22T11:15:45.972Z</time></trkpt><trkpt lat="43.7263001" lon="12.5158557"><ele>254.5</ele><time>2026-03-22T11:15:46.972Z</time></trkpt><trkpt lat="43.726246" lon="12.5156919"><ele>252.0</ele><time>2026-03-22T11:15:47.971Z</time></trkpt><trkpt lat="43.7261796" lon="12.5155349"><ele>252.0</ele><time>2026-03-22T11:15:48.971Z</time></trkpt><trkpt lat="43.7261072" lon="12.5154148"><ele>252.0</ele><time>2026-03-22T11:15:49.972Z</time></trkpt><trkpt lat="43.7260169" lon="12.5153133"><ele>252.0</ele><time>2026-03-22T11:15:50.972Z</time></trkpt><trkpt lat="43.725923" lon="12.5152125"><ele>252.0</ele><time>2026-03-22T11:15:51.971Z</time></trkpt><trkpt lat="43.7258251" lon="12.5151695"><ele>253.39999999999998</ele><time>2026-03-22T11:15:52.971Z</time></trkpt><trkpt lat="43.7257696" lon="12.5150816"><ele>254.79999999999998</ele><time>2026-03-22T11:15:53.971Z</time></trkpt><trkpt lat="43.72574" lon="12.5149583"><ele>256.2</ele><time>2026-03-22T11:15:54.971Z</time></trkpt><trkpt lat="43.7257314" lon="12.5148392"><ele>257.59999999999997</ele><time>2026-03-22T11:15:55.971Z</time></trkpt><trkpt lat="43.7257944" lon="12.5147297"><ele>259.0</ele><time>2026-03-22T11:15:56.97Z</time></trkpt><trkpt lat="43.7258708" lon="12.5146461"><ele>259.0</ele><time>2026-03-22T11:15:57.971Z</time></trkpt><trkpt lat="43.7259558" lon="12.5145922"><ele>259.0</ele><time>2026-03-22T11:15:58.972Z</time></trkpt><trkpt lat="43.7260215" lon="12.5145309"><ele>259.0</ele><time>2026-03-22T11:15:59.972Z</time></trkpt><trkpt lat="43.7260658" lon="12.5144408"><ele>259.0</ele><time>2026-03-22T11:16:00.972Z</time></trkpt><trkpt lat="43.7261098" lon="12.5143503"><ele>259.0</ele><time>2026-03-22T11:16:01.971Z</time></trkpt><trkpt lat="43.7260068" lon="12.5142265"><ele>259.0</ele><time>2026-03-22T11:16:02.971Z</time></trkpt><trkpt lat="43.725945" lon="12.5140917"><ele>259.0</ele><time>2026-03-22T11:16:03.972Z</time></trkpt><trkpt lat="43.7258843" lon="12.5139263"><ele>259.0</ele><time>2026-03-22T11:16:04.972Z</time></trkpt><trkpt lat="43.7258419" lon="12.5137434"><ele>259.0</ele><time>2026-03-22T11:16:05.97Z</time></trkpt><trkpt lat="43.7258233" lon="12.5135462"><ele>259.0</ele><time>2026-03-22T11:16:06.972Z</time></trkpt><trkpt lat="43.7258242" lon="12.5133779"><ele>259.0</ele><time>2026-03-22T11:16:07.971Z</time></trkpt><trkpt lat="43.7258128" lon="12.5132284"><ele>259.0</ele><time>2026-03-22T11:16:08.971Z</time></trkpt><trkpt lat="43.7257898" lon="12.5130989"><ele>259.0</ele><time>2026-03-22T11:16:09.972Z</time></trkpt><trkpt lat="43.7257283" lon="12.5130005"><ele>259.0</ele><time>2026-03-22T11:16:10.972Z</time></trkpt><trkpt lat="43.7256814" lon="12.5129143"><ele>259.5</ele><time>2026-03-22T11:16:11.972Z</time></trkpt><trkpt lat="43.7255944" lon="12.5128039"><ele>260.0</ele><time>2026-03-22T11:16:12.971Z</time></trkpt><trkpt lat="43.7254407" lon="12.512775"><ele>260.5</ele><time>2026-03-22T11:16:13.971Z</time></trkpt><trkpt lat="43.725351" lon="12.5126818"><ele>261.0</ele><time>2026-03-22T11:16:14.971Z</time></trkpt><trkpt lat="43.7252768" lon="12.5125502"><ele>261.0</ele><time>2026-03-22T11:16:15.972Z</time></trkpt><trkpt lat="43.7252357" lon="12.512394"><ele>261.0</ele><time>2026-03-22T11:16:16.971Z</time></trkpt><trkpt lat="43.7252212" lon="12.5121998"><ele>261.0</ele><time>2026-03-22T11:16:17.972Z</time></trkpt><trkpt lat="43.725202" lon="12.5119702"><ele>261.0</ele><time>2026-03-22T11:16:18.971Z</time></trkpt><trkpt lat="43.7251622" lon="12.5117288"><ele>261.0</ele><time>2026-03-22T11:16:19.971Z</time></trkpt><trkpt lat="43.7250874" lon="12.5114673"><ele>261.0</ele><time>2026-03-22T11:16:20.97Z</time></trkpt><trkpt lat="43.7250023" lon="12.5111975"><ele>261.0</ele><time>2026-03-22T11:16:21.972Z</time></trkpt><trkpt lat="43.724921" lon="12.5109693"><ele>261.0</ele><time>2026-03-22T11:16:22.972Z</time></trkpt><trkpt lat="43.7248709" lon="12.5107911"><ele>261.0</ele><time>2026-03-22T11:16:23.971Z</time></trkpt><trkpt lat="43.724827" lon="12.5106397"><ele>261.0</ele><time>2026-03-22T11:16:24.971Z</time></trkpt><trkpt lat="43.7248225" lon="12.5105081"><ele>261.0</ele><time>2026-03-22T11:16:25.972Z</time></trkpt><trkpt lat="43.7248505" lon="12.5103925"><ele>261.0</ele><time>2026-03-22T11:16:26.97Z</time></trkpt><trkpt lat="43.7248674" lon="12.5102818"><ele>262.25</ele><time>2026-03-22T11:16:27.972Z</time></trkpt><trkpt lat="43.7248929" lon="12.5101698"><ele>263.5</ele><time>2026-03-22T11:16:28.972Z</time></trkpt><trkpt lat="43.7248091" lon="12.5099614"><ele>264.75</ele><time>2026-03-22T11:16:30.972Z</time></trkpt><trkpt lat="43.7247273" lon="12.5098491"><ele>266.0</ele><time>2026-03-22T11:16:31.971Z</time></trkpt><trkpt lat="43.7245164" lon="12.5096982"><ele>266.6666666666667</ele><time>2026-03-22T11:16:32.972Z</time></trkpt><trkpt lat="43.7243925" lon="12.5095471"><ele>267.3333333333333</ele><time>2026-03-22T11:16:33.971Z</time></trkpt><trkpt lat="43.7242686" lon="12.5093566"><ele>268.0</ele><time>2026-03-22T11:16:34.972Z</time></trkpt><trkpt lat="43.7241198" lon="12.5090687"><ele>268.0</ele><time>2026-03-22T11:16:35.972Z</time></trkpt><trkpt lat="43.7240095" lon="12.5088671"><ele>268.0</ele><time>2026-03-22T11:16:36.971Z</time></trkpt><trkpt lat="43.7239096" lon="12.5086531"><ele>268.0</ele><time>2026-03-22T11:16:37.972Z</time></trkpt><trkpt lat="43.7238133" lon="12.5084075"><ele>269.0</ele><time>2026-03-22T11:16:38.971Z</time></trkpt><trkpt lat="43.7237515" lon="12.5081563"><ele>270.0</ele><time>2026-03-22T11:16:39.971Z</time></trkpt><trkpt lat="43.7236818" lon="12.5079172"><ele>271.0</ele><time>2026-03-22T11:16:40.971Z</time></trkpt><trkpt lat="43.7236032" lon="12.5076769"><ele>268.66666666666663</ele><time>2026-03-22T11:16:41.971Z</time></trkpt><trkpt lat="43.7235231" lon="12.5074628"><ele>266.3333333333333</ele><time>2026-03-22T11:16:42.971Z</time></trkpt><trkpt lat="43.7234326" lon="12.5072865"><ele>264.0</ele><time>2026-03-22T11:16:43.971Z</time></trkpt><trkpt lat="43.7233058" lon="12.5071156"><ele>266.3333333333333</ele><time>2026-03-22T11:16:44.972Z</time></trkpt><trkpt lat="43.7231622" lon="12.5069258"><ele>268.66666666666663</ele><time>2026-03-22T11:16:45.972Z</time></trkpt><trkpt lat="43.7230027" lon="12.5067234"><ele>271.0</ele><time>2026-03-22T11:16:46.972Z</time></trkpt><trkpt lat="43.7228656" lon="12.5065326"><ele>271.0</ele><time>2026-03-22T11:16:47.971Z</time></trkpt><trkpt lat="43.7227496" lon="12.5063457"><ele>271.0</ele><time>2026-03-22T11:16:48.972Z</time></trkpt><trkpt lat="43.7226628" lon="12.5061625"><ele>271.0</ele><time>2026-03-22T11:16:49.971Z</time></trkpt><trkpt lat="43.7225887" lon="12.5059703"><ele>271.25</ele><time>2026-03-22T11:16:50.972Z</time></trkpt><trkpt lat="43.7225406" lon="12.505804"><ele>271.5</ele><time>2026-03-22T11:16:51.972Z</time></trkpt><trkpt lat="43.7225081" lon="12.5056409"><ele>271.75</ele><time>2026-03-22T11:16:52.971Z</time></trkpt><trkpt lat="43.7224669" lon="12.5054935"><ele>272.0</ele><time>2026-03-22T11:16:53.972Z</time></trkpt><trkpt lat="43.7224045" lon="12.5053734"><ele>273.75</ele><time>2026-03-22T11:16:54.972Z</time></trkpt><trkpt lat="43.7223335" lon="12.5052558"><ele>275.5</ele><time>2026-03-22T11:16:55.971Z</time></trkpt><trkpt lat="43.7222243" lon="12.5051597"><ele>277.25</ele><time>2026-03-22T11:16:56.972Z</time></trkpt><trkpt lat="43.7220423" lon="12.5051806"><ele>279.0</ele><time>2026-03-22T11:16:57.972Z</time></trkpt><trkpt lat="43.7218183" lon="12.5051992"><ele>279.0</ele><time>2026-03-22T11:16:58.972Z</time></trkpt><trkpt lat="43.7216786" lon="12.5052034"><ele>279.0</ele><time>2026-03-22T11:16:59.97Z</time></trkpt><trkpt lat="43.72159" lon="12.5052342"><ele>279.0</ele><time>2026-03-22T11:17:00.971Z</time></trkpt><trkpt lat="43.7214986" lon="12.5052013"><ele>279.0</ele><time>2026-03-22T11:17:01.972Z</time></trkpt><trkpt lat="43.7214184" lon="12.5051147"><ele>279.0</ele><time>2026-03-22T11:17:02.972Z</time></trkpt><trkpt lat="43.7213401" lon="12.5049727"><ele>279.0</ele><time>2026-03-22T11:17:03.971Z</time></trkpt><trkpt lat="43.7212513" lon="12.5047982"><ele>279.0</ele><time>2026-03-22T11:17:04.971Z</time></trkpt><trkpt lat="43.721163" lon="12.5045705"><ele>279.0</ele><time>2026-03-22T11:17:05.972Z</time></trkpt><trkpt lat="43.7210957" lon="12.5043284"><ele>279.0</ele><time>2026-03-22T11:17:06.97Z</time></trkpt><trkpt lat="43.721052" lon="12.5041096"><ele>279.0</ele><time>2026-03-22T11:17:07.972Z</time></trkpt><trkpt lat="43.7210182" lon="12.5039153"><ele>279.0</ele><time>2026-03-22T11:17:08.972Z</time></trkpt><trkpt lat="43.720994" lon="12.5037482"><ele>279.0</ele><time>2026-03-22T11:17:09.971Z</time></trkpt><trkpt lat="43.7209586" lon="12.5036081"><ele>279.0</ele><time>2026-03-22T11:17:10.972Z</time></trkpt><trkpt lat="43.7208754" lon="12.5034922"><ele>279.0</ele><time>2026-03-22T11:17:11.971Z</time></trkpt><trkpt lat="43.7208097" lon="12.503382"><ele>279.0</ele><time>2026-03-22T11:17:12.971Z</time></trkpt><trkpt lat="43.7206955" lon="12.5032647"><ele>279.0</ele><time>2026-03-22T11:17:13.971Z</time></trkpt><trkpt lat="43.720484" lon="12.503223"><ele>279.0</ele><time>2026-03-22T11:17:14.971Z</time></trkpt><trkpt lat="43.7203663" lon="12.503123"><ele>279.0</ele><time>2026-03-22T11:17:15.971Z</time></trkpt><trkpt lat="43.7202153" lon="12.502984"><ele>279.0</ele><time>2026-03-22T11:17:16.971Z</time></trkpt><trkpt lat="43.7200684" lon="12.5028448"><ele>281.3333333333333</ele><time>2026-03-22T11:17:17.972Z</time></trkpt><trkpt lat="43.7199092" lon="12.5027391"><ele>283.66666666666663</ele><time>2026-03-22T11:17:18.972Z</time></trkpt><trkpt lat="43.7197047" lon="12.5026476"><ele>286.0</ele><time>2026-03-22T11:17:19.972Z</time></trkpt><trkpt lat="43.7194767" lon="12.5025505"><ele>283.0</ele><time>2026-03-22T11:17:20.972Z</time></trkpt><trkpt lat="43.7192905" lon="12.5024679"><ele>280.0</ele><time>2026-03-22T11:17:21.972Z</time></trkpt><trkpt lat="43.7191519" lon="12.5024046"><ele>277.0</ele><time>2026-03-22T11:17:22.971Z</time></trkpt><trkpt lat="43.7190381" lon="12.5023326"><ele>277.0</ele><time>2026-03-22T11:17:23.97Z</time></trkpt><trkpt lat="43.7189376" lon="12.5022345"><ele>277.0</ele><time>2026-03-22T11:17:24.972Z</time></trkpt><trkpt lat="43.7188704" lon="12.5021129"><ele>277.0</ele><time>2026-03-22T11:17:25.971Z</time></trkpt><trkpt lat="43.7188376" lon="12.5019616"><ele>277.0</ele><time>2026-03-22T11:17:26.971Z</time></trkpt><trkpt lat="43.7188116" lon="12.501787"><ele>276.6</ele><time>2026-03-22T11:17:27.971Z</time></trkpt><trkpt lat="43.7187819" lon="12.5016212"><ele>276.2</ele><time>2026-03-22T11:17:28.972Z</time></trkpt><trkpt lat="43.7187327" lon="12.5014937"><ele>275.8</ele><time>2026-03-22T11:17:29.972Z</time></trkpt><trkpt lat="43.7186582" lon="12.501406"><ele>275.4</ele><time>2026-03-22T11:17:30.971Z</time></trkpt><trkpt lat="43.7185518" lon="12.5013372"><ele>275.0</ele><time>2026-03-22T11:17:31.97Z</time></trkpt><trkpt lat="43.7184127" lon="12.5012641"><ele>277.0</ele><time>2026-03-22T11:17:32.971Z</time></trkpt><trkpt lat="43.7182627" lon="12.5011659"><ele>279.0</ele><time>2026-03-22T11:17:33.971Z</time></trkpt><trkpt lat="43.7181302" lon="12.5010595"><ele>281.0</ele><time>2026-03-22T11:17:34.972Z</time></trkpt><trkpt lat="43.718025" lon="12.5009486"><ele>281.0</ele><time>2026-03-22T11:17:35.972Z</time></trkpt><trkpt lat="43.7179381" lon="12.500847"><ele>281.0</ele><time>2026-03-22T11:17:36.971Z</time></trkpt><trkpt lat="43.717842" lon="12.5007755"><ele>281.0</ele><time>2026-03-22T11:17:37.972Z</time></trkpt><trkpt lat="43.7177038" lon="12.5007221"><ele>281.0</ele><time>2026-03-22T11:17:38.972Z</time></trkpt><trkpt lat="43.7175309" lon="12.5006605"><ele>280.6666666666667</ele><time>2026-03-22T11:17:39.972Z</time></trkpt><trkpt lat="43.7173488" lon="12.5005614"><ele>280.3333333333333</ele><time>2026-03-22T11:17:40.972Z</time></trkpt><trkpt lat="43.7171835" lon="12.5004286"><ele>280.0</ele><time>2026-03-22T11:17:41.972Z</time></trkpt><trkpt lat="43.7170305" lon="12.5002683"><ele>282.66666666666663</ele><time>2026-03-22T11:17:42.971Z</time></trkpt><trkpt lat="43.7168769" lon="12.5000893"><ele>285.3333333333333</ele><time>2026-03-22T11:17:43.972Z</time></trkpt><trkpt lat="43.7167505" lon="12.4999329"><ele>288.0</ele><time>2026-03-22T11:17:44.972Z</time></trkpt><trkpt lat="43.7166383" lon="12.4998077"><ele>288.0</ele><time>2026-03-22T11:17:45.972Z</time></trkpt><trkpt lat="43.7165223" lon="12.4997188"><ele>288.0</ele><time>2026-03-22T11:17:46.971Z</time></trkpt><trkpt lat="43.7163839" lon="12.4996561"><ele>288.0</ele><time>2026-03-22T11:17:47.971Z</time></trkpt><trkpt lat="43.7162319" lon="12.4995946"><ele>288.0</ele><time>2026-03-22T11:17:48.972Z</time></trkpt><trkpt lat="43.716099" lon="12.4995929"><ele>287.0</ele><time>2026-03-22T11:17:49.972Z</time></trkpt><trkpt lat="43.7159839" lon="12.4996131"><ele>286.0</ele><time>2026-03-22T11:17:50.972Z</time></trkpt><trkpt lat="43.7158841" lon="12.4996258"><ele>285.0</ele><time>2026-03-22T11:17:51.972Z</time></trkpt><trkpt lat="43.7157835" lon="12.4996063"><ele>284.0</ele><time>2026-03-22T11:17:52.972Z</time></trkpt><trkpt lat="43.7156643" lon="12.4995408"><ele>283.0</ele><time>2026-03-22T11:17:53.972Z</time></trkpt><trkpt lat="43.7155352" lon="12.4994239"><ele>284.3333333333333</ele><time>2026-03-22T11:17:54.971Z</time></trkpt><trkpt lat="43.7153917" lon="12.4992654"><ele>285.6666666666667</ele><time>2026-03-22T11:17:55.97Z</time></trkpt><trkpt lat="43.7152513" lon="12.4990828"><ele>287.0</ele><time>2026-03-22T11:17:56.971Z</time></trkpt><trkpt lat="43.7151275" lon="12.4989149"><ele>287.0</ele><time>2026-03-22T11:17:57.97Z</time></trkpt><trkpt lat="43.7150164" lon="12.498779"><ele>287.0</ele><time>2026-03-22T11:17:58.971Z</time></trkpt><trkpt lat="43.7149195" lon="12.4986621"><ele>287.0</ele><time>2026-03-22T11:17:59.971Z</time></trkpt><trkpt lat="43.714831" lon="12.4985233"><ele>287.0</ele><time>2026-03-22T11:18:00.971Z</time></trkpt><trkpt lat="43.7147392" lon="12.4983377"><ele>289.6666666666667</ele><time>2026-03-22T11:18:01.972Z</time></trkpt><trkpt lat="43.7146275" lon="12.4981315"><ele>292.3333333333333</ele><time>2026-03-22T11:18:02.971Z</time></trkpt><trkpt lat="43.7145089" lon="12.4979522"><ele>295.0</ele><time>2026-03-22T11:18:03.972Z</time></trkpt><trkpt lat="43.7144185" lon="12.4978085"><ele>292.75</ele><time>2026-03-22T11:18:04.972Z</time></trkpt><trkpt lat="43.7143482" lon="12.4976801"><ele>290.5</ele><time>2026-03-22T11:18:05.971Z</time></trkpt><trkpt lat="43.7142708" lon="12.4975669"><ele>288.25</ele><time>2026-03-22T11:18:06.972Z</time></trkpt><trkpt lat="43.7141812" lon="12.4974639"><ele>286.0</ele><time>2026-03-22T11:18:07.972Z</time></trkpt><trkpt lat="43.7140938" lon="12.4973432"><ele>286.0</ele><time>2026-03-22T11:18:08.971Z</time></trkpt><trkpt lat="43.7140235" lon="12.497218"><ele>286.0</ele><time>2026-03-22T11:18:09.972Z</time></trkpt><trkpt lat="43.7139541" lon="12.4971097"><ele>286.0</ele><time>2026-03-22T11:18:10.972Z</time></trkpt><trkpt lat="43.7138732" lon="12.4970109"><ele>286.0</ele><time>2026-03-22T11:18:11.971Z</time></trkpt><trkpt lat="43.7137889" lon="12.4969051"><ele>286.0</ele><time>2026-03-22T11:18:12.971Z</time></trkpt><trkpt lat="43.7137018" lon="12.4967968"><ele>286.5</ele><time>2026-03-22T11:18:13.971Z</time></trkpt><trkpt lat="43.7136107" lon="12.4967181"><ele>287.0</ele><time>2026-03-22T11:18:14.972Z</time></trkpt><trkpt lat="43.7135151" lon="12.4966692"><ele>287.5</ele><time>2026-03-22T11:18:15.971Z</time></trkpt><trkpt lat="43.7133928" lon="12.4966433"><ele>288.0</ele><time>2026-03-22T11:18:16.971Z</time></trkpt><trkpt lat="43.7132479" lon="12.4966287"><ele>288.0</ele><time>2026-03-22T11:18:17.971Z</time></trkpt><trkpt lat="43.7131057" lon="12.4966074"><ele>288.0</ele><time>2026-03-22T11:18:18.97Z</time></trkpt><trkpt lat="43.7129783" lon="12.4965779"><ele>288.0</ele><time>2026-03-22T11:18:19.97Z</time></trkpt><trkpt lat="43.7128524" lon="12.4965303"><ele>288.0</ele><time>2026-03-22T11:18:20.971Z</time></trkpt><trkpt lat="43.712723" lon="12.4964686"><ele>288.5</ele><time>2026-03-22T11:18:21.971Z</time></trkpt><trkpt lat="43.7126073" lon="12.4963962"><ele>289.0</ele><time>2026-03-22T11:18:22.971Z</time></trkpt><trkpt lat="43.712499" lon="12.4963349"><ele>289.5</ele><time>2026-03-22T11:18:23.971Z</time></trkpt><trkpt lat="43.7123894" lon="12.4963088"><ele>290.0</ele><time>2026-03-22T11:18:24.971Z</time></trkpt><trkpt lat="43.712283" lon="12.49632"><ele>290.0</ele><time>2026-03-22T11:18:25.97Z</time></trkpt><trkpt lat="43.7121758" lon="12.4963758"><ele>290.0</ele><time>2026-03-22T11:18:26.97Z</time></trkpt><trkpt lat="43.7120593" lon="12.4964569"><ele>290.0</ele><time>2026-03-22T11:18:27.972Z</time></trkpt><trkpt lat="43.7119572" lon="12.4964931"><ele>290.0</ele><time>2026-03-22T11:18:28.972Z</time></trkpt><trkpt lat="43.711838" lon="12.4964928"><ele>290.75</ele><time>2026-03-22T11:18:29.97Z</time></trkpt><trkpt lat="43.7117074" lon="12.4964598"><ele>291.5</ele><time>2026-03-22T11:18:30.971Z</time></trkpt><trkpt lat="43.7115998" lon="12.4963957"><ele>292.25</ele><time>2026-03-22T11:18:31.971Z</time></trkpt><trkpt lat="43.7115068" lon="12.4962865"><ele>293.0</ele><time>2026-03-22T11:18:32.972Z</time></trkpt><trkpt lat="43.7114188" lon="12.4961338"><ele>293.0</ele><time>2026-03-22T11:18:33.971Z</time></trkpt><trkpt lat="43.7113323" lon="12.4959417"><ele>293.0</ele><time>2026-03-22T11:18:34.972Z</time></trkpt><trkpt lat="43.71125" lon="12.4957462"><ele>293.0</ele><time>2026-03-22T11:18:35.972Z</time></trkpt><trkpt lat="43.7111477" lon="12.4955441"><ele>293.0</ele><time>2026-03-22T11:18:36.971Z</time></trkpt><trkpt lat="43.7110145" lon="12.4953427"><ele>293.0</ele><time>2026-03-22T11:18:37.971Z</time></trkpt><trkpt lat="43.7108753" lon="12.4951484"><ele>293.0</ele><time>2026-03-22T11:18:38.971Z</time></trkpt><trkpt lat="43.7107571" lon="12.4949822"><ele>293.0</ele><time>2026-03-22T11:18:39.972Z</time></trkpt><trkpt lat="43.7106346" lon="12.494801"><ele>293.0</ele><time>2026-03-22T11:18:40.971Z</time></trkpt><trkpt lat="43.7105218" lon="12.4946353"><ele>293.0</ele><time>2026-03-22T11:18:41.971Z</time></trkpt><trkpt lat="43.7104192" lon="12.4944611"><ele>293.6666666666667</ele><time>2026-03-22T11:18:42.971Z</time></trkpt><trkpt lat="43.7103289" lon="12.4942668"><ele>294.3333333333333</ele><time>2026-03-22T11:18:43.971Z</time></trkpt><trkpt lat="43.7102375" lon="12.4940676"><ele>295.0</ele><time>2026-03-22T11:18:44.972Z</time></trkpt><trkpt lat="43.7101449" lon="12.4939095"><ele>295.0</ele><time>2026-03-22T11:18:45.972Z</time></trkpt><trkpt lat="43.7100452" lon="12.4937812"><ele>295.0</ele><time>2026-03-22T11:18:46.97Z</time></trkpt><trkpt lat="43.7099377" lon="12.4936954"><ele>295.0</ele><time>2026-03-22T11:18:47.971Z</time></trkpt><trkpt lat="43.7098066" lon="12.4936422"><ele>295.0</ele><time>2026-03-22T11:18:48.972Z</time></trkpt><trkpt lat="43.7096763" lon="12.4936096"><ele>294.75</ele><time>2026-03-22T11:18:49.971Z</time></trkpt><trkpt lat="43.709567" lon="12.4935521"><ele>294.5</ele><time>2026-03-22T11:18:50.972Z</time></trkpt><trkpt lat="43.7094705" lon="12.4934599"><ele>294.25</ele><time>2026-03-22T11:18:51.971Z</time></trkpt><trkpt lat="43.7093864" lon="12.4933339"><ele>294.0</ele><time>2026-03-22T11:18:52.972Z</time></trkpt><trkpt lat="43.7093151" lon="12.4932069"><ele>294.0</ele><time>2026-03-22T11:18:53.971Z</time></trkpt><trkpt lat="43.7092558" lon="12.493102"><ele>294.0</ele><time>2026-03-22T11:18:54.971Z</time></trkpt><trkpt lat="43.7092025" lon="12.4930151"><ele>294.0</ele><time>2026-03-22T11:18:55.972Z</time></trkpt><trkpt lat="43.7091129" lon="12.4929352"><ele>294.0</ele><time>2026-03-22T11:18:57.971Z</time></trkpt><trkpt lat="43.7090123" lon="12.4929227"><ele>294.0</ele><time>2026-03-22T11:18:59.971Z</time></trkpt><trkpt lat="43.7089035" lon="12.4929568"><ele>294.0</ele><time>2026-03-22T11:19:01.971Z</time></trkpt><trkpt lat="43.7087888" lon="12.4929998"><ele>294.0</ele><time>2026-03-22T11:19:03.972Z</time></trkpt><trkpt lat="43.7087136" lon="12.4930344"><ele>294.0</ele><time>2026-03-22T11:19:04.971Z</time></trkpt><trkpt lat="43.7086366" lon="12.493068"><ele>294.0</ele><time>2026-03-22T11:19:05.971Z</time></trkpt><trkpt lat="43.7085543" lon="12.4930944"><ele>294.0</ele><time>2026-03-22T11:19:06.971Z</time></trkpt><trkpt lat="43.7084893" lon="12.4931143"><ele>294.0</ele><time>2026-03-22T11:19:07.971Z</time></trkpt><trkpt lat="43.7083767" lon="12.4931475"><ele>295.59999999999997</ele><time>2026-03-22T11:19:09.972Z</time></trkpt><trkpt lat="43.7082843" lon="12.4931794"><ele>297.2</ele><time>2026-03-22T11:19:11.972Z</time></trkpt><trkpt lat="43.7082212" lon="12.4932147"><ele>298.79999999999995</ele><time>2026-03-22T11:19:16.971Z</time></trkpt><trkpt lat="43.7081511" lon="12.4932407"><ele>300.4</ele><time>2026-03-22T11:19:18.971Z</time></trkpt><trkpt lat="43.708023" lon="12.4932926"><ele>302.0</ele><time>2026-03-22T11:19:20.972Z</time></trkpt><trkpt lat="43.7079305" lon="12.4933321"><ele>302.0</ele><time>2026-03-22T11:19:21.972Z</time></trkpt><trkpt lat="43.70782" lon="12.4933858"><ele>302.0</ele><time>2026-03-22T11:19:22.972Z</time></trkpt><trkpt lat="43.7077189" lon="12.4934462"><ele>302.0</ele><time>2026-03-22T11:19:23.972Z</time></trkpt><trkpt lat="43.7076076" lon="12.4935232"><ele>302.0</ele><time>2026-03-22T11:19:24.971Z</time></trkpt><trkpt lat="43.7075024" lon="12.4936115"><ele>303.0</ele><time>2026-03-22T11:19:25.972Z</time></trkpt><trkpt lat="43.7074127" lon="12.4936995"><ele>304.0</ele><time>2026-03-22T11:19:26.972Z</time></trkpt><trkpt lat="43.7073248" lon="12.493789"><ele>305.0</ele><time>2026-03-22T11:19:27.972Z</time></trkpt><trkpt lat="43.707231" lon="12.4939025"><ele>306.0</ele><time>2026-03-22T11:19:28.971Z</time></trkpt><trkpt lat="43.7071346" lon="12.4940333"><ele>306.0</ele><time>2026-03-22T11:19:29.971Z</time></trkpt><trkpt lat="43.7070384" lon="12.4941687"><ele>306.0</ele><time>2026-03-22T11:19:30.972Z</time></trkpt><trkpt lat="43.7069421" lon="12.4943034"><ele>306.0</ele><time>2026-03-22T11:19:31.97Z</time></trkpt><trkpt lat="43.7068559" lon="12.4944105"><ele>306.0</ele><time>2026-03-22T11:19:32.971Z</time></trkpt><trkpt lat="43.706776" lon="12.4944934"><ele>307.8</ele><time>2026-03-22T11:19:33.971Z</time></trkpt><trkpt lat="43.7066878" lon="12.4945567"><ele>309.6</ele><time>2026-03-22T11:19:34.971Z</time></trkpt><trkpt lat="43.7065933" lon="12.4945886"><ele>311.4</ele><time>2026-03-22T11:19:35.971Z</time></trkpt><trkpt lat="43.706502" lon="12.4945776"><ele>313.2</ele><time>2026-03-22T11:19:36.972Z</time></trkpt><trkpt lat="43.7064221" lon="12.4945223"><ele>315.0</ele><time>2026-03-22T11:19:37.971Z</time></trkpt><trkpt lat="43.7063652" lon="12.494428"><ele>316.25</ele><time>2026-03-22T11:19:38.971Z</time></trkpt><trkpt lat="43.7063295" lon="12.4942931"><ele>317.5</ele><time>2026-03-22T11:19:39.972Z</time></trkpt><trkpt lat="43.7063194" lon="12.4941292"><ele>318.75</ele><time>2026-03-22T11:19:40.971Z</time></trkpt><trkpt lat="43.7063339" lon="12.4939507"><ele>320.0</ele><time>2026-03-22T11:19:41.971Z</time></trkpt><trkpt lat="43.7063402" lon="12.4937851"><ele>320.4</ele><time>2026-03-22T11:19:42.971Z</time></trkpt><trkpt lat="43.7063247" lon="12.4936383"><ele>320.8</ele><time>2026-03-22T11:19:43.972Z</time></trkpt><trkpt lat="43.7062891" lon="12.4935128"><ele>321.20000000000005</ele><time>2026-03-22T11:19:44.971Z</time></trkpt><trkpt lat="43.7062261" lon="12.493408"><ele>321.6</ele><time>2026-03-22T11:19:45.971Z</time></trkpt><trkpt lat="43.706141" lon="12.4933428"><ele>322.0</ele><time>2026-03-22T11:19:46.971Z</time></trkpt><trkpt lat="43.706053" lon="12.4933318"><ele>325.0</ele><time>2026-03-22T11:19:47.971Z</time></trkpt><trkpt lat="43.7059547" lon="12.493358"><ele>328.0</ele><time>2026-03-22T11:19:48.972Z</time></trkpt><trkpt lat="43.7058544" lon="12.4934267"><ele>331.0</ele><time>2026-03-22T11:19:49.971Z</time></trkpt><trkpt lat="43.7057466" lon="12.493544"><ele>334.0</ele><time>2026-03-22T11:19:50.971Z</time></trkpt><trkpt lat="43.7056342" lon="12.4936966"><ele>332.3333333333333</ele><time>2026-03-22T11:19:51.972Z</time></trkpt><trkpt lat="43.7055205" lon="12.4938571"><ele>330.6666666666667</ele><time>2026-03-22T11:19:52.971Z</time></trkpt><trkpt lat="43.7054218" lon="12.4940034"><ele>329.0</ele><time>2026-03-22T11:19:53.971Z</time></trkpt><trkpt lat="43.7053267" lon="12.4941564"><ele>331.0</ele><time>2026-03-22T11:19:54.972Z</time></trkpt><trkpt lat="43.7052316" lon="12.4943102"><ele>333.0</ele><time>2026-03-22T11:19:55.972Z</time></trkpt><trkpt lat="43.7051366" lon="12.4944659"><ele>335.0</ele><time>2026-03-22T11:19:56.97Z</time></trkpt><trkpt lat="43.7050508" lon="12.4946138"><ele>337.0</ele><time>2026-03-22T11:19:57.972Z</time></trkpt><trkpt lat="43.7049654" lon="12.4947564"><ele>337.0</ele><time>2026-03-22T11:19:58.971Z</time></trkpt><trkpt lat="43.7048777" lon="12.4948898"><ele>337.0</ele><time>2026-03-22T11:19:59.972Z</time></trkpt><trkpt lat="43.7047895" lon="12.4949993"><ele>337.0</ele><time>2026-03-22T11:20:00.971Z</time></trkpt><trkpt lat="43.7047002" lon="12.4950738"><ele>337.0</ele><time>2026-03-22T11:20:01.972Z</time></trkpt><trkpt lat="43.7046059" lon="12.495117"><ele>337.0</ele><time>2026-03-22T11:20:02.972Z</time></trkpt><trkpt lat="43.7045117" lon="12.4951301"><ele>337.0</ele><time>2026-03-22T11:20:03.971Z</time></trkpt><trkpt lat="43.7044115" lon="12.4951136"><ele>337.0</ele><time>2026-03-22T11:20:04.971Z</time></trkpt><trkpt lat="43.7043215" lon="12.4950533"><ele>337.0</ele><time>2026-03-22T11:20:05.972Z</time></trkpt><trkpt lat="43.7042554" lon="12.4949667"><ele>337.0</ele><time>2026-03-22T11:20:06.972Z</time></trkpt><trkpt lat="43.7042116" lon="12.4948566"><ele>338.20000000000005</ele><time>2026-03-22T11:20:07.971Z</time></trkpt><trkpt lat="43.7041968" lon="12.4947264"><ele>339.4</ele><time>2026-03-22T11:20:08.972Z</time></trkpt><trkpt lat="43.7042139" lon="12.4945964"><ele>340.6</ele><time>2026-03-22T11:20:09.971Z</time></trkpt><trkpt lat="43.704267" lon="12.494474"><ele>341.79999999999995</ele><time>2026-03-22T11:20:10.971Z</time></trkpt><trkpt lat="43.7043458" lon="12.4943391"><ele>343.0</ele><time>2026-03-22T11:20:11.972Z</time></trkpt><trkpt lat="43.7044397" lon="12.4941974"><ele>343.0</ele><time>2026-03-22T11:20:12.972Z</time></trkpt><trkpt lat="43.7045335" lon="12.4940417"><ele>343.0</ele><time>2026-03-22T11:20:13.972Z</time></trkpt><trkpt lat="43.7046114" lon="12.4939027"><ele>343.0</ele><time>2026-03-22T11:20:14.97Z</time></trkpt><trkpt lat="43.7046801" lon="12.4937498"><ele>343.0</ele><time>2026-03-22T11:20:15.971Z</time></trkpt><trkpt lat="43.7047361" lon="12.4935663"><ele>345.66666666666663</ele><time>2026-03-22T11:20:16.972Z</time></trkpt><trkpt lat="43.7047838" lon="12.4933659"><ele>348.3333333333333</ele><time>2026-03-22T11:20:17.971Z</time></trkpt><trkpt lat="43.7048347" lon="12.4931468"><ele>351.0</ele><time>2026-03-22T11:20:18.971Z</time></trkpt><trkpt lat="43.7048752" lon="12.4929566"><ele>354.25</ele><time>2026-03-22T11:20:19.971Z</time></trkpt><trkpt lat="43.7049164" lon="12.4927761"><ele>357.5</ele><time>2026-03-22T11:20:20.972Z</time></trkpt><trkpt lat="43.7049703" lon="12.4926085"><ele>360.75</ele><time>2026-03-22T11:20:21.972Z</time></trkpt><trkpt lat="43.7050237" lon="12.49245"><ele>364.0</ele><time>2026-03-22T11:20:22.971Z</time></trkpt><trkpt lat="43.7050652" lon="12.4923008"><ele>364.0</ele><time>2026-03-22T11:20:23.971Z</time></trkpt><trkpt lat="43.7050829" lon="12.4921442"><ele>364.0</ele><time>2026-03-22T11:20:24.972Z</time></trkpt><trkpt lat="43.7050788" lon="12.4919991"><ele>364.0</ele><time>2026-03-22T11:20:25.972Z</time></trkpt><trkpt lat="43.7050607" lon="12.4918568"><ele>364.0</ele><time>2026-03-22T11:20:26.971Z</time></trkpt><trkpt lat="43.7050096" lon="12.491726"><ele>364.0</ele><time>2026-03-22T11:20:27.972Z</time></trkpt><trkpt lat="43.7049485" lon="12.4916034"><ele>364.6</ele><time>2026-03-22T11:20:28.972Z</time></trkpt><trkpt lat="43.7048702" lon="12.4914988"><ele>365.2</ele><time>2026-03-22T11:20:29.972Z</time></trkpt><trkpt lat="43.7047772" lon="12.4914501"><ele>365.8</ele><time>2026-03-22T11:20:30.972Z</time></trkpt><trkpt lat="43.7046785" lon="12.4914424"><ele>366.40000000000003</ele><time>2026-03-22T11:20:31.972Z</time></trkpt><trkpt lat="43.7045713" lon="12.4914714"><ele>367.0</ele><time>2026-03-22T11:20:32.971Z</time></trkpt><trkpt lat="43.7044571" lon="12.4915409"><ele>369.25</ele><time>2026-03-22T11:20:33.972Z</time></trkpt><trkpt lat="43.7043321" lon="12.4916349"><ele>371.5</ele><time>2026-03-22T11:20:34.972Z</time></trkpt><trkpt lat="43.7042105" lon="12.4917278"><ele>373.75</ele><time>2026-03-22T11:20:35.971Z</time></trkpt><trkpt lat="43.7040923" lon="12.491825"><ele>376.0</ele><time>2026-03-22T11:20:36.971Z</time></trkpt><trkpt lat="43.7039756" lon="12.4919183"><ele>376.0</ele><time>2026-03-22T11:20:37.971Z</time></trkpt><trkpt lat="43.7038605" lon="12.4920125"><ele>376.0</ele><time>2026-03-22T11:20:38.971Z</time></trkpt><trkpt lat="43.703747" lon="12.4921028"><ele>376.0</ele><time>2026-03-22T11:20:39.971Z</time></trkpt><trkpt lat="43.7036334" lon="12.4921904"><ele>376.0</ele><time>2026-03-22T11:20:40.972Z</time></trkpt><trkpt lat="43.7035192" lon="12.4922847"><ele>377.5</ele><time>2026-03-22T11:20:41.972Z</time></trkpt><trkpt lat="43.7034068" lon="12.4923755"><ele>379.0</ele><time>2026-03-22T11:20:42.971Z</time></trkpt><trkpt lat="43.7032941" lon="12.4924624"><ele>380.5</ele><time>2026-03-22T11:20:43.972Z</time></trkpt><trkpt lat="43.7031771" lon="12.4925332"><ele>382.0</ele><time>2026-03-22T11:20:44.972Z</time></trkpt><trkpt lat="43.7030659" lon="12.4925762"><ele>382.0</ele><time>2026-03-22T11:20:45.971Z</time></trkpt><trkpt lat="43.7029499" lon="12.4926064"><ele>382.0</ele><time>2026-03-22T11:20:46.971Z</time></trkpt><trkpt lat="43.7028285" lon="12.4926228"><ele>382.0</ele><time>2026-03-22T11:20:47.971Z</time></trkpt><trkpt lat="43.7027043" lon="12.4926279"><ele>382.0</ele><time>2026-03-22T11:20:48.971Z</time></trkpt><trkpt lat="43.7025778" lon="12.492629"><ele>383.6</ele><time>2026-03-22T11:20:49.97Z</time></trkpt><trkpt lat="43.7024579" lon="12.4926336"><ele>385.20000000000005</ele><time>2026-03-22T11:20:50.972Z</time></trkpt><trkpt lat="43.7023529" lon="12.4926382"><ele>386.8</ele><time>2026-03-22T11:20:51.972Z</time></trkpt><trkpt lat="43.7022494" lon="12.49264"><ele>388.4</ele><time>2026-03-22T11:20:52.971Z</time></trkpt><trkpt lat="43.7021637" lon="12.4926393"><ele>390.0</ele><time>2026-03-22T11:20:53.971Z</time></trkpt><trkpt lat="43.7020849" lon="12.4926405"><ele>390.0</ele><time>2026-03-22T11:20:54.971Z</time></trkpt><trkpt lat="43.7020062" lon="12.4926391"><ele>390.0</ele><time>2026-03-22T11:20:55.971Z</time></trkpt><trkpt lat="43.7019289" lon="12.4926323"><ele>390.0</ele><time>2026-03-22T11:20:56.971Z</time></trkpt><trkpt lat="43.7018511" lon="12.4926187"><ele>390.0</ele><time>2026-03-22T11:20:57.971Z</time></trkpt><trkpt lat="43.7017711" lon="12.4925943"><ele>390.0</ele><time>2026-03-22T11:20:58.971Z</time></trkpt><trkpt lat="43.7016894" lon="12.4925498"><ele>390.0</ele><time>2026-03-22T11:20:59.972Z</time></trkpt><trkpt lat="43.7016104" lon="12.4924897"><ele>391.6</ele><time>2026-03-22T11:21:00.971Z</time></trkpt><trkpt lat="43.7015375" lon="12.4924162"><ele>393.2</ele><time>2026-03-22T11:21:01.972Z</time></trkpt><trkpt lat="43.7014715" lon="12.4923338"><ele>394.79999999999995</ele><time>2026-03-22T11:21:02.971Z</time></trkpt><trkpt lat="43.7014119" lon="12.4922397"><ele>396.4</ele><time>2026-03-22T11:21:03.971Z</time></trkpt><trkpt lat="43.701356" lon="12.492136"><ele>398.0</ele><time>2026-03-22T11:21:04.972Z</time></trkpt><trkpt lat="43.7013046" lon="12.4920266"><ele>399.2</ele><time>2026-03-22T11:21:05.972Z</time></trkpt><trkpt lat="43.7012562" lon="12.4919155"><ele>400.4</ele><time>2026-03-22T11:21:06.972Z</time></trkpt><trkpt lat="43.7012059" lon="12.4918068"><ele>401.59999999999997</ele><time>2026-03-22T11:21:07.972Z</time></trkpt><trkpt lat="43.7011525" lon="12.4916988"><ele>402.79999999999995</ele><time>2026-03-22T11:21:08.971Z</time></trkpt><trkpt lat="43.7010912" lon="12.4916014"><ele>404.0</ele><time>2026-03-22T11:21:09.97Z</time></trkpt><trkpt lat="43.7010137" lon="12.4915286"><ele>405.79999999999995</ele><time>2026-03-22T11:21:10.972Z</time></trkpt><trkpt lat="43.7009283" lon="12.4914788"><ele>407.59999999999997</ele><time>2026-03-22T11:21:11.972Z</time></trkpt><trkpt lat="43.7008304" lon="12.4914924"><ele>409.4</ele><time>2026-03-22T11:21:12.972Z</time></trkpt><trkpt lat="43.7007399" lon="12.4914964"><ele>411.2</ele><time>2026-03-22T11:21:13.971Z</time></trkpt><trkpt lat="43.700643" lon="12.4915754"><ele>413.0</ele><time>2026-03-22T11:21:14.972Z</time></trkpt><trkpt lat="43.7005557" lon="12.4917042"><ele>413.0</ele><time>2026-03-22T11:21:15.972Z</time></trkpt><trkpt lat="43.7004648" lon="12.4918238"><ele>413.0</ele><time>2026-03-22T11:21:16.971Z</time></trkpt><trkpt lat="43.700381" lon="12.4919624"><ele>413.0</ele><time>2026-03-22T11:21:17.97Z</time></trkpt><trkpt lat="43.7003087" lon="12.4921221"><ele>413.0</ele><time>2026-03-22T11:21:18.971Z</time></trkpt><trkpt lat="43.7002536" lon="12.4922658"><ele>415.5</ele><time>2026-03-22T11:21:19.97Z</time></trkpt><trkpt lat="43.7001982" lon="12.4924076"><ele>418.0</ele><time>2026-03-22T11:21:20.971Z</time></trkpt><trkpt lat="43.7001429" lon="12.4925545"><ele>420.5</ele><time>2026-03-22T11:21:21.972Z</time></trkpt><trkpt lat="43.7000898" lon="12.4926995"><ele>423.0</ele><time>2026-03-22T11:21:22.971Z</time></trkpt><trkpt lat="43.7000367" lon="12.4928377"><ele>421.0</ele><time>2026-03-22T11:21:23.972Z</time></trkpt><trkpt lat="43.6999773" lon="12.4929858"><ele>419.0</ele><time>2026-03-22T11:21:24.972Z</time></trkpt><trkpt lat="43.6999184" lon="12.4931407"><ele>417.0</ele><time>2026-03-22T11:21:25.972Z</time></trkpt><trkpt lat="43.6998537" lon="12.4933039"><ele>415.0</ele><time>2026-03-22T11:21:26.972Z</time></trkpt><trkpt lat="43.6997858" lon="12.493469"><ele>415.0</ele><time>2026-03-22T11:21:27.971Z</time></trkpt><trkpt lat="43.6997088" lon="12.4936288"><ele>415.0</ele><time>2026-03-22T11:21:28.972Z</time></trkpt><trkpt lat="43.699628" lon="12.4937888"><ele>415.0</ele><time>2026-03-22T11:21:29.971Z</time></trkpt><trkpt lat="43.6995482" lon="12.4939487"><ele>415.0</ele><time>2026-03-22T11:21:30.971Z</time></trkpt><trkpt lat="43.6994622" lon="12.4941084"><ele>417.5</ele><time>2026-03-22T11:21:31.971Z</time></trkpt><trkpt lat="43.699382" lon="12.4942525"><ele>420.0</ele><time>2026-03-22T11:21:32.971Z</time></trkpt><trkpt lat="43.6993044" lon="12.4943889"><ele>422.5</ele><time>2026-03-22T11:21:33.971Z</time></trkpt><trkpt lat="43.6992227" lon="12.4945257"><ele>425.0</ele><time>2026-03-22T11:21:34.972Z</time></trkpt><trkpt lat="43.6991447" lon="12.4946817"><ele>425.0</ele><time>2026-03-22T11:21:35.971Z</time></trkpt><trkpt lat="43.6990796" lon="12.4948488"><ele>425.0</ele><time>2026-03-22T11:21:36.971Z</time></trkpt><trkpt lat="43.6990249" lon="12.4950393"><ele>425.0</ele><time>2026-03-22T11:21:37.971Z</time></trkpt><trkpt lat="43.6989779" lon="12.4952377"><ele>425.0</ele><time>2026-03-22T11:21:38.972Z</time></trkpt><trkpt lat="43.6989343" lon="12.4954367"><ele>423.66666666666663</ele><time>2026-03-22T11:21:39.972Z</time></trkpt><trkpt lat="43.6988955" lon="12.4956393"><ele>422.33333333333337</ele><time>2026-03-22T11:21:40.971Z</time></trkpt><trkpt lat="43.698858" lon="12.4958484"><ele>421.0</ele><time>2026-03-22T11:21:41.97Z</time></trkpt><trkpt lat="43.6988187" lon="12.4960591"><ele>420.75</ele><time>2026-03-22T11:21:42.972Z</time></trkpt><trkpt lat="43.6987759" lon="12.4962645"><ele>420.5</ele><time>2026-03-22T11:21:43.971Z</time></trkpt><trkpt lat="43.6987296" lon="12.4964493"><ele>420.25</ele><time>2026-03-22T11:21:44.972Z</time></trkpt><trkpt lat="43.6986751" lon="12.4966215"><ele>420.0</ele><time>2026-03-22T11:21:45.972Z</time></trkpt><trkpt lat="43.6986122" lon="12.4967876"><ele>425.33333333333337</ele><time>2026-03-22T11:21:46.971Z</time></trkpt><trkpt lat="43.6985319" lon="12.4969561"><ele>430.6666666666667</ele><time>2026-03-22T11:21:47.972Z</time></trkpt><trkpt lat="43.6984461" lon="12.4971297"><ele>436.0</ele><time>2026-03-22T11:21:48.972Z</time></trkpt><trkpt lat="43.6983624" lon="12.4973119"><ele>436.0</ele><time>2026-03-22T11:21:49.972Z</time></trkpt><trkpt lat="43.6982803" lon="12.4974764"><ele>436.0</ele><time>2026-03-22T11:21:50.972Z</time></trkpt><trkpt lat="43.6981948" lon="12.497617"><ele>436.0</ele><time>2026-03-22T11:21:51.972Z</time></trkpt><trkpt lat="43.6980986" lon="12.4977469"><ele>436.0</ele><time>2026-03-22T11:21:52.971Z</time></trkpt><trkpt lat="43.697989" lon="12.4978591"><ele>433.33333333333337</ele><time>2026-03-22T11:21:53.972Z</time></trkpt><trkpt lat="43.6978647" lon="12.4979591"><ele>430.66666666666663</ele><time>2026-03-22T11:21:54.971Z</time></trkpt><trkpt lat="43.6977303" lon="12.4980517"><ele>428.0</ele><time>2026-03-22T11:21:55.972Z</time></trkpt><trkpt lat="43.6975882" lon="12.4981394"><ele>432.0</ele><time>2026-03-22T11:21:56.972Z</time></trkpt><trkpt lat="43.6974466" lon="12.4982193"><ele>436.0</ele><time>2026-03-22T11:21:57.972Z</time></trkpt><trkpt lat="43.697314" lon="12.4982911"><ele>440.0</ele><time>2026-03-22T11:21:58.971Z</time></trkpt><trkpt lat="43.6971961" lon="12.4983572"><ele>444.0</ele><time>2026-03-22T11:21:59.971Z</time></trkpt><trkpt lat="43.6970902" lon="12.4984237"><ele>444.0</ele><time>2026-03-22T11:22:00.972Z</time></trkpt><trkpt lat="43.6970021" lon="12.4984969"><ele>444.0</ele><time>2026-03-22T11:22:01.971Z</time></trkpt><trkpt lat="43.6969309" lon="12.4985871"><ele>444.0</ele><time>2026-03-22T11:22:02.972Z</time></trkpt><trkpt lat="43.696869" lon="12.4987037"><ele>444.0</ele><time>2026-03-22T11:22:03.971Z</time></trkpt><trkpt lat="43.6968168" lon="12.4988272"><ele>444.0</ele><time>2026-03-22T11:22:04.971Z</time></trkpt><trkpt lat="43.6967695" lon="12.4989596"><ele>446.3333333333333</ele><time>2026-03-22T11:22:05.971Z</time></trkpt><trkpt lat="43.6967277" lon="12.499072"><ele>448.66666666666663</ele><time>2026-03-22T11:22:06.971Z</time></trkpt><trkpt lat="43.6966948" lon="12.4991686"><ele>451.0</ele><time>2026-03-22T11:22:07.972Z</time></trkpt><trkpt lat="43.696651" lon="12.4992549"><ele>453.3333333333333</ele><time>2026-03-22T11:22:08.972Z</time></trkpt><trkpt lat="43.6965852" lon="12.4993158"><ele>455.66666666666663</ele><time>2026-03-22T11:22:09.972Z</time></trkpt><trkpt lat="43.6965096" lon="12.4993338"><ele>458.0</ele><time>2026-03-22T11:22:10.972Z</time></trkpt><trkpt lat="43.6964356" lon="12.4993208"><ele>458.0</ele><time>2026-03-22T11:22:11.972Z</time></trkpt><trkpt lat="43.6963535" lon="12.4992526"><ele>457.99999999999994</ele><time>2026-03-22T11:22:13.971Z</time></trkpt><trkpt lat="43.6962629" lon="12.4992271"><ele>457.99999999999994</ele><time>2026-03-22T11:22:18.971Z</time></trkpt><trkpt lat="43.6961793" lon="12.4993431"><ele>458.0</ele><time>2026-03-22T11:22:20.972Z</time></trkpt><trkpt lat="43.6961534" lon="12.4994337"><ele>458.0</ele><time>2026-03-22T11:22:21.971Z</time></trkpt><trkpt lat="43.6960957" lon="12.4995474"><ele>458.16666666666663</ele><time>2026-03-22T11:22:23.972Z</time></trkpt><trkpt lat="43.6960354" lon="12.4996215"><ele>458.3333333333333</ele><time>2026-03-22T11:22:26.971Z</time></trkpt><trkpt lat="43.69597" lon="12.499694"><ele>458.5</ele><time>2026-03-22T11:22:28.971Z</time></trkpt><trkpt lat="43.6959065" lon="12.4997683"><ele>458.66666666666663</ele><time>2026-03-22T11:22:30.971Z</time></trkpt><trkpt lat="43.6958419" lon="12.4998153"><ele>458.8333333333333</ele><time>2026-03-22T11:22:34.971Z</time></trkpt><trkpt lat="43.6957814" lon="12.4997891"><ele>459.0</ele><time>2026-03-22T11:22:47.972Z</time></trkpt><trkpt lat="43.6958411" lon="12.4998539"><ele>459.0</ele><time>2026-03-22T11:23:16.971Z</time></trkpt><trkpt lat="43.695913" lon="12.4998127"><ele>459.0</ele><time>2026-03-22T11:23:18.971Z</time></trkpt><trkpt lat="43.6959604" lon="12.4997375"><ele>459.0</ele><time>2026-03-22T11:23:20.972Z</time></trkpt><trkpt lat="43.6960134" lon="12.4996625"><ele>459.0</ele><time>2026-03-22T11:23:23.972Z</time></trkpt><trkpt lat="43.6960091" lon="12.4997765"><ele>459.0</ele><time>2026-03-22T11:23:27.972Z</time></trkpt><trkpt lat="43.6959604" lon="12.4999164"><ele>459.0</ele><time>2026-03-22T11:23:29.97Z</time></trkpt><trkpt lat="43.6959353" lon="12.5000597"><ele>459.0</ele><time>2026-03-22T11:23:31.971Z</time></trkpt><trkpt lat="43.6959233" lon="12.5001472"><ele>459.0</ele><time>2026-03-22T11:23:32.971Z</time></trkpt><trkpt lat="43.69591" lon="12.5002407"><ele>459.0</ele><time>2026-03-22T11:23:33.972Z</time></trkpt><trkpt lat="43.6958934" lon="12.5003394"><ele>459.0</ele><time>2026-03-22T11:23:34.971Z</time></trkpt><trkpt lat="43.6958727" lon="12.5004362"><ele>459.0</ele><time>2026-03-22T11:23:35.972Z</time></trkpt><trkpt lat="43.6958375" lon="12.500542"><ele>459.0</ele><time>2026-03-22T11:23:36.971Z</time></trkpt><trkpt lat="43.6957902" lon="12.5006544"><ele>459.6</ele><time>2026-03-22T11:23:37.971Z</time></trkpt><trkpt lat="43.6957304" lon="12.5007675"><ele>460.2</ele><time>2026-03-22T11:23:38.971Z</time></trkpt><trkpt lat="43.6956652" lon="12.5008693"><ele>460.80000000000007</ele><time>2026-03-22T11:23:39.972Z</time></trkpt><trkpt lat="43.6955939" lon="12.5009594"><ele>461.40000000000003</ele><time>2026-03-22T11:23:40.971Z</time></trkpt><trkpt lat="43.6955201" lon="12.5010241"><ele>462.0</ele><time>2026-03-22T11:23:41.971Z</time></trkpt><trkpt lat="43.695444" lon="12.5010842"><ele>462.0</ele><time>2026-03-22T11:23:42.972Z</time></trkpt><trkpt lat="43.6953687" lon="12.5011351"><ele>462.0</ele><time>2026-03-22T11:23:43.971Z</time></trkpt><trkpt lat="43.6952927" lon="12.501179"><ele>462.0</ele><time>2026-03-22T11:23:44.971Z</time></trkpt><trkpt lat="43.6952133" lon="12.501222"><ele>462.0</ele><time>2026-03-22T11:23:45.971Z</time></trkpt><trkpt lat="43.695131" lon="12.5012637"><ele>462.0</ele><time>2026-03-22T11:23:46.972Z</time></trkpt><trkpt lat="43.6950499" lon="12.5013094"><ele>462.0</ele><time>2026-03-22T11:23:47.972Z</time></trkpt><trkpt lat="43.6949616" lon="12.5013618"><ele>461.6</ele><time>2026-03-22T11:23:48.971Z</time></trkpt><trkpt lat="43.6948715" lon="12.5014124"><ele>461.20000000000005</ele><time>2026-03-22T11:23:49.972Z</time></trkpt><trkpt lat="43.6947839" lon="12.5014619"><ele>460.8</ele><time>2026-03-22T11:23:50.971Z</time></trkpt><trkpt lat="43.6946935" lon="12.5015181"><ele>460.4</ele><time>2026-03-22T11:23:51.972Z</time></trkpt><trkpt lat="43.6946113" lon="12.501577"><ele>460.0</ele><time>2026-03-22T11:23:52.971Z</time></trkpt><trkpt lat="43.6945381" lon="12.5016549"><ele>460.0</ele><time>2026-03-22T11:23:53.972Z</time></trkpt><trkpt lat="43.6944813" lon="12.5017593"><ele>460.0</ele><time>2026-03-22T11:23:54.971Z</time></trkpt><trkpt lat="43.6944389" lon="12.501892"><ele>460.0</ele><time>2026-03-22T11:23:55.972Z</time></trkpt><trkpt lat="43.6944208" lon="12.5020426"><ele>460.0</ele><time>2026-03-22T11:23:56.972Z</time></trkpt><trkpt lat="43.6944316" lon="12.5022039"><ele>460.0</ele><time>2026-03-22T11:23:57.971Z</time></trkpt><trkpt lat="43.6944666" lon="12.502361"><ele>461.0</ele><time>2026-03-22T11:23:58.972Z</time></trkpt><trkpt lat="43.6945102" lon="12.5025115"><ele>462.0</ele><time>2026-03-22T11:23:59.972Z</time></trkpt><trkpt lat="43.6945392" lon="12.5026621"><ele>463.0</ele><time>2026-03-22T11:24:00.971Z</time></trkpt><trkpt lat="43.6945525" lon="12.5028179"><ele>464.0</ele><time>2026-03-22T11:24:01.972Z</time></trkpt><trkpt lat="43.694545" lon="12.5029827"><ele>465.25</ele><time>2026-03-22T11:24:02.971Z</time></trkpt><trkpt lat="43.6945129" lon="12.503152"><ele>466.5</ele><time>2026-03-22T11:24:03.971Z</time></trkpt><trkpt lat="43.69447" lon="12.5033298"><ele>467.75</ele><time>2026-03-22T11:24:04.972Z</time></trkpt><trkpt lat="43.6943926" lon="12.5035041"><ele>469.0</ele><time>2026-03-22T11:24:05.971Z</time></trkpt><trkpt lat="43.6943148" lon="12.5036873"><ele>461.0</ele><time>2026-03-22T11:24:06.972Z</time></trkpt><trkpt lat="43.6942355" lon="12.5038733"><ele>453.0</ele><time>2026-03-22T11:24:07.972Z</time></trkpt><trkpt lat="43.6941501" lon="12.5040487"><ele>445.0</ele><time>2026-03-22T11:24:08.972Z</time></trkpt><trkpt lat="43.6940708" lon="12.5042193"><ele>445.0</ele><time>2026-03-22T11:24:09.971Z</time></trkpt><trkpt lat="43.693991" lon="12.5043851"><ele>445.0</ele><time>2026-03-22T11:24:10.971Z</time></trkpt><trkpt lat="43.6939084" lon="12.5045361"><ele>445.0</ele><time>2026-03-22T11:24:11.972Z</time></trkpt><trkpt lat="43.6938134" lon="12.5046583"><ele>445.0</ele><time>2026-03-22T11:24:12.971Z</time></trkpt><trkpt lat="43.6937081" lon="12.5047515"><ele>442.5</ele><time>2026-03-22T11:24:13.972Z</time></trkpt><trkpt lat="43.6935856" lon="12.5048267"><ele>440.0</ele><time>2026-03-22T11:24:14.972Z</time></trkpt><trkpt lat="43.6934461" lon="12.5048787"><ele>437.5</ele><time>2026-03-22T11:24:15.971Z</time></trkpt><trkpt lat="43.6933019" lon="12.5049185"><ele>435.0</ele><time>2026-03-22T11:24:16.972Z</time></trkpt><trkpt lat="43.6931622" lon="12.5049517"><ele>435.0</ele><time>2026-03-22T11:24:17.972Z</time></trkpt><trkpt lat="43.6930221" lon="12.5049817"><ele>435.0</ele><time>2026-03-22T11:24:18.972Z</time></trkpt><trkpt lat="43.692879" lon="12.505025"><ele>435.0</ele><time>2026-03-22T11:24:19.971Z</time></trkpt><trkpt lat="43.6927442" lon="12.5050841"><ele>435.0</ele><time>2026-03-22T11:24:20.971Z</time></trkpt><trkpt lat="43.6926114" lon="12.5051588"><ele>430.33333333333337</ele><time>2026-03-22T11:24:21.971Z</time></trkpt><trkpt lat="43.6924782" lon="12.5052422"><ele>425.6666666666667</ele><time>2026-03-22T11:24:22.972Z</time></trkpt><trkpt lat="43.6923389" lon="12.5053292"><ele>421.0</ele><time>2026-03-22T11:24:23.971Z</time></trkpt><trkpt lat="43.6921993" lon="12.5054096"><ele>420.75</ele><time>2026-03-22T11:24:24.97Z</time></trkpt><trkpt lat="43.6920626" lon="12.5054891"><ele>420.5</ele><time>2026-03-22T11:24:25.972Z</time></trkpt><trkpt lat="43.6919259" lon="12.5055643"><ele>420.25</ele><time>2026-03-22T11:24:26.971Z</time></trkpt><trkpt lat="43.6917942" lon="12.5056153"><ele>420.0</ele><time>2026-03-22T11:24:27.972Z</time></trkpt><trkpt lat="43.6916626" lon="12.5056368"><ele>420.0</ele><time>2026-03-22T11:24:28.971Z</time></trkpt><trkpt lat="43.6915333" lon="12.5056329"><ele>420.0</ele><time>2026-03-22T11:24:29.971Z</time></trkpt><trkpt lat="43.6914153" lon="12.5055978"><ele>420.0</ele><time>2026-03-22T11:24:30.971Z</time></trkpt><trkpt lat="43.691311" lon="12.5055269"><ele>420.0</ele><time>2026-03-22T11:24:31.972Z</time></trkpt><trkpt lat="43.6912199" lon="12.5054202"><ele>416.75</ele><time>2026-03-22T11:24:32.972Z</time></trkpt><trkpt lat="43.691136" lon="12.5052776"><ele>413.5</ele><time>2026-03-22T11:24:33.971Z</time></trkpt><trkpt lat="43.6910599" lon="12.5051198"><ele>410.25</ele><time>2026-03-22T11:24:34.97Z</time></trkpt><trkpt lat="43.6909877" lon="12.504962"><ele>407.0</ele><time>2026-03-22T11:24:35.972Z</time></trkpt><trkpt lat="43.6909204" lon="12.5048177"><ele>407.0</ele><time>2026-03-22T11:24:36.972Z</time></trkpt><trkpt lat="43.6908443" lon="12.5047033"><ele>407.0</ele><time>2026-03-22T11:24:37.971Z</time></trkpt><trkpt lat="43.6907501" lon="12.504626"><ele>407.0</ele><time>2026-03-22T11:24:38.971Z</time></trkpt><trkpt lat="43.6906581" lon="12.5045548"><ele>407.0</ele><time>2026-03-22T11:24:39.972Z</time></trkpt><trkpt lat="43.69052" lon="12.5045448"><ele>402.75</ele><time>2026-03-22T11:24:40.971Z</time></trkpt><trkpt lat="43.6903591" lon="12.5045638"><ele>398.5</ele><time>2026-03-22T11:24:41.971Z</time></trkpt><trkpt lat="43.6902167" lon="12.504531"><ele>394.25</ele><time>2026-03-22T11:24:42.972Z</time></trkpt><trkpt lat="43.6900903" lon="12.5044571"><ele>390.0</ele><time>2026-03-22T11:24:43.972Z</time></trkpt><trkpt lat="43.6899712" lon="12.5043886"><ele>389.25</ele><time>2026-03-22T11:24:44.971Z</time></trkpt><trkpt lat="43.6898536" lon="12.5043457"><ele>388.5</ele><time>2026-03-22T11:24:45.971Z</time></trkpt><trkpt lat="43.6897336" lon="12.5043358"><ele>387.75</ele><time>2026-03-22T11:24:46.971Z</time></trkpt><trkpt lat="43.6896149" lon="12.5043704"><ele>387.0</ele><time>2026-03-22T11:24:47.971Z</time></trkpt><trkpt lat="43.689516" lon="12.5044459"><ele>387.0</ele><time>2026-03-22T11:24:48.971Z</time></trkpt><trkpt lat="43.6894437" lon="12.5045609"><ele>387.0</ele><time>2026-03-22T11:24:49.971Z</time></trkpt><trkpt lat="43.6894026" lon="12.5046976"><ele>387.0</ele><time>2026-03-22T11:24:50.972Z</time></trkpt><trkpt lat="43.6893986" lon="12.5048464"><ele>387.0</ele><time>2026-03-22T11:24:51.972Z</time></trkpt><trkpt lat="43.6894374" lon="12.5049894"><ele>387.0</ele><time>2026-03-22T11:24:52.971Z</time></trkpt><trkpt lat="43.6895105" lon="12.5051354"><ele>388.5</ele><time>2026-03-22T11:24:53.972Z</time></trkpt><trkpt lat="43.6895999" lon="12.5052906"><ele>390.0</ele><time>2026-03-22T11:24:54.972Z</time></trkpt><trkpt lat="43.6896926" lon="12.505444"><ele>391.5</ele><time>2026-03-22T11:24:55.972Z</time></trkpt><trkpt lat="43.6897595" lon="12.5055948"><ele>393.0</ele><time>2026-03-22T11:24:56.972Z</time></trkpt><trkpt lat="43.6897995" lon="12.5057589"><ele>390.75</ele><time>2026-03-22T11:24:57.971Z</time></trkpt><trkpt lat="43.6898134" lon="12.50593"><ele>388.5</ele><time>2026-03-22T11:24:58.972Z</time></trkpt><trkpt lat="43.6898011" lon="12.5061085"><ele>386.25</ele><time>2026-03-22T11:24:59.972Z</time></trkpt><trkpt lat="43.6897453" lon="12.5062794"><ele>384.0</ele><time>2026-03-22T11:25:00.971Z</time></trkpt><trkpt lat="43.6896612" lon="12.5064545"><ele>384.0</ele><time>2026-03-22T11:25:01.972Z</time></trkpt><trkpt lat="43.6895725" lon="12.5066403"><ele>384.0</ele><time>2026-03-22T11:25:02.972Z</time></trkpt><trkpt lat="43.6894833" lon="12.5068219"><ele>384.0</ele><time>2026-03-22T11:25:03.972Z</time></trkpt><trkpt lat="43.6893932" lon="12.5069832"><ele>380.0</ele><time>2026-03-22T11:25:04.971Z</time></trkpt><trkpt lat="43.6892948" lon="12.5071168"><ele>376.0</ele><time>2026-03-22T11:25:05.972Z</time></trkpt><trkpt lat="43.6891773" lon="12.507217"><ele>372.0</ele><time>2026-03-22T11:25:06.971Z</time></trkpt><trkpt lat="43.6890384" lon="12.5072911"><ele>368.0</ele><time>2026-03-22T11:25:07.972Z</time></trkpt><trkpt lat="43.6888853" lon="12.5073541"><ele>368.0</ele><time>2026-03-22T11:25:08.971Z</time></trkpt><trkpt lat="43.6887226" lon="12.507414"><ele>368.0</ele><time>2026-03-22T11:25:09.972Z</time></trkpt><trkpt lat="43.688563" lon="12.5074571"><ele>368.0</ele><time>2026-03-22T11:25:10.971Z</time></trkpt><trkpt lat="43.6884122" lon="12.5074708"><ele>364.5</ele><time>2026-03-22T11:25:11.972Z</time></trkpt><trkpt lat="43.6882643" lon="12.5074589"><ele>361.0</ele><time>2026-03-22T11:25:12.972Z</time></trkpt><trkpt lat="43.6881281" lon="12.5074507"><ele>357.5</ele><time>2026-03-22T11:25:13.972Z</time></trkpt><trkpt lat="43.6879997" lon="12.5074738"><ele>354.0</ele><time>2026-03-22T11:25:14.971Z</time></trkpt><trkpt lat="43.6878751" lon="12.5075199"><ele>351.0</ele><time>2026-03-22T11:25:15.971Z</time></trkpt><trkpt lat="43.6877336" lon="12.5076104"><ele>348.0</ele><time>2026-03-22T11:25:16.971Z</time></trkpt><trkpt lat="43.6876284" lon="12.507765"><ele>345.0</ele><time>2026-03-22T11:25:17.971Z</time></trkpt><trkpt lat="43.6875395" lon="12.5078773"><ele>342.0</ele><time>2026-03-22T11:25:18.971Z</time></trkpt><trkpt lat="43.6874711" lon="12.508002"><ele>342.0</ele><time>2026-03-22T11:25:19.972Z</time></trkpt><trkpt lat="43.6874346" lon="12.5081259"><ele>342.0</ele><time>2026-03-22T11:25:20.971Z</time></trkpt><trkpt lat="43.6874493" lon="12.508271"><ele>342.0</ele><time>2026-03-22T11:25:21.972Z</time></trkpt><trkpt lat="43.687485" lon="12.5084352"><ele>342.0</ele><time>2026-03-22T11:25:22.971Z</time></trkpt><trkpt lat="43.687517" lon="12.508576"><ele>342.0</ele><time>2026-03-22T11:25:23.972Z</time></trkpt><trkpt lat="43.6875202" lon="12.5087125"><ele>341.6</ele><time>2026-03-22T11:25:24.97Z</time></trkpt><trkpt lat="43.6874957" lon="12.5088357"><ele>341.20000000000005</ele><time>2026-03-22T11:25:25.971Z</time></trkpt><trkpt lat="43.6874376" lon="12.5089272"><ele>340.8</ele><time>2026-03-22T11:25:26.971Z</time></trkpt><trkpt lat="43.6873515" lon="12.5089807"><ele>340.4</ele><time>2026-03-22T11:25:27.971Z</time></trkpt><trkpt lat="43.6872401" lon="12.5090073"><ele>340.0</ele><time>2026-03-22T11:25:28.972Z</time></trkpt><trkpt lat="43.6871152" lon="12.5090325"><ele>340.0</ele><time>2026-03-22T11:25:29.972Z</time></trkpt><trkpt lat="43.6869889" lon="12.509076"><ele>340.0</ele><time>2026-03-22T11:25:30.971Z</time></trkpt><trkpt lat="43.686876" lon="12.5091576"><ele>340.0</ele><time>2026-03-22T11:25:31.971Z</time></trkpt><trkpt lat="43.6867755" lon="12.5092869"><ele>340.0</ele><time>2026-03-22T11:25:32.972Z</time></trkpt><trkpt lat="43.6866878" lon="12.509458"><ele>335.0</ele><time>2026-03-22T11:25:33.971Z</time></trkpt><trkpt lat="43.6866053" lon="12.5096434"><ele>330.0</ele><time>2026-03-22T11:25:34.972Z</time></trkpt><trkpt lat="43.6865255" lon="12.5098391"><ele>325.0</ele><time>2026-03-22T11:25:35.972Z</time></trkpt><trkpt lat="43.6864481" lon="12.5100325"><ele>325.0</ele><time>2026-03-22T11:25:36.971Z</time></trkpt><trkpt lat="43.686366" lon="12.5102129"><ele>325.0</ele><time>2026-03-22T11:25:37.97Z</time></trkpt><trkpt lat="43.6862784" lon="12.5103908"><ele>325.0</ele><time>2026-03-22T11:25:38.972Z</time></trkpt><trkpt lat="43.6861858" lon="12.5105737"><ele>319.0</ele><time>2026-03-22T11:25:39.971Z</time></trkpt><trkpt lat="43.6860904" lon="12.510754"><ele>313.0</ele><time>2026-03-22T11:25:40.971Z</time></trkpt><trkpt lat="43.6859959" lon="12.5109328"><ele>307.0</ele><time>2026-03-22T11:25:41.971Z</time></trkpt><trkpt lat="43.6859006" lon="12.5111086"><ele>307.0</ele><time>2026-03-22T11:25:42.972Z</time></trkpt><trkpt lat="43.685807" lon="12.511281"><ele>307.0</ele><time>2026-03-22T11:25:43.972Z</time></trkpt><trkpt lat="43.6857173" lon="12.511443"><ele>307.0</ele><time>2026-03-22T11:25:44.972Z</time></trkpt><trkpt lat="43.6856342" lon="12.5115959"><ele>307.0</ele><time>2026-03-22T11:25:45.972Z</time></trkpt><trkpt lat="43.6855712" lon="12.511751"><ele>307.0</ele><time>2026-03-22T11:25:46.972Z</time></trkpt><trkpt lat="43.6855369" lon="12.5119204"><ele>307.0</ele><time>2026-03-22T11:25:47.971Z</time></trkpt><trkpt lat="43.6855339" lon="12.5121091"><ele>307.0</ele><time>2026-03-22T11:25:48.972Z</time></trkpt><trkpt lat="43.685549" lon="12.5123178"><ele>307.0</ele><time>2026-03-22T11:25:49.971Z</time></trkpt><trkpt lat="43.6855672" lon="12.5125266"><ele>305.6</ele><time>2026-03-22T11:25:50.971Z</time></trkpt><trkpt lat="43.6855842" lon="12.512711"><ele>304.2</ele><time>2026-03-22T11:25:51.972Z</time></trkpt><trkpt lat="43.6855978" lon="12.5128723"><ele>302.8</ele><time>2026-03-22T11:25:52.972Z</time></trkpt><trkpt lat="43.6856089" lon="12.5130076"><ele>301.4</ele><time>2026-03-22T11:25:53.972Z</time></trkpt><trkpt lat="43.6856035" lon="12.5131146"><ele>300.0</ele><time>2026-03-22T11:25:54.972Z</time></trkpt><trkpt lat="43.6855622" lon="12.5132089"><ele>298.0</ele><time>2026-03-22T11:25:55.972Z</time></trkpt><trkpt lat="43.6854877" lon="12.5132608"><ele>296.0</ele><time>2026-03-22T11:25:56.972Z</time></trkpt><trkpt lat="43.685388" lon="12.5132704"><ele>294.0</ele><time>2026-03-22T11:25:57.971Z</time></trkpt><trkpt lat="43.6852631" lon="12.5132567"><ele>292.0</ele><time>2026-03-22T11:25:58.972Z</time></trkpt><trkpt lat="43.6851143" lon="12.5132428"><ele>290.25</ele><time>2026-03-22T11:25:59.971Z</time></trkpt><trkpt lat="43.6849633" lon="12.5132297"><ele>288.5</ele><time>2026-03-22T11:26:00.971Z</time></trkpt><trkpt lat="43.6848293" lon="12.5132225"><ele>286.75</ele><time>2026-03-22T11:26:01.971Z</time></trkpt><trkpt lat="43.6847101" lon="12.5132409"><ele>285.0</ele><time>2026-03-22T11:26:02.971Z</time></trkpt><trkpt lat="43.6846001" lon="12.5133017"><ele>285.0</ele><time>2026-03-22T11:26:03.971Z</time></trkpt><trkpt lat="43.6844982" lon="12.5134226"><ele>285.0</ele><time>2026-03-22T11:26:04.971Z</time></trkpt><trkpt lat="43.6843974" lon="12.513592"><ele>285.0</ele><time>2026-03-22T11:26:05.972Z</time></trkpt><trkpt lat="43.6842956" lon="12.5137661"><ele>285.25</ele><time>2026-03-22T11:26:06.972Z</time></trkpt><trkpt lat="43.6842016" lon="12.5139309"><ele>285.5</ele><time>2026-03-22T11:26:07.971Z</time></trkpt><trkpt lat="43.6841119" lon="12.5140867"><ele>285.75</ele><time>2026-03-22T11:26:08.972Z</time></trkpt><trkpt lat="43.6840257" lon="12.5142381"><ele>286.0</ele><time>2026-03-22T11:26:09.971Z</time></trkpt><trkpt lat="43.6839408" lon="12.5143867"><ele>286.0</ele><time>2026-03-22T11:26:10.972Z</time></trkpt><trkpt lat="43.6838574" lon="12.5145367"><ele>286.0</ele><time>2026-03-22T11:26:11.971Z</time></trkpt><trkpt lat="43.6837797" lon="12.5146774"><ele>286.0</ele><time>2026-03-22T11:26:12.971Z</time></trkpt><trkpt lat="43.6837122" lon="12.5148116"><ele>286.0</ele><time>2026-03-22T11:26:13.971Z</time></trkpt><trkpt lat="43.6836473" lon="12.5149457"><ele>285.5</ele><time>2026-03-22T11:26:14.972Z</time></trkpt><trkpt lat="43.6835865" lon="12.5150897"><ele>285.0</ele><time>2026-03-22T11:26:15.971Z</time></trkpt><trkpt lat="43.683538" lon="12.5152453"><ele>284.5</ele><time>2026-03-22T11:26:16.972Z</time></trkpt><trkpt lat="43.6834932" lon="12.5154123"><ele>284.0</ele><time>2026-03-22T11:26:17.971Z</time></trkpt><trkpt lat="43.6834544" lon="12.5155841"><ele>284.0</ele><time>2026-03-22T11:26:18.971Z</time></trkpt><trkpt lat="43.6834192" lon="12.5157591"><ele>284.0</ele><time>2026-03-22T11:26:19.971Z</time></trkpt><trkpt lat="43.6833813" lon="12.5159332"><ele>284.0</ele><time>2026-03-22T11:26:20.97Z</time></trkpt><trkpt lat="43.6833446" lon="12.5160952"><ele>284.0</ele><time>2026-03-22T11:26:21.971Z</time></trkpt><trkpt lat="43.6833039" lon="12.5162556"><ele>286.0</ele><time>2026-03-22T11:26:22.972Z</time></trkpt><trkpt lat="43.6832389" lon="12.5164098"><ele>288.0</ele><time>2026-03-22T11:26:23.971Z</time></trkpt><trkpt lat="43.6831577" lon="12.5165563"><ele>290.0</ele><time>2026-03-22T11:26:24.971Z</time></trkpt><trkpt lat="43.6830737" lon="12.5166878"><ele>292.0</ele><time>2026-03-22T11:26:25.972Z</time></trkpt><trkpt lat="43.6829961" lon="12.516808"><ele>292.0</ele><time>2026-03-22T11:26:26.972Z</time></trkpt><trkpt lat="43.6829289" lon="12.5169234"><ele>292.0</ele><time>2026-03-22T11:26:27.971Z</time></trkpt><trkpt lat="43.6828715" lon="12.5170359"><ele>292.0</ele><time>2026-03-22T11:26:28.971Z</time></trkpt><trkpt lat="43.6828179" lon="12.5171539"><ele>292.0</ele><time>2026-03-22T11:26:29.971Z</time></trkpt><trkpt lat="43.6827665" lon="12.5172773"><ele>292.0</ele><time>2026-03-22T11:26:30.971Z</time></trkpt><trkpt lat="43.682717" lon="12.5174039"><ele>292.0</ele><time>2026-03-22T11:26:31.971Z</time></trkpt><trkpt lat="43.6826716" lon="12.5175393"><ele>292.0</ele><time>2026-03-22T11:26:32.971Z</time></trkpt><trkpt lat="43.6826213" lon="12.5176809"><ele>292.0</ele><time>2026-03-22T11:26:33.972Z</time></trkpt><trkpt lat="43.6825633" lon="12.5178312"><ele>292.0</ele><time>2026-03-22T11:26:34.97Z</time></trkpt><trkpt lat="43.6825017" lon="12.5179821"><ele>292.0</ele><time>2026-03-22T11:26:35.972Z</time></trkpt><trkpt lat="43.6824455" lon="12.5181169"><ele>292.0</ele><time>2026-03-22T11:26:36.972Z</time></trkpt><trkpt lat="43.6823875" lon="12.5182452"><ele>292.0</ele><time>2026-03-22T11:26:37.97Z</time></trkpt><trkpt lat="43.6823266" lon="12.5183766"><ele>292.0</ele><time>2026-03-22T11:26:38.97Z</time></trkpt><trkpt lat="43.6822612" lon="12.5185085"><ele>292.0</ele><time>2026-03-22T11:26:39.971Z</time></trkpt><trkpt lat="43.6821879" lon="12.5186456"><ele>292.0</ele><time>2026-03-22T11:26:40.972Z</time></trkpt><trkpt lat="43.6821051" lon="12.5187831"><ele>292.0</ele><time>2026-03-22T11:26:41.972Z</time></trkpt><trkpt lat="43.6820241" lon="12.5189137"><ele>292.0</ele><time>2026-03-22T11:26:42.971Z</time></trkpt><trkpt lat="43.6819469" lon="12.5190324"><ele>291.25</ele><time>2026-03-22T11:26:43.971Z</time></trkpt><trkpt lat="43.681869" lon="12.5191499"><ele>290.5</ele><time>2026-03-22T11:26:44.971Z</time></trkpt><trkpt lat="43.681791" lon="12.5192717"><ele>289.75</ele><time>2026-03-22T11:26:45.971Z</time></trkpt><trkpt lat="43.6817145" lon="12.5193981"><ele>289.0</ele><time>2026-03-22T11:26:46.971Z</time></trkpt><trkpt lat="43.6816381" lon="12.5195275"><ele>290.5</ele><time>2026-03-22T11:26:47.972Z</time></trkpt><trkpt lat="43.6815648" lon="12.5196638"><ele>292.0</ele><time>2026-03-22T11:26:48.971Z</time></trkpt><trkpt lat="43.6814988" lon="12.5198091"><ele>293.5</ele><time>2026-03-22T11:26:49.972Z</time></trkpt><trkpt lat="43.6814305" lon="12.5199579"><ele>295.0</ele><time>2026-03-22T11:26:50.972Z</time></trkpt><trkpt lat="43.6813448" lon="12.5200905"><ele>295.0</ele><time>2026-03-22T11:26:51.972Z</time></trkpt><trkpt lat="43.6812424" lon="12.5201971"><ele>295.0</ele><time>2026-03-22T11:26:52.972Z</time></trkpt><trkpt lat="43.6811209" lon="12.5202846"><ele>295.0</ele><time>2026-03-22T11:26:53.971Z</time></trkpt><trkpt lat="43.6809917" lon="12.5203652"><ele>295.0</ele><time>2026-03-22T11:26:54.972Z</time></trkpt><trkpt lat="43.6808554" lon="12.5204438"><ele>296.0</ele><time>2026-03-22T11:26:55.971Z</time></trkpt><trkpt lat="43.6807131" lon="12.5205102"><ele>297.0</ele><time>2026-03-22T11:26:56.972Z</time></trkpt><trkpt lat="43.6805691" lon="12.5205606"><ele>298.0</ele><time>2026-03-22T11:26:57.972Z</time></trkpt><trkpt lat="43.6804242" lon="12.5206026"><ele>299.0</ele><time>2026-03-22T11:26:58.971Z</time></trkpt><trkpt lat="43.6802894" lon="12.520639"><ele>297.5</ele><time>2026-03-22T11:26:59.972Z</time></trkpt><trkpt lat="43.6801646" lon="12.5206702"><ele>296.0</ele><time>2026-03-22T11:27:00.971Z</time></trkpt><trkpt lat="43.680045" lon="12.5207037"><ele>294.5</ele><time>2026-03-22T11:27:01.972Z</time></trkpt><trkpt lat="43.6799337" lon="12.5207376"><ele>293.0</ele><time>2026-03-22T11:27:02.972Z</time></trkpt><trkpt lat="43.6798265" lon="12.520768"><ele>293.0</ele><time>2026-03-22T11:27:03.972Z</time></trkpt><trkpt lat="43.6797229" lon="12.5207921"><ele>293.0</ele><time>2026-03-22T11:27:04.971Z</time></trkpt><trkpt lat="43.6796251" lon="12.5208066"><ele>293.0</ele><time>2026-03-22T11:27:05.972Z</time></trkpt><trkpt lat="43.6795342" lon="12.5208135"><ele>293.0</ele><time>2026-03-22T11:27:06.97Z</time></trkpt><trkpt lat="43.6794506" lon="12.5207982"><ele>293.0</ele><time>2026-03-22T11:27:07.972Z</time></trkpt><trkpt lat="43.6793742" lon="12.5207705"><ele>291.6666666666667</ele><time>2026-03-22T11:27:08.971Z</time></trkpt><trkpt lat="43.6793021" lon="12.5207574"><ele>290.33333333333337</ele><time>2026-03-22T11:27:09.972Z</time></trkpt><trkpt lat="43.679236" lon="12.5207752"><ele>289.0</ele><time>2026-03-22T11:27:10.97Z</time></trkpt><trkpt lat="43.6791785" lon="12.5208355"><ele>287.6666666666667</ele><time>2026-03-22T11:27:11.971Z</time></trkpt><trkpt lat="43.6791241" lon="12.5209367"><ele>286.3333333333333</ele><time>2026-03-22T11:27:12.971Z</time></trkpt><trkpt lat="43.6790538" lon="12.5210573"><ele>285.0</ele><time>2026-03-22T11:27:13.972Z</time></trkpt><trkpt lat="43.6789476" lon="12.5211533"><ele>286.3333333333333</ele><time>2026-03-22T11:27:14.971Z</time></trkpt><trkpt lat="43.6788196" lon="12.5212498"><ele>287.66666666666663</ele><time>2026-03-22T11:27:15.972Z</time></trkpt><trkpt lat="43.6786784" lon="12.5213451"><ele>289.0</ele><time>2026-03-22T11:27:16.97Z</time></trkpt><trkpt lat="43.6785245" lon="12.5214413"><ele>289.0</ele><time>2026-03-22T11:27:17.97Z</time></trkpt><trkpt lat="43.6783617" lon="12.5215432"><ele>289.0</ele><time>2026-03-22T11:27:18.971Z</time></trkpt><trkpt lat="43.6781942" lon="12.5216463"><ele>289.0</ele><time>2026-03-22T11:27:19.972Z</time></trkpt><trkpt lat="43.6780301" lon="12.5217488"><ele>289.0</ele><time>2026-03-22T11:27:20.971Z</time></trkpt><trkpt lat="43.6778741" lon="12.5218458"><ele>289.0</ele><time>2026-03-22T11:27:21.972Z</time></trkpt><trkpt lat="43.6777214" lon="12.521951"><ele>289.0</ele><time>2026-03-22T11:27:22.972Z</time></trkpt><trkpt lat="43.6775742" lon="12.5220736"><ele>290.3333333333333</ele><time>2026-03-22T11:27:23.972Z</time></trkpt><trkpt lat="43.6774324" lon="12.5222095"><ele>291.6666666666667</ele><time>2026-03-22T11:27:24.972Z</time></trkpt><trkpt lat="43.6772934" lon="12.5223533"><ele>293.0</ele><time>2026-03-22T11:27:25.97Z</time></trkpt><trkpt lat="43.6771547" lon="12.522496"><ele>293.0</ele><time>2026-03-22T11:27:26.971Z</time></trkpt><trkpt lat="43.6770226" lon="12.5226365"><ele>293.0</ele><time>2026-03-22T11:27:27.972Z</time></trkpt><trkpt lat="43.6768929" lon="12.5227817"><ele>293.0</ele><time>2026-03-22T11:27:28.972Z</time></trkpt><trkpt lat="43.6767685" lon="12.5229262"><ele>293.0</ele><time>2026-03-22T11:27:29.972Z</time></trkpt><trkpt lat="43.6766574" lon="12.5230663"><ele>293.0</ele><time>2026-03-22T11:27:30.972Z</time></trkpt><trkpt lat="43.6765498" lon="12.5232028"><ele>293.0</ele><time>2026-03-22T11:27:31.972Z</time></trkpt><trkpt lat="43.6764454" lon="12.5233445"><ele>293.0</ele><time>2026-03-22T11:27:32.971Z</time></trkpt><trkpt lat="43.6763435" lon="12.5234787"><ele>293.0</ele><time>2026-03-22T11:27:33.972Z</time></trkpt><trkpt lat="43.6762481" lon="12.5236031"><ele>293.0</ele><time>2026-03-22T11:27:34.971Z</time></trkpt><trkpt lat="43.6761544" lon="12.5237203"><ele>293.0</ele><time>2026-03-22T11:27:35.97Z</time></trkpt><trkpt lat="43.6760667" lon="12.5238249"><ele>293.0</ele><time>2026-03-22T11:27:36.972Z</time></trkpt><trkpt lat="43.6759834" lon="12.5239196"><ele>292.2</ele><time>2026-03-22T11:27:37.971Z</time></trkpt><trkpt lat="43.6759052" lon="12.5240082"><ele>291.4</ele><time>2026-03-22T11:27:38.972Z</time></trkpt><trkpt lat="43.6758322" lon="12.5240829"><ele>290.59999999999997</ele><time>2026-03-22T11:27:39.971Z</time></trkpt><trkpt lat="43.6757669" lon="12.52415"><ele>289.8</ele><time>2026-03-22T11:27:40.971Z</time></trkpt><trkpt lat="43.6757079" lon="12.5242153"><ele>289.0</ele><time>2026-03-22T11:27:41.972Z</time></trkpt><trkpt lat="43.6756039" lon="12.524296"><ele>289.0</ele><time>2026-03-22T11:27:43.97Z</time></trkpt><trkpt lat="43.6755037" lon="12.5242541"><ele>289.0</ele><time>2026-03-22T11:27:45.972Z</time></trkpt><trkpt lat="43.6754576" lon="12.524182"><ele>289.0</ele><time>2026-03-22T11:27:46.971Z</time></trkpt><trkpt lat="43.6754025" lon="12.5240923"><ele>289.0</ele><time>2026-03-22T11:27:47.971Z</time></trkpt><trkpt lat="43.6753416" lon="12.5240348"><ele>289.0</ele><time>2026-03-22T11:27:48.972Z</time></trkpt><trkpt lat="43.6752707" lon="12.5240187"><ele>289.0</ele><time>2026-03-22T11:27:49.971Z</time></trkpt><trkpt lat="43.6751948" lon="12.5240381"><ele>288.2</ele><time>2026-03-22T11:27:50.971Z</time></trkpt><trkpt lat="43.6751222" lon="12.524092"><ele>287.4</ele><time>2026-03-22T11:27:51.972Z</time></trkpt><trkpt lat="43.6750467" lon="12.5241556"><ele>286.6</ele><time>2026-03-22T11:27:52.971Z</time></trkpt><trkpt lat="43.6749592" lon="12.5241938"><ele>285.8</ele><time>2026-03-22T11:27:53.971Z</time></trkpt><trkpt lat="43.6748651" lon="12.5241929"><ele>285.0</ele><time>2026-03-22T11:27:54.971Z</time></trkpt><trkpt lat="43.6747631" lon="12.5241655"><ele>285.0</ele><time>2026-03-22T11:27:55.972Z</time></trkpt><trkpt lat="43.6746519" lon="12.5241244"><ele>285.0</ele><time>2026-03-22T11:27:56.971Z</time></trkpt><trkpt lat="43.674536" lon="12.5240782"><ele>285.0</ele><time>2026-03-22T11:27:57.972Z</time></trkpt><trkpt lat="43.6744191" lon="12.524029"><ele>285.0</ele><time>2026-03-22T11:27:58.97Z</time></trkpt><trkpt lat="43.6742986" lon="12.5239746"><ele>284.75</ele><time>2026-03-22T11:27:59.972Z</time></trkpt><trkpt lat="43.6741742" lon="12.5239158"><ele>284.5</ele><time>2026-03-22T11:28:00.972Z</time></trkpt><trkpt lat="43.6740469" lon="12.5238551"><ele>284.25</ele><time>2026-03-22T11:28:01.971Z</time></trkpt><trkpt lat="43.6739165" lon="12.5237952"><ele>284.0</ele><time>2026-03-22T11:28:02.972Z</time></trkpt><trkpt lat="43.6737842" lon="12.5237328"><ele>283.5</ele><time>2026-03-22T11:28:03.971Z</time></trkpt><trkpt lat="43.6736537" lon="12.5236701"><ele>283.0</ele><time>2026-03-22T11:28:04.972Z</time></trkpt><trkpt lat="43.6735252" lon="12.5236076"><ele>282.5</ele><time>2026-03-22T11:28:05.972Z</time></trkpt><trkpt lat="43.6733992" lon="12.523548"><ele>282.0</ele><time>2026-03-22T11:28:06.971Z</time></trkpt><trkpt lat="43.6732788" lon="12.52349"><ele>281.25</ele><time>2026-03-22T11:28:07.971Z</time></trkpt><trkpt lat="43.6731623" lon="12.5234343"><ele>280.5</ele><time>2026-03-22T11:28:08.972Z</time></trkpt><trkpt lat="43.6730477" lon="12.5233808"><ele>279.75</ele><time>2026-03-22T11:28:09.971Z</time></trkpt><trkpt lat="43.6729388" lon="12.5233283"><ele>279.0</ele><time>2026-03-22T11:28:10.971Z</time></trkpt><trkpt lat="43.6728309" lon="12.5232815"><ele>278.8</ele><time>2026-03-22T11:28:11.972Z</time></trkpt><trkpt lat="43.6727258" lon="12.5232342"><ele>278.59999999999997</ele><time>2026-03-22T11:28:12.971Z</time></trkpt><trkpt lat="43.6726203" lon="12.5231835"><ele>278.4</ele><time>2026-03-22T11:28:13.972Z</time></trkpt><trkpt lat="43.6725148" lon="12.5231345"><ele>278.2</ele><time>2026-03-22T11:28:14.972Z</time></trkpt><trkpt lat="43.6724148" lon="12.5230865"><ele>278.0</ele><time>2026-03-22T11:28:15.97Z</time></trkpt><trkpt lat="43.6723403" lon="12.5230506"><ele>278.0</ele><time>2026-03-22T11:28:16.97Z</time></trkpt><trkpt lat="43.6722807" lon="12.523018"><ele>278.0</ele><time>2026-03-22T11:28:17.972Z</time></trkpt><trkpt lat="43.6721998" lon="12.5229055"><ele>278.0</ele><time>2026-03-22T11:28:19.971Z</time></trkpt><trkpt lat="43.672152" lon="12.5227523"><ele>278.0</ele><time>2026-03-22T11:28:21.97Z</time></trkpt><trkpt lat="43.6721017" lon="12.5226685"><ele>278.0</ele><time>2026-03-22T11:28:22.971Z</time></trkpt><trkpt lat="43.6720282" lon="12.5226047"><ele>277.8</ele><time>2026-03-22T11:28:23.971Z</time></trkpt><trkpt lat="43.6719331" lon="12.5225538"><ele>277.6</ele><time>2026-03-22T11:28:24.972Z</time></trkpt><trkpt lat="43.6718262" lon="12.5224928"><ele>277.4</ele><time>2026-03-22T11:28:25.971Z</time></trkpt><trkpt lat="43.6717251" lon="12.5224069"><ele>277.2</ele><time>2026-03-22T11:28:26.97Z</time></trkpt><trkpt lat="43.6716379" lon="12.5223081"><ele>277.0</ele><time>2026-03-22T11:28:27.972Z</time></trkpt><trkpt lat="43.6715603" lon="12.5221863"><ele>276.75</ele><time>2026-03-22T11:28:28.972Z</time></trkpt><trkpt lat="43.6714897" lon="12.5220473"><ele>276.5</ele><time>2026-03-22T11:28:29.971Z</time></trkpt><trkpt lat="43.6714279" lon="12.5218922"><ele>276.25</ele><time>2026-03-22T11:28:30.972Z</time></trkpt><trkpt lat="43.6713696" lon="12.5217283"><ele>276.0</ele><time>2026-03-22T11:28:31.971Z</time></trkpt><trkpt lat="43.6713174" lon="12.5215559"><ele>276.0</ele><time>2026-03-22T11:28:32.971Z</time></trkpt><trkpt lat="43.6712789" lon="12.5213809"><ele>276.0</ele><time>2026-03-22T11:28:33.972Z</time></trkpt><trkpt lat="43.671251" lon="12.5212095"><ele>276.0</ele><time>2026-03-22T11:28:34.972Z</time></trkpt><trkpt lat="43.6712273" lon="12.5210312"><ele>276.0</ele><time>2026-03-22T11:28:35.972Z</time></trkpt><trkpt lat="43.6712145" lon="12.5208439"><ele>275.5</ele><time>2026-03-22T11:28:36.972Z</time></trkpt><trkpt lat="43.671215" lon="12.5206466"><ele>275.0</ele><time>2026-03-22T11:28:37.97Z</time></trkpt><trkpt lat="43.671225" lon="12.5204411"><ele>274.5</ele><time>2026-03-22T11:28:38.972Z</time></trkpt><trkpt lat="43.6712397" lon="12.5202293"><ele>274.0</ele><time>2026-03-22T11:28:39.971Z</time></trkpt><trkpt lat="43.6712569" lon="12.5200116"><ele>272.5</ele><time>2026-03-22T11:28:40.971Z</time></trkpt><trkpt lat="43.6712786" lon="12.5198083"><ele>271.0</ele><time>2026-03-22T11:28:41.971Z</time></trkpt><trkpt lat="43.6712979" lon="12.5196123"><ele>269.5</ele><time>2026-03-22T11:28:42.972Z</time></trkpt><trkpt lat="43.6713123" lon="12.5194151"><ele>268.0</ele><time>2026-03-22T11:28:43.971Z</time></trkpt><trkpt lat="43.6713292" lon="12.5192198"><ele>268.0</ele><time>2026-03-22T11:28:44.972Z</time></trkpt><trkpt lat="43.6713432" lon="12.5190453"><ele>268.0</ele><time>2026-03-22T11:28:45.972Z</time></trkpt><trkpt lat="43.6713577" lon="12.5188888"><ele>268.0</ele><time>2026-03-22T11:28:46.972Z</time></trkpt><trkpt lat="43.6713709" lon="12.518746"><ele>268.0</ele><time>2026-03-22T11:28:47.971Z</time></trkpt><trkpt lat="43.6713824" lon="12.5186099"><ele>268.0</ele><time>2026-03-22T11:28:48.971Z</time></trkpt><trkpt lat="43.6713922" lon="12.5184902"><ele>269.66666666666663</ele><time>2026-03-22T11:28:49.972Z</time></trkpt><trkpt lat="43.6714086" lon="12.5183722"><ele>271.3333333333333</ele><time>2026-03-22T11:28:50.972Z</time></trkpt><trkpt lat="43.6714279" lon="12.5182518"><ele>273.0</ele><time>2026-03-22T11:28:51.972Z</time></trkpt><trkpt lat="43.6714319" lon="12.5181354"><ele>274.6666666666667</ele><time>2026-03-22T11:28:52.971Z</time></trkpt><trkpt lat="43.6714135" lon="12.5180317"><ele>276.33333333333337</ele><time>2026-03-22T11:28:53.972Z</time></trkpt><trkpt lat="43.6713704" lon="12.5179572"><ele>278.0</ele><time>2026-03-22T11:28:54.972Z</time></trkpt><trkpt lat="43.6713057" lon="12.5179113"><ele>278.0</ele><time>2026-03-22T11:28:55.971Z</time></trkpt><trkpt lat="43.6712331" lon="12.5179121"><ele>278.0</ele><time>2026-03-22T11:28:56.972Z</time></trkpt><trkpt lat="43.6711558" lon="12.5179525"><ele>278.0</ele><time>2026-03-22T11:28:57.972Z</time></trkpt><trkpt lat="43.6710752" lon="12.518025"><ele>278.0</ele><time>2026-03-22T11:28:58.972Z</time></trkpt><trkpt lat="43.6709877" lon="12.5181208"><ele>278.0</ele><time>2026-03-22T11:28:59.971Z</time></trkpt><trkpt lat="43.670907" lon="12.5182229"><ele>278.2</ele><time>2026-03-22T11:29:00.971Z</time></trkpt><trkpt lat="43.6708292" lon="12.5183231"><ele>278.4</ele><time>2026-03-22T11:29:01.972Z</time></trkpt><trkpt lat="43.6707516" lon="12.5184217"><ele>278.59999999999997</ele><time>2026-03-22T11:29:02.971Z</time></trkpt><trkpt lat="43.6706783" lon="12.5185141"><ele>278.8</ele><time>2026-03-22T11:29:03.971Z</time></trkpt><trkpt lat="43.6706108" lon="12.5186067"><ele>279.0</ele><time>2026-03-22T11:29:04.97Z</time></trkpt><trkpt lat="43.6705385" lon="12.5187019"><ele>279.0</ele><time>2026-03-22T11:29:05.972Z</time></trkpt><trkpt lat="43.670469" lon="12.5187912"><ele>279.0</ele><time>2026-03-22T11:29:06.972Z</time></trkpt><trkpt lat="43.6704061" lon="12.5188719"><ele>279.0</ele><time>2026-03-22T11:29:07.971Z</time></trkpt><trkpt lat="43.6703391" lon="12.5189507"><ele>279.0</ele><time>2026-03-22T11:29:08.971Z</time></trkpt><trkpt lat="43.670268" lon="12.5190336"><ele>279.0</ele><time>2026-03-22T11:29:09.971Z</time></trkpt><trkpt lat="43.670194" lon="12.5191247"><ele>279.0</ele><time>2026-03-22T11:29:10.971Z</time></trkpt><trkpt lat="43.6701168" lon="12.5192206"><ele>279.0</ele><time>2026-03-22T11:29:11.971Z</time></trkpt><trkpt lat="43.6700406" lon="12.5193142"><ele>279.0</ele><time>2026-03-22T11:29:12.972Z</time></trkpt><trkpt lat="43.6699622" lon="12.5194116"><ele>279.0</ele><time>2026-03-22T11:29:13.971Z</time></trkpt><trkpt lat="43.6698834" lon="12.5195022"><ele>279.0</ele><time>2026-03-22T11:29:14.972Z</time></trkpt><trkpt lat="43.6698031" lon="12.5195989"><ele>279.0</ele><time>2026-03-22T11:29:15.972Z</time></trkpt><trkpt lat="43.6697219" lon="12.5196983"><ele>279.0</ele><time>2026-03-22T11:29:16.972Z</time></trkpt><trkpt lat="43.669641" lon="12.5197996"><ele>279.0</ele><time>2026-03-22T11:29:17.971Z</time></trkpt><trkpt lat="43.6695616" lon="12.5198954"><ele>279.0</ele><time>2026-03-22T11:29:18.971Z</time></trkpt><trkpt lat="43.6694851" lon="12.5199938"><ele>279.0</ele><time>2026-03-22T11:29:19.972Z</time></trkpt><trkpt lat="43.6694062" lon="12.520086"><ele>279.0</ele><time>2026-03-22T11:29:20.972Z</time></trkpt><trkpt lat="43.6693267" lon="12.5201846"><ele>279.0</ele><time>2026-03-22T11:29:21.971Z</time></trkpt><trkpt lat="43.6692489" lon="12.5202798"><ele>279.0</ele><time>2026-03-22T11:29:22.971Z</time></trkpt><trkpt lat="43.6691768" lon="12.5203636"><ele>279.0</ele><time>2026-03-22T11:29:23.972Z</time></trkpt><trkpt lat="43.6691189" lon="12.5204317"><ele>279.0</ele><time>2026-03-22T11:29:24.972Z</time></trkpt><trkpt lat="43.6690323" lon="12.5205375"><ele>277.59999999999997</ele><time>2026-03-22T11:29:26.972Z</time></trkpt><trkpt lat="43.6689512" lon="12.5206416"><ele>276.2</ele><time>2026-03-22T11:29:28.972Z</time></trkpt><trkpt lat="43.668856" lon="12.5207513"><ele>274.79999999999995</ele><time>2026-03-22T11:29:30.971Z</time></trkpt><trkpt lat="43.668809" lon="12.5208092"><ele>273.4</ele><time>2026-03-22T11:29:31.972Z</time></trkpt><trkpt lat="43.6687622" lon="12.5208679"><ele>272.0</ele><time>2026-03-22T11:29:32.972Z</time></trkpt><trkpt lat="43.6686683" lon="12.5209874"><ele>273.6</ele><time>2026-03-22T11:29:34.971Z</time></trkpt><trkpt lat="43.668578" lon="12.5211052"><ele>275.2</ele><time>2026-03-22T11:29:36.971Z</time></trkpt><trkpt lat="43.6684773" lon="12.5212055"><ele>276.8</ele><time>2026-03-22T11:29:38.971Z</time></trkpt><trkpt lat="43.6683765" lon="12.5211727"><ele>278.4</ele><time>2026-03-22T11:29:40.971Z</time></trkpt><trkpt lat="43.6683265" lon="12.5211075"><ele>280.0</ele><time>2026-03-22T11:29:41.97Z</time></trkpt><trkpt lat="43.6682728" lon="12.5210104"><ele>280.0</ele><time>2026-03-22T11:29:42.972Z</time></trkpt><trkpt lat="43.6682164" lon="12.5208944"><ele>280.0</ele><time>2026-03-22T11:29:43.971Z</time></trkpt><trkpt lat="43.6681637" lon="12.520783"><ele>280.0</ele><time>2026-03-22T11:29:44.971Z</time></trkpt><trkpt lat="43.6681087" lon="12.5206724"><ele>280.0</ele><time>2026-03-22T11:29:45.971Z</time></trkpt><trkpt lat="43.6680517" lon="12.520559"><ele>280.0</ele><time>2026-03-22T11:29:46.972Z</time></trkpt><trkpt lat="43.6679953" lon="12.5204495"><ele>280.2</ele><time>2026-03-22T11:29:47.971Z</time></trkpt><trkpt lat="43.6679356" lon="12.5203406"><ele>280.4</ele><time>2026-03-22T11:29:48.971Z</time></trkpt><trkpt lat="43.6678781" lon="12.5202329"><ele>280.6</ele><time>2026-03-22T11:29:49.972Z</time></trkpt><trkpt lat="43.6678267" lon="12.5201252"><ele>280.8</ele><time>2026-03-22T11:29:50.972Z</time></trkpt><trkpt lat="43.6677794" lon="12.520027"><ele>281.0</ele><time>2026-03-22T11:29:51.971Z</time></trkpt><trkpt lat="43.6677311" lon="12.519939"><ele>281.0</ele><time>2026-03-22T11:29:52.97Z</time></trkpt><trkpt lat="43.6676808" lon="12.5198383"><ele>281.0</ele><time>2026-03-22T11:29:53.971Z</time></trkpt><trkpt lat="43.6676261" lon="12.5197272"><ele>281.0</ele><time>2026-03-22T11:29:54.971Z</time></trkpt><trkpt lat="43.667569" lon="12.5196092"><ele>281.0</ele><time>2026-03-22T11:29:55.971Z</time></trkpt><trkpt lat="43.6675133" lon="12.5194922"><ele>281.0</ele><time>2026-03-22T11:29:56.972Z</time></trkpt><trkpt lat="43.667462" lon="12.5193815"><ele>281.2</ele><time>2026-03-22T11:29:57.971Z</time></trkpt><trkpt lat="43.667412" lon="12.5192637"><ele>281.40000000000003</ele><time>2026-03-22T11:29:58.971Z</time></trkpt><trkpt lat="43.6673671" lon="12.5191353"><ele>281.6</ele><time>2026-03-22T11:29:59.972Z</time></trkpt><trkpt lat="43.6673122" lon="12.5190073"><ele>281.8</ele><time>2026-03-22T11:30:00.972Z</time></trkpt><trkpt lat="43.667255" lon="12.518875"><ele>282.0</ele><time>2026-03-22T11:30:01.971Z</time></trkpt><trkpt lat="43.6671993" lon="12.5187441"><ele>282.5</ele><time>2026-03-22T11:30:02.972Z</time></trkpt><trkpt lat="43.6671443" lon="12.5186212"><ele>283.0</ele><time>2026-03-22T11:30:03.971Z</time></trkpt><trkpt lat="43.6670929" lon="12.5185058"><ele>283.5</ele><time>2026-03-22T11:30:04.97Z</time></trkpt><trkpt lat="43.6670486" lon="12.5183994"><ele>284.0</ele><time>2026-03-22T11:30:05.972Z</time></trkpt><trkpt lat="43.6670083" lon="12.5183143"><ele>284.5</ele><time>2026-03-22T11:30:06.971Z</time></trkpt><trkpt lat="43.6669749" lon="12.5182401"><ele>285.0</ele><time>2026-03-22T11:30:07.971Z</time></trkpt><trkpt lat="43.6669247" lon="12.518126"><ele>285.3333333333333</ele><time>2026-03-22T11:30:09.972Z</time></trkpt><trkpt lat="43.6668813" lon="12.5180453"><ele>285.6666666666667</ele><time>2026-03-22T11:30:11.97Z</time></trkpt><trkpt lat="43.6668501" lon="12.5179475"><ele>286.0</ele><time>2026-03-22T11:30:14.972Z</time></trkpt><trkpt lat="43.666824" lon="12.5178505"><ele>286.33333333333337</ele><time>2026-03-22T11:30:16.972Z</time></trkpt><trkpt lat="43.6667717" lon="12.5176964"><ele>286.6666666666667</ele><time>2026-03-22T11:30:18.971Z</time></trkpt><trkpt lat="43.6667447" lon="12.5175918"><ele>287.0</ele><time>2026-03-22T11:30:19.971Z</time></trkpt><trkpt lat="43.6667141" lon="12.5174821"><ele>287.0</ele><time>2026-03-22T11:30:20.972Z</time></trkpt><trkpt lat="43.6666867" lon="12.5173567"><ele>287.0</ele><time>2026-03-22T11:30:21.972Z</time></trkpt><trkpt lat="43.6666613" lon="12.5172206"><ele>287.0</ele><time>2026-03-22T11:30:22.971Z</time></trkpt><trkpt lat="43.6666458" lon="12.517078"><ele>287.0</ele><time>2026-03-22T11:30:23.972Z</time></trkpt><trkpt lat="43.6666291" lon="12.5169401"><ele>287.0</ele><time>2026-03-22T11:30:24.972Z</time></trkpt><trkpt lat="43.6666048" lon="12.516799"><ele>287.2</ele><time>2026-03-22T11:30:25.971Z</time></trkpt><trkpt lat="43.6665775" lon="12.5166532"><ele>287.4</ele><time>2026-03-22T11:30:26.971Z</time></trkpt><trkpt lat="43.6665384" lon="12.5165209"><ele>287.6</ele><time>2026-03-22T11:30:27.972Z</time></trkpt><trkpt lat="43.6664898" lon="12.5164147"><ele>287.8</ele><time>2026-03-22T11:30:28.972Z</time></trkpt><trkpt lat="43.6664261" lon="12.5163086"><ele>288.0</ele><time>2026-03-22T11:30:29.97Z</time></trkpt><trkpt lat="43.6663569" lon="12.5161991"><ele>288.0</ele><time>2026-03-22T11:30:30.971Z</time></trkpt><trkpt lat="43.6662903" lon="12.5160863"><ele>288.0</ele><time>2026-03-22T11:30:31.972Z</time></trkpt><trkpt lat="43.6662358" lon="12.5159789"><ele>288.0</ele><time>2026-03-22T11:30:32.972Z</time></trkpt><trkpt lat="43.6661921" lon="12.5158748"><ele>288.0</ele><time>2026-03-22T11:30:33.971Z</time></trkpt><trkpt lat="43.666157" lon="12.5157806"><ele>288.0</ele><time>2026-03-22T11:30:34.971Z</time></trkpt><trkpt lat="43.6661277" lon="12.5156868"><ele>288.0</ele><time>2026-03-22T11:30:35.972Z</time></trkpt><trkpt lat="43.6661026" lon="12.5155794"><ele>288.0</ele><time>2026-03-22T11:30:36.972Z</time></trkpt><trkpt lat="43.666079" lon="12.515469"><ele>288.0</ele><time>2026-03-22T11:30:37.971Z</time></trkpt><trkpt lat="43.6660657" lon="12.5153651"><ele>288.0</ele><time>2026-03-22T11:30:38.972Z</time></trkpt><trkpt lat="43.6660588" lon="12.5152758"><ele>288.0</ele><time>2026-03-22T11:30:39.97Z</time></trkpt><trkpt lat="43.6660511" lon="12.5151859"><ele>288.0</ele><time>2026-03-22T11:30:40.972Z</time></trkpt><trkpt lat="43.6660476" lon="12.5150169"><ele>288.0</ele><time>2026-03-22T11:30:42.97Z</time></trkpt><trkpt lat="43.6660538" lon="12.5148605"><ele>288.6666666666667</ele><time>2026-03-22T11:30:44.971Z</time></trkpt><trkpt lat="43.6660647" lon="12.5147114"><ele>289.3333333333333</ele><time>2026-03-22T11:30:46.972Z</time></trkpt><trkpt lat="43.6660738" lon="12.51456"><ele>290.0</ele><time>2026-03-22T11:30:48.971Z</time></trkpt><trkpt lat="43.6660842" lon="12.5144583"><ele>290.66666666666663</ele><time>2026-03-22T11:30:49.971Z</time></trkpt><trkpt lat="43.6660953" lon="12.514348"><ele>291.3333333333333</ele><time>2026-03-22T11:30:50.971Z</time></trkpt><trkpt lat="43.6661023" lon="12.5142477"><ele>292.0</ele><time>2026-03-22T11:30:51.971Z</time></trkpt><trkpt lat="43.6661057" lon="12.5140973"><ele>292.8333333333333</ele><time>2026-03-22T11:30:53.972Z</time></trkpt><trkpt lat="43.6661009" lon="12.5139721"><ele>293.66666666666663</ele><time>2026-03-22T11:30:56.971Z</time></trkpt><trkpt lat="43.6660823" lon="12.5138504"><ele>294.5</ele><time>2026-03-22T11:30:58.972Z</time></trkpt><trkpt lat="43.6660636" lon="12.5137501"><ele>295.3333333333333</ele><time>2026-03-22T11:31:00.97Z</time></trkpt><trkpt lat="43.6660436" lon="12.513639"><ele>296.1666666666667</ele><time>2026-03-22T11:31:03.971Z</time></trkpt><trkpt lat="43.6660414" lon="12.5135433"><ele>297.0</ele><time>2026-03-22T11:31:07.972Z</time></trkpt><trkpt lat="43.6660048" lon="12.5134512"><ele>297.6666666666667</ele><time>2026-03-22T11:38:00.973Z</time></trkpt><trkpt lat="43.6659878" lon="12.5133399"><ele>298.3333333333333</ele><time>2026-03-22T11:38:02.973Z</time></trkpt><trkpt lat="43.6659561" lon="12.5132322"><ele>299.0</ele><time>2026-03-22T11:38:03.973Z</time></trkpt><trkpt lat="43.6659228" lon="12.5131467"><ele>299.66666666666663</ele><time>2026-03-22T11:38:04.972Z</time></trkpt><trkpt lat="43.6658502" lon="12.5130209"><ele>300.3333333333333</ele><time>2026-03-22T11:38:05.973Z</time></trkpt><trkpt lat="43.6658128" lon="12.5129243"><ele>301.0</ele><time>2026-03-22T11:38:06.972Z</time></trkpt><trkpt lat="43.6657651" lon="12.5128222"><ele>302.40000000000003</ele><time>2026-03-22T11:38:07.973Z</time></trkpt><trkpt lat="43.6657171" lon="12.5127229"><ele>303.8</ele><time>2026-03-22T11:38:08.972Z</time></trkpt><trkpt lat="43.6656693" lon="12.5126065"><ele>305.20000000000005</ele><time>2026-03-22T11:38:09.972Z</time></trkpt><trkpt lat="43.6656384" lon="12.5124808"><ele>306.6</ele><time>2026-03-22T11:38:10.973Z</time></trkpt><trkpt lat="43.6656131" lon="12.5123468"><ele>308.0</ele><time>2026-03-22T11:38:11.972Z</time></trkpt><trkpt lat="43.6655952" lon="12.5122094"><ele>309.8</ele><time>2026-03-22T11:38:12.972Z</time></trkpt><trkpt lat="43.6655816" lon="12.5120719"><ele>311.6</ele><time>2026-03-22T11:38:13.973Z</time></trkpt><trkpt lat="43.6655697" lon="12.5119321"><ele>313.4</ele><time>2026-03-22T11:38:14.973Z</time></trkpt><trkpt lat="43.6655509" lon="12.5117942"><ele>315.2</ele><time>2026-03-22T11:38:15.973Z</time></trkpt><trkpt lat="43.6655225" lon="12.5116611"><ele>317.0</ele><time>2026-03-22T11:38:16.972Z</time></trkpt><trkpt lat="43.6654848" lon="12.5115176"><ele>317.0</ele><time>2026-03-22T11:38:17.973Z</time></trkpt><trkpt lat="43.6654437" lon="12.5113648"><ele>317.0</ele><time>2026-03-22T11:38:18.973Z</time></trkpt><trkpt lat="43.6653894" lon="12.511221"><ele>317.0</ele><time>2026-03-22T11:38:19.972Z</time></trkpt><trkpt lat="43.665333" lon="12.511083"><ele>317.0</ele><time>2026-03-22T11:38:20.973Z</time></trkpt><trkpt lat="43.6652741" lon="12.51094"><ele>314.5</ele><time>2026-03-22T11:38:21.972Z</time></trkpt><trkpt lat="43.6652159" lon="12.5107841"><ele>312.0</ele><time>2026-03-22T11:38:22.972Z</time></trkpt><trkpt lat="43.6651631" lon="12.5106227"><ele>309.5</ele><time>2026-03-22T11:38:23.972Z</time></trkpt><trkpt lat="43.6651174" lon="12.5104598"><ele>307.0</ele><time>2026-03-22T11:38:24.971Z</time></trkpt><trkpt lat="43.6650807" lon="12.5102825"><ele>307.0</ele><time>2026-03-22T11:38:25.972Z</time></trkpt><trkpt lat="43.6650521" lon="12.5101094"><ele>307.0</ele><time>2026-03-22T11:38:26.973Z</time></trkpt><trkpt lat="43.6650307" lon="12.5099496"><ele>307.0</ele><time>2026-03-22T11:38:27.972Z</time></trkpt><trkpt lat="43.6649954" lon="12.5098061"><ele>307.0</ele><time>2026-03-22T11:38:28.972Z</time></trkpt><trkpt lat="43.6649441" lon="12.5096667"><ele>309.5</ele><time>2026-03-22T11:38:29.972Z</time></trkpt><trkpt lat="43.6648681" lon="12.5095491"><ele>312.0</ele><time>2026-03-22T11:38:30.972Z</time></trkpt><trkpt lat="43.6647721" lon="12.5094122"><ele>314.5</ele><time>2026-03-22T11:38:31.973Z</time></trkpt><trkpt lat="43.6646784" lon="12.5092889"><ele>317.0</ele><time>2026-03-22T11:38:32.972Z</time></trkpt><trkpt lat="43.6645771" lon="12.5091739"><ele>317.0</ele><time>2026-03-22T11:38:33.972Z</time></trkpt><trkpt lat="43.6644651" lon="12.5090608"><ele>317.0</ele><time>2026-03-22T11:38:34.972Z</time></trkpt><trkpt lat="43.6643495" lon="12.5089622"><ele>317.0</ele><time>2026-03-22T11:38:35.973Z</time></trkpt><trkpt lat="43.664235" lon="12.5088687"><ele>317.0</ele><time>2026-03-22T11:38:36.973Z</time></trkpt><trkpt lat="43.6641323" lon="12.5087719"><ele>317.25</ele><time>2026-03-22T11:38:37.972Z</time></trkpt><trkpt lat="43.6640372" lon="12.5086598"><ele>317.5</ele><time>2026-03-22T11:38:38.973Z</time></trkpt><trkpt lat="43.6639573" lon="12.5085256"><ele>317.75</ele><time>2026-03-22T11:38:39.971Z</time></trkpt><trkpt lat="43.6638838" lon="12.5083789"><ele>318.0</ele><time>2026-03-22T11:38:40.973Z</time></trkpt><trkpt lat="43.6638165" lon="12.5082093"><ele>318.0</ele><time>2026-03-22T11:38:41.972Z</time></trkpt><trkpt lat="43.6637578" lon="12.5080308"><ele>318.0</ele><time>2026-03-22T11:38:42.973Z</time></trkpt><trkpt lat="43.6636919" lon="12.507839"><ele>318.0</ele><time>2026-03-22T11:38:43.972Z</time></trkpt><trkpt lat="43.6636268" lon="12.5076549"><ele>318.0</ele><time>2026-03-22T11:38:44.973Z</time></trkpt><trkpt lat="43.6635602" lon="12.5074777"><ele>317.0</ele><time>2026-03-22T11:38:45.972Z</time></trkpt><trkpt lat="43.6634846" lon="12.5073023"><ele>316.0</ele><time>2026-03-22T11:38:46.972Z</time></trkpt><trkpt lat="43.6634072" lon="12.507131"><ele>315.0</ele><time>2026-03-22T11:38:47.973Z</time></trkpt><trkpt lat="43.6633316" lon="12.5069661"><ele>314.0</ele><time>2026-03-22T11:38:48.973Z</time></trkpt><trkpt lat="43.6632554" lon="12.506802"><ele>314.0</ele><time>2026-03-22T11:38:49.973Z</time></trkpt><trkpt lat="43.6631805" lon="12.5066434"><ele>314.0</ele><time>2026-03-22T11:38:50.973Z</time></trkpt><trkpt lat="43.6631132" lon="12.506485"><ele>314.0</ele><time>2026-03-22T11:38:51.972Z</time></trkpt><trkpt lat="43.6630544" lon="12.5063296"><ele>314.0</ele><time>2026-03-22T11:38:52.973Z</time></trkpt><trkpt lat="43.6629961" lon="12.5061568"><ele>314.25</ele><time>2026-03-22T11:38:53.972Z</time></trkpt><trkpt lat="43.6629338" lon="12.5059821"><ele>314.5</ele><time>2026-03-22T11:38:54.973Z</time></trkpt><trkpt lat="43.6628721" lon="12.5058024"><ele>314.75</ele><time>2026-03-22T11:38:55.973Z</time></trkpt><trkpt lat="43.6628101" lon="12.5056208"><ele>315.0</ele><time>2026-03-22T11:38:56.972Z</time></trkpt><trkpt lat="43.6627497" lon="12.5054407"><ele>315.75</ele><time>2026-03-22T11:38:57.973Z</time></trkpt><trkpt lat="43.6626929" lon="12.5052785"><ele>316.5</ele><time>2026-03-22T11:38:58.972Z</time></trkpt><trkpt lat="43.662628" lon="12.5051303"><ele>317.25</ele><time>2026-03-22T11:38:59.973Z</time></trkpt><trkpt lat="43.6625508" lon="12.5049826"><ele>318.0</ele><time>2026-03-22T11:39:00.972Z</time></trkpt><trkpt lat="43.662455" lon="12.5048295"><ele>318.0</ele><time>2026-03-22T11:39:01.972Z</time></trkpt><trkpt lat="43.6623468" lon="12.5046687"><ele>318.0</ele><time>2026-03-22T11:39:02.973Z</time></trkpt><trkpt lat="43.6622334" lon="12.5044994"><ele>318.0</ele><time>2026-03-22T11:39:03.973Z</time></trkpt><trkpt lat="43.6621172" lon="12.5043255"><ele>320.0</ele><time>2026-03-22T11:39:04.972Z</time></trkpt><trkpt lat="43.662001" lon="12.5041507"><ele>322.0</ele><time>2026-03-22T11:39:05.973Z</time></trkpt><trkpt lat="43.6618858" lon="12.503976"><ele>324.0</ele><time>2026-03-22T11:39:06.973Z</time></trkpt><trkpt lat="43.661774" lon="12.5038032"><ele>326.3333333333333</ele><time>2026-03-22T11:39:07.971Z</time></trkpt><trkpt lat="43.6616668" lon="12.5036338"><ele>328.66666666666663</ele><time>2026-03-22T11:39:08.972Z</time></trkpt><trkpt lat="43.6615587" lon="12.5034687"><ele>331.0</ele><time>2026-03-22T11:39:09.973Z</time></trkpt><trkpt lat="43.661446" lon="12.5033107"><ele>331.0</ele><time>2026-03-22T11:39:10.971Z</time></trkpt><trkpt lat="43.6613254" lon="12.5031542"><ele>331.0</ele><time>2026-03-22T11:39:11.972Z</time></trkpt><trkpt lat="43.6612055" lon="12.5029968"><ele>331.0</ele><time>2026-03-22T11:39:12.972Z</time></trkpt><trkpt lat="43.6610811" lon="12.5028384"><ele>334.3333333333333</ele><time>2026-03-22T11:39:13.973Z</time></trkpt><trkpt lat="43.6609585" lon="12.5026795"><ele>337.6666666666667</ele><time>2026-03-22T11:39:14.972Z</time></trkpt><trkpt lat="43.6608483" lon="12.5025176"><ele>341.0</ele><time>2026-03-22T11:39:15.972Z</time></trkpt><trkpt lat="43.6607596" lon="12.5023416"><ele>341.0</ele><time>2026-03-22T11:39:16.972Z</time></trkpt><trkpt lat="43.6606879" lon="12.5021495"><ele>341.0</ele><time>2026-03-22T11:39:17.973Z</time></trkpt><trkpt lat="43.6606235" lon="12.501949"><ele>341.0</ele><time>2026-03-22T11:39:18.973Z</time></trkpt><trkpt lat="43.6605602" lon="12.501746"><ele>342.6666666666667</ele><time>2026-03-22T11:39:19.973Z</time></trkpt><trkpt lat="43.6604978" lon="12.5015415"><ele>344.3333333333333</ele><time>2026-03-22T11:39:20.973Z</time></trkpt><trkpt lat="43.6604412" lon="12.5013346"><ele>346.0</ele><time>2026-03-22T11:39:21.971Z</time></trkpt><trkpt lat="43.6603834" lon="12.5011296"><ele>349.3333333333333</ele><time>2026-03-22T11:39:22.973Z</time></trkpt><trkpt lat="43.660328" lon="12.5009257"><ele>352.6666666666667</ele><time>2026-03-22T11:39:23.973Z</time></trkpt><trkpt lat="43.6602737" lon="12.5007186"><ele>356.0</ele><time>2026-03-22T11:39:24.972Z</time></trkpt><trkpt lat="43.660221" lon="12.5005056"><ele>360.33333333333337</ele><time>2026-03-22T11:39:25.972Z</time></trkpt><trkpt lat="43.660176" lon="12.5002863"><ele>364.6666666666667</ele><time>2026-03-22T11:39:26.973Z</time></trkpt><trkpt lat="43.6601384" lon="12.5000612"><ele>369.0</ele><time>2026-03-22T11:39:27.973Z</time></trkpt><trkpt lat="43.6600985" lon="12.4998377"><ele>369.0</ele><time>2026-03-22T11:39:28.972Z</time></trkpt><trkpt lat="43.6600514" lon="12.4996088"><ele>369.0</ele><time>2026-03-22T11:39:29.972Z</time></trkpt><trkpt lat="43.6599937" lon="12.4994071"><ele>369.0</ele><time>2026-03-22T11:39:30.973Z</time></trkpt><trkpt lat="43.6599371" lon="12.4992118"><ele>370.79999999999995</ele><time>2026-03-22T11:39:31.972Z</time></trkpt><trkpt lat="43.6598953" lon="12.4990358"><ele>372.59999999999997</ele><time>2026-03-22T11:39:32.973Z</time></trkpt><trkpt lat="43.6598615" lon="12.4988807"><ele>374.4</ele><time>2026-03-22T11:39:33.973Z</time></trkpt><trkpt lat="43.6598323" lon="12.4987464"><ele>376.2</ele><time>2026-03-22T11:39:34.972Z</time></trkpt><trkpt lat="43.6598089" lon="12.4986426"><ele>378.0</ele><time>2026-03-22T11:39:35.973Z</time></trkpt><trkpt lat="43.6597793" lon="12.4985587"><ele>378.0</ele><time>2026-03-22T11:39:36.972Z</time></trkpt><trkpt lat="43.6597398" lon="12.4984805"><ele>378.0</ele><time>2026-03-22T11:39:37.973Z</time></trkpt><trkpt lat="43.6596831" lon="12.4983926"><ele>378.0</ele><time>2026-03-22T11:39:38.972Z</time></trkpt><trkpt lat="43.6596182" lon="12.4982841"><ele>378.0</ele><time>2026-03-22T11:39:39.972Z</time></trkpt><trkpt lat="43.6595418" lon="12.4981616"><ele>378.0</ele><time>2026-03-22T11:39:40.972Z</time></trkpt><trkpt lat="43.6594616" lon="12.4980281"><ele>379.25</ele><time>2026-03-22T11:39:41.972Z</time></trkpt><trkpt lat="43.6593786" lon="12.4978876"><ele>380.5</ele><time>2026-03-22T11:39:42.973Z</time></trkpt><trkpt lat="43.6592996" lon="12.4977613"><ele>381.75</ele><time>2026-03-22T11:39:43.973Z</time></trkpt><trkpt lat="43.6592264" lon="12.4976495"><ele>383.0</ele><time>2026-03-22T11:39:44.972Z</time></trkpt><trkpt lat="43.6591443" lon="12.4975413"><ele>383.0</ele><time>2026-03-22T11:39:45.972Z</time></trkpt><trkpt lat="43.6590509" lon="12.4974512"><ele>383.0</ele><time>2026-03-22T11:39:46.973Z</time></trkpt><trkpt lat="43.6589451" lon="12.4973671"><ele>383.0</ele><time>2026-03-22T11:39:47.973Z</time></trkpt><trkpt lat="43.6588291" lon="12.4972899"><ele>383.0</ele><time>2026-03-22T11:39:48.973Z</time></trkpt><trkpt lat="43.6587026" lon="12.4972157"><ele>382.5</ele><time>2026-03-22T11:39:49.972Z</time></trkpt><trkpt lat="43.6585714" lon="12.4971443"><ele>382.0</ele><time>2026-03-22T11:39:50.973Z</time></trkpt><trkpt lat="43.6584347" lon="12.4970732"><ele>381.5</ele><time>2026-03-22T11:39:51.973Z</time></trkpt><trkpt lat="43.658297" lon="12.4969957"><ele>381.0</ele><time>2026-03-22T11:39:52.972Z</time></trkpt><trkpt lat="43.658167" lon="12.4969236"><ele>380.75</ele><time>2026-03-22T11:39:53.973Z</time></trkpt><trkpt lat="43.6580428" lon="12.4968548"><ele>380.5</ele><time>2026-03-22T11:39:54.973Z</time></trkpt><trkpt lat="43.6579164" lon="12.496786"><ele>380.25</ele><time>2026-03-22T11:39:55.973Z</time></trkpt><trkpt lat="43.6577921" lon="12.4967123"><ele>380.0</ele><time>2026-03-22T11:39:56.973Z</time></trkpt><trkpt lat="43.6576681" lon="12.4966297"><ele>380.0</ele><time>2026-03-22T11:39:57.972Z</time></trkpt><trkpt lat="43.6575406" lon="12.4965394"><ele>380.0</ele><time>2026-03-22T11:39:58.973Z</time></trkpt><trkpt lat="43.6574138" lon="12.4964429"><ele>380.0</ele><time>2026-03-22T11:39:59.972Z</time></trkpt><trkpt lat="43.6572862" lon="12.4963436"><ele>380.0</ele><time>2026-03-22T11:40:00.973Z</time></trkpt><trkpt lat="43.657174" lon="12.4962597"><ele>379.2</ele><time>2026-03-22T11:40:01.972Z</time></trkpt><trkpt lat="43.6570733" lon="12.4961815"><ele>378.4</ele><time>2026-03-22T11:40:02.973Z</time></trkpt><trkpt lat="43.6569726" lon="12.4961113"><ele>377.6</ele><time>2026-03-22T11:40:03.973Z</time></trkpt><trkpt lat="43.6568708" lon="12.4960489"><ele>376.8</ele><time>2026-03-22T11:40:04.972Z</time></trkpt><trkpt lat="43.6567713" lon="12.4960084"><ele>376.0</ele><time>2026-03-22T11:40:05.973Z</time></trkpt><trkpt lat="43.6566681" lon="12.4959947"><ele>380.75</ele><time>2026-03-22T11:40:06.973Z</time></trkpt><trkpt lat="43.65656" lon="12.4960043"><ele>385.5</ele><time>2026-03-22T11:40:07.973Z</time></trkpt><trkpt lat="43.6564373" lon="12.4960148"><ele>390.25</ele><time>2026-03-22T11:40:08.972Z</time></trkpt><trkpt lat="43.6563086" lon="12.4960061"><ele>395.0</ele><time>2026-03-22T11:40:09.972Z</time></trkpt><trkpt lat="43.6561782" lon="12.4959819"><ele>397.5</ele><time>2026-03-22T11:40:10.973Z</time></trkpt><trkpt lat="43.656046" lon="12.4959422"><ele>400.0</ele><time>2026-03-22T11:40:11.972Z</time></trkpt><trkpt lat="43.6559167" lon="12.495903"><ele>402.5</ele><time>2026-03-22T11:40:12.972Z</time></trkpt><trkpt lat="43.6557924" lon="12.4958633"><ele>405.0</ele><time>2026-03-22T11:40:13.973Z</time></trkpt><trkpt lat="43.6556711" lon="12.4958231"><ele>405.0</ele><time>2026-03-22T11:40:14.972Z</time></trkpt><trkpt lat="43.6555487" lon="12.4957897"><ele>405.0</ele><time>2026-03-22T11:40:15.972Z</time></trkpt><trkpt lat="43.6554267" lon="12.4957602"><ele>405.0</ele><time>2026-03-22T11:40:16.972Z</time></trkpt><trkpt lat="43.6553038" lon="12.4957327"><ele>405.0</ele><time>2026-03-22T11:40:17.973Z</time></trkpt><trkpt lat="43.6551757" lon="12.4957138"><ele>408.0</ele><time>2026-03-22T11:40:18.973Z</time></trkpt><trkpt lat="43.6550422" lon="12.495706"><ele>411.0</ele><time>2026-03-22T11:40:19.972Z</time></trkpt><trkpt lat="43.6549065" lon="12.4956983"><ele>414.0</ele><time>2026-03-22T11:40:20.972Z</time></trkpt><trkpt lat="43.6547695" lon="12.4956837"><ele>417.0</ele><time>2026-03-22T11:40:21.973Z</time></trkpt><trkpt lat="43.6546522" lon="12.4956654"><ele>417.0</ele><time>2026-03-22T11:40:22.972Z</time></trkpt><trkpt lat="43.6545552" lon="12.4956326"><ele>417.0</ele><time>2026-03-22T11:40:23.973Z</time></trkpt><trkpt lat="43.6544602" lon="12.4955749"><ele>417.0</ele><time>2026-03-22T11:40:24.973Z</time></trkpt><trkpt lat="43.6543791" lon="12.4954975"><ele>417.0</ele><time>2026-03-22T11:40:25.972Z</time></trkpt><trkpt lat="43.6543104" lon="12.4954397"><ele>417.0</ele><time>2026-03-22T11:40:26.971Z</time></trkpt><trkpt lat="43.6542372" lon="12.4954142"><ele>420.8</ele><time>2026-03-22T11:40:27.972Z</time></trkpt><trkpt lat="43.6541556" lon="12.4954178"><ele>424.6</ele><time>2026-03-22T11:40:28.972Z</time></trkpt><trkpt lat="43.6540696" lon="12.4954413"><ele>428.40000000000003</ele><time>2026-03-22T11:40:29.973Z</time></trkpt><trkpt lat="43.6539791" lon="12.4954733"><ele>432.20000000000005</ele><time>2026-03-22T11:40:30.971Z</time></trkpt><trkpt lat="43.6538828" lon="12.4955024"><ele>436.0</ele><time>2026-03-22T11:40:31.972Z</time></trkpt><trkpt lat="43.6537809" lon="12.495522"><ele>436.50000000000006</ele><time>2026-03-22T11:40:32.973Z</time></trkpt><trkpt lat="43.6536777" lon="12.4955334"><ele>437.0</ele><time>2026-03-22T11:40:33.972Z</time></trkpt><trkpt lat="43.6535933" lon="12.4955407"><ele>437.5</ele><time>2026-03-22T11:40:34.972Z</time></trkpt><trkpt lat="43.6535224" lon="12.4955395"><ele>438.0</ele><time>2026-03-22T11:40:35.973Z</time></trkpt><trkpt lat="43.6534449" lon="12.4955442"><ele>438.50000000000006</ele><time>2026-03-22T11:40:37.972Z</time></trkpt><trkpt lat="43.6533642" lon="12.4955457"><ele>439.0</ele><time>2026-03-22T11:40:39.973Z</time></trkpt><trkpt lat="43.6532873" lon="12.4955629"><ele>444.79999999999995</ele><time>2026-03-22T11:40:41.973Z</time></trkpt><trkpt lat="43.6532637" lon="12.4954536"><ele>450.59999999999997</ele><time>2026-03-22T11:40:44.972Z</time></trkpt><trkpt lat="43.6533087" lon="12.4953211"><ele>456.4</ele><time>2026-03-22T11:40:46.972Z</time></trkpt><trkpt lat="43.6533258" lon="12.4951518"><ele>462.2</ele><time>2026-03-22T11:40:48.972Z</time></trkpt><trkpt lat="43.6533206" lon="12.4950362"><ele>468.0</ele><time>2026-03-22T11:40:49.973Z</time></trkpt><trkpt lat="43.6533175" lon="12.4949481"><ele>468.3333333333333</ele><time>2026-03-22T11:40:50.973Z</time></trkpt><trkpt lat="43.6532845" lon="12.4947912"><ele>468.66666666666663</ele><time>2026-03-22T11:40:52.973Z</time></trkpt><trkpt lat="43.6532059" lon="12.4946763"><ele>469.0</ele><time>2026-03-22T11:40:54.973Z</time></trkpt><trkpt lat="43.653145" lon="12.4946418"><ele>469.3333333333333</ele><time>2026-03-22T11:40:55.973Z</time></trkpt><trkpt lat="43.6530821" lon="12.4946078"><ele>469.66666666666663</ele><time>2026-03-22T11:40:56.972Z</time></trkpt><trkpt lat="43.6530134" lon="12.4945845"><ele>470.0</ele><time>2026-03-22T11:40:57.972Z</time></trkpt><trkpt lat="43.6529492" lon="12.4945763"><ele>472.2</ele><time>2026-03-22T11:40:58.972Z</time></trkpt><trkpt lat="43.6528825" lon="12.4945638"><ele>474.4</ele><time>2026-03-22T11:40:59.973Z</time></trkpt><trkpt lat="43.6527604" lon="12.4945257"><ele>476.6</ele><time>2026-03-22T11:41:01.972Z</time></trkpt><trkpt lat="43.6527012" lon="12.494483"><ele>478.8</ele><time>2026-03-22T11:41:02.972Z</time></trkpt><trkpt lat="43.6525656" lon="12.4944826"><ele>481.0</ele><time>2026-03-22T11:41:04.972Z</time></trkpt><trkpt lat="43.652483" lon="12.4945001"><ele>481.00000000000006</ele><time>2026-03-22T11:41:05.972Z</time></trkpt><trkpt lat="43.6523892" lon="12.4945084"><ele>481.0</ele><time>2026-03-22T11:41:06.971Z</time></trkpt><trkpt lat="43.6522925" lon="12.4945405"><ele>481.0</ele><time>2026-03-22T11:41:07.973Z</time></trkpt><trkpt lat="43.6522018" lon="12.4945645"><ele>481.0</ele><time>2026-03-22T11:41:08.973Z</time></trkpt><trkpt lat="43.652118" lon="12.4945661"><ele>481.00000000000006</ele><time>2026-03-22T11:41:09.972Z</time></trkpt><trkpt lat="43.6520386" lon="12.4945626"><ele>481.0</ele><time>2026-03-22T11:41:10.972Z</time></trkpt><trkpt lat="43.6519408" lon="12.4945924"><ele>484.20000000000005</ele><time>2026-03-22T11:41:12.973Z</time></trkpt><trkpt lat="43.6518326" lon="12.4946169"><ele>487.40000000000003</ele><time>2026-03-22T11:41:14.973Z</time></trkpt><trkpt lat="43.6517588" lon="12.4945935"><ele>490.6</ele><time>2026-03-22T11:41:15.973Z</time></trkpt><trkpt lat="43.651646" lon="12.4945311"><ele>493.8</ele><time>2026-03-22T11:41:17.972Z</time></trkpt><trkpt lat="43.6515317" lon="12.4944735"><ele>497.0</ele><time>2026-03-22T11:41:19.972Z</time></trkpt><trkpt lat="43.6514293" lon="12.4944066"><ele>496.99999999999994</ele><time>2026-03-22T11:41:21.972Z</time></trkpt><trkpt lat="43.6513443" lon="12.4943113"><ele>497.0</ele><time>2026-03-22T11:41:23.971Z</time></trkpt><trkpt lat="43.6512935" lon="12.4942448"><ele>497.0</ele><time>2026-03-22T11:41:25.973Z</time></trkpt><trkpt lat="43.6512445" lon="12.4941702"><ele>497.0</ele><time>2026-03-22T11:41:28.973Z</time></trkpt><trkpt lat="43.6511971" lon="12.4940914"><ele>496.99999999999994</ele><time>2026-03-22T11:41:44.973Z</time></trkpt><trkpt lat="43.6511866" lon="12.4939782"><ele>497.0</ele><time>2026-03-22T11:41:47.973Z</time></trkpt><trkpt lat="43.6511291" lon="12.4940574"><ele>497.0</ele><time>2026-03-22T11:41:51.973Z</time></trkpt><trkpt lat="43.6512083" lon="12.4941448"><ele>497.00000000000006</ele><time>2026-03-22T11:41:53.973Z</time></trkpt><trkpt lat="43.6512698" lon="12.4942349"><ele>497.00000000000006</ele><time>2026-03-22T11:41:55.971Z</time></trkpt><trkpt lat="43.6513365" lon="12.4943206"><ele>497.0</ele><time>2026-03-22T11:41:57.972Z</time></trkpt><trkpt lat="43.6514202" lon="12.49441"><ele>497.0</ele><time>2026-03-22T11:41:59.972Z</time></trkpt><trkpt lat="43.651479" lon="12.4944507"><ele>497.0</ele><time>2026-03-22T11:42:01.973Z</time></trkpt><trkpt lat="43.6515466" lon="12.4944844"><ele>497.00000000000006</ele><time>2026-03-22T11:42:04.972Z</time></trkpt><trkpt lat="43.6516355" lon="12.4945296"><ele>497.00000000000006</ele><time>2026-03-22T11:42:06.972Z</time></trkpt><trkpt lat="43.6516962" lon="12.4945612"><ele>497.0</ele><time>2026-03-22T11:42:07.972Z</time></trkpt><trkpt lat="43.6518119" lon="12.4946109"><ele>497.0</ele><time>2026-03-22T11:42:09.972Z</time></trkpt><trkpt lat="43.6519285" lon="12.4946202"><ele>493.8</ele><time>2026-03-22T11:42:11.973Z</time></trkpt><trkpt lat="43.6520417" lon="12.4945588"><ele>490.6</ele><time>2026-03-22T11:42:13.972Z</time></trkpt><trkpt lat="43.6521046" lon="12.4945448"><ele>487.40000000000003</ele><time>2026-03-22T11:42:14.973Z</time></trkpt><trkpt lat="43.6522249" lon="12.49453"><ele>484.20000000000005</ele><time>2026-03-22T11:42:16.973Z</time></trkpt><trkpt lat="43.6523191" lon="12.494528"><ele>481.0</ele><time>2026-03-22T11:42:18.972Z</time></trkpt><trkpt lat="43.6523718" lon="12.4944549"><ele>481.00000000000006</ele><time>2026-03-22T11:42:21.973Z</time></trkpt><trkpt lat="43.652333" lon="12.494336"><ele>481.0</ele><time>2026-03-22T11:42:23.973Z</time></trkpt><trkpt lat="43.6523034" lon="12.4942476"><ele>481.0</ele><time>2026-03-22T11:42:24.971Z</time></trkpt><trkpt lat="43.6522751" lon="12.4941516"><ele>481.0</ele><time>2026-03-22T11:42:25.973Z</time></trkpt><trkpt lat="43.6522612" lon="12.4940545"><ele>481.00000000000006</ele><time>2026-03-22T11:42:26.973Z</time></trkpt><trkpt lat="43.6522444" lon="12.4939651"><ele>481.0</ele><time>2026-03-22T11:42:27.973Z</time></trkpt><trkpt lat="43.6522385" lon="12.4938641"><ele>481.00000000000006</ele><time>2026-03-22T11:42:28.973Z</time></trkpt><trkpt lat="43.6522486" lon="12.4937611"><ele>481.0</ele><time>2026-03-22T11:42:29.973Z</time></trkpt><trkpt lat="43.6522593" lon="12.4936556"><ele>481.0</ele><time>2026-03-22T11:42:30.973Z</time></trkpt><trkpt lat="43.6522602" lon="12.4935414"><ele>481.0</ele><time>2026-03-22T11:42:31.973Z</time></trkpt><trkpt lat="43.6522469" lon="12.4934204"><ele>481.00000000000006</ele><time>2026-03-22T11:42:32.973Z</time></trkpt><trkpt lat="43.6522317" lon="12.4933032"><ele>481.0</ele><time>2026-03-22T11:42:33.973Z</time></trkpt><trkpt lat="43.6522196" lon="12.493202"><ele>481.00000000000006</ele><time>2026-03-22T11:42:34.973Z</time></trkpt><trkpt lat="43.6522062" lon="12.4931058"><ele>481.0</ele><time>2026-03-22T11:42:35.973Z</time></trkpt><trkpt lat="43.652194" lon="12.4929586"><ele>481.0</ele><time>2026-03-22T11:42:37.972Z</time></trkpt><trkpt lat="43.6522331" lon="12.492853"><ele>481.0</ele><time>2026-03-22T11:42:39.972Z</time></trkpt><trkpt lat="43.6522851" lon="12.4927905"><ele>481.00000000000006</ele><time>2026-03-22T11:42:40.973Z</time></trkpt><trkpt lat="43.6523596" lon="12.4927281"><ele>481.0</ele><time>2026-03-22T11:42:41.972Z</time></trkpt><trkpt lat="43.6524293" lon="12.4926821"><ele>481.00000000000006</ele><time>2026-03-22T11:42:42.972Z</time></trkpt><trkpt lat="43.6525012" lon="12.4926562"><ele>481.0</ele><time>2026-03-22T11:42:43.973Z</time></trkpt><trkpt lat="43.6525833" lon="12.4926322"><ele>481.0</ele><time>2026-03-22T11:42:44.973Z</time></trkpt><trkpt lat="43.6526646" lon="12.4925961"><ele>481.0</ele><time>2026-03-22T11:42:45.972Z</time></trkpt><trkpt lat="43.6527408" lon="12.4925454"><ele>481.00000000000006</ele><time>2026-03-22T11:42:46.973Z</time></trkpt><trkpt lat="43.6528136" lon="12.4924783"><ele>481.0</ele><time>2026-03-22T11:42:47.971Z</time></trkpt><trkpt lat="43.652886" lon="12.4923927"><ele>478.8</ele><time>2026-03-22T11:42:48.972Z</time></trkpt><trkpt lat="43.6529572" lon="12.4922961"><ele>476.6</ele><time>2026-03-22T11:42:49.973Z</time></trkpt><trkpt lat="43.6530324" lon="12.4921978"><ele>474.4</ele><time>2026-03-22T11:42:50.971Z</time></trkpt><trkpt lat="43.6531113" lon="12.4921049"><ele>472.2</ele><time>2026-03-22T11:42:51.972Z</time></trkpt><trkpt lat="43.6531894" lon="12.4920208"><ele>470.0</ele><time>2026-03-22T11:42:52.972Z</time></trkpt><trkpt lat="43.653261" lon="12.4919431"><ele>470.0</ele><time>2026-03-22T11:42:53.972Z</time></trkpt><trkpt lat="43.6533192" lon="12.491878"><ele>470.0</ele><time>2026-03-22T11:42:54.973Z</time></trkpt><trkpt lat="43.6534" lon="12.4917901"><ele>470.0</ele><time>2026-03-22T11:42:56.973Z</time></trkpt><trkpt lat="43.6534921" lon="12.4916851"><ele>470.0</ele><time>2026-03-22T11:42:58.973Z</time></trkpt><trkpt lat="43.653533" lon="12.4915618"><ele>470.0</ele><time>2026-03-22T11:43:00.972Z</time></trkpt><trkpt lat="43.6535378" lon="12.4913919"><ele>471.3333333333333</ele><time>2026-03-22T11:43:02.973Z</time></trkpt><trkpt lat="43.653587" lon="12.4912427"><ele>472.66666666666663</ele><time>2026-03-22T11:43:04.973Z</time></trkpt><trkpt lat="43.6536327" lon="12.4911722"><ele>474.0</ele><time>2026-03-22T11:43:05.973Z</time></trkpt><trkpt lat="43.6536869" lon="12.4910979"><ele>475.33333333333337</ele><time>2026-03-22T11:43:06.973Z</time></trkpt><trkpt lat="43.6537473" lon="12.49102"><ele>476.6666666666667</ele><time>2026-03-22T11:43:07.972Z</time></trkpt><trkpt lat="43.6538137" lon="12.4909461"><ele>478.0</ele><time>2026-03-22T11:43:08.972Z</time></trkpt><trkpt lat="43.653883" lon="12.4908804"><ele>474.4</ele><time>2026-03-22T11:43:09.973Z</time></trkpt><trkpt lat="43.6539537" lon="12.4908183"><ele>470.79999999999995</ele><time>2026-03-22T11:43:10.972Z</time></trkpt><trkpt lat="43.6540296" lon="12.4907523"><ele>467.2</ele><time>2026-03-22T11:43:11.972Z</time></trkpt><trkpt lat="43.6541099" lon="12.4906842"><ele>463.6</ele><time>2026-03-22T11:43:12.973Z</time></trkpt><trkpt lat="43.6541897" lon="12.4906135"><ele>460.0</ele><time>2026-03-22T11:43:13.973Z</time></trkpt><trkpt lat="43.6542697" lon="12.4905556"><ele>460.0</ele><time>2026-03-22T11:43:14.973Z</time></trkpt><trkpt lat="43.6543588" lon="12.4904859"><ele>460.0</ele><time>2026-03-22T11:43:15.973Z</time></trkpt><trkpt lat="43.6544437" lon="12.4904017"><ele>460.0</ele><time>2026-03-22T11:43:16.973Z</time></trkpt><trkpt lat="43.6545037" lon="12.4903147"><ele>460.0</ele><time>2026-03-22T11:43:17.972Z</time></trkpt><trkpt lat="43.6545419" lon="12.4902229"><ele>460.0</ele><time>2026-03-22T11:43:18.973Z</time></trkpt><trkpt lat="43.6545673" lon="12.4901119"><ele>458.50000000000006</ele><time>2026-03-22T11:43:19.971Z</time></trkpt><trkpt lat="43.6545831" lon="12.4900005"><ele>457.0</ele><time>2026-03-22T11:43:20.971Z</time></trkpt><trkpt lat="43.6545946" lon="12.4898986"><ele>455.5</ele><time>2026-03-22T11:43:21.971Z</time></trkpt><trkpt lat="43.6546041" lon="12.4898062"><ele>454.0</ele><time>2026-03-22T11:43:22.973Z</time></trkpt><trkpt lat="43.6546096" lon="12.4896692"><ele>452.50000000000006</ele><time>2026-03-22T11:43:24.972Z</time></trkpt><trkpt lat="43.6546288" lon="12.489504"><ele>451.0</ele><time>2026-03-22T11:43:26.972Z</time></trkpt><trkpt lat="43.6546383" lon="12.4894168"><ele>451.0</ele><time>2026-03-22T11:43:27.972Z</time></trkpt><trkpt lat="43.6546199" lon="12.489283"><ele>451.0</ele><time>2026-03-22T11:43:29.973Z</time></trkpt><trkpt lat="43.6545241" lon="12.4891708"><ele>451.0</ele><time>2026-03-22T11:43:31.972Z</time></trkpt><trkpt lat="43.6544559" lon="12.4891031"><ele>451.0</ele><time>2026-03-22T11:43:32.972Z</time></trkpt><trkpt lat="43.6543778" lon="12.4890306"><ele>451.0</ele><time>2026-03-22T11:43:33.972Z</time></trkpt><trkpt lat="43.654267" lon="12.4889814"><ele>449.25</ele><time>2026-03-22T11:43:34.973Z</time></trkpt><trkpt lat="43.6541517" lon="12.4889222"><ele>447.5</ele><time>2026-03-22T11:43:35.973Z</time></trkpt><trkpt lat="43.6540255" lon="12.4888469"><ele>445.75</ele><time>2026-03-22T11:43:36.973Z</time></trkpt><trkpt lat="43.6539042" lon="12.4887715"><ele>444.0</ele><time>2026-03-22T11:43:37.973Z</time></trkpt><trkpt lat="43.6537959" lon="12.4886955"><ele>444.0</ele><time>2026-03-22T11:43:38.973Z</time></trkpt><trkpt lat="43.6536895" lon="12.4886207"><ele>444.0</ele><time>2026-03-22T11:43:39.973Z</time></trkpt><trkpt lat="43.6535905" lon="12.4885478"><ele>444.0</ele><time>2026-03-22T11:43:40.972Z</time></trkpt><trkpt lat="43.6535013" lon="12.4884666"><ele>444.0</ele><time>2026-03-22T11:43:41.973Z</time></trkpt><trkpt lat="43.6534342" lon="12.4883529"><ele>444.0</ele><time>2026-03-22T11:43:42.973Z</time></trkpt><trkpt lat="43.6533787" lon="12.4882112"><ele>443.0</ele><time>2026-03-22T11:43:43.972Z</time></trkpt><trkpt lat="43.6533388" lon="12.4880471"><ele>442.0</ele><time>2026-03-22T11:43:44.973Z</time></trkpt><trkpt lat="43.6533225" lon="12.4878695"><ele>441.0</ele><time>2026-03-22T11:43:45.973Z</time></trkpt><trkpt lat="43.6533187" lon="12.4877118"><ele>440.0</ele><time>2026-03-22T11:43:46.973Z</time></trkpt><trkpt lat="43.6533189" lon="12.4875727"><ele>440.0</ele><time>2026-03-22T11:43:47.973Z</time></trkpt><trkpt lat="43.6533164" lon="12.4874305"><ele>440.0</ele><time>2026-03-22T11:43:48.973Z</time></trkpt><trkpt lat="43.6533117" lon="12.4872933"><ele>440.0</ele><time>2026-03-22T11:43:49.973Z</time></trkpt><trkpt lat="43.6533045" lon="12.487157"><ele>440.0</ele><time>2026-03-22T11:43:50.973Z</time></trkpt><trkpt lat="43.6532936" lon="12.4870199"><ele>440.0</ele><time>2026-03-22T11:43:51.973Z</time></trkpt><trkpt lat="43.6532793" lon="12.4868881"><ele>438.4285714285714</ele><time>2026-03-22T11:43:52.972Z</time></trkpt><trkpt lat="43.6532629" lon="12.4867772"><ele>436.85714285714283</ele><time>2026-03-22T11:43:53.973Z</time></trkpt><trkpt lat="43.6532446" lon="12.4866758"><ele>435.2857142857143</ele><time>2026-03-22T11:43:54.973Z</time></trkpt><trkpt lat="43.6532196" lon="12.4865838"><ele>433.71428571428567</ele><time>2026-03-22T11:43:55.973Z</time></trkpt><trkpt lat="43.6531841" lon="12.4865073"><ele>432.14285714285717</ele><time>2026-03-22T11:43:56.973Z</time></trkpt><trkpt lat="43.6531331" lon="12.4864502"><ele>430.57142857142856</ele><time>2026-03-22T11:43:57.973Z</time></trkpt><trkpt lat="43.6530674" lon="12.4864296"><ele>429.0</ele><time>2026-03-22T11:43:58.972Z</time></trkpt><trkpt lat="43.6530024" lon="12.4864479"><ele>429.0</ele><time>2026-03-22T11:43:59.973Z</time></trkpt><trkpt lat="43.6529433" lon="12.4865045"><ele>429.0</ele><time>2026-03-22T11:44:00.973Z</time></trkpt><trkpt lat="43.6528901" lon="12.4865982"><ele>429.0</ele><time>2026-03-22T11:44:01.973Z</time></trkpt><trkpt lat="43.6528444" lon="12.486719"><ele>429.0</ele><time>2026-03-22T11:44:02.973Z</time></trkpt><trkpt lat="43.6528062" lon="12.4868281"><ele>429.0</ele><time>2026-03-22T11:44:03.973Z</time></trkpt><trkpt lat="43.6527692" lon="12.4869145"><ele>429.0</ele><time>2026-03-22T11:44:04.972Z</time></trkpt><trkpt lat="43.6527145" lon="12.4869868"><ele>428.4</ele><time>2026-03-22T11:44:05.973Z</time></trkpt><trkpt lat="43.6526365" lon="12.4870224"><ele>427.79999999999995</ele><time>2026-03-22T11:44:06.972Z</time></trkpt><trkpt lat="43.6525396" lon="12.4870202"><ele>427.20000000000005</ele><time>2026-03-22T11:44:07.973Z</time></trkpt><trkpt lat="43.6524308" lon="12.4869811"><ele>426.6</ele><time>2026-03-22T11:44:08.972Z</time></trkpt><trkpt lat="43.6523108" lon="12.4869167"><ele>426.0</ele><time>2026-03-22T11:44:09.973Z</time></trkpt><trkpt lat="43.6521821" lon="12.4868501"><ele>426.0</ele><time>2026-03-22T11:44:10.972Z</time></trkpt><trkpt lat="43.6520652" lon="12.4867908"><ele>426.0</ele><time>2026-03-22T11:44:11.972Z</time></trkpt><trkpt lat="43.651972" lon="12.4867362"><ele>426.0</ele><time>2026-03-22T11:44:12.973Z</time></trkpt><trkpt lat="43.6518995" lon="12.486684"><ele>426.0</ele><time>2026-03-22T11:44:13.973Z</time></trkpt><trkpt lat="43.6518447" lon="12.4866408"><ele>426.0</ele><time>2026-03-22T11:44:14.973Z</time></trkpt><trkpt lat="43.6517608" lon="12.4865603"><ele>426.0</ele><time>2026-03-22T11:44:16.973Z</time></trkpt><trkpt lat="43.6517935" lon="12.486434"><ele>426.0</ele><time>2026-03-22T11:44:18.973Z</time></trkpt><trkpt lat="43.6518587" lon="12.4863888"><ele>426.0</ele><time>2026-03-22T11:44:19.972Z</time></trkpt><trkpt lat="43.6519542" lon="12.4863607"><ele>426.0</ele><time>2026-03-22T11:44:20.971Z</time></trkpt><trkpt lat="43.6520754" lon="12.4863274"><ele>426.0</ele><time>2026-03-22T11:44:21.972Z</time></trkpt><trkpt lat="43.6521997" lon="12.4862754"><ele>423.75</ele><time>2026-03-22T11:44:22.973Z</time></trkpt><trkpt lat="43.6523153" lon="12.486202"><ele>421.5</ele><time>2026-03-22T11:44:23.973Z</time></trkpt><trkpt lat="43.6524219" lon="12.4861111"><ele>419.25</ele><time>2026-03-22T11:44:24.972Z</time></trkpt><trkpt lat="43.6525171" lon="12.4860154"><ele>417.0</ele><time>2026-03-22T11:44:25.972Z</time></trkpt><trkpt lat="43.652597" lon="12.4859086"><ele>417.0</ele><time>2026-03-22T11:44:26.973Z</time></trkpt><trkpt lat="43.6526671" lon="12.4857861"><ele>417.0</ele><time>2026-03-22T11:44:27.973Z</time></trkpt><trkpt lat="43.6527182" lon="12.4856534"><ele>417.0</ele><time>2026-03-22T11:44:28.972Z</time></trkpt><trkpt lat="43.652769" lon="12.4855324"><ele>417.0</ele><time>2026-03-22T11:44:29.972Z</time></trkpt><trkpt lat="43.6528404" lon="12.4854196"><ele>417.0</ele><time>2026-03-22T11:44:30.973Z</time></trkpt><trkpt lat="43.652925" lon="12.4853192"><ele>414.0</ele><time>2026-03-22T11:44:31.973Z</time></trkpt><trkpt lat="43.6530087" lon="12.4852317"><ele>411.0</ele><time>2026-03-22T11:44:32.973Z</time></trkpt><trkpt lat="43.6530838" lon="12.4851547"><ele>408.0</ele><time>2026-03-22T11:44:33.972Z</time></trkpt><trkpt lat="43.6531551" lon="12.4850889"><ele>405.0</ele><time>2026-03-22T11:44:34.972Z</time></trkpt><trkpt lat="43.6532211" lon="12.4850272"><ele>402.0</ele><time>2026-03-22T11:44:35.972Z</time></trkpt><trkpt lat="43.6532844" lon="12.4849586"><ele>399.0</ele><time>2026-03-22T11:44:36.972Z</time></trkpt><trkpt lat="43.6533381" lon="12.4848835"><ele>399.0</ele><time>2026-03-22T11:44:37.971Z</time></trkpt><trkpt lat="43.6533828" lon="12.4847746"><ele>399.0</ele><time>2026-03-22T11:44:38.971Z</time></trkpt><trkpt lat="43.6534339" lon="12.4846555"><ele>399.0</ele><time>2026-03-22T11:44:39.972Z</time></trkpt><trkpt lat="43.6535078" lon="12.4845375"><ele>399.0</ele><time>2026-03-22T11:44:40.972Z</time></trkpt><trkpt lat="43.6535847" lon="12.4844276"><ele>399.0</ele><time>2026-03-22T11:44:41.973Z</time></trkpt><trkpt lat="43.6536468" lon="12.4843234"><ele>400.79999999999995</ele><time>2026-03-22T11:44:42.973Z</time></trkpt><trkpt lat="43.6537009" lon="12.4842051"><ele>402.59999999999997</ele><time>2026-03-22T11:44:43.973Z</time></trkpt><trkpt lat="43.6537388" lon="12.4840744"><ele>404.4</ele><time>2026-03-22T11:44:44.973Z</time></trkpt><trkpt lat="43.6537548" lon="12.4839399"><ele>406.2</ele><time>2026-03-22T11:44:45.973Z</time></trkpt><trkpt lat="43.6537599" lon="12.4838184"><ele>408.0</ele><time>2026-03-22T11:44:46.973Z</time></trkpt><trkpt lat="43.6537712" lon="12.4837133"><ele>408.0</ele><time>2026-03-22T11:44:47.973Z</time></trkpt><trkpt lat="43.653811" lon="12.4836239"><ele>408.0</ele><time>2026-03-22T11:44:48.973Z</time></trkpt><trkpt lat="43.6538845" lon="12.4835598"><ele>408.0</ele><time>2026-03-22T11:44:49.973Z</time></trkpt><trkpt lat="43.6539757" lon="12.4835428"><ele>408.0</ele><time>2026-03-22T11:44:50.972Z</time></trkpt><trkpt lat="43.6540679" lon="12.4835722"><ele>408.0</ele><time>2026-03-22T11:44:51.973Z</time></trkpt><trkpt lat="43.6541431" lon="12.4836125"><ele>408.0</ele><time>2026-03-22T11:44:52.972Z</time></trkpt><trkpt lat="43.6542611" lon="12.4836614"><ele>408.0</ele><time>2026-03-22T11:44:54.973Z</time></trkpt><trkpt lat="43.6543397" lon="12.483705"><ele>408.0</ele><time>2026-03-22T11:44:55.972Z</time></trkpt><trkpt lat="43.6544283" lon="12.4837622"><ele>408.0</ele><time>2026-03-22T11:44:56.972Z</time></trkpt><trkpt lat="43.6545246" lon="12.4838361"><ele>408.0</ele><time>2026-03-22T11:44:57.972Z</time></trkpt><trkpt lat="43.6546257" lon="12.4839322"><ele>408.0</ele><time>2026-03-22T11:44:58.973Z</time></trkpt><trkpt lat="43.6547271" lon="12.4840431"><ele>405.75</ele><time>2026-03-22T11:44:59.973Z</time></trkpt><trkpt lat="43.6548175" lon="12.4841545"><ele>403.5</ele><time>2026-03-22T11:45:00.973Z</time></trkpt><trkpt lat="43.6548993" lon="12.4842658"><ele>401.25</ele><time>2026-03-22T11:45:01.972Z</time></trkpt><trkpt lat="43.6549786" lon="12.4843832"><ele>399.0</ele><time>2026-03-22T11:45:02.972Z</time></trkpt><trkpt lat="43.6550503" lon="12.4845023"><ele>399.1666666666667</ele><time>2026-03-22T11:45:03.972Z</time></trkpt><trkpt lat="43.655113" lon="12.4846114"><ele>399.33333333333337</ele><time>2026-03-22T11:45:04.973Z</time></trkpt><trkpt lat="43.6551702" lon="12.4847094"><ele>399.5</ele><time>2026-03-22T11:45:05.971Z</time></trkpt><trkpt lat="43.6552245" lon="12.4848019"><ele>399.6666666666667</ele><time>2026-03-22T11:45:06.972Z</time></trkpt><trkpt lat="43.6552765" lon="12.484887"><ele>399.83333333333337</ele><time>2026-03-22T11:45:07.973Z</time></trkpt><trkpt lat="43.655324" lon="12.4849537"><ele>400.0</ele><time>2026-03-22T11:45:08.972Z</time></trkpt><trkpt lat="43.6554004" lon="12.4850327"><ele>400.00000000000006</ele><time>2026-03-22T11:45:10.972Z</time></trkpt><trkpt lat="43.6554981" lon="12.4850789"><ele>400.0</ele><time>2026-03-22T11:45:12.973Z</time></trkpt><trkpt lat="43.655552" lon="12.4851296"><ele>400.0</ele><time>2026-03-22T11:45:13.973Z</time></trkpt><trkpt lat="43.6556135" lon="12.4852022"><ele>400.0</ele><time>2026-03-22T11:45:14.972Z</time></trkpt><trkpt lat="43.6556808" lon="12.4852907"><ele>400.00000000000006</ele><time>2026-03-22T11:45:15.973Z</time></trkpt><trkpt lat="43.6557507" lon="12.4853613"><ele>400.0</ele><time>2026-03-22T11:45:16.972Z</time></trkpt><trkpt lat="43.6558254" lon="12.4854018"><ele>399.6666666666667</ele><time>2026-03-22T11:45:17.972Z</time></trkpt><trkpt lat="43.6559119" lon="12.4854332"><ele>399.33333333333337</ele><time>2026-03-22T11:45:18.973Z</time></trkpt><trkpt lat="43.656003" lon="12.4854624"><ele>399.0</ele><time>2026-03-22T11:45:19.971Z</time></trkpt><trkpt lat="43.6560868" lon="12.4854876"><ele>398.66666666666663</ele><time>2026-03-22T11:45:20.973Z</time></trkpt><trkpt lat="43.6561575" lon="12.4855094"><ele>398.3333333333333</ele><time>2026-03-22T11:45:21.972Z</time></trkpt><trkpt lat="43.6562312" lon="12.4855346"><ele>398.0</ele><time>2026-03-22T11:45:22.973Z</time></trkpt><trkpt lat="43.6563118" lon="12.485568"><ele>397.99999999999994</ele><time>2026-03-22T11:45:23.972Z</time></trkpt><trkpt lat="43.6563869" lon="12.4856133"><ele>398.0</ele><time>2026-03-22T11:45:24.973Z</time></trkpt><trkpt lat="43.6564577" lon="12.4856595"><ele>398.0</ele><time>2026-03-22T11:45:25.973Z</time></trkpt><trkpt lat="43.6565335" lon="12.4857017"><ele>398.0</ele><time>2026-03-22T11:45:26.972Z</time></trkpt><trkpt lat="43.6566121" lon="12.4857385"><ele>397.99999999999994</ele><time>2026-03-22T11:45:27.972Z</time></trkpt><trkpt lat="43.6566911" lon="12.485774"><ele>398.0</ele><time>2026-03-22T11:45:28.973Z</time></trkpt><trkpt lat="43.6567714" lon="12.48581"><ele>397.99999999999994</ele><time>2026-03-22T11:45:29.972Z</time></trkpt><trkpt lat="43.6568547" lon="12.4858394"><ele>398.0</ele><time>2026-03-22T11:45:30.973Z</time></trkpt><trkpt lat="43.6569403" lon="12.4858571"><ele>398.0</ele><time>2026-03-22T11:45:31.973Z</time></trkpt><trkpt lat="43.65703" lon="12.485858"><ele>398.0</ele><time>2026-03-22T11:45:32.971Z</time></trkpt><trkpt lat="43.6571204" lon="12.4858445"><ele>397.99999999999994</ele><time>2026-03-22T11:45:33.972Z</time></trkpt><trkpt lat="43.657213" lon="12.4858172"><ele>398.0</ele><time>2026-03-22T11:45:34.973Z</time></trkpt><trkpt lat="43.6573078" lon="12.4857777"><ele>398.79999999999995</ele><time>2026-03-22T11:45:35.973Z</time></trkpt><trkpt lat="43.6574032" lon="12.4857242"><ele>399.6</ele><time>2026-03-22T11:45:36.972Z</time></trkpt><trkpt lat="43.6574982" lon="12.4856621"><ele>400.4</ele><time>2026-03-22T11:45:37.972Z</time></trkpt><trkpt lat="43.6575911" lon="12.4855937"><ele>401.20000000000005</ele><time>2026-03-22T11:45:38.971Z</time></trkpt><trkpt lat="43.6576806" lon="12.4855155"><ele>402.0</ele><time>2026-03-22T11:45:39.972Z</time></trkpt><trkpt lat="43.6577645" lon="12.4854309"><ele>404.6</ele><time>2026-03-22T11:45:40.972Z</time></trkpt><trkpt lat="43.6578476" lon="12.4853461"><ele>407.20000000000005</ele><time>2026-03-22T11:45:41.972Z</time></trkpt><trkpt lat="43.6579328" lon="12.4852649"><ele>409.8</ele><time>2026-03-22T11:45:42.973Z</time></trkpt><trkpt lat="43.658013" lon="12.4851909"><ele>412.4</ele><time>2026-03-22T11:45:43.973Z</time></trkpt><trkpt lat="43.6580754" lon="12.4851368"><ele>415.0</ele><time>2026-03-22T11:45:44.973Z</time></trkpt><trkpt lat="43.6581513" lon="12.4850077"><ele>415.0</ele><time>2026-03-22T11:45:46.972Z</time></trkpt><trkpt lat="43.6581032" lon="12.4848759"><ele>415.0</ele><time>2026-03-22T11:45:48.971Z</time></trkpt><trkpt lat="43.6580343" lon="12.4848669"><ele>415.0</ele><time>2026-03-22T11:45:49.973Z</time></trkpt><trkpt lat="43.6579578" lon="12.4848922"><ele>415.0</ele><time>2026-03-22T11:45:50.973Z</time></trkpt><trkpt lat="43.6578645" lon="12.4849309"><ele>415.0</ele><time>2026-03-22T11:45:51.972Z</time></trkpt><trkpt lat="43.6577425" lon="12.4849727"><ele>416.0</ele><time>2026-03-22T11:45:52.972Z</time></trkpt><trkpt lat="43.6575971" lon="12.4850189"><ele>417.0</ele><time>2026-03-22T11:45:53.972Z</time></trkpt><trkpt lat="43.657451" lon="12.4850802"><ele>418.0</ele><time>2026-03-22T11:45:54.971Z</time></trkpt><trkpt lat="43.6573353" lon="12.4851424"><ele>419.0</ele><time>2026-03-22T11:45:55.972Z</time></trkpt><trkpt lat="43.65725" lon="12.4851879"><ele>418.99999999999994</ele><time>2026-03-22T11:45:56.972Z</time></trkpt><trkpt lat="43.6571818" lon="12.4852141"><ele>419.0</ele><time>2026-03-22T11:45:57.972Z</time></trkpt><trkpt lat="43.6571091" lon="12.4851436"><ele>419.0</ele><time>2026-03-22T11:45:59.973Z</time></trkpt><trkpt lat="43.6571638" lon="12.4850388"><ele>419.0</ele><time>2026-03-22T11:46:01.973Z</time></trkpt><trkpt lat="43.6572333" lon="12.4849791"><ele>418.99999999999994</ele><time>2026-03-22T11:46:02.973Z</time></trkpt><trkpt lat="43.6573148" lon="12.4848872"><ele>419.0</ele><time>2026-03-22T11:46:03.973Z</time></trkpt><trkpt lat="43.6574046" lon="12.4847668"><ele>419.0</ele><time>2026-03-22T11:46:04.973Z</time></trkpt><trkpt lat="43.6574986" lon="12.4846329"><ele>419.0</ele><time>2026-03-22T11:46:05.972Z</time></trkpt><trkpt lat="43.6575935" lon="12.4845212"><ele>419.0</ele><time>2026-03-22T11:46:06.973Z</time></trkpt><trkpt lat="43.6577073" lon="12.4844265"><ele>419.0</ele><time>2026-03-22T11:46:07.972Z</time></trkpt><trkpt lat="43.6578286" lon="12.4843561"><ele>421.2</ele><time>2026-03-22T11:46:08.972Z</time></trkpt><trkpt lat="43.6579374" lon="12.4843013"><ele>423.4</ele><time>2026-03-22T11:46:09.972Z</time></trkpt><trkpt lat="43.6580316" lon="12.4842255"><ele>425.6</ele><time>2026-03-22T11:46:10.972Z</time></trkpt><trkpt lat="43.6581207" lon="12.484131"><ele>427.8</ele><time>2026-03-22T11:46:11.973Z</time></trkpt><trkpt lat="43.6581945" lon="12.4840542"><ele>430.0</ele><time>2026-03-22T11:46:12.972Z</time></trkpt><trkpt lat="43.6582523" lon="12.4840029"><ele>430.00000000000006</ele><time>2026-03-22T11:46:13.972Z</time></trkpt><trkpt lat="43.6583063" lon="12.4838879"><ele>430.0</ele><time>2026-03-22T11:46:15.973Z</time></trkpt><trkpt lat="43.65823" lon="12.4838035"><ele>430.0</ele><time>2026-03-22T11:46:17.972Z</time></trkpt><trkpt lat="43.6581683" lon="12.4838213"><ele>430.0</ele><time>2026-03-22T11:46:18.973Z</time></trkpt><trkpt lat="43.6581054" lon="12.4838731"><ele>430.00000000000006</ele><time>2026-03-22T11:46:19.971Z</time></trkpt><trkpt lat="43.6580191" lon="12.4839459"><ele>430.0</ele><time>2026-03-22T11:46:20.972Z</time></trkpt><trkpt lat="43.6579135" lon="12.4840089"><ele>430.0</ele><time>2026-03-22T11:46:21.973Z</time></trkpt><trkpt lat="43.6577976" lon="12.4840542"><ele>430.0</ele><time>2026-03-22T11:46:22.973Z</time></trkpt><trkpt lat="43.6576874" lon="12.484083"><ele>430.0</ele><time>2026-03-22T11:46:23.973Z</time></trkpt><trkpt lat="43.6575823" lon="12.4841169"><ele>430.0</ele><time>2026-03-22T11:46:24.972Z</time></trkpt><trkpt lat="43.6574715" lon="12.4841579"><ele>431.8</ele><time>2026-03-22T11:46:25.973Z</time></trkpt><trkpt lat="43.6573511" lon="12.4841986"><ele>433.6</ele><time>2026-03-22T11:46:26.972Z</time></trkpt><trkpt lat="43.657239" lon="12.4842276"><ele>435.4</ele><time>2026-03-22T11:46:27.973Z</time></trkpt><trkpt lat="43.6571502" lon="12.4842306"><ele>437.2</ele><time>2026-03-22T11:46:28.973Z</time></trkpt><trkpt lat="43.6570849" lon="12.4842033"><ele>439.0</ele><time>2026-03-22T11:46:29.972Z</time></trkpt><trkpt lat="43.6570604" lon="12.4840968"><ele>439.0</ele><time>2026-03-22T11:46:31.973Z</time></trkpt><trkpt lat="43.6571548" lon="12.4840579"><ele>439.0</ele><time>2026-03-22T11:46:33.971Z</time></trkpt><trkpt lat="43.6572256" lon="12.4840664"><ele>439.0</ele><time>2026-03-22T11:46:34.972Z</time></trkpt><trkpt lat="43.6573067" lon="12.484016"><ele>439.0</ele><time>2026-03-22T11:46:35.973Z</time></trkpt><trkpt lat="43.6573881" lon="12.4839225"><ele>439.0</ele><time>2026-03-22T11:46:36.972Z</time></trkpt><trkpt lat="43.6574687" lon="12.4838106"><ele>441.0</ele><time>2026-03-22T11:46:37.971Z</time></trkpt><trkpt lat="43.6575513" lon="12.483693"><ele>443.0</ele><time>2026-03-22T11:46:38.972Z</time></trkpt><trkpt lat="43.6576353" lon="12.4835785"><ele>445.0</ele><time>2026-03-22T11:46:39.972Z</time></trkpt><trkpt lat="43.657724" lon="12.4834659"><ele>447.0</ele><time>2026-03-22T11:46:40.972Z</time></trkpt><trkpt lat="43.6578243" lon="12.4833571"><ele>447.0</ele><time>2026-03-22T11:46:41.973Z</time></trkpt><trkpt lat="43.657932" lon="12.483266"><ele>447.0</ele><time>2026-03-22T11:46:42.973Z</time></trkpt><trkpt lat="43.6580427" lon="12.4831922"><ele>447.0</ele><time>2026-03-22T11:46:43.973Z</time></trkpt><trkpt lat="43.6581561" lon="12.4831232"><ele>447.0</ele><time>2026-03-22T11:46:44.972Z</time></trkpt><trkpt lat="43.6582639" lon="12.4830619"><ele>447.0</ele><time>2026-03-22T11:46:45.973Z</time></trkpt><trkpt lat="43.6583461" lon="12.4830154"><ele>447.0</ele><time>2026-03-22T11:46:46.973Z</time></trkpt><trkpt lat="43.6584018" lon="12.4829704"><ele>447.0</ele><time>2026-03-22T11:46:47.973Z</time></trkpt><trkpt lat="43.6584312" lon="12.4828299"><ele>447.0</ele><time>2026-03-22T11:46:49.973Z</time></trkpt><trkpt lat="43.6583325" lon="12.4827925"><ele>447.0</ele><time>2026-03-22T11:46:51.972Z</time></trkpt><trkpt lat="43.6582645" lon="12.4828406"><ele>447.0</ele><time>2026-03-22T11:46:52.973Z</time></trkpt><trkpt lat="43.6581853" lon="12.4828953"><ele>447.0</ele><time>2026-03-22T11:46:53.973Z</time></trkpt><trkpt lat="43.6580939" lon="12.4829334"><ele>447.00000000000006</ele><time>2026-03-22T11:46:54.973Z</time></trkpt><trkpt lat="43.6579937" lon="12.4829549"><ele>447.00000000000006</ele><time>2026-03-22T11:46:55.973Z</time></trkpt><trkpt lat="43.6578923" lon="12.4829802"><ele>447.0</ele><time>2026-03-22T11:46:56.973Z</time></trkpt><trkpt lat="43.6577903" lon="12.4830108"><ele>447.0</ele><time>2026-03-22T11:46:57.973Z</time></trkpt><trkpt lat="43.6576876" lon="12.4830486"><ele>450.0</ele><time>2026-03-22T11:46:58.973Z</time></trkpt><trkpt lat="43.6575867" lon="12.4830955"><ele>453.00000000000006</ele><time>2026-03-22T11:46:59.972Z</time></trkpt><trkpt lat="43.6574872" lon="12.4831461"><ele>456.00000000000006</ele><time>2026-03-22T11:47:00.973Z</time></trkpt><trkpt lat="43.6573973" lon="12.4831895"><ele>459.0</ele><time>2026-03-22T11:47:01.973Z</time></trkpt><trkpt lat="43.6573227" lon="12.4832226"><ele>462.0</ele><time>2026-03-22T11:47:02.971Z</time></trkpt><trkpt lat="43.6572492" lon="12.4832497"><ele>462.0</ele><time>2026-03-22T11:47:03.972Z</time></trkpt><trkpt lat="43.6571526" lon="12.4832071"><ele>462.0</ele><time>2026-03-22T11:47:05.973Z</time></trkpt><trkpt lat="43.6571773" lon="12.4831058"><ele>462.0</ele><time>2026-03-22T11:47:07.973Z</time></trkpt><trkpt lat="43.6572846" lon="12.4830799"><ele>462.0</ele><time>2026-03-22T11:47:09.971Z</time></trkpt><trkpt lat="43.6573475" lon="12.4830372"><ele>462.0</ele><time>2026-03-22T11:47:10.973Z</time></trkpt><trkpt lat="43.6574135" lon="12.4829539"><ele>462.0</ele><time>2026-03-22T11:47:11.972Z</time></trkpt><trkpt lat="43.6574965" lon="12.4828377"><ele>465.25</ele><time>2026-03-22T11:47:12.972Z</time></trkpt><trkpt lat="43.6576122" lon="12.4827141"><ele>468.5</ele><time>2026-03-22T11:47:13.973Z</time></trkpt><trkpt lat="43.6577458" lon="12.4825948"><ele>471.75</ele><time>2026-03-22T11:47:14.973Z</time></trkpt><trkpt lat="43.6578609" lon="12.4824917"><ele>475.0</ele><time>2026-03-22T11:47:15.972Z</time></trkpt><trkpt lat="43.6579563" lon="12.4823838"><ele>475.0</ele><time>2026-03-22T11:47:16.973Z</time></trkpt><trkpt lat="43.6580241" lon="12.482272"><ele>475.0</ele><time>2026-03-22T11:47:17.973Z</time></trkpt><trkpt lat="43.6580696" lon="12.4821403"><ele>475.0</ele><time>2026-03-22T11:47:18.973Z</time></trkpt><trkpt lat="43.6581068" lon="12.482009"><ele>475.0</ele><time>2026-03-22T11:47:19.972Z</time></trkpt><trkpt lat="43.6581628" lon="12.481897"><ele>475.0</ele><time>2026-03-22T11:47:20.972Z</time></trkpt><trkpt lat="43.6582577" lon="12.4817886"><ele>477.25</ele><time>2026-03-22T11:47:21.972Z</time></trkpt><trkpt lat="43.6583848" lon="12.4816647"><ele>479.5</ele><time>2026-03-22T11:47:22.972Z</time></trkpt><trkpt lat="43.6585033" lon="12.4815407"><ele>481.75</ele><time>2026-03-22T11:47:23.972Z</time></trkpt><trkpt lat="43.6585978" lon="12.4814478"><ele>484.0</ele><time>2026-03-22T11:47:24.973Z</time></trkpt><trkpt lat="43.6586763" lon="12.4813812"><ele>484.0</ele><time>2026-03-22T11:47:25.971Z</time></trkpt><trkpt lat="43.6587345" lon="12.4813262"><ele>484.0</ele><time>2026-03-22T11:47:26.973Z</time></trkpt><trkpt lat="43.6587697" lon="12.481254"><ele>484.0</ele><time>2026-03-22T11:47:27.972Z</time></trkpt><trkpt lat="43.6587627" lon="12.4811109"><ele>484.0</ele><time>2026-03-22T11:47:29.972Z</time></trkpt><trkpt lat="43.6586207" lon="12.4811082"><ele>484.0</ele><time>2026-03-22T11:47:31.973Z</time></trkpt><trkpt lat="43.6585129" lon="12.4811438"><ele>485.75</ele><time>2026-03-22T11:47:32.972Z</time></trkpt><trkpt lat="43.6583649" lon="12.4811964"><ele>487.5</ele><time>2026-03-22T11:47:33.973Z</time></trkpt><trkpt lat="43.6582106" lon="12.4812508"><ele>489.25</ele><time>2026-03-22T11:47:34.972Z</time></trkpt><trkpt lat="43.6580839" lon="12.48131"><ele>491.0</ele><time>2026-03-22T11:47:35.972Z</time></trkpt><trkpt lat="43.6579835" lon="12.4813902"><ele>491.0</ele><time>2026-03-22T11:47:36.973Z</time></trkpt><trkpt lat="43.6578737" lon="12.4815115"><ele>491.0</ele><time>2026-03-22T11:47:37.972Z</time></trkpt><trkpt lat="43.6577389" lon="12.4816462"><ele>491.0</ele><time>2026-03-22T11:47:38.972Z</time></trkpt><trkpt lat="43.6576124" lon="12.4817407"><ele>494.20000000000005</ele><time>2026-03-22T11:47:39.973Z</time></trkpt><trkpt lat="43.6575079" lon="12.4817956"><ele>497.40000000000003</ele><time>2026-03-22T11:47:40.972Z</time></trkpt><trkpt lat="43.6574208" lon="12.4818263"><ele>500.6</ele><time>2026-03-22T11:47:41.971Z</time></trkpt><trkpt lat="43.6573369" lon="12.4818204"><ele>503.8</ele><time>2026-03-22T11:47:42.971Z</time></trkpt><trkpt lat="43.6572539" lon="12.4817809"><ele>507.0</ele><time>2026-03-22T11:47:43.972Z</time></trkpt><trkpt lat="43.657178" lon="12.481703"><ele>507.0</ele><time>2026-03-22T11:47:44.972Z</time></trkpt><trkpt lat="43.6571183" lon="12.4815995"><ele>507.0</ele><time>2026-03-22T11:47:45.972Z</time></trkpt><trkpt lat="43.6570953" lon="12.4814984"><ele>507.0</ele><time>2026-03-22T11:47:46.973Z</time></trkpt><trkpt lat="43.6571105" lon="12.4814036"><ele>507.0</ele><time>2026-03-22T11:47:47.973Z</time></trkpt><trkpt lat="43.6571597" lon="12.4813166"><ele>507.0</ele><time>2026-03-22T11:47:48.973Z</time></trkpt><trkpt lat="43.6572403" lon="12.4812469"><ele>507.0</ele><time>2026-03-22T11:47:49.973Z</time></trkpt><trkpt lat="43.6573452" lon="12.4811959"><ele>510.75</ele><time>2026-03-22T11:47:50.972Z</time></trkpt><trkpt lat="43.6574494" lon="12.4811313"><ele>514.5</ele><time>2026-03-22T11:47:51.973Z</time></trkpt><trkpt lat="43.6575205" lon="12.4810305"><ele>518.25</ele><time>2026-03-22T11:47:52.973Z</time></trkpt><trkpt lat="43.6575676" lon="12.4808859"><ele>522.0</ele><time>2026-03-22T11:47:53.973Z</time></trkpt><trkpt lat="43.6576206" lon="12.4807337"><ele>522.0</ele><time>2026-03-22T11:47:54.972Z</time></trkpt><trkpt lat="43.6576898" lon="12.480629"><ele>522.0</ele><time>2026-03-22T11:47:55.973Z</time></trkpt><trkpt lat="43.6577886" lon="12.4805533"><ele>522.0</ele><time>2026-03-22T11:47:56.973Z</time></trkpt><trkpt lat="43.6579136" lon="12.4804763"><ele>522.0</ele><time>2026-03-22T11:47:57.973Z</time></trkpt><trkpt lat="43.6580139" lon="12.4804047"><ele>524.5</ele><time>2026-03-22T11:47:58.973Z</time></trkpt><trkpt lat="43.6580785" lon="12.4803223"><ele>527.0</ele><time>2026-03-22T11:47:59.973Z</time></trkpt><trkpt lat="43.6581385" lon="12.4801961"><ele>529.5</ele><time>2026-03-22T11:48:00.973Z</time></trkpt><trkpt lat="43.6582164" lon="12.4800243"><ele>532.0</ele><time>2026-03-22T11:48:01.973Z</time></trkpt><trkpt lat="43.658295" lon="12.4798589"><ele>532.0</ele><time>2026-03-22T11:48:02.972Z</time></trkpt><trkpt lat="43.6583524" lon="12.4797673"><ele>532.0</ele><time>2026-03-22T11:48:03.973Z</time></trkpt><trkpt lat="43.6583929" lon="12.4796837"><ele>532.0</ele><time>2026-03-22T11:48:04.972Z</time></trkpt><trkpt lat="43.6584018" lon="12.4795413"><ele>532.0</ele><time>2026-03-22T11:48:06.973Z</time></trkpt><trkpt lat="43.6582878" lon="12.4795033"><ele>532.0</ele><time>2026-03-22T11:48:08.972Z</time></trkpt><trkpt lat="43.6581705" lon="12.4796731"><ele>532.0</ele><time>2026-03-22T11:48:09.972Z</time></trkpt><trkpt lat="43.6580361" lon="12.4798014"><ele>532.0</ele><time>2026-03-22T11:48:10.971Z</time></trkpt><trkpt lat="43.6578969" lon="12.4799202"><ele>532.0</ele><time>2026-03-22T11:48:11.972Z</time></trkpt><trkpt lat="43.6577877" lon="12.4800068"><ele>534.6</ele><time>2026-03-22T11:48:12.972Z</time></trkpt><trkpt lat="43.6577052" lon="12.4800749"><ele>537.2</ele><time>2026-03-22T11:48:13.971Z</time></trkpt><trkpt lat="43.6576391" lon="12.4801046"><ele>539.8</ele><time>2026-03-22T11:48:14.973Z</time></trkpt><trkpt lat="43.65754" lon="12.4799997"><ele>542.4</ele><time>2026-03-22T11:48:16.973Z</time></trkpt><trkpt lat="43.6575157" lon="12.4798951"><ele>545.0</ele><time>2026-03-22T11:48:17.973Z</time></trkpt><trkpt lat="43.6575123" lon="12.4797554"><ele>545.0</ele><time>2026-03-22T11:48:18.972Z</time></trkpt><trkpt lat="43.6575286" lon="12.4796147"><ele>545.0</ele><time>2026-03-22T11:48:19.971Z</time></trkpt><trkpt lat="43.6575647" lon="12.4794727"><ele>545.0</ele><time>2026-03-22T11:48:20.973Z</time></trkpt><trkpt lat="43.657611" lon="12.4793287"><ele>545.0</ele><time>2026-03-22T11:48:21.973Z</time></trkpt><trkpt lat="43.6576716" lon="12.4792137"><ele>545.0</ele><time>2026-03-22T11:48:22.973Z</time></trkpt><trkpt lat="43.6577654" lon="12.479117"><ele>545.0</ele><time>2026-03-22T11:48:23.972Z</time></trkpt><trkpt lat="43.6578528" lon="12.4790019"><ele>545.0</ele><time>2026-03-22T11:48:24.973Z</time></trkpt><trkpt lat="43.6579786" lon="12.4788483"><ele>545.0</ele><time>2026-03-22T11:48:25.972Z</time></trkpt><trkpt lat="43.6580934" lon="12.4787022"><ele>545.0</ele><time>2026-03-22T11:48:26.973Z</time></trkpt><trkpt lat="43.6582173" lon="12.4785814"><ele>549.5</ele><time>2026-03-22T11:48:27.972Z</time></trkpt><trkpt lat="43.6583403" lon="12.4784884"><ele>554.0</ele><time>2026-03-22T11:48:28.973Z</time></trkpt><trkpt lat="43.6584641" lon="12.4784453"><ele>558.5</ele><time>2026-03-22T11:48:29.972Z</time></trkpt><trkpt lat="43.6586216" lon="12.4784231"><ele>563.0</ele><time>2026-03-22T11:48:30.973Z</time></trkpt><trkpt lat="43.6587643" lon="12.4784148"><ele>563.0</ele><time>2026-03-22T11:48:31.972Z</time></trkpt><trkpt lat="43.658868" lon="12.4784091"><ele>563.0</ele><time>2026-03-22T11:48:32.973Z</time></trkpt><trkpt lat="43.6589651" lon="12.4784076"><ele>563.0</ele><time>2026-03-22T11:48:33.973Z</time></trkpt><trkpt lat="43.6590726" lon="12.4784049"><ele>563.0</ele><time>2026-03-22T11:48:35.972Z</time></trkpt><trkpt lat="43.6590943" lon="12.4783076"><ele>563.0</ele><time>2026-03-22T11:48:38.972Z</time></trkpt><trkpt lat="43.6590118" lon="12.4783043"><ele>563.0</ele><time>2026-03-22T11:48:41.972Z</time></trkpt><trkpt lat="43.6589334" lon="12.4782954"><ele>563.0</ele><time>2026-03-22T11:48:45.991Z</time></trkpt><trkpt lat="43.6588079" lon="12.4782684"><ele>563.0</ele><time>2026-03-22T11:48:50.972Z</time></trkpt><trkpt lat="43.6587104" lon="12.4782358"><ele>563.0</ele><time>2026-03-22T11:48:51.972Z</time></trkpt><trkpt lat="43.6586108" lon="12.4781978"><ele>563.0</ele><time>2026-03-22T11:48:52.972Z</time></trkpt><trkpt lat="43.6585495" lon="12.4781518"><ele>563.6</ele><time>2026-03-22T11:48:53.971Z</time></trkpt><trkpt lat="43.6585099" lon="12.4780673"><ele>564.1999999999999</ele><time>2026-03-22T11:48:54.972Z</time></trkpt><trkpt lat="43.6584797" lon="12.477951"><ele>564.8</ele><time>2026-03-22T11:48:55.972Z</time></trkpt><trkpt lat="43.6584482" lon="12.4778163"><ele>565.4</ele><time>2026-03-22T11:48:56.972Z</time></trkpt><trkpt lat="43.6583683" lon="12.4777108"><ele>566.0</ele><time>2026-03-22T11:48:57.972Z</time></trkpt><trkpt lat="43.6582797" lon="12.4775703"><ele>566.6</ele><time>2026-03-22T11:48:58.973Z</time></trkpt><trkpt lat="43.6582096" lon="12.477471"><ele>567.2</ele><time>2026-03-22T11:48:59.972Z</time></trkpt><trkpt lat="43.6581472" lon="12.4774095"><ele>567.8</ele><time>2026-03-22T11:49:00.973Z</time></trkpt><trkpt lat="43.6580708" lon="12.4773792"><ele>568.4</ele><time>2026-03-22T11:49:01.972Z</time></trkpt><trkpt lat="43.6580108" lon="12.4774193"><ele>569.0</ele><time>2026-03-22T11:49:02.973Z</time></trkpt><trkpt lat="43.6580273" lon="12.4775954"><ele>569.0</ele><time>2026-03-22T11:49:03.973Z</time></trkpt><trkpt lat="43.6580066" lon="12.4777211"><ele>569.0</ele><time>2026-03-22T11:49:04.973Z</time></trkpt><trkpt lat="43.6579813" lon="12.4778425"><ele>569.0</ele><time>2026-03-22T11:49:05.971Z</time></trkpt><trkpt lat="43.657934" lon="12.4779589"><ele>569.0</ele><time>2026-03-22T11:49:06.971Z</time></trkpt><trkpt lat="43.657837" lon="12.478097"><ele>569.0</ele><time>2026-03-22T11:49:07.973Z</time></trkpt><trkpt lat="43.6577466" lon="12.4782259"><ele>570.6</ele><time>2026-03-22T11:49:08.973Z</time></trkpt><trkpt lat="43.6576697" lon="12.4783074"><ele>572.2</ele><time>2026-03-22T11:49:09.972Z</time></trkpt><trkpt lat="43.6575797" lon="12.4783671"><ele>573.8000000000001</ele><time>2026-03-22T11:49:10.973Z</time></trkpt><trkpt lat="43.6574929" lon="12.4784048"><ele>575.4</ele><time>2026-03-22T11:49:11.972Z</time></trkpt><trkpt lat="43.6574098" lon="12.4784203"><ele>577.0</ele><time>2026-03-22T11:49:12.972Z</time></trkpt><trkpt lat="43.6573085" lon="12.4784183"><ele>577.0</ele><time>2026-03-22T11:49:13.973Z</time></trkpt><trkpt lat="43.657206" lon="12.4783924"><ele>577.0</ele><time>2026-03-22T11:49:14.972Z</time></trkpt><trkpt lat="43.6571071" lon="12.4783418"><ele>577.0</ele><time>2026-03-22T11:49:15.972Z</time></trkpt><trkpt lat="43.6570088" lon="12.478263"><ele>577.0</ele><time>2026-03-22T11:49:16.972Z</time></trkpt><trkpt lat="43.6568942" lon="12.4781478"><ele>578.0</ele><time>2026-03-22T11:49:17.972Z</time></trkpt><trkpt lat="43.6567616" lon="12.4780266"><ele>579.0</ele><time>2026-03-22T11:49:18.972Z</time></trkpt><trkpt lat="43.6566415" lon="12.4779331"><ele>580.0</ele><time>2026-03-22T11:49:19.973Z</time></trkpt><trkpt lat="43.6565408" lon="12.4778724"><ele>581.0</ele><time>2026-03-22T11:49:20.973Z</time></trkpt><trkpt lat="43.6564399" lon="12.4778524"><ele>583.2</ele><time>2026-03-22T11:49:21.972Z</time></trkpt><trkpt lat="43.6563105" lon="12.4778513"><ele>585.4000000000001</ele><time>2026-03-22T11:49:22.972Z</time></trkpt><trkpt lat="43.6561856" lon="12.4778597"><ele>587.6</ele><time>2026-03-22T11:49:23.973Z</time></trkpt><trkpt lat="43.6560893" lon="12.4778525"><ele>589.8000000000001</ele><time>2026-03-22T11:49:24.973Z</time></trkpt><trkpt lat="43.6559962" lon="12.4778235"><ele>592.0</ele><time>2026-03-22T11:49:25.972Z</time></trkpt><trkpt lat="43.6559065" lon="12.4777783"><ele>592.0</ele><time>2026-03-22T11:49:26.972Z</time></trkpt><trkpt lat="43.6557947" lon="12.4777008"><ele>592.0</ele><time>2026-03-22T11:49:27.972Z</time></trkpt><trkpt lat="43.6556717" lon="12.477601"><ele>592.0</ele><time>2026-03-22T11:49:28.973Z</time></trkpt><trkpt lat="43.6555612" lon="12.4775014"><ele>592.0</ele><time>2026-03-22T11:49:29.973Z</time></trkpt><trkpt lat="43.655475" lon="12.4774166"><ele>592.0</ele><time>2026-03-22T11:49:30.971Z</time></trkpt><trkpt lat="43.6553832" lon="12.477315"><ele>592.0</ele><time>2026-03-22T11:49:31.973Z</time></trkpt><trkpt lat="43.6552966" lon="12.4772374"><ele>592.0</ele><time>2026-03-22T11:49:32.973Z</time></trkpt><trkpt lat="43.6552273" lon="12.4771876"><ele>592.0</ele><time>2026-03-22T11:49:33.972Z</time></trkpt><trkpt lat="43.6551594" lon="12.4771756"><ele>592.0</ele><time>2026-03-22T11:49:34.973Z</time></trkpt><trkpt lat="43.6551003" lon="12.4772078"><ele>592.0</ele><time>2026-03-22T11:49:35.973Z</time></trkpt><trkpt lat="43.6550217" lon="12.4772705"><ele>592.0</ele><time>2026-03-22T11:49:36.972Z</time></trkpt><trkpt lat="43.6549327" lon="12.4773205"><ele>592.0</ele><time>2026-03-22T11:49:37.971Z</time></trkpt><trkpt lat="43.6548448" lon="12.4773345"><ele>592.0</ele><time>2026-03-22T11:49:38.973Z</time></trkpt><trkpt lat="43.6547482" lon="12.4773209"><ele>592.0</ele><time>2026-03-22T11:49:39.973Z</time></trkpt><trkpt lat="43.6546505" lon="12.4772732"><ele>592.0</ele><time>2026-03-22T11:49:40.972Z</time></trkpt><trkpt lat="43.6545658" lon="12.4771878"><ele>593.8000000000001</ele><time>2026-03-22T11:49:41.973Z</time></trkpt><trkpt lat="43.6544981" lon="12.4770657"><ele>595.6</ele><time>2026-03-22T11:49:42.973Z</time></trkpt><trkpt lat="43.6544518" lon="12.4769227"><ele>597.4000000000001</ele><time>2026-03-22T11:49:43.973Z</time></trkpt><trkpt lat="43.654435" lon="12.4767916"><ele>599.2</ele><time>2026-03-22T11:49:44.972Z</time></trkpt><trkpt lat="43.6544438" lon="12.4766368"><ele>601.0</ele><time>2026-03-22T11:49:45.972Z</time></trkpt><trkpt lat="43.6544729" lon="12.4764417"><ele>601.5</ele><time>2026-03-22T11:49:46.973Z</time></trkpt><trkpt lat="43.654489" lon="12.4762802"><ele>602.0</ele><time>2026-03-22T11:49:47.972Z</time></trkpt><trkpt lat="43.6544845" lon="12.476125"><ele>602.5</ele><time>2026-03-22T11:49:48.972Z</time></trkpt><trkpt lat="43.6544477" lon="12.4759231"><ele>603.0</ele><time>2026-03-22T11:49:49.973Z</time></trkpt><trkpt lat="43.6543996" lon="12.4757265"><ele>603.0</ele><time>2026-03-22T11:49:50.973Z</time></trkpt><trkpt lat="43.6543292" lon="12.4755389"><ele>603.0</ele><time>2026-03-22T11:49:51.973Z</time></trkpt><trkpt lat="43.6542326" lon="12.4753309"><ele>603.0</ele><time>2026-03-22T11:49:52.972Z</time></trkpt><trkpt lat="43.6541196" lon="12.4751269"><ele>607.0</ele><time>2026-03-22T11:49:53.972Z</time></trkpt><trkpt lat="43.654" lon="12.4749364"><ele>611.0</ele><time>2026-03-22T11:49:54.973Z</time></trkpt><trkpt lat="43.6538938" lon="12.4747651"><ele>615.0</ele><time>2026-03-22T11:49:55.973Z</time></trkpt><trkpt lat="43.6538074" lon="12.4746137"><ele>616.2</ele><time>2026-03-22T11:49:56.972Z</time></trkpt><trkpt lat="43.6537388" lon="12.4744958"><ele>617.4</ele><time>2026-03-22T11:49:57.973Z</time></trkpt><trkpt lat="43.6536906" lon="12.4743848"><ele>618.6</ele><time>2026-03-22T11:49:58.972Z</time></trkpt><trkpt lat="43.6536721" lon="12.4742479"><ele>619.8</ele><time>2026-03-22T11:49:59.971Z</time></trkpt><trkpt lat="43.6536889" lon="12.4740984"><ele>621.0</ele><time>2026-03-22T11:50:00.973Z</time></trkpt><trkpt lat="43.6537153" lon="12.4739273"><ele>620.6666666666666</ele><time>2026-03-22T11:50:01.972Z</time></trkpt><trkpt lat="43.6537463" lon="12.4737324"><ele>620.3333333333333</ele><time>2026-03-22T11:50:02.973Z</time></trkpt><trkpt lat="43.6537696" lon="12.4735192"><ele>620.0</ele><time>2026-03-22T11:50:03.972Z</time></trkpt><trkpt lat="43.6538008" lon="12.4732827"><ele>620.0</ele><time>2026-03-22T11:50:04.973Z</time></trkpt><trkpt lat="43.6538341" lon="12.4730846"><ele>620.0</ele><time>2026-03-22T11:50:05.973Z</time></trkpt><trkpt lat="43.6538846" lon="12.472901"><ele>620.0</ele><time>2026-03-22T11:50:06.972Z</time></trkpt><trkpt lat="43.6539415" lon="12.4727448"><ele>620.0</ele><time>2026-03-22T11:50:07.972Z</time></trkpt><trkpt lat="43.6539802" lon="12.4725972"><ele>620.8</ele><time>2026-03-22T11:50:08.972Z</time></trkpt><trkpt lat="43.6540042" lon="12.4724498"><ele>621.6</ele><time>2026-03-22T11:50:09.972Z</time></trkpt><trkpt lat="43.6540183" lon="12.4723309"><ele>622.4</ele><time>2026-03-22T11:50:10.973Z</time></trkpt><trkpt lat="43.6540351" lon="12.4721875"><ele>623.2</ele><time>2026-03-22T11:50:11.972Z</time></trkpt><trkpt lat="43.6540348" lon="12.4720385"><ele>624.0</ele><time>2026-03-22T11:50:12.972Z</time></trkpt><trkpt lat="43.6540083" lon="12.4718867"><ele>624.0</ele><time>2026-03-22T11:50:13.972Z</time></trkpt><trkpt lat="43.6539979" lon="12.4717609"><ele>624.0</ele><time>2026-03-22T11:50:14.973Z</time></trkpt><trkpt lat="43.6539915" lon="12.4716334"><ele>624.0</ele><time>2026-03-22T11:50:15.971Z</time></trkpt><trkpt lat="43.6539824" lon="12.4715067"><ele>624.0</ele><time>2026-03-22T11:50:16.972Z</time></trkpt><trkpt lat="43.6539747" lon="12.4713905"><ele>624.0</ele><time>2026-03-22T11:50:17.971Z</time></trkpt><trkpt lat="43.6539608" lon="12.4712625"><ele>622.6666666666666</ele><time>2026-03-22T11:50:18.972Z</time></trkpt><trkpt lat="43.6539438" lon="12.4710772"><ele>621.3333333333333</ele><time>2026-03-22T11:50:19.971Z</time></trkpt><trkpt lat="43.653919" lon="12.4708578"><ele>620.0</ele><time>2026-03-22T11:50:20.973Z</time></trkpt><trkpt lat="43.6538954" lon="12.4706363"><ele>619.6666666666666</ele><time>2026-03-22T11:50:21.973Z</time></trkpt><trkpt lat="43.6538715" lon="12.4703826"><ele>619.3333333333334</ele><time>2026-03-22T11:50:22.972Z</time></trkpt><trkpt lat="43.6538574" lon="12.4701777"><ele>619.0</ele><time>2026-03-22T11:50:23.972Z</time></trkpt><trkpt lat="43.6538527" lon="12.4699799"><ele>619.0</ele><time>2026-03-22T11:50:24.973Z</time></trkpt><trkpt lat="43.653863" lon="12.4698126"><ele>619.0</ele><time>2026-03-22T11:50:25.971Z</time></trkpt><trkpt lat="43.6538768" lon="12.4696877"><ele>619.0</ele><time>2026-03-22T11:50:26.972Z</time></trkpt><trkpt lat="43.653906" lon="12.469573"><ele>619.0</ele><time>2026-03-22T11:50:28.973Z</time></trkpt><trkpt lat="43.6539352" lon="12.4694427"><ele>619.0</ele><time>2026-03-22T11:50:30.972Z</time></trkpt><trkpt lat="43.6539559" lon="12.4693513"><ele>619.4</ele><time>2026-03-22T11:50:31.973Z</time></trkpt><trkpt lat="43.6539753" lon="12.4692461"><ele>619.8</ele><time>2026-03-22T11:50:32.972Z</time></trkpt><trkpt lat="43.6539966" lon="12.4691354"><ele>620.2</ele><time>2026-03-22T11:50:33.972Z</time></trkpt><trkpt lat="43.6540244" lon="12.4690212"><ele>620.6</ele><time>2026-03-22T11:50:34.972Z</time></trkpt><trkpt lat="43.6540632" lon="12.4689119"><ele>621.0</ele><time>2026-03-22T11:50:35.973Z</time></trkpt><trkpt lat="43.6541074" lon="12.4687585"><ele>621.0</ele><time>2026-03-22T11:50:36.971Z</time></trkpt><trkpt lat="43.6541454" lon="12.4686046"><ele>621.0</ele><time>2026-03-22T11:50:37.973Z</time></trkpt><trkpt lat="43.6541796" lon="12.4684637"><ele>621.0</ele><time>2026-03-22T11:50:38.972Z</time></trkpt><trkpt lat="43.654242" lon="12.4683147"><ele>621.0</ele><time>2026-03-22T11:50:39.973Z</time></trkpt><trkpt lat="43.6543102" lon="12.4681905"><ele>621.0</ele><time>2026-03-22T11:50:40.972Z</time></trkpt><trkpt lat="43.6543636" lon="12.4680772"><ele>621.0</ele><time>2026-03-22T11:50:41.971Z</time></trkpt><trkpt lat="43.6543991" lon="12.4679514"><ele>621.0</ele><time>2026-03-22T11:50:42.972Z</time></trkpt><trkpt lat="43.6544121" lon="12.467823"><ele>621.0</ele><time>2026-03-22T11:50:43.973Z</time></trkpt><trkpt lat="43.6544096" lon="12.4676713"><ele>621.0</ele><time>2026-03-22T11:50:44.973Z</time></trkpt><trkpt lat="43.6544055" lon="12.4675052"><ele>620.8</ele><time>2026-03-22T11:50:45.972Z</time></trkpt><trkpt lat="43.6544" lon="12.4673689"><ele>620.6</ele><time>2026-03-22T11:50:46.973Z</time></trkpt><trkpt lat="43.654379" lon="12.4672427"><ele>620.4</ele><time>2026-03-22T11:50:47.973Z</time></trkpt><trkpt lat="43.6543363" lon="12.4671135"><ele>620.2</ele><time>2026-03-22T11:50:48.973Z</time></trkpt><trkpt lat="43.6542788" lon="12.4669892"><ele>620.0</ele><time>2026-03-22T11:50:49.972Z</time></trkpt><trkpt lat="43.654206" lon="12.4668565"><ele>621.0</ele><time>2026-03-22T11:50:50.973Z</time></trkpt><trkpt lat="43.6541373" lon="12.4667495"><ele>622.0</ele><time>2026-03-22T11:50:51.973Z</time></trkpt><trkpt lat="43.6540643" lon="12.4666599"><ele>623.0</ele><time>2026-03-22T11:50:52.972Z</time></trkpt><trkpt lat="43.6539838" lon="12.4665856"><ele>624.0</ele><time>2026-03-22T11:50:53.972Z</time></trkpt><trkpt lat="43.6538666" lon="12.4665049"><ele>625.0</ele><time>2026-03-22T11:50:54.972Z</time></trkpt><trkpt lat="43.653746" lon="12.4664324"><ele>625.0</ele><time>2026-03-22T11:50:55.973Z</time></trkpt><trkpt lat="43.6536443" lon="12.4663694"><ele>625.0</ele><time>2026-03-22T11:50:56.972Z</time></trkpt><trkpt lat="43.6535528" lon="12.4663156"><ele>625.0</ele><time>2026-03-22T11:50:57.972Z</time></trkpt><trkpt lat="43.6534778" lon="12.4662655"><ele>625.0</ele><time>2026-03-22T11:50:58.973Z</time></trkpt><trkpt lat="43.6534097" lon="12.4662237"><ele>625.0</ele><time>2026-03-22T11:50:59.973Z</time></trkpt><trkpt lat="43.6533071" lon="12.4661627"><ele>623.0</ele><time>2026-03-22T11:51:01.973Z</time></trkpt><trkpt lat="43.6532419" lon="12.4661247"><ele>621.0</ele><time>2026-03-22T11:51:03.972Z</time></trkpt><trkpt lat="43.6531867" lon="12.4660707"><ele>619.0</ele><time>2026-03-22T11:54:04.973Z</time></trkpt><trkpt lat="43.6531389" lon="12.4659945"><ele>617.0</ele><time>2026-03-22T11:54:06.973Z</time></trkpt><trkpt lat="43.6531112" lon="12.465867"><ele>615.0</ele><time>2026-03-22T11:54:09.971Z</time></trkpt><trkpt lat="43.6531368" lon="12.4657528"><ele>613.0</ele><time>2026-03-22T11:54:11.972Z</time></trkpt><trkpt lat="43.6531751" lon="12.4656804"><ele>613.0</ele><time>2026-03-22T11:54:12.973Z</time></trkpt><trkpt lat="43.6532031" lon="12.4655831"><ele>613.0</ele><time>2026-03-22T11:54:14.973Z</time></trkpt><trkpt lat="43.6532201" lon="12.4654841"><ele>613.0</ele><time>2026-03-22T11:54:16.973Z</time></trkpt><trkpt lat="43.6532552" lon="12.4653876"><ele>613.0</ele><time>2026-03-22T11:54:18.972Z</time></trkpt><trkpt lat="43.6532947" lon="12.4653104"><ele>613.0</ele><time>2026-03-22T11:54:20.972Z</time></trkpt><trkpt lat="43.6533938" lon="12.4652564"><ele>613.0</ele><time>2026-03-22T11:54:22.972Z</time></trkpt><trkpt lat="43.6534973" lon="12.465197"><ele>611.0</ele><time>2026-03-22T11:54:24.973Z</time></trkpt><trkpt lat="43.6535613" lon="12.4651416"><ele>609.0</ele><time>2026-03-22T11:54:25.972Z</time></trkpt><trkpt lat="43.6536372" lon="12.465084"><ele>607.0</ele><time>2026-03-22T11:54:26.973Z</time></trkpt><trkpt lat="43.6537062" lon="12.465026"><ele>605.0</ele><time>2026-03-22T11:54:27.972Z</time></trkpt><trkpt lat="43.6537649" lon="12.464982"><ele>603.0</ele><time>2026-03-22T11:54:28.973Z</time></trkpt><trkpt lat="43.6538739" lon="12.4649138"><ele>601.0</ele><time>2026-03-22T11:54:30.972Z</time></trkpt><trkpt lat="43.653949" lon="12.4648029"><ele>601.0</ele><time>2026-03-22T11:54:32.971Z</time></trkpt><trkpt lat="43.6539881" lon="12.4647113"><ele>601.0</ele><time>2026-03-22T11:54:33.972Z</time></trkpt><trkpt lat="43.6540239" lon="12.4646376"><ele>601.0</ele><time>2026-03-22T11:54:34.973Z</time></trkpt><trkpt lat="43.6540679" lon="12.4645254"><ele>601.0</ele><time>2026-03-22T11:54:36.972Z</time></trkpt><trkpt lat="43.6541265" lon="12.4644822"><ele>601.0</ele><time>2026-03-22T11:54:38.972Z</time></trkpt><trkpt lat="43.6542056" lon="12.4644141"><ele>601.0</ele><time>2026-03-22T11:54:40.972Z</time></trkpt><trkpt lat="43.65424" lon="12.4642898"><ele>597.1666666666667</ele><time>2026-03-22T11:54:42.973Z</time></trkpt><trkpt lat="43.6542548" lon="12.4641844"><ele>593.3333333333334</ele><time>2026-03-22T11:54:45.85Z</time></trkpt><trkpt lat="43.6542114" lon="12.4640729"><ele>589.5</ele><time>2026-03-22T11:54:47.993Z</time></trkpt><trkpt lat="43.6541418" lon="12.4640284"><ele>585.6666666666666</ele><time>2026-03-22T11:54:49.972Z</time></trkpt><trkpt lat="43.6540588" lon="12.4640028"><ele>581.8333333333333</ele><time>2026-03-22T11:54:51.973Z</time></trkpt><trkpt lat="43.6539477" lon="12.4639712"><ele>578.0</ele><time>2026-03-22T11:54:53.973Z</time></trkpt><trkpt lat="43.6538531" lon="12.4639151"><ele>578.0</ele><time>2026-03-22T11:54:55.973Z</time></trkpt><trkpt lat="43.6537662" lon="12.4638128"><ele>578.0</ele><time>2026-03-22T11:54:57.973Z</time></trkpt><trkpt lat="43.6537871" lon="12.4636605"><ele>578.0</ele><time>2026-03-22T11:54:59.973Z</time></trkpt><trkpt lat="43.6538048" lon="12.4635654"><ele>578.0</ele><time>2026-03-22T11:55:01.973Z</time></trkpt><trkpt lat="43.6538761" lon="12.4635086"><ele>578.0</ele><time>2026-03-22T11:55:03.972Z</time></trkpt><trkpt lat="43.6539924" lon="12.4634276"><ele>573.6</ele><time>2026-03-22T11:55:05.972Z</time></trkpt><trkpt lat="43.6540802" lon="12.4633129"><ele>569.1999999999999</ele><time>2026-03-22T11:55:07.973Z</time></trkpt><trkpt lat="43.6541391" lon="12.4632709"><ele>564.8</ele><time>2026-03-22T11:55:08.973Z</time></trkpt><trkpt lat="43.6542016" lon="12.4632185"><ele>560.4</ele><time>2026-03-22T11:55:09.973Z</time></trkpt><trkpt lat="43.6542717" lon="12.4631938"><ele>556.0</ele><time>2026-03-22T11:55:10.972Z</time></trkpt><trkpt lat="43.6543867" lon="12.4632359"><ele>556.8</ele><time>2026-03-22T11:55:12.973Z</time></trkpt><trkpt lat="43.6544954" lon="12.4632829"><ele>557.6</ele><time>2026-03-22T11:55:14.973Z</time></trkpt><trkpt lat="43.6545948" lon="12.4632235"><ele>558.4</ele><time>2026-03-22T11:55:16.972Z</time></trkpt><trkpt lat="43.6546562" lon="12.4631806"><ele>559.2</ele><time>2026-03-22T11:55:17.973Z</time></trkpt><trkpt lat="43.6547502" lon="12.4631356"><ele>560.0</ele><time>2026-03-22T11:55:19.973Z</time></trkpt><trkpt lat="43.6548341" lon="12.4629914"><ele>555.8</ele><time>2026-03-22T11:55:21.971Z</time></trkpt><trkpt lat="43.6548951" lon="12.462923"><ele>551.6</ele><time>2026-03-22T11:55:22.972Z</time></trkpt><trkpt lat="43.6549955" lon="12.4628392"><ele>547.4</ele><time>2026-03-22T11:55:23.973Z</time></trkpt><trkpt lat="43.6550917" lon="12.462756"><ele>543.2</ele><time>2026-03-22T11:55:24.972Z</time></trkpt><trkpt lat="43.6551548" lon="12.4626313"><ele>539.0</ele><time>2026-03-22T11:55:25.972Z</time></trkpt><trkpt lat="43.655229" lon="12.4625312"><ele>541.8</ele><time>2026-03-22T11:55:26.972Z</time></trkpt><trkpt lat="43.6553275" lon="12.4624063"><ele>544.5999999999999</ele><time>2026-03-22T11:55:28.973Z</time></trkpt><trkpt lat="43.6554264" lon="12.4623178"><ele>547.4</ele><time>2026-03-22T11:55:30.972Z</time></trkpt><trkpt lat="43.6554894" lon="12.4622884"><ele>550.1999999999999</ele><time>2026-03-22T11:55:31.973Z</time></trkpt><trkpt lat="43.6555673" lon="12.4622707"><ele>553.0</ele><time>2026-03-22T11:55:32.973Z</time></trkpt><trkpt lat="43.6556457" lon="12.4622556"><ele>553.0</ele><time>2026-03-22T11:55:33.972Z</time></trkpt><trkpt lat="43.6557121" lon="12.4622387"><ele>553.0</ele><time>2026-03-22T11:55:34.973Z</time></trkpt><trkpt lat="43.6558243" lon="12.4622034"><ele>553.0</ele><time>2026-03-22T11:55:36.973Z</time></trkpt><trkpt lat="43.6559151" lon="12.4621218"><ele>553.0</ele><time>2026-03-22T11:55:38.973Z</time></trkpt><trkpt lat="43.6559673" lon="12.4620611"><ele>553.0</ele><time>2026-03-22T11:55:39.972Z</time></trkpt><trkpt lat="43.6560525" lon="12.4619943"><ele>547.5</ele><time>2026-03-22T11:55:40.972Z</time></trkpt><trkpt lat="43.6561228" lon="12.4619423"><ele>542.0</ele><time>2026-03-22T11:55:41.973Z</time></trkpt><trkpt lat="43.6561829" lon="12.4619073"><ele>536.5</ele><time>2026-03-22T11:55:42.973Z</time></trkpt><trkpt lat="43.6562442" lon="12.4618518"><ele>531.0</ele><time>2026-03-22T11:55:43.973Z</time></trkpt><trkpt lat="43.6563109" lon="12.4617775"><ele>525.5</ele><time>2026-03-22T11:55:44.972Z</time></trkpt><trkpt lat="43.656373" lon="12.4617036"><ele>520.0</ele><time>2026-03-22T11:55:45.972Z</time></trkpt><trkpt lat="43.6564197" lon="12.4616236"><ele>520.0000000000001</ele><time>2026-03-22T11:55:46.973Z</time></trkpt><trkpt lat="43.6564876" lon="12.4615644"><ele>520.0</ele><time>2026-03-22T11:55:47.971Z</time></trkpt><trkpt lat="43.656565" lon="12.4615322"><ele>520.0</ele><time>2026-03-22T11:55:48.972Z</time></trkpt><trkpt lat="43.6566352" lon="12.4614881"><ele>520.0</ele><time>2026-03-22T11:55:49.972Z</time></trkpt><trkpt lat="43.6566765" lon="12.461416"><ele>520.0</ele><time>2026-03-22T11:55:50.973Z</time></trkpt><trkpt lat="43.6567348" lon="12.4614508"><ele>520.0000000000001</ele><time>2026-03-22T11:56:15.973Z</time></trkpt><trkpt lat="43.6568068" lon="12.4614742"><ele>520.0</ele><time>2026-03-22T11:56:59.971Z</time></trkpt><trkpt lat="43.6568975" lon="12.4615017"><ele>520.8</ele><time>2026-03-22T11:57:00.972Z</time></trkpt><trkpt lat="43.6570041" lon="12.4615334"><ele>521.6</ele><time>2026-03-22T11:57:01.972Z</time></trkpt><trkpt lat="43.6571009" lon="12.4615599"><ele>522.4</ele><time>2026-03-22T11:57:02.972Z</time></trkpt><trkpt lat="43.6571899" lon="12.4615659"><ele>523.2</ele><time>2026-03-22T11:57:03.972Z</time></trkpt><trkpt lat="43.6572831" lon="12.4615567"><ele>524.0</ele><time>2026-03-22T11:57:04.973Z</time></trkpt><trkpt lat="43.6573694" lon="12.4615533"><ele>524.0</ele><time>2026-03-22T11:57:05.971Z</time></trkpt><trkpt lat="43.6574597" lon="12.461524"><ele>524.0</ele><time>2026-03-22T11:57:06.973Z</time></trkpt><trkpt lat="43.6575467" lon="12.4614774"><ele>524.0</ele><time>2026-03-22T11:57:07.972Z</time></trkpt><trkpt lat="43.6576361" lon="12.4614499"><ele>524.0</ele><time>2026-03-22T11:57:08.973Z</time></trkpt><trkpt lat="43.6577185" lon="12.4614249"><ele>524.0</ele><time>2026-03-22T11:57:09.973Z</time></trkpt><trkpt lat="43.6577983" lon="12.4613914"><ele>524.0</ele><time>2026-03-22T11:57:10.973Z</time></trkpt><trkpt lat="43.6578734" lon="12.4613503"><ele>521.3333333333333</ele><time>2026-03-22T11:57:11.973Z</time></trkpt><trkpt lat="43.6579533" lon="12.4612902"><ele>518.6666666666666</ele><time>2026-03-22T11:57:12.972Z</time></trkpt><trkpt lat="43.6580352" lon="12.461239"><ele>516.0</ele><time>2026-03-22T11:57:13.972Z</time></trkpt><trkpt lat="43.6581185" lon="12.4611929"><ele>513.3333333333334</ele><time>2026-03-22T11:57:14.972Z</time></trkpt><trkpt lat="43.6581951" lon="12.4611438"><ele>510.6666666666667</ele><time>2026-03-22T11:57:15.973Z</time></trkpt><trkpt lat="43.6582733" lon="12.4610834"><ele>508.0</ele><time>2026-03-22T11:57:16.973Z</time></trkpt><trkpt lat="43.6583485" lon="12.4610193"><ele>507.33333333333337</ele><time>2026-03-22T11:57:17.972Z</time></trkpt><trkpt lat="43.6584136" lon="12.4609628"><ele>506.6666666666667</ele><time>2026-03-22T11:57:18.973Z</time></trkpt><trkpt lat="43.658476" lon="12.4608843"><ele>506.0</ele><time>2026-03-22T11:57:19.973Z</time></trkpt><trkpt lat="43.65854" lon="12.4607943"><ele>505.33333333333337</ele><time>2026-03-22T11:57:20.973Z</time></trkpt><trkpt lat="43.6586009" lon="12.4606957"><ele>504.6666666666667</ele><time>2026-03-22T11:57:21.972Z</time></trkpt><trkpt lat="43.6586677" lon="12.4606061"><ele>504.0</ele><time>2026-03-22T11:57:22.972Z</time></trkpt><trkpt lat="43.6587302" lon="12.4605292"><ele>504.4</ele><time>2026-03-22T11:57:23.973Z</time></trkpt><trkpt lat="43.6588023" lon="12.4604396"><ele>504.79999999999995</ele><time>2026-03-22T11:57:24.972Z</time></trkpt><trkpt lat="43.6588737" lon="12.4603488"><ele>505.20000000000005</ele><time>2026-03-22T11:57:25.972Z</time></trkpt><trkpt lat="43.6589568" lon="12.4602685"><ele>505.6</ele><time>2026-03-22T11:57:26.972Z</time></trkpt><trkpt lat="43.6590302" lon="12.4601929"><ele>506.0</ele><time>2026-03-22T11:57:27.972Z</time></trkpt><trkpt lat="43.6590947" lon="12.460137"><ele>506.0</ele><time>2026-03-22T11:57:28.972Z</time></trkpt><trkpt lat="43.6591561" lon="12.4600735"><ele>506.0</ele><time>2026-03-22T11:57:29.973Z</time></trkpt><trkpt lat="43.6592177" lon="12.4599822"><ele>506.0</ele><time>2026-03-22T11:57:30.973Z</time></trkpt><trkpt lat="43.6592839" lon="12.4598844"><ele>506.0</ele><time>2026-03-22T11:57:31.973Z</time></trkpt><trkpt lat="43.6593547" lon="12.4597759"><ele>506.0</ele><time>2026-03-22T11:57:32.973Z</time></trkpt><trkpt lat="43.6594168" lon="12.4596759"><ele>505.99999999999994</ele><time>2026-03-22T11:57:33.972Z</time></trkpt><trkpt lat="43.659462" lon="12.4595878"><ele>506.0</ele><time>2026-03-22T11:57:34.972Z</time></trkpt><trkpt lat="43.6595079" lon="12.4594936"><ele>506.0</ele><time>2026-03-22T11:57:35.972Z</time></trkpt><trkpt lat="43.6595668" lon="12.4594325"><ele>506.0</ele><time>2026-03-22T11:57:36.972Z</time></trkpt><trkpt lat="43.6596442" lon="12.459359"><ele>505.99999999999994</ele><time>2026-03-22T11:57:37.972Z</time></trkpt><trkpt lat="43.6597204" lon="12.4592763"><ele>506.0</ele><time>2026-03-22T11:57:38.973Z</time></trkpt><trkpt lat="43.6597927" lon="12.4591933"><ele>505.99999999999994</ele><time>2026-03-22T11:57:39.972Z</time></trkpt><trkpt lat="43.6598645" lon="12.4591059"><ele>506.0</ele><time>2026-03-22T11:57:40.972Z</time></trkpt><trkpt lat="43.6599292" lon="12.4590149"><ele>506.0</ele><time>2026-03-22T11:57:41.972Z</time></trkpt><trkpt lat="43.6599912" lon="12.458934"><ele>506.0</ele><time>2026-03-22T11:57:42.972Z</time></trkpt><trkpt lat="43.6600541" lon="12.4588582"><ele>505.99999999999994</ele><time>2026-03-22T11:57:43.972Z</time></trkpt><trkpt lat="43.6601221" lon="12.4587851"><ele>506.0</ele><time>2026-03-22T11:57:44.972Z</time></trkpt><trkpt lat="43.6601953" lon="12.4587244"><ele>502.3333333333333</ele><time>2026-03-22T11:57:45.973Z</time></trkpt><trkpt lat="43.6602496" lon="12.4586731"><ele>498.66666666666663</ele><time>2026-03-22T11:57:46.973Z</time></trkpt><trkpt lat="43.6603599" lon="12.4586355"><ele>495.0</ele><time>2026-03-22T11:57:48.971Z</time></trkpt><trkpt lat="43.6604356" lon="12.4586281"><ele>491.33333333333337</ele><time>2026-03-22T11:57:49.973Z</time></trkpt><trkpt lat="43.6605106" lon="12.4586284"><ele>487.6666666666667</ele><time>2026-03-22T11:57:50.973Z</time></trkpt><trkpt lat="43.6605783" lon="12.4586414"><ele>484.0</ele><time>2026-03-22T11:57:51.973Z</time></trkpt><trkpt lat="43.6606504" lon="12.4586671"><ele>483.6666666666667</ele><time>2026-03-22T11:57:52.973Z</time></trkpt><trkpt lat="43.6607237" lon="12.45871"><ele>483.33333333333337</ele><time>2026-03-22T11:57:53.972Z</time></trkpt><trkpt lat="43.6607941" lon="12.4587477"><ele>483.0</ele><time>2026-03-22T11:57:54.972Z</time></trkpt><trkpt lat="43.6608612" lon="12.4587807"><ele>482.66666666666663</ele><time>2026-03-22T11:57:55.973Z</time></trkpt><trkpt lat="43.6609485" lon="12.458739"><ele>482.3333333333333</ele><time>2026-03-22T11:57:57.973Z</time></trkpt><trkpt lat="43.6610004" lon="12.458656"><ele>482.0</ele><time>2026-03-22T11:57:59.972Z</time></trkpt><trkpt lat="43.6610434" lon="12.4585644"><ele>482.0</ele><time>2026-03-22T11:58:01.973Z</time></trkpt><trkpt lat="43.6610674" lon="12.4584632"><ele>482.00000000000006</ele><time>2026-03-22T11:58:04.973Z</time></trkpt><trkpt lat="43.6610116" lon="12.4585487"><ele>482.0</ele><time>2026-03-22T11:59:44.974Z</time></trkpt><trkpt lat="43.6609924" lon="12.4586392"><ele>482.0</ele><time>2026-03-22T11:59:46.974Z</time></trkpt><trkpt lat="43.6609744" lon="12.458754"><ele>482.00000000000006</ele><time>2026-03-22T11:59:48.974Z</time></trkpt><trkpt lat="43.6610333" lon="12.458785"><ele>482.0</ele><time>2026-03-22T11:59:56.973Z</time></trkpt><trkpt lat="43.6610917" lon="12.4588181"><ele>482.0</ele><time>2026-03-22T12:01:55.973Z</time></trkpt><trkpt lat="43.6611599" lon="12.4588788"><ele>481.3333333333333</ele><time>2026-03-22T12:02:01.974Z</time></trkpt><trkpt lat="43.6612467" lon="12.4588837"><ele>480.66666666666663</ele><time>2026-03-22T12:02:04.974Z</time></trkpt><trkpt lat="43.6613153" lon="12.4588208"><ele>480.0</ele><time>2026-03-22T12:02:06.974Z</time></trkpt><trkpt lat="43.6613795" lon="12.4588291"><ele>479.33333333333337</ele><time>2026-03-22T12:02:08.973Z</time></trkpt><trkpt lat="43.6614408" lon="12.458864"><ele>478.6666666666667</ele><time>2026-03-22T12:02:12.974Z</time></trkpt><trkpt lat="43.6614574" lon="12.4589564"><ele>478.0</ele><time>2026-03-22T12:02:22.973Z</time></trkpt><trkpt lat="43.6614659" lon="12.4591034"><ele>478.00000000000006</ele><time>2026-03-22T12:02:26.974Z</time></trkpt><trkpt lat="43.6614505" lon="12.45898"><ele>478.0</ele><time>2026-03-22T12:06:02.973Z</time></trkpt><trkpt lat="43.6614528" lon="12.4588913"><ele>478.0</ele><time>2026-03-22T12:06:27.974Z</time></trkpt><trkpt lat="43.661516" lon="12.4588452"><ele>478.0</ele><time>2026-03-22T12:06:30.974Z</time></trkpt><trkpt lat="43.6615891" lon="12.4588296"><ele>478.00000000000006</ele><time>2026-03-22T12:06:32.973Z</time></trkpt><trkpt lat="43.6616896" lon="12.4587864"><ele>478.0</ele><time>2026-03-22T12:06:34.974Z</time></trkpt><trkpt lat="43.6617742" lon="12.4587355"><ele>477.50000000000006</ele><time>2026-03-22T12:06:36.974Z</time></trkpt><trkpt lat="43.6618734" lon="12.458699"><ele>477.0</ele><time>2026-03-22T12:06:38.974Z</time></trkpt><trkpt lat="43.6619781" lon="12.4586612"><ele>476.5</ele><time>2026-03-22T12:06:40.974Z</time></trkpt><trkpt lat="43.6620594" lon="12.4586181"><ele>476.0</ele><time>2026-03-22T12:06:42.973Z</time></trkpt><trkpt lat="43.6621398" lon="12.458604"><ele>475.50000000000006</ele><time>2026-03-22T12:06:45.973Z</time></trkpt><trkpt lat="43.6621872" lon="12.4586633"><ele>475.0</ele><time>2026-03-22T12:06:47.973Z</time></trkpt><trkpt lat="43.6622911" lon="12.4587081"><ele>473.6</ele><time>2026-03-22T12:06:50.973Z</time></trkpt><trkpt lat="43.6623779" lon="12.4586547"><ele>472.2</ele><time>2026-03-22T12:06:52.973Z</time></trkpt><trkpt lat="43.6624635" lon="12.4586577"><ele>470.79999999999995</ele><time>2026-03-22T12:06:55.973Z</time></trkpt><trkpt lat="43.6625448" lon="12.4587002"><ele>469.4</ele><time>2026-03-22T12:06:57.974Z</time></trkpt><trkpt lat="43.6626572" lon="12.4586932"><ele>468.0</ele><time>2026-03-22T12:06:59.973Z</time></trkpt><trkpt lat="43.6627279" lon="12.4586775"><ele>466.28571428571433</ele><time>2026-03-22T12:07:00.973Z</time></trkpt><trkpt lat="43.6627935" lon="12.4586528"><ele>464.5714285714286</ele><time>2026-03-22T12:07:01.974Z</time></trkpt><trkpt lat="43.6628614" lon="12.4586227"><ele>462.8571428571429</ele><time>2026-03-22T12:07:02.974Z</time></trkpt><trkpt lat="43.6629272" lon="12.4585917"><ele>461.1428571428571</ele><time>2026-03-22T12:07:03.974Z</time></trkpt><trkpt lat="43.6629925" lon="12.4585606"><ele>459.4285714285714</ele><time>2026-03-22T12:07:04.973Z</time></trkpt><trkpt lat="43.663057" lon="12.4585319"><ele>457.71428571428567</ele><time>2026-03-22T12:07:05.972Z</time></trkpt><trkpt lat="43.6631165" lon="12.4585018"><ele>456.0</ele><time>2026-03-22T12:07:06.973Z</time></trkpt><trkpt lat="43.6632192" lon="12.4584483"><ele>456.0</ele><time>2026-03-22T12:07:08.974Z</time></trkpt><trkpt lat="43.6632834" lon="12.4583708"><ele>456.0</ele><time>2026-03-22T12:07:11.973Z</time></trkpt><trkpt lat="43.6632731" lon="12.4582664"><ele>456.0</ele><time>2026-03-22T12:07:13.973Z</time></trkpt><trkpt lat="43.6632532" lon="12.4581597"><ele>456.0</ele><time>2026-03-22T12:07:15.973Z</time></trkpt><trkpt lat="43.6632475" lon="12.458051"><ele>456.0</ele><time>2026-03-22T12:07:17.974Z</time></trkpt><trkpt lat="43.6632794" lon="12.4579642"><ele>456.0</ele><time>2026-03-22T12:07:19.974Z</time></trkpt><trkpt lat="43.6633912" lon="12.4579145"><ele>456.20000000000005</ele><time>2026-03-22T12:07:21.973Z</time></trkpt><trkpt lat="43.6635075" lon="12.4578604"><ele>456.40000000000003</ele><time>2026-03-22T12:07:23.973Z</time></trkpt><trkpt lat="43.6635689" lon="12.4578193"><ele>456.6</ele><time>2026-03-22T12:07:24.973Z</time></trkpt><trkpt lat="43.6636669" lon="12.4577403"><ele>456.8</ele><time>2026-03-22T12:07:26.973Z</time></trkpt><trkpt lat="43.6637223" lon="12.4576315"><ele>457.0</ele><time>2026-03-22T12:07:28.973Z</time></trkpt><trkpt lat="43.663744" lon="12.457534"><ele>457.00000000000006</ele><time>2026-03-22T12:07:30.974Z</time></trkpt><trkpt lat="43.6638067" lon="12.457444"><ele>457.0</ele><time>2026-03-22T12:07:33.973Z</time></trkpt><trkpt lat="43.6638674" lon="12.4573799"><ele>457.00000000000006</ele><time>2026-03-22T12:07:36.973Z</time></trkpt><trkpt lat="43.6638311" lon="12.4573046"><ele>457.00000000000006</ele><time>2026-03-22T12:07:39.974Z</time></trkpt><trkpt lat="43.6637809" lon="12.4572417"><ele>457.0</ele><time>2026-03-22T12:07:42.974Z</time></trkpt><trkpt lat="43.6637424" lon="12.4571727"><ele>457.00000000000006</ele><time>2026-03-22T12:07:44.973Z</time></trkpt><trkpt lat="43.6636817" lon="12.4571009"><ele>457.00000000000006</ele><time>2026-03-22T12:07:47.973Z</time></trkpt><trkpt lat="43.6636036" lon="12.457053"><ele>457.00000000000006</ele><time>2026-03-22T12:08:25.973Z</time></trkpt><trkpt lat="43.6635538" lon="12.4569796"><ele>457.0</ele><time>2026-03-22T12:08:28.973Z</time></trkpt><trkpt lat="43.6635327" lon="12.4568821"><ele>457.0</ele><time>2026-03-22T12:08:40.973Z</time></trkpt><trkpt lat="43.6635993" lon="12.4568836"><ele>457.0</ele><time>2026-03-22T12:08:44.974Z</time></trkpt><trkpt lat="43.6637226" lon="12.4568663"><ele>457.00000000000006</ele><time>2026-03-22T12:08:55.973Z</time></trkpt><trkpt lat="43.6637857" lon="12.4568483"><ele>457.0</ele><time>2026-03-22T12:08:56.972Z</time></trkpt><trkpt lat="43.6638639" lon="12.4568282"><ele>455.6666666666667</ele><time>2026-03-22T12:08:57.973Z</time></trkpt><trkpt lat="43.6639529" lon="12.4568026"><ele>454.33333333333337</ele><time>2026-03-22T12:08:58.972Z</time></trkpt><trkpt lat="43.6640345" lon="12.4567752"><ele>453.0</ele><time>2026-03-22T12:08:59.974Z</time></trkpt><trkpt lat="43.6641099" lon="12.4567314"><ele>451.66666666666663</ele><time>2026-03-22T12:09:00.974Z</time></trkpt><trkpt lat="43.6641857" lon="12.456678"><ele>450.3333333333333</ele><time>2026-03-22T12:09:01.973Z</time></trkpt><trkpt lat="43.664255" lon="12.4566281"><ele>449.0</ele><time>2026-03-22T12:09:02.974Z</time></trkpt><trkpt lat="43.6643239" lon="12.4565737"><ele>449.0</ele><time>2026-03-22T12:09:03.974Z</time></trkpt><trkpt lat="43.6643892" lon="12.4565259"><ele>448.99999999999994</ele><time>2026-03-22T12:09:04.974Z</time></trkpt><trkpt lat="43.664454" lon="12.4564789"><ele>449.0</ele><time>2026-03-22T12:09:05.974Z</time></trkpt><trkpt lat="43.6645133" lon="12.4564347"><ele>449.0</ele><time>2026-03-22T12:09:06.973Z</time></trkpt><trkpt lat="43.6645766" lon="12.4563888"><ele>448.99999999999994</ele><time>2026-03-22T12:09:07.974Z</time></trkpt><trkpt lat="43.6646356" lon="12.4563302"><ele>449.0</ele><time>2026-03-22T12:09:08.973Z</time></trkpt><trkpt lat="43.6646982" lon="12.4562525"><ele>449.0</ele><time>2026-03-22T12:09:09.974Z</time></trkpt><trkpt lat="43.6647732" lon="12.4561691"><ele>446.6</ele><time>2026-03-22T12:09:10.974Z</time></trkpt><trkpt lat="43.6648744" lon="12.4560829"><ele>444.2</ele><time>2026-03-22T12:09:11.973Z</time></trkpt><trkpt lat="43.6649692" lon="12.4559991"><ele>441.80000000000007</ele><time>2026-03-22T12:09:12.974Z</time></trkpt><trkpt lat="43.6650479" lon="12.4559289"><ele>439.40000000000003</ele><time>2026-03-22T12:09:13.974Z</time></trkpt><trkpt lat="43.6651301" lon="12.4558807"><ele>437.0</ele><time>2026-03-22T12:09:14.974Z</time></trkpt><trkpt lat="43.6652022" lon="12.4558528"><ele>434.8333333333333</ele><time>2026-03-22T12:09:15.973Z</time></trkpt><trkpt lat="43.6652925" lon="12.4557874"><ele>432.66666666666663</ele><time>2026-03-22T12:09:17.974Z</time></trkpt><trkpt lat="43.6653284" lon="12.4557053"><ele>430.5</ele><time>2026-03-22T12:09:19.973Z</time></trkpt><trkpt lat="43.6653661" lon="12.4556304"><ele>428.33333333333337</ele><time>2026-03-22T12:09:21.973Z</time></trkpt><trkpt lat="43.6654207" lon="12.4555503"><ele>426.1666666666667</ele><time>2026-03-22T12:09:24.974Z</time></trkpt><trkpt lat="43.6654664" lon="12.4554643"><ele>424.0</ele><time>2026-03-22T12:10:38.974Z</time></trkpt><trkpt lat="43.6655215" lon="12.4554081"><ele>423.83333333333337</ele><time>2026-03-22T12:10:39.974Z</time></trkpt><trkpt lat="43.6655865" lon="12.455354"><ele>423.6666666666667</ele><time>2026-03-22T12:10:40.973Z</time></trkpt><trkpt lat="43.6656581" lon="12.4553058"><ele>423.5</ele><time>2026-03-22T12:10:41.972Z</time></trkpt><trkpt lat="43.6657306" lon="12.4552726"><ele>423.33333333333337</ele><time>2026-03-22T12:10:42.973Z</time></trkpt><trkpt lat="43.6658115" lon="12.4552534"><ele>423.1666666666667</ele><time>2026-03-22T12:10:43.974Z</time></trkpt><trkpt lat="43.6658876" lon="12.4552506"><ele>423.0</ele><time>2026-03-22T12:10:44.973Z</time></trkpt><trkpt lat="43.6659687" lon="12.4552695"><ele>423.0</ele><time>2026-03-22T12:10:45.974Z</time></trkpt><trkpt lat="43.6660483" lon="12.4552972"><ele>423.0</ele><time>2026-03-22T12:10:46.974Z</time></trkpt><trkpt lat="43.6661283" lon="12.4553252"><ele>423.0</ele><time>2026-03-22T12:10:47.973Z</time></trkpt><trkpt lat="43.6662114" lon="12.4553428"><ele>423.0</ele><time>2026-03-22T12:10:48.974Z</time></trkpt><trkpt lat="43.6662925" lon="12.4553663"><ele>423.0</ele><time>2026-03-22T12:10:49.974Z</time></trkpt><trkpt lat="43.6663733" lon="12.4553901"><ele>423.0</ele><time>2026-03-22T12:10:50.973Z</time></trkpt><trkpt lat="43.6664568" lon="12.4554209"><ele>419.2</ele><time>2026-03-22T12:10:51.974Z</time></trkpt><trkpt lat="43.666527" lon="12.4554513"><ele>415.4</ele><time>2026-03-22T12:10:52.973Z</time></trkpt><trkpt lat="43.6666373" lon="12.455513"><ele>411.59999999999997</ele><time>2026-03-22T12:10:54.973Z</time></trkpt><trkpt lat="43.6666975" lon="12.4555419"><ele>407.79999999999995</ele><time>2026-03-22T12:10:55.974Z</time></trkpt><trkpt lat="43.666802" lon="12.4555871"><ele>404.0</ele><time>2026-03-22T12:10:57.973Z</time></trkpt><trkpt lat="43.6669144" lon="12.4556387"><ele>400.8333333333333</ele><time>2026-03-22T12:10:59.973Z</time></trkpt><trkpt lat="43.6670328" lon="12.4556236"><ele>397.66666666666663</ele><time>2026-03-22T12:11:01.974Z</time></trkpt><trkpt lat="43.6670985" lon="12.45561"><ele>394.5</ele><time>2026-03-22T12:11:02.973Z</time></trkpt><trkpt lat="43.6671659" lon="12.4556004"><ele>391.33333333333337</ele><time>2026-03-22T12:11:03.973Z</time></trkpt><trkpt lat="43.6672354" lon="12.4555858"><ele>388.1666666666667</ele><time>2026-03-22T12:11:04.972Z</time></trkpt><trkpt lat="43.6673157" lon="12.4555715"><ele>385.0</ele><time>2026-03-22T12:11:05.973Z</time></trkpt><trkpt lat="43.667435" lon="12.4555559"><ele>385.0</ele><time>2026-03-22T12:11:07.973Z</time></trkpt><trkpt lat="43.6675429" lon="12.4556157"><ele>385.0</ele><time>2026-03-22T12:11:09.974Z</time></trkpt><trkpt lat="43.6675858" lon="12.4556794"><ele>385.0</ele><time>2026-03-22T12:11:10.974Z</time></trkpt><trkpt lat="43.6676412" lon="12.455795"><ele>385.0</ele><time>2026-03-22T12:11:12.974Z</time></trkpt><trkpt lat="43.6676977" lon="12.455969"><ele>385.0</ele><time>2026-03-22T12:11:14.974Z</time></trkpt><trkpt lat="43.6677216" lon="12.4560853"><ele>385.00000000000006</ele><time>2026-03-22T12:11:15.974Z</time></trkpt><trkpt lat="43.6677405" lon="12.4561923"><ele>385.0</ele><time>2026-03-22T12:11:16.973Z</time></trkpt><trkpt lat="43.6677549" lon="12.4562939"><ele>385.0</ele><time>2026-03-22T12:11:17.974Z</time></trkpt><trkpt lat="43.6677656" lon="12.4563989"><ele>385.0</ele><time>2026-03-22T12:11:18.974Z</time></trkpt><trkpt lat="43.6677705" lon="12.4565006"><ele>385.00000000000006</ele><time>2026-03-22T12:11:19.974Z</time></trkpt><trkpt lat="43.6677776" lon="12.4566115"><ele>385.0</ele><time>2026-03-22T12:11:20.974Z</time></trkpt><trkpt lat="43.6677784" lon="12.4567175"><ele>383.83333333333337</ele><time>2026-03-22T12:11:21.973Z</time></trkpt><trkpt lat="43.6677767" lon="12.4568171"><ele>382.6666666666667</ele><time>2026-03-22T12:11:22.974Z</time></trkpt><trkpt lat="43.6677704" lon="12.4569088"><ele>381.5</ele><time>2026-03-22T12:11:23.973Z</time></trkpt><trkpt lat="43.6677621" lon="12.457008"><ele>380.33333333333337</ele><time>2026-03-22T12:11:24.973Z</time></trkpt><trkpt lat="43.667767" lon="12.4570952"><ele>379.1666666666667</ele><time>2026-03-22T12:11:25.974Z</time></trkpt><trkpt lat="43.6678246" lon="12.4572239"><ele>378.0</ele><time>2026-03-22T12:11:27.974Z</time></trkpt><trkpt lat="43.6679262" lon="12.4572972"><ele>376.5</ele><time>2026-03-22T12:11:29.973Z</time></trkpt><trkpt lat="43.6680174" lon="12.4573587"><ele>375.0</ele><time>2026-03-22T12:11:31.973Z</time></trkpt><trkpt lat="43.6680438" lon="12.4574862"><ele>373.5</ele><time>2026-03-22T12:11:34.974Z</time></trkpt><trkpt lat="43.6681046" lon="12.4575302"><ele>372.0</ele><time>2026-03-22T12:11:37.974Z</time></trkpt><trkpt lat="43.6680823" lon="12.4574221"><ele>370.5</ele><time>2026-03-22T12:11:40.974Z</time></trkpt><trkpt lat="43.6680207" lon="12.4573349"><ele>369.0</ele><time>2026-03-22T12:11:43.972Z</time></trkpt><trkpt lat="43.6679624" lon="12.4572895"><ele>369.0</ele><time>2026-03-22T12:11:45.974Z</time></trkpt><trkpt lat="43.6678947" lon="12.4572668"><ele>369.0</ele><time>2026-03-22T12:11:47.974Z</time></trkpt><trkpt lat="43.6678237" lon="12.4572329"><ele>369.0</ele><time>2026-03-22T12:11:49.973Z</time></trkpt><trkpt lat="43.6677668" lon="12.4571061"><ele>369.0</ele><time>2026-03-22T12:11:51.974Z</time></trkpt><trkpt lat="43.6677763" lon="12.4569704"><ele>369.0</ele><time>2026-03-22T12:11:53.974Z</time></trkpt><trkpt lat="43.6678456" lon="12.4569149"><ele>369.0</ele><time>2026-03-22T12:11:55.973Z</time></trkpt><trkpt lat="43.6679652" lon="12.4569002"><ele>368.5</ele><time>2026-03-22T12:11:57.973Z</time></trkpt><trkpt lat="43.6680418" lon="12.4568911"><ele>368.0</ele><time>2026-03-22T12:11:58.974Z</time></trkpt><trkpt lat="43.6681279" lon="12.4568736"><ele>367.5</ele><time>2026-03-22T12:11:59.973Z</time></trkpt><trkpt lat="43.6682039" lon="12.4568351"><ele>367.0</ele><time>2026-03-22T12:12:00.974Z</time></trkpt><trkpt lat="43.6682829" lon="12.4567941"><ele>366.5</ele><time>2026-03-22T12:12:01.974Z</time></trkpt><trkpt lat="43.6683613" lon="12.456753"><ele>366.0</ele><time>2026-03-22T12:12:02.973Z</time></trkpt><trkpt lat="43.6684409" lon="12.4567029"><ele>366.0</ele><time>2026-03-22T12:12:03.973Z</time></trkpt><trkpt lat="43.6685025" lon="12.4566427"><ele>366.0</ele><time>2026-03-22T12:12:04.974Z</time></trkpt><trkpt lat="43.6685555" lon="12.4565736"><ele>366.0</ele><time>2026-03-22T12:12:05.974Z</time></trkpt><trkpt lat="43.6686103" lon="12.456487"><ele>366.0</ele><time>2026-03-22T12:12:06.974Z</time></trkpt><trkpt lat="43.6686401" lon="12.4563482"><ele>366.0</ele><time>2026-03-22T12:12:07.974Z</time></trkpt><trkpt lat="43.6686634" lon="12.456213"><ele>366.0</ele><time>2026-03-22T12:12:08.973Z</time></trkpt><trkpt lat="43.6686898" lon="12.4560747"><ele>360.20000000000005</ele><time>2026-03-22T12:12:09.973Z</time></trkpt><trkpt lat="43.6686961" lon="12.4559363"><ele>354.40000000000003</ele><time>2026-03-22T12:12:10.974Z</time></trkpt><trkpt lat="43.6687107" lon="12.4557904"><ele>348.6</ele><time>2026-03-22T12:12:11.974Z</time></trkpt><trkpt lat="43.6687266" lon="12.4556436"><ele>342.8</ele><time>2026-03-22T12:12:12.974Z</time></trkpt><trkpt lat="43.6687362" lon="12.4555216"><ele>337.0</ele><time>2026-03-22T12:12:13.974Z</time></trkpt><trkpt lat="43.6687327" lon="12.4553956"><ele>335.6</ele><time>2026-03-22T12:12:14.974Z</time></trkpt><trkpt lat="43.6687115" lon="12.455272"><ele>334.20000000000005</ele><time>2026-03-22T12:12:15.973Z</time></trkpt><trkpt lat="43.6686565" lon="12.4551153"><ele>332.8</ele><time>2026-03-22T12:12:16.973Z</time></trkpt><trkpt lat="43.6686224" lon="12.4549749"><ele>331.4</ele><time>2026-03-22T12:12:17.974Z</time></trkpt><trkpt lat="43.6685832" lon="12.4548222"><ele>330.0</ele><time>2026-03-22T12:12:18.974Z</time></trkpt><trkpt lat="43.668545" lon="12.4546745"><ele>333.4</ele><time>2026-03-22T12:12:19.974Z</time></trkpt><trkpt lat="43.6685173" lon="12.4545231"><ele>336.8</ele><time>2026-03-22T12:12:20.973Z</time></trkpt><trkpt lat="43.6684867" lon="12.4544108"><ele>340.20000000000005</ele><time>2026-03-22T12:12:21.974Z</time></trkpt><trkpt lat="43.6684637" lon="12.4542757"><ele>343.6</ele><time>2026-03-22T12:12:22.973Z</time></trkpt><trkpt lat="43.6684294" lon="12.4541642"><ele>347.0</ele><time>2026-03-22T12:12:23.974Z</time></trkpt><trkpt lat="43.6684162" lon="12.45405"><ele>347.0</ele><time>2026-03-22T12:12:24.973Z</time></trkpt><trkpt lat="43.6684131" lon="12.4539466"><ele>347.0</ele><time>2026-03-22T12:12:25.973Z</time></trkpt><trkpt lat="43.6684247" lon="12.4538492"><ele>347.0</ele><time>2026-03-22T12:12:26.974Z</time></trkpt><trkpt lat="43.668434" lon="12.4537396"><ele>347.0</ele><time>2026-03-22T12:12:27.973Z</time></trkpt><trkpt lat="43.6684493" lon="12.4536467"><ele>347.0</ele><time>2026-03-22T12:12:28.973Z</time></trkpt><trkpt lat="43.6684724" lon="12.4535431"><ele>347.0</ele><time>2026-03-22T12:12:29.973Z</time></trkpt><trkpt lat="43.6685034" lon="12.4534479"><ele>347.0</ele><time>2026-03-22T12:12:30.973Z</time></trkpt><trkpt lat="43.6685353" lon="12.4533665"><ele>347.1666666666667</ele><time>2026-03-22T12:12:31.974Z</time></trkpt><trkpt lat="43.6685725" lon="12.4532779"><ele>347.33333333333337</ele><time>2026-03-22T12:12:32.974Z</time></trkpt><trkpt lat="43.6686091" lon="12.4531826"><ele>347.5</ele><time>2026-03-22T12:12:33.974Z</time></trkpt><trkpt lat="43.6686491" lon="12.4530797"><ele>347.6666666666667</ele><time>2026-03-22T12:12:34.974Z</time></trkpt><trkpt lat="43.6686857" lon="12.4529863"><ele>347.8333333333333</ele><time>2026-03-22T12:12:35.974Z</time></trkpt><trkpt lat="43.6687127" lon="12.4529034"><ele>348.0</ele><time>2026-03-22T12:12:36.974Z</time></trkpt><trkpt lat="43.6687532" lon="12.4527477"><ele>343.0</ele><time>2026-03-22T12:12:38.974Z</time></trkpt><trkpt lat="43.6687717" lon="12.4525813"><ele>338.0</ele><time>2026-03-22T12:12:40.974Z</time></trkpt><trkpt lat="43.6687728" lon="12.4524157"><ele>333.0</ele><time>2026-03-22T12:12:42.974Z</time></trkpt><trkpt lat="43.6687596" lon="12.4522462"><ele>328.0</ele><time>2026-03-22T12:12:44.974Z</time></trkpt><trkpt lat="43.6687235" lon="12.4521368"><ele>328.16666666666663</ele><time>2026-03-22T12:12:45.974Z</time></trkpt><trkpt lat="43.6687002" lon="12.4520446"><ele>328.3333333333333</ele><time>2026-03-22T12:12:46.974Z</time></trkpt><trkpt lat="43.6686766" lon="12.4519543"><ele>328.5</ele><time>2026-03-22T12:12:47.973Z</time></trkpt><trkpt lat="43.6686585" lon="12.4518484"><ele>328.6666666666667</ele><time>2026-03-22T12:12:48.974Z</time></trkpt><trkpt lat="43.6686414" lon="12.4517218"><ele>328.83333333333337</ele><time>2026-03-22T12:12:49.973Z</time></trkpt><trkpt lat="43.6686224" lon="12.4515793"><ele>329.0</ele><time>2026-03-22T12:12:50.974Z</time></trkpt><trkpt lat="43.668603" lon="12.4514285"><ele>329.6</ele><time>2026-03-22T12:12:51.973Z</time></trkpt><trkpt lat="43.6685871" lon="12.4512764"><ele>330.2</ele><time>2026-03-22T12:12:52.974Z</time></trkpt><trkpt lat="43.6685718" lon="12.4511442"><ele>330.8</ele><time>2026-03-22T12:12:53.973Z</time></trkpt><trkpt lat="43.6685592" lon="12.4510207"><ele>331.40000000000003</ele><time>2026-03-22T12:12:54.974Z</time></trkpt><trkpt lat="43.6685507" lon="12.4508844"><ele>332.0</ele><time>2026-03-22T12:12:55.974Z</time></trkpt><trkpt lat="43.6685427" lon="12.4507388"><ele>332.0</ele><time>2026-03-22T12:12:56.974Z</time></trkpt><trkpt lat="43.6685306" lon="12.4505948"><ele>332.0</ele><time>2026-03-22T12:12:57.974Z</time></trkpt><trkpt lat="43.6685" lon="12.4504532"><ele>332.0</ele><time>2026-03-22T12:12:58.974Z</time></trkpt><trkpt lat="43.6684646" lon="12.4502959"><ele>332.0</ele><time>2026-03-22T12:12:59.974Z</time></trkpt><trkpt lat="43.668437" lon="12.4501053"><ele>331.75</ele><time>2026-03-22T12:13:00.973Z</time></trkpt><trkpt lat="43.6684125" lon="12.4499157"><ele>331.5</ele><time>2026-03-22T12:13:01.973Z</time></trkpt><trkpt lat="43.6683867" lon="12.4497329"><ele>331.25</ele><time>2026-03-22T12:13:02.974Z</time></trkpt><trkpt lat="43.6683749" lon="12.4495295"><ele>331.0</ele><time>2026-03-22T12:13:03.973Z</time></trkpt><trkpt lat="43.6683686" lon="12.449298"><ele>332.66666666666663</ele><time>2026-03-22T12:13:04.973Z</time></trkpt><trkpt lat="43.6683547" lon="12.4490423"><ele>334.3333333333333</ele><time>2026-03-22T12:13:05.973Z</time></trkpt><trkpt lat="43.6683359" lon="12.4487911"><ele>336.0</ele><time>2026-03-22T12:13:06.974Z</time></trkpt><trkpt lat="43.6682999" lon="12.4485123"><ele>338.0</ele><time>2026-03-22T12:13:07.974Z</time></trkpt><trkpt lat="43.6682596" lon="12.4482345"><ele>340.0</ele><time>2026-03-22T12:13:08.974Z</time></trkpt><trkpt lat="43.6682273" lon="12.4479744"><ele>342.0</ele><time>2026-03-22T12:13:09.973Z</time></trkpt><trkpt lat="43.6682116" lon="12.4477168"><ele>343.0</ele><time>2026-03-22T12:13:10.974Z</time></trkpt><trkpt lat="43.6682094" lon="12.4474372"><ele>344.0</ele><time>2026-03-22T12:13:11.974Z</time></trkpt><trkpt lat="43.6682111" lon="12.4471499"><ele>345.0</ele><time>2026-03-22T12:13:12.974Z</time></trkpt><trkpt lat="43.6682223" lon="12.4468974"><ele>345.3333333333333</ele><time>2026-03-22T12:13:13.974Z</time></trkpt><trkpt lat="43.6682298" lon="12.4466709"><ele>345.66666666666663</ele><time>2026-03-22T12:13:14.973Z</time></trkpt><trkpt lat="43.6682327" lon="12.4464656"><ele>346.0</ele><time>2026-03-22T12:13:15.973Z</time></trkpt><trkpt lat="43.668234" lon="12.4462603"><ele>346.5</ele><time>2026-03-22T12:13:16.973Z</time></trkpt><trkpt lat="43.6682293" lon="12.446061"><ele>347.0</ele><time>2026-03-22T12:13:17.973Z</time></trkpt><trkpt lat="43.6682291" lon="12.4458561"><ele>347.5</ele><time>2026-03-22T12:13:18.972Z</time></trkpt><trkpt lat="43.668234" lon="12.4456508"><ele>348.0</ele><time>2026-03-22T12:13:19.973Z</time></trkpt><trkpt lat="43.6682263" lon="12.4454817"><ele>347.75</ele><time>2026-03-22T12:13:20.974Z</time></trkpt><trkpt lat="43.668236" lon="12.4453063"><ele>347.5</ele><time>2026-03-22T12:13:21.973Z</time></trkpt><trkpt lat="43.66824" lon="12.4450902"><ele>347.25</ele><time>2026-03-22T12:13:22.972Z</time></trkpt><trkpt lat="43.668244" lon="12.444902"><ele>347.0</ele><time>2026-03-22T12:13:23.974Z</time></trkpt><trkpt lat="43.6682446" lon="12.444719"><ele>346.5</ele><time>2026-03-22T12:13:24.974Z</time></trkpt><trkpt lat="43.6682425" lon="12.4445486"><ele>346.0</ele><time>2026-03-22T12:13:25.973Z</time></trkpt><trkpt lat="43.6682437" lon="12.4443674"><ele>345.5</ele><time>2026-03-22T12:13:26.974Z</time></trkpt><trkpt lat="43.6682271" lon="12.4441801"><ele>345.0</ele><time>2026-03-22T12:13:27.973Z</time></trkpt><trkpt lat="43.668203" lon="12.4439968"><ele>345.0</ele><time>2026-03-22T12:13:28.974Z</time></trkpt><trkpt lat="43.6681739" lon="12.4438352"><ele>345.0</ele><time>2026-03-22T12:13:29.973Z</time></trkpt><trkpt lat="43.6681264" lon="12.4436884"><ele>345.0</ele><time>2026-03-22T12:13:30.973Z</time></trkpt><trkpt lat="43.6680739" lon="12.4435365"><ele>345.0</ele><time>2026-03-22T12:13:31.974Z</time></trkpt><trkpt lat="43.6679988" lon="12.4433744"><ele>344.1666666666667</ele><time>2026-03-22T12:13:32.974Z</time></trkpt><trkpt lat="43.6679548" lon="12.4432524"><ele>343.3333333333333</ele><time>2026-03-22T12:13:33.974Z</time></trkpt><trkpt lat="43.6679251" lon="12.4431318"><ele>342.5</ele><time>2026-03-22T12:13:34.974Z</time></trkpt><trkpt lat="43.6679217" lon="12.4430113"><ele>341.66666666666663</ele><time>2026-03-22T12:13:35.974Z</time></trkpt><trkpt lat="43.6679322" lon="12.4428896"><ele>340.8333333333333</ele><time>2026-03-22T12:13:36.974Z</time></trkpt><trkpt lat="43.667947" lon="12.4427772"><ele>340.0</ele><time>2026-03-22T12:13:37.974Z</time></trkpt><trkpt lat="43.6679565" lon="12.442649"><ele>339.8</ele><time>2026-03-22T12:13:38.974Z</time></trkpt><trkpt lat="43.6679658" lon="12.4425132"><ele>339.6</ele><time>2026-03-22T12:13:39.973Z</time></trkpt><trkpt lat="43.6679776" lon="12.4423724"><ele>339.4</ele><time>2026-03-22T12:13:40.973Z</time></trkpt><trkpt lat="43.6679912" lon="12.4421998"><ele>339.2</ele><time>2026-03-22T12:13:41.973Z</time></trkpt><trkpt lat="43.6679939" lon="12.4420363"><ele>339.0</ele><time>2026-03-22T12:13:42.974Z</time></trkpt><trkpt lat="43.6679851" lon="12.4418703"><ele>338.75</ele><time>2026-03-22T12:13:43.974Z</time></trkpt><trkpt lat="43.6679577" lon="12.4417012"><ele>338.5</ele><time>2026-03-22T12:13:44.973Z</time></trkpt><trkpt lat="43.6679163" lon="12.4415257"><ele>338.25</ele><time>2026-03-22T12:13:45.973Z</time></trkpt><trkpt lat="43.6678621" lon="12.4413496"><ele>338.0</ele><time>2026-03-22T12:13:46.973Z</time></trkpt><trkpt lat="43.6677893" lon="12.4411735"><ele>343.0</ele><time>2026-03-22T12:13:47.973Z</time></trkpt><trkpt lat="43.6677071" lon="12.4409922"><ele>348.0</ele><time>2026-03-22T12:13:48.974Z</time></trkpt><trkpt lat="43.6676205" lon="12.4408131"><ele>353.0</ele><time>2026-03-22T12:13:49.974Z</time></trkpt><trkpt lat="43.667526" lon="12.4406367"><ele>353.0</ele><time>2026-03-22T12:13:50.972Z</time></trkpt><trkpt lat="43.6674369" lon="12.4404713"><ele>353.0</ele><time>2026-03-22T12:13:51.973Z</time></trkpt><trkpt lat="43.6673497" lon="12.4403175"><ele>353.0</ele><time>2026-03-22T12:13:52.974Z</time></trkpt><trkpt lat="43.6672628" lon="12.44016"><ele>353.0</ele><time>2026-03-22T12:13:53.972Z</time></trkpt><trkpt lat="43.6671788" lon="12.439995"><ele>350.5</ele><time>2026-03-22T12:13:54.973Z</time></trkpt><trkpt lat="43.6671048" lon="12.4398195"><ele>348.0</ele><time>2026-03-22T12:13:55.974Z</time></trkpt><trkpt lat="43.6670508" lon="12.4396312"><ele>345.5</ele><time>2026-03-22T12:13:56.973Z</time></trkpt><trkpt lat="43.6670025" lon="12.4394379"><ele>343.0</ele><time>2026-03-22T12:13:57.974Z</time></trkpt><trkpt lat="43.6669548" lon="12.4392434"><ele>346.75</ele><time>2026-03-22T12:13:58.973Z</time></trkpt><trkpt lat="43.6669085" lon="12.4390483"><ele>350.5</ele><time>2026-03-22T12:13:59.972Z</time></trkpt><trkpt lat="43.6668637" lon="12.4388601"><ele>354.25</ele><time>2026-03-22T12:14:00.974Z</time></trkpt><trkpt lat="43.6668157" lon="12.4386845"><ele>358.0</ele><time>2026-03-22T12:14:01.974Z</time></trkpt><trkpt lat="43.6667659" lon="12.4385117"><ele>358.0</ele><time>2026-03-22T12:14:02.973Z</time></trkpt><trkpt lat="43.6667134" lon="12.4383387"><ele>358.0</ele><time>2026-03-22T12:14:03.974Z</time></trkpt><trkpt lat="43.6666626" lon="12.4381648"><ele>358.0</ele><time>2026-03-22T12:14:04.972Z</time></trkpt><trkpt lat="43.6666173" lon="12.4379788"><ele>358.0</ele><time>2026-03-22T12:14:05.972Z</time></trkpt><trkpt lat="43.6665897" lon="12.4377912"><ele>357.0</ele><time>2026-03-22T12:14:06.974Z</time></trkpt><trkpt lat="43.6665582" lon="12.4376231"><ele>356.0</ele><time>2026-03-22T12:14:07.973Z</time></trkpt><trkpt lat="43.6665343" lon="12.4374579"><ele>355.0</ele><time>2026-03-22T12:14:08.974Z</time></trkpt><trkpt lat="43.6664905" lon="12.4373204"><ele>354.0</ele><time>2026-03-22T12:14:09.972Z</time></trkpt><trkpt lat="43.6664228" lon="12.4371775"><ele>353.4</ele><time>2026-03-22T12:14:10.973Z</time></trkpt><trkpt lat="43.6663727" lon="12.4370305"><ele>352.79999999999995</ele><time>2026-03-22T12:14:11.974Z</time></trkpt><trkpt lat="43.6663267" lon="12.4369144"><ele>352.20000000000005</ele><time>2026-03-22T12:14:12.973Z</time></trkpt><trkpt lat="43.6662747" lon="12.4368036"><ele>351.6</ele><time>2026-03-22T12:14:13.973Z</time></trkpt><trkpt lat="43.6662032" lon="12.4367159"><ele>351.0</ele><time>2026-03-22T12:14:14.973Z</time></trkpt><trkpt lat="43.6661186" lon="12.436641"><ele>357.5</ele><time>2026-03-22T12:14:15.974Z</time></trkpt><trkpt lat="43.6660164" lon="12.4365794"><ele>364.0</ele><time>2026-03-22T12:14:16.973Z</time></trkpt><trkpt lat="43.665907" lon="12.4365133"><ele>370.5</ele><time>2026-03-22T12:14:17.973Z</time></trkpt><trkpt lat="43.6657954" lon="12.4364807"><ele>377.0</ele><time>2026-03-22T12:14:18.974Z</time></trkpt><trkpt lat="43.6656781" lon="12.4364764"><ele>377.0</ele><time>2026-03-22T12:14:19.973Z</time></trkpt><trkpt lat="43.6655832" lon="12.4364839"><ele>377.0</ele><time>2026-03-22T12:14:20.973Z</time></trkpt><trkpt lat="43.6654876" lon="12.4365219"><ele>377.0</ele><time>2026-03-22T12:14:21.973Z</time></trkpt><trkpt lat="43.6653859" lon="12.4366004"><ele>377.0</ele><time>2026-03-22T12:14:22.973Z</time></trkpt><trkpt lat="43.6652882" lon="12.4366967"><ele>377.0</ele><time>2026-03-22T12:14:23.974Z</time></trkpt><trkpt lat="43.6651914" lon="12.4367957"><ele>377.25</ele><time>2026-03-22T12:14:24.974Z</time></trkpt><trkpt lat="43.6650857" lon="12.4368894"><ele>377.5</ele><time>2026-03-22T12:14:25.974Z</time></trkpt><trkpt lat="43.664978" lon="12.436968"><ele>377.75</ele><time>2026-03-22T12:14:26.973Z</time></trkpt><trkpt lat="43.6648737" lon="12.4370339"><ele>378.0</ele><time>2026-03-22T12:14:27.972Z</time></trkpt><trkpt lat="43.6647718" lon="12.4370669"><ele>378.0</ele><time>2026-03-22T12:14:28.973Z</time></trkpt><trkpt lat="43.6646713" lon="12.4370697"><ele>378.0</ele><time>2026-03-22T12:14:29.974Z</time></trkpt><trkpt lat="43.6645624" lon="12.4370657"><ele>378.0</ele><time>2026-03-22T12:14:30.974Z</time></trkpt><trkpt lat="43.6644571" lon="12.4370861"><ele>378.0</ele><time>2026-03-22T12:14:31.974Z</time></trkpt><trkpt lat="43.6643511" lon="12.4371218"><ele>378.0</ele><time>2026-03-22T12:14:32.974Z</time></trkpt><trkpt lat="43.6642453" lon="12.4371689"><ele>381.75</ele><time>2026-03-22T12:14:33.973Z</time></trkpt><trkpt lat="43.6641401" lon="12.4372183"><ele>385.5</ele><time>2026-03-22T12:14:34.974Z</time></trkpt><trkpt lat="43.6640424" lon="12.4372632"><ele>389.25</ele><time>2026-03-22T12:14:35.973Z</time></trkpt><trkpt lat="43.6639305" lon="12.4372836"><ele>393.0</ele><time>2026-03-22T12:14:36.974Z</time></trkpt><trkpt lat="43.6638078" lon="12.4372813"><ele>393.0</ele><time>2026-03-22T12:14:37.974Z</time></trkpt><trkpt lat="43.6636825" lon="12.4372636"><ele>393.0</ele><time>2026-03-22T12:14:38.973Z</time></trkpt><trkpt lat="43.6635688" lon="12.4372445"><ele>393.0</ele><time>2026-03-22T12:14:39.974Z</time></trkpt><trkpt lat="43.6634585" lon="12.4372279"><ele>393.0</ele><time>2026-03-22T12:14:40.974Z</time></trkpt><trkpt lat="43.6633524" lon="12.4372181"><ele>391.6666666666667</ele><time>2026-03-22T12:14:41.974Z</time></trkpt><trkpt lat="43.6632546" lon="12.4372097"><ele>390.33333333333337</ele><time>2026-03-22T12:14:42.973Z</time></trkpt><trkpt lat="43.6631597" lon="12.4372018"><ele>389.0</ele><time>2026-03-22T12:14:43.972Z</time></trkpt><trkpt lat="43.6630687" lon="12.4371899"><ele>387.6666666666667</ele><time>2026-03-22T12:14:44.974Z</time></trkpt><trkpt lat="43.6629955" lon="12.4371632"><ele>386.33333333333337</ele><time>2026-03-22T12:14:45.973Z</time></trkpt><trkpt lat="43.6629344" lon="12.4371244"><ele>385.0</ele><time>2026-03-22T12:14:46.974Z</time></trkpt><trkpt lat="43.6628563" lon="12.4370286"><ele>385.0</ele><time>2026-03-22T12:14:48.972Z</time></trkpt><trkpt lat="43.6628434" lon="12.4368593"><ele>385.0</ele><time>2026-03-22T12:14:50.974Z</time></trkpt><trkpt lat="43.6628597" lon="12.4367498"><ele>385.0</ele><time>2026-03-22T12:14:51.974Z</time></trkpt><trkpt lat="43.6628811" lon="12.4366315"><ele>385.0</ele><time>2026-03-22T12:14:52.974Z</time></trkpt><trkpt lat="43.6629" lon="12.4365"><ele>385.0</ele><time>2026-03-22T12:14:53.974Z</time></trkpt><trkpt lat="43.6629183" lon="12.4363687"><ele>384.0</ele><time>2026-03-22T12:14:54.974Z</time></trkpt><trkpt lat="43.6629366" lon="12.4362297"><ele>383.0</ele><time>2026-03-22T12:14:55.974Z</time></trkpt><trkpt lat="43.662965" lon="12.4360872"><ele>382.0</ele><time>2026-03-22T12:14:56.973Z</time></trkpt><trkpt lat="43.6630028" lon="12.4359564"><ele>381.0</ele><time>2026-03-22T12:14:57.974Z</time></trkpt><trkpt lat="43.6630505" lon="12.4358257"><ele>380.0</ele><time>2026-03-22T12:14:58.972Z</time></trkpt><trkpt lat="43.6631193" lon="12.4357044"><ele>380.0</ele><time>2026-03-22T12:14:59.973Z</time></trkpt><trkpt lat="43.6632108" lon="12.4355987"><ele>380.0</ele><time>2026-03-22T12:15:00.974Z</time></trkpt><trkpt lat="43.6633225" lon="12.435514"><ele>380.0</ele><time>2026-03-22T12:15:01.973Z</time></trkpt><trkpt lat="43.6634463" lon="12.4354426"><ele>380.0</ele><time>2026-03-22T12:15:02.973Z</time></trkpt><trkpt lat="43.663565" lon="12.43538"><ele>377.75</ele><time>2026-03-22T12:15:03.974Z</time></trkpt><trkpt lat="43.6636804" lon="12.4353175"><ele>375.5</ele><time>2026-03-22T12:15:04.974Z</time></trkpt><trkpt lat="43.6637878" lon="12.4352472"><ele>373.25</ele><time>2026-03-22T12:15:05.974Z</time></trkpt><trkpt lat="43.6638848" lon="12.4351611"><ele>371.0</ele><time>2026-03-22T12:15:06.972Z</time></trkpt><trkpt lat="43.6639629" lon="12.4350498"><ele>371.0</ele><time>2026-03-22T12:15:07.973Z</time></trkpt><trkpt lat="43.6640218" lon="12.4349177"><ele>371.0</ele><time>2026-03-22T12:15:08.973Z</time></trkpt><trkpt lat="43.6640395" lon="12.4347679"><ele>371.0</ele><time>2026-03-22T12:15:09.974Z</time></trkpt><trkpt lat="43.6640358" lon="12.4345906"><ele>371.0</ele><time>2026-03-22T12:15:10.973Z</time></trkpt><trkpt lat="43.664011" lon="12.4343897"><ele>369.33333333333337</ele><time>2026-03-22T12:15:11.972Z</time></trkpt><trkpt lat="43.6639777" lon="12.4341744"><ele>367.6666666666667</ele><time>2026-03-22T12:15:12.974Z</time></trkpt><trkpt lat="43.6639469" lon="12.4339597"><ele>366.0</ele><time>2026-03-22T12:15:13.974Z</time></trkpt><trkpt lat="43.6639115" lon="12.4337558"><ele>365.25</ele><time>2026-03-22T12:15:14.973Z</time></trkpt><trkpt lat="43.6638684" lon="12.4335591"><ele>364.5</ele><time>2026-03-22T12:15:15.974Z</time></trkpt><trkpt lat="43.6638222" lon="12.4333783"><ele>363.75</ele><time>2026-03-22T12:15:16.974Z</time></trkpt><trkpt lat="43.6637714" lon="12.4332006"><ele>363.0</ele><time>2026-03-22T12:15:17.974Z</time></trkpt><trkpt lat="43.6637143" lon="12.4330217"><ele>363.5</ele><time>2026-03-22T12:15:18.974Z</time></trkpt><trkpt lat="43.6636489" lon="12.4328368"><ele>364.0</ele><time>2026-03-22T12:15:19.974Z</time></trkpt><trkpt lat="43.6635761" lon="12.4326531"><ele>364.5</ele><time>2026-03-22T12:15:20.974Z</time></trkpt><trkpt lat="43.6635018" lon="12.4324816"><ele>365.0</ele><time>2026-03-22T12:15:21.974Z</time></trkpt><trkpt lat="43.6634249" lon="12.4323219"><ele>365.0</ele><time>2026-03-22T12:15:22.974Z</time></trkpt><trkpt lat="43.6633537" lon="12.4321762"><ele>365.0</ele><time>2026-03-22T12:15:23.973Z</time></trkpt><trkpt lat="43.6632958" lon="12.4320228"><ele>365.0</ele><time>2026-03-22T12:15:24.973Z</time></trkpt><trkpt lat="43.6632621" lon="12.4318514"><ele>365.0</ele><time>2026-03-22T12:15:25.974Z</time></trkpt><trkpt lat="43.6632449" lon="12.4316639"><ele>362.75</ele><time>2026-03-22T12:15:26.973Z</time></trkpt><trkpt lat="43.6632324" lon="12.4314754"><ele>360.5</ele><time>2026-03-22T12:15:27.972Z</time></trkpt><trkpt lat="43.6632172" lon="12.4312991"><ele>358.25</ele><time>2026-03-22T12:15:28.973Z</time></trkpt><trkpt lat="43.6631849" lon="12.4311327"><ele>356.0</ele><time>2026-03-22T12:15:29.974Z</time></trkpt><trkpt lat="43.6631304" lon="12.4309797"><ele>355.0</ele><time>2026-03-22T12:15:30.972Z</time></trkpt><trkpt lat="43.6630543" lon="12.4308316"><ele>354.0</ele><time>2026-03-22T12:15:31.973Z</time></trkpt><trkpt lat="43.6629581" lon="12.4306884"><ele>353.0</ele><time>2026-03-22T12:15:32.974Z</time></trkpt><trkpt lat="43.6628513" lon="12.4305401"><ele>352.0</ele><time>2026-03-22T12:15:33.973Z</time></trkpt><trkpt lat="43.662749" lon="12.4303987"><ele>351.75</ele><time>2026-03-22T12:15:34.973Z</time></trkpt><trkpt lat="43.6626561" lon="12.4302673"><ele>351.5</ele><time>2026-03-22T12:15:35.974Z</time></trkpt><trkpt lat="43.6625723" lon="12.4301339"><ele>351.25</ele><time>2026-03-22T12:15:36.974Z</time></trkpt><trkpt lat="43.6625092" lon="12.4299925"><ele>351.0</ele><time>2026-03-22T12:15:37.974Z</time></trkpt><trkpt lat="43.6624651" lon="12.4298444"><ele>351.0</ele><time>2026-03-22T12:15:38.973Z</time></trkpt><trkpt lat="43.6624452" lon="12.4296829"><ele>351.0</ele><time>2026-03-22T12:15:39.974Z</time></trkpt><trkpt lat="43.6624542" lon="12.4295217"><ele>351.0</ele><time>2026-03-22T12:15:40.974Z</time></trkpt><trkpt lat="43.6624935" lon="12.4293545"><ele>351.0</ele><time>2026-03-22T12:15:41.974Z</time></trkpt><trkpt lat="43.6625652" lon="12.4292034"><ele>349.75</ele><time>2026-03-22T12:15:42.973Z</time></trkpt><trkpt lat="43.6626564" lon="12.4290686"><ele>348.5</ele><time>2026-03-22T12:15:43.974Z</time></trkpt><trkpt lat="43.6627518" lon="12.4289533"><ele>347.25</ele><time>2026-03-22T12:15:44.973Z</time></trkpt><trkpt lat="43.6628562" lon="12.4288774"><ele>346.0</ele><time>2026-03-22T12:15:45.974Z</time></trkpt><trkpt lat="43.6629811" lon="12.4288399"><ele>345.75</ele><time>2026-03-22T12:15:46.973Z</time></trkpt><trkpt lat="43.6631152" lon="12.4288438"><ele>345.5</ele><time>2026-03-22T12:15:47.974Z</time></trkpt><trkpt lat="43.6632461" lon="12.4288576"><ele>345.25</ele><time>2026-03-22T12:15:48.973Z</time></trkpt><trkpt lat="43.6633639" lon="12.42887"><ele>345.0</ele><time>2026-03-22T12:15:49.974Z</time></trkpt><trkpt lat="43.6634755" lon="12.4288735"><ele>345.0</ele><time>2026-03-22T12:15:50.973Z</time></trkpt><trkpt lat="43.6635757" lon="12.4288538"><ele>345.0</ele><time>2026-03-22T12:15:51.973Z</time></trkpt><trkpt lat="43.6636587" lon="12.4287958"><ele>345.0</ele><time>2026-03-22T12:15:52.974Z</time></trkpt><trkpt lat="43.6637232" lon="12.4287021"><ele>345.0</ele><time>2026-03-22T12:15:53.974Z</time></trkpt><trkpt lat="43.6637658" lon="12.4285718"><ele>345.0</ele><time>2026-03-22T12:15:54.974Z</time></trkpt><trkpt lat="43.6637879" lon="12.4284105"><ele>344.75</ele><time>2026-03-22T12:15:55.974Z</time></trkpt><trkpt lat="43.6637979" lon="12.4282284"><ele>344.5</ele><time>2026-03-22T12:15:56.973Z</time></trkpt><trkpt lat="43.6638045" lon="12.4280326"><ele>344.25</ele><time>2026-03-22T12:15:57.973Z</time></trkpt><trkpt lat="43.6638061" lon="12.4278251"><ele>344.0</ele><time>2026-03-22T12:15:58.974Z</time></trkpt><trkpt lat="43.6638099" lon="12.427608"><ele>343.6666666666667</ele><time>2026-03-22T12:15:59.973Z</time></trkpt><trkpt lat="43.6638064" lon="12.4273946"><ele>343.3333333333333</ele><time>2026-03-22T12:16:00.973Z</time></trkpt><trkpt lat="43.6637948" lon="12.4271889"><ele>343.0</ele><time>2026-03-22T12:16:01.974Z</time></trkpt><trkpt lat="43.6637751" lon="12.4269885"><ele>343.0</ele><time>2026-03-22T12:16:02.973Z</time></trkpt><trkpt lat="43.6637434" lon="12.4267871"><ele>343.0</ele><time>2026-03-22T12:16:03.973Z</time></trkpt><trkpt lat="43.6636988" lon="12.4265864"><ele>343.0</ele><time>2026-03-22T12:16:04.974Z</time></trkpt><trkpt lat="43.6636513" lon="12.4263996"><ele>343.0</ele><time>2026-03-22T12:16:05.974Z</time></trkpt><trkpt lat="43.6636103" lon="12.4262226"><ele>345.0</ele><time>2026-03-22T12:16:06.974Z</time></trkpt><trkpt lat="43.6635759" lon="12.4260497"><ele>347.0</ele><time>2026-03-22T12:16:07.974Z</time></trkpt><trkpt lat="43.6635473" lon="12.4258746"><ele>349.0</ele><time>2026-03-22T12:16:08.974Z</time></trkpt><trkpt lat="43.66353" lon="12.4256975"><ele>351.0</ele><time>2026-03-22T12:16:09.974Z</time></trkpt><trkpt lat="43.6635192" lon="12.4255208"><ele>351.0</ele><time>2026-03-22T12:16:10.972Z</time></trkpt><trkpt lat="43.6635056" lon="12.425353"><ele>351.0</ele><time>2026-03-22T12:16:11.974Z</time></trkpt><trkpt lat="43.6634927" lon="12.425196"><ele>351.0</ele><time>2026-03-22T12:16:12.974Z</time></trkpt><trkpt lat="43.6634837" lon="12.4250468"><ele>351.0</ele><time>2026-03-22T12:16:13.973Z</time></trkpt><trkpt lat="43.6634715" lon="12.4249081"><ele>351.0</ele><time>2026-03-22T12:16:14.974Z</time></trkpt><trkpt lat="43.66346" lon="12.4247634"><ele>350.8</ele><time>2026-03-22T12:16:15.973Z</time></trkpt><trkpt lat="43.6634488" lon="12.4246156"><ele>350.6</ele><time>2026-03-22T12:16:16.973Z</time></trkpt><trkpt lat="43.6634372" lon="12.4244653"><ele>350.4</ele><time>2026-03-22T12:16:17.974Z</time></trkpt><trkpt lat="43.6634279" lon="12.4243154"><ele>350.2</ele><time>2026-03-22T12:16:18.974Z</time></trkpt><trkpt lat="43.6634167" lon="12.4241646"><ele>350.0</ele><time>2026-03-22T12:16:19.974Z</time></trkpt><trkpt lat="43.6634061" lon="12.4240145"><ele>350.0</ele><time>2026-03-22T12:16:20.973Z</time></trkpt><trkpt lat="43.6633984" lon="12.4238648"><ele>350.0</ele><time>2026-03-22T12:16:21.974Z</time></trkpt><trkpt lat="43.6633911" lon="12.4237204"><ele>350.0</ele><time>2026-03-22T12:16:22.974Z</time></trkpt><trkpt lat="43.6633816" lon="12.4235714"><ele>350.0</ele><time>2026-03-22T12:16:23.973Z</time></trkpt><trkpt lat="43.6633707" lon="12.4234177"><ele>350.0</ele><time>2026-03-22T12:16:24.974Z</time></trkpt><trkpt lat="43.663358" lon="12.4232591"><ele>350.0</ele><time>2026-03-22T12:16:25.973Z</time></trkpt><trkpt lat="43.6633458" lon="12.4230961"><ele>350.0</ele><time>2026-03-22T12:16:26.974Z</time></trkpt><trkpt lat="43.6633386" lon="12.4229369"><ele>350.0</ele><time>2026-03-22T12:16:27.974Z</time></trkpt><trkpt lat="43.6633328" lon="12.422788"><ele>350.0</ele><time>2026-03-22T12:16:28.974Z</time></trkpt><trkpt lat="43.6633234" lon="12.4226371"><ele>350.0</ele><time>2026-03-22T12:16:29.973Z</time></trkpt><trkpt lat="43.6633179" lon="12.4224944"><ele>350.0</ele><time>2026-03-22T12:16:30.974Z</time></trkpt><trkpt lat="43.6633073" lon="12.4223483"><ele>350.0</ele><time>2026-03-22T12:16:31.973Z</time></trkpt><trkpt lat="43.6632976" lon="12.4221989"><ele>350.0</ele><time>2026-03-22T12:16:32.974Z</time></trkpt><trkpt lat="43.6632879" lon="12.4220493"><ele>350.0</ele><time>2026-03-22T12:16:33.974Z</time></trkpt><trkpt lat="43.6632749" lon="12.4218958"><ele>350.25</ele><time>2026-03-22T12:16:34.973Z</time></trkpt><trkpt lat="43.6632656" lon="12.4217407"><ele>350.5</ele><time>2026-03-22T12:16:35.973Z</time></trkpt><trkpt lat="43.6632558" lon="12.4215789"><ele>350.75</ele><time>2026-03-22T12:16:36.973Z</time></trkpt><trkpt lat="43.6632481" lon="12.4214165"><ele>351.0</ele><time>2026-03-22T12:16:37.974Z</time></trkpt><trkpt lat="43.6632369" lon="12.4212652"><ele>351.0</ele><time>2026-03-22T12:16:38.973Z</time></trkpt><trkpt lat="43.6632238" lon="12.4211152"><ele>351.0</ele><time>2026-03-22T12:16:39.974Z</time></trkpt><trkpt lat="43.6632148" lon="12.4209647"><ele>351.0</ele><time>2026-03-22T12:16:40.974Z</time></trkpt><trkpt lat="43.6632066" lon="12.4208125"><ele>351.0</ele><time>2026-03-22T12:16:41.973Z</time></trkpt><trkpt lat="43.663199" lon="12.4206633"><ele>351.0</ele><time>2026-03-22T12:16:42.974Z</time></trkpt><trkpt lat="43.6631893" lon="12.4205146"><ele>351.4</ele><time>2026-03-22T12:16:43.972Z</time></trkpt><trkpt lat="43.6631801" lon="12.4203728"><ele>351.8</ele><time>2026-03-22T12:16:44.974Z</time></trkpt><trkpt lat="43.6631709" lon="12.4202303"><ele>352.2</ele><time>2026-03-22T12:16:45.973Z</time></trkpt><trkpt lat="43.6631604" lon="12.4200874"><ele>352.59999999999997</ele><time>2026-03-22T12:16:46.974Z</time></trkpt><trkpt lat="43.6631516" lon="12.4199415"><ele>353.0</ele><time>2026-03-22T12:16:47.973Z</time></trkpt><trkpt lat="43.6631399" lon="12.4197953"><ele>353.59999999999997</ele><time>2026-03-22T12:16:48.974Z</time></trkpt><trkpt lat="43.6631298" lon="12.4196458"><ele>354.2</ele><time>2026-03-22T12:16:49.973Z</time></trkpt><trkpt lat="43.6631193" lon="12.419498"><ele>354.8</ele><time>2026-03-22T12:16:50.973Z</time></trkpt><trkpt lat="43.6631109" lon="12.4193528"><ele>355.4</ele><time>2026-03-22T12:16:51.973Z</time></trkpt><trkpt lat="43.6631039" lon="12.4192155"><ele>356.0</ele><time>2026-03-22T12:16:52.973Z</time></trkpt><trkpt lat="43.6630953" lon="12.419084"><ele>356.0</ele><time>2026-03-22T12:16:53.973Z</time></trkpt><trkpt lat="43.6630853" lon="12.418957"><ele>356.0</ele><time>2026-03-22T12:16:54.974Z</time></trkpt><trkpt lat="43.6630768" lon="12.4188301"><ele>356.0</ele><time>2026-03-22T12:16:55.974Z</time></trkpt><trkpt lat="43.6630708" lon="12.4186934"><ele>356.0</ele><time>2026-03-22T12:16:56.974Z</time></trkpt><trkpt lat="43.6630648" lon="12.4185489"><ele>356.0</ele><time>2026-03-22T12:16:57.974Z</time></trkpt><trkpt lat="43.6630557" lon="12.4183984"><ele>356.0</ele><time>2026-03-22T12:16:58.973Z</time></trkpt><trkpt lat="43.6630422" lon="12.4182423"><ele>356.0</ele><time>2026-03-22T12:16:59.973Z</time></trkpt><trkpt lat="43.6630311" lon="12.4180842"><ele>356.0</ele><time>2026-03-22T12:17:00.974Z</time></trkpt><trkpt lat="43.6630192" lon="12.4179202"><ele>356.0</ele><time>2026-03-22T12:17:01.974Z</time></trkpt><trkpt lat="43.6630112" lon="12.4177524"><ele>356.20000000000005</ele><time>2026-03-22T12:17:02.972Z</time></trkpt><trkpt lat="43.6630047" lon="12.4175914"><ele>356.40000000000003</ele><time>2026-03-22T12:17:03.973Z</time></trkpt><trkpt lat="43.6629972" lon="12.4174355"><ele>356.6</ele><time>2026-03-22T12:17:04.973Z</time></trkpt><trkpt lat="43.6629855" lon="12.417288"><ele>356.8</ele><time>2026-03-22T12:17:05.973Z</time></trkpt><trkpt lat="43.6629742" lon="12.41714"><ele>357.0</ele><time>2026-03-22T12:17:06.974Z</time></trkpt><trkpt lat="43.6629644" lon="12.4169869"><ele>357.0</ele><time>2026-03-22T12:17:07.973Z</time></trkpt><trkpt lat="43.6629612" lon="12.4168259"><ele>357.0</ele><time>2026-03-22T12:17:08.972Z</time></trkpt><trkpt lat="43.662951" lon="12.416666"><ele>357.0</ele><time>2026-03-22T12:17:09.974Z</time></trkpt><trkpt lat="43.6629401" lon="12.4165123"><ele>357.0</ele><time>2026-03-22T12:17:10.974Z</time></trkpt><trkpt lat="43.6629294" lon="12.4163641"><ele>356.8</ele><time>2026-03-22T12:17:11.973Z</time></trkpt><trkpt lat="43.6629179" lon="12.4162082"><ele>356.6</ele><time>2026-03-22T12:17:12.974Z</time></trkpt><trkpt lat="43.6629087" lon="12.4160554"><ele>356.40000000000003</ele><time>2026-03-22T12:17:13.973Z</time></trkpt><trkpt lat="43.6628997" lon="12.4159003"><ele>356.20000000000005</ele><time>2026-03-22T12:17:14.974Z</time></trkpt><trkpt lat="43.6628908" lon="12.415746"><ele>356.0</ele><time>2026-03-22T12:17:15.972Z</time></trkpt><trkpt lat="43.6628807" lon="12.4155896"><ele>355.6</ele><time>2026-03-22T12:17:16.974Z</time></trkpt><trkpt lat="43.6628726" lon="12.4154348"><ele>355.20000000000005</ele><time>2026-03-22T12:17:17.972Z</time></trkpt><trkpt lat="43.6628634" lon="12.4152797"><ele>354.79999999999995</ele><time>2026-03-22T12:17:18.974Z</time></trkpt><trkpt lat="43.6628527" lon="12.4151285"><ele>354.4</ele><time>2026-03-22T12:17:19.973Z</time></trkpt><trkpt lat="43.6628395" lon="12.4149782"><ele>354.0</ele><time>2026-03-22T12:17:20.974Z</time></trkpt><trkpt lat="43.6628291" lon="12.4148218"><ele>354.0</ele><time>2026-03-22T12:17:21.973Z</time></trkpt><trkpt lat="43.6628193" lon="12.414674"><ele>354.0</ele><time>2026-03-22T12:17:22.973Z</time></trkpt><trkpt lat="43.6628091" lon="12.4145403"><ele>354.0</ele><time>2026-03-22T12:17:23.973Z</time></trkpt><trkpt lat="43.6627959" lon="12.4144081"><ele>354.0</ele><time>2026-03-22T12:17:24.973Z</time></trkpt><trkpt lat="43.6627827" lon="12.4142709"><ele>354.0</ele><time>2026-03-22T12:17:25.973Z</time></trkpt><trkpt lat="43.6627758" lon="12.4141372"><ele>354.6</ele><time>2026-03-22T12:17:26.973Z</time></trkpt><trkpt lat="43.662766" lon="12.4140145"><ele>355.2</ele><time>2026-03-22T12:17:27.974Z</time></trkpt><trkpt lat="43.662742" lon="12.4138951"><ele>355.8</ele><time>2026-03-22T12:17:28.973Z</time></trkpt><trkpt lat="43.6627032" lon="12.4137834"><ele>356.40000000000003</ele><time>2026-03-22T12:17:29.973Z</time></trkpt><trkpt lat="43.6626448" lon="12.4136801"><ele>357.0</ele><time>2026-03-22T12:17:30.973Z</time></trkpt><trkpt lat="43.6625681" lon="12.4135942"><ele>357.25</ele><time>2026-03-22T12:17:31.974Z</time></trkpt><trkpt lat="43.6624751" lon="12.4135247"><ele>357.5</ele><time>2026-03-22T12:17:32.972Z</time></trkpt><trkpt lat="43.6623736" lon="12.4134621"><ele>357.75</ele><time>2026-03-22T12:17:33.973Z</time></trkpt><trkpt lat="43.6622621" lon="12.4134104"><ele>358.0</ele><time>2026-03-22T12:17:34.973Z</time></trkpt><trkpt lat="43.6621466" lon="12.413359"><ele>358.0</ele><time>2026-03-22T12:17:35.973Z</time></trkpt><trkpt lat="43.6620305" lon="12.413307"><ele>358.0</ele><time>2026-03-22T12:17:36.974Z</time></trkpt><trkpt lat="43.661922" lon="12.4132599"><ele>358.0</ele><time>2026-03-22T12:17:37.973Z</time></trkpt><trkpt lat="43.6618211" lon="12.4132138"><ele>358.0</ele><time>2026-03-22T12:17:38.974Z</time></trkpt><trkpt lat="43.6617211" lon="12.4131691"><ele>358.0</ele><time>2026-03-22T12:17:39.972Z</time></trkpt><trkpt lat="43.6616193" lon="12.4131247"><ele>358.4</ele><time>2026-03-22T12:17:40.974Z</time></trkpt><trkpt lat="43.6615158" lon="12.4130755"><ele>358.79999999999995</ele><time>2026-03-22T12:17:41.974Z</time></trkpt><trkpt lat="43.661408" lon="12.4130318"><ele>359.2</ele><time>2026-03-22T12:17:42.973Z</time></trkpt><trkpt lat="43.6613001" lon="12.4129821"><ele>359.6</ele><time>2026-03-22T12:17:43.973Z</time></trkpt><trkpt lat="43.6611949" lon="12.4129357"><ele>360.0</ele><time>2026-03-22T12:17:44.974Z</time></trkpt><trkpt lat="43.6610966" lon="12.4128935"><ele>360.5</ele><time>2026-03-22T12:17:45.974Z</time></trkpt><trkpt lat="43.6610016" lon="12.412851"><ele>361.0</ele><time>2026-03-22T12:17:46.974Z</time></trkpt><trkpt lat="43.6609143" lon="12.4128127"><ele>361.5</ele><time>2026-03-22T12:17:47.974Z</time></trkpt><trkpt lat="43.6608363" lon="12.4127692"><ele>362.0</ele><time>2026-03-22T12:17:48.973Z</time></trkpt><trkpt lat="43.660777" lon="12.4127166"><ele>362.5</ele><time>2026-03-22T12:17:49.973Z</time></trkpt><trkpt lat="43.6607345" lon="12.4126386"><ele>363.0</ele><time>2026-03-22T12:17:50.973Z</time></trkpt><trkpt lat="43.6607091" lon="12.4125392"><ele>363.0</ele><time>2026-03-22T12:17:51.973Z</time></trkpt><trkpt lat="43.6607141" lon="12.4124211"><ele>363.0</ele><time>2026-03-22T12:17:52.973Z</time></trkpt><trkpt lat="43.6607467" lon="12.4122899"><ele>363.0</ele><time>2026-03-22T12:17:53.973Z</time></trkpt><trkpt lat="43.6607969" lon="12.4121485"><ele>363.0</ele><time>2026-03-22T12:17:54.973Z</time></trkpt><trkpt lat="43.6608521" lon="12.4120009"><ele>363.0</ele><time>2026-03-22T12:17:55.974Z</time></trkpt><trkpt lat="43.6609086" lon="12.4118566"><ele>363.0</ele><time>2026-03-22T12:17:56.973Z</time></trkpt><trkpt lat="43.6609646" lon="12.4117138"><ele>363.0</ele><time>2026-03-22T12:17:57.972Z</time></trkpt><trkpt lat="43.6610248" lon="12.4115727"><ele>363.0</ele><time>2026-03-22T12:17:58.974Z</time></trkpt><trkpt lat="43.6610785" lon="12.4114405"><ele>363.0</ele><time>2026-03-22T12:17:59.973Z</time></trkpt><trkpt lat="43.661126" lon="12.4113129"><ele>363.0</ele><time>2026-03-22T12:18:00.974Z</time></trkpt><trkpt lat="43.6611741" lon="12.4111911"><ele>363.0</ele><time>2026-03-22T12:18:01.973Z</time></trkpt><trkpt lat="43.6612257" lon="12.4110577"><ele>363.0</ele><time>2026-03-22T12:18:02.973Z</time></trkpt><trkpt lat="43.6612826" lon="12.410923"><ele>363.0</ele><time>2026-03-22T12:18:03.974Z</time></trkpt><trkpt lat="43.6613411" lon="12.4107798"><ele>363.0</ele><time>2026-03-22T12:18:04.974Z</time></trkpt><trkpt lat="43.6613986" lon="12.4106416"><ele>363.0</ele><time>2026-03-22T12:18:05.973Z</time></trkpt><trkpt lat="43.6614523" lon="12.4105028"><ele>363.0</ele><time>2026-03-22T12:18:06.974Z</time></trkpt><trkpt lat="43.6615051" lon="12.4103669"><ele>363.0</ele><time>2026-03-22T12:18:07.973Z</time></trkpt><trkpt lat="43.6615583" lon="12.410243"><ele>363.0</ele><time>2026-03-22T12:18:08.972Z</time></trkpt><trkpt lat="43.6616071" lon="12.4101348"><ele>363.0</ele><time>2026-03-22T12:18:09.974Z</time></trkpt><trkpt lat="43.6616529" lon="12.4100359"><ele>363.0</ele><time>2026-03-22T12:18:10.974Z</time></trkpt><trkpt lat="43.6617049" lon="12.4099638"><ele>363.0</ele><time>2026-03-22T12:18:11.973Z</time></trkpt><trkpt lat="43.6617718" lon="12.4099132"><ele>363.0</ele><time>2026-03-22T12:18:12.973Z</time></trkpt><trkpt lat="43.6618309" lon="12.4098562"><ele>363.0</ele><time>2026-03-22T12:18:13.974Z</time></trkpt><trkpt lat="43.6618754" lon="12.4097832"><ele>363.0</ele><time>2026-03-22T12:18:14.974Z</time></trkpt><trkpt lat="43.6618984" lon="12.4096862"><ele>363.0</ele><time>2026-03-22T12:18:15.972Z</time></trkpt><trkpt lat="43.6619116" lon="12.4095544"><ele>363.0</ele><time>2026-03-22T12:18:16.973Z</time></trkpt><trkpt lat="43.6619452" lon="12.4094043"><ele>363.0</ele><time>2026-03-22T12:18:17.974Z</time></trkpt><trkpt lat="43.6619952" lon="12.4092475"><ele>363.0</ele><time>2026-03-22T12:18:18.974Z</time></trkpt><trkpt lat="43.6620432" lon="12.4091105"><ele>363.0</ele><time>2026-03-22T12:18:19.974Z</time></trkpt><trkpt lat="43.6620885" lon="12.4089744"><ele>363.0</ele><time>2026-03-22T12:18:20.973Z</time></trkpt><trkpt lat="43.6621348" lon="12.4088261"><ele>363.0</ele><time>2026-03-22T12:18:21.974Z</time></trkpt><trkpt lat="43.662175" lon="12.4086727"><ele>363.0</ele><time>2026-03-22T12:18:22.973Z</time></trkpt><trkpt lat="43.6622084" lon="12.4085191"><ele>363.0</ele><time>2026-03-22T12:18:23.973Z</time></trkpt><trkpt lat="43.6622333" lon="12.4083736"><ele>363.0</ele><time>2026-03-22T12:18:24.974Z</time></trkpt><trkpt lat="43.6622554" lon="12.4082285"><ele>363.0</ele><time>2026-03-22T12:18:25.974Z</time></trkpt><trkpt lat="43.6622756" lon="12.4080818"><ele>363.0</ele><time>2026-03-22T12:18:26.974Z</time></trkpt><trkpt lat="43.6622967" lon="12.4079465"><ele>363.0</ele><time>2026-03-22T12:18:27.972Z</time></trkpt><trkpt lat="43.6623218" lon="12.4078184"><ele>363.0</ele><time>2026-03-22T12:18:28.974Z</time></trkpt><trkpt lat="43.6623553" lon="12.4076897"><ele>363.0</ele><time>2026-03-22T12:18:29.973Z</time></trkpt><trkpt lat="43.662399" lon="12.4075622"><ele>363.0</ele><time>2026-03-22T12:18:30.972Z</time></trkpt><trkpt lat="43.6624628" lon="12.4074496"><ele>363.0</ele><time>2026-03-22T12:18:31.973Z</time></trkpt><trkpt lat="43.6625456" lon="12.4073592"><ele>363.0</ele><time>2026-03-22T12:18:32.974Z</time></trkpt><trkpt lat="43.6626424" lon="12.4072916"><ele>363.0</ele><time>2026-03-22T12:18:33.974Z</time></trkpt><trkpt lat="43.6627494" lon="12.4072299"><ele>363.25</ele><time>2026-03-22T12:18:34.973Z</time></trkpt><trkpt lat="43.662861" lon="12.4071672"><ele>363.5</ele><time>2026-03-22T12:18:35.974Z</time></trkpt><trkpt lat="43.6629729" lon="12.4071067"><ele>363.75</ele><time>2026-03-22T12:18:36.974Z</time></trkpt><trkpt lat="43.6630752" lon="12.40705"><ele>364.0</ele><time>2026-03-22T12:18:37.973Z</time></trkpt><trkpt lat="43.6631719" lon="12.4069978"><ele>364.0</ele><time>2026-03-22T12:18:38.973Z</time></trkpt><trkpt lat="43.6632612" lon="12.4069454"><ele>364.0</ele><time>2026-03-22T12:18:39.973Z</time></trkpt><trkpt lat="43.6633454" lon="12.406897"><ele>364.0</ele><time>2026-03-22T12:18:40.972Z</time></trkpt><trkpt lat="43.6634238" lon="12.4068593"><ele>364.0</ele><time>2026-03-22T12:18:41.974Z</time></trkpt><trkpt lat="43.6634995" lon="12.4068311"><ele>364.0</ele><time>2026-03-22T12:18:42.974Z</time></trkpt><trkpt lat="43.6635686" lon="12.4068098"><ele>364.0</ele><time>2026-03-22T12:18:43.974Z</time></trkpt><trkpt lat="43.6636303" lon="12.4067809"><ele>364.0</ele><time>2026-03-22T12:18:44.974Z</time></trkpt><trkpt lat="43.6636749" lon="12.4066667"><ele>364.0</ele><time>2026-03-22T12:18:46.974Z</time></trkpt><trkpt lat="43.6635954" lon="12.4065379"><ele>364.0</ele><time>2026-03-22T12:18:48.973Z</time></trkpt><trkpt lat="43.6635222" lon="12.4064525"><ele>364.0</ele><time>2026-03-22T12:18:49.974Z</time></trkpt><trkpt lat="43.6634465" lon="12.4063321"><ele>364.0</ele><time>2026-03-22T12:18:50.974Z</time></trkpt><trkpt lat="43.6633829" lon="12.4062213"><ele>364.2</ele><time>2026-03-22T12:18:51.974Z</time></trkpt><trkpt lat="43.663332" lon="12.4061173"><ele>364.4</ele><time>2026-03-22T12:18:52.972Z</time></trkpt><trkpt lat="43.6632859" lon="12.4060131"><ele>364.6</ele><time>2026-03-22T12:18:53.974Z</time></trkpt><trkpt lat="43.6632393" lon="12.4059009"><ele>364.8</ele><time>2026-03-22T12:18:54.974Z</time></trkpt><trkpt lat="43.6631939" lon="12.4057891"><ele>365.0</ele><time>2026-03-22T12:18:55.973Z</time></trkpt><trkpt lat="43.6631498" lon="12.4056762"><ele>365.0</ele><time>2026-03-22T12:18:56.973Z</time></trkpt><trkpt lat="43.6631083" lon="12.4055634"><ele>365.0</ele><time>2026-03-22T12:18:57.973Z</time></trkpt><trkpt lat="43.6630782" lon="12.405458"><ele>365.0</ele><time>2026-03-22T12:18:58.974Z</time></trkpt><trkpt lat="43.6630644" lon="12.4053521"><ele>365.0</ele><time>2026-03-22T12:18:59.974Z</time></trkpt><trkpt lat="43.6630649" lon="12.4052503"><ele>365.0</ele><time>2026-03-22T12:19:00.973Z</time></trkpt><trkpt lat="43.6630709" lon="12.4051487"><ele>365.0</ele><time>2026-03-22T12:19:01.973Z</time></trkpt><trkpt lat="43.6630775" lon="12.4050395"><ele>364.83333333333337</ele><time>2026-03-22T12:19:02.973Z</time></trkpt><trkpt lat="43.6630822" lon="12.4049286"><ele>364.6666666666667</ele><time>2026-03-22T12:19:03.974Z</time></trkpt><trkpt lat="43.6630825" lon="12.4048191"><ele>364.5</ele><time>2026-03-22T12:19:04.974Z</time></trkpt><trkpt lat="43.6630867" lon="12.404703"><ele>364.3333333333333</ele><time>2026-03-22T12:19:05.973Z</time></trkpt><trkpt lat="43.6630965" lon="12.4045916"><ele>364.16666666666663</ele><time>2026-03-22T12:19:06.974Z</time></trkpt><trkpt lat="43.6631108" lon="12.40448"><ele>364.0</ele><time>2026-03-22T12:19:07.973Z</time></trkpt><trkpt lat="43.6631266" lon="12.4043697"><ele>364.0</ele><time>2026-03-22T12:19:08.974Z</time></trkpt><trkpt lat="43.6631446" lon="12.4042496"><ele>364.0</ele><time>2026-03-22T12:19:09.974Z</time></trkpt><trkpt lat="43.6631628" lon="12.404128"><ele>364.0</ele><time>2026-03-22T12:19:10.973Z</time></trkpt><trkpt lat="43.6631822" lon="12.4040003"><ele>364.0</ele><time>2026-03-22T12:19:11.974Z</time></trkpt><trkpt lat="43.6632003" lon="12.4038677"><ele>364.0</ele><time>2026-03-22T12:19:12.972Z</time></trkpt><trkpt lat="43.6632171" lon="12.4037297"><ele>364.2</ele><time>2026-03-22T12:19:13.974Z</time></trkpt><trkpt lat="43.6632294" lon="12.4035963"><ele>364.4</ele><time>2026-03-22T12:19:14.974Z</time></trkpt><trkpt lat="43.6632376" lon="12.4034645"><ele>364.6</ele><time>2026-03-22T12:19:15.974Z</time></trkpt><trkpt lat="43.6632418" lon="12.4033286"><ele>364.8</ele><time>2026-03-22T12:19:16.974Z</time></trkpt><trkpt lat="43.663243" lon="12.4031897"><ele>365.0</ele><time>2026-03-22T12:19:17.973Z</time></trkpt><trkpt lat="43.6632426" lon="12.4030503"><ele>364.8</ele><time>2026-03-22T12:19:18.973Z</time></trkpt><trkpt lat="43.6632422" lon="12.4029144"><ele>364.6</ele><time>2026-03-22T12:19:19.974Z</time></trkpt><trkpt lat="43.6632406" lon="12.4027778"><ele>364.4</ele><time>2026-03-22T12:19:20.974Z</time></trkpt><trkpt lat="43.6632358" lon="12.4026386"><ele>364.2</ele><time>2026-03-22T12:19:21.974Z</time></trkpt><trkpt lat="43.6632244" lon="12.4024941"><ele>364.0</ele><time>2026-03-22T12:19:22.972Z</time></trkpt><trkpt lat="43.6632062" lon="12.4023471"><ele>364.0</ele><time>2026-03-22T12:19:23.973Z</time></trkpt><trkpt lat="43.6631841" lon="12.4021972"><ele>364.0</ele><time>2026-03-22T12:19:24.974Z</time></trkpt><trkpt lat="43.6631674" lon="12.4020471"><ele>364.0</ele><time>2026-03-22T12:19:25.973Z</time></trkpt><trkpt lat="43.6631416" lon="12.4019025"><ele>364.0</ele><time>2026-03-22T12:19:26.974Z</time></trkpt><trkpt lat="43.6631183" lon="12.4017575"><ele>364.0</ele><time>2026-03-22T12:19:27.973Z</time></trkpt><trkpt lat="43.6630952" lon="12.4016119"><ele>364.0</ele><time>2026-03-22T12:19:28.973Z</time></trkpt><trkpt lat="43.66307" lon="12.4014651"><ele>364.0</ele><time>2026-03-22T12:19:29.974Z</time></trkpt><trkpt lat="43.6630443" lon="12.4013157"><ele>364.0</ele><time>2026-03-22T12:19:30.974Z</time></trkpt><trkpt lat="43.6630181" lon="12.4011655"><ele>364.0</ele><time>2026-03-22T12:19:31.974Z</time></trkpt><trkpt lat="43.6629921" lon="12.4010143"><ele>364.0</ele><time>2026-03-22T12:19:32.974Z</time></trkpt><trkpt lat="43.662964" lon="12.40086"><ele>364.0</ele><time>2026-03-22T12:19:33.973Z</time></trkpt><trkpt lat="43.6629374" lon="12.4007043"><ele>364.0</ele><time>2026-03-22T12:19:34.974Z</time></trkpt><trkpt lat="43.6629137" lon="12.4005614"><ele>364.0</ele><time>2026-03-22T12:19:35.974Z</time></trkpt><trkpt lat="43.6628954" lon="12.4004285"><ele>364.0</ele><time>2026-03-22T12:19:36.974Z</time></trkpt><trkpt lat="43.662878" lon="12.400306"><ele>364.0</ele><time>2026-03-22T12:19:37.973Z</time></trkpt><trkpt lat="43.6628641" lon="12.4002008"><ele>364.16666666666663</ele><time>2026-03-22T12:19:38.974Z</time></trkpt><trkpt lat="43.6628478" lon="12.4001012"><ele>364.3333333333333</ele><time>2026-03-22T12:19:39.973Z</time></trkpt><trkpt lat="43.6628402" lon="12.4000141"><ele>364.5</ele><time>2026-03-22T12:19:40.973Z</time></trkpt><trkpt lat="43.6628647" lon="12.3998797"><ele>364.6666666666667</ele><time>2026-03-22T12:19:42.974Z</time></trkpt><trkpt lat="43.6629365" lon="12.3997898"><ele>364.83333333333337</ele><time>2026-03-22T12:19:44.972Z</time></trkpt><trkpt lat="43.6629969" lon="12.3997559"><ele>365.0</ele><time>2026-03-22T12:19:45.974Z</time></trkpt><trkpt lat="43.6630614" lon="12.3997331"><ele>365.0</ele><time>2026-03-22T12:19:46.973Z</time></trkpt><trkpt lat="43.6631383" lon="12.3997127"><ele>365.0</ele><time>2026-03-22T12:19:47.974Z</time></trkpt><trkpt lat="43.6632137" lon="12.3996937"><ele>365.0</ele><time>2026-03-22T12:19:48.973Z</time></trkpt><trkpt lat="43.6632908" lon="12.3996708"><ele>365.0</ele><time>2026-03-22T12:19:49.974Z</time></trkpt><trkpt lat="43.6633802" lon="12.3996482"><ele>365.0</ele><time>2026-03-22T12:19:50.974Z</time></trkpt><trkpt lat="43.6634774" lon="12.3996236"><ele>365.0</ele><time>2026-03-22T12:19:51.974Z</time></trkpt><trkpt lat="43.6635844" lon="12.3996008"><ele>364.0</ele><time>2026-03-22T12:19:52.974Z</time></trkpt><trkpt lat="43.6636915" lon="12.3995775"><ele>363.0</ele><time>2026-03-22T12:19:53.973Z</time></trkpt><trkpt lat="43.6637896" lon="12.3995567"><ele>362.0</ele><time>2026-03-22T12:19:54.974Z</time></trkpt><trkpt lat="43.6638817" lon="12.3995304"><ele>361.0</ele><time>2026-03-22T12:19:55.974Z</time></trkpt><trkpt lat="43.6639637" lon="12.3994843"><ele>360.0</ele><time>2026-03-22T12:19:56.973Z</time></trkpt><trkpt lat="43.6640378" lon="12.3994077"><ele>360.0</ele><time>2026-03-22T12:19:57.973Z</time></trkpt><trkpt lat="43.6641004" lon="12.3992962"><ele>360.0</ele><time>2026-03-22T12:19:58.973Z</time></trkpt><trkpt lat="43.6641418" lon="12.3991602"><ele>360.0</ele><time>2026-03-22T12:19:59.974Z</time></trkpt><trkpt lat="43.6641746" lon="12.3990081"><ele>360.0</ele><time>2026-03-22T12:20:00.974Z</time></trkpt><trkpt lat="43.6642107" lon="12.3988504"><ele>360.0</ele><time>2026-03-22T12:20:01.974Z</time></trkpt><trkpt lat="43.6642463" lon="12.3986929"><ele>360.0</ele><time>2026-03-22T12:20:02.974Z</time></trkpt><trkpt lat="43.6642853" lon="12.3985392"><ele>360.0</ele><time>2026-03-22T12:20:03.974Z</time></trkpt><trkpt lat="43.6643205" lon="12.3983997"><ele>360.0</ele><time>2026-03-22T12:20:04.972Z</time></trkpt><trkpt lat="43.6643517" lon="12.3982775"><ele>360.0</ele><time>2026-03-22T12:20:05.974Z</time></trkpt><trkpt lat="43.6643993" lon="12.3981744"><ele>360.0</ele><time>2026-03-22T12:20:06.974Z</time></trkpt><trkpt lat="43.6644704" lon="12.3981039"><ele>359.8</ele><time>2026-03-22T12:20:07.974Z</time></trkpt><trkpt lat="43.6645476" lon="12.3980209"><ele>359.6</ele><time>2026-03-22T12:20:08.973Z</time></trkpt><trkpt lat="43.6645999" lon="12.3979132"><ele>359.4</ele><time>2026-03-22T12:20:09.974Z</time></trkpt><trkpt lat="43.6646286" lon="12.3977868"><ele>359.2</ele><time>2026-03-22T12:20:10.974Z</time></trkpt><trkpt lat="43.6646246" lon="12.3976415"><ele>359.0</ele><time>2026-03-22T12:20:11.974Z</time></trkpt><trkpt lat="43.6646016" lon="12.3974832"><ele>360.0</ele><time>2026-03-22T12:20:12.974Z</time></trkpt><trkpt lat="43.6645745" lon="12.3973455"><ele>361.0</ele><time>2026-03-22T12:20:13.974Z</time></trkpt><trkpt lat="43.6645407" lon="12.3971983"><ele>362.0</ele><time>2026-03-22T12:20:14.974Z</time></trkpt><trkpt lat="43.6645026" lon="12.3970469"><ele>363.0</ele><time>2026-03-22T12:20:15.974Z</time></trkpt><trkpt lat="43.6644624" lon="12.3969139"><ele>364.0</ele><time>2026-03-22T12:20:16.973Z</time></trkpt><trkpt lat="43.6644147" lon="12.3967859"><ele>364.0</ele><time>2026-03-22T12:20:17.974Z</time></trkpt><trkpt lat="43.6643619" lon="12.3966585"><ele>364.0</ele><time>2026-03-22T12:20:18.973Z</time></trkpt><trkpt lat="43.6643086" lon="12.3965271"><ele>364.0</ele><time>2026-03-22T12:20:19.974Z</time></trkpt><trkpt lat="43.6642523" lon="12.3964087"><ele>364.0</ele><time>2026-03-22T12:20:20.974Z</time></trkpt><trkpt lat="43.66421" lon="12.396288"><ele>364.0</ele><time>2026-03-22T12:20:21.973Z</time></trkpt><trkpt lat="43.6641658" lon="12.3961619"><ele>365.0</ele><time>2026-03-22T12:20:22.973Z</time></trkpt><trkpt lat="43.6641408" lon="12.3960245"><ele>366.0</ele><time>2026-03-22T12:20:23.974Z</time></trkpt><trkpt lat="43.6641262" lon="12.3958823"><ele>367.0</ele><time>2026-03-22T12:20:24.973Z</time></trkpt><trkpt lat="43.664125" lon="12.3957356"><ele>368.0</ele><time>2026-03-22T12:20:25.974Z</time></trkpt><trkpt lat="43.6641406" lon="12.3955928"><ele>369.0</ele><time>2026-03-22T12:20:26.974Z</time></trkpt><trkpt lat="43.6641607" lon="12.3954616"><ele>369.4</ele><time>2026-03-22T12:20:27.974Z</time></trkpt><trkpt lat="43.6641881" lon="12.3953265"><ele>369.79999999999995</ele><time>2026-03-22T12:20:28.973Z</time></trkpt><trkpt lat="43.6642154" lon="12.3951883"><ele>370.20000000000005</ele><time>2026-03-22T12:20:29.973Z</time></trkpt><trkpt lat="43.6642484" lon="12.3950525"><ele>370.6</ele><time>2026-03-22T12:20:30.974Z</time></trkpt><trkpt lat="43.6642996" lon="12.3949272"><ele>371.0</ele><time>2026-03-22T12:20:31.973Z</time></trkpt><trkpt lat="43.6643627" lon="12.3948125"><ele>371.0</ele><time>2026-03-22T12:20:32.973Z</time></trkpt><trkpt lat="43.6644233" lon="12.3946976"><ele>371.0</ele><time>2026-03-22T12:20:33.974Z</time></trkpt><trkpt lat="43.6644773" lon="12.394593"><ele>371.0</ele><time>2026-03-22T12:20:34.974Z</time></trkpt><trkpt lat="43.6645153" lon="12.3944864"><ele>371.0</ele><time>2026-03-22T12:20:35.973Z</time></trkpt><trkpt lat="43.664531" lon="12.3943716"><ele>371.0</ele><time>2026-03-22T12:20:36.973Z</time></trkpt><trkpt lat="43.6645231" lon="12.3942441"><ele>372.20000000000005</ele><time>2026-03-22T12:20:37.973Z</time></trkpt><trkpt lat="43.6644914" lon="12.3941169"><ele>373.40000000000003</ele><time>2026-03-22T12:20:38.973Z</time></trkpt><trkpt lat="43.6644431" lon="12.3939914"><ele>374.6</ele><time>2026-03-22T12:20:39.974Z</time></trkpt><trkpt lat="43.6643816" lon="12.3938721"><ele>375.8</ele><time>2026-03-22T12:20:40.973Z</time></trkpt><trkpt lat="43.6643249" lon="12.39375"><ele>377.0</ele><time>2026-03-22T12:20:41.973Z</time></trkpt><trkpt lat="43.6642706" lon="12.3936232"><ele>379.0</ele><time>2026-03-22T12:20:42.973Z</time></trkpt><trkpt lat="43.664221" lon="12.3934925"><ele>381.0</ele><time>2026-03-22T12:20:43.974Z</time></trkpt><trkpt lat="43.6641762" lon="12.3933511"><ele>383.0</ele><time>2026-03-22T12:20:44.973Z</time></trkpt><trkpt lat="43.664139" lon="12.3932002"><ele>385.0</ele><time>2026-03-22T12:20:45.973Z</time></trkpt><trkpt lat="43.6641076" lon="12.3930448"><ele>388.75</ele><time>2026-03-22T12:20:46.973Z</time></trkpt><trkpt lat="43.6640746" lon="12.3928856"><ele>392.5</ele><time>2026-03-22T12:20:47.973Z</time></trkpt><trkpt lat="43.6640432" lon="12.3927253"><ele>396.25</ele><time>2026-03-22T12:20:48.974Z</time></trkpt><trkpt lat="43.6640111" lon="12.3925697"><ele>400.0</ele><time>2026-03-22T12:20:49.974Z</time></trkpt><trkpt lat="43.6639788" lon="12.3924221"><ele>400.0</ele><time>2026-03-22T12:20:50.974Z</time></trkpt><trkpt lat="43.6639473" lon="12.392272"><ele>400.0</ele><time>2026-03-22T12:20:51.974Z</time></trkpt><trkpt lat="43.6639126" lon="12.3921216"><ele>400.0</ele><time>2026-03-22T12:20:52.973Z</time></trkpt><trkpt lat="43.6638593" lon="12.3919771"><ele>400.0</ele><time>2026-03-22T12:20:53.974Z</time></trkpt><trkpt lat="43.6637882" lon="12.391846"><ele>400.4</ele><time>2026-03-22T12:20:54.974Z</time></trkpt><trkpt lat="43.6637186" lon="12.3917144"><ele>400.8</ele><time>2026-03-22T12:20:55.974Z</time></trkpt><trkpt lat="43.6636626" lon="12.3915768"><ele>401.20000000000005</ele><time>2026-03-22T12:20:56.973Z</time></trkpt><trkpt lat="43.663608" lon="12.3914494"><ele>401.6</ele><time>2026-03-22T12:20:57.974Z</time></trkpt><trkpt lat="43.6635648" lon="12.3913136"><ele>402.0</ele><time>2026-03-22T12:20:58.974Z</time></trkpt><trkpt lat="43.6635282" lon="12.3911714"><ele>402.0</ele><time>2026-03-22T12:20:59.974Z</time></trkpt><trkpt lat="43.6634919" lon="12.391023"><ele>402.0</ele><time>2026-03-22T12:21:00.973Z</time></trkpt><trkpt lat="43.6634595" lon="12.3908647"><ele>402.0</ele><time>2026-03-22T12:21:01.974Z</time></trkpt><trkpt lat="43.6634299" lon="12.390703"><ele>402.0</ele><time>2026-03-22T12:21:02.973Z</time></trkpt><trkpt lat="43.6634053" lon="12.3905376"><ele>404.0</ele><time>2026-03-22T12:21:03.972Z</time></trkpt><trkpt lat="43.663377" lon="12.3903699"><ele>406.0</ele><time>2026-03-22T12:21:04.973Z</time></trkpt><trkpt lat="43.6633473" lon="12.3902097"><ele>408.0</ele><time>2026-03-22T12:21:05.974Z</time></trkpt><trkpt lat="43.663331" lon="12.3900706"><ele>410.0</ele><time>2026-03-22T12:21:06.974Z</time></trkpt><trkpt lat="43.6633343" lon="12.3899426"><ele>412.0</ele><time>2026-03-22T12:21:07.974Z</time></trkpt><trkpt lat="43.663364" lon="12.3898277"><ele>412.0</ele><time>2026-03-22T12:21:08.974Z</time></trkpt><trkpt lat="43.6634071" lon="12.3897035"><ele>412.0</ele><time>2026-03-22T12:21:09.972Z</time></trkpt><trkpt lat="43.6634337" lon="12.3895968"><ele>412.0</ele><time>2026-03-22T12:21:10.973Z</time></trkpt><trkpt lat="43.6634459" lon="12.3894756"><ele>412.0</ele><time>2026-03-22T12:21:11.973Z</time></trkpt><trkpt lat="43.6633272" lon="12.3893513"><ele>412.0</ele><time>2026-03-22T12:21:12.974Z</time></trkpt><trkpt lat="43.663271" lon="12.3892657"><ele>413.20000000000005</ele><time>2026-03-22T12:21:13.973Z</time></trkpt><trkpt lat="43.663257" lon="12.389126"><ele>414.4</ele><time>2026-03-22T12:21:14.972Z</time></trkpt><trkpt lat="43.663276" lon="12.3889688"><ele>415.6</ele><time>2026-03-22T12:21:15.973Z</time></trkpt><trkpt lat="43.6633209" lon="12.3888136"><ele>416.79999999999995</ele><time>2026-03-22T12:21:16.974Z</time></trkpt><trkpt lat="43.6633514" lon="12.388667"><ele>418.0</ele><time>2026-03-22T12:21:17.973Z</time></trkpt><trkpt lat="43.6633702" lon="12.3885215"><ele>419.59999999999997</ele><time>2026-03-22T12:21:18.973Z</time></trkpt><trkpt lat="43.6633735" lon="12.3883704"><ele>421.2</ele><time>2026-03-22T12:21:19.974Z</time></trkpt><trkpt lat="43.6633553" lon="12.3882173"><ele>422.8</ele><time>2026-03-22T12:21:20.973Z</time></trkpt><trkpt lat="43.6633173" lon="12.3880682"><ele>424.4</ele><time>2026-03-22T12:21:21.974Z</time></trkpt><trkpt lat="43.6632769" lon="12.3879293"><ele>426.0</ele><time>2026-03-22T12:21:22.974Z</time></trkpt><trkpt lat="43.6632354" lon="12.3878076"><ele>428.6666666666667</ele><time>2026-03-22T12:21:23.974Z</time></trkpt><trkpt lat="43.663188" lon="12.3876897"><ele>431.33333333333337</ele><time>2026-03-22T12:21:24.974Z</time></trkpt><trkpt lat="43.6631374" lon="12.3875824"><ele>434.0</ele><time>2026-03-22T12:21:25.973Z</time></trkpt><trkpt lat="43.663091" lon="12.3874817"><ele>436.6666666666667</ele><time>2026-03-22T12:21:26.973Z</time></trkpt><trkpt lat="43.6630596" lon="12.3874001"><ele>439.33333333333337</ele><time>2026-03-22T12:21:27.974Z</time></trkpt><trkpt lat="43.6630499" lon="12.3873138"><ele>442.0</ele><time>2026-03-22T12:21:28.974Z</time></trkpt><trkpt lat="43.6630859" lon="12.3871577"><ele>442.00000000000006</ele><time>2026-03-22T12:21:30.974Z</time></trkpt><trkpt lat="43.6631626" lon="12.3870314"><ele>442.0</ele><time>2026-03-22T12:21:32.974Z</time></trkpt><trkpt lat="43.6632096" lon="12.3869618"><ele>442.0</ele><time>2026-03-22T12:21:33.973Z</time></trkpt><trkpt lat="43.6632698" lon="12.3868862"><ele>442.0</ele><time>2026-03-22T12:21:34.974Z</time></trkpt><trkpt lat="43.6633315" lon="12.3868053"><ele>442.00000000000006</ele><time>2026-03-22T12:21:35.974Z</time></trkpt><trkpt lat="43.6633987" lon="12.3867198"><ele>442.0</ele><time>2026-03-22T12:21:36.974Z</time></trkpt><trkpt lat="43.6634736" lon="12.386632"><ele>442.0</ele><time>2026-03-22T12:21:37.973Z</time></trkpt><trkpt lat="43.6635544" lon="12.3865489"><ele>442.00000000000006</ele><time>2026-03-22T12:21:38.973Z</time></trkpt><trkpt lat="43.6636414" lon="12.3864758"><ele>442.00000000000006</ele><time>2026-03-22T12:21:39.973Z</time></trkpt><trkpt lat="43.6637282" lon="12.3864119"><ele>442.0</ele><time>2026-03-22T12:21:40.974Z</time></trkpt><trkpt lat="43.6638054" lon="12.3863701"><ele>442.0</ele><time>2026-03-22T12:21:41.974Z</time></trkpt><trkpt lat="43.6638869" lon="12.3863513"><ele>446.25</ele><time>2026-03-22T12:21:42.974Z</time></trkpt><trkpt lat="43.66398" lon="12.3863626"><ele>450.5</ele><time>2026-03-22T12:21:43.974Z</time></trkpt><trkpt lat="43.6640962" lon="12.3863982"><ele>454.75</ele><time>2026-03-22T12:21:44.974Z</time></trkpt><trkpt lat="43.6642309" lon="12.386445"><ele>459.0</ele><time>2026-03-22T12:21:45.973Z</time></trkpt><trkpt lat="43.6643727" lon="12.38649"><ele>462.75</ele><time>2026-03-22T12:21:46.973Z</time></trkpt><trkpt lat="43.6645055" lon="12.386515"><ele>466.5</ele><time>2026-03-22T12:21:47.972Z</time></trkpt><trkpt lat="43.6646403" lon="12.3865181"><ele>470.25</ele><time>2026-03-22T12:21:48.974Z</time></trkpt><trkpt lat="43.664755" lon="12.3864888"><ele>474.0</ele><time>2026-03-22T12:21:49.974Z</time></trkpt><trkpt lat="43.6648597" lon="12.3864279"><ele>471.25</ele><time>2026-03-22T12:21:50.974Z</time></trkpt><trkpt lat="43.6649271" lon="12.3863426"><ele>468.5</ele><time>2026-03-22T12:21:51.973Z</time></trkpt><trkpt lat="43.6649699" lon="12.3862156"><ele>465.75</ele><time>2026-03-22T12:21:52.973Z</time></trkpt><trkpt lat="43.6650027" lon="12.3860482"><ele>463.0</ele><time>2026-03-22T12:21:53.974Z</time></trkpt><trkpt lat="43.6650262" lon="12.3858394"><ele>463.0</ele><time>2026-03-22T12:21:54.974Z</time></trkpt><trkpt lat="43.6650361" lon="12.3856112"><ele>463.0</ele><time>2026-03-22T12:21:55.974Z</time></trkpt><trkpt lat="43.6650321" lon="12.3854081"><ele>463.0</ele><time>2026-03-22T12:21:56.973Z</time></trkpt><trkpt lat="43.6650245" lon="12.3852349"><ele>463.0</ele><time>2026-03-22T12:21:57.974Z</time></trkpt><trkpt lat="43.6650214" lon="12.3851075"><ele>463.0</ele><time>2026-03-22T12:21:58.973Z</time></trkpt><trkpt lat="43.6650368" lon="12.3850033"><ele>462.99999999999994</ele><time>2026-03-22T12:21:59.974Z</time></trkpt><trkpt lat="43.665082" lon="12.3849138"><ele>462.99999999999994</ele><time>2026-03-22T12:22:00.974Z</time></trkpt><trkpt lat="43.6651542" lon="12.3848244"><ele>463.0</ele><time>2026-03-22T12:22:01.974Z</time></trkpt><trkpt lat="43.6652516" lon="12.384728"><ele>463.0</ele><time>2026-03-22T12:22:02.973Z</time></trkpt><trkpt lat="43.6653589" lon="12.3846271"><ele>463.0</ele><time>2026-03-22T12:22:03.973Z</time></trkpt><trkpt lat="43.6654516" lon="12.384548"><ele>462.99999999999994</ele><time>2026-03-22T12:22:04.973Z</time></trkpt><trkpt lat="43.6655511" lon="12.3844972"><ele>462.99999999999994</ele><time>2026-03-22T12:22:05.973Z</time></trkpt><trkpt lat="43.6656405" lon="12.3844801"><ele>463.0</ele><time>2026-03-22T12:22:06.973Z</time></trkpt><trkpt lat="43.6657466" lon="12.3845019"><ele>463.0</ele><time>2026-03-22T12:22:07.973Z</time></trkpt><trkpt lat="43.665867" lon="12.3845534"><ele>463.0</ele><time>2026-03-22T12:22:08.974Z</time></trkpt><trkpt lat="43.6659949" lon="12.3846106"><ele>463.0</ele><time>2026-03-22T12:22:09.974Z</time></trkpt><trkpt lat="43.6661133" lon="12.3846499"><ele>463.0</ele><time>2026-03-22T12:22:10.974Z</time></trkpt><trkpt lat="43.6662354" lon="12.3846805"><ele>463.0</ele><time>2026-03-22T12:22:11.974Z</time></trkpt><trkpt lat="43.6663538" lon="12.3846775"><ele>467.75</ele><time>2026-03-22T12:22:12.973Z</time></trkpt><trkpt lat="43.6664739" lon="12.3846287"><ele>472.5</ele><time>2026-03-22T12:22:13.974Z</time></trkpt><trkpt lat="43.666599" lon="12.3845702"><ele>477.25</ele><time>2026-03-22T12:22:14.973Z</time></trkpt><trkpt lat="43.666726" lon="12.3845342"><ele>482.0</ele><time>2026-03-22T12:22:15.973Z</time></trkpt><trkpt lat="43.6668406" lon="12.3844907"><ele>482.0</ele><time>2026-03-22T12:22:16.973Z</time></trkpt><trkpt lat="43.6669348" lon="12.3844212"><ele>482.00000000000006</ele><time>2026-03-22T12:22:17.973Z</time></trkpt><trkpt lat="43.6669943" lon="12.3843188"><ele>482.00000000000006</ele><time>2026-03-22T12:22:18.973Z</time></trkpt><trkpt lat="43.6670396" lon="12.3841776"><ele>482.0</ele><time>2026-03-22T12:22:19.972Z</time></trkpt><trkpt lat="43.6670804" lon="12.3840205"><ele>482.0</ele><time>2026-03-22T12:22:20.973Z</time></trkpt><trkpt lat="43.6671338" lon="12.3838929"><ele>483.20000000000005</ele><time>2026-03-22T12:22:21.974Z</time></trkpt><trkpt lat="43.6672057" lon="12.3837869"><ele>484.40000000000003</ele><time>2026-03-22T12:22:22.974Z</time></trkpt><trkpt lat="43.6672864" lon="12.3837207"><ele>485.59999999999997</ele><time>2026-03-22T12:22:23.973Z</time></trkpt><trkpt lat="43.6673887" lon="12.3836877"><ele>486.79999999999995</ele><time>2026-03-22T12:22:24.973Z</time></trkpt><trkpt lat="43.6675051" lon="12.3836882"><ele>488.0</ele><time>2026-03-22T12:22:25.974Z</time></trkpt><trkpt lat="43.6676347" lon="12.3837237"><ele>492.66666666666663</ele><time>2026-03-22T12:22:26.974Z</time></trkpt><trkpt lat="43.6677803" lon="12.3837655"><ele>497.33333333333337</ele><time>2026-03-22T12:22:27.973Z</time></trkpt><trkpt lat="43.6679376" lon="12.3837649"><ele>502.0</ele><time>2026-03-22T12:22:28.974Z</time></trkpt><trkpt lat="43.6680907" lon="12.3837401"><ele>502.0</ele><time>2026-03-22T12:22:29.974Z</time></trkpt><trkpt lat="43.6682231" lon="12.3836985"><ele>502.0</ele><time>2026-03-22T12:22:30.974Z</time></trkpt><trkpt lat="43.6683471" lon="12.3836412"><ele>502.0</ele><time>2026-03-22T12:22:31.973Z</time></trkpt><trkpt lat="43.6684627" lon="12.3835582"><ele>502.0</ele><time>2026-03-22T12:22:32.974Z</time></trkpt><trkpt lat="43.6685669" lon="12.3834536"><ele>507.25</ele><time>2026-03-22T12:22:33.973Z</time></trkpt><trkpt lat="43.6686743" lon="12.3833262"><ele>512.5</ele><time>2026-03-22T12:22:34.973Z</time></trkpt><trkpt lat="43.6687861" lon="12.3832066"><ele>517.75</ele><time>2026-03-22T12:22:35.973Z</time></trkpt><trkpt lat="43.6688934" lon="12.3830979"><ele>523.0</ele><time>2026-03-22T12:22:36.973Z</time></trkpt><trkpt lat="43.6689766" lon="12.38298"><ele>523.8</ele><time>2026-03-22T12:22:37.973Z</time></trkpt><trkpt lat="43.6690361" lon="12.3828595"><ele>524.5999999999999</ele><time>2026-03-22T12:22:38.973Z</time></trkpt><trkpt lat="43.6690534" lon="12.3827309"><ele>525.4000000000001</ele><time>2026-03-22T12:22:39.973Z</time></trkpt><trkpt lat="43.6690503" lon="12.3825979"><ele>526.2</ele><time>2026-03-22T12:22:40.974Z</time></trkpt><trkpt lat="43.6690246" lon="12.382452"><ele>527.0</ele><time>2026-03-22T12:22:41.974Z</time></trkpt><trkpt lat="43.6690351" lon="12.3823344"><ele>527.0</ele><time>2026-03-22T12:22:42.974Z</time></trkpt><trkpt lat="43.6690669" lon="12.3822282"><ele>527.0</ele><time>2026-03-22T12:22:43.974Z</time></trkpt><trkpt lat="43.6691159" lon="12.3821473"><ele>527.0</ele><time>2026-03-22T12:22:44.974Z</time></trkpt><trkpt lat="43.6692018" lon="12.3820708"><ele>527.0</ele><time>2026-03-22T12:22:45.974Z</time></trkpt><trkpt lat="43.6693171" lon="12.3819694"><ele>527.0</ele><time>2026-03-22T12:22:46.974Z</time></trkpt><trkpt lat="43.669428" lon="12.3818386"><ele>530.75</ele><time>2026-03-22T12:22:47.973Z</time></trkpt><trkpt lat="43.669504" lon="12.3816985"><ele>534.5</ele><time>2026-03-22T12:22:48.973Z</time></trkpt><trkpt lat="43.6695416" lon="12.3815462"><ele>538.25</ele><time>2026-03-22T12:22:49.974Z</time></trkpt><trkpt lat="43.6695648" lon="12.3813586"><ele>542.0</ele><time>2026-03-22T12:22:50.973Z</time></trkpt><trkpt lat="43.669603" lon="12.3811332"><ele>542.0</ele><time>2026-03-22T12:22:51.972Z</time></trkpt><trkpt lat="43.6696519" lon="12.3809137"><ele>542.0</ele><time>2026-03-22T12:22:52.973Z</time></trkpt><trkpt lat="43.669705" lon="12.3807289"><ele>542.0</ele><time>2026-03-22T12:22:53.973Z</time></trkpt><trkpt lat="43.669771" lon="12.3805391"><ele>540.75</ele><time>2026-03-22T12:22:54.974Z</time></trkpt><trkpt lat="43.6698418" lon="12.3803484"><ele>539.5</ele><time>2026-03-22T12:22:55.974Z</time></trkpt><trkpt lat="43.6699025" lon="12.3801787"><ele>538.25</ele><time>2026-03-22T12:22:56.974Z</time></trkpt><trkpt lat="43.6699582" lon="12.3800143"><ele>537.0</ele><time>2026-03-22T12:22:57.973Z</time></trkpt><trkpt lat="43.6700138" lon="12.3798234"><ele>539.3333333333334</ele><time>2026-03-22T12:22:58.974Z</time></trkpt><trkpt lat="43.670067" lon="12.3796056"><ele>541.6666666666667</ele><time>2026-03-22T12:22:59.973Z</time></trkpt><trkpt lat="43.6701228" lon="12.3794022"><ele>544.0</ele><time>2026-03-22T12:23:00.973Z</time></trkpt><trkpt lat="43.6701833" lon="12.3792234"><ele>544.0</ele><time>2026-03-22T12:23:01.972Z</time></trkpt><trkpt lat="43.670248" lon="12.3790521"><ele>544.0</ele><time>2026-03-22T12:23:02.973Z</time></trkpt><trkpt lat="43.6703049" lon="12.3788956"><ele>544.0</ele><time>2026-03-22T12:23:03.973Z</time></trkpt><trkpt lat="43.6703476" lon="12.3787397"><ele>544.0</ele><time>2026-03-22T12:23:04.973Z</time></trkpt><trkpt lat="43.6703687" lon="12.3785509"><ele>544.75</ele><time>2026-03-22T12:23:05.973Z</time></trkpt><trkpt lat="43.6703861" lon="12.3783643"><ele>545.5</ele><time>2026-03-22T12:23:06.974Z</time></trkpt><trkpt lat="43.6704332" lon="12.3781923"><ele>546.25</ele><time>2026-03-22T12:23:07.974Z</time></trkpt><trkpt lat="43.6705139" lon="12.378047"><ele>547.0</ele><time>2026-03-22T12:23:08.974Z</time></trkpt><trkpt lat="43.6706273" lon="12.3779161"><ele>547.0</ele><time>2026-03-22T12:23:09.972Z</time></trkpt><trkpt lat="43.6707545" lon="12.3777657"><ele>547.0</ele><time>2026-03-22T12:23:10.973Z</time></trkpt><trkpt lat="43.6708734" lon="12.3775824"><ele>547.0</ele><time>2026-03-22T12:23:11.973Z</time></trkpt><trkpt lat="43.6709714" lon="12.3774008"><ele>547.0</ele><time>2026-03-22T12:23:12.974Z</time></trkpt><trkpt lat="43.6710516" lon="12.3772436"><ele>547.0</ele><time>2026-03-22T12:23:13.974Z</time></trkpt><trkpt lat="43.6711184" lon="12.3770958"><ele>547.0</ele><time>2026-03-22T12:23:14.974Z</time></trkpt><trkpt lat="43.6711766" lon="12.3769583"><ele>547.0</ele><time>2026-03-22T12:23:15.974Z</time></trkpt><trkpt lat="43.6712277" lon="12.3768253"><ele>542.5</ele><time>2026-03-22T12:23:16.973Z</time></trkpt><trkpt lat="43.6712491" lon="12.3766769"><ele>538.0</ele><time>2026-03-22T12:23:17.974Z</time></trkpt><trkpt lat="43.6712394" lon="12.3765063"><ele>533.5</ele><time>2026-03-22T12:23:18.972Z</time></trkpt><trkpt lat="43.6712033" lon="12.3763167"><ele>529.0</ele><time>2026-03-22T12:23:19.973Z</time></trkpt><trkpt lat="43.6711452" lon="12.3761122"><ele>531.0</ele><time>2026-03-22T12:23:20.973Z</time></trkpt><trkpt lat="43.6710751" lon="12.3758953"><ele>533.0</ele><time>2026-03-22T12:23:21.974Z</time></trkpt><trkpt lat="43.6709993" lon="12.375673"><ele>535.0</ele><time>2026-03-22T12:23:22.973Z</time></trkpt><trkpt lat="43.67093" lon="12.3754682"><ele>535.0</ele><time>2026-03-22T12:23:23.973Z</time></trkpt><trkpt lat="43.6708644" lon="12.3752712"><ele>535.0</ele><time>2026-03-22T12:23:24.973Z</time></trkpt><trkpt lat="43.6707947" lon="12.3750588"><ele>535.0</ele><time>2026-03-22T12:23:25.973Z</time></trkpt><trkpt lat="43.6707237" lon="12.374858"><ele>532.25</ele><time>2026-03-22T12:23:26.973Z</time></trkpt><trkpt lat="43.6706504" lon="12.3746719"><ele>529.5</ele><time>2026-03-22T12:23:27.974Z</time></trkpt><trkpt lat="43.6705784" lon="12.3744974"><ele>526.75</ele><time>2026-03-22T12:23:28.974Z</time></trkpt><trkpt lat="43.6705059" lon="12.374322"><ele>524.0</ele><time>2026-03-22T12:23:29.974Z</time></trkpt><trkpt lat="43.6704395" lon="12.3741488"><ele>524.0</ele><time>2026-03-22T12:23:30.973Z</time></trkpt><trkpt lat="43.670383" lon="12.3739799"><ele>524.0</ele><time>2026-03-22T12:23:31.974Z</time></trkpt><trkpt lat="43.6703228" lon="12.3738093"><ele>524.0</ele><time>2026-03-22T12:23:32.973Z</time></trkpt><trkpt lat="43.6702424" lon="12.3736458"><ele>524.0</ele><time>2026-03-22T12:23:33.973Z</time></trkpt><trkpt lat="43.6701477" lon="12.3734907"><ele>523.5</ele><time>2026-03-22T12:23:34.974Z</time></trkpt><trkpt lat="43.6700563" lon="12.3733401"><ele>523.0</ele><time>2026-03-22T12:23:35.973Z</time></trkpt><trkpt lat="43.6699706" lon="12.3731931"><ele>522.5</ele><time>2026-03-22T12:23:36.974Z</time></trkpt><trkpt lat="43.6698786" lon="12.3730592"><ele>522.0</ele><time>2026-03-22T12:23:37.973Z</time></trkpt><trkpt lat="43.6697755" lon="12.3729571"><ele>522.0</ele><time>2026-03-22T12:23:38.974Z</time></trkpt><trkpt lat="43.6696705" lon="12.3728609"><ele>522.0</ele><time>2026-03-22T12:23:39.973Z</time></trkpt><trkpt lat="43.6695836" lon="12.3727303"><ele>522.0</ele><time>2026-03-22T12:23:40.973Z</time></trkpt><trkpt lat="43.6695145" lon="12.3725608"><ele>522.0</ele><time>2026-03-22T12:23:41.973Z</time></trkpt><trkpt lat="43.6694608" lon="12.3723675"><ele>527.25</ele><time>2026-03-22T12:23:42.973Z</time></trkpt><trkpt lat="43.6694271" lon="12.3721784"><ele>532.5</ele><time>2026-03-22T12:23:43.974Z</time></trkpt><trkpt lat="43.6694093" lon="12.3720004"><ele>537.75</ele><time>2026-03-22T12:23:44.974Z</time></trkpt><trkpt lat="43.6694045" lon="12.3718367"><ele>543.0</ele><time>2026-03-22T12:23:45.974Z</time></trkpt><trkpt lat="43.6694196" lon="12.371699"><ele>540.6</ele><time>2026-03-22T12:23:46.973Z</time></trkpt><trkpt lat="43.6694561" lon="12.3715965"><ele>538.1999999999999</ele><time>2026-03-22T12:23:47.974Z</time></trkpt><trkpt lat="43.6695139" lon="12.3715327"><ele>535.8</ele><time>2026-03-22T12:23:48.974Z</time></trkpt><trkpt lat="43.6695918" lon="12.3715173"><ele>533.4</ele><time>2026-03-22T12:23:49.974Z</time></trkpt><trkpt lat="43.6697006" lon="12.3715283"><ele>531.0</ele><time>2026-03-22T12:23:50.972Z</time></trkpt><trkpt lat="43.6698583" lon="12.3715405"><ele>531.0</ele><time>2026-03-22T12:23:51.974Z</time></trkpt><trkpt lat="43.6700457" lon="12.371541"><ele>531.0</ele><time>2026-03-22T12:23:52.974Z</time></trkpt><trkpt lat="43.670225" lon="12.3715135"><ele>531.0</ele><time>2026-03-22T12:23:53.974Z</time></trkpt><trkpt lat="43.6703897" lon="12.371473"><ele>531.5</ele><time>2026-03-22T12:23:54.972Z</time></trkpt><trkpt lat="43.6705261" lon="12.3714302"><ele>532.0</ele><time>2026-03-22T12:23:55.973Z</time></trkpt><trkpt lat="43.6706325" lon="12.3713712"><ele>532.5</ele><time>2026-03-22T12:23:56.973Z</time></trkpt><trkpt lat="43.6707219" lon="12.371287"><ele>533.0</ele><time>2026-03-22T12:23:57.974Z</time></trkpt><trkpt lat="43.6707861" lon="12.3711812"><ele>533.0</ele><time>2026-03-22T12:23:58.974Z</time></trkpt><trkpt lat="43.6708309" lon="12.3710444"><ele>533.0</ele><time>2026-03-22T12:23:59.973Z</time></trkpt><trkpt lat="43.6708624" lon="12.37088"><ele>533.0</ele><time>2026-03-22T12:24:00.973Z</time></trkpt><trkpt lat="43.6708763" lon="12.3706965"><ele>533.0</ele><time>2026-03-22T12:24:01.974Z</time></trkpt><trkpt lat="43.6708713" lon="12.3704926"><ele>535.6666666666666</ele><time>2026-03-22T12:24:02.972Z</time></trkpt><trkpt lat="43.6708457" lon="12.3702715"><ele>538.3333333333334</ele><time>2026-03-22T12:24:03.974Z</time></trkpt><trkpt lat="43.6708191" lon="12.370032"><ele>541.0</ele><time>2026-03-22T12:24:04.973Z</time></trkpt><trkpt lat="43.6708196" lon="12.3698117"><ele>541.25</ele><time>2026-03-22T12:24:05.974Z</time></trkpt><trkpt lat="43.6708358" lon="12.36963"><ele>541.5</ele><time>2026-03-22T12:24:06.974Z</time></trkpt><trkpt lat="43.6708487" lon="12.3694683"><ele>541.75</ele><time>2026-03-22T12:24:07.973Z</time></trkpt><trkpt lat="43.6708387" lon="12.3693032"><ele>542.0</ele><time>2026-03-22T12:24:08.972Z</time></trkpt><trkpt lat="43.6708149" lon="12.3691242"><ele>542.0</ele><time>2026-03-22T12:24:09.972Z</time></trkpt><trkpt lat="43.6707998" lon="12.3689624"><ele>542.0</ele><time>2026-03-22T12:24:10.973Z</time></trkpt><trkpt lat="43.6707799" lon="12.368807"><ele>542.0</ele><time>2026-03-22T12:24:11.973Z</time></trkpt><trkpt lat="43.6707128" lon="12.3686886"><ele>542.0</ele><time>2026-03-22T12:24:12.974Z</time></trkpt><trkpt lat="43.6706344" lon="12.3685695"><ele>542.0</ele><time>2026-03-22T12:24:13.973Z</time></trkpt><trkpt lat="43.6705587" lon="12.3684427"><ele>542.0</ele><time>2026-03-22T12:24:14.973Z</time></trkpt><trkpt lat="43.6705168" lon="12.3682546"><ele>542.0</ele><time>2026-03-22T12:24:15.973Z</time></trkpt><trkpt lat="43.6704892" lon="12.3680648"><ele>542.0</ele><time>2026-03-22T12:24:16.973Z</time></trkpt><trkpt lat="43.6704803" lon="12.3678878"><ele>543.2</ele><time>2026-03-22T12:24:17.974Z</time></trkpt><trkpt lat="43.6704853" lon="12.3677337"><ele>544.4000000000001</ele><time>2026-03-22T12:24:18.972Z</time></trkpt><trkpt lat="43.6705264" lon="12.3675957"><ele>545.5999999999999</ele><time>2026-03-22T12:24:19.973Z</time></trkpt><trkpt lat="43.6705891" lon="12.3674917"><ele>546.8</ele><time>2026-03-22T12:24:20.973Z</time></trkpt><trkpt lat="43.670675" lon="12.3674178"><ele>548.0</ele><time>2026-03-22T12:24:21.973Z</time></trkpt><trkpt lat="43.6707843" lon="12.3673657"><ele>548.0</ele><time>2026-03-22T12:24:22.973Z</time></trkpt><trkpt lat="43.6709199" lon="12.3673092"><ele>548.0</ele><time>2026-03-22T12:24:23.974Z</time></trkpt><trkpt lat="43.6710712" lon="12.3672294"><ele>548.0</ele><time>2026-03-22T12:24:24.973Z</time></trkpt><trkpt lat="43.671184" lon="12.3671653"><ele>548.0</ele><time>2026-03-22T12:24:25.973Z</time></trkpt><trkpt lat="43.6712767" lon="12.3671249"><ele>549.1666666666666</ele><time>2026-03-22T12:24:26.973Z</time></trkpt><trkpt lat="43.6713629" lon="12.3671066"><ele>550.3333333333333</ele><time>2026-03-22T12:24:27.973Z</time></trkpt><trkpt lat="43.6714318" lon="12.3671339"><ele>551.5</ele><time>2026-03-22T12:24:28.973Z</time></trkpt><trkpt lat="43.671483" lon="12.3672083"><ele>552.6666666666666</ele><time>2026-03-22T12:24:29.974Z</time></trkpt><trkpt lat="43.671515" lon="12.3673231"><ele>553.8333333333334</ele><time>2026-03-22T12:24:30.972Z</time></trkpt><trkpt lat="43.671543" lon="12.3674814"><ele>555.0</ele><time>2026-03-22T12:24:31.973Z</time></trkpt><trkpt lat="43.6715786" lon="12.3676231"><ele>555.0</ele><time>2026-03-22T12:24:32.974Z</time></trkpt><trkpt lat="43.6716281" lon="12.3677203"><ele>555.0</ele><time>2026-03-22T12:24:33.972Z</time></trkpt><trkpt lat="43.6716981" lon="12.3677961"><ele>555.0</ele><time>2026-03-22T12:24:34.974Z</time></trkpt><trkpt lat="43.6717963" lon="12.3678631"><ele>555.0</ele><time>2026-03-22T12:24:35.973Z</time></trkpt><trkpt lat="43.6719158" lon="12.367932"><ele>555.0</ele><time>2026-03-22T12:24:36.972Z</time></trkpt><trkpt lat="43.6720063" lon="12.36798"><ele>556.3333333333334</ele><time>2026-03-22T12:24:37.974Z</time></trkpt><trkpt lat="43.6721072" lon="12.368003"><ele>557.6666666666666</ele><time>2026-03-22T12:24:38.973Z</time></trkpt><trkpt lat="43.6721929" lon="12.3679941"><ele>559.0</ele><time>2026-03-22T12:24:39.974Z</time></trkpt><trkpt lat="43.672266" lon="12.3679522"><ele>560.3333333333333</ele><time>2026-03-22T12:24:40.974Z</time></trkpt><trkpt lat="43.6723208" lon="12.3678787"><ele>561.6666666666666</ele><time>2026-03-22T12:24:41.973Z</time></trkpt><trkpt lat="43.6723614" lon="12.3677645"><ele>563.0</ele><time>2026-03-22T12:24:42.974Z</time></trkpt><trkpt lat="43.6724142" lon="12.3675997"><ele>563.0</ele><time>2026-03-22T12:24:43.974Z</time></trkpt><trkpt lat="43.6724687" lon="12.3674611"><ele>563.0</ele><time>2026-03-22T12:24:44.974Z</time></trkpt><trkpt lat="43.6725442" lon="12.3673427"><ele>563.0</ele><time>2026-03-22T12:24:45.973Z</time></trkpt><trkpt lat="43.6726406" lon="12.3672294"><ele>563.0</ele><time>2026-03-22T12:24:46.974Z</time></trkpt><trkpt lat="43.6727608" lon="12.3671426"><ele>569.25</ele><time>2026-03-22T12:24:47.974Z</time></trkpt><trkpt lat="43.6728637" lon="12.3670965"><ele>575.5</ele><time>2026-03-22T12:24:48.973Z</time></trkpt><trkpt lat="43.6729734" lon="12.3670878"><ele>581.75</ele><time>2026-03-22T12:24:49.974Z</time></trkpt><trkpt lat="43.6730798" lon="12.3671186"><ele>588.0</ele><time>2026-03-22T12:24:50.974Z</time></trkpt><trkpt lat="43.6731937" lon="12.3671921"><ele>580.3333333333334</ele><time>2026-03-22T12:24:51.973Z</time></trkpt><trkpt lat="43.6733157" lon="12.3673049"><ele>572.6666666666667</ele><time>2026-03-22T12:24:52.973Z</time></trkpt><trkpt lat="43.6734505" lon="12.3674341"><ele>565.0</ele><time>2026-03-22T12:24:53.974Z</time></trkpt><trkpt lat="43.6736052" lon="12.3675621"><ele>571.3333333333334</ele><time>2026-03-22T12:24:54.975Z</time></trkpt><trkpt lat="43.6737641" lon="12.3676842"><ele>577.6666666666666</ele><time>2026-03-22T12:24:55.975Z</time></trkpt><trkpt lat="43.6739012" lon="12.3677865"><ele>584.0</ele><time>2026-03-22T12:24:56.974Z</time></trkpt><trkpt lat="43.6740207" lon="12.3678829"><ele>584.0</ele><time>2026-03-22T12:24:57.974Z</time></trkpt><trkpt lat="43.6741239" lon="12.3679921"><ele>584.0</ele><time>2026-03-22T12:24:58.975Z</time></trkpt><trkpt lat="43.6742049" lon="12.3681007"><ele>584.0</ele><time>2026-03-22T12:24:59.974Z</time></trkpt><trkpt lat="43.674285" lon="12.3681907"><ele>584.0</ele><time>2026-03-22T12:25:00.973Z</time></trkpt><trkpt lat="43.6743616" lon="12.36825"><ele>584.0</ele><time>2026-03-22T12:25:01.974Z</time></trkpt><trkpt lat="43.6744569" lon="12.3682701"><ele>584.6</ele><time>2026-03-22T12:25:02.975Z</time></trkpt><trkpt lat="43.6745642" lon="12.3682603"><ele>585.2</ele><time>2026-03-22T12:25:03.974Z</time></trkpt><trkpt lat="43.6746756" lon="12.3682289"><ele>585.8000000000001</ele><time>2026-03-22T12:25:04.974Z</time></trkpt><trkpt lat="43.6747672" lon="12.3681785"><ele>586.4</ele><time>2026-03-22T12:25:05.974Z</time></trkpt><trkpt lat="43.6748543" lon="12.3680985"><ele>587.0</ele><time>2026-03-22T12:25:06.974Z</time></trkpt><trkpt lat="43.6749508" lon="12.3679922"><ele>587.0</ele><time>2026-03-22T12:25:07.975Z</time></trkpt><trkpt lat="43.6750598" lon="12.3678804"><ele>587.0</ele><time>2026-03-22T12:25:08.974Z</time></trkpt><trkpt lat="43.6751652" lon="12.3678007"><ele>587.0</ele><time>2026-03-22T12:25:09.975Z</time></trkpt><trkpt lat="43.6752785" lon="12.3677516"><ele>587.0</ele><time>2026-03-22T12:25:10.975Z</time></trkpt><trkpt lat="43.6753949" lon="12.3677423"><ele>585.2</ele><time>2026-03-22T12:25:11.974Z</time></trkpt><trkpt lat="43.6755124" lon="12.3677537"><ele>583.4000000000001</ele><time>2026-03-22T12:25:12.975Z</time></trkpt><trkpt lat="43.67561" lon="12.3677658"><ele>581.5999999999999</ele><time>2026-03-22T12:25:13.975Z</time></trkpt><trkpt lat="43.675686" lon="12.3677709"><ele>579.8</ele><time>2026-03-22T12:25:14.974Z</time></trkpt><trkpt lat="43.675783" lon="12.3677216"><ele>578.0</ele><time>2026-03-22T12:25:16.974Z</time></trkpt><trkpt lat="43.6758127" lon="12.3676187"><ele>578.0</ele><time>2026-03-22T12:25:18.974Z</time></trkpt><trkpt lat="43.6757835" lon="12.367425"><ele>578.0</ele><time>2026-03-22T12:25:20.974Z</time></trkpt><trkpt lat="43.675748" lon="12.3672944"><ele>578.0</ele><time>2026-03-22T12:25:21.974Z</time></trkpt><trkpt lat="43.6757003" lon="12.3671852"><ele>578.0</ele><time>2026-03-22T12:25:22.975Z</time></trkpt><trkpt lat="43.6756264" lon="12.3670954"><ele>578.0</ele><time>2026-03-22T12:25:23.974Z</time></trkpt><trkpt lat="43.6755216" lon="12.3669779"><ele>578.25</ele><time>2026-03-22T12:25:24.973Z</time></trkpt><trkpt lat="43.6754342" lon="12.3668458"><ele>578.5</ele><time>2026-03-22T12:25:25.974Z</time></trkpt><trkpt lat="43.6753868" lon="12.3667074"><ele>578.75</ele><time>2026-03-22T12:25:26.973Z</time></trkpt><trkpt lat="43.6753519" lon="12.366532"><ele>579.0</ele><time>2026-03-22T12:25:27.974Z</time></trkpt><trkpt lat="43.6753171" lon="12.3663195"><ele>579.0</ele><time>2026-03-22T12:25:28.975Z</time></trkpt><trkpt lat="43.6752814" lon="12.3661345"><ele>579.0</ele><time>2026-03-22T12:25:29.975Z</time></trkpt><trkpt lat="43.6752588" lon="12.3659895"><ele>579.0</ele><time>2026-03-22T12:25:30.974Z</time></trkpt><trkpt lat="43.6752621" lon="12.3658532"><ele>579.0</ele><time>2026-03-22T12:25:31.974Z</time></trkpt><trkpt lat="43.6752973" lon="12.3657051"><ele>579.0</ele><time>2026-03-22T12:25:32.975Z</time></trkpt><trkpt lat="43.6753568" lon="12.3655321"><ele>579.0</ele><time>2026-03-22T12:25:33.975Z</time></trkpt><trkpt lat="43.6754256" lon="12.365323"><ele>579.0</ele><time>2026-03-22T12:25:34.974Z</time></trkpt><trkpt lat="43.6754895" lon="12.3651153"><ele>581.75</ele><time>2026-03-22T12:25:35.974Z</time></trkpt><trkpt lat="43.6755446" lon="12.3649395"><ele>584.5</ele><time>2026-03-22T12:25:36.974Z</time></trkpt><trkpt lat="43.6755942" lon="12.36478"><ele>587.25</ele><time>2026-03-22T12:25:37.975Z</time></trkpt><trkpt lat="43.6756556" lon="12.3646168"><ele>590.0</ele><time>2026-03-22T12:25:38.975Z</time></trkpt><trkpt lat="43.6757393" lon="12.3644766"><ele>588.0</ele><time>2026-03-22T12:25:39.974Z</time></trkpt><trkpt lat="43.6758541" lon="12.3643458"><ele>586.0</ele><time>2026-03-22T12:25:40.974Z</time></trkpt><trkpt lat="43.6760022" lon="12.3641982"><ele>584.0</ele><time>2026-03-22T12:25:41.975Z</time></trkpt><trkpt lat="43.6761474" lon="12.3640632"><ele>584.0</ele><time>2026-03-22T12:25:42.973Z</time></trkpt><trkpt lat="43.676288" lon="12.3639309"><ele>584.0</ele><time>2026-03-22T12:25:43.975Z</time></trkpt><trkpt lat="43.6764198" lon="12.3638008"><ele>584.0</ele><time>2026-03-22T12:25:44.975Z</time></trkpt><trkpt lat="43.6765253" lon="12.3636987"><ele>586.75</ele><time>2026-03-22T12:25:45.974Z</time></trkpt><trkpt lat="43.6766149" lon="12.3636043"><ele>589.5</ele><time>2026-03-22T12:25:46.975Z</time></trkpt><trkpt lat="43.6766892" lon="12.3634914"><ele>592.25</ele><time>2026-03-22T12:25:47.975Z</time></trkpt><trkpt lat="43.6767408" lon="12.3633484"><ele>595.0</ele><time>2026-03-22T12:25:48.974Z</time></trkpt><trkpt lat="43.6767818" lon="12.3631817"><ele>594.0</ele><time>2026-03-22T12:25:49.975Z</time></trkpt><trkpt lat="43.6768331" lon="12.3630269"><ele>593.0</ele><time>2026-03-22T12:25:50.974Z</time></trkpt><trkpt lat="43.6769052" lon="12.3629182"><ele>592.0</ele><time>2026-03-22T12:25:51.975Z</time></trkpt><trkpt lat="43.6769941" lon="12.3628185"><ele>591.0</ele><time>2026-03-22T12:25:52.975Z</time></trkpt><trkpt lat="43.6770685" lon="12.3627137"><ele>591.0</ele><time>2026-03-22T12:25:53.975Z</time></trkpt><trkpt lat="43.6771527" lon="12.3625615"><ele>591.0</ele><time>2026-03-22T12:25:54.975Z</time></trkpt><trkpt lat="43.6772494" lon="12.3623872"><ele>591.0</ele><time>2026-03-22T12:25:55.974Z</time></trkpt><trkpt lat="43.6773579" lon="12.3622308"><ele>596.75</ele><time>2026-03-22T12:25:56.974Z</time></trkpt><trkpt lat="43.6774678" lon="12.3621085"><ele>602.5</ele><time>2026-03-22T12:25:57.975Z</time></trkpt><trkpt lat="43.6775685" lon="12.3620018"><ele>608.25</ele><time>2026-03-22T12:25:58.974Z</time></trkpt><trkpt lat="43.677658" lon="12.3619013"><ele>614.0</ele><time>2026-03-22T12:25:59.975Z</time></trkpt><trkpt lat="43.6777545" lon="12.3618109"><ele>611.75</ele><time>2026-03-22T12:26:00.975Z</time></trkpt><trkpt lat="43.6778681" lon="12.3617468"><ele>609.5</ele><time>2026-03-22T12:26:01.973Z</time></trkpt><trkpt lat="43.678005" lon="12.3617091"><ele>607.25</ele><time>2026-03-22T12:26:02.974Z</time></trkpt><trkpt lat="43.6781728" lon="12.3616655"><ele>605.0</ele><time>2026-03-22T12:26:03.974Z</time></trkpt><trkpt lat="43.6783522" lon="12.3616028"><ele>605.0</ele><time>2026-03-22T12:26:04.975Z</time></trkpt><trkpt lat="43.678515" lon="12.3615649"><ele>605.0</ele><time>2026-03-22T12:26:05.975Z</time></trkpt><trkpt lat="43.6786524" lon="12.3615524"><ele>605.0</ele><time>2026-03-22T12:26:06.975Z</time></trkpt><trkpt lat="43.6787668" lon="12.3615211"><ele>605.0</ele><time>2026-03-22T12:26:07.975Z</time></trkpt><trkpt lat="43.6788791" lon="12.3614726"><ele>610.6666666666666</ele><time>2026-03-22T12:26:08.975Z</time></trkpt><trkpt lat="43.6790162" lon="12.3613541"><ele>616.3333333333334</ele><time>2026-03-22T12:26:09.974Z</time></trkpt><trkpt lat="43.6791591" lon="12.361244"><ele>622.0</ele><time>2026-03-22T12:26:10.975Z</time></trkpt><trkpt lat="43.6793003" lon="12.3611545"><ele>620.0</ele><time>2026-03-22T12:26:11.973Z</time></trkpt><trkpt lat="43.6794459" lon="12.3610616"><ele>618.0</ele><time>2026-03-22T12:26:12.975Z</time></trkpt><trkpt lat="43.6795688" lon="12.3609765"><ele>616.0</ele><time>2026-03-22T12:26:13.974Z</time></trkpt><trkpt lat="43.6796803" lon="12.360907"><ele>614.0</ele><time>2026-03-22T12:26:14.975Z</time></trkpt><trkpt lat="43.6797883" lon="12.3608444"><ele>614.0</ele><time>2026-03-22T12:26:15.975Z</time></trkpt><trkpt lat="43.6798842" lon="12.3607771"><ele>614.0</ele><time>2026-03-22T12:26:16.975Z</time></trkpt><trkpt lat="43.6799527" lon="12.3606738"><ele>614.0</ele><time>2026-03-22T12:26:17.975Z</time></trkpt><trkpt lat="43.6800174" lon="12.360562"><ele>614.0</ele><time>2026-03-22T12:26:18.975Z</time></trkpt><trkpt lat="43.6800791" lon="12.3604655"><ele>614.0</ele><time>2026-03-22T12:26:19.974Z</time></trkpt><trkpt lat="43.6801595" lon="12.3604027"><ele>617.5</ele><time>2026-03-22T12:26:20.974Z</time></trkpt><trkpt lat="43.6802523" lon="12.36038"><ele>621.0</ele><time>2026-03-22T12:26:21.975Z</time></trkpt><trkpt lat="43.6803651" lon="12.3603803"><ele>624.5</ele><time>2026-03-22T12:26:22.975Z</time></trkpt><trkpt lat="43.680505" lon="12.36038"><ele>628.0</ele><time>2026-03-22T12:26:23.975Z</time></trkpt><trkpt lat="43.6806502" lon="12.3603726"><ele>628.0</ele><time>2026-03-22T12:26:24.975Z</time></trkpt><trkpt lat="43.6807966" lon="12.3603539"><ele>628.0</ele><time>2026-03-22T12:26:25.975Z</time></trkpt><trkpt lat="43.6809553" lon="12.3603321"><ele>628.0</ele><time>2026-03-22T12:26:26.974Z</time></trkpt><trkpt lat="43.6811145" lon="12.3603198"><ele>629.25</ele><time>2026-03-22T12:26:27.973Z</time></trkpt><trkpt lat="43.6812544" lon="12.3603165"><ele>630.5</ele><time>2026-03-22T12:26:28.975Z</time></trkpt><trkpt lat="43.6813779" lon="12.3603003"><ele>631.75</ele><time>2026-03-22T12:26:29.975Z</time></trkpt><trkpt lat="43.6814975" lon="12.3602607"><ele>633.0</ele><time>2026-03-22T12:26:30.975Z</time></trkpt><trkpt lat="43.6816109" lon="12.3601884"><ele>633.0</ele><time>2026-03-22T12:26:31.974Z</time></trkpt><trkpt lat="43.6817372" lon="12.3600991"><ele>633.0</ele><time>2026-03-22T12:26:32.975Z</time></trkpt><trkpt lat="43.6818825" lon="12.360027"><ele>633.0</ele><time>2026-03-22T12:26:33.973Z</time></trkpt><trkpt lat="43.6820256" lon="12.3599897"><ele>633.0</ele><time>2026-03-22T12:26:34.974Z</time></trkpt><trkpt lat="43.6821468" lon="12.359978"><ele>631.8333333333334</ele><time>2026-03-22T12:26:35.974Z</time></trkpt><trkpt lat="43.6822497" lon="12.3599749"><ele>630.6666666666666</ele><time>2026-03-22T12:26:36.975Z</time></trkpt><trkpt lat="43.6823433" lon="12.35996"><ele>629.5</ele><time>2026-03-22T12:26:37.974Z</time></trkpt><trkpt lat="43.682423" lon="12.3599529"><ele>628.3333333333333</ele><time>2026-03-22T12:26:38.974Z</time></trkpt><trkpt lat="43.6824853" lon="12.359966"><ele>627.1666666666666</ele><time>2026-03-22T12:26:39.975Z</time></trkpt><trkpt lat="43.6825742" lon="12.3600358"><ele>626.0</ele><time>2026-03-22T12:26:41.975Z</time></trkpt><trkpt lat="43.682626" lon="12.3600998"><ele>626.0</ele><time>2026-03-22T12:26:42.974Z</time></trkpt><trkpt lat="43.6826938" lon="12.3602076"><ele>626.0</ele><time>2026-03-22T12:26:43.974Z</time></trkpt><trkpt lat="43.6827568" lon="12.360335"><ele>626.0</ele><time>2026-03-22T12:26:44.973Z</time></trkpt><trkpt lat="43.6827956" lon="12.3604625"><ele>626.0</ele><time>2026-03-22T12:26:45.975Z</time></trkpt><trkpt lat="43.6828172" lon="12.3605947"><ele>626.0</ele><time>2026-03-22T12:26:46.974Z</time></trkpt><trkpt lat="43.6828304" lon="12.3607389"><ele>624.2</ele><time>2026-03-22T12:26:47.974Z</time></trkpt><trkpt lat="43.6828319" lon="12.3608797"><ele>622.4000000000001</ele><time>2026-03-22T12:26:48.974Z</time></trkpt><trkpt lat="43.6828244" lon="12.3610135"><ele>620.6</ele><time>2026-03-22T12:26:49.974Z</time></trkpt><trkpt lat="43.6828066" lon="12.3611496"><ele>618.8000000000001</ele><time>2026-03-22T12:26:50.974Z</time></trkpt><trkpt lat="43.6827711" lon="12.3612852"><ele>617.0</ele><time>2026-03-22T12:26:51.974Z</time></trkpt><trkpt lat="43.6827229" lon="12.3614068"><ele>617.0</ele><time>2026-03-22T12:26:52.975Z</time></trkpt><trkpt lat="43.682676" lon="12.3615076"><ele>617.0</ele><time>2026-03-22T12:26:53.975Z</time></trkpt><trkpt lat="43.6826404" lon="12.361609"><ele>617.0</ele><time>2026-03-22T12:26:54.975Z</time></trkpt><trkpt lat="43.682627" lon="12.3617317"><ele>617.0</ele><time>2026-03-22T12:26:55.974Z</time></trkpt><trkpt lat="43.6826398" lon="12.361865"><ele>617.0</ele><time>2026-03-22T12:26:56.975Z</time></trkpt><trkpt lat="43.6826762" lon="12.3620031"><ele>617.0</ele><time>2026-03-22T12:26:57.975Z</time></trkpt><trkpt lat="43.6827283" lon="12.3621264"><ele>617.0</ele><time>2026-03-22T12:26:58.974Z</time></trkpt><trkpt lat="43.682799" lon="12.362228"><ele>617.0</ele><time>2026-03-22T12:26:59.975Z</time></trkpt><trkpt lat="43.6828839" lon="12.3623168"><ele>617.0</ele><time>2026-03-22T12:27:00.973Z</time></trkpt><trkpt lat="43.6829662" lon="12.3623878"><ele>617.0</ele><time>2026-03-22T12:27:01.975Z</time></trkpt><trkpt lat="43.6830748" lon="12.3624462"><ele>615.4</ele><time>2026-03-22T12:27:02.975Z</time></trkpt><trkpt lat="43.6831698" lon="12.3624929"><ele>613.8000000000001</ele><time>2026-03-22T12:27:03.974Z</time></trkpt><trkpt lat="43.6832568" lon="12.3625668"><ele>612.2</ele><time>2026-03-22T12:27:04.975Z</time></trkpt><trkpt lat="43.6833343" lon="12.3626795"><ele>610.6</ele><time>2026-03-22T12:27:05.975Z</time></trkpt><trkpt lat="43.6834076" lon="12.3628212"><ele>609.0</ele><time>2026-03-22T12:27:06.975Z</time></trkpt><trkpt lat="43.6834755" lon="12.3629487"><ele>608.0</ele><time>2026-03-22T12:27:07.975Z</time></trkpt><trkpt lat="43.6835475" lon="12.363048"><ele>607.0</ele><time>2026-03-22T12:27:08.974Z</time></trkpt><trkpt lat="43.6836385" lon="12.3631165"><ele>606.0</ele><time>2026-03-22T12:27:09.975Z</time></trkpt><trkpt lat="43.6837488" lon="12.3631716"><ele>605.0</ele><time>2026-03-22T12:27:10.974Z</time></trkpt><trkpt lat="43.6838473" lon="12.363223"><ele>604.0</ele><time>2026-03-22T12:27:11.975Z</time></trkpt><trkpt lat="43.6839296" lon="12.3632815"><ele>604.0</ele><time>2026-03-22T12:27:12.975Z</time></trkpt><trkpt lat="43.6839983" lon="12.3633227"><ele>604.0</ele><time>2026-03-22T12:27:13.975Z</time></trkpt><trkpt lat="43.6840561" lon="12.3633688"><ele>604.0</ele><time>2026-03-22T12:27:14.975Z</time></trkpt><trkpt lat="43.6841318" lon="12.3635308"><ele>604.0</ele><time>2026-03-22T12:27:16.974Z</time></trkpt><trkpt lat="43.684151" lon="12.3636541"><ele>604.0</ele><time>2026-03-22T12:27:17.974Z</time></trkpt><trkpt lat="43.6841712" lon="12.3638111"><ele>604.25</ele><time>2026-03-22T12:27:18.975Z</time></trkpt><trkpt lat="43.6842044" lon="12.3640028"><ele>604.5</ele><time>2026-03-22T12:27:19.975Z</time></trkpt><trkpt lat="43.6842457" lon="12.3641851"><ele>604.75</ele><time>2026-03-22T12:27:20.973Z</time></trkpt><trkpt lat="43.6842832" lon="12.3643372"><ele>605.0</ele><time>2026-03-22T12:27:21.974Z</time></trkpt><trkpt lat="43.6843276" lon="12.3644804"><ele>605.0</ele><time>2026-03-22T12:27:22.974Z</time></trkpt><trkpt lat="43.6843826" lon="12.3646267"><ele>605.0</ele><time>2026-03-22T12:27:23.975Z</time></trkpt><trkpt lat="43.6844255" lon="12.3647751"><ele>605.0</ele><time>2026-03-22T12:27:24.974Z</time></trkpt><trkpt lat="43.684454" lon="12.3649234"><ele>605.0</ele><time>2026-03-22T12:27:25.975Z</time></trkpt><trkpt lat="43.6844785" lon="12.3650775"><ele>607.2</ele><time>2026-03-22T12:27:26.975Z</time></trkpt><trkpt lat="43.6845038" lon="12.3652211"><ele>609.4</ele><time>2026-03-22T12:27:27.974Z</time></trkpt><trkpt lat="43.6845351" lon="12.3653368"><ele>611.6</ele><time>2026-03-22T12:27:28.974Z</time></trkpt><trkpt lat="43.6845803" lon="12.3654642"><ele>613.8</ele><time>2026-03-22T12:27:29.974Z</time></trkpt><trkpt lat="43.6846239" lon="12.3655774"><ele>616.0</ele><time>2026-03-22T12:27:30.975Z</time></trkpt><trkpt lat="43.6846757" lon="12.3656867"><ele>616.0</ele><time>2026-03-22T12:27:31.974Z</time></trkpt><trkpt lat="43.6847458" lon="12.3657987"><ele>616.0</ele><time>2026-03-22T12:27:32.974Z</time></trkpt><trkpt lat="43.6848336" lon="12.3659101"><ele>616.0</ele><time>2026-03-22T12:27:33.974Z</time></trkpt><trkpt lat="43.6849288" lon="12.3660038"><ele>616.0</ele><time>2026-03-22T12:27:34.975Z</time></trkpt><trkpt lat="43.6850293" lon="12.3660739"><ele>616.0</ele><time>2026-03-22T12:27:35.974Z</time></trkpt><trkpt lat="43.6851428" lon="12.3661317"><ele>616.0</ele><time>2026-03-22T12:27:36.975Z</time></trkpt><trkpt lat="43.6852789" lon="12.3661783"><ele>616.0</ele><time>2026-03-22T12:27:37.974Z</time></trkpt><trkpt lat="43.6853972" lon="12.3662188"><ele>616.0</ele><time>2026-03-22T12:27:38.975Z</time></trkpt><trkpt lat="43.685482" lon="12.3662944"><ele>615.0</ele><time>2026-03-22T12:27:39.974Z</time></trkpt><trkpt lat="43.6855675" lon="12.3663557"><ele>614.0</ele><time>2026-03-22T12:27:40.975Z</time></trkpt><trkpt lat="43.68565" lon="12.3664079"><ele>613.0</ele><time>2026-03-22T12:27:41.974Z</time></trkpt><trkpt lat="43.6857614" lon="12.3664638"><ele>612.0</ele><time>2026-03-22T12:27:42.974Z</time></trkpt><trkpt lat="43.6858693" lon="12.3665256"><ele>611.0</ele><time>2026-03-22T12:27:43.975Z</time></trkpt><trkpt lat="43.6859576" lon="12.3665852"><ele>610.6</ele><time>2026-03-22T12:27:44.974Z</time></trkpt><trkpt lat="43.6860405" lon="12.366647"><ele>610.2</ele><time>2026-03-22T12:27:45.975Z</time></trkpt><trkpt lat="43.6861151" lon="12.3667207"><ele>609.8</ele><time>2026-03-22T12:27:46.975Z</time></trkpt><trkpt lat="43.6861662" lon="12.3668142"><ele>609.4</ele><time>2026-03-22T12:27:47.974Z</time></trkpt><trkpt lat="43.6862031" lon="12.3669341"><ele>609.0</ele><time>2026-03-22T12:27:48.975Z</time></trkpt><trkpt lat="43.6862233" lon="12.3670835"><ele>610.25</ele><time>2026-03-22T12:27:49.974Z</time></trkpt><trkpt lat="43.6862615" lon="12.3672486"><ele>611.5</ele><time>2026-03-22T12:27:50.974Z</time></trkpt><trkpt lat="43.6863123" lon="12.3674202"><ele>612.75</ele><time>2026-03-22T12:27:51.975Z</time></trkpt><trkpt lat="43.6863712" lon="12.3675974"><ele>614.0</ele><time>2026-03-22T12:27:52.975Z</time></trkpt><trkpt lat="43.6864292" lon="12.3677438"><ele>614.0</ele><time>2026-03-22T12:27:53.975Z</time></trkpt><trkpt lat="43.6865013" lon="12.3678972"><ele>614.0</ele><time>2026-03-22T12:27:54.974Z</time></trkpt><trkpt lat="43.6865969" lon="12.3680769"><ele>614.0</ele><time>2026-03-22T12:27:55.975Z</time></trkpt><trkpt lat="43.6866894" lon="12.368248"><ele>614.0</ele><time>2026-03-22T12:27:56.974Z</time></trkpt><trkpt lat="43.6867723" lon="12.3683976"><ele>613.2</ele><time>2026-03-22T12:27:57.975Z</time></trkpt><trkpt lat="43.6868501" lon="12.368528"><ele>612.4</ele><time>2026-03-22T12:27:58.974Z</time></trkpt><trkpt lat="43.6869304" lon="12.3686411"><ele>611.6</ele><time>2026-03-22T12:27:59.975Z</time></trkpt><trkpt lat="43.6870093" lon="12.3687284"><ele>610.8</ele><time>2026-03-22T12:28:00.975Z</time></trkpt><trkpt lat="43.6870966" lon="12.3687903"><ele>610.0</ele><time>2026-03-22T12:28:01.975Z</time></trkpt><trkpt lat="43.6872035" lon="12.3688275"><ele>609.6</ele><time>2026-03-22T12:28:02.973Z</time></trkpt><trkpt lat="43.6873098" lon="12.3688477"><ele>609.2</ele><time>2026-03-22T12:28:03.974Z</time></trkpt><trkpt lat="43.6874027" lon="12.3688796"><ele>608.8</ele><time>2026-03-22T12:28:04.974Z</time></trkpt><trkpt lat="43.6874949" lon="12.3689402"><ele>608.4</ele><time>2026-03-22T12:28:05.974Z</time></trkpt><trkpt lat="43.6875877" lon="12.3690284"><ele>608.0</ele><time>2026-03-22T12:28:06.973Z</time></trkpt><trkpt lat="43.6876797" lon="12.3691038"><ele>604.5</ele><time>2026-03-22T12:28:07.974Z</time></trkpt><trkpt lat="43.6878056" lon="12.3691688"><ele>601.0</ele><time>2026-03-22T12:28:08.975Z</time></trkpt><trkpt lat="43.6879421" lon="12.3692396"><ele>597.5</ele><time>2026-03-22T12:28:09.974Z</time></trkpt><trkpt lat="43.6880696" lon="12.3693173"><ele>594.0</ele><time>2026-03-22T12:28:10.975Z</time></trkpt><trkpt lat="43.6881882" lon="12.3694189"><ele>594.0</ele><time>2026-03-22T12:28:11.974Z</time></trkpt><trkpt lat="43.6883014" lon="12.3695511"><ele>594.0</ele><time>2026-03-22T12:28:12.974Z</time></trkpt><trkpt lat="43.6884134" lon="12.3697046"><ele>594.0</ele><time>2026-03-22T12:28:13.975Z</time></trkpt><trkpt lat="43.6885129" lon="12.3698459"><ele>594.0</ele><time>2026-03-22T12:28:14.974Z</time></trkpt><trkpt lat="43.6885944" lon="12.3699792"><ele>593.75</ele><time>2026-03-22T12:28:15.974Z</time></trkpt><trkpt lat="43.6886528" lon="12.3701246"><ele>593.5</ele><time>2026-03-22T12:28:16.975Z</time></trkpt><trkpt lat="43.6886932" lon="12.3702934"><ele>593.25</ele><time>2026-03-22T12:28:17.974Z</time></trkpt><trkpt lat="43.6887204" lon="12.3704977"><ele>593.0</ele><time>2026-03-22T12:28:18.975Z</time></trkpt><trkpt lat="43.6887349" lon="12.370719"><ele>593.5</ele><time>2026-03-22T12:28:19.975Z</time></trkpt><trkpt lat="43.6887474" lon="12.3709069"><ele>594.0</ele><time>2026-03-22T12:28:20.975Z</time></trkpt><trkpt lat="43.6887454" lon="12.3710822"><ele>594.5</ele><time>2026-03-22T12:28:21.974Z</time></trkpt><trkpt lat="43.6887443" lon="12.3712523"><ele>595.0</ele><time>2026-03-22T12:28:22.974Z</time></trkpt><trkpt lat="43.6887286" lon="12.3714017"><ele>594.2</ele><time>2026-03-22T12:28:23.975Z</time></trkpt><trkpt lat="43.6886955" lon="12.3715381"><ele>593.4</ele><time>2026-03-22T12:28:24.975Z</time></trkpt><trkpt lat="43.6886546" lon="12.3716679"><ele>592.6</ele><time>2026-03-22T12:28:25.974Z</time></trkpt><trkpt lat="43.6886209" lon="12.3718025"><ele>591.8</ele><time>2026-03-22T12:28:26.974Z</time></trkpt><trkpt lat="43.6886005" lon="12.3719419"><ele>591.0</ele><time>2026-03-22T12:28:27.975Z</time></trkpt><trkpt lat="43.6885966" lon="12.3720666"><ele>591.0</ele><time>2026-03-22T12:28:28.975Z</time></trkpt><trkpt lat="43.6886166" lon="12.3721852"><ele>591.0</ele><time>2026-03-22T12:28:29.975Z</time></trkpt><trkpt lat="43.6886626" lon="12.3723083"><ele>591.0</ele><time>2026-03-22T12:28:30.975Z</time></trkpt><trkpt lat="43.6887233" lon="12.3724424"><ele>591.0</ele><time>2026-03-22T12:28:31.974Z</time></trkpt><trkpt lat="43.6887842" lon="12.372577"><ele>591.0</ele><time>2026-03-22T12:28:32.975Z</time></trkpt><trkpt lat="43.6888556" lon="12.3727222"><ele>589.75</ele><time>2026-03-22T12:28:33.974Z</time></trkpt><trkpt lat="43.6889341" lon="12.3728803"><ele>588.5</ele><time>2026-03-22T12:28:34.975Z</time></trkpt><trkpt lat="43.6890056" lon="12.3730254"><ele>587.25</ele><time>2026-03-22T12:28:35.973Z</time></trkpt><trkpt lat="43.6890705" lon="12.3731697"><ele>586.0</ele><time>2026-03-22T12:28:36.974Z</time></trkpt><trkpt lat="43.689121" lon="12.3732941"><ele>583.6666666666667</ele><time>2026-03-22T12:28:37.975Z</time></trkpt><trkpt lat="43.6891457" lon="12.3734119"><ele>581.3333333333334</ele><time>2026-03-22T12:28:38.974Z</time></trkpt><trkpt lat="43.689155" lon="12.3735143"><ele>579.0</ele><time>2026-03-22T12:28:39.974Z</time></trkpt><trkpt lat="43.6891583" lon="12.3736066"><ele>576.6666666666666</ele><time>2026-03-22T12:28:40.974Z</time></trkpt><trkpt lat="43.6891355" lon="12.3737398"><ele>574.3333333333333</ele><time>2026-03-22T12:28:42.974Z</time></trkpt><trkpt lat="43.6891321" lon="12.3738549"><ele>572.0</ele><time>2026-03-22T12:28:44.975Z</time></trkpt><trkpt lat="43.6891505" lon="12.373969"><ele>571.3333333333333</ele><time>2026-03-22T12:28:46.975Z</time></trkpt><trkpt lat="43.6891862" lon="12.3740501"><ele>570.6666666666666</ele><time>2026-03-22T12:28:54.975Z</time></trkpt><trkpt lat="43.6892363" lon="12.3741786"><ele>570.0</ele><time>2026-03-22T12:28:56.975Z</time></trkpt><trkpt lat="43.6892579" lon="12.3742719"><ele>569.3333333333334</ele><time>2026-03-22T12:28:57.975Z</time></trkpt><trkpt lat="43.689282" lon="12.3743714"><ele>568.6666666666667</ele><time>2026-03-22T12:28:58.974Z</time></trkpt><trkpt lat="43.6893113" lon="12.3744796"><ele>568.0</ele><time>2026-03-22T12:28:59.975Z</time></trkpt><trkpt lat="43.6893465" lon="12.3745945"><ele>569.0</ele><time>2026-03-22T12:29:00.974Z</time></trkpt><trkpt lat="43.689377" lon="12.3747193"><ele>570.0</ele><time>2026-03-22T12:29:01.975Z</time></trkpt><trkpt lat="43.6894152" lon="12.3748532"><ele>571.0</ele><time>2026-03-22T12:29:02.975Z</time></trkpt><trkpt lat="43.6894546" lon="12.3750159"><ele>572.0</ele><time>2026-03-22T12:29:03.975Z</time></trkpt><trkpt lat="43.6894943" lon="12.375191"><ele>570.5</ele><time>2026-03-22T12:29:04.975Z</time></trkpt><trkpt lat="43.6895452" lon="12.3753738"><ele>569.0</ele><time>2026-03-22T12:29:05.975Z</time></trkpt><trkpt lat="43.6895988" lon="12.3755669"><ele>567.5</ele><time>2026-03-22T12:29:06.973Z</time></trkpt><trkpt lat="43.6896479" lon="12.3757736"><ele>566.0</ele><time>2026-03-22T12:29:07.974Z</time></trkpt><trkpt lat="43.6896867" lon="12.3759839"><ele>566.0</ele><time>2026-03-22T12:29:08.975Z</time></trkpt><trkpt lat="43.6897224" lon="12.376207"><ele>566.0</ele><time>2026-03-22T12:29:09.975Z</time></trkpt><trkpt lat="43.6897606" lon="12.3764185"><ele>566.0</ele><time>2026-03-22T12:29:10.973Z</time></trkpt><trkpt lat="43.689819" lon="12.3766287"><ele>568.3333333333333</ele><time>2026-03-22T12:29:11.973Z</time></trkpt><trkpt lat="43.6898968" lon="12.3768428"><ele>570.6666666666666</ele><time>2026-03-22T12:29:12.975Z</time></trkpt><trkpt lat="43.6899864" lon="12.377033"><ele>573.0</ele><time>2026-03-22T12:29:13.974Z</time></trkpt><trkpt lat="43.6900836" lon="12.3772112"><ele>573.0</ele><time>2026-03-22T12:29:14.974Z</time></trkpt><trkpt lat="43.6901788" lon="12.3773998"><ele>573.0</ele><time>2026-03-22T12:29:15.975Z</time></trkpt><trkpt lat="43.6902621" lon="12.3776004"><ele>573.0</ele><time>2026-03-22T12:29:16.975Z</time></trkpt><trkpt lat="43.6903467" lon="12.3778296"><ele>570.3333333333334</ele><time>2026-03-22T12:29:17.975Z</time></trkpt><trkpt lat="43.6904282" lon="12.3780506"><ele>567.6666666666667</ele><time>2026-03-22T12:29:18.974Z</time></trkpt><trkpt lat="43.6905103" lon="12.3782791"><ele>565.0</ele><time>2026-03-22T12:29:19.975Z</time></trkpt><trkpt lat="43.6905884" lon="12.3784968"><ele>565.0</ele><time>2026-03-22T12:29:20.975Z</time></trkpt><trkpt lat="43.6906659" lon="12.3787093"><ele>565.0</ele><time>2026-03-22T12:29:21.974Z</time></trkpt><trkpt lat="43.6907408" lon="12.3789105"><ele>565.0</ele><time>2026-03-22T12:29:22.974Z</time></trkpt><trkpt lat="43.6908311" lon="12.3791245"><ele>561.0</ele><time>2026-03-22T12:29:23.974Z</time></trkpt><trkpt lat="43.6909314" lon="12.3793684"><ele>557.0</ele><time>2026-03-22T12:29:24.974Z</time></trkpt><trkpt lat="43.6910374" lon="12.3796396"><ele>553.0</ele><time>2026-03-22T12:29:25.974Z</time></trkpt><trkpt lat="43.6911391" lon="12.3799032"><ele>553.6666666666667</ele><time>2026-03-22T12:29:26.975Z</time></trkpt><trkpt lat="43.6912461" lon="12.3801656"><ele>554.3333333333334</ele><time>2026-03-22T12:29:27.974Z</time></trkpt><trkpt lat="43.6913495" lon="12.3804213"><ele>555.0</ele><time>2026-03-22T12:29:28.973Z</time></trkpt><trkpt lat="43.6914496" lon="12.3806743"><ele>555.0</ele><time>2026-03-22T12:29:29.975Z</time></trkpt><trkpt lat="43.6915458" lon="12.3809249"><ele>555.0</ele><time>2026-03-22T12:29:30.974Z</time></trkpt><trkpt lat="43.691634" lon="12.3811616"><ele>555.0</ele><time>2026-03-22T12:29:31.975Z</time></trkpt><trkpt lat="43.6917101" lon="12.3813751"><ele>559.6666666666666</ele><time>2026-03-22T12:29:32.974Z</time></trkpt><trkpt lat="43.6917794" lon="12.3815964"><ele>564.3333333333333</ele><time>2026-03-22T12:29:33.974Z</time></trkpt><trkpt lat="43.6918354" lon="12.3818138"><ele>569.0</ele><time>2026-03-22T12:29:34.975Z</time></trkpt><trkpt lat="43.6918782" lon="12.382005"><ele>571.5</ele><time>2026-03-22T12:29:35.974Z</time></trkpt><trkpt lat="43.691931" lon="12.3821928"><ele>574.0</ele><time>2026-03-22T12:29:36.974Z</time></trkpt><trkpt lat="43.6919898" lon="12.3823631"><ele>576.5</ele><time>2026-03-22T12:29:37.973Z</time></trkpt><trkpt lat="43.6920591" lon="12.3825"><ele>579.0</ele><time>2026-03-22T12:29:38.974Z</time></trkpt><trkpt lat="43.6921572" lon="12.3826464"><ele>579.0</ele><time>2026-03-22T12:29:39.974Z</time></trkpt><trkpt lat="43.6922661" lon="12.3827818"><ele>579.0</ele><time>2026-03-22T12:29:40.974Z</time></trkpt><trkpt lat="43.692353" lon="12.3828849"><ele>579.0</ele><time>2026-03-22T12:29:41.973Z</time></trkpt><trkpt lat="43.6924378" lon="12.3829747"><ele>579.0</ele><time>2026-03-22T12:29:42.974Z</time></trkpt><trkpt lat="43.692532" lon="12.3830525"><ele>579.0</ele><time>2026-03-22T12:29:43.975Z</time></trkpt><trkpt lat="43.6926557" lon="12.3831184"><ele>579.0</ele><time>2026-03-22T12:29:44.975Z</time></trkpt><trkpt lat="43.6928061" lon="12.3831786"><ele>579.0</ele><time>2026-03-22T12:29:45.975Z</time></trkpt><trkpt lat="43.6929519" lon="12.3832284"><ele>579.0</ele><time>2026-03-22T12:29:46.974Z</time></trkpt><trkpt lat="43.6930893" lon="12.3832735"><ele>576.75</ele><time>2026-03-22T12:29:47.975Z</time></trkpt><trkpt lat="43.6932189" lon="12.3833338"><ele>574.5</ele><time>2026-03-22T12:29:48.975Z</time></trkpt><trkpt lat="43.6933327" lon="12.3834277"><ele>572.25</ele><time>2026-03-22T12:29:49.973Z</time></trkpt><trkpt lat="43.6934346" lon="12.3835614"><ele>570.0</ele><time>2026-03-22T12:29:50.975Z</time></trkpt><trkpt lat="43.6935393" lon="12.383712"><ele>566.3333333333334</ele><time>2026-03-22T12:29:51.974Z</time></trkpt><trkpt lat="43.6936418" lon="12.383858"><ele>562.6666666666667</ele><time>2026-03-22T12:29:52.975Z</time></trkpt><trkpt lat="43.6937612" lon="12.3839843"><ele>559.0</ele><time>2026-03-22T12:29:53.975Z</time></trkpt><trkpt lat="43.6939025" lon="12.3840924"><ele>559.0</ele><time>2026-03-22T12:29:54.975Z</time></trkpt><trkpt lat="43.6940717" lon="12.3842048"><ele>559.0</ele><time>2026-03-22T12:29:55.973Z</time></trkpt><trkpt lat="43.6942381" lon="12.3843172"><ele>559.0</ele><time>2026-03-22T12:29:56.974Z</time></trkpt><trkpt lat="43.6943834" lon="12.3844149"><ele>557.6666666666667</ele><time>2026-03-22T12:29:57.975Z</time></trkpt><trkpt lat="43.6945328" lon="12.3844986"><ele>556.3333333333334</ele><time>2026-03-22T12:29:58.975Z</time></trkpt><trkpt lat="43.6946905" lon="12.3845723"><ele>555.0</ele><time>2026-03-22T12:29:59.975Z</time></trkpt><trkpt lat="43.694874" lon="12.3846564"><ele>555.0</ele><time>2026-03-22T12:30:00.975Z</time></trkpt><trkpt lat="43.6950733" lon="12.3847425"><ele>555.0</ele><time>2026-03-22T12:30:01.975Z</time></trkpt><trkpt lat="43.6953032" lon="12.3848442"><ele>555.6666666666666</ele><time>2026-03-22T12:30:02.974Z</time></trkpt><trkpt lat="43.6955181" lon="12.3849478"><ele>556.3333333333333</ele><time>2026-03-22T12:30:03.975Z</time></trkpt><trkpt lat="43.6956988" lon="12.3850371"><ele>557.0</ele><time>2026-03-22T12:30:04.974Z</time></trkpt><trkpt lat="43.6958603" lon="12.3851086"><ele>557.0</ele><time>2026-03-22T12:30:05.975Z</time></trkpt><trkpt lat="43.6960008" lon="12.3851738"><ele>557.0</ele><time>2026-03-22T12:30:06.973Z</time></trkpt><trkpt lat="43.6961178" lon="12.3852345"><ele>557.0</ele><time>2026-03-22T12:30:07.974Z</time></trkpt><trkpt lat="43.6962156" lon="12.3852988"><ele>557.0</ele><time>2026-03-22T12:30:08.974Z</time></trkpt><trkpt lat="43.6962967" lon="12.3853817"><ele>557.0</ele><time>2026-03-22T12:30:09.975Z</time></trkpt><trkpt lat="43.6963628" lon="12.3854925"><ele>557.0</ele><time>2026-03-22T12:30:10.974Z</time></trkpt><trkpt lat="43.6964144" lon="12.385624"><ele>557.0</ele><time>2026-03-22T12:30:11.975Z</time></trkpt><trkpt lat="43.696473" lon="12.3858001"><ele>557.0</ele><time>2026-03-22T12:30:12.973Z</time></trkpt><trkpt lat="43.6965334" lon="12.3859916"><ele>557.0</ele><time>2026-03-22T12:30:13.974Z</time></trkpt><trkpt lat="43.6966075" lon="12.3862061"><ele>557.0</ele><time>2026-03-22T12:30:14.975Z</time></trkpt><trkpt lat="43.6966775" lon="12.3863981"><ele>557.0</ele><time>2026-03-22T12:30:15.975Z</time></trkpt><trkpt lat="43.6967368" lon="12.3865768"><ele>558.0</ele><time>2026-03-22T12:30:16.975Z</time></trkpt><trkpt lat="43.6968012" lon="12.3867732"><ele>559.0</ele><time>2026-03-22T12:30:17.975Z</time></trkpt><trkpt lat="43.6968553" lon="12.3869919"><ele>560.0</ele><time>2026-03-22T12:30:18.974Z</time></trkpt><trkpt lat="43.6969048" lon="12.3872485"><ele>561.0</ele><time>2026-03-22T12:30:19.975Z</time></trkpt><trkpt lat="43.6969595" lon="12.3875164"><ele>562.0</ele><time>2026-03-22T12:30:20.975Z</time></trkpt><trkpt lat="43.6970174" lon="12.3877952"><ele>563.0</ele><time>2026-03-22T12:30:21.975Z</time></trkpt><trkpt lat="43.6970709" lon="12.3880504"><ele>563.0</ele><time>2026-03-22T12:30:22.974Z</time></trkpt><trkpt lat="43.6971203" lon="12.3882848"><ele>563.0</ele><time>2026-03-22T12:30:23.974Z</time></trkpt><trkpt lat="43.6971756" lon="12.388521"><ele>563.0</ele><time>2026-03-22T12:30:24.975Z</time></trkpt><trkpt lat="43.6972417" lon="12.3887603"><ele>567.0</ele><time>2026-03-22T12:30:25.975Z</time></trkpt><trkpt lat="43.6973146" lon="12.3889749"><ele>571.0</ele><time>2026-03-22T12:30:26.975Z</time></trkpt><trkpt lat="43.6973998" lon="12.3891922"><ele>575.0</ele><time>2026-03-22T12:30:27.973Z</time></trkpt><trkpt lat="43.6974889" lon="12.3894018"><ele>575.0</ele><time>2026-03-22T12:30:28.975Z</time></trkpt><trkpt lat="43.6975741" lon="12.389587"><ele>575.0</ele><time>2026-03-22T12:30:29.975Z</time></trkpt><trkpt lat="43.6976509" lon="12.3897648"><ele>575.0</ele><time>2026-03-22T12:30:30.975Z</time></trkpt><trkpt lat="43.6977125" lon="12.3899334"><ele>575.0</ele><time>2026-03-22T12:30:31.973Z</time></trkpt><trkpt lat="43.6977574" lon="12.3900928"><ele>575.2</ele><time>2026-03-22T12:30:32.975Z</time></trkpt><trkpt lat="43.6977776" lon="12.3902497"><ele>575.4</ele><time>2026-03-22T12:30:33.975Z</time></trkpt><trkpt lat="43.6977684" lon="12.3904062"><ele>575.6</ele><time>2026-03-22T12:30:34.975Z</time></trkpt><trkpt lat="43.6977334" lon="12.3905417"><ele>575.8</ele><time>2026-03-22T12:30:35.973Z</time></trkpt><trkpt lat="43.6976692" lon="12.3906682"><ele>576.0</ele><time>2026-03-22T12:30:36.974Z</time></trkpt><trkpt lat="43.697613" lon="12.3907778"><ele>574.8</ele><time>2026-03-22T12:30:37.975Z</time></trkpt><trkpt lat="43.697575" lon="12.3908984"><ele>573.6</ele><time>2026-03-22T12:30:38.975Z</time></trkpt><trkpt lat="43.6975654" lon="12.3910161"><ele>572.4</ele><time>2026-03-22T12:30:39.975Z</time></trkpt><trkpt lat="43.6975833" lon="12.39114"><ele>571.2</ele><time>2026-03-22T12:30:40.974Z</time></trkpt><trkpt lat="43.6976196" lon="12.3912972"><ele>570.0</ele><time>2026-03-22T12:30:41.973Z</time></trkpt><trkpt lat="43.6976597" lon="12.3914688"><ele>568.0</ele><time>2026-03-22T12:30:42.974Z</time></trkpt><trkpt lat="43.6976868" lon="12.391637"><ele>566.0</ele><time>2026-03-22T12:30:43.973Z</time></trkpt><trkpt lat="43.6976978" lon="12.3918098"><ele>564.0</ele><time>2026-03-22T12:30:44.975Z</time></trkpt><trkpt lat="43.6976977" lon="12.3919735"><ele>562.0</ele><time>2026-03-22T12:30:45.975Z</time></trkpt><trkpt lat="43.697686" lon="12.392121"><ele>560.0</ele><time>2026-03-22T12:30:46.975Z</time></trkpt><trkpt lat="43.69767" lon="12.3922479"><ele>558.0</ele><time>2026-03-22T12:30:47.974Z</time></trkpt><trkpt lat="43.6976491" lon="12.3923544"><ele>556.0</ele><time>2026-03-22T12:30:48.975Z</time></trkpt><trkpt lat="43.6976221" lon="12.3924414"><ele>554.0</ele><time>2026-03-22T12:30:49.975Z</time></trkpt><trkpt lat="43.6975979" lon="12.3925965"><ele>552.0</ele><time>2026-03-22T12:30:51.975Z</time></trkpt><trkpt lat="43.6976553" lon="12.3927547"><ele>552.0</ele><time>2026-03-22T12:30:53.974Z</time></trkpt><trkpt lat="43.6977293" lon="12.3928435"><ele>552.0</ele><time>2026-03-22T12:30:54.973Z</time></trkpt><trkpt lat="43.6978303" lon="12.3929531"><ele>552.0</ele><time>2026-03-22T12:30:55.975Z</time></trkpt><trkpt lat="43.697926" lon="12.3930761"><ele>552.0</ele><time>2026-03-22T12:30:56.975Z</time></trkpt><trkpt lat="43.6980041" lon="12.3932033"><ele>550.75</ele><time>2026-03-22T12:30:57.975Z</time></trkpt><trkpt lat="43.698082" lon="12.3933469"><ele>549.5</ele><time>2026-03-22T12:30:58.975Z</time></trkpt><trkpt lat="43.6981611" lon="12.393499"><ele>548.25</ele><time>2026-03-22T12:30:59.975Z</time></trkpt><trkpt lat="43.6982337" lon="12.3936376"><ele>547.0</ele><time>2026-03-22T12:31:00.974Z</time></trkpt><trkpt lat="43.6982927" lon="12.3937457"><ele>547.0</ele><time>2026-03-22T12:31:01.974Z</time></trkpt><trkpt lat="43.698339" lon="12.3938291"><ele>547.0</ele><time>2026-03-22T12:31:02.975Z</time></trkpt><trkpt lat="43.6984093" lon="12.393927"><ele>547.0</ele><time>2026-03-22T12:31:04.975Z</time></trkpt><trkpt lat="43.6985087" lon="12.3939361"><ele>547.0</ele><time>2026-03-22T12:31:06.974Z</time></trkpt><trkpt lat="43.6985921" lon="12.3939103"><ele>547.0</ele><time>2026-03-22T12:31:07.973Z</time></trkpt><trkpt lat="43.6987021" lon="12.393874"><ele>544.6</ele><time>2026-03-22T12:31:08.975Z</time></trkpt><trkpt lat="43.6988216" lon="12.393857"><ele>542.2</ele><time>2026-03-22T12:31:09.975Z</time></trkpt><trkpt lat="43.6989126" lon="12.3938605"><ele>539.8</ele><time>2026-03-22T12:31:10.975Z</time></trkpt><trkpt lat="43.6989771" lon="12.3938657"><ele>537.4</ele><time>2026-03-22T12:31:11.975Z</time></trkpt><trkpt lat="43.6990929" lon="12.3938954"><ele>535.0</ele><time>2026-03-22T12:31:13.975Z</time></trkpt><trkpt lat="43.699184" lon="12.3939343"><ele>535.0</ele><time>2026-03-22T12:31:15.974Z</time></trkpt><trkpt lat="43.6992452" lon="12.39398"><ele>535.0</ele><time>2026-03-22T12:31:17.975Z</time></trkpt><trkpt lat="43.6993069" lon="12.3940156"><ele>535.0</ele><time>2026-03-22T12:31:20.975Z</time></trkpt><trkpt lat="43.6993812" lon="12.3940069"><ele>535.0</ele><time>2026-03-22T12:33:08.976Z</time></trkpt><trkpt lat="43.69948" lon="12.3940419"><ele>535.0</ele><time>2026-03-22T12:33:10.975Z</time></trkpt><trkpt lat="43.6995542" lon="12.3940951"><ele>535.0</ele><time>2026-03-22T12:33:11.975Z</time></trkpt><trkpt lat="43.6996378" lon="12.3941829"><ele>532.5</ele><time>2026-03-22T12:33:12.976Z</time></trkpt><trkpt lat="43.699738" lon="12.3943197"><ele>530.0</ele><time>2026-03-22T12:33:13.975Z</time></trkpt><trkpt lat="43.6998509" lon="12.3944701"><ele>527.5</ele><time>2026-03-22T12:33:14.976Z</time></trkpt><trkpt lat="43.6999606" lon="12.3946068"><ele>525.0</ele><time>2026-03-22T12:33:15.975Z</time></trkpt><trkpt lat="43.7000783" lon="12.3947079"><ele>525.0</ele><time>2026-03-22T12:33:16.976Z</time></trkpt><trkpt lat="43.7002152" lon="12.394802"><ele>525.0</ele><time>2026-03-22T12:33:17.976Z</time></trkpt><trkpt lat="43.7003475" lon="12.3948791"><ele>525.0</ele><time>2026-03-22T12:33:18.974Z</time></trkpt><trkpt lat="43.70046" lon="12.3949385"><ele>525.0</ele><time>2026-03-22T12:33:19.976Z</time></trkpt><trkpt lat="43.7005666" lon="12.3949828"><ele>523.5</ele><time>2026-03-22T12:33:20.976Z</time></trkpt><trkpt lat="43.7006674" lon="12.3949702"><ele>522.0</ele><time>2026-03-22T12:33:21.974Z</time></trkpt><trkpt lat="43.7007664" lon="12.3949134"><ele>520.5</ele><time>2026-03-22T12:33:22.975Z</time></trkpt><trkpt lat="43.7008518" lon="12.3948069"><ele>519.0</ele><time>2026-03-22T12:33:23.975Z</time></trkpt><trkpt lat="43.7009389" lon="12.3946484"><ele>516.25</ele><time>2026-03-22T12:33:24.975Z</time></trkpt><trkpt lat="43.7010316" lon="12.3944729"><ele>513.5</ele><time>2026-03-22T12:33:25.976Z</time></trkpt><trkpt lat="43.7010911" lon="12.394289"><ele>510.75</ele><time>2026-03-22T12:33:26.975Z</time></trkpt><trkpt lat="43.701131" lon="12.3941066"><ele>508.0</ele><time>2026-03-22T12:33:27.975Z</time></trkpt><trkpt lat="43.7011606" lon="12.3939015"><ele>510.0</ele><time>2026-03-22T12:33:28.975Z</time></trkpt><trkpt lat="43.7011829" lon="12.3936736"><ele>512.0</ele><time>2026-03-22T12:33:29.976Z</time></trkpt><trkpt lat="43.7011939" lon="12.3934327"><ele>514.0</ele><time>2026-03-22T12:33:30.976Z</time></trkpt><trkpt lat="43.7012005" lon="12.3932041"><ele>512.25</ele><time>2026-03-22T12:33:31.975Z</time></trkpt><trkpt lat="43.7011983" lon="12.3929938"><ele>510.5</ele><time>2026-03-22T12:33:32.976Z</time></trkpt><trkpt lat="43.7011888" lon="12.3927909"><ele>508.75</ele><time>2026-03-22T12:33:33.976Z</time></trkpt><trkpt lat="43.7011618" lon="12.3925927"><ele>507.0</ele><time>2026-03-22T12:33:34.976Z</time></trkpt><trkpt lat="43.7011177" lon="12.3924033"><ele>508.75</ele><time>2026-03-22T12:33:35.975Z</time></trkpt><trkpt lat="43.7010616" lon="12.3922418"><ele>510.5</ele><time>2026-03-22T12:33:36.975Z</time></trkpt><trkpt lat="43.7009882" lon="12.3920856"><ele>512.25</ele><time>2026-03-22T12:33:37.976Z</time></trkpt><trkpt lat="43.7008904" lon="12.3919362"><ele>514.0</ele><time>2026-03-22T12:33:38.976Z</time></trkpt><trkpt lat="43.7007593" lon="12.3918013"><ele>514.0</ele><time>2026-03-22T12:33:39.975Z</time></trkpt><trkpt lat="43.7006265" lon="12.3916704"><ele>514.0</ele><time>2026-03-22T12:33:40.974Z</time></trkpt><trkpt lat="43.700521" lon="12.3915455"><ele>514.0</ele><time>2026-03-22T12:33:41.976Z</time></trkpt><trkpt lat="43.7004305" lon="12.3914047"><ele>514.0</ele><time>2026-03-22T12:33:42.976Z</time></trkpt><trkpt lat="43.700364" lon="12.3912465"><ele>511.33333333333337</ele><time>2026-03-22T12:33:43.976Z</time></trkpt><trkpt lat="43.7003259" lon="12.3910558"><ele>508.66666666666663</ele><time>2026-03-22T12:33:44.976Z</time></trkpt><trkpt lat="43.7003119" lon="12.3908386"><ele>506.0</ele><time>2026-03-22T12:33:45.975Z</time></trkpt><trkpt lat="43.7003077" lon="12.3906253"><ele>506.0</ele><time>2026-03-22T12:33:46.975Z</time></trkpt><trkpt lat="43.7003142" lon="12.3904277"><ele>506.0</ele><time>2026-03-22T12:33:47.975Z</time></trkpt><trkpt lat="43.7003507" lon="12.3902276"><ele>506.0</ele><time>2026-03-22T12:33:48.976Z</time></trkpt><trkpt lat="43.7004213" lon="12.3900338"><ele>506.0</ele><time>2026-03-22T12:33:49.976Z</time></trkpt><trkpt lat="43.7005203" lon="12.3898387"><ele>507.0</ele><time>2026-03-22T12:33:50.975Z</time></trkpt><trkpt lat="43.7006322" lon="12.3896591"><ele>508.0</ele><time>2026-03-22T12:33:51.975Z</time></trkpt><trkpt lat="43.700764" lon="12.3894981"><ele>509.0</ele><time>2026-03-22T12:33:52.974Z</time></trkpt><trkpt lat="43.7009042" lon="12.3893507"><ele>509.0</ele><time>2026-03-22T12:33:53.976Z</time></trkpt><trkpt lat="43.7010412" lon="12.3892293"><ele>509.0</ele><time>2026-03-22T12:33:54.976Z</time></trkpt><trkpt lat="43.7011835" lon="12.3891443"><ele>509.0</ele><time>2026-03-22T12:33:55.976Z</time></trkpt><trkpt lat="43.7013419" lon="12.3891005"><ele>509.0</ele><time>2026-03-22T12:33:56.975Z</time></trkpt><trkpt lat="43.7015156" lon="12.3890956"><ele>509.0</ele><time>2026-03-22T12:33:57.974Z</time></trkpt><trkpt lat="43.7016803" lon="12.3890999"><ele>509.0</ele><time>2026-03-22T12:33:58.975Z</time></trkpt><trkpt lat="43.7018401" lon="12.3890764"><ele>506.3333333333333</ele><time>2026-03-22T12:33:59.975Z</time></trkpt><trkpt lat="43.7020017" lon="12.3890089"><ele>503.66666666666663</ele><time>2026-03-22T12:34:00.975Z</time></trkpt><trkpt lat="43.7021618" lon="12.3888948"><ele>501.0</ele><time>2026-03-22T12:34:01.976Z</time></trkpt><trkpt lat="43.7023209" lon="12.3887665"><ele>507.0</ele><time>2026-03-22T12:34:02.974Z</time></trkpt><trkpt lat="43.7024653" lon="12.3886376"><ele>513.0</ele><time>2026-03-22T12:34:03.975Z</time></trkpt><trkpt lat="43.7026019" lon="12.3885186"><ele>519.0</ele><time>2026-03-22T12:34:04.976Z</time></trkpt><trkpt lat="43.7027414" lon="12.3883934"><ele>519.6666666666666</ele><time>2026-03-22T12:34:05.976Z</time></trkpt><trkpt lat="43.7028797" lon="12.3882569"><ele>520.3333333333333</ele><time>2026-03-22T12:34:06.975Z</time></trkpt><trkpt lat="43.7030161" lon="12.3881156"><ele>521.0</ele><time>2026-03-22T12:34:07.975Z</time></trkpt><trkpt lat="43.7031508" lon="12.3879832"><ele>521.0</ele><time>2026-03-22T12:34:08.975Z</time></trkpt><trkpt lat="43.7032974" lon="12.3878696"><ele>521.0</ele><time>2026-03-22T12:34:09.976Z</time></trkpt><trkpt lat="43.7034527" lon="12.3877646"><ele>521.0</ele><time>2026-03-22T12:34:10.976Z</time></trkpt><trkpt lat="43.7036026" lon="12.3876612"><ele>517.6666666666666</ele><time>2026-03-22T12:34:11.975Z</time></trkpt><trkpt lat="43.7037484" lon="12.3875454"><ele>514.3333333333334</ele><time>2026-03-22T12:34:12.974Z</time></trkpt><trkpt lat="43.7038836" lon="12.3874023"><ele>511.0</ele><time>2026-03-22T12:34:13.975Z</time></trkpt><trkpt lat="43.7040089" lon="12.3872432"><ele>512.6666666666667</ele><time>2026-03-22T12:34:14.976Z</time></trkpt><trkpt lat="43.7041338" lon="12.3870815"><ele>514.3333333333334</ele><time>2026-03-22T12:34:15.976Z</time></trkpt><trkpt lat="43.7042642" lon="12.3869307"><ele>516.0</ele><time>2026-03-22T12:34:16.974Z</time></trkpt><trkpt lat="43.7044086" lon="12.3868044"><ele>516.6666666666666</ele><time>2026-03-22T12:34:17.975Z</time></trkpt><trkpt lat="43.7045646" lon="12.3867017"><ele>517.3333333333333</ele><time>2026-03-22T12:34:18.974Z</time></trkpt><trkpt lat="43.7047262" lon="12.3866196"><ele>518.0</ele><time>2026-03-22T12:34:19.976Z</time></trkpt><trkpt lat="43.7048889" lon="12.3865508"><ele>518.0</ele><time>2026-03-22T12:34:20.975Z</time></trkpt><trkpt lat="43.7050511" lon="12.3864841"><ele>518.0</ele><time>2026-03-22T12:34:21.975Z</time></trkpt><trkpt lat="43.7052102" lon="12.3864245"><ele>518.0</ele><time>2026-03-22T12:34:22.975Z</time></trkpt><trkpt lat="43.7053707" lon="12.3863762"><ele>518.3333333333333</ele><time>2026-03-22T12:34:23.976Z</time></trkpt><trkpt lat="43.7055377" lon="12.3863466"><ele>518.6666666666666</ele><time>2026-03-22T12:34:24.974Z</time></trkpt><trkpt lat="43.7057081" lon="12.3863422"><ele>519.0</ele><time>2026-03-22T12:34:25.976Z</time></trkpt><trkpt lat="43.7058799" lon="12.3863539"><ele>519.0</ele><time>2026-03-22T12:34:26.975Z</time></trkpt><trkpt lat="43.7060494" lon="12.3863843"><ele>519.0</ele><time>2026-03-22T12:34:27.976Z</time></trkpt><trkpt lat="43.7062064" lon="12.3864429"><ele>519.0</ele><time>2026-03-22T12:34:28.974Z</time></trkpt><trkpt lat="43.7063564" lon="12.3865405"><ele>522.75</ele><time>2026-03-22T12:34:29.976Z</time></trkpt><trkpt lat="43.7064989" lon="12.3866532"><ele>526.5</ele><time>2026-03-22T12:34:30.976Z</time></trkpt><trkpt lat="43.7066287" lon="12.3867469"><ele>530.25</ele><time>2026-03-22T12:34:31.974Z</time></trkpt><trkpt lat="43.7067408" lon="12.3868214"><ele>534.0</ele><time>2026-03-22T12:34:32.976Z</time></trkpt><trkpt lat="43.7068198" lon="12.3869252"><ele>534.0</ele><time>2026-03-22T12:34:33.976Z</time></trkpt><trkpt lat="43.7068751" lon="12.3870691"><ele>534.0</ele><time>2026-03-22T12:34:34.976Z</time></trkpt><trkpt lat="43.7069125" lon="12.3872539"><ele>534.0</ele><time>2026-03-22T12:34:35.976Z</time></trkpt><trkpt lat="43.7069377" lon="12.3874353"><ele>534.0</ele><time>2026-03-22T12:34:36.976Z</time></trkpt><trkpt lat="43.7069624" lon="12.3876246"><ele>534.0</ele><time>2026-03-22T12:34:37.975Z</time></trkpt><trkpt lat="43.7069934" lon="12.3878128"><ele>534.0</ele><time>2026-03-22T12:34:38.975Z</time></trkpt><trkpt lat="43.7070408" lon="12.3879936"><ele>534.0</ele><time>2026-03-22T12:34:39.976Z</time></trkpt><trkpt lat="43.7071203" lon="12.388159"><ele>534.0</ele><time>2026-03-22T12:34:40.976Z</time></trkpt><trkpt lat="43.7072236" lon="12.3883189"><ele>531.6666666666666</ele><time>2026-03-22T12:34:41.975Z</time></trkpt><trkpt lat="43.707337" lon="12.3884781"><ele>529.3333333333333</ele><time>2026-03-22T12:34:42.974Z</time></trkpt><trkpt lat="43.707446" lon="12.3886392"><ele>527.0</ele><time>2026-03-22T12:34:43.975Z</time></trkpt><trkpt lat="43.7075421" lon="12.3887654"><ele>524.25</ele><time>2026-03-22T12:34:44.975Z</time></trkpt><trkpt lat="43.7076288" lon="12.3888736"><ele>521.5</ele><time>2026-03-22T12:34:45.975Z</time></trkpt><trkpt lat="43.7077208" lon="12.3889467"><ele>518.75</ele><time>2026-03-22T12:34:46.975Z</time></trkpt><trkpt lat="43.7078254" lon="12.3889727"><ele>516.0</ele><time>2026-03-22T12:34:47.976Z</time></trkpt><trkpt lat="43.7079461" lon="12.3889458"><ele>516.0</ele><time>2026-03-22T12:34:48.975Z</time></trkpt><trkpt lat="43.7080814" lon="12.3888948"><ele>516.0</ele><time>2026-03-22T12:34:49.976Z</time></trkpt><trkpt lat="43.7082101" lon="12.3888614"><ele>516.0</ele><time>2026-03-22T12:34:50.976Z</time></trkpt><trkpt lat="43.7083303" lon="12.3888638"><ele>516.0</ele><time>2026-03-22T12:34:51.975Z</time></trkpt><trkpt lat="43.7084443" lon="12.3889012"><ele>516.0</ele><time>2026-03-22T12:34:52.975Z</time></trkpt><trkpt lat="43.7085346" lon="12.3889974"><ele>516.0</ele><time>2026-03-22T12:34:53.976Z</time></trkpt><trkpt lat="43.7086038" lon="12.3891307"><ele>516.0</ele><time>2026-03-22T12:34:54.975Z</time></trkpt><trkpt lat="43.7086539" lon="12.3892772"><ele>516.0</ele><time>2026-03-22T12:34:55.976Z</time></trkpt><trkpt lat="43.7086991" lon="12.3894136"><ele>515.0</ele><time>2026-03-22T12:34:56.975Z</time></trkpt><trkpt lat="43.708743" lon="12.3895455"><ele>514.0</ele><time>2026-03-22T12:34:57.975Z</time></trkpt><trkpt lat="43.7087892" lon="12.3896575"><ele>513.0</ele><time>2026-03-22T12:34:58.976Z</time></trkpt><trkpt lat="43.7088384" lon="12.3897353"><ele>512.0</ele><time>2026-03-22T12:34:59.975Z</time></trkpt><trkpt lat="43.708898" lon="12.3897655"><ele>511.0</ele><time>2026-03-22T12:35:00.976Z</time></trkpt><trkpt lat="43.7089615" lon="12.3897454"><ele>510.0</ele><time>2026-03-22T12:35:01.975Z</time></trkpt><trkpt lat="43.7090076" lon="12.3896776"><ele>510.0</ele><time>2026-03-22T12:35:02.975Z</time></trkpt><trkpt lat="43.7090283" lon="12.389567"><ele>510.0</ele><time>2026-03-22T12:35:03.976Z</time></trkpt><trkpt lat="43.7090295" lon="12.3894132"><ele>510.0</ele><time>2026-03-22T12:35:04.975Z</time></trkpt><trkpt lat="43.7090383" lon="12.3892377"><ele>510.0</ele><time>2026-03-22T12:35:05.975Z</time></trkpt><trkpt lat="43.7090881" lon="12.3890417"><ele>510.0</ele><time>2026-03-22T12:35:06.975Z</time></trkpt><trkpt lat="43.7091572" lon="12.388843"><ele>510.0</ele><time>2026-03-22T12:35:07.976Z</time></trkpt><trkpt lat="43.7092387" lon="12.3886442"><ele>510.0</ele><time>2026-03-22T12:35:08.975Z</time></trkpt><trkpt lat="43.7093193" lon="12.3884613"><ele>511.33333333333337</ele><time>2026-03-22T12:35:09.975Z</time></trkpt><trkpt lat="43.7094049" lon="12.3882827"><ele>512.6666666666667</ele><time>2026-03-22T12:35:10.976Z</time></trkpt><trkpt lat="43.7095022" lon="12.388116"><ele>514.0</ele><time>2026-03-22T12:35:11.974Z</time></trkpt><trkpt lat="43.7096012" lon="12.3879619"><ele>505.0</ele><time>2026-03-22T12:35:12.976Z</time></trkpt><trkpt lat="43.7097006" lon="12.3878027"><ele>496.0</ele><time>2026-03-22T12:35:13.974Z</time></trkpt><trkpt lat="43.7097958" lon="12.3876369"><ele>487.0</ele><time>2026-03-22T12:35:14.975Z</time></trkpt><trkpt lat="43.7098877" lon="12.3874742"><ele>487.0</ele><time>2026-03-22T12:35:15.975Z</time></trkpt><trkpt lat="43.7099727" lon="12.3873269"><ele>487.0</ele><time>2026-03-22T12:35:16.974Z</time></trkpt><trkpt lat="43.7100653" lon="12.3871916"><ele>487.0</ele><time>2026-03-22T12:35:17.976Z</time></trkpt><trkpt lat="43.7101649" lon="12.3870808"><ele>487.0</ele><time>2026-03-22T12:35:18.975Z</time></trkpt><trkpt lat="43.7102896" lon="12.3869952"><ele>484.0</ele><time>2026-03-22T12:35:19.975Z</time></trkpt><trkpt lat="43.7104243" lon="12.3869238"><ele>481.0</ele><time>2026-03-22T12:35:20.975Z</time></trkpt><trkpt lat="43.7105706" lon="12.3868538"><ele>478.0</ele><time>2026-03-22T12:35:21.975Z</time></trkpt><trkpt lat="43.7107268" lon="12.3867836"><ele>478.0</ele><time>2026-03-22T12:35:22.976Z</time></trkpt><trkpt lat="43.7108856" lon="12.3867168"><ele>478.0</ele><time>2026-03-22T12:35:23.976Z</time></trkpt><trkpt lat="43.7110359" lon="12.3866544"><ele>478.0</ele><time>2026-03-22T12:35:24.975Z</time></trkpt><trkpt lat="43.7111821" lon="12.3865899"><ele>476.25</ele><time>2026-03-22T12:35:25.976Z</time></trkpt><trkpt lat="43.7113215" lon="12.3865264"><ele>474.5</ele><time>2026-03-22T12:35:26.975Z</time></trkpt><trkpt lat="43.7114545" lon="12.3864674"><ele>472.75</ele><time>2026-03-22T12:35:27.976Z</time></trkpt><trkpt lat="43.7115806" lon="12.3864096"><ele>471.0</ele><time>2026-03-22T12:35:28.975Z</time></trkpt><trkpt lat="43.7116993" lon="12.3863555"><ele>470.5</ele><time>2026-03-22T12:35:29.976Z</time></trkpt><trkpt lat="43.7118136" lon="12.3863045"><ele>470.0</ele><time>2026-03-22T12:35:30.976Z</time></trkpt><trkpt lat="43.7119286" lon="12.3862699"><ele>469.5</ele><time>2026-03-22T12:35:31.976Z</time></trkpt><trkpt lat="43.7120559" lon="12.386253"><ele>469.0</ele><time>2026-03-22T12:35:32.975Z</time></trkpt><trkpt lat="43.71219" lon="12.3862578"><ele>468.2</ele><time>2026-03-22T12:35:33.975Z</time></trkpt><trkpt lat="43.7123215" lon="12.3862793"><ele>467.4</ele><time>2026-03-22T12:35:34.976Z</time></trkpt><trkpt lat="43.7124361" lon="12.3863055"><ele>466.6</ele><time>2026-03-22T12:35:35.975Z</time></trkpt><trkpt lat="43.7125302" lon="12.3863294"><ele>465.8</ele><time>2026-03-22T12:35:36.976Z</time></trkpt><trkpt lat="43.712613" lon="12.3863313"><ele>465.0</ele><time>2026-03-22T12:35:37.976Z</time></trkpt><trkpt lat="43.7126942" lon="12.3862875"><ele>460.6</ele><time>2026-03-22T12:35:38.976Z</time></trkpt><trkpt lat="43.7127676" lon="12.3862228"><ele>456.2</ele><time>2026-03-22T12:35:39.976Z</time></trkpt><trkpt lat="43.7128274" lon="12.3861213"><ele>451.79999999999995</ele><time>2026-03-22T12:35:40.975Z</time></trkpt><trkpt lat="43.7128278" lon="12.3859431"><ele>447.4</ele><time>2026-03-22T12:35:41.976Z</time></trkpt><trkpt lat="43.7128296" lon="12.385804"><ele>443.0</ele><time>2026-03-22T12:35:42.976Z</time></trkpt><trkpt lat="43.712803" lon="12.3856938"><ele>445.2</ele><time>2026-03-22T12:35:43.976Z</time></trkpt><trkpt lat="43.7127388" lon="12.3855918"><ele>447.4</ele><time>2026-03-22T12:35:44.975Z</time></trkpt><trkpt lat="43.7126458" lon="12.3855317"><ele>449.59999999999997</ele><time>2026-03-22T12:35:45.975Z</time></trkpt><trkpt lat="43.7125456" lon="12.3854911"><ele>451.79999999999995</ele><time>2026-03-22T12:35:46.975Z</time></trkpt><trkpt lat="43.7124609" lon="12.3854864"><ele>454.0</ele><time>2026-03-22T12:35:47.976Z</time></trkpt><trkpt lat="43.7123899" lon="12.3854534"><ele>454.0</ele><time>2026-03-22T12:35:48.975Z</time></trkpt><trkpt lat="43.7123308" lon="12.3853108"><ele>454.0</ele><time>2026-03-22T12:35:50.975Z</time></trkpt><trkpt lat="43.7123715" lon="12.3852409"><ele>454.0</ele><time>2026-03-22T12:35:51.976Z</time></trkpt><trkpt lat="43.7124444" lon="12.3851849"><ele>454.0</ele><time>2026-03-22T12:35:52.974Z</time></trkpt><trkpt lat="43.7125386" lon="12.3851414"><ele>454.0</ele><time>2026-03-22T12:35:53.976Z</time></trkpt><trkpt lat="43.712653" lon="12.3850943"><ele>453.0</ele><time>2026-03-22T12:35:54.974Z</time></trkpt><trkpt lat="43.7127823" lon="12.3850449"><ele>452.0</ele><time>2026-03-22T12:35:55.976Z</time></trkpt><trkpt lat="43.7129081" lon="12.385007"><ele>451.0</ele><time>2026-03-22T12:35:56.975Z</time></trkpt><trkpt lat="43.7130361" lon="12.3849836"><ele>450.0</ele><time>2026-03-22T12:35:57.975Z</time></trkpt><trkpt lat="43.7131727" lon="12.3849984"><ele>450.0</ele><time>2026-03-22T12:35:58.976Z</time></trkpt><trkpt lat="43.7133177" lon="12.3850512"><ele>450.0</ele><time>2026-03-22T12:35:59.976Z</time></trkpt><trkpt lat="43.7134593" lon="12.3851419"><ele>450.0</ele><time>2026-03-22T12:36:00.975Z</time></trkpt><trkpt lat="43.7136061" lon="12.385259"><ele>445.0</ele><time>2026-03-22T12:36:01.976Z</time></trkpt><trkpt lat="43.7137609" lon="12.3853826"><ele>440.0</ele><time>2026-03-22T12:36:02.975Z</time></trkpt><trkpt lat="43.7139069" lon="12.3855055"><ele>435.0</ele><time>2026-03-22T12:36:03.974Z</time></trkpt><trkpt lat="43.7140278" lon="12.385608"><ele>434.2</ele><time>2026-03-22T12:36:04.976Z</time></trkpt><trkpt lat="43.7141473" lon="12.3856937"><ele>433.4</ele><time>2026-03-22T12:36:05.976Z</time></trkpt><trkpt lat="43.7142193" lon="12.3857553"><ele>432.6</ele><time>2026-03-22T12:36:06.976Z</time></trkpt><trkpt lat="43.7142921" lon="12.3857857"><ele>431.8</ele><time>2026-03-22T12:36:07.975Z</time></trkpt><trkpt lat="43.7143573" lon="12.3857665"><ele>431.0</ele><time>2026-03-22T12:36:08.975Z</time></trkpt><trkpt lat="43.7143964" lon="12.3855845"><ele>432.0</ele><time>2026-03-22T12:36:10.975Z</time></trkpt><trkpt lat="43.7143912" lon="12.3854636"><ele>433.0</ele><time>2026-03-22T12:36:11.976Z</time></trkpt><trkpt lat="43.7143544" lon="12.3852398"><ele>434.0</ele><time>2026-03-22T12:36:12.976Z</time></trkpt><trkpt lat="43.7143528" lon="12.3850262"><ele>435.0</ele><time>2026-03-22T12:36:13.976Z</time></trkpt><trkpt lat="43.714367" lon="12.384812"><ele>434.0</ele><time>2026-03-22T12:36:14.975Z</time></trkpt><trkpt lat="43.7144034" lon="12.3845956"><ele>433.0</ele><time>2026-03-22T12:36:15.976Z</time></trkpt><trkpt lat="43.7144544" lon="12.3844087"><ele>432.0</ele><time>2026-03-22T12:36:16.975Z</time></trkpt><trkpt lat="43.7144992" lon="12.384247"><ele>431.0</ele><time>2026-03-22T12:36:17.975Z</time></trkpt><trkpt lat="43.7145268" lon="12.3840895"><ele>428.5</ele><time>2026-03-22T12:36:18.975Z</time></trkpt><trkpt lat="43.7145219" lon="12.3839312"><ele>426.0</ele><time>2026-03-22T12:36:19.976Z</time></trkpt><trkpt lat="43.7144838" lon="12.3837723"><ele>423.5</ele><time>2026-03-22T12:36:20.975Z</time></trkpt><trkpt lat="43.7144125" lon="12.3836206"><ele>421.0</ele><time>2026-03-22T12:36:21.976Z</time></trkpt><trkpt lat="43.7143114" lon="12.3834673"><ele>421.0</ele><time>2026-03-22T12:36:22.976Z</time></trkpt><trkpt lat="43.7141897" lon="12.3833063"><ele>421.0</ele><time>2026-03-22T12:36:23.976Z</time></trkpt><trkpt lat="43.7140583" lon="12.3831481"><ele>421.0</ele><time>2026-03-22T12:36:24.975Z</time></trkpt><trkpt lat="43.7139275" lon="12.3829951"><ele>418.0</ele><time>2026-03-22T12:36:25.975Z</time></trkpt><trkpt lat="43.7137951" lon="12.3828477"><ele>415.0</ele><time>2026-03-22T12:36:26.975Z</time></trkpt><trkpt lat="43.7136596" lon="12.382705"><ele>412.0</ele><time>2026-03-22T12:36:27.976Z</time></trkpt><trkpt lat="43.7135205" lon="12.3825694"><ele>412.0</ele><time>2026-03-22T12:36:28.975Z</time></trkpt><trkpt lat="43.7133849" lon="12.3824495"><ele>412.0</ele><time>2026-03-22T12:36:29.975Z</time></trkpt><trkpt lat="43.7132548" lon="12.3823475"><ele>412.0</ele><time>2026-03-22T12:36:30.976Z</time></trkpt><trkpt lat="43.7131428" lon="12.3822627"><ele>412.0</ele><time>2026-03-22T12:36:31.976Z</time></trkpt><trkpt lat="43.7130508" lon="12.3821847"><ele>410.00000000000006</ele><time>2026-03-22T12:36:32.975Z</time></trkpt><trkpt lat="43.7129977" lon="12.3820946"><ele>408.0</ele><time>2026-03-22T12:36:33.975Z</time></trkpt><trkpt lat="43.7129699" lon="12.381988"><ele>406.0</ele><time>2026-03-22T12:36:34.975Z</time></trkpt><trkpt lat="43.712988" lon="12.381894"><ele>404.0</ele><time>2026-03-22T12:36:35.975Z</time></trkpt><trkpt lat="43.7130408" lon="12.3818346"><ele>402.00000000000006</ele><time>2026-03-22T12:36:36.976Z</time></trkpt><trkpt lat="43.7131242" lon="12.3817843"><ele>400.0</ele><time>2026-03-22T12:36:37.975Z</time></trkpt><trkpt lat="43.7132371" lon="12.3817497"><ele>400.0</ele><time>2026-03-22T12:36:38.975Z</time></trkpt><trkpt lat="43.71337" lon="12.3817129"><ele>400.0</ele><time>2026-03-22T12:36:39.975Z</time></trkpt><trkpt lat="43.7135113" lon="12.3816416"><ele>400.0</ele><time>2026-03-22T12:36:40.976Z</time></trkpt><trkpt lat="43.7136581" lon="12.3815377"><ele>399.0</ele><time>2026-03-22T12:36:41.975Z</time></trkpt><trkpt lat="43.7138049" lon="12.3814134"><ele>398.0</ele><time>2026-03-22T12:36:42.976Z</time></trkpt><trkpt lat="43.7139558" lon="12.38128"><ele>397.0</ele><time>2026-03-22T12:36:43.976Z</time></trkpt><trkpt lat="43.7141057" lon="12.3811418"><ele>393.6666666666667</ele><time>2026-03-22T12:36:44.974Z</time></trkpt><trkpt lat="43.7142463" lon="12.3810091"><ele>390.33333333333337</ele><time>2026-03-22T12:36:45.976Z</time></trkpt><trkpt lat="43.714376" lon="12.3808852"><ele>387.0</ele><time>2026-03-22T12:36:46.975Z</time></trkpt><trkpt lat="43.7144876" lon="12.3807777"><ele>383.6</ele><time>2026-03-22T12:36:47.975Z</time></trkpt><trkpt lat="43.7145794" lon="12.3806782"><ele>380.20000000000005</ele><time>2026-03-22T12:36:48.976Z</time></trkpt><trkpt lat="43.7146595" lon="12.3805674"><ele>376.8</ele><time>2026-03-22T12:36:49.975Z</time></trkpt><trkpt lat="43.7147134" lon="12.3804521"><ele>373.4</ele><time>2026-03-22T12:36:50.976Z</time></trkpt><trkpt lat="43.7147325" lon="12.380328"><ele>370.0</ele><time>2026-03-22T12:36:51.976Z</time></trkpt><trkpt lat="43.7147175" lon="12.3802053"><ele>368.8</ele><time>2026-03-22T12:36:52.976Z</time></trkpt><trkpt lat="43.7146669" lon="12.3801069"><ele>367.6</ele><time>2026-03-22T12:36:53.976Z</time></trkpt><trkpt lat="43.7145845" lon="12.3800455"><ele>366.4</ele><time>2026-03-22T12:36:54.976Z</time></trkpt><trkpt lat="43.7144855" lon="12.380037"><ele>365.2</ele><time>2026-03-22T12:36:55.975Z</time></trkpt><trkpt lat="43.7143758" lon="12.3800672"><ele>364.0</ele><time>2026-03-22T12:36:56.975Z</time></trkpt><trkpt lat="43.7142764" lon="12.3801269"><ele>366.79999999999995</ele><time>2026-03-22T12:36:57.975Z</time></trkpt><trkpt lat="43.7141868" lon="12.380172"><ele>369.59999999999997</ele><time>2026-03-22T12:36:58.976Z</time></trkpt><trkpt lat="43.7140933" lon="12.3801702"><ele>372.4</ele><time>2026-03-22T12:36:59.976Z</time></trkpt><trkpt lat="43.7140137" lon="12.3801099"><ele>375.2</ele><time>2026-03-22T12:37:00.975Z</time></trkpt><trkpt lat="43.7139374" lon="12.3800121"><ele>378.0</ele><time>2026-03-22T12:37:01.975Z</time></trkpt><trkpt lat="43.7138878" lon="12.3798736"><ele>378.0</ele><time>2026-03-22T12:37:02.976Z</time></trkpt><trkpt lat="43.7138685" lon="12.3797174"><ele>378.0</ele><time>2026-03-22T12:37:03.975Z</time></trkpt><trkpt lat="43.7138851" lon="12.3795734"><ele>378.0</ele><time>2026-03-22T12:37:04.975Z</time></trkpt><trkpt lat="43.71393" lon="12.3794256"><ele>378.0</ele><time>2026-03-22T12:37:05.975Z</time></trkpt><trkpt lat="43.7139928" lon="12.3792931"><ele>376.0</ele><time>2026-03-22T12:37:06.974Z</time></trkpt><trkpt lat="43.7140637" lon="12.3791687"><ele>374.0</ele><time>2026-03-22T12:37:07.976Z</time></trkpt><trkpt lat="43.7141421" lon="12.3790506"><ele>372.0</ele><time>2026-03-22T12:37:08.976Z</time></trkpt><trkpt lat="43.7142236" lon="12.3789315"><ele>370.0</ele><time>2026-03-22T12:37:09.976Z</time></trkpt><trkpt lat="43.7143141" lon="12.3788191"><ele>366.2</ele><time>2026-03-22T12:37:10.976Z</time></trkpt><trkpt lat="43.7144099" lon="12.3787321"><ele>362.4</ele><time>2026-03-22T12:37:11.975Z</time></trkpt><trkpt lat="43.7145116" lon="12.3786671"><ele>358.6</ele><time>2026-03-22T12:37:12.976Z</time></trkpt><trkpt lat="43.7146099" lon="12.3786412"><ele>354.8</ele><time>2026-03-22T12:37:13.976Z</time></trkpt><trkpt lat="43.7146848" lon="12.3786628"><ele>351.0</ele><time>2026-03-22T12:37:14.975Z</time></trkpt><trkpt lat="43.7147615" lon="12.3787184"><ele>351.0</ele><time>2026-03-22T12:37:15.976Z</time></trkpt><trkpt lat="43.7148296" lon="12.3788372"><ele>351.0</ele><time>2026-03-22T12:37:16.976Z</time></trkpt><trkpt lat="43.7148793" lon="12.3790009"><ele>351.0</ele><time>2026-03-22T12:37:17.975Z</time></trkpt><trkpt lat="43.7149182" lon="12.3791584"><ele>351.0</ele><time>2026-03-22T12:37:18.975Z</time></trkpt><trkpt lat="43.7149622" lon="12.3792744"><ele>352.3333333333333</ele><time>2026-03-22T12:37:19.976Z</time></trkpt><trkpt lat="43.7150178" lon="12.3793498"><ele>353.6666666666667</ele><time>2026-03-22T12:37:20.976Z</time></trkpt><trkpt lat="43.7150879" lon="12.3793681"><ele>355.0</ele><time>2026-03-22T12:37:21.975Z</time></trkpt><trkpt lat="43.7151439" lon="12.3793175"><ele>356.33333333333337</ele><time>2026-03-22T12:37:22.976Z</time></trkpt><trkpt lat="43.7151795" lon="12.3792252"><ele>357.6666666666667</ele><time>2026-03-22T12:37:23.975Z</time></trkpt><trkpt lat="43.7151973" lon="12.3790995"><ele>359.0</ele><time>2026-03-22T12:37:24.976Z</time></trkpt><trkpt lat="43.7151757" lon="12.3789796"><ele>356.33333333333337</ele><time>2026-03-22T12:37:25.976Z</time></trkpt><trkpt lat="43.7150854" lon="12.3787533"><ele>353.6666666666667</ele><time>2026-03-22T12:37:26.976Z</time></trkpt><trkpt lat="43.7150781" lon="12.3785546"><ele>351.0</ele><time>2026-03-22T12:37:27.976Z</time></trkpt><trkpt lat="43.7150675" lon="12.378335"><ele>351.0</ele><time>2026-03-22T12:37:28.976Z</time></trkpt><trkpt lat="43.7150438" lon="12.37812"><ele>351.0</ele><time>2026-03-22T12:37:29.976Z</time></trkpt><trkpt lat="43.7150058" lon="12.3779209"><ele>351.0</ele><time>2026-03-22T12:37:30.975Z</time></trkpt><trkpt lat="43.7149553" lon="12.37774"><ele>351.0</ele><time>2026-03-22T12:37:31.974Z</time></trkpt><trkpt lat="43.7149003" lon="12.3775688"><ele>349.20000000000005</ele><time>2026-03-22T12:37:32.976Z</time></trkpt><trkpt lat="43.7148551" lon="12.3774132"><ele>347.40000000000003</ele><time>2026-03-22T12:37:33.975Z</time></trkpt><trkpt lat="43.7148301" lon="12.3772646"><ele>345.6</ele><time>2026-03-22T12:37:34.975Z</time></trkpt><trkpt lat="43.714845" lon="12.3771324"><ele>343.8</ele><time>2026-03-22T12:37:35.974Z</time></trkpt><trkpt lat="43.7148775" lon="12.3770193"><ele>342.0</ele><time>2026-03-22T12:37:36.976Z</time></trkpt><trkpt lat="43.7149351" lon="12.3769356"><ele>342.0</ele><time>2026-03-22T12:37:37.975Z</time></trkpt><trkpt lat="43.715015" lon="12.3768785"><ele>342.0</ele><time>2026-03-22T12:37:38.976Z</time></trkpt><trkpt lat="43.7151039" lon="12.3768253"><ele>342.0</ele><time>2026-03-22T12:37:39.975Z</time></trkpt><trkpt lat="43.7151865" lon="12.3767783"><ele>342.0</ele><time>2026-03-22T12:37:40.976Z</time></trkpt><trkpt lat="43.7152757" lon="12.3767338"><ele>342.0</ele><time>2026-03-22T12:37:41.974Z</time></trkpt><trkpt lat="43.7153754" lon="12.3766979"><ele>340.75</ele><time>2026-03-22T12:37:42.975Z</time></trkpt><trkpt lat="43.7154839" lon="12.3766715"><ele>339.5</ele><time>2026-03-22T12:37:43.976Z</time></trkpt><trkpt lat="43.7156012" lon="12.3766453"><ele>338.25</ele><time>2026-03-22T12:37:44.975Z</time></trkpt><trkpt lat="43.7157217" lon="12.3766163"><ele>337.0</ele><time>2026-03-22T12:37:45.976Z</time></trkpt><trkpt lat="43.7158332" lon="12.3765911"><ele>337.0</ele><time>2026-03-22T12:37:46.976Z</time></trkpt><trkpt lat="43.7159372" lon="12.3765699"><ele>337.0</ele><time>2026-03-22T12:37:47.975Z</time></trkpt><trkpt lat="43.716026" lon="12.3765461"><ele>337.0</ele><time>2026-03-22T12:37:48.976Z</time></trkpt><trkpt lat="43.7161027" lon="12.3765284"><ele>337.0</ele><time>2026-03-22T12:37:49.976Z</time></trkpt><trkpt lat="43.7161674" lon="12.3765082"><ele>337.0</ele><time>2026-03-22T12:37:50.976Z</time></trkpt><trkpt lat="43.7162574" lon="12.376503"><ele>337.0</ele><time>2026-03-22T12:37:52.976Z</time></trkpt><trkpt lat="43.7163169" lon="12.3765547"><ele>338.16666666666663</ele><time>2026-03-22T12:37:55.976Z</time></trkpt><trkpt lat="43.7163777" lon="12.3766656"><ele>339.3333333333333</ele><time>2026-03-22T12:37:58.975Z</time></trkpt><trkpt lat="43.7164588" lon="12.376792"><ele>340.5</ele><time>2026-03-22T12:38:00.976Z</time></trkpt><trkpt lat="43.7165048" lon="12.3768694"><ele>341.6666666666667</ele><time>2026-03-22T12:38:01.976Z</time></trkpt><trkpt lat="43.7165504" lon="12.3769421"><ele>342.83333333333337</ele><time>2026-03-22T12:38:02.976Z</time></trkpt><trkpt lat="43.7165959" lon="12.3770108"><ele>344.0</ele><time>2026-03-22T12:38:03.975Z</time></trkpt><trkpt lat="43.7166383" lon="12.3770849"><ele>344.0</ele><time>2026-03-22T12:38:04.975Z</time></trkpt><trkpt lat="43.7166918" lon="12.3771686"><ele>344.0</ele><time>2026-03-22T12:38:05.974Z</time></trkpt><trkpt lat="43.7167432" lon="12.3772571"><ele>344.0</ele><time>2026-03-22T12:38:06.976Z</time></trkpt><trkpt lat="43.7167917" lon="12.3773361"><ele>344.0</ele><time>2026-03-22T12:38:07.976Z</time></trkpt><trkpt lat="43.7168408" lon="12.3774085"><ele>344.0</ele><time>2026-03-22T12:38:08.975Z</time></trkpt><trkpt lat="43.7168847" lon="12.3774733"><ele>344.0</ele><time>2026-03-22T12:38:09.976Z</time></trkpt><trkpt lat="43.7169574" lon="12.3775317"><ele>344.4</ele><time>2026-03-22T12:38:11.976Z</time></trkpt><trkpt lat="43.7169939" lon="12.3774033"><ele>344.79999999999995</ele><time>2026-03-22T12:38:14.976Z</time></trkpt><trkpt lat="43.7169855" lon="12.3773077"><ele>345.20000000000005</ele><time>2026-03-22T12:38:15.976Z</time></trkpt><trkpt lat="43.7169736" lon="12.3771866"><ele>345.6</ele><time>2026-03-22T12:38:16.976Z</time></trkpt><trkpt lat="43.7169604" lon="12.3770341"><ele>346.0</ele><time>2026-03-22T12:38:17.976Z</time></trkpt><trkpt lat="43.7169422" lon="12.3768743"><ele>346.0</ele><time>2026-03-22T12:38:18.976Z</time></trkpt><trkpt lat="43.7169248" lon="12.3767243"><ele>346.0</ele><time>2026-03-22T12:38:19.976Z</time></trkpt><trkpt lat="43.7169088" lon="12.3765844"><ele>346.0</ele><time>2026-03-22T12:38:20.975Z</time></trkpt><trkpt lat="43.7168978" lon="12.3764575"><ele>346.0</ele><time>2026-03-22T12:38:21.975Z</time></trkpt><trkpt lat="43.7168878" lon="12.3763417"><ele>346.0</ele><time>2026-03-22T12:38:22.976Z</time></trkpt><trkpt lat="43.7168855" lon="12.3762399"><ele>347.0</ele><time>2026-03-22T12:38:23.975Z</time></trkpt><trkpt lat="43.7169166" lon="12.3761567"><ele>348.0</ele><time>2026-03-22T12:38:24.976Z</time></trkpt><trkpt lat="43.7169788" lon="12.3760817"><ele>349.0</ele><time>2026-03-22T12:38:25.975Z</time></trkpt><trkpt lat="43.7170745" lon="12.3760055"><ele>350.0</ele><time>2026-03-22T12:38:26.975Z</time></trkpt><trkpt lat="43.7171869" lon="12.3759201"><ele>351.0</ele><time>2026-03-22T12:38:27.975Z</time></trkpt><trkpt lat="43.7172992" lon="12.3758433"><ele>351.0</ele><time>2026-03-22T12:38:28.976Z</time></trkpt><trkpt lat="43.7173946" lon="12.3757714"><ele>351.0</ele><time>2026-03-22T12:38:29.975Z</time></trkpt><trkpt lat="43.7174915" lon="12.3757008"><ele>351.0</ele><time>2026-03-22T12:38:30.975Z</time></trkpt><trkpt lat="43.7175966" lon="12.3756323"><ele>351.0</ele><time>2026-03-22T12:38:31.975Z</time></trkpt><trkpt lat="43.7177043" lon="12.375559"><ele>352.4</ele><time>2026-03-22T12:38:32.975Z</time></trkpt><trkpt lat="43.7178115" lon="12.3754846"><ele>353.8</ele><time>2026-03-22T12:38:33.975Z</time></trkpt><trkpt lat="43.7179017" lon="12.3754286"><ele>355.2</ele><time>2026-03-22T12:38:34.976Z</time></trkpt><trkpt lat="43.7179744" lon="12.3753802"><ele>356.59999999999997</ele><time>2026-03-22T12:38:35.974Z</time></trkpt><trkpt lat="43.7180313" lon="12.3753352"><ele>358.0</ele><time>2026-03-22T12:38:36.976Z</time></trkpt><trkpt lat="43.7181016" lon="12.375248"><ele>358.00000000000006</ele><time>2026-03-22T12:38:38.976Z</time></trkpt><trkpt lat="43.7180673" lon="12.3751667"><ele>358.0</ele><time>2026-03-22T12:38:51.976Z</time></trkpt><trkpt lat="43.7180414" lon="12.3752542"><ele>358.0</ele><time>2026-03-22T12:38:55.975Z</time></trkpt><trkpt lat="43.7181172" lon="12.3752181"><ele>358.0</ele><time>2026-03-22T12:39:09.974Z</time></trkpt><trkpt lat="43.7180964" lon="12.3751358"><ele>358.0</ele><time>2026-03-22T12:39:11.975Z</time></trkpt><trkpt lat="43.7180244" lon="12.3751203"><ele>358.00000000000006</ele><time>2026-03-22T12:39:13.976Z</time></trkpt><trkpt lat="43.7179346" lon="12.3751268"><ele>358.0</ele><time>2026-03-22T12:39:16.976Z</time></trkpt><trkpt lat="43.7178672" lon="12.3751801"><ele>358.00000000000006</ele><time>2026-03-22T12:39:21.975Z</time></trkpt><trkpt lat="43.7179123" lon="12.3752474"><ele>358.0</ele><time>2026-03-22T12:39:43.975Z</time></trkpt><trkpt lat="43.7178693" lon="12.375312"><ele>358.0</ele><time>2026-03-22T12:41:26.976Z</time></trkpt><trkpt lat="43.7178768" lon="12.3754062"><ele>358.0</ele><time>2026-03-22T12:41:35.975Z</time></trkpt><trkpt lat="43.7178148" lon="12.3754287"><ele>358.0</ele><time>2026-03-22T12:41:48.976Z</time></trkpt><trkpt lat="43.7177511" lon="12.3754693"><ele>358.00000000000006</ele><time>2026-03-22T12:41:57.975Z</time></trkpt><trkpt lat="43.7176944" lon="12.3755114"><ele>358.0</ele><time>2026-03-22T12:42:03.976Z</time></trkpt><trkpt lat="43.7176511" lon="12.3754322"><ele>357.00000000000006</ele><time>2026-03-22T12:44:53.973Z</time></trkpt><trkpt lat="43.7176312" lon="12.3753408"><ele>356.0</ele><time>2026-03-22T12:45:01.977Z</time></trkpt><trkpt lat="43.7176346" lon="12.3754307"><ele>355.0</ele><time>2026-03-22T12:48:14.983Z</time></trkpt><trkpt lat="43.7175867" lon="12.3754907"><ele>354.0</ele><time>2026-03-22T13:53:30.983Z</time></trkpt><trkpt lat="43.7175828" lon="12.3753935"><ele>353.0</ele><time>2026-03-22T13:54:03.993Z</time></trkpt><trkpt lat="43.7176467" lon="12.375418"><ele>352.00000000000006</ele><time>2026-03-22T13:54:51.982Z</time></trkpt><trkpt lat="43.7176692" lon="12.3755021"><ele>351.0</ele><time>2026-03-22T13:55:03.983Z</time></trkpt><trkpt lat="43.717714" lon="12.3755642"><ele>351.00000000000006</ele><time>2026-03-22T13:56:41.983Z</time></trkpt><trkpt lat="43.717771" lon="12.3755029"><ele>351.0</ele><time>2026-03-22T13:56:53.982Z</time></trkpt><trkpt lat="43.7177983" lon="12.375418"><ele>351.0</ele><time>2026-03-22T13:57:03.983Z</time></trkpt><trkpt lat="43.7178566" lon="12.3753812"><ele>351.0</ele><time>2026-03-22T13:57:09.983Z</time></trkpt><trkpt lat="43.7179141" lon="12.3753413"><ele>351.0</ele><time>2026-03-22T13:57:17.982Z</time></trkpt><trkpt lat="43.7178422" lon="12.3753529"><ele>351.00000000000006</ele><time>2026-03-22T13:57:51.983Z</time></trkpt><trkpt lat="43.7177797" lon="12.375389"><ele>351.0</ele><time>2026-03-22T13:57:56.853Z</time></trkpt><trkpt lat="43.7177155" lon="12.3754368"><ele>351.00000000000006</ele><time>2026-03-22T13:58:01.63Z</time></trkpt><trkpt lat="43.7176459" lon="12.3754481"><ele>351.0</ele><time>2026-03-22T13:58:09.988Z</time></trkpt><trkpt lat="43.7177056" lon="12.3753888"><ele>351.0</ele><time>2026-03-22T13:58:18.983Z</time></trkpt><trkpt lat="43.7177761" lon="12.3754283"><ele>351.0</ele><time>2026-03-22T13:58:26.989Z</time></trkpt><trkpt lat="43.7178367" lon="12.3753853"><ele>351.0</ele><time>2026-03-22T13:58:36.972Z</time></trkpt><trkpt lat="43.7178802" lon="12.3753178"><ele>351.00000000000006</ele><time>2026-03-22T13:58:48.069Z</time></trkpt><trkpt lat="43.7179339" lon="12.3752531"><ele>351.0</ele><time>2026-03-22T14:18:22.982Z</time></trkpt><trkpt lat="43.7180128" lon="12.3751741"><ele>352.4</ele><time>2026-03-22T14:18:26.001Z</time></trkpt><trkpt lat="43.7180871" lon="12.3751939"><ele>353.8</ele><time>2026-03-22T14:18:27.983Z</time></trkpt><trkpt lat="43.718148" lon="12.3752848"><ele>355.2</ele><time>2026-03-22T14:18:31.982Z</time></trkpt><trkpt lat="43.7182966" lon="12.3751939"><ele>356.59999999999997</ele><time>2026-03-22T14:18:33.982Z</time></trkpt><trkpt lat="43.7183878" lon="12.375126"><ele>358.0</ele><time>2026-03-22T14:18:34.983Z</time></trkpt><trkpt lat="43.7184994" lon="12.3750486"><ele>360.3333333333333</ele><time>2026-03-22T14:18:35.983Z</time></trkpt><trkpt lat="43.7186375" lon="12.3749638"><ele>362.6666666666667</ele><time>2026-03-22T14:18:36.982Z</time></trkpt><trkpt lat="43.718788" lon="12.3748744"><ele>365.0</ele><time>2026-03-22T14:18:37.982Z</time></trkpt><trkpt lat="43.718941" lon="12.3747798"><ele>365.0</ele><time>2026-03-22T14:18:38.982Z</time></trkpt><trkpt lat="43.719096" lon="12.3746821"><ele>365.0</ele><time>2026-03-22T14:18:39.982Z</time></trkpt><trkpt lat="43.7192616" lon="12.3745859"><ele>365.0</ele><time>2026-03-22T14:18:40.983Z</time></trkpt><trkpt lat="43.7194319" lon="12.374486"><ele>365.0</ele><time>2026-03-22T14:18:41.983Z</time></trkpt><trkpt lat="43.7195985" lon="12.3743863"><ele>365.0</ele><time>2026-03-22T14:18:42.983Z</time></trkpt><trkpt lat="43.7197583" lon="12.3742978"><ele>365.0</ele><time>2026-03-22T14:18:43.983Z</time></trkpt><trkpt lat="43.7199144" lon="12.3742247"><ele>365.0</ele><time>2026-03-22T14:18:44.983Z</time></trkpt><trkpt lat="43.7200776" lon="12.3741693"><ele>365.0</ele><time>2026-03-22T14:18:45.983Z</time></trkpt><trkpt lat="43.7202608" lon="12.3741318"><ele>365.0</ele><time>2026-03-22T14:18:46.982Z</time></trkpt><trkpt lat="43.7204624" lon="12.3741028"><ele>365.33333333333337</ele><time>2026-03-22T14:18:47.982Z</time></trkpt><trkpt lat="43.7206722" lon="12.3740769"><ele>365.6666666666667</ele><time>2026-03-22T14:18:48.982Z</time></trkpt><trkpt lat="43.7208888" lon="12.3740449"><ele>366.0</ele><time>2026-03-22T14:18:49.982Z</time></trkpt><trkpt lat="43.7211136" lon="12.3740129"><ele>366.0</ele><time>2026-03-22T14:18:50.983Z</time></trkpt><trkpt lat="43.7213432" lon="12.3739801"><ele>366.0</ele><time>2026-03-22T14:18:51.983Z</time></trkpt><trkpt lat="43.7215706" lon="12.3739384"><ele>366.0</ele><time>2026-03-22T14:18:52.983Z</time></trkpt><trkpt lat="43.7217943" lon="12.3738928"><ele>366.0</ele><time>2026-03-22T14:18:53.983Z</time></trkpt><trkpt lat="43.7220161" lon="12.37385"><ele>368.3333333333333</ele><time>2026-03-22T14:18:54.983Z</time></trkpt><trkpt lat="43.7222367" lon="12.3738082"><ele>370.66666666666663</ele><time>2026-03-22T14:18:55.983Z</time></trkpt><trkpt lat="43.7224558" lon="12.373763"><ele>373.0</ele><time>2026-03-22T14:18:56.982Z</time></trkpt><trkpt lat="43.722675" lon="12.3737081"><ele>373.3333333333333</ele><time>2026-03-22T14:18:57.983Z</time></trkpt><trkpt lat="43.7228954" lon="12.373649"><ele>373.6666666666667</ele><time>2026-03-22T14:18:58.983Z</time></trkpt><trkpt lat="43.7231153" lon="12.3735862"><ele>374.0</ele><time>2026-03-22T14:18:59.983Z</time></trkpt><trkpt lat="43.7233346" lon="12.3735247"><ele>374.0</ele><time>2026-03-22T14:19:00.983Z</time></trkpt><trkpt lat="43.7235523" lon="12.3734717"><ele>374.0</ele><time>2026-03-22T14:19:01.982Z</time></trkpt><trkpt lat="43.7237657" lon="12.3734259"><ele>374.0</ele><time>2026-03-22T14:19:02.983Z</time></trkpt><trkpt lat="43.7239735" lon="12.3733858"><ele>374.0</ele><time>2026-03-22T14:19:03.982Z</time></trkpt><trkpt lat="43.7241765" lon="12.373345"><ele>374.0</ele><time>2026-03-22T14:19:04.982Z</time></trkpt><trkpt lat="43.7243766" lon="12.3732883"><ele>374.0</ele><time>2026-03-22T14:19:05.983Z</time></trkpt><trkpt lat="43.7245678" lon="12.3732181"><ele>374.0</ele><time>2026-03-22T14:19:06.982Z</time></trkpt><trkpt lat="43.7247353" lon="12.3731433"><ele>374.0</ele><time>2026-03-22T14:19:07.983Z</time></trkpt><trkpt lat="43.7248715" lon="12.3730751"><ele>374.0</ele><time>2026-03-22T14:19:08.983Z</time></trkpt><trkpt lat="43.7249873" lon="12.3730149"><ele>374.0</ele><time>2026-03-22T14:19:09.982Z</time></trkpt><trkpt lat="43.7250911" lon="12.3729598"><ele>375.6</ele><time>2026-03-22T14:19:10.982Z</time></trkpt><trkpt lat="43.7251807" lon="12.372919"><ele>377.2</ele><time>2026-03-22T14:19:11.983Z</time></trkpt><trkpt lat="43.7252529" lon="12.3728909"><ele>378.8</ele><time>2026-03-22T14:19:12.983Z</time></trkpt><trkpt lat="43.7253144" lon="12.372868"><ele>380.40000000000003</ele><time>2026-03-22T14:19:13.983Z</time></trkpt><trkpt lat="43.7254524" lon="12.372826"><ele>382.0</ele><time>2026-03-22T14:19:15.983Z</time></trkpt><trkpt lat="43.7255415" lon="12.3727935"><ele>382.0</ele><time>2026-03-22T14:19:16.982Z</time></trkpt><trkpt lat="43.7256571" lon="12.3727745"><ele>382.0</ele><time>2026-03-22T14:19:17.983Z</time></trkpt><trkpt lat="43.7257796" lon="12.3727497"><ele>382.0</ele><time>2026-03-22T14:19:18.983Z</time></trkpt><trkpt lat="43.7259052" lon="12.3727305"><ele>382.0</ele><time>2026-03-22T14:19:19.982Z</time></trkpt><trkpt lat="43.7260345" lon="12.372701"><ele>380.25</ele><time>2026-03-22T14:19:20.982Z</time></trkpt><trkpt lat="43.7261752" lon="12.3726772"><ele>378.5</ele><time>2026-03-22T14:19:21.982Z</time></trkpt><trkpt lat="43.7263136" lon="12.372657"><ele>376.75</ele><time>2026-03-22T14:19:22.983Z</time></trkpt><trkpt lat="43.7264468" lon="12.3726309"><ele>375.0</ele><time>2026-03-22T14:19:23.983Z</time></trkpt><trkpt lat="43.7265987" lon="12.3725974"><ele>375.0</ele><time>2026-03-22T14:19:24.983Z</time></trkpt><trkpt lat="43.7267483" lon="12.3725638"><ele>375.0</ele><time>2026-03-22T14:19:25.982Z</time></trkpt><trkpt lat="43.7268896" lon="12.372537"><ele>375.0</ele><time>2026-03-22T14:19:26.983Z</time></trkpt><trkpt lat="43.727026" lon="12.3725065"><ele>375.0</ele><time>2026-03-22T14:19:27.983Z</time></trkpt><trkpt lat="43.7271479" lon="12.3724826"><ele>374.0</ele><time>2026-03-22T14:19:28.983Z</time></trkpt><trkpt lat="43.7272667" lon="12.3724634"><ele>373.0</ele><time>2026-03-22T14:19:29.983Z</time></trkpt><trkpt lat="43.7273905" lon="12.3724546"><ele>372.0</ele><time>2026-03-22T14:19:30.982Z</time></trkpt><trkpt lat="43.7275157" lon="12.3724638"><ele>371.0</ele><time>2026-03-22T14:19:31.983Z</time></trkpt><trkpt lat="43.7276438" lon="12.3724897"><ele>373.6666666666667</ele><time>2026-03-22T14:19:32.983Z</time></trkpt><trkpt lat="43.7277862" lon="12.3725266"><ele>376.3333333333333</ele><time>2026-03-22T14:19:33.983Z</time></trkpt><trkpt lat="43.7279368" lon="12.3725733"><ele>379.0</ele><time>2026-03-22T14:19:34.982Z</time></trkpt><trkpt lat="43.7280947" lon="12.3726231"><ele>379.0</ele><time>2026-03-22T14:19:35.983Z</time></trkpt><trkpt lat="43.728257" lon="12.3726658"><ele>379.0</ele><time>2026-03-22T14:19:36.983Z</time></trkpt><trkpt lat="43.7284251" lon="12.3727151"><ele>379.0</ele><time>2026-03-22T14:19:37.983Z</time></trkpt><trkpt lat="43.7285917" lon="12.3727654"><ele>382.3333333333333</ele><time>2026-03-22T14:19:38.983Z</time></trkpt><trkpt lat="43.7287546" lon="12.3728159"><ele>385.66666666666663</ele><time>2026-03-22T14:19:39.983Z</time></trkpt><trkpt lat="43.7289276" lon="12.372868"><ele>389.0</ele><time>2026-03-22T14:19:40.983Z</time></trkpt><trkpt lat="43.7291057" lon="12.3729223"><ele>389.0</ele><time>2026-03-22T14:19:41.983Z</time></trkpt><trkpt lat="43.7292834" lon="12.3729716"><ele>389.0</ele><time>2026-03-22T14:19:42.983Z</time></trkpt><trkpt lat="43.7294637" lon="12.3730219"><ele>389.0</ele><time>2026-03-22T14:19:43.983Z</time></trkpt><trkpt lat="43.7296453" lon="12.3730745"><ele>388.3333333333333</ele><time>2026-03-22T14:19:44.983Z</time></trkpt><trkpt lat="43.7298237" lon="12.3731277"><ele>387.66666666666663</ele><time>2026-03-22T14:19:45.983Z</time></trkpt><trkpt lat="43.7300016" lon="12.3731803"><ele>387.0</ele><time>2026-03-22T14:19:46.983Z</time></trkpt><trkpt lat="43.7301272" lon="12.373268"><ele>389.25</ele><time>2026-03-22T14:19:47.983Z</time></trkpt><trkpt lat="43.73026" lon="12.3733593"><ele>391.5</ele><time>2026-03-22T14:19:48.983Z</time></trkpt><trkpt lat="43.7303696" lon="12.3734421"><ele>393.75</ele><time>2026-03-22T14:19:49.982Z</time></trkpt><trkpt lat="43.7304653" lon="12.3735011"><ele>396.0</ele><time>2026-03-22T14:19:50.983Z</time></trkpt><trkpt lat="43.7305693" lon="12.3735511"><ele>396.0</ele><time>2026-03-22T14:19:51.983Z</time></trkpt><trkpt lat="43.7306863" lon="12.3735803"><ele>396.0</ele><time>2026-03-22T14:19:52.982Z</time></trkpt><trkpt lat="43.7308244" lon="12.3735871"><ele>396.0</ele><time>2026-03-22T14:19:53.983Z</time></trkpt><trkpt lat="43.7309705" lon="12.3735829"><ele>396.0</ele><time>2026-03-22T14:19:54.983Z</time></trkpt><trkpt lat="43.7311172" lon="12.3735836"><ele>396.75</ele><time>2026-03-22T14:19:55.982Z</time></trkpt><trkpt lat="43.7312532" lon="12.3735978"><ele>397.5</ele><time>2026-03-22T14:19:56.983Z</time></trkpt><trkpt lat="43.731372" lon="12.373639"><ele>398.25</ele><time>2026-03-22T14:19:57.983Z</time></trkpt><trkpt lat="43.7314806" lon="12.3736927"><ele>399.0</ele><time>2026-03-22T14:19:58.983Z</time></trkpt><trkpt lat="43.7315793" lon="12.3737434"><ele>399.0</ele><time>2026-03-22T14:19:59.982Z</time></trkpt><trkpt lat="43.7316674" lon="12.3737899"><ele>399.0</ele><time>2026-03-22T14:20:00.983Z</time></trkpt><trkpt lat="43.7317501" lon="12.3738293"><ele>399.0</ele><time>2026-03-22T14:20:01.982Z</time></trkpt><trkpt lat="43.7318287" lon="12.3738708"><ele>399.0</ele><time>2026-03-22T14:20:02.983Z</time></trkpt><trkpt lat="43.7319022" lon="12.3739303"><ele>399.0</ele><time>2026-03-22T14:20:03.983Z</time></trkpt><trkpt lat="43.7319632" lon="12.3740104"><ele>399.0</ele><time>2026-03-22T14:20:04.982Z</time></trkpt><trkpt lat="43.7320084" lon="12.3741138"><ele>398.0</ele><time>2026-03-22T14:20:05.983Z</time></trkpt><trkpt lat="43.7320519" lon="12.3742501"><ele>397.0</ele><time>2026-03-22T14:20:06.983Z</time></trkpt><trkpt lat="43.7320934" lon="12.3744067"><ele>396.0</ele><time>2026-03-22T14:20:07.982Z</time></trkpt><trkpt lat="43.7321349" lon="12.3745724"><ele>395.0</ele><time>2026-03-22T14:20:08.983Z</time></trkpt><trkpt lat="43.7321788" lon="12.3747535"><ele>392.75</ele><time>2026-03-22T14:20:09.982Z</time></trkpt><trkpt lat="43.7322263" lon="12.3749495"><ele>390.5</ele><time>2026-03-22T14:20:10.982Z</time></trkpt><trkpt lat="43.7322732" lon="12.3751408"><ele>388.25</ele><time>2026-03-22T14:20:11.983Z</time></trkpt><trkpt lat="43.732315" lon="12.3753214"><ele>386.0</ele><time>2026-03-22T14:20:12.983Z</time></trkpt><trkpt lat="43.7323542" lon="12.3754923"><ele>387.0</ele><time>2026-03-22T14:20:13.983Z</time></trkpt><trkpt lat="43.7323939" lon="12.3756628"><ele>388.0</ele><time>2026-03-22T14:20:14.983Z</time></trkpt><trkpt lat="43.732444" lon="12.3758072"><ele>389.0</ele><time>2026-03-22T14:20:15.982Z</time></trkpt><trkpt lat="43.7325039" lon="12.3759272"><ele>390.0</ele><time>2026-03-22T14:20:16.983Z</time></trkpt><trkpt lat="43.7325783" lon="12.376032"><ele>390.0</ele><time>2026-03-22T14:20:17.982Z</time></trkpt><trkpt lat="43.7326659" lon="12.3761179"><ele>390.0</ele><time>2026-03-22T14:20:18.983Z</time></trkpt><trkpt lat="43.7327673" lon="12.376199"><ele>390.0</ele><time>2026-03-22T14:20:19.982Z</time></trkpt><trkpt lat="43.7328827" lon="12.3763029"><ele>390.0</ele><time>2026-03-22T14:20:20.983Z</time></trkpt><trkpt lat="43.7329943" lon="12.376435"><ele>395.66666666666663</ele><time>2026-03-22T14:20:21.983Z</time></trkpt><trkpt lat="43.7331012" lon="12.3765971"><ele>401.3333333333333</ele><time>2026-03-22T14:20:22.982Z</time></trkpt><trkpt lat="43.733207" lon="12.37677"><ele>407.0</ele><time>2026-03-22T14:20:23.983Z</time></trkpt><trkpt lat="43.7333124" lon="12.3769469"><ele>407.0</ele><time>2026-03-22T14:20:24.982Z</time></trkpt><trkpt lat="43.7334214" lon="12.3771253"><ele>407.0</ele><time>2026-03-22T14:20:25.983Z</time></trkpt><trkpt lat="43.7335279" lon="12.3773078"><ele>407.0</ele><time>2026-03-22T14:20:26.982Z</time></trkpt><trkpt lat="43.7336353" lon="12.3774878"><ele>409.66666666666663</ele><time>2026-03-22T14:20:27.983Z</time></trkpt><trkpt lat="43.7337475" lon="12.3776747"><ele>412.33333333333337</ele><time>2026-03-22T14:20:28.983Z</time></trkpt><trkpt lat="43.7338587" lon="12.3778651"><ele>415.0</ele><time>2026-03-22T14:20:29.983Z</time></trkpt><trkpt lat="43.7339724" lon="12.3780527"><ele>415.0</ele><time>2026-03-22T14:20:30.982Z</time></trkpt><trkpt lat="43.7340833" lon="12.3782504"><ele>415.0</ele><time>2026-03-22T14:20:31.983Z</time></trkpt><trkpt lat="43.7341936" lon="12.3784514"><ele>415.0</ele><time>2026-03-22T14:20:32.983Z</time></trkpt><trkpt lat="43.7342981" lon="12.3786578"><ele>418.33333333333337</ele><time>2026-03-22T14:20:33.983Z</time></trkpt><trkpt lat="43.7343964" lon="12.3788682"><ele>421.66666666666663</ele><time>2026-03-22T14:20:34.982Z</time></trkpt><trkpt lat="43.7344854" lon="12.3790679"><ele>425.0</ele><time>2026-03-22T14:20:35.983Z</time></trkpt><trkpt lat="43.7345574" lon="12.3792399"><ele>425.0</ele><time>2026-03-22T14:20:36.982Z</time></trkpt><trkpt lat="43.7346251" lon="12.3793925"><ele>425.0</ele><time>2026-03-22T14:20:37.983Z</time></trkpt><trkpt lat="43.7346925" lon="12.3795114"><ele>425.0</ele><time>2026-03-22T14:20:38.983Z</time></trkpt><trkpt lat="43.7347743" lon="12.3796238"><ele>425.0</ele><time>2026-03-22T14:20:39.983Z</time></trkpt><trkpt lat="43.7348782" lon="12.3797297"><ele>425.75</ele><time>2026-03-22T14:20:40.982Z</time></trkpt><trkpt lat="43.7349981" lon="12.379837"><ele>426.5</ele><time>2026-03-22T14:20:41.982Z</time></trkpt><trkpt lat="43.7351279" lon="12.3799432"><ele>427.25</ele><time>2026-03-22T14:20:42.982Z</time></trkpt><trkpt lat="43.7352648" lon="12.3800465"><ele>428.0</ele><time>2026-03-22T14:20:43.983Z</time></trkpt><trkpt lat="43.7353915" lon="12.3801309"><ele>430.3333333333333</ele><time>2026-03-22T14:20:44.983Z</time></trkpt><trkpt lat="43.7355288" lon="12.3801976"><ele>432.66666666666663</ele><time>2026-03-22T14:20:45.982Z</time></trkpt><trkpt lat="43.7356772" lon="12.3802523"><ele>435.0</ele><time>2026-03-22T14:20:46.983Z</time></trkpt><trkpt lat="43.7358369" lon="12.3803039"><ele>435.0</ele><time>2026-03-22T14:20:47.983Z</time></trkpt><trkpt lat="43.7360029" lon="12.3803528"><ele>435.0</ele><time>2026-03-22T14:20:48.983Z</time></trkpt><trkpt lat="43.7361607" lon="12.3803959"><ele>435.0</ele><time>2026-03-22T14:20:49.983Z</time></trkpt><trkpt lat="43.7363018" lon="12.3804356"><ele>437.5</ele><time>2026-03-22T14:20:50.982Z</time></trkpt><trkpt lat="43.7364412" lon="12.3804763"><ele>440.0</ele><time>2026-03-22T14:20:51.983Z</time></trkpt><trkpt lat="43.7365744" lon="12.3805235"><ele>442.5</ele><time>2026-03-22T14:20:52.982Z</time></trkpt><trkpt lat="43.7366857" lon="12.3805821"><ele>445.0</ele><time>2026-03-22T14:20:53.982Z</time></trkpt><trkpt lat="43.736774" lon="12.3806582"><ele>445.0</ele><time>2026-03-22T14:20:54.983Z</time></trkpt><trkpt lat="43.7368578" lon="12.3807621"><ele>445.0</ele><time>2026-03-22T14:20:55.982Z</time></trkpt><trkpt lat="43.7369373" lon="12.3808913"><ele>445.0</ele><time>2026-03-22T14:20:56.983Z</time></trkpt><trkpt lat="43.7370208" lon="12.3810377"><ele>445.0</ele><time>2026-03-22T14:20:57.983Z</time></trkpt><trkpt lat="43.7371035" lon="12.3812053"><ele>450.0</ele><time>2026-03-22T14:20:58.983Z</time></trkpt><trkpt lat="43.7371765" lon="12.3813914"><ele>455.0</ele><time>2026-03-22T14:20:59.983Z</time></trkpt><trkpt lat="43.737239" lon="12.3816024"><ele>460.0</ele><time>2026-03-22T14:21:00.983Z</time></trkpt><trkpt lat="43.7373031" lon="12.3818358"><ele>460.0</ele><time>2026-03-22T14:21:01.983Z</time></trkpt><trkpt lat="43.7373708" lon="12.3820751"><ele>460.0</ele><time>2026-03-22T14:21:02.982Z</time></trkpt><trkpt lat="43.7374415" lon="12.3823129"><ele>460.0</ele><time>2026-03-22T14:21:03.982Z</time></trkpt><trkpt lat="43.7375102" lon="12.3825389"><ele>460.5</ele><time>2026-03-22T14:21:04.983Z</time></trkpt><trkpt lat="43.7375825" lon="12.3827434"><ele>461.0</ele><time>2026-03-22T14:21:05.982Z</time></trkpt><trkpt lat="43.7376544" lon="12.3829294"><ele>461.5</ele><time>2026-03-22T14:21:06.982Z</time></trkpt><trkpt lat="43.7377168" lon="12.3830774"><ele>462.0</ele><time>2026-03-22T14:21:07.983Z</time></trkpt><trkpt lat="43.7377733" lon="12.3832015"><ele>465.0</ele><time>2026-03-22T14:21:08.983Z</time></trkpt><trkpt lat="43.7378286" lon="12.3832945"><ele>468.0</ele><time>2026-03-22T14:21:09.982Z</time></trkpt><trkpt lat="43.737887" lon="12.3833666"><ele>471.0</ele><time>2026-03-22T14:21:10.983Z</time></trkpt><trkpt lat="43.7379596" lon="12.3834105"><ele>474.0</ele><time>2026-03-22T14:21:11.983Z</time></trkpt><trkpt lat="43.7380331" lon="12.383424"><ele>477.0</ele><time>2026-03-22T14:21:12.983Z</time></trkpt><trkpt lat="43.7381085" lon="12.3834066"><ele>480.0</ele><time>2026-03-22T14:21:13.982Z</time></trkpt><trkpt lat="43.7381746" lon="12.3833567"><ele>480.0</ele><time>2026-03-22T14:21:14.982Z</time></trkpt><trkpt lat="43.7382318" lon="12.3832774"><ele>480.0</ele><time>2026-03-22T14:21:15.983Z</time></trkpt><trkpt lat="43.7382814" lon="12.3831744"><ele>480.0</ele><time>2026-03-22T14:21:16.982Z</time></trkpt><trkpt lat="43.7383142" lon="12.3830564"><ele>480.0</ele><time>2026-03-22T14:21:17.983Z</time></trkpt><trkpt lat="43.7383201" lon="12.3829175"><ele>480.0</ele><time>2026-03-22T14:21:18.983Z</time></trkpt><trkpt lat="43.7383027" lon="12.3827357"><ele>480.75</ele><time>2026-03-22T14:21:19.982Z</time></trkpt><trkpt lat="43.7382759" lon="12.3825441"><ele>481.5</ele><time>2026-03-22T14:21:20.983Z</time></trkpt><trkpt lat="43.738277" lon="12.3823488"><ele>482.25</ele><time>2026-03-22T14:21:21.983Z</time></trkpt><trkpt lat="43.7382994" lon="12.3821386"><ele>483.0</ele><time>2026-03-22T14:21:22.983Z</time></trkpt><trkpt lat="43.738326" lon="12.3819029"><ele>484.33333333333337</ele><time>2026-03-22T14:21:23.983Z</time></trkpt><trkpt lat="43.738347" lon="12.3816897"><ele>485.6666666666667</ele><time>2026-03-22T14:21:24.983Z</time></trkpt><trkpt lat="43.7383396" lon="12.3814794"><ele>487.0</ele><time>2026-03-22T14:21:25.982Z</time></trkpt><trkpt lat="43.7383415" lon="12.3812667"><ele>489.0</ele><time>2026-03-22T14:21:26.983Z</time></trkpt><trkpt lat="43.7382781" lon="12.3810385"><ele>491.0</ele><time>2026-03-22T14:21:27.983Z</time></trkpt><trkpt lat="43.7381972" lon="12.380816"><ele>493.0</ele><time>2026-03-22T14:21:28.983Z</time></trkpt><trkpt lat="43.7381223" lon="12.3805977"><ele>494.0</ele><time>2026-03-22T14:21:29.982Z</time></trkpt><trkpt lat="43.7380457" lon="12.3804025"><ele>495.0</ele><time>2026-03-22T14:21:30.982Z</time></trkpt><trkpt lat="43.7379804" lon="12.380251"><ele>496.0</ele><time>2026-03-22T14:21:31.983Z</time></trkpt><trkpt lat="43.737924" lon="12.380123"><ele>497.0</ele><time>2026-03-22T14:21:32.983Z</time></trkpt><trkpt lat="43.7378772" lon="12.3800231"><ele>496.99999999999994</ele><time>2026-03-22T14:21:33.982Z</time></trkpt><trkpt lat="43.7378501" lon="12.3799431"><ele>497.0</ele><time>2026-03-22T14:21:34.983Z</time></trkpt><trkpt lat="43.737857" lon="12.3798138"><ele>497.0</ele><time>2026-03-22T14:21:36.982Z</time></trkpt><trkpt lat="43.7379473" lon="12.3797588"><ele>497.0</ele><time>2026-03-22T14:21:38.983Z</time></trkpt><trkpt lat="43.7380085" lon="12.3797821"><ele>496.99999999999994</ele><time>2026-03-22T14:21:39.982Z</time></trkpt><trkpt lat="43.7380678" lon="12.3798507"><ele>497.0</ele><time>2026-03-22T14:21:40.982Z</time></trkpt><trkpt lat="43.7381472" lon="12.3799778"><ele>497.0</ele><time>2026-03-22T14:21:41.983Z</time></trkpt><trkpt lat="43.7382336" lon="12.3801439"><ele>497.0</ele><time>2026-03-22T14:21:42.983Z</time></trkpt><trkpt lat="43.7383228" lon="12.3803222"><ele>497.0</ele><time>2026-03-22T14:21:43.982Z</time></trkpt><trkpt lat="43.7384071" lon="12.380491"><ele>496.0</ele><time>2026-03-22T14:21:44.983Z</time></trkpt><trkpt lat="43.7384912" lon="12.3806533"><ele>495.0</ele><time>2026-03-22T14:21:45.983Z</time></trkpt><trkpt lat="43.7385724" lon="12.3808075"><ele>494.0</ele><time>2026-03-22T14:21:46.983Z</time></trkpt><trkpt lat="43.7386495" lon="12.3809559"><ele>493.0</ele><time>2026-03-22T14:21:47.983Z</time></trkpt><trkpt lat="43.7387178" lon="12.3811026"><ele>492.0</ele><time>2026-03-22T14:21:48.983Z</time></trkpt><trkpt lat="43.7387681" lon="12.3812359"><ele>491.0</ele><time>2026-03-22T14:21:49.982Z</time></trkpt><trkpt lat="43.7388043" lon="12.3813852"><ele>490.0</ele><time>2026-03-22T14:21:50.983Z</time></trkpt><trkpt lat="43.7388264" lon="12.3815684"><ele>489.0</ele><time>2026-03-22T14:21:51.983Z</time></trkpt><trkpt lat="43.7388423" lon="12.3817649"><ele>492.0</ele><time>2026-03-22T14:21:52.982Z</time></trkpt><trkpt lat="43.738858" lon="12.381963"><ele>495.0</ele><time>2026-03-22T14:21:53.983Z</time></trkpt><trkpt lat="43.7388712" lon="12.382148"><ele>498.0</ele><time>2026-03-22T14:21:54.983Z</time></trkpt><trkpt lat="43.7388898" lon="12.3823138"><ele>501.0</ele><time>2026-03-22T14:21:55.982Z</time></trkpt><trkpt lat="43.7389211" lon="12.3824814"><ele>502.75</ele><time>2026-03-22T14:21:56.982Z</time></trkpt><trkpt lat="43.7389695" lon="12.3826545"><ele>504.5</ele><time>2026-03-22T14:21:57.983Z</time></trkpt><trkpt lat="43.7390339" lon="12.3828401"><ele>506.25</ele><time>2026-03-22T14:21:58.983Z</time></trkpt><trkpt lat="43.7391109" lon="12.3830295"><ele>508.0</ele><time>2026-03-22T14:21:59.982Z</time></trkpt><trkpt lat="43.7391932" lon="12.3832293"><ele>508.0</ele><time>2026-03-22T14:22:00.982Z</time></trkpt><trkpt lat="43.7392807" lon="12.3834304"><ele>508.0</ele><time>2026-03-22T14:22:01.983Z</time></trkpt><trkpt lat="43.7393626" lon="12.3836163"><ele>508.0</ele><time>2026-03-22T14:22:02.982Z</time></trkpt><trkpt lat="43.7394331" lon="12.3837862"><ele>510.0</ele><time>2026-03-22T14:22:03.983Z</time></trkpt><trkpt lat="43.7394974" lon="12.3839408"><ele>512.0</ele><time>2026-03-22T14:22:04.983Z</time></trkpt><trkpt lat="43.7395587" lon="12.384081"><ele>514.0</ele><time>2026-03-22T14:22:05.983Z</time></trkpt><trkpt lat="43.7396174" lon="12.3842001"><ele>516.0</ele><time>2026-03-22T14:22:06.982Z</time></trkpt><trkpt lat="43.7396873" lon="12.3843146"><ele>516.0</ele><time>2026-03-22T14:22:07.982Z</time></trkpt><trkpt lat="43.7397742" lon="12.384414"><ele>516.0</ele><time>2026-03-22T14:22:08.982Z</time></trkpt><trkpt lat="43.739876" lon="12.3844996"><ele>516.0</ele><time>2026-03-22T14:22:09.983Z</time></trkpt><trkpt lat="43.7399909" lon="12.3845696"><ele>516.0</ele><time>2026-03-22T14:22:10.983Z</time></trkpt><trkpt lat="43.7401138" lon="12.3846405"><ele>520.5</ele><time>2026-03-22T14:22:11.983Z</time></trkpt><trkpt lat="43.740245" lon="12.3847198"><ele>525.0</ele><time>2026-03-22T14:22:12.983Z</time></trkpt><trkpt lat="43.7403787" lon="12.3848001"><ele>529.5</ele><time>2026-03-22T14:22:13.982Z</time></trkpt><trkpt lat="43.7405127" lon="12.3848742"><ele>534.0</ele><time>2026-03-22T14:22:14.983Z</time></trkpt><trkpt lat="43.7406343" lon="12.3849243"><ele>534.0</ele><time>2026-03-22T14:22:15.983Z</time></trkpt><trkpt lat="43.7407552" lon="12.3849536"><ele>534.0</ele><time>2026-03-22T14:22:16.983Z</time></trkpt><trkpt lat="43.7408846" lon="12.384953"><ele>534.0</ele><time>2026-03-22T14:22:17.983Z</time></trkpt><trkpt lat="43.7410118" lon="12.3849288"><ele>534.0</ele><time>2026-03-22T14:22:18.983Z</time></trkpt><trkpt lat="43.7411265" lon="12.3848943"><ele>533.6</ele><time>2026-03-22T14:22:19.982Z</time></trkpt><trkpt lat="43.7412204" lon="12.384845"><ele>533.2</ele><time>2026-03-22T14:22:20.983Z</time></trkpt><trkpt lat="43.7412976" lon="12.3847728"><ele>532.8000000000001</ele><time>2026-03-22T14:22:21.983Z</time></trkpt><trkpt lat="43.7413693" lon="12.3846799"><ele>532.4</ele><time>2026-03-22T14:22:22.982Z</time></trkpt><trkpt lat="43.7414291" lon="12.3845696"><ele>532.0</ele><time>2026-03-22T14:22:23.983Z</time></trkpt><trkpt lat="43.7415004" lon="12.3844031"><ele>531.25</ele><time>2026-03-22T14:22:24.983Z</time></trkpt><trkpt lat="43.7415678" lon="12.3842377"><ele>530.5</ele><time>2026-03-22T14:22:25.983Z</time></trkpt><trkpt lat="43.7416349" lon="12.3840727"><ele>529.75</ele><time>2026-03-22T14:22:26.982Z</time></trkpt><trkpt lat="43.7417099" lon="12.3839021"><ele>529.0</ele><time>2026-03-22T14:22:27.983Z</time></trkpt><trkpt lat="43.7417851" lon="12.3837339"><ele>527.5</ele><time>2026-03-22T14:22:28.983Z</time></trkpt><trkpt lat="43.7418602" lon="12.3835639"><ele>526.0</ele><time>2026-03-22T14:22:29.983Z</time></trkpt><trkpt lat="43.7419403" lon="12.3833909"><ele>524.5</ele><time>2026-03-22T14:22:30.983Z</time></trkpt><trkpt lat="43.7420139" lon="12.3832263"><ele>523.0</ele><time>2026-03-22T14:22:31.983Z</time></trkpt><trkpt lat="43.7420879" lon="12.3830726"><ele>523.4</ele><time>2026-03-22T14:22:32.983Z</time></trkpt><trkpt lat="43.7421541" lon="12.3829396"><ele>523.8</ele><time>2026-03-22T14:22:33.982Z</time></trkpt><trkpt lat="43.7422177" lon="12.3828263"><ele>524.2</ele><time>2026-03-22T14:22:34.982Z</time></trkpt><trkpt lat="43.7422881" lon="12.3827278"><ele>524.6</ele><time>2026-03-22T14:22:35.982Z</time></trkpt><trkpt lat="43.7423754" lon="12.3826481"><ele>525.0</ele><time>2026-03-22T14:22:36.982Z</time></trkpt><trkpt lat="43.7424814" lon="12.3825717"><ele>525.0</ele><time>2026-03-22T14:22:37.983Z</time></trkpt><trkpt lat="43.7425924" lon="12.382504"><ele>525.0</ele><time>2026-03-22T14:22:38.983Z</time></trkpt><trkpt lat="43.7427102" lon="12.3824241"><ele>525.0</ele><time>2026-03-22T14:22:39.983Z</time></trkpt><trkpt lat="43.7428256" lon="12.3823399"><ele>525.0</ele><time>2026-03-22T14:22:40.983Z</time></trkpt><trkpt lat="43.7429269" lon="12.3822577"><ele>523.25</ele><time>2026-03-22T14:22:41.983Z</time></trkpt><trkpt lat="43.7430202" lon="12.3821758"><ele>521.5</ele><time>2026-03-22T14:22:42.983Z</time></trkpt><trkpt lat="43.7430999" lon="12.3820766"><ele>519.75</ele><time>2026-03-22T14:22:43.983Z</time></trkpt><trkpt lat="43.7431644" lon="12.3819565"><ele>518.0</ele><time>2026-03-22T14:22:44.983Z</time></trkpt><trkpt lat="43.7432237" lon="12.3818052"><ele>518.0</ele><time>2026-03-22T14:22:45.982Z</time></trkpt><trkpt lat="43.7432827" lon="12.3816476"><ele>518.0</ele><time>2026-03-22T14:22:46.983Z</time></trkpt><trkpt lat="43.7433531" lon="12.3815034"><ele>518.0</ele><time>2026-03-22T14:22:47.982Z</time></trkpt><trkpt lat="43.7434419" lon="12.381389"><ele>518.0</ele><time>2026-03-22T14:22:48.983Z</time></trkpt><trkpt lat="43.7435477" lon="12.3812938"><ele>517.5</ele><time>2026-03-22T14:22:49.983Z</time></trkpt><trkpt lat="43.7436668" lon="12.3812052"><ele>517.0</ele><time>2026-03-22T14:22:50.983Z</time></trkpt><trkpt lat="43.7437947" lon="12.3811214"><ele>516.5</ele><time>2026-03-22T14:22:51.983Z</time></trkpt><trkpt lat="43.7439329" lon="12.3810339"><ele>516.0</ele><time>2026-03-22T14:22:52.982Z</time></trkpt><trkpt lat="43.7440738" lon="12.3809461"><ele>516.0</ele><time>2026-03-22T14:22:53.983Z</time></trkpt><trkpt lat="43.7442147" lon="12.3808633"><ele>516.0</ele><time>2026-03-22T14:22:54.983Z</time></trkpt><trkpt lat="43.7443501" lon="12.3807837"><ele>516.0</ele><time>2026-03-22T14:22:55.982Z</time></trkpt><trkpt lat="43.7444887" lon="12.3807224"><ele>516.0</ele><time>2026-03-22T14:22:56.982Z</time></trkpt><trkpt lat="43.7446321" lon="12.3806858"><ele>514.0</ele><time>2026-03-22T14:22:57.983Z</time></trkpt><trkpt lat="43.7447807" lon="12.3806662"><ele>512.0</ele><time>2026-03-22T14:22:58.982Z</time></trkpt><trkpt lat="43.7449329" lon="12.38065"><ele>510.0</ele><time>2026-03-22T14:22:59.983Z</time></trkpt><trkpt lat="43.7450897" lon="12.3806333"><ele>510.66666666666663</ele><time>2026-03-22T14:23:00.983Z</time></trkpt><trkpt lat="43.745249" lon="12.3806194"><ele>511.3333333333333</ele><time>2026-03-22T14:23:01.982Z</time></trkpt><trkpt lat="43.7454013" lon="12.3806052"><ele>512.0</ele><time>2026-03-22T14:23:02.982Z</time></trkpt><trkpt lat="43.7455407" lon="12.3805852"><ele>512.0</ele><time>2026-03-22T14:23:03.982Z</time></trkpt><trkpt lat="43.7456618" lon="12.3805485"><ele>512.0</ele><time>2026-03-22T14:23:04.983Z</time></trkpt><trkpt lat="43.7457665" lon="12.3804876"><ele>512.0</ele><time>2026-03-22T14:23:05.983Z</time></trkpt><trkpt lat="43.7458568" lon="12.3803968"><ele>512.0</ele><time>2026-03-22T14:23:06.983Z</time></trkpt><trkpt lat="43.7459398" lon="12.3802659"><ele>512.5</ele><time>2026-03-22T14:23:07.982Z</time></trkpt><trkpt lat="43.7460119" lon="12.3801068"><ele>513.0</ele><time>2026-03-22T14:23:08.983Z</time></trkpt><trkpt lat="43.7460792" lon="12.3799283"><ele>513.5</ele><time>2026-03-22T14:23:09.983Z</time></trkpt><trkpt lat="43.7461479" lon="12.3797543"><ele>514.0</ele><time>2026-03-22T14:23:10.983Z</time></trkpt><trkpt lat="43.7462053" lon="12.3796279"><ele>515.8333333333334</ele><time>2026-03-22T14:23:11.983Z</time></trkpt><trkpt lat="43.7462545" lon="12.3795316"><ele>517.6666666666667</ele><time>2026-03-22T14:23:12.982Z</time></trkpt><trkpt lat="43.7462943" lon="12.3794622"><ele>519.5</ele><time>2026-03-22T14:23:13.983Z</time></trkpt><trkpt lat="43.7463636" lon="12.3793958"><ele>521.3333333333334</ele><time>2026-03-22T14:23:15.983Z</time></trkpt><trkpt lat="43.7464489" lon="12.3793496"><ele>523.1666666666666</ele><time>2026-03-22T14:23:17.983Z</time></trkpt><trkpt lat="43.7465119" lon="12.3793277"><ele>525.0</ele><time>2026-03-22T14:23:18.982Z</time></trkpt><trkpt lat="43.7465905" lon="12.3793059"><ele>525.0</ele><time>2026-03-22T14:23:19.983Z</time></trkpt><trkpt lat="43.7466764" lon="12.3792876"><ele>525.0</ele><time>2026-03-22T14:23:20.982Z</time></trkpt><trkpt lat="43.7467707" lon="12.379268"><ele>525.0</ele><time>2026-03-22T14:23:21.983Z</time></trkpt><trkpt lat="43.7468716" lon="12.3792542"><ele>525.0</ele><time>2026-03-22T14:23:22.983Z</time></trkpt><trkpt lat="43.7469725" lon="12.3792312"><ele>525.0</ele><time>2026-03-22T14:23:23.983Z</time></trkpt><trkpt lat="43.7470752" lon="12.3791943"><ele>520.75</ele><time>2026-03-22T14:23:24.983Z</time></trkpt><trkpt lat="43.7471808" lon="12.379137"><ele>516.5</ele><time>2026-03-22T14:23:25.982Z</time></trkpt><trkpt lat="43.7472941" lon="12.3790671"><ele>512.25</ele><time>2026-03-22T14:23:26.983Z</time></trkpt><trkpt lat="43.7474104" lon="12.3789905"><ele>508.0</ele><time>2026-03-22T14:23:27.982Z</time></trkpt><trkpt lat="43.7475348" lon="12.3789056"><ele>511.25</ele><time>2026-03-22T14:23:28.983Z</time></trkpt><trkpt lat="43.7476608" lon="12.378823"><ele>514.5</ele><time>2026-03-22T14:23:29.983Z</time></trkpt><trkpt lat="43.7477832" lon="12.3787538"><ele>517.75</ele><time>2026-03-22T14:23:30.983Z</time></trkpt><trkpt lat="43.7478991" lon="12.3786995"><ele>521.0</ele><time>2026-03-22T14:23:31.983Z</time></trkpt><trkpt lat="43.7480115" lon="12.3786542"><ele>521.0</ele><time>2026-03-22T14:23:32.983Z</time></trkpt><trkpt lat="43.7481227" lon="12.3786294"><ele>521.0</ele><time>2026-03-22T14:23:33.983Z</time></trkpt><trkpt lat="43.7482384" lon="12.3786185"><ele>521.0</ele><time>2026-03-22T14:23:34.982Z</time></trkpt><trkpt lat="43.7483479" lon="12.3786252"><ele>521.0</ele><time>2026-03-22T14:23:35.982Z</time></trkpt><trkpt lat="43.7484599" lon="12.3786662"><ele>522.75</ele><time>2026-03-22T14:23:36.983Z</time></trkpt><trkpt lat="43.7485627" lon="12.3787328"><ele>524.5</ele><time>2026-03-22T14:23:37.982Z</time></trkpt><trkpt lat="43.7486627" lon="12.3788309"><ele>526.25</ele><time>2026-03-22T14:23:38.982Z</time></trkpt><trkpt lat="43.7487605" lon="12.3789531"><ele>528.0</ele><time>2026-03-22T14:23:39.983Z</time></trkpt><trkpt lat="43.7488629" lon="12.3790746"><ele>523.5</ele><time>2026-03-22T14:23:40.983Z</time></trkpt><trkpt lat="43.7489661" lon="12.3791735"><ele>519.0</ele><time>2026-03-22T14:23:41.983Z</time></trkpt><trkpt lat="43.7490841" lon="12.3792711"><ele>514.5</ele><time>2026-03-22T14:23:42.983Z</time></trkpt><trkpt lat="43.749197" lon="12.3793578"><ele>510.0</ele><time>2026-03-22T14:23:43.982Z</time></trkpt><trkpt lat="43.7493024" lon="12.3794386"><ele>509.2</ele><time>2026-03-22T14:23:44.983Z</time></trkpt><trkpt lat="43.7493922" lon="12.3795273"><ele>508.4</ele><time>2026-03-22T14:23:45.983Z</time></trkpt><trkpt lat="43.7494698" lon="12.3796352"><ele>507.6</ele><time>2026-03-22T14:23:46.983Z</time></trkpt><trkpt lat="43.7495297" lon="12.3797607"><ele>506.8</ele><time>2026-03-22T14:23:47.983Z</time></trkpt><trkpt lat="43.7495694" lon="12.3799173"><ele>506.0</ele><time>2026-03-22T14:23:48.983Z</time></trkpt><trkpt lat="43.749596" lon="12.3800668"><ele>506.0</ele><time>2026-03-22T14:23:49.983Z</time></trkpt><trkpt lat="43.7496263" lon="12.3801942"><ele>506.0</ele><time>2026-03-22T14:23:50.983Z</time></trkpt><trkpt lat="43.7496633" lon="12.380308"><ele>506.0</ele><time>2026-03-22T14:23:51.983Z</time></trkpt><trkpt lat="43.7497177" lon="12.3803952"><ele>506.0</ele><time>2026-03-22T14:23:52.982Z</time></trkpt><trkpt lat="43.7497892" lon="12.3804433"><ele>506.0</ele><time>2026-03-22T14:23:53.982Z</time></trkpt><trkpt lat="43.7498912" lon="12.3804665"><ele>506.0</ele><time>2026-03-22T14:23:54.983Z</time></trkpt><trkpt lat="43.7500179" lon="12.380474"><ele>506.0</ele><time>2026-03-22T14:23:55.982Z</time></trkpt><trkpt lat="43.7501623" lon="12.3804832"><ele>506.0</ele><time>2026-03-22T14:23:56.982Z</time></trkpt><trkpt lat="43.7503131" lon="12.380491"><ele>506.0</ele><time>2026-03-22T14:23:57.983Z</time></trkpt><trkpt lat="43.7504663" lon="12.3805152"><ele>501.25</ele><time>2026-03-22T14:23:58.983Z</time></trkpt><trkpt lat="43.7506061" lon="12.3805443"><ele>496.5</ele><time>2026-03-22T14:23:59.983Z</time></trkpt><trkpt lat="43.7507444" lon="12.380568"><ele>491.75</ele><time>2026-03-22T14:24:00.983Z</time></trkpt><trkpt lat="43.750873" lon="12.3806028"><ele>487.0</ele><time>2026-03-22T14:24:01.982Z</time></trkpt><trkpt lat="43.7509815" lon="12.3806298"><ele>487.00000000000006</ele><time>2026-03-22T14:24:02.982Z</time></trkpt><trkpt lat="43.7510789" lon="12.3806629"><ele>487.0</ele><time>2026-03-22T14:24:03.983Z</time></trkpt><trkpt lat="43.7511628" lon="12.3806983"><ele>487.0</ele><time>2026-03-22T14:24:04.983Z</time></trkpt><trkpt lat="43.7512261" lon="12.3807296"><ele>487.0</ele><time>2026-03-22T14:24:05.983Z</time></trkpt><trkpt lat="43.7513059" lon="12.3807819"><ele>487.00000000000006</ele><time>2026-03-22T14:24:07.982Z</time></trkpt><trkpt lat="43.7513305" lon="12.3808661"><ele>487.0</ele><time>2026-03-22T14:24:10.982Z</time></trkpt><trkpt lat="43.7512519" lon="12.3808971"><ele>487.00000000000006</ele><time>2026-03-22T14:24:13.982Z</time></trkpt><trkpt lat="43.7511266" lon="12.3809114"><ele>487.0</ele><time>2026-03-22T14:24:15.983Z</time></trkpt><trkpt lat="43.7510508" lon="12.380934"><ele>487.0</ele><time>2026-03-22T14:24:16.983Z</time></trkpt><trkpt lat="43.7509885" lon="12.380976"><ele>487.0</ele><time>2026-03-22T14:24:17.982Z</time></trkpt><trkpt lat="43.7509364" lon="12.3810283"><ele>487.00000000000006</ele><time>2026-03-22T14:24:18.982Z</time></trkpt><trkpt lat="43.7509123" lon="12.3811621"><ele>487.0</ele><time>2026-03-22T14:24:20.982Z</time></trkpt><trkpt lat="43.7509559" lon="12.3812618"><ele>487.0</ele><time>2026-03-22T14:24:22.983Z</time></trkpt><trkpt lat="43.751075" lon="12.381283"><ele>487.00000000000006</ele><time>2026-03-22T14:24:24.982Z</time></trkpt><trkpt lat="43.7511678" lon="12.381276"><ele>487.00000000000006</ele><time>2026-03-22T14:24:25.982Z</time></trkpt><trkpt lat="43.7512662" lon="12.3812664"><ele>487.0</ele><time>2026-03-22T14:24:26.982Z</time></trkpt><trkpt lat="43.7513533" lon="12.3813065"><ele>487.0</ele><time>2026-03-22T14:24:27.982Z</time></trkpt><trkpt lat="43.7514454" lon="12.381382"><ele>484.8</ele><time>2026-03-22T14:24:28.982Z</time></trkpt><trkpt lat="43.7515318" lon="12.3814805"><ele>482.6</ele><time>2026-03-22T14:24:29.983Z</time></trkpt><trkpt lat="43.7515975" lon="12.381571"><ele>480.40000000000003</ele><time>2026-03-22T14:24:30.983Z</time></trkpt><trkpt lat="43.7516443" lon="12.3816658"><ele>478.20000000000005</ele><time>2026-03-22T14:24:31.982Z</time></trkpt><trkpt lat="43.7516621" lon="12.3817762"><ele>476.0</ele><time>2026-03-22T14:24:32.982Z</time></trkpt><trkpt lat="43.7516436" lon="12.3818857"><ele>476.0</ele><time>2026-03-22T14:24:33.983Z</time></trkpt><trkpt lat="43.7515947" lon="12.3820181"><ele>476.0</ele><time>2026-03-22T14:24:34.983Z</time></trkpt><trkpt lat="43.7515323" lon="12.3821762"><ele>476.0</ele><time>2026-03-22T14:24:35.982Z</time></trkpt><trkpt lat="43.7514743" lon="12.3823596"><ele>476.0</ele><time>2026-03-22T14:24:36.982Z</time></trkpt><trkpt lat="43.7514283" lon="12.3825517"><ele>473.66666666666663</ele><time>2026-03-22T14:24:37.982Z</time></trkpt><trkpt lat="43.7513873" lon="12.3827632"><ele>471.33333333333337</ele><time>2026-03-22T14:24:38.982Z</time></trkpt><trkpt lat="43.7513441" lon="12.3830249"><ele>469.0</ele><time>2026-03-22T14:24:39.983Z</time></trkpt><trkpt lat="43.7512986" lon="12.3832658"><ele>468.6666666666667</ele><time>2026-03-22T14:24:40.983Z</time></trkpt><trkpt lat="43.7512577" lon="12.3834862"><ele>468.33333333333337</ele><time>2026-03-22T14:24:41.983Z</time></trkpt><trkpt lat="43.7512188" lon="12.3836851"><ele>468.0</ele><time>2026-03-22T14:24:42.982Z</time></trkpt><trkpt lat="43.751183" lon="12.3838689"><ele>467.79999999999995</ele><time>2026-03-22T14:24:43.983Z</time></trkpt><trkpt lat="43.7511608" lon="12.3840411"><ele>467.59999999999997</ele><time>2026-03-22T14:24:44.983Z</time></trkpt><trkpt lat="43.7511525" lon="12.3841972"><ele>467.40000000000003</ele><time>2026-03-22T14:24:45.983Z</time></trkpt><trkpt lat="43.7511614" lon="12.3843333"><ele>467.20000000000005</ele><time>2026-03-22T14:24:46.983Z</time></trkpt><trkpt lat="43.7511923" lon="12.3844766"><ele>467.0</ele><time>2026-03-22T14:24:47.983Z</time></trkpt><trkpt lat="43.7512415" lon="12.3846456"><ele>466.0</ele><time>2026-03-22T14:24:48.983Z</time></trkpt><trkpt lat="43.7512995" lon="12.3848407"><ele>465.0</ele><time>2026-03-22T14:24:49.983Z</time></trkpt><trkpt lat="43.7513415" lon="12.3850078"><ele>464.0</ele><time>2026-03-22T14:24:50.983Z</time></trkpt><trkpt lat="43.7513639" lon="12.3851451"><ele>463.0</ele><time>2026-03-22T14:24:51.983Z</time></trkpt><trkpt lat="43.7513679" lon="12.3852769"><ele>463.00000000000006</ele><time>2026-03-22T14:24:52.983Z</time></trkpt><trkpt lat="43.7513507" lon="12.3854003"><ele>463.0</ele><time>2026-03-22T14:24:53.982Z</time></trkpt><trkpt lat="43.7513109" lon="12.3855177"><ele>463.0</ele><time>2026-03-22T14:24:54.983Z</time></trkpt><trkpt lat="43.7512549" lon="12.3856177"><ele>463.0</ele><time>2026-03-22T14:24:55.983Z</time></trkpt><trkpt lat="43.7511942" lon="12.3856861"><ele>463.00000000000006</ele><time>2026-03-22T14:24:56.983Z</time></trkpt><trkpt lat="43.751128" lon="12.3857266"><ele>463.0</ele><time>2026-03-22T14:24:57.983Z</time></trkpt><trkpt lat="43.7510582" lon="12.385732"><ele>464.0</ele><time>2026-03-22T14:24:58.983Z</time></trkpt><trkpt lat="43.7509816" lon="12.3856987"><ele>465.0</ele><time>2026-03-22T14:24:59.982Z</time></trkpt><trkpt lat="43.7508878" lon="12.3856256"><ele>466.0</ele><time>2026-03-22T14:25:00.982Z</time></trkpt><trkpt lat="43.7507663" lon="12.385508"><ele>467.0</ele><time>2026-03-22T14:25:01.982Z</time></trkpt><trkpt lat="43.7506163" lon="12.3853541"><ele>467.3333333333333</ele><time>2026-03-22T14:25:02.983Z</time></trkpt><trkpt lat="43.7504661" lon="12.3851838"><ele>467.66666666666663</ele><time>2026-03-22T14:25:03.982Z</time></trkpt><trkpt lat="43.7503287" lon="12.3850276"><ele>468.0</ele><time>2026-03-22T14:25:04.983Z</time></trkpt><trkpt lat="43.7501908" lon="12.3848844"><ele>468.0</ele><time>2026-03-22T14:25:05.982Z</time></trkpt><trkpt lat="43.750057" lon="12.3847582"><ele>468.0</ele><time>2026-03-22T14:25:06.983Z</time></trkpt><trkpt lat="43.7499256" lon="12.384646"><ele>468.0</ele><time>2026-03-22T14:25:07.982Z</time></trkpt><trkpt lat="43.7497767" lon="12.3845378"><ele>466.0</ele><time>2026-03-22T14:25:08.982Z</time></trkpt><trkpt lat="43.7496194" lon="12.3844344"><ele>464.0</ele><time>2026-03-22T14:25:09.983Z</time></trkpt><trkpt lat="43.7494836" lon="12.3843467"><ele>462.0</ele><time>2026-03-22T14:25:10.983Z</time></trkpt><trkpt lat="43.749366" lon="12.3842687"><ele>462.0</ele><time>2026-03-22T14:25:11.983Z</time></trkpt><trkpt lat="43.7492623" lon="12.3842013"><ele>462.0</ele><time>2026-03-22T14:25:12.982Z</time></trkpt><trkpt lat="43.7491704" lon="12.3841536"><ele>462.0</ele><time>2026-03-22T14:25:13.983Z</time></trkpt><trkpt lat="43.7490905" lon="12.3841324"><ele>462.0</ele><time>2026-03-22T14:25:14.983Z</time></trkpt><trkpt lat="43.7490234" lon="12.3841393"><ele>462.0</ele><time>2026-03-22T14:25:15.983Z</time></trkpt><trkpt lat="43.748957" lon="12.3841619"><ele>462.0</ele><time>2026-03-22T14:25:16.982Z</time></trkpt><trkpt lat="43.7488994" lon="12.3841972"><ele>462.0</ele><time>2026-03-22T14:25:17.983Z</time></trkpt><trkpt lat="43.7488407" lon="12.3843342"><ele>462.00000000000006</ele><time>2026-03-22T14:25:19.982Z</time></trkpt><trkpt lat="43.7488337" lon="12.3844395"><ele>462.00000000000006</ele><time>2026-03-22T14:25:20.982Z</time></trkpt><trkpt lat="43.748844" lon="12.3845643"><ele>462.0</ele><time>2026-03-22T14:25:21.983Z</time></trkpt><trkpt lat="43.7488666" lon="12.384732"><ele>462.0</ele><time>2026-03-22T14:25:22.983Z</time></trkpt><trkpt lat="43.7488951" lon="12.3849211"><ele>462.40000000000003</ele><time>2026-03-22T14:25:23.982Z</time></trkpt><trkpt lat="43.7489175" lon="12.3850883"><ele>462.80000000000007</ele><time>2026-03-22T14:25:24.982Z</time></trkpt><trkpt lat="43.7489257" lon="12.3852334"><ele>463.2</ele><time>2026-03-22T14:25:25.983Z</time></trkpt><trkpt lat="43.748914" lon="12.3853674"><ele>463.6</ele><time>2026-03-22T14:25:26.983Z</time></trkpt><trkpt lat="43.7488794" lon="12.3854919"><ele>464.0</ele><time>2026-03-22T14:25:27.983Z</time></trkpt><trkpt lat="43.7488209" lon="12.3856099"><ele>464.0</ele><time>2026-03-22T14:25:28.983Z</time></trkpt><trkpt lat="43.7487355" lon="12.385727"><ele>464.0</ele><time>2026-03-22T14:25:29.982Z</time></trkpt><trkpt lat="43.748641" lon="12.3858332"><ele>464.0</ele><time>2026-03-22T14:25:30.983Z</time></trkpt><trkpt lat="43.748543" lon="12.3859162"><ele>464.0</ele><time>2026-03-22T14:25:31.983Z</time></trkpt><trkpt lat="43.7484346" lon="12.385984"><ele>459.6</ele><time>2026-03-22T14:25:32.983Z</time></trkpt><trkpt lat="43.7483182" lon="12.386045"><ele>455.2</ele><time>2026-03-22T14:25:33.982Z</time></trkpt><trkpt lat="43.7482188" lon="12.3861008"><ele>450.80000000000007</ele><time>2026-03-22T14:25:34.983Z</time></trkpt><trkpt lat="43.7481416" lon="12.386151"><ele>446.40000000000003</ele><time>2026-03-22T14:25:35.982Z</time></trkpt><trkpt lat="43.7480834" lon="12.3862036"><ele>442.0</ele><time>2026-03-22T14:25:36.983Z</time></trkpt><trkpt lat="43.748041" lon="12.3862682"><ele>442.0</ele><time>2026-03-22T14:25:37.983Z</time></trkpt><trkpt lat="43.748011" lon="12.3863548"><ele>442.00000000000006</ele><time>2026-03-22T14:25:38.983Z</time></trkpt><trkpt lat="43.74799" lon="12.3864727"><ele>442.00000000000006</ele><time>2026-03-22T14:25:39.982Z</time></trkpt><trkpt lat="43.7479883" lon="12.3866163"><ele>442.0</ele><time>2026-03-22T14:25:40.982Z</time></trkpt><trkpt lat="43.7480088" lon="12.3867732"><ele>442.0</ele><time>2026-03-22T14:25:41.982Z</time></trkpt><trkpt lat="43.7480397" lon="12.3869419"><ele>442.0</ele><time>2026-03-22T14:25:42.983Z</time></trkpt><trkpt lat="43.7480828" lon="12.3871207"><ele>442.0</ele><time>2026-03-22T14:25:43.982Z</time></trkpt><trkpt lat="43.7481274" lon="12.3872902"><ele>442.0</ele><time>2026-03-22T14:25:44.982Z</time></trkpt><trkpt lat="43.748163" lon="12.3874411"><ele>442.0</ele><time>2026-03-22T14:25:45.983Z</time></trkpt><trkpt lat="43.7481897" lon="12.3875715"><ele>440.83333333333337</ele><time>2026-03-22T14:25:46.983Z</time></trkpt><trkpt lat="43.7482153" lon="12.3876725"><ele>439.6666666666667</ele><time>2026-03-22T14:25:47.983Z</time></trkpt><trkpt lat="43.7482464" lon="12.3877519"><ele>438.5</ele><time>2026-03-22T14:25:48.982Z</time></trkpt><trkpt lat="43.7482931" lon="12.3878137"><ele>437.33333333333337</ele><time>2026-03-22T14:25:49.982Z</time></trkpt><trkpt lat="43.7484104" lon="12.387846"><ele>436.1666666666667</ele><time>2026-03-22T14:25:51.982Z</time></trkpt><trkpt lat="43.7484906" lon="12.3878294"><ele>435.0</ele><time>2026-03-22T14:25:52.982Z</time></trkpt><trkpt lat="43.7485766" lon="12.3878142"><ele>435.0</ele><time>2026-03-22T14:25:53.983Z</time></trkpt><trkpt lat="43.748654" lon="12.3878208"><ele>435.0</ele><time>2026-03-22T14:25:54.982Z</time></trkpt><trkpt lat="43.7487164" lon="12.3878725"><ele>435.0</ele><time>2026-03-22T14:25:55.983Z</time></trkpt><trkpt lat="43.7487778" lon="12.3879786"><ele>435.0</ele><time>2026-03-22T14:25:56.982Z</time></trkpt><trkpt lat="43.7488441" lon="12.3881236"><ele>435.0</ele><time>2026-03-22T14:25:57.983Z</time></trkpt><trkpt lat="43.7489105" lon="12.3882841"><ele>432.25</ele><time>2026-03-22T14:25:58.983Z</time></trkpt><trkpt lat="43.7489706" lon="12.3884429"><ele>429.5</ele><time>2026-03-22T14:25:59.983Z</time></trkpt><trkpt lat="43.7490085" lon="12.3886016"><ele>426.75</ele><time>2026-03-22T14:26:00.983Z</time></trkpt><trkpt lat="43.749021" lon="12.3887516"><ele>424.0</ele><time>2026-03-22T14:26:01.983Z</time></trkpt><trkpt lat="43.7490267" lon="12.388885"><ele>423.2</ele><time>2026-03-22T14:26:02.983Z</time></trkpt><trkpt lat="43.7490386" lon="12.3889884"><ele>422.4</ele><time>2026-03-22T14:26:03.983Z</time></trkpt><trkpt lat="43.7491013" lon="12.3891313"><ele>421.6</ele><time>2026-03-22T14:26:05.983Z</time></trkpt><trkpt lat="43.7492042" lon="12.3892028"><ele>420.8</ele><time>2026-03-22T14:26:07.982Z</time></trkpt><trkpt lat="43.7493322" lon="12.3891721"><ele>420.0</ele><time>2026-03-22T14:26:09.983Z</time></trkpt><trkpt lat="43.7494138" lon="12.3891325"><ele>420.0</ele><time>2026-03-22T14:26:10.983Z</time></trkpt><trkpt lat="43.7494849" lon="12.3891171"><ele>420.0</ele><time>2026-03-22T14:26:11.983Z</time></trkpt><trkpt lat="43.7495459" lon="12.3891461"><ele>420.0</ele><time>2026-03-22T14:26:12.983Z</time></trkpt><trkpt lat="43.7496005" lon="12.389214"><ele>420.0</ele><time>2026-03-22T14:26:13.983Z</time></trkpt><trkpt lat="43.7496348" lon="12.3893093"><ele>420.0</ele><time>2026-03-22T14:26:14.982Z</time></trkpt><trkpt lat="43.7496498" lon="12.3894362"><ele>420.0</ele><time>2026-03-22T14:26:15.982Z</time></trkpt><trkpt lat="43.749649" lon="12.3895816"><ele>418.75</ele><time>2026-03-22T14:26:16.983Z</time></trkpt><trkpt lat="43.7496233" lon="12.3897225"><ele>417.5</ele><time>2026-03-22T14:26:17.983Z</time></trkpt><trkpt lat="43.7495717" lon="12.3898683"><ele>416.25</ele><time>2026-03-22T14:26:18.982Z</time></trkpt><trkpt lat="43.7495048" lon="12.3900304"><ele>415.0</ele><time>2026-03-22T14:26:19.982Z</time></trkpt><trkpt lat="43.7494474" lon="12.3902061"><ele>415.0</ele><time>2026-03-22T14:26:20.983Z</time></trkpt><trkpt lat="43.7494063" lon="12.3903952"><ele>415.0</ele><time>2026-03-22T14:26:21.983Z</time></trkpt><trkpt lat="43.749382" lon="12.3905917"><ele>415.0</ele><time>2026-03-22T14:26:22.983Z</time></trkpt><trkpt lat="43.7493694" lon="12.3908031"><ele>415.0</ele><time>2026-03-22T14:26:23.983Z</time></trkpt><trkpt lat="43.7493536" lon="12.3910467"><ele>409.33333333333337</ele><time>2026-03-22T14:26:24.983Z</time></trkpt><trkpt lat="43.7493227" lon="12.391309"><ele>403.66666666666663</ele><time>2026-03-22T14:26:25.983Z</time></trkpt><trkpt lat="43.7492835" lon="12.3915504"><ele>398.0</ele><time>2026-03-22T14:26:26.983Z</time></trkpt><trkpt lat="43.7492478" lon="12.3917528"><ele>398.0</ele><time>2026-03-22T14:26:27.983Z</time></trkpt><trkpt lat="43.7492222" lon="12.3919226"><ele>398.0</ele><time>2026-03-22T14:26:28.983Z</time></trkpt><trkpt lat="43.7492058" lon="12.3920614"><ele>398.0</ele><time>2026-03-22T14:26:29.983Z</time></trkpt><trkpt lat="43.7492015" lon="12.3921786"><ele>398.0</ele><time>2026-03-22T14:26:30.983Z</time></trkpt><trkpt lat="43.7492125" lon="12.3922851"><ele>398.0</ele><time>2026-03-22T14:26:31.982Z</time></trkpt><trkpt lat="43.7492468" lon="12.3923928"><ele>398.5</ele><time>2026-03-22T14:26:32.982Z</time></trkpt><trkpt lat="43.7493029" lon="12.392506"><ele>399.0</ele><time>2026-03-22T14:26:33.983Z</time></trkpt><trkpt lat="43.7493835" lon="12.3926201"><ele>399.5</ele><time>2026-03-22T14:26:34.983Z</time></trkpt><trkpt lat="43.7494813" lon="12.3927383"><ele>400.0</ele><time>2026-03-22T14:26:35.983Z</time></trkpt><trkpt lat="43.7495878" lon="12.3928607"><ele>403.25</ele><time>2026-03-22T14:26:36.982Z</time></trkpt><trkpt lat="43.7496951" lon="12.3929832"><ele>406.5</ele><time>2026-03-22T14:26:37.983Z</time></trkpt><trkpt lat="43.749804" lon="12.393104"><ele>409.75</ele><time>2026-03-22T14:26:38.983Z</time></trkpt><trkpt lat="43.7498924" lon="12.3932021"><ele>413.0</ele><time>2026-03-22T14:26:39.983Z</time></trkpt><trkpt lat="43.7499579" lon="12.3932785"><ele>412.99999999999994</ele><time>2026-03-22T14:26:40.983Z</time></trkpt><trkpt lat="43.7500037" lon="12.3933513"><ele>413.0</ele><time>2026-03-22T14:26:41.982Z</time></trkpt><trkpt lat="43.7500326" lon="12.3934289"><ele>413.0</ele><time>2026-03-22T14:26:42.982Z</time></trkpt><trkpt lat="43.7500449" lon="12.3935186"><ele>413.0</ele><time>2026-03-22T14:26:43.983Z</time></trkpt><trkpt lat="43.7500263" lon="12.3936213"><ele>412.99999999999994</ele><time>2026-03-22T14:26:44.983Z</time></trkpt><trkpt lat="43.7499775" lon="12.3937225"><ele>413.0</ele><time>2026-03-22T14:26:45.983Z</time></trkpt><trkpt lat="43.7499037" lon="12.3938241"><ele>416.0</ele><time>2026-03-22T14:26:46.983Z</time></trkpt><trkpt lat="43.7497925" lon="12.393917"><ele>419.0</ele><time>2026-03-22T14:26:47.983Z</time></trkpt><trkpt lat="43.7496898" lon="12.3940125"><ele>422.0</ele><time>2026-03-22T14:26:48.983Z</time></trkpt><trkpt lat="43.7496101" lon="12.3941048"><ele>425.0</ele><time>2026-03-22T14:26:49.983Z</time></trkpt><trkpt lat="43.7495492" lon="12.394203"><ele>425.0</ele><time>2026-03-22T14:26:50.983Z</time></trkpt><trkpt lat="43.7495032" lon="12.3943098"><ele>425.0</ele><time>2026-03-22T14:26:51.983Z</time></trkpt><trkpt lat="43.7494791" lon="12.3944213"><ele>425.0</ele><time>2026-03-22T14:26:52.983Z</time></trkpt><trkpt lat="43.7494794" lon="12.3945348"><ele>425.0</ele><time>2026-03-22T14:26:53.983Z</time></trkpt><trkpt lat="43.7495" lon="12.3946592"><ele>425.0</ele><time>2026-03-22T14:26:54.983Z</time></trkpt><trkpt lat="43.7495388" lon="12.3947919"><ele>425.4</ele><time>2026-03-22T14:26:55.983Z</time></trkpt><trkpt lat="43.7495948" lon="12.3949256"><ele>425.8</ele><time>2026-03-22T14:26:56.983Z</time></trkpt><trkpt lat="43.749659" lon="12.3950383"><ele>426.20000000000005</ele><time>2026-03-22T14:26:57.983Z</time></trkpt><trkpt lat="43.7497261" lon="12.3951336"><ele>426.6</ele><time>2026-03-22T14:26:58.982Z</time></trkpt><trkpt lat="43.7497994" lon="12.395234"><ele>427.0</ele><time>2026-03-22T14:26:59.983Z</time></trkpt><trkpt lat="43.7498742" lon="12.3953372"><ele>427.0</ele><time>2026-03-22T14:27:00.982Z</time></trkpt><trkpt lat="43.7499481" lon="12.3954572"><ele>427.00000000000006</ele><time>2026-03-22T14:27:01.982Z</time></trkpt><trkpt lat="43.7500201" lon="12.3955945"><ele>427.00000000000006</ele><time>2026-03-22T14:27:02.982Z</time></trkpt><trkpt lat="43.7500689" lon="12.3957211"><ele>427.0</ele><time>2026-03-22T14:27:03.982Z</time></trkpt><trkpt lat="43.7501095" lon="12.3958475"><ele>427.0</ele><time>2026-03-22T14:27:04.983Z</time></trkpt><trkpt lat="43.7501395" lon="12.3959731"><ele>424.50000000000006</ele><time>2026-03-22T14:27:05.982Z</time></trkpt><trkpt lat="43.7501526" lon="12.3960992"><ele>422.0</ele><time>2026-03-22T14:27:06.983Z</time></trkpt><trkpt lat="43.7501469" lon="12.3962188"><ele>419.5</ele><time>2026-03-22T14:27:07.982Z</time></trkpt><trkpt lat="43.7501287" lon="12.3963246"><ele>417.0</ele><time>2026-03-22T14:27:08.983Z</time></trkpt><trkpt lat="43.7500889" lon="12.39641"><ele>414.50000000000006</ele><time>2026-03-22T14:27:09.983Z</time></trkpt><trkpt lat="43.7500199" lon="12.3964806"><ele>412.0</ele><time>2026-03-22T14:27:10.983Z</time></trkpt><trkpt lat="43.7499287" lon="12.3965296"><ele>411.8</ele><time>2026-03-22T14:27:11.983Z</time></trkpt><trkpt lat="43.7498132" lon="12.3965596"><ele>411.6</ele><time>2026-03-22T14:27:12.983Z</time></trkpt><trkpt lat="43.7496962" lon="12.3965778"><ele>411.40000000000003</ele><time>2026-03-22T14:27:13.983Z</time></trkpt><trkpt lat="43.7496025" lon="12.3965882"><ele>411.20000000000005</ele><time>2026-03-22T14:27:14.983Z</time></trkpt><trkpt lat="43.749519" lon="12.3965968"><ele>411.0</ele><time>2026-03-22T14:27:15.983Z</time></trkpt><trkpt lat="43.7494428" lon="12.3966149"><ele>411.0</ele><time>2026-03-22T14:27:16.983Z</time></trkpt><trkpt lat="43.7493835" lon="12.3966506"><ele>411.0</ele><time>2026-03-22T14:27:17.982Z</time></trkpt><trkpt lat="43.7493372" lon="12.3967118"><ele>411.0</ele><time>2026-03-22T14:27:18.983Z</time></trkpt><trkpt lat="43.7492916" lon="12.3968705"><ele>411.0</ele><time>2026-03-22T14:27:20.983Z</time></trkpt><trkpt lat="43.7492945" lon="12.3969719"><ele>411.0</ele><time>2026-03-22T14:27:21.983Z</time></trkpt><trkpt lat="43.7493237" lon="12.3970743"><ele>411.0</ele><time>2026-03-22T14:27:22.983Z</time></trkpt><trkpt lat="43.749365" lon="12.397205"><ele>413.5</ele><time>2026-03-22T14:27:23.983Z</time></trkpt><trkpt lat="43.749408" lon="12.3973479"><ele>416.0</ele><time>2026-03-22T14:27:24.982Z</time></trkpt><trkpt lat="43.7494553" lon="12.3974922"><ele>418.5</ele><time>2026-03-22T14:27:25.982Z</time></trkpt><trkpt lat="43.7495081" lon="12.3976706"><ele>421.0</ele><time>2026-03-22T14:27:26.982Z</time></trkpt><trkpt lat="43.7495653" lon="12.3978458"><ele>418.5</ele><time>2026-03-22T14:27:27.983Z</time></trkpt><trkpt lat="43.7496194" lon="12.398016"><ele>416.0</ele><time>2026-03-22T14:27:28.983Z</time></trkpt><trkpt lat="43.749668" lon="12.3981785"><ele>413.5</ele><time>2026-03-22T14:27:29.982Z</time></trkpt><trkpt lat="43.7497127" lon="12.3983363"><ele>411.0</ele><time>2026-03-22T14:27:30.982Z</time></trkpt><trkpt lat="43.7497509" lon="12.3985007"><ele>411.0</ele><time>2026-03-22T14:27:31.983Z</time></trkpt><trkpt lat="43.7497885" lon="12.3986943"><ele>411.0</ele><time>2026-03-22T14:27:32.982Z</time></trkpt><trkpt lat="43.7498238" lon="12.3988756"><ele>411.0</ele><time>2026-03-22T14:27:33.982Z</time></trkpt><trkpt lat="43.7498529" lon="12.3990369"><ele>411.0</ele><time>2026-03-22T14:27:34.982Z</time></trkpt><trkpt lat="43.7498868" lon="12.3991918"><ele>406.0</ele><time>2026-03-22T14:27:35.983Z</time></trkpt><trkpt lat="43.749931" lon="12.3993448"><ele>401.0</ele><time>2026-03-22T14:27:36.982Z</time></trkpt><trkpt lat="43.749992" lon="12.399514"><ele>396.0</ele><time>2026-03-22T14:27:37.983Z</time></trkpt><trkpt lat="43.7500502" lon="12.3996596"><ele>391.0</ele><time>2026-03-22T14:27:38.983Z</time></trkpt><trkpt lat="43.7500979" lon="12.399773"><ele>388.33333333333337</ele><time>2026-03-22T14:27:39.982Z</time></trkpt><trkpt lat="43.750137" lon="12.3998727"><ele>385.6666666666667</ele><time>2026-03-22T14:27:40.983Z</time></trkpt><trkpt lat="43.750169" lon="12.3999689"><ele>383.0</ele><time>2026-03-22T14:27:41.982Z</time></trkpt><trkpt lat="43.7501786" lon="12.4000633"><ele>380.33333333333337</ele><time>2026-03-22T14:27:42.982Z</time></trkpt><trkpt lat="43.7501594" lon="12.4001609"><ele>377.6666666666667</ele><time>2026-03-22T14:27:43.983Z</time></trkpt><trkpt lat="43.7501246" lon="12.4002778"><ele>375.0</ele><time>2026-03-22T14:27:44.983Z</time></trkpt><trkpt lat="43.7500952" lon="12.4004235"><ele>373.75</ele><time>2026-03-22T14:27:45.982Z</time></trkpt><trkpt lat="43.7500795" lon="12.4005823"><ele>372.5</ele><time>2026-03-22T14:27:46.983Z</time></trkpt><trkpt lat="43.7500888" lon="12.4007415"><ele>371.25</ele><time>2026-03-22T14:27:47.982Z</time></trkpt><trkpt lat="43.7501164" lon="12.4009108"><ele>370.0</ele><time>2026-03-22T14:27:48.983Z</time></trkpt><trkpt lat="43.7501439" lon="12.4010938"><ele>370.0</ele><time>2026-03-22T14:27:49.982Z</time></trkpt><trkpt lat="43.7501545" lon="12.4012672"><ele>370.0</ele><time>2026-03-22T14:27:50.982Z</time></trkpt><trkpt lat="43.7501505" lon="12.4014126"><ele>370.0</ele><time>2026-03-22T14:27:51.983Z</time></trkpt><trkpt lat="43.7501478" lon="12.4015431"><ele>370.0</ele><time>2026-03-22T14:27:52.983Z</time></trkpt><trkpt lat="43.7501603" lon="12.4016736"><ele>370.0</ele><time>2026-03-22T14:27:53.983Z</time></trkpt><trkpt lat="43.750196" lon="12.4018065"><ele>368.2</ele><time>2026-03-22T14:27:54.982Z</time></trkpt><trkpt lat="43.7502489" lon="12.401958"><ele>366.4</ele><time>2026-03-22T14:27:55.983Z</time></trkpt><trkpt lat="43.7502973" lon="12.402123"><ele>364.6</ele><time>2026-03-22T14:27:56.982Z</time></trkpt><trkpt lat="43.7503311" lon="12.4022654"><ele>362.8</ele><time>2026-03-22T14:27:57.983Z</time></trkpt><trkpt lat="43.7503584" lon="12.4023791"><ele>361.0</ele><time>2026-03-22T14:27:58.983Z</time></trkpt><trkpt lat="43.7504037" lon="12.4024643"><ele>361.0</ele><time>2026-03-22T14:27:59.983Z</time></trkpt><trkpt lat="43.7504683" lon="12.4025312"><ele>361.0</ele><time>2026-03-22T14:28:00.982Z</time></trkpt><trkpt lat="43.7505576" lon="12.4025987"><ele>361.0</ele><time>2026-03-22T14:28:01.982Z</time></trkpt><trkpt lat="43.7506691" lon="12.4026718"><ele>361.0</ele><time>2026-03-22T14:28:02.983Z</time></trkpt><trkpt lat="43.7507822" lon="12.4027486"><ele>361.0</ele><time>2026-03-22T14:28:03.983Z</time></trkpt><trkpt lat="43.7508746" lon="12.4028161"><ele>361.0</ele><time>2026-03-22T14:28:04.982Z</time></trkpt><trkpt lat="43.7509475" lon="12.4028901"><ele>361.0</ele><time>2026-03-22T14:28:05.982Z</time></trkpt><trkpt lat="43.7510001" lon="12.4029851"><ele>361.0</ele><time>2026-03-22T14:28:06.983Z</time></trkpt><trkpt lat="43.7510432" lon="12.4031057"><ele>361.0</ele><time>2026-03-22T14:28:07.983Z</time></trkpt><trkpt lat="43.7510935" lon="12.4032679"><ele>361.0</ele><time>2026-03-22T14:28:08.983Z</time></trkpt><trkpt lat="43.751141" lon="12.4034365"><ele>356.5</ele><time>2026-03-22T14:28:09.982Z</time></trkpt><trkpt lat="43.7511816" lon="12.4035851"><ele>352.0</ele><time>2026-03-22T14:28:10.983Z</time></trkpt><trkpt lat="43.7512232" lon="12.403733"><ele>347.5</ele><time>2026-03-22T14:28:11.983Z</time></trkpt><trkpt lat="43.7512681" lon="12.4038896"><ele>343.0</ele><time>2026-03-22T14:28:12.982Z</time></trkpt><trkpt lat="43.7513118" lon="12.4040402"><ele>343.0</ele><time>2026-03-22T14:28:13.982Z</time></trkpt><trkpt lat="43.751349" lon="12.4041692"><ele>343.0</ele><time>2026-03-22T14:28:14.983Z</time></trkpt><trkpt lat="43.7513799" lon="12.4042847"><ele>343.0</ele><time>2026-03-22T14:28:15.983Z</time></trkpt><trkpt lat="43.7514016" lon="12.4043845"><ele>343.0</ele><time>2026-03-22T14:28:16.982Z</time></trkpt><trkpt lat="43.751436" lon="12.4044888"><ele>343.0</ele><time>2026-03-22T14:28:18.982Z</time></trkpt><trkpt lat="43.751499" lon="12.4045167"><ele>343.0</ele><time>2026-03-22T14:28:20.982Z</time></trkpt><trkpt lat="43.751612" lon="12.4044998"><ele>343.0</ele><time>2026-03-22T14:28:22.983Z</time></trkpt><trkpt lat="43.7516964" lon="12.4044588"><ele>343.0</ele><time>2026-03-22T14:28:23.983Z</time></trkpt><trkpt lat="43.7517886" lon="12.40442"><ele>343.0</ele><time>2026-03-22T14:28:24.983Z</time></trkpt><trkpt lat="43.7518725" lon="12.4044023"><ele>343.0</ele><time>2026-03-22T14:28:25.983Z</time></trkpt><trkpt lat="43.7519475" lon="12.4044049"><ele>343.0</ele><time>2026-03-22T14:28:26.983Z</time></trkpt><trkpt lat="43.7520186" lon="12.4044259"><ele>343.0</ele><time>2026-03-22T14:28:27.983Z</time></trkpt><trkpt lat="43.752097" lon="12.4044717"><ele>344.2</ele><time>2026-03-22T14:28:28.983Z</time></trkpt><trkpt lat="43.7521912" lon="12.4045431"><ele>345.4</ele><time>2026-03-22T14:28:29.983Z</time></trkpt><trkpt lat="43.7522917" lon="12.4046146"><ele>346.59999999999997</ele><time>2026-03-22T14:28:30.982Z</time></trkpt><trkpt lat="43.7523857" lon="12.4046702"><ele>347.79999999999995</ele><time>2026-03-22T14:28:31.982Z</time></trkpt><trkpt lat="43.7524699" lon="12.4047112"><ele>349.0</ele><time>2026-03-22T14:28:32.982Z</time></trkpt><trkpt lat="43.7525456" lon="12.4047493"><ele>350.8333333333333</ele><time>2026-03-22T14:28:33.983Z</time></trkpt><trkpt lat="43.7526067" lon="12.4047867"><ele>352.66666666666663</ele><time>2026-03-22T14:28:34.983Z</time></trkpt><trkpt lat="43.7526582" lon="12.4048433"><ele>354.5</ele><time>2026-03-22T14:28:36.983Z</time></trkpt><trkpt lat="43.7526173" lon="12.4049408"><ele>356.3333333333333</ele><time>2026-03-22T14:28:38.982Z</time></trkpt><trkpt lat="43.7525618" lon="12.405006"><ele>358.1666666666667</ele><time>2026-03-22T14:28:39.982Z</time></trkpt><trkpt lat="43.752486" lon="12.4050841"><ele>360.0</ele><time>2026-03-22T14:28:40.982Z</time></trkpt><trkpt lat="43.7523911" lon="12.4051808"><ele>360.0</ele><time>2026-03-22T14:28:41.982Z</time></trkpt><trkpt lat="43.7522994" lon="12.4052813"><ele>360.0</ele><time>2026-03-22T14:28:42.983Z</time></trkpt><trkpt lat="43.7522066" lon="12.4053831"><ele>360.0</ele><time>2026-03-22T14:28:43.982Z</time></trkpt><trkpt lat="43.7521096" lon="12.4054942"><ele>360.0</ele><time>2026-03-22T14:28:44.982Z</time></trkpt><trkpt lat="43.752008" lon="12.405606"><ele>358.75</ele><time>2026-03-22T14:28:45.983Z</time></trkpt><trkpt lat="43.7519022" lon="12.4057259"><ele>357.5</ele><time>2026-03-22T14:28:46.983Z</time></trkpt><trkpt lat="43.7517973" lon="12.4058508"><ele>356.25</ele><time>2026-03-22T14:28:47.982Z</time></trkpt><trkpt lat="43.7516875" lon="12.4059817"><ele>355.0</ele><time>2026-03-22T14:28:48.983Z</time></trkpt><trkpt lat="43.7515703" lon="12.4061296"><ele>355.0</ele><time>2026-03-22T14:28:49.983Z</time></trkpt><trkpt lat="43.7514451" lon="12.4062823"><ele>355.0</ele><time>2026-03-22T14:28:50.983Z</time></trkpt><trkpt lat="43.7513194" lon="12.4064411"><ele>355.0</ele><time>2026-03-22T14:28:51.982Z</time></trkpt><trkpt lat="43.7511914" lon="12.4065937"><ele>353.3333333333333</ele><time>2026-03-22T14:28:52.983Z</time></trkpt><trkpt lat="43.7510594" lon="12.4067422"><ele>351.6666666666667</ele><time>2026-03-22T14:28:53.983Z</time></trkpt><trkpt lat="43.7509289" lon="12.4068837"><ele>350.0</ele><time>2026-03-22T14:28:54.982Z</time></trkpt><trkpt lat="43.7507971" lon="12.4070063"><ele>350.0</ele><time>2026-03-22T14:28:55.983Z</time></trkpt><trkpt lat="43.7506597" lon="12.40712"><ele>350.0</ele><time>2026-03-22T14:28:56.983Z</time></trkpt><trkpt lat="43.7505161" lon="12.407212"><ele>350.0</ele><time>2026-03-22T14:28:57.982Z</time></trkpt><trkpt lat="43.7503646" lon="12.407299"><ele>352.6666666666667</ele><time>2026-03-22T14:28:58.983Z</time></trkpt><trkpt lat="43.7502125" lon="12.4073937"><ele>355.3333333333333</ele><time>2026-03-22T14:28:59.982Z</time></trkpt><trkpt lat="43.7500556" lon="12.4074877"><ele>358.0</ele><time>2026-03-22T14:29:00.983Z</time></trkpt><trkpt lat="43.7498962" lon="12.4075866"><ele>358.0</ele><time>2026-03-22T14:29:01.982Z</time></trkpt><trkpt lat="43.7497357" lon="12.4076911"><ele>358.0</ele><time>2026-03-22T14:29:02.983Z</time></trkpt><trkpt lat="43.7495788" lon="12.4078104"><ele>358.0</ele><time>2026-03-22T14:29:03.983Z</time></trkpt><trkpt lat="43.7494186" lon="12.4079237"><ele>357.0</ele><time>2026-03-22T14:29:04.983Z</time></trkpt><trkpt lat="43.7492597" lon="12.4080404"><ele>356.0</ele><time>2026-03-22T14:29:05.982Z</time></trkpt><trkpt lat="43.7491036" lon="12.4081696"><ele>355.0</ele><time>2026-03-22T14:29:06.982Z</time></trkpt><trkpt lat="43.748954" lon="12.4083009"><ele>355.0</ele><time>2026-03-22T14:29:07.983Z</time></trkpt><trkpt lat="43.7488197" lon="12.4084709"><ele>355.0</ele><time>2026-03-22T14:29:08.983Z</time></trkpt><trkpt lat="43.7486828" lon="12.4086289"><ele>355.0</ele><time>2026-03-22T14:29:09.982Z</time></trkpt><trkpt lat="43.7485591" lon="12.4087748"><ele>353.5</ele><time>2026-03-22T14:29:10.983Z</time></trkpt><trkpt lat="43.7484481" lon="12.4089142"><ele>352.0</ele><time>2026-03-22T14:29:11.983Z</time></trkpt><trkpt lat="43.748356" lon="12.4090597"><ele>350.5</ele><time>2026-03-22T14:29:12.982Z</time></trkpt><trkpt lat="43.7482706" lon="12.4092162"><ele>349.0</ele><time>2026-03-22T14:29:13.983Z</time></trkpt><trkpt lat="43.7481909" lon="12.4093926"><ele>349.0</ele><time>2026-03-22T14:29:14.982Z</time></trkpt><trkpt lat="43.7481178" lon="12.4095811"><ele>349.0</ele><time>2026-03-22T14:29:15.982Z</time></trkpt><trkpt lat="43.7480459" lon="12.4097766"><ele>349.0</ele><time>2026-03-22T14:29:16.983Z</time></trkpt><trkpt lat="43.7479759" lon="12.4099622"><ele>350.5</ele><time>2026-03-22T14:29:17.982Z</time></trkpt><trkpt lat="43.7479057" lon="12.4101303"><ele>352.0</ele><time>2026-03-22T14:29:18.983Z</time></trkpt><trkpt lat="43.7478302" lon="12.4102899"><ele>353.5</ele><time>2026-03-22T14:29:19.982Z</time></trkpt><trkpt lat="43.7477335" lon="12.4104432"><ele>355.0</ele><time>2026-03-22T14:29:20.982Z</time></trkpt><trkpt lat="43.7476201" lon="12.410593"><ele>355.0</ele><time>2026-03-22T14:29:21.982Z</time></trkpt><trkpt lat="43.7474727" lon="12.4107488"><ele>355.0</ele><time>2026-03-22T14:29:22.983Z</time></trkpt><trkpt lat="43.7473369" lon="12.4109026"><ele>355.0</ele><time>2026-03-22T14:29:23.982Z</time></trkpt><trkpt lat="43.7472194" lon="12.4110562"><ele>355.0</ele><time>2026-03-22T14:29:24.983Z</time></trkpt><trkpt lat="43.7471036" lon="12.4112167"><ele>355.0</ele><time>2026-03-22T14:29:25.982Z</time></trkpt><trkpt lat="43.7469834" lon="12.411381"><ele>355.0</ele><time>2026-03-22T14:29:26.983Z</time></trkpt><trkpt lat="43.7468633" lon="12.4115518"><ele>353.3333333333333</ele><time>2026-03-22T14:29:27.983Z</time></trkpt><trkpt lat="43.7467375" lon="12.4117405"><ele>351.6666666666667</ele><time>2026-03-22T14:29:28.983Z</time></trkpt><trkpt lat="43.7466078" lon="12.4119358"><ele>350.0</ele><time>2026-03-22T14:29:29.983Z</time></trkpt><trkpt lat="43.7464771" lon="12.4121307"><ele>355.0</ele><time>2026-03-22T14:29:30.982Z</time></trkpt><trkpt lat="43.7463491" lon="12.412324"><ele>360.0</ele><time>2026-03-22T14:29:31.983Z</time></trkpt><trkpt lat="43.7462274" lon="12.4125112"><ele>365.0</ele><time>2026-03-22T14:29:32.983Z</time></trkpt><trkpt lat="43.74611" lon="12.4126934"><ele>357.6666666666667</ele><time>2026-03-22T14:29:33.983Z</time></trkpt><trkpt lat="43.7459982" lon="12.4128608"><ele>350.3333333333333</ele><time>2026-03-22T14:29:34.983Z</time></trkpt><trkpt lat="43.7458983" lon="12.4130188"><ele>343.0</ele><time>2026-03-22T14:29:35.983Z</time></trkpt><trkpt lat="43.7458033" lon="12.4131661"><ele>343.0</ele><time>2026-03-22T14:29:36.983Z</time></trkpt><trkpt lat="43.7457153" lon="12.4133172"><ele>343.0</ele><time>2026-03-22T14:29:37.982Z</time></trkpt><trkpt lat="43.7456312" lon="12.413468"><ele>343.0</ele><time>2026-03-22T14:29:38.982Z</time></trkpt><trkpt lat="43.7455675" lon="12.4136385"><ele>343.0</ele><time>2026-03-22T14:29:39.983Z</time></trkpt><trkpt lat="43.7455085" lon="12.4138329"><ele>343.0</ele><time>2026-03-22T14:29:40.982Z</time></trkpt><trkpt lat="43.7454554" lon="12.4140445"><ele>343.0</ele><time>2026-03-22T14:29:41.983Z</time></trkpt><trkpt lat="43.7453993" lon="12.4142702"><ele>343.0</ele><time>2026-03-22T14:29:42.982Z</time></trkpt><trkpt lat="43.7453391" lon="12.4145067"><ele>345.3333333333333</ele><time>2026-03-22T14:29:43.983Z</time></trkpt><trkpt lat="43.7452809" lon="12.4147526"><ele>347.6666666666667</ele><time>2026-03-22T14:29:44.983Z</time></trkpt><trkpt lat="43.7452197" lon="12.41501"><ele>350.0</ele><time>2026-03-22T14:29:45.983Z</time></trkpt><trkpt lat="43.7451589" lon="12.4152749"><ele>346.0</ele><time>2026-03-22T14:29:46.982Z</time></trkpt><trkpt lat="43.7450978" lon="12.4155448"><ele>342.0</ele><time>2026-03-22T14:29:47.983Z</time></trkpt><trkpt lat="43.7450378" lon="12.4158171"><ele>338.0</ele><time>2026-03-22T14:29:48.982Z</time></trkpt><trkpt lat="43.7449711" lon="12.4160885"><ele>341.0</ele><time>2026-03-22T14:29:49.983Z</time></trkpt><trkpt lat="43.7449116" lon="12.4163631"><ele>344.0</ele><time>2026-03-22T14:29:50.983Z</time></trkpt><trkpt lat="43.7448471" lon="12.4166368"><ele>347.0</ele><time>2026-03-22T14:29:51.983Z</time></trkpt><trkpt lat="43.7447836" lon="12.4169076"><ele>351.6666666666667</ele><time>2026-03-22T14:29:52.982Z</time></trkpt><trkpt lat="43.7447281" lon="12.4171635"><ele>356.3333333333333</ele><time>2026-03-22T14:29:53.982Z</time></trkpt><trkpt lat="43.7446737" lon="12.4174214"><ele>361.0</ele><time>2026-03-22T14:29:54.983Z</time></trkpt><trkpt lat="43.744589" lon="12.4176598"><ele>361.0</ele><time>2026-03-22T14:29:55.982Z</time></trkpt><trkpt lat="43.7444929" lon="12.4178968"><ele>361.0</ele><time>2026-03-22T14:29:56.983Z</time></trkpt><trkpt lat="43.7443826" lon="12.4181473"><ele>361.0</ele><time>2026-03-22T14:29:57.982Z</time></trkpt><trkpt lat="43.7442645" lon="12.4184022"><ele>359.0</ele><time>2026-03-22T14:29:58.983Z</time></trkpt><trkpt lat="43.7441411" lon="12.4186655"><ele>357.0</ele><time>2026-03-22T14:29:59.983Z</time></trkpt><trkpt lat="43.7440208" lon="12.4189351"><ele>357.0</ele><time>2026-03-22T14:30:00.983Z</time></trkpt><trkpt lat="43.7439024" lon="12.4192019"><ele>357.0</ele><time>2026-03-22T14:30:01.983Z</time></trkpt><trkpt lat="43.7437903" lon="12.4194429"><ele>357.0</ele><time>2026-03-22T14:30:02.982Z</time></trkpt><trkpt lat="43.7436749" lon="12.4196789"><ele>361.3333333333333</ele><time>2026-03-22T14:30:03.982Z</time></trkpt><trkpt lat="43.7435701" lon="12.4198985"><ele>365.66666666666663</ele><time>2026-03-22T14:30:04.983Z</time></trkpt><trkpt lat="43.7434726" lon="12.4200837"><ele>370.0</ele><time>2026-03-22T14:30:05.983Z</time></trkpt><trkpt lat="43.7433856" lon="12.4202412"><ele>365.6</ele><time>2026-03-22T14:30:06.983Z</time></trkpt><trkpt lat="43.7433043" lon="12.4203802"><ele>361.2</ele><time>2026-03-22T14:30:07.983Z</time></trkpt><trkpt lat="43.7432269" lon="12.4205037"><ele>356.79999999999995</ele><time>2026-03-22T14:30:08.983Z</time></trkpt><trkpt lat="43.7431666" lon="12.4206142"><ele>352.4</ele><time>2026-03-22T14:30:09.982Z</time></trkpt><trkpt lat="43.7431166" lon="12.4207005"><ele>348.0</ele><time>2026-03-22T14:30:10.983Z</time></trkpt><trkpt lat="43.7430797" lon="12.4207734"><ele>348.0</ele><time>2026-03-22T14:30:11.983Z</time></trkpt><trkpt lat="43.7430112" lon="12.4208685"><ele>348.0</ele><time>2026-03-22T14:30:13.983Z</time></trkpt><trkpt lat="43.7429531" lon="12.4209343"><ele>348.0</ele><time>2026-03-22T14:30:15.983Z</time></trkpt><trkpt lat="43.7430444" lon="12.4208937"><ele>348.0</ele><time>2026-03-22T14:30:28.982Z</time></trkpt><trkpt lat="43.7430861" lon="12.4208191"><ele>348.0</ele><time>2026-03-22T14:30:29.983Z</time></trkpt><trkpt lat="43.7431362" lon="12.4207228"><ele>348.0</ele><time>2026-03-22T14:30:30.982Z</time></trkpt><trkpt lat="43.7431823" lon="12.4206415"><ele>348.0</ele><time>2026-03-22T14:30:31.982Z</time></trkpt><trkpt lat="43.7432303" lon="12.4205584"><ele>348.0</ele><time>2026-03-22T14:30:32.983Z</time></trkpt><trkpt lat="43.7433061" lon="12.4204669"><ele>348.0</ele><time>2026-03-22T14:30:34.983Z</time></trkpt><trkpt lat="43.7434073" lon="12.4204531"><ele>348.0</ele><time>2026-03-22T14:30:36.983Z</time></trkpt><trkpt lat="43.7434855" lon="12.4204515"><ele>348.0</ele><time>2026-03-22T14:30:37.983Z</time></trkpt><trkpt lat="43.7435527" lon="12.4204419"><ele>348.0</ele><time>2026-03-22T14:30:38.982Z</time></trkpt><trkpt lat="43.743619" lon="12.4203974"><ele>353.5</ele><time>2026-03-22T14:30:39.982Z</time></trkpt><trkpt lat="43.7436942" lon="12.4203363"><ele>359.0</ele><time>2026-03-22T14:30:40.983Z</time></trkpt><trkpt lat="43.743774" lon="12.4201852"><ele>364.5</ele><time>2026-03-22T14:30:41.982Z</time></trkpt><trkpt lat="43.7438778" lon="12.4200458"><ele>370.0</ele><time>2026-03-22T14:30:42.983Z</time></trkpt><trkpt lat="43.7440074" lon="12.4198808"><ele>370.0</ele><time>2026-03-22T14:30:43.983Z</time></trkpt><trkpt lat="43.7441262" lon="12.4197207"><ele>370.0</ele><time>2026-03-22T14:30:44.982Z</time></trkpt><trkpt lat="43.7442384" lon="12.4195478"><ele>370.0</ele><time>2026-03-22T14:30:45.983Z</time></trkpt><trkpt lat="43.7443407" lon="12.4194221"><ele>371.4</ele><time>2026-03-22T14:30:46.983Z</time></trkpt><trkpt lat="43.7444272" lon="12.4193091"><ele>372.8</ele><time>2026-03-22T14:30:47.983Z</time></trkpt><trkpt lat="43.7444926" lon="12.4192044"><ele>374.20000000000005</ele><time>2026-03-22T14:30:48.983Z</time></trkpt><trkpt lat="43.7445549" lon="12.4191086"><ele>375.6</ele><time>2026-03-22T14:30:49.982Z</time></trkpt><trkpt lat="43.7446152" lon="12.4190213"><ele>377.0</ele><time>2026-03-22T14:30:50.982Z</time></trkpt><trkpt lat="43.7446678" lon="12.418959"><ele>377.0</ele><time>2026-03-22T14:30:51.983Z</time></trkpt><trkpt lat="43.7447289" lon="12.418934"><ele>377.0</ele><time>2026-03-22T14:30:52.983Z</time></trkpt><trkpt lat="43.7448559" lon="12.4189744"><ele>377.0</ele><time>2026-03-22T14:30:54.982Z</time></trkpt><trkpt lat="43.7449441" lon="12.419042"><ele>377.0</ele><time>2026-03-22T14:30:55.982Z</time></trkpt><trkpt lat="43.7450306" lon="12.4191204"><ele>377.0</ele><time>2026-03-22T14:30:56.983Z</time></trkpt><trkpt lat="43.7451306" lon="12.4192228"><ele>379.6</ele><time>2026-03-22T14:30:57.983Z</time></trkpt><trkpt lat="43.745231" lon="12.4193245"><ele>382.20000000000005</ele><time>2026-03-22T14:30:58.983Z</time></trkpt><trkpt lat="43.7453247" lon="12.4193989"><ele>384.8</ele><time>2026-03-22T14:30:59.982Z</time></trkpt><trkpt lat="43.7454136" lon="12.419453"><ele>387.4</ele><time>2026-03-22T14:31:00.983Z</time></trkpt><trkpt lat="43.7454939" lon="12.4194757"><ele>390.0</ele><time>2026-03-22T14:31:01.982Z</time></trkpt><trkpt lat="43.7455792" lon="12.4194635"><ele>390.0</ele><time>2026-03-22T14:31:02.982Z</time></trkpt><trkpt lat="43.7456834" lon="12.4194026"><ele>390.0</ele><time>2026-03-22T14:31:03.982Z</time></trkpt><trkpt lat="43.7457885" lon="12.419331"><ele>390.0</ele><time>2026-03-22T14:31:04.983Z</time></trkpt><trkpt lat="43.7458703" lon="12.4192654"><ele>390.0</ele><time>2026-03-22T14:31:05.983Z</time></trkpt><trkpt lat="43.7459401" lon="12.4192234"><ele>390.0</ele><time>2026-03-22T14:31:06.983Z</time></trkpt><trkpt lat="43.7460043" lon="12.4192122"><ele>390.0</ele><time>2026-03-22T14:31:07.982Z</time></trkpt><trkpt lat="43.746102" lon="12.4192756"><ele>390.0</ele><time>2026-03-22T14:31:09.982Z</time></trkpt><trkpt lat="43.7461062" lon="12.4194419"><ele>390.0</ele><time>2026-03-22T14:31:11.983Z</time></trkpt><trkpt lat="43.7460638" lon="12.4195132"><ele>390.0</ele><time>2026-03-22T14:31:12.983Z</time></trkpt><trkpt lat="43.7459906" lon="12.4195719"><ele>390.0</ele><time>2026-03-22T14:31:13.982Z</time></trkpt><trkpt lat="43.7458804" lon="12.4196238"><ele>393.0</ele><time>2026-03-22T14:31:14.982Z</time></trkpt><trkpt lat="43.745752" lon="12.4196857"><ele>396.0</ele><time>2026-03-22T14:31:15.983Z</time></trkpt><trkpt lat="43.7456225" lon="12.4197435"><ele>399.0</ele><time>2026-03-22T14:31:16.983Z</time></trkpt><trkpt lat="43.7455159" lon="12.4197734"><ele>402.0</ele><time>2026-03-22T14:31:17.983Z</time></trkpt><trkpt lat="43.7454212" lon="12.419792"><ele>402.0</ele><time>2026-03-22T14:31:18.983Z</time></trkpt><trkpt lat="43.7453478" lon="12.4198172"><ele>402.0</ele><time>2026-03-22T14:31:19.983Z</time></trkpt><trkpt lat="43.7452883" lon="12.419867"><ele>402.0</ele><time>2026-03-22T14:31:20.983Z</time></trkpt><trkpt lat="43.7452416" lon="12.4199258"><ele>402.0</ele><time>2026-03-22T14:31:21.982Z</time></trkpt><trkpt lat="43.7452332" lon="12.420056"><ele>402.0</ele><time>2026-03-22T14:31:22.982Z</time></trkpt><trkpt lat="43.7452232" lon="12.4201832"><ele>402.0</ele><time>2026-03-22T14:31:23.983Z</time></trkpt><trkpt lat="43.7452326" lon="12.4203494"><ele>402.0</ele><time>2026-03-22T14:31:24.982Z</time></trkpt><trkpt lat="43.7452397" lon="12.4204799"><ele>402.0</ele><time>2026-03-22T14:31:25.983Z</time></trkpt><trkpt lat="43.7452534" lon="12.4205842"><ele>402.0</ele><time>2026-03-22T14:31:26.983Z</time></trkpt><trkpt lat="43.7452883" lon="12.4206717"><ele>402.0</ele><time>2026-03-22T14:31:27.983Z</time></trkpt><trkpt lat="43.7453422" lon="12.4207462"><ele>402.0</ele><time>2026-03-22T14:31:28.983Z</time></trkpt><trkpt lat="43.7454108" lon="12.4208107"><ele>402.0</ele><time>2026-03-22T14:31:29.983Z</time></trkpt><trkpt lat="43.7454908" lon="12.4208534"><ele>403.75</ele><time>2026-03-22T14:31:30.982Z</time></trkpt><trkpt lat="43.7455825" lon="12.4208739"><ele>405.5</ele><time>2026-03-22T14:31:31.982Z</time></trkpt><trkpt lat="43.7456847" lon="12.4208742"><ele>407.25</ele><time>2026-03-22T14:31:32.982Z</time></trkpt><trkpt lat="43.7457943" lon="12.4208817"><ele>409.0</ele><time>2026-03-22T14:31:33.983Z</time></trkpt><trkpt lat="43.7459537" lon="12.4208577"><ele>411.0</ele><time>2026-03-22T14:31:34.983Z</time></trkpt><trkpt lat="43.74609" lon="12.4208609"><ele>413.0</ele><time>2026-03-22T14:31:35.983Z</time></trkpt><trkpt lat="43.7462331" lon="12.4208595"><ele>415.0</ele><time>2026-03-22T14:31:36.982Z</time></trkpt><trkpt lat="43.7463621" lon="12.4208742"><ele>417.0</ele><time>2026-03-22T14:31:37.982Z</time></trkpt><trkpt lat="43.7464921" lon="12.4209065"><ele>417.0</ele><time>2026-03-22T14:31:38.983Z</time></trkpt><trkpt lat="43.7466336" lon="12.4209533"><ele>417.0</ele><time>2026-03-22T14:31:39.982Z</time></trkpt><trkpt lat="43.7467692" lon="12.4209982"><ele>417.0</ele><time>2026-03-22T14:31:40.982Z</time></trkpt><trkpt lat="43.7468976" lon="12.4210375"><ele>417.0</ele><time>2026-03-22T14:31:41.983Z</time></trkpt><trkpt lat="43.7470115" lon="12.4210715"><ele>419.8</ele><time>2026-03-22T14:31:42.983Z</time></trkpt><trkpt lat="43.7471107" lon="12.4210931"><ele>422.6</ele><time>2026-03-22T14:31:43.983Z</time></trkpt><trkpt lat="43.7471982" lon="12.4210946"><ele>425.40000000000003</ele><time>2026-03-22T14:31:44.982Z</time></trkpt><trkpt lat="43.7472833" lon="12.4210621"><ele>428.20000000000005</ele><time>2026-03-22T14:31:45.983Z</time></trkpt><trkpt lat="43.7473542" lon="12.420992"><ele>431.0</ele><time>2026-03-22T14:31:46.983Z</time></trkpt><trkpt lat="43.7474253" lon="12.4208829"><ele>430.99999999999994</ele><time>2026-03-22T14:31:47.983Z</time></trkpt><trkpt lat="43.7474767" lon="12.420779"><ele>431.0</ele><time>2026-03-22T14:31:48.982Z</time></trkpt><trkpt lat="43.7475213" lon="12.4207077"><ele>431.0</ele><time>2026-03-22T14:31:49.982Z</time></trkpt><trkpt lat="43.7476298" lon="12.4206415"><ele>431.0</ele><time>2026-03-22T14:31:51.983Z</time></trkpt><trkpt lat="43.747709" lon="12.4206499"><ele>430.99999999999994</ele><time>2026-03-22T14:31:52.983Z</time></trkpt><trkpt lat="43.7477741" lon="12.4207055"><ele>431.0</ele><time>2026-03-22T14:31:53.983Z</time></trkpt><trkpt lat="43.7478175" lon="12.4207866"><ele>433.66666666666663</ele><time>2026-03-22T14:31:54.983Z</time></trkpt><trkpt lat="43.7478484" lon="12.4208888"><ele>436.3333333333333</ele><time>2026-03-22T14:31:55.982Z</time></trkpt><trkpt lat="43.7478799" lon="12.4210252"><ele>439.0</ele><time>2026-03-22T14:31:56.983Z</time></trkpt><trkpt lat="43.7479196" lon="12.4211565"><ele>441.66666666666663</ele><time>2026-03-22T14:31:57.982Z</time></trkpt><trkpt lat="43.747955" lon="12.4212479"><ele>444.3333333333333</ele><time>2026-03-22T14:31:58.983Z</time></trkpt><trkpt lat="43.7479987" lon="12.4213144"><ele>447.0</ele><time>2026-03-22T14:31:59.983Z</time></trkpt><trkpt lat="43.748059" lon="12.4213584"><ele>447.0</ele><time>2026-03-22T14:32:00.983Z</time></trkpt><trkpt lat="43.7481708" lon="12.4213361"><ele>447.00000000000006</ele><time>2026-03-22T14:32:02.982Z</time></trkpt><trkpt lat="43.7482241" lon="12.4211843"><ele>447.00000000000006</ele><time>2026-03-22T14:32:04.983Z</time></trkpt><trkpt lat="43.7482238" lon="12.4210655"><ele>447.0</ele><time>2026-03-22T14:32:05.983Z</time></trkpt><trkpt lat="43.7482137" lon="12.4209065"><ele>447.0</ele><time>2026-03-22T14:32:06.982Z</time></trkpt><trkpt lat="43.7482036" lon="12.420706"><ele>448.66666666666663</ele><time>2026-03-22T14:32:07.983Z</time></trkpt><trkpt lat="43.7481947" lon="12.4204603"><ele>450.3333333333333</ele><time>2026-03-22T14:32:08.983Z</time></trkpt><trkpt lat="43.7481804" lon="12.420196"><ele>452.0</ele><time>2026-03-22T14:32:09.983Z</time></trkpt><trkpt lat="43.7481659" lon="12.4199722"><ele>452.0</ele><time>2026-03-22T14:32:10.983Z</time></trkpt><trkpt lat="43.748154" lon="12.4198151"><ele>452.00000000000006</ele><time>2026-03-22T14:32:11.983Z</time></trkpt><trkpt lat="43.7481483" lon="12.4197015"><ele>452.00000000000006</ele><time>2026-03-22T14:32:12.983Z</time></trkpt><trkpt lat="43.7481891" lon="12.4195449"><ele>452.0</ele><time>2026-03-22T14:32:14.983Z</time></trkpt><trkpt lat="43.7482498" lon="12.4194791"><ele>452.0</ele><time>2026-03-22T14:32:15.983Z</time></trkpt><trkpt lat="43.7483227" lon="12.4194491"><ele>452.0</ele><time>2026-03-22T14:32:16.983Z</time></trkpt><trkpt lat="43.7483933" lon="12.4194692"><ele>452.0</ele><time>2026-03-22T14:32:17.982Z</time></trkpt><trkpt lat="43.7484472" lon="12.4195299"><ele>452.0</ele><time>2026-03-22T14:32:18.982Z</time></trkpt><trkpt lat="43.7484832" lon="12.4196087"><ele>452.0</ele><time>2026-03-22T14:32:19.983Z</time></trkpt><trkpt lat="43.7485151" lon="12.4196912"><ele>452.0</ele><time>2026-03-22T14:32:20.983Z</time></trkpt><trkpt lat="43.7485435" lon="12.4197796"><ele>452.0</ele><time>2026-03-22T14:32:21.982Z</time></trkpt><trkpt lat="43.7485662" lon="12.4198865"><ele>452.0</ele><time>2026-03-22T14:32:22.982Z</time></trkpt><trkpt lat="43.7485909" lon="12.4200174"><ele>452.40000000000003</ele><time>2026-03-22T14:32:23.982Z</time></trkpt><trkpt lat="43.7486322" lon="12.4201521"><ele>452.80000000000007</ele><time>2026-03-22T14:32:24.982Z</time></trkpt><trkpt lat="43.7486918" lon="12.4202731"><ele>453.2</ele><time>2026-03-22T14:32:25.983Z</time></trkpt><trkpt lat="43.7487656" lon="12.4203896"><ele>453.6</ele><time>2026-03-22T14:32:26.983Z</time></trkpt><trkpt lat="43.7488545" lon="12.4205049"><ele>454.0</ele><time>2026-03-22T14:32:27.982Z</time></trkpt><trkpt lat="43.7489537" lon="12.4206126"><ele>456.5</ele><time>2026-03-22T14:32:28.983Z</time></trkpt><trkpt lat="43.7490512" lon="12.4207051"><ele>459.0</ele><time>2026-03-22T14:32:29.983Z</time></trkpt><trkpt lat="43.7491524" lon="12.4208032"><ele>461.5</ele><time>2026-03-22T14:32:30.983Z</time></trkpt><trkpt lat="43.7492577" lon="12.4209201"><ele>464.0</ele><time>2026-03-22T14:32:31.983Z</time></trkpt><trkpt lat="43.7493573" lon="12.421052"><ele>462.25</ele><time>2026-03-22T14:32:32.983Z</time></trkpt><trkpt lat="43.7494501" lon="12.4211936"><ele>460.5</ele><time>2026-03-22T14:32:33.983Z</time></trkpt><trkpt lat="43.7495301" lon="12.421325"><ele>458.75</ele><time>2026-03-22T14:32:34.983Z</time></trkpt><trkpt lat="43.7495999" lon="12.4214377"><ele>457.0</ele><time>2026-03-22T14:32:35.983Z</time></trkpt><trkpt lat="43.7496659" lon="12.4215297"><ele>460.6</ele><time>2026-03-22T14:32:36.983Z</time></trkpt><trkpt lat="43.7497454" lon="12.4216012"><ele>464.20000000000005</ele><time>2026-03-22T14:32:37.983Z</time></trkpt><trkpt lat="43.7498457" lon="12.4216474"><ele>467.8</ele><time>2026-03-22T14:32:38.983Z</time></trkpt><trkpt lat="43.749962" lon="12.4216708"><ele>471.4</ele><time>2026-03-22T14:32:39.982Z</time></trkpt><trkpt lat="43.7500738" lon="12.421687"><ele>475.0</ele><time>2026-03-22T14:32:40.983Z</time></trkpt><trkpt lat="43.7501561" lon="12.4217027"><ele>474.2</ele><time>2026-03-22T14:32:41.983Z</time></trkpt><trkpt lat="43.7502193" lon="12.4217451"><ele>473.4</ele><time>2026-03-22T14:32:42.983Z</time></trkpt><trkpt lat="43.7502785" lon="12.4218139"><ele>472.6</ele><time>2026-03-22T14:32:43.983Z</time></trkpt><trkpt lat="43.7503317" lon="12.4219093"><ele>471.8</ele><time>2026-03-22T14:32:44.983Z</time></trkpt><trkpt lat="43.7503839" lon="12.422047"><ele>471.0</ele><time>2026-03-22T14:32:45.983Z</time></trkpt><trkpt lat="43.7504427" lon="12.4222207"><ele>471.0</ele><time>2026-03-22T14:32:46.983Z</time></trkpt><trkpt lat="43.7505117" lon="12.4224363"><ele>471.0</ele><time>2026-03-22T14:32:47.983Z</time></trkpt><trkpt lat="43.7505898" lon="12.4226657"><ele>471.0</ele><time>2026-03-22T14:32:48.983Z</time></trkpt><trkpt lat="43.7506703" lon="12.42287"><ele>473.0</ele><time>2026-03-22T14:32:49.983Z</time></trkpt><trkpt lat="43.7507669" lon="12.4230682"><ele>475.0</ele><time>2026-03-22T14:32:50.982Z</time></trkpt><trkpt lat="43.750874" lon="12.4232461"><ele>477.0</ele><time>2026-03-22T14:32:51.983Z</time></trkpt><trkpt lat="43.750996" lon="12.423405"><ele>478.0</ele><time>2026-03-22T14:32:52.982Z</time></trkpt><trkpt lat="43.7511099" lon="12.4235374"><ele>479.0</ele><time>2026-03-22T14:32:53.983Z</time></trkpt><trkpt lat="43.7512181" lon="12.4236514"><ele>480.0</ele><time>2026-03-22T14:32:54.983Z</time></trkpt><trkpt lat="43.7513197" lon="12.4237423"><ele>481.0</ele><time>2026-03-22T14:32:55.982Z</time></trkpt><trkpt lat="43.7514238" lon="12.4238159"><ele>482.5</ele><time>2026-03-22T14:32:56.983Z</time></trkpt><trkpt lat="43.7515283" lon="12.4238649"><ele>484.0</ele><time>2026-03-22T14:32:57.983Z</time></trkpt><trkpt lat="43.7516414" lon="12.4238877"><ele>485.5</ele><time>2026-03-22T14:32:58.982Z</time></trkpt><trkpt lat="43.7517659" lon="12.4238866"><ele>487.0</ele><time>2026-03-22T14:32:59.983Z</time></trkpt><trkpt lat="43.7518982" lon="12.4238522"><ele>490.0</ele><time>2026-03-22T14:33:00.982Z</time></trkpt><trkpt lat="43.7520469" lon="12.4238011"><ele>493.0</ele><time>2026-03-22T14:33:01.983Z</time></trkpt><trkpt lat="43.7522093" lon="12.4237392"><ele>496.0</ele><time>2026-03-22T14:33:02.982Z</time></trkpt><trkpt lat="43.7523655" lon="12.4236748"><ele>496.0</ele><time>2026-03-22T14:33:03.983Z</time></trkpt><trkpt lat="43.7525228" lon="12.4236088"><ele>496.0</ele><time>2026-03-22T14:33:04.982Z</time></trkpt><trkpt lat="43.7526767" lon="12.4235379"><ele>496.0</ele><time>2026-03-22T14:33:05.982Z</time></trkpt><trkpt lat="43.7528288" lon="12.423458"><ele>501.0</ele><time>2026-03-22T14:33:06.983Z</time></trkpt><trkpt lat="43.752985" lon="12.4233637"><ele>506.0</ele><time>2026-03-22T14:33:07.983Z</time></trkpt><trkpt lat="43.7531325" lon="12.423268"><ele>511.0</ele><time>2026-03-22T14:33:08.982Z</time></trkpt><trkpt lat="43.7532729" lon="12.4231725"><ele>511.0</ele><time>2026-03-22T14:33:09.982Z</time></trkpt><trkpt lat="43.7533996" lon="12.423075"><ele>511.0</ele><time>2026-03-22T14:33:10.982Z</time></trkpt><trkpt lat="43.7535193" lon="12.4229663"><ele>511.0</ele><time>2026-03-22T14:33:11.982Z</time></trkpt><trkpt lat="43.7536221" lon="12.4228492"><ele>511.0</ele><time>2026-03-22T14:33:12.982Z</time></trkpt><trkpt lat="43.7537166" lon="12.422708"><ele>513.25</ele><time>2026-03-22T14:33:13.982Z</time></trkpt><trkpt lat="43.7538058" lon="12.4225383"><ele>515.5</ele><time>2026-03-22T14:33:14.983Z</time></trkpt><trkpt lat="43.7538965" lon="12.422351"><ele>517.75</ele><time>2026-03-22T14:33:15.982Z</time></trkpt><trkpt lat="43.7539678" lon="12.4222031"><ele>520.0</ele><time>2026-03-22T14:33:16.983Z</time></trkpt><trkpt lat="43.7540329" lon="12.4220805"><ele>520.0</ele><time>2026-03-22T14:33:17.983Z</time></trkpt><trkpt lat="43.7540891" lon="12.421991"><ele>520.0</ele><time>2026-03-22T14:33:18.983Z</time></trkpt><trkpt lat="43.754193" lon="12.4219226"><ele>520.0</ele><time>2026-03-22T14:33:20.983Z</time></trkpt><trkpt lat="43.7542961" lon="12.4219846"><ele>520.0</ele><time>2026-03-22T14:33:22.983Z</time></trkpt><trkpt lat="43.7543266" lon="12.4220619"><ele>520.0</ele><time>2026-03-22T14:33:23.982Z</time></trkpt><trkpt lat="43.7543354" lon="12.4221621"><ele>521.4</ele><time>2026-03-22T14:33:24.983Z</time></trkpt><trkpt lat="43.7543205" lon="12.4222856"><ele>522.8</ele><time>2026-03-22T14:33:25.983Z</time></trkpt><trkpt lat="43.75429" lon="12.4224299"><ele>524.2</ele><time>2026-03-22T14:33:26.982Z</time></trkpt><trkpt lat="43.7542586" lon="12.4225866"><ele>525.6</ele><time>2026-03-22T14:33:27.982Z</time></trkpt><trkpt lat="43.754246" lon="12.4227431"><ele>527.0</ele><time>2026-03-22T14:33:28.983Z</time></trkpt><trkpt lat="43.7542416" lon="12.4229189"><ele>528.5</ele><time>2026-03-22T14:33:29.983Z</time></trkpt><trkpt lat="43.7542384" lon="12.4231084"><ele>530.0</ele><time>2026-03-22T14:33:30.983Z</time></trkpt><trkpt lat="43.7542372" lon="12.4232823"><ele>531.5</ele><time>2026-03-22T14:33:31.982Z</time></trkpt><trkpt lat="43.7542444" lon="12.4234599"><ele>533.0</ele><time>2026-03-22T14:33:32.983Z</time></trkpt><trkpt lat="43.7542514" lon="12.4236485"><ele>533.0</ele><time>2026-03-22T14:33:33.983Z</time></trkpt><trkpt lat="43.7542573" lon="12.4238058"><ele>533.0</ele><time>2026-03-22T14:33:34.982Z</time></trkpt><trkpt lat="43.7542603" lon="12.4239472"><ele>533.0</ele><time>2026-03-22T14:33:35.983Z</time></trkpt><trkpt lat="43.7542482" lon="12.4240968"><ele>533.0</ele><time>2026-03-22T14:33:36.983Z</time></trkpt><trkpt lat="43.754212" lon="12.4242614"><ele>533.0</ele><time>2026-03-22T14:33:37.983Z</time></trkpt><trkpt lat="43.754159" lon="12.4244189"><ele>535.25</ele><time>2026-03-22T14:33:38.982Z</time></trkpt><trkpt lat="43.7540918" lon="12.4245695"><ele>537.5</ele><time>2026-03-22T14:33:39.983Z</time></trkpt><trkpt lat="43.7540087" lon="12.4247073"><ele>539.75</ele><time>2026-03-22T14:33:40.982Z</time></trkpt><trkpt lat="43.7539137" lon="12.4248359"><ele>542.0</ele><time>2026-03-22T14:33:41.982Z</time></trkpt><trkpt lat="43.7538095" lon="12.4249696"><ele>540.25</ele><time>2026-03-22T14:33:42.983Z</time></trkpt><trkpt lat="43.7537079" lon="12.4250919"><ele>538.5</ele><time>2026-03-22T14:33:43.983Z</time></trkpt><trkpt lat="43.7536248" lon="12.4251986"><ele>536.75</ele><time>2026-03-22T14:33:44.983Z</time></trkpt><trkpt lat="43.7535577" lon="12.4253155"><ele>535.0</ele><time>2026-03-22T14:33:45.982Z</time></trkpt><trkpt lat="43.7534985" lon="12.4254649"><ele>538.25</ele><time>2026-03-22T14:33:46.983Z</time></trkpt><trkpt lat="43.7534354" lon="12.4256548"><ele>541.5</ele><time>2026-03-22T14:33:47.983Z</time></trkpt><trkpt lat="43.7533719" lon="12.4258309"><ele>544.75</ele><time>2026-03-22T14:33:48.983Z</time></trkpt><trkpt lat="43.7533198" lon="12.4259676"><ele>548.0</ele><time>2026-03-22T14:33:49.983Z</time></trkpt><trkpt lat="43.7532726" lon="12.4260908"><ele>548.0</ele><time>2026-03-22T14:33:50.982Z</time></trkpt><trkpt lat="43.7532351" lon="12.4261921"><ele>548.0</ele><time>2026-03-22T14:33:51.982Z</time></trkpt><trkpt lat="43.7532004" lon="12.4263104"><ele>548.0</ele><time>2026-03-22T14:33:53.982Z</time></trkpt><trkpt lat="43.7532292" lon="12.4264127"><ele>548.0</ele><time>2026-03-22T14:34:21.983Z</time></trkpt><trkpt lat="43.7532462" lon="12.4265451"><ele>548.0</ele><time>2026-03-22T14:34:23.983Z</time></trkpt><trkpt lat="43.753238" lon="12.4267018"><ele>548.8333333333333</ele><time>2026-03-22T14:34:25.983Z</time></trkpt><trkpt lat="43.7532353" lon="12.426804"><ele>549.6666666666666</ele><time>2026-03-22T14:34:26.982Z</time></trkpt><trkpt lat="43.7532313" lon="12.4269303"><ele>550.5</ele><time>2026-03-22T14:34:27.983Z</time></trkpt><trkpt lat="43.7532278" lon="12.4270671"><ele>551.3333333333334</ele><time>2026-03-22T14:34:28.983Z</time></trkpt><trkpt lat="43.7532263" lon="12.4271869"><ele>552.1666666666667</ele><time>2026-03-22T14:34:29.983Z</time></trkpt><trkpt lat="43.7532324" lon="12.4272851"><ele>553.0</ele><time>2026-03-22T14:34:30.983Z</time></trkpt><trkpt lat="43.7532608" lon="12.4273967"><ele>553.0</ele><time>2026-03-22T14:34:32.983Z</time></trkpt><trkpt lat="43.7533229" lon="12.4274229"><ele>553.0</ele><time>2026-03-22T14:34:34.982Z</time></trkpt><trkpt lat="43.7533887" lon="12.4272898"><ele>553.0</ele><time>2026-03-22T14:34:36.983Z</time></trkpt><trkpt lat="43.7533983" lon="12.427142"><ele>553.0</ele><time>2026-03-22T14:34:37.982Z</time></trkpt><trkpt lat="43.7534324" lon="12.4269911"><ele>553.0</ele><time>2026-03-22T14:34:38.982Z</time></trkpt><trkpt lat="43.7534661" lon="12.4268732"><ele>553.4</ele><time>2026-03-22T14:34:39.983Z</time></trkpt><trkpt lat="43.753508" lon="12.426779"><ele>553.8</ele><time>2026-03-22T14:34:40.983Z</time></trkpt><trkpt lat="43.7535521" lon="12.4266727"><ele>554.2</ele><time>2026-03-22T14:34:41.983Z</time></trkpt><trkpt lat="43.7535973" lon="12.4265496"><ele>554.6</ele><time>2026-03-22T14:34:42.982Z</time></trkpt><trkpt lat="43.7536373" lon="12.4263999"><ele>555.0</ele><time>2026-03-22T14:34:43.982Z</time></trkpt><trkpt lat="43.7536681" lon="12.4262654"><ele>556.2</ele><time>2026-03-22T14:34:44.983Z</time></trkpt><trkpt lat="43.7536938" lon="12.4261606"><ele>557.4</ele><time>2026-03-22T14:34:45.982Z</time></trkpt><trkpt lat="43.7537246" lon="12.4260794"><ele>558.6</ele><time>2026-03-22T14:34:46.982Z</time></trkpt><trkpt lat="43.7538275" lon="12.4259284"><ele>559.8</ele><time>2026-03-22T14:34:48.982Z</time></trkpt><trkpt lat="43.7538921" lon="12.425852"><ele>561.0</ele><time>2026-03-22T14:34:49.983Z</time></trkpt><trkpt lat="43.753944" lon="12.4257596"><ele>561.0</ele><time>2026-03-22T14:34:50.983Z</time></trkpt><trkpt lat="43.7539943" lon="12.4256535"><ele>561.0</ele><time>2026-03-22T14:34:51.983Z</time></trkpt><trkpt lat="43.7540371" lon="12.4255659"><ele>561.0</ele><time>2026-03-22T14:34:52.983Z</time></trkpt><trkpt lat="43.7540854" lon="12.4254679"><ele>561.0</ele><time>2026-03-22T14:34:53.982Z</time></trkpt><trkpt lat="43.7541425" lon="12.4253897"><ele>561.0</ele><time>2026-03-22T14:34:54.983Z</time></trkpt><trkpt lat="43.7542004" lon="12.4253378"><ele>561.0</ele><time>2026-03-22T14:34:55.982Z</time></trkpt><trkpt lat="43.7542702" lon="12.4252991"><ele>560.4</ele><time>2026-03-22T14:34:56.982Z</time></trkpt><trkpt lat="43.7543414" lon="12.425263"><ele>559.8</ele><time>2026-03-22T14:34:57.982Z</time></trkpt><trkpt lat="43.7544395" lon="12.4251613"><ele>559.1999999999999</ele><time>2026-03-22T14:34:59.983Z</time></trkpt><trkpt lat="43.7544889" lon="12.4250824"><ele>558.6</ele><time>2026-03-22T14:35:00.982Z</time></trkpt><trkpt lat="43.7545501" lon="12.4249793"><ele>558.0</ele><time>2026-03-22T14:35:01.982Z</time></trkpt><trkpt lat="43.754612" lon="12.4248865"><ele>558.0</ele><time>2026-03-22T14:35:02.982Z</time></trkpt><trkpt lat="43.7546767" lon="12.4248047"><ele>558.0</ele><time>2026-03-22T14:35:03.983Z</time></trkpt><trkpt lat="43.754751" lon="12.424716"><ele>558.0</ele><time>2026-03-22T14:35:04.982Z</time></trkpt><trkpt lat="43.7548369" lon="12.4246245"><ele>558.0</ele><time>2026-03-22T14:35:05.983Z</time></trkpt><trkpt lat="43.7549264" lon="12.4245325"><ele>558.0</ele><time>2026-03-22T14:35:06.983Z</time></trkpt><trkpt lat="43.7550094" lon="12.4244478"><ele>558.75</ele><time>2026-03-22T14:35:07.982Z</time></trkpt><trkpt lat="43.7550932" lon="12.4243504"><ele>559.5</ele><time>2026-03-22T14:35:08.982Z</time></trkpt><trkpt lat="43.7551726" lon="12.4242449"><ele>560.25</ele><time>2026-03-22T14:35:09.983Z</time></trkpt><trkpt lat="43.7552545" lon="12.4241399"><ele>561.0</ele><time>2026-03-22T14:35:10.982Z</time></trkpt><trkpt lat="43.7553473" lon="12.4240289"><ele>561.0</ele><time>2026-03-22T14:35:11.982Z</time></trkpt><trkpt lat="43.7554405" lon="12.4239162"><ele>561.0</ele><time>2026-03-22T14:35:12.983Z</time></trkpt><trkpt lat="43.7555336" lon="12.423801"><ele>561.0</ele><time>2026-03-22T14:35:13.982Z</time></trkpt><trkpt lat="43.7556194" lon="12.4237009"><ele>561.0</ele><time>2026-03-22T14:35:14.983Z</time></trkpt><trkpt lat="43.7557078" lon="12.423609"><ele>560.4</ele><time>2026-03-22T14:35:15.982Z</time></trkpt><trkpt lat="43.7557989" lon="12.4235297"><ele>559.8</ele><time>2026-03-22T14:35:16.983Z</time></trkpt><trkpt lat="43.7558916" lon="12.4234466"><ele>559.1999999999999</ele><time>2026-03-22T14:35:17.982Z</time></trkpt><trkpt lat="43.7559779" lon="12.4233694"><ele>558.6</ele><time>2026-03-22T14:35:18.982Z</time></trkpt><trkpt lat="43.7560554" lon="12.4232969"><ele>558.0</ele><time>2026-03-22T14:35:19.982Z</time></trkpt><trkpt lat="43.7561302" lon="12.4232378"><ele>558.0</ele><time>2026-03-22T14:35:20.982Z</time></trkpt><trkpt lat="43.7562106" lon="12.4231944"><ele>558.0</ele><time>2026-03-22T14:35:21.982Z</time></trkpt><trkpt lat="43.7562864" lon="12.4231558"><ele>558.0</ele><time>2026-03-22T14:35:22.983Z</time></trkpt><trkpt lat="43.7563614" lon="12.4231159"><ele>558.0</ele><time>2026-03-22T14:35:23.982Z</time></trkpt><trkpt lat="43.7564186" lon="12.4230492"><ele>558.0</ele><time>2026-03-22T14:35:24.983Z</time></trkpt><trkpt lat="43.7564764" lon="12.4229891"><ele>558.0</ele><time>2026-03-22T14:35:25.983Z</time></trkpt><trkpt lat="43.7565278" lon="12.4228793"><ele>558.4</ele><time>2026-03-22T14:35:26.983Z</time></trkpt><trkpt lat="43.7565955" lon="12.4227425"><ele>558.8</ele><time>2026-03-22T14:35:27.982Z</time></trkpt><trkpt lat="43.75667" lon="12.422621"><ele>559.2</ele><time>2026-03-22T14:35:28.983Z</time></trkpt><trkpt lat="43.756746" lon="12.4225245"><ele>559.6</ele><time>2026-03-22T14:35:29.982Z</time></trkpt><trkpt lat="43.7568145" lon="12.4224452"><ele>560.0</ele><time>2026-03-22T14:35:30.982Z</time></trkpt><trkpt lat="43.7568992" lon="12.4223863"><ele>560.0</ele><time>2026-03-22T14:35:31.982Z</time></trkpt><trkpt lat="43.7569905" lon="12.4223362"><ele>560.0</ele><time>2026-03-22T14:35:32.983Z</time></trkpt><trkpt lat="43.7570675" lon="12.422291"><ele>560.0</ele><time>2026-03-22T14:35:33.983Z</time></trkpt><trkpt lat="43.7571557" lon="12.4222379"><ele>560.0</ele><time>2026-03-22T14:35:34.983Z</time></trkpt><trkpt lat="43.7572476" lon="12.42216"><ele>560.0</ele><time>2026-03-22T14:35:35.983Z</time></trkpt><trkpt lat="43.7573488" lon="12.4220615"><ele>560.75</ele><time>2026-03-22T14:35:36.983Z</time></trkpt><trkpt lat="43.7574504" lon="12.4219402"><ele>561.5</ele><time>2026-03-22T14:35:37.983Z</time></trkpt><trkpt lat="43.7575535" lon="12.4218141"><ele>562.25</ele><time>2026-03-22T14:35:38.983Z</time></trkpt><trkpt lat="43.7576534" lon="12.4216891"><ele>563.0</ele><time>2026-03-22T14:35:39.983Z</time></trkpt><trkpt lat="43.7577453" lon="12.4215681"><ele>563.0</ele><time>2026-03-22T14:35:40.982Z</time></trkpt><trkpt lat="43.7578252" lon="12.4214662"><ele>563.0</ele><time>2026-03-22T14:35:41.983Z</time></trkpt><trkpt lat="43.7579151" lon="12.4213524"><ele>563.0</ele><time>2026-03-22T14:35:42.983Z</time></trkpt><trkpt lat="43.758024" lon="12.4212087"><ele>563.0</ele><time>2026-03-22T14:35:43.983Z</time></trkpt><trkpt lat="43.7581227" lon="12.4210851"><ele>568.25</ele><time>2026-03-22T14:35:44.983Z</time></trkpt><trkpt lat="43.7582154" lon="12.4209493"><ele>573.5</ele><time>2026-03-22T14:35:45.983Z</time></trkpt><trkpt lat="43.7582952" lon="12.4208366"><ele>578.75</ele><time>2026-03-22T14:35:46.983Z</time></trkpt><trkpt lat="43.7583711" lon="12.4207279"><ele>584.0</ele><time>2026-03-22T14:35:47.982Z</time></trkpt><trkpt lat="43.7584418" lon="12.4206075"><ele>585.75</ele><time>2026-03-22T14:35:48.983Z</time></trkpt><trkpt lat="43.7585024" lon="12.4204711"><ele>587.5</ele><time>2026-03-22T14:35:49.983Z</time></trkpt><trkpt lat="43.7585771" lon="12.4203279"><ele>589.25</ele><time>2026-03-22T14:35:50.983Z</time></trkpt><trkpt lat="43.7586583" lon="12.4201744"><ele>591.0</ele><time>2026-03-22T14:35:51.982Z</time></trkpt><trkpt lat="43.7587405" lon="12.4200351"><ele>591.0</ele><time>2026-03-22T14:35:52.983Z</time></trkpt><trkpt lat="43.7588191" lon="12.4199146"><ele>591.0</ele><time>2026-03-22T14:35:53.983Z</time></trkpt><trkpt lat="43.7588961" lon="12.4197976"><ele>591.0</ele><time>2026-03-22T14:35:54.983Z</time></trkpt><trkpt lat="43.7589709" lon="12.4196733"><ele>591.0</ele><time>2026-03-22T14:35:55.983Z</time></trkpt><trkpt lat="43.7590465" lon="12.419532"><ele>591.0</ele><time>2026-03-22T14:35:56.983Z</time></trkpt><trkpt lat="43.7591314" lon="12.4193871"><ele>591.0</ele><time>2026-03-22T14:35:57.983Z</time></trkpt><trkpt lat="43.7592157" lon="12.4192508"><ele>591.0</ele><time>2026-03-22T14:35:58.983Z</time></trkpt><trkpt lat="43.7593055" lon="12.4191268"><ele>591.0</ele><time>2026-03-22T14:35:59.983Z</time></trkpt><trkpt lat="43.7594035" lon="12.4189958"><ele>591.0</ele><time>2026-03-22T14:36:00.982Z</time></trkpt><trkpt lat="43.7595033" lon="12.4188565"><ele>591.0</ele><time>2026-03-22T14:36:01.983Z</time></trkpt><trkpt lat="43.7595912" lon="12.4187393"><ele>591.0</ele><time>2026-03-22T14:36:02.982Z</time></trkpt><trkpt lat="43.7596759" lon="12.4186462"><ele>591.0</ele><time>2026-03-22T14:36:03.982Z</time></trkpt><trkpt lat="43.7597579" lon="12.4185618"><ele>597.0</ele><time>2026-03-22T14:36:04.983Z</time></trkpt><trkpt lat="43.7598535" lon="12.4184807"><ele>603.0</ele><time>2026-03-22T14:36:05.982Z</time></trkpt><trkpt lat="43.7599574" lon="12.4183876"><ele>609.0</ele><time>2026-03-22T14:36:06.983Z</time></trkpt><trkpt lat="43.7600626" lon="12.4182926"><ele>615.0</ele><time>2026-03-22T14:36:07.982Z</time></trkpt><trkpt lat="43.760169" lon="12.4181867"><ele>616.0</ele><time>2026-03-22T14:36:08.982Z</time></trkpt><trkpt lat="43.7602764" lon="12.4180812"><ele>617.0</ele><time>2026-03-22T14:36:09.982Z</time></trkpt><trkpt lat="43.7603805" lon="12.4179996"><ele>618.0</ele><time>2026-03-22T14:36:10.983Z</time></trkpt><trkpt lat="43.7604765" lon="12.4179448"><ele>619.0</ele><time>2026-03-22T14:36:11.983Z</time></trkpt><trkpt lat="43.7605753" lon="12.4179204"><ele>619.0</ele><time>2026-03-22T14:36:12.983Z</time></trkpt><trkpt lat="43.7606783" lon="12.4179267"><ele>619.0</ele><time>2026-03-22T14:36:13.983Z</time></trkpt><trkpt lat="43.7607802" lon="12.4179482"><ele>619.0</ele><time>2026-03-22T14:36:14.982Z</time></trkpt><trkpt lat="43.7608637" lon="12.4179563"><ele>619.0</ele><time>2026-03-22T14:36:15.982Z</time></trkpt><trkpt lat="43.7609499" lon="12.417944"><ele>619.0</ele><time>2026-03-22T14:36:16.982Z</time></trkpt><trkpt lat="43.7610362" lon="12.4179091"><ele>617.6</ele><time>2026-03-22T14:36:17.983Z</time></trkpt><trkpt lat="43.7611144" lon="12.4178569"><ele>616.2</ele><time>2026-03-22T14:36:18.982Z</time></trkpt><trkpt lat="43.761194" lon="12.4177776"><ele>614.8000000000001</ele><time>2026-03-22T14:36:19.982Z</time></trkpt><trkpt lat="43.7612849" lon="12.4176594"><ele>613.4</ele><time>2026-03-22T14:36:20.982Z</time></trkpt><trkpt lat="43.7613837" lon="12.4175245"><ele>612.0</ele><time>2026-03-22T14:36:21.982Z</time></trkpt><trkpt lat="43.7614737" lon="12.417415"><ele>612.0</ele><time>2026-03-22T14:36:22.983Z</time></trkpt><trkpt lat="43.7615459" lon="12.4173278"><ele>612.0</ele><time>2026-03-22T14:36:23.982Z</time></trkpt><trkpt lat="43.7616083" lon="12.4172366"><ele>612.0</ele><time>2026-03-22T14:36:24.983Z</time></trkpt><trkpt lat="43.7616672" lon="12.4171489"><ele>612.0</ele><time>2026-03-22T14:36:25.982Z</time></trkpt><trkpt lat="43.7617339" lon="12.4170754"><ele>612.0</ele><time>2026-03-22T14:36:26.982Z</time></trkpt><trkpt lat="43.7618189" lon="12.4170104"><ele>610.3333333333334</ele><time>2026-03-22T14:36:27.983Z</time></trkpt><trkpt lat="43.7619141" lon="12.4169493"><ele>608.6666666666666</ele><time>2026-03-22T14:36:28.982Z</time></trkpt><trkpt lat="43.7619956" lon="12.4168981"><ele>607.0</ele><time>2026-03-22T14:36:29.982Z</time></trkpt><trkpt lat="43.7620702" lon="12.4168636"><ele>605.3333333333333</ele><time>2026-03-22T14:36:30.982Z</time></trkpt><trkpt lat="43.7621394" lon="12.4168431"><ele>603.6666666666666</ele><time>2026-03-22T14:36:31.983Z</time></trkpt><trkpt lat="43.7622096" lon="12.4168349"><ele>602.0</ele><time>2026-03-22T14:36:32.983Z</time></trkpt><trkpt lat="43.7622775" lon="12.4168288"><ele>602.0</ele><time>2026-03-22T14:36:33.983Z</time></trkpt><trkpt lat="43.7623437" lon="12.4168339"><ele>602.0</ele><time>2026-03-22T14:36:34.983Z</time></trkpt><trkpt lat="43.7624126" lon="12.4168599"><ele>602.0</ele><time>2026-03-22T14:36:35.982Z</time></trkpt><trkpt lat="43.76248" lon="12.4169076"><ele>602.0</ele><time>2026-03-22T14:36:36.982Z</time></trkpt><trkpt lat="43.7625558" lon="12.4169866"><ele>602.0</ele><time>2026-03-22T14:36:37.983Z</time></trkpt><trkpt lat="43.7626442" lon="12.4170936"><ele>602.0</ele><time>2026-03-22T14:36:38.983Z</time></trkpt><trkpt lat="43.7627398" lon="12.4172043"><ele>605.8000000000001</ele><time>2026-03-22T14:36:39.982Z</time></trkpt><trkpt lat="43.7628302" lon="12.4173128"><ele>609.6</ele><time>2026-03-22T14:36:40.982Z</time></trkpt><trkpt lat="43.7629057" lon="12.4174031"><ele>613.4000000000001</ele><time>2026-03-22T14:36:41.982Z</time></trkpt><trkpt lat="43.7629773" lon="12.4174662"><ele>617.2</ele><time>2026-03-22T14:36:42.983Z</time></trkpt><trkpt lat="43.7630531" lon="12.4175069"><ele>621.0</ele><time>2026-03-22T14:36:43.983Z</time></trkpt><trkpt lat="43.7631287" lon="12.4175246"><ele>621.0</ele><time>2026-03-22T14:36:44.983Z</time></trkpt><trkpt lat="43.7631959" lon="12.4175152"><ele>621.0</ele><time>2026-03-22T14:36:45.983Z</time></trkpt><trkpt lat="43.7632733" lon="12.4174858"><ele>621.0</ele><time>2026-03-22T14:36:46.983Z</time></trkpt><trkpt lat="43.7633646" lon="12.4174532"><ele>621.0</ele><time>2026-03-22T14:36:47.983Z</time></trkpt><trkpt lat="43.7634494" lon="12.4174416"><ele>621.0</ele><time>2026-03-22T14:36:48.982Z</time></trkpt><trkpt lat="43.7635532" lon="12.4174617"><ele>621.0</ele><time>2026-03-22T14:36:50.983Z</time></trkpt><trkpt lat="43.7635746" lon="12.4175494"><ele>621.0</ele><time>2026-03-22T14:36:52.983Z</time></trkpt><trkpt lat="43.763517" lon="12.4176263"><ele>621.0</ele><time>2026-03-22T14:36:54.982Z</time></trkpt><trkpt lat="43.7634459" lon="12.4176777"><ele>621.0</ele><time>2026-03-22T14:36:56.983Z</time></trkpt><trkpt lat="43.7634618" lon="12.4177759"><ele>621.0</ele><time>2026-03-22T14:36:59.983Z</time></trkpt><trkpt lat="43.7635371" lon="12.417785"><ele>621.0</ele><time>2026-03-22T14:37:01.982Z</time></trkpt><trkpt lat="43.7636107" lon="12.4177953"><ele>621.0</ele><time>2026-03-22T14:37:02.983Z</time></trkpt><trkpt lat="43.7636891" lon="12.4178204"><ele>623.2</ele><time>2026-03-22T14:37:03.982Z</time></trkpt><trkpt lat="43.7637696" lon="12.4178584"><ele>625.4000000000001</ele><time>2026-03-22T14:37:04.983Z</time></trkpt><trkpt lat="43.7638528" lon="12.4179059"><ele>627.6</ele><time>2026-03-22T14:37:05.983Z</time></trkpt><trkpt lat="43.7639381" lon="12.4179339"><ele>629.8000000000001</ele><time>2026-03-22T14:37:06.983Z</time></trkpt><trkpt lat="43.7640316" lon="12.4179525"><ele>632.0</ele><time>2026-03-22T14:37:07.982Z</time></trkpt><trkpt lat="43.764128" lon="12.4179752"><ele>632.0</ele><time>2026-03-22T14:37:08.983Z</time></trkpt><trkpt lat="43.7642224" lon="12.4179102"><ele>632.0</ele><time>2026-03-22T14:37:09.982Z</time></trkpt><trkpt lat="43.7643336" lon="12.4178218"><ele>632.0</ele><time>2026-03-22T14:37:10.983Z</time></trkpt><trkpt lat="43.7644387" lon="12.4177694"><ele>632.0</ele><time>2026-03-22T14:37:11.982Z</time></trkpt><trkpt lat="43.7645218" lon="12.4177199"><ele>632.0</ele><time>2026-03-22T14:37:12.982Z</time></trkpt><trkpt lat="43.7646047" lon="12.4176778"><ele>635.5</ele><time>2026-03-22T14:37:13.983Z</time></trkpt><trkpt lat="43.7646815" lon="12.417653"><ele>639.0</ele><time>2026-03-22T14:37:14.983Z</time></trkpt><trkpt lat="43.7647595" lon="12.417648"><ele>642.5</ele><time>2026-03-22T14:37:15.983Z</time></trkpt><trkpt lat="43.7648327" lon="12.4176323"><ele>646.0</ele><time>2026-03-22T14:37:16.983Z</time></trkpt><trkpt lat="43.7649011" lon="12.4175733"><ele>649.5</ele><time>2026-03-22T14:37:17.983Z</time></trkpt><trkpt lat="43.7649529" lon="12.4174971"><ele>653.0</ele><time>2026-03-22T14:37:18.983Z</time></trkpt><trkpt lat="43.7650014" lon="12.4173999"><ele>653.0</ele><time>2026-03-22T14:37:19.982Z</time></trkpt><trkpt lat="43.7650512" lon="12.417306"><ele>653.0</ele><time>2026-03-22T14:37:20.982Z</time></trkpt><trkpt lat="43.765112" lon="12.4172292"><ele>653.0</ele><time>2026-03-22T14:37:21.983Z</time></trkpt><trkpt lat="43.7651919" lon="12.4171327"><ele>653.0</ele><time>2026-03-22T14:37:22.982Z</time></trkpt><trkpt lat="43.7652767" lon="12.4170438"><ele>653.0</ele><time>2026-03-22T14:37:23.982Z</time></trkpt><trkpt lat="43.7653526" lon="12.4169692"><ele>652.5999999999999</ele><time>2026-03-22T14:37:24.983Z</time></trkpt><trkpt lat="43.765427" lon="12.416911"><ele>652.1999999999999</ele><time>2026-03-22T14:37:25.983Z</time></trkpt><trkpt lat="43.7655166" lon="12.4168647"><ele>651.8</ele><time>2026-03-22T14:37:26.983Z</time></trkpt><trkpt lat="43.7656183" lon="12.4168305"><ele>651.4</ele><time>2026-03-22T14:37:27.982Z</time></trkpt><trkpt lat="43.7657141" lon="12.4168141"><ele>651.0</ele><time>2026-03-22T14:37:28.982Z</time></trkpt><trkpt lat="43.76581" lon="12.4168144"><ele>651.0</ele><time>2026-03-22T14:37:29.982Z</time></trkpt><trkpt lat="43.765902" lon="12.4168234"><ele>651.0</ele><time>2026-03-22T14:37:30.983Z</time></trkpt><trkpt lat="43.7659907" lon="12.4168224"><ele>651.0</ele><time>2026-03-22T14:37:31.982Z</time></trkpt><trkpt lat="43.7660702" lon="12.4168023"><ele>651.0</ele><time>2026-03-22T14:37:32.983Z</time></trkpt><trkpt lat="43.7661452" lon="12.4167381"><ele>651.0</ele><time>2026-03-22T14:37:33.983Z</time></trkpt><trkpt lat="43.7662358" lon="12.4166626"><ele>655.0</ele><time>2026-03-22T14:37:34.983Z</time></trkpt><trkpt lat="43.7663125" lon="12.4166077"><ele>659.0</ele><time>2026-03-22T14:37:35.983Z</time></trkpt><trkpt lat="43.7663634" lon="12.4165452"><ele>663.0</ele><time>2026-03-22T14:37:36.982Z</time></trkpt><trkpt lat="43.7664401" lon="12.4163879"><ele>667.0</ele><time>2026-03-22T14:37:38.983Z</time></trkpt><trkpt lat="43.7664772" lon="12.4162784"><ele>671.0</ele><time>2026-03-22T14:37:39.982Z</time></trkpt><trkpt lat="43.7665196" lon="12.4161558"><ele>671.0</ele><time>2026-03-22T14:37:40.983Z</time></trkpt><trkpt lat="43.7665553" lon="12.4160683"><ele>671.0</ele><time>2026-03-22T14:37:41.983Z</time></trkpt><trkpt lat="43.766615" lon="12.4159579"><ele>671.0</ele><time>2026-03-22T14:37:43.982Z</time></trkpt><trkpt lat="43.7666774" lon="12.4160221"><ele>671.0</ele><time>2026-03-22T14:37:45.983Z</time></trkpt><trkpt lat="43.7666828" lon="12.416116"><ele>671.0</ele><time>2026-03-22T14:37:47.983Z</time></trkpt><trkpt lat="43.7666567" lon="12.4162494"><ele>671.0</ele><time>2026-03-22T14:37:49.983Z</time></trkpt><trkpt lat="43.7666536" lon="12.4164082"><ele>671.6666666666666</ele><time>2026-03-22T14:37:51.983Z</time></trkpt><trkpt lat="43.7666793" lon="12.4164962"><ele>672.3333333333333</ele><time>2026-03-22T14:37:52.983Z</time></trkpt><trkpt lat="43.7667093" lon="12.4165978"><ele>673.0</ele><time>2026-03-22T14:37:53.982Z</time></trkpt><trkpt lat="43.7667477" lon="12.4167017"><ele>673.6666666666666</ele><time>2026-03-22T14:37:54.982Z</time></trkpt><trkpt lat="43.7667876" lon="12.4168019"><ele>674.3333333333334</ele><time>2026-03-22T14:37:55.982Z</time></trkpt><trkpt lat="43.7668509" lon="12.4168652"><ele>675.0</ele><time>2026-03-22T14:37:56.983Z</time></trkpt><trkpt lat="43.7669142" lon="12.4169316"><ele>676.4</ele><time>2026-03-22T14:37:57.982Z</time></trkpt><trkpt lat="43.7669723" lon="12.4169826"><ele>677.8</ele><time>2026-03-22T14:37:58.983Z</time></trkpt><trkpt lat="43.7670885" lon="12.4170056"><ele>679.2</ele><time>2026-03-22T14:38:00.983Z</time></trkpt><trkpt lat="43.7671685" lon="12.4169696"><ele>680.6</ele><time>2026-03-22T14:38:01.983Z</time></trkpt><trkpt lat="43.7672546" lon="12.4169094"><ele>682.0</ele><time>2026-03-22T14:38:02.983Z</time></trkpt><trkpt lat="43.7673383" lon="12.4168497"><ele>682.0</ele><time>2026-03-22T14:38:03.983Z</time></trkpt><trkpt lat="43.7674359" lon="12.4167303"><ele>682.0</ele><time>2026-03-22T14:38:04.982Z</time></trkpt><trkpt lat="43.7675392" lon="12.4166235"><ele>682.0</ele><time>2026-03-22T14:38:05.983Z</time></trkpt><trkpt lat="43.7676402" lon="12.416519"><ele>682.0</ele><time>2026-03-22T14:38:06.982Z</time></trkpt><trkpt lat="43.767736" lon="12.4164299"><ele>683.2</ele><time>2026-03-22T14:38:07.982Z</time></trkpt><trkpt lat="43.7678246" lon="12.4163534"><ele>684.4000000000001</ele><time>2026-03-22T14:38:08.983Z</time></trkpt><trkpt lat="43.7679103" lon="12.416281"><ele>685.5999999999999</ele><time>2026-03-22T14:38:09.983Z</time></trkpt><trkpt lat="43.7679976" lon="12.4162177"><ele>686.8</ele><time>2026-03-22T14:38:10.983Z</time></trkpt><trkpt lat="43.7680858" lon="12.4161659"><ele>688.0</ele><time>2026-03-22T14:38:11.982Z</time></trkpt><trkpt lat="43.7681674" lon="12.4161293"><ele>688.0</ele><time>2026-03-22T14:38:12.982Z</time></trkpt><trkpt lat="43.7682608" lon="12.4161112"><ele>688.0</ele><time>2026-03-22T14:38:13.983Z</time></trkpt><trkpt lat="43.768349" lon="12.4161415"><ele>688.0</ele><time>2026-03-22T14:38:14.982Z</time></trkpt><trkpt lat="43.7684423" lon="12.4161739"><ele>688.0</ele><time>2026-03-22T14:38:15.983Z</time></trkpt><trkpt lat="43.7685484" lon="12.4162102"><ele>688.0</ele><time>2026-03-22T14:38:16.982Z</time></trkpt><trkpt lat="43.7686652" lon="12.4162445"><ele>685.2</ele><time>2026-03-22T14:38:17.983Z</time></trkpt><trkpt lat="43.7687816" lon="12.416282"><ele>682.4</ele><time>2026-03-22T14:38:18.982Z</time></trkpt><trkpt lat="43.7688862" lon="12.4163209"><ele>679.6</ele><time>2026-03-22T14:38:19.983Z</time></trkpt><trkpt lat="43.7689759" lon="12.4163578"><ele>676.8000000000001</ele><time>2026-03-22T14:38:20.982Z</time></trkpt><trkpt lat="43.7690533" lon="12.4163706"><ele>674.0</ele><time>2026-03-22T14:38:21.982Z</time></trkpt><trkpt lat="43.7691233" lon="12.4163537"><ele>674.0</ele><time>2026-03-22T14:38:22.983Z</time></trkpt><trkpt lat="43.7692072" lon="12.4163256"><ele>674.0</ele><time>2026-03-22T14:38:23.983Z</time></trkpt><trkpt lat="43.7692983" lon="12.4162831"><ele>674.0</ele><time>2026-03-22T14:38:24.982Z</time></trkpt><trkpt lat="43.7693911" lon="12.4162096"><ele>674.0</ele><time>2026-03-22T14:38:25.983Z</time></trkpt><trkpt lat="43.7694895" lon="12.4161385"><ele>674.0</ele><time>2026-03-22T14:38:26.982Z</time></trkpt><trkpt lat="43.7695823" lon="12.4160289"><ele>669.0</ele><time>2026-03-22T14:38:27.982Z</time></trkpt><trkpt lat="43.7696745" lon="12.4159293"><ele>664.0</ele><time>2026-03-22T14:38:28.982Z</time></trkpt><trkpt lat="43.7697659" lon="12.4158487"><ele>659.0</ele><time>2026-03-22T14:38:29.983Z</time></trkpt><trkpt lat="43.7698627" lon="12.4157933"><ele>654.0</ele><time>2026-03-22T14:38:30.983Z</time></trkpt><trkpt lat="43.7699713" lon="12.4157448"><ele>649.0</ele><time>2026-03-22T14:38:31.983Z</time></trkpt><trkpt lat="43.7700942" lon="12.4156976"><ele>648.5</ele><time>2026-03-22T14:38:32.983Z</time></trkpt><trkpt lat="43.7702167" lon="12.4156327"><ele>648.0</ele><time>2026-03-22T14:38:33.983Z</time></trkpt><trkpt lat="43.7703341" lon="12.4155592"><ele>647.5</ele><time>2026-03-22T14:38:34.983Z</time></trkpt><trkpt lat="43.7704367" lon="12.415488"><ele>647.0</ele><time>2026-03-22T14:38:35.983Z</time></trkpt><trkpt lat="43.7705284" lon="12.4154294"><ele>647.0</ele><time>2026-03-22T14:38:36.983Z</time></trkpt><trkpt lat="43.77061" lon="12.4153833"><ele>647.0</ele><time>2026-03-22T14:38:37.983Z</time></trkpt><trkpt lat="43.7706937" lon="12.4153518"><ele>647.0</ele><time>2026-03-22T14:38:38.982Z</time></trkpt><trkpt lat="43.770788" lon="12.4153414"><ele>647.0</ele><time>2026-03-22T14:38:39.982Z</time></trkpt><trkpt lat="43.770883" lon="12.4153443"><ele>647.0</ele><time>2026-03-22T14:38:40.983Z</time></trkpt><trkpt lat="43.7709757" lon="12.4153485"><ele>643.5</ele><time>2026-03-22T14:38:41.982Z</time></trkpt><trkpt lat="43.7710642" lon="12.4153406"><ele>640.0</ele><time>2026-03-22T14:38:42.983Z</time></trkpt><trkpt lat="43.7711475" lon="12.4153177"><ele>636.5</ele><time>2026-03-22T14:38:43.983Z</time></trkpt><trkpt lat="43.7712281" lon="12.4152931"><ele>633.0</ele><time>2026-03-22T14:38:44.982Z</time></trkpt><trkpt lat="43.7713026" lon="12.4152831"><ele>629.5</ele><time>2026-03-22T14:38:45.983Z</time></trkpt><trkpt lat="43.7714203" lon="12.4152857"><ele>626.0</ele><time>2026-03-22T14:38:47.982Z</time></trkpt><trkpt lat="43.7715193" lon="12.4152904"><ele>626.0</ele><time>2026-03-22T14:38:49.983Z</time></trkpt><trkpt lat="43.7716138" lon="12.4152877"><ele>626.0</ele><time>2026-03-22T14:38:51.983Z</time></trkpt><trkpt lat="43.7717328" lon="12.4152813"><ele>626.0</ele><time>2026-03-22T14:38:53.982Z</time></trkpt><trkpt lat="43.7717963" lon="12.415279"><ele>626.0</ele><time>2026-03-22T14:38:54.983Z</time></trkpt><trkpt lat="43.7719076" lon="12.4152715"><ele>626.0</ele><time>2026-03-22T14:38:56.982Z</time></trkpt><trkpt lat="43.7720186" lon="12.4152621"><ele>619.8</ele><time>2026-03-22T14:38:58.983Z</time></trkpt><trkpt lat="43.7721046" lon="12.4152351"><ele>613.6</ele><time>2026-03-22T14:39:00.982Z</time></trkpt><trkpt lat="43.7722052" lon="12.4152089"><ele>607.4</ele><time>2026-03-22T14:39:02.982Z</time></trkpt><trkpt lat="43.7722958" lon="12.415233"><ele>601.2</ele><time>2026-03-22T14:39:04.983Z</time></trkpt><trkpt lat="43.7723495" lon="12.4153247"><ele>595.0</ele><time>2026-03-22T14:39:06.982Z</time></trkpt><trkpt lat="43.772312" lon="12.4154424"><ele>591.6</ele><time>2026-03-22T14:39:08.983Z</time></trkpt><trkpt lat="43.7722237" lon="12.4155189"><ele>588.2</ele><time>2026-03-22T14:39:10.983Z</time></trkpt><trkpt lat="43.7721263" lon="12.4155889"><ele>584.8</ele><time>2026-03-22T14:39:12.983Z</time></trkpt><trkpt lat="43.7720193" lon="12.4156777"><ele>581.4</ele><time>2026-03-22T14:39:14.982Z</time></trkpt><trkpt lat="43.7719593" lon="12.4157373"><ele>578.0</ele><time>2026-03-22T14:39:15.983Z</time></trkpt><trkpt lat="43.7719007" lon="12.4158034"><ele>578.3333333333333</ele><time>2026-03-22T14:39:16.982Z</time></trkpt><trkpt lat="43.7718443" lon="12.4158719"><ele>578.6666666666666</ele><time>2026-03-22T14:39:17.983Z</time></trkpt><trkpt lat="43.7717926" lon="12.4159458"><ele>579.0</ele><time>2026-03-22T14:39:18.983Z</time></trkpt><trkpt lat="43.7717481" lon="12.4160185"><ele>579.3333333333334</ele><time>2026-03-22T14:39:19.983Z</time></trkpt><trkpt lat="43.7716958" lon="12.4161527"><ele>579.6666666666667</ele><time>2026-03-22T14:39:21.983Z</time></trkpt><trkpt lat="43.7717035" lon="12.4162856"><ele>580.0</ele><time>2026-03-22T14:39:23.982Z</time></trkpt><trkpt lat="43.7717748" lon="12.4164203"><ele>580.0</ele><time>2026-03-22T14:39:25.982Z</time></trkpt><trkpt lat="43.771827" lon="12.416498"><ele>580.0</ele><time>2026-03-22T14:39:26.983Z</time></trkpt><trkpt lat="43.7718871" lon="12.4165754"><ele>580.0</ele><time>2026-03-22T14:39:27.983Z</time></trkpt><trkpt lat="43.7719541" lon="12.4166564"><ele>580.0</ele><time>2026-03-22T14:39:28.983Z</time></trkpt><trkpt lat="43.7720222" lon="12.416738"><ele>580.0</ele><time>2026-03-22T14:39:29.983Z</time></trkpt><trkpt lat="43.7720857" lon="12.4168186"><ele>580.0</ele><time>2026-03-22T14:39:30.983Z</time></trkpt><trkpt lat="43.7721419" lon="12.4168914"><ele>577.6666666666667</ele><time>2026-03-22T14:39:31.983Z</time></trkpt><trkpt lat="43.7721955" lon="12.4169665"><ele>575.3333333333334</ele><time>2026-03-22T14:39:32.983Z</time></trkpt><trkpt lat="43.772252" lon="12.4170442"><ele>573.0</ele><time>2026-03-22T14:39:33.983Z</time></trkpt><trkpt lat="43.7723101" lon="12.4171195"><ele>570.6666666666666</ele><time>2026-03-22T14:39:34.983Z</time></trkpt><trkpt lat="43.7723627" lon="12.4171833"><ele>568.3333333333333</ele><time>2026-03-22T14:39:35.983Z</time></trkpt><trkpt lat="43.7724406" lon="12.4172936"><ele>566.0</ele><time>2026-03-22T14:39:37.983Z</time></trkpt><trkpt lat="43.7725043" lon="12.4174167"><ele>564.0</ele><time>2026-03-22T14:39:39.983Z</time></trkpt><trkpt lat="43.7725138" lon="12.417547"><ele>562.0</ele><time>2026-03-22T14:39:41.983Z</time></trkpt><trkpt lat="43.7724594" lon="12.4176552"><ele>560.0</ele><time>2026-03-22T14:39:43.982Z</time></trkpt><trkpt lat="43.7723459" lon="12.4177273"><ele>558.0</ele><time>2026-03-22T14:39:45.982Z</time></trkpt><trkpt lat="43.7722737" lon="12.4177669"><ele>556.0</ele><time>2026-03-22T14:39:46.983Z</time></trkpt><trkpt lat="43.7722047" lon="12.4177982"><ele>556.0</ele><time>2026-03-22T14:39:47.982Z</time></trkpt><trkpt lat="43.7721347" lon="12.4178327"><ele>556.0</ele><time>2026-03-22T14:39:48.982Z</time></trkpt><trkpt lat="43.772062" lon="12.417875"><ele>556.0</ele><time>2026-03-22T14:39:49.982Z</time></trkpt><trkpt lat="43.7719865" lon="12.4179182"><ele>556.0</ele><time>2026-03-22T14:39:50.982Z</time></trkpt><trkpt lat="43.7719137" lon="12.4179624"><ele>556.0</ele><time>2026-03-22T14:39:51.983Z</time></trkpt><trkpt lat="43.771844" lon="12.4180102"><ele>556.0</ele><time>2026-03-22T14:39:52.983Z</time></trkpt><trkpt lat="43.7717778" lon="12.4180602"><ele>555.0</ele><time>2026-03-22T14:39:53.983Z</time></trkpt><trkpt lat="43.7717149" lon="12.4181105"><ele>554.0</ele><time>2026-03-22T14:39:54.982Z</time></trkpt><trkpt lat="43.7716553" lon="12.418168"><ele>553.0</ele><time>2026-03-22T14:39:55.983Z</time></trkpt><trkpt lat="43.7716015" lon="12.4182337"><ele>552.0</ele><time>2026-03-22T14:39:56.982Z</time></trkpt><trkpt lat="43.7715564" lon="12.4183101"><ele>551.0</ele><time>2026-03-22T14:39:57.982Z</time></trkpt><trkpt lat="43.771518" lon="12.4184015"><ele>550.0</ele><time>2026-03-22T14:39:58.982Z</time></trkpt><trkpt lat="43.7714817" lon="12.4185018"><ele>549.0</ele><time>2026-03-22T14:39:59.982Z</time></trkpt><trkpt lat="43.7714421" lon="12.4186137"><ele>549.0</ele><time>2026-03-22T14:40:00.983Z</time></trkpt><trkpt lat="43.7713985" lon="12.4187239"><ele>549.0</ele><time>2026-03-22T14:40:01.983Z</time></trkpt><trkpt lat="43.7713572" lon="12.4188318"><ele>549.0</ele><time>2026-03-22T14:40:02.982Z</time></trkpt><trkpt lat="43.7713184" lon="12.4189437"><ele>549.0</ele><time>2026-03-22T14:40:03.983Z</time></trkpt><trkpt lat="43.7712804" lon="12.4190575"><ele>549.0</ele><time>2026-03-22T14:40:04.983Z</time></trkpt><trkpt lat="43.7712428" lon="12.4191739"><ele>546.0</ele><time>2026-03-22T14:40:05.983Z</time></trkpt><trkpt lat="43.7712024" lon="12.4192893"><ele>543.0</ele><time>2026-03-22T14:40:06.983Z</time></trkpt><trkpt lat="43.7711612" lon="12.4194058"><ele>540.0</ele><time>2026-03-22T14:40:07.982Z</time></trkpt><trkpt lat="43.7711228" lon="12.4195169"><ele>537.0</ele><time>2026-03-22T14:40:08.983Z</time></trkpt><trkpt lat="43.771087" lon="12.4196207"><ele>534.0</ele><time>2026-03-22T14:40:09.983Z</time></trkpt><trkpt lat="43.7710537" lon="12.4197216"><ele>531.0</ele><time>2026-03-22T14:40:10.983Z</time></trkpt><trkpt lat="43.7710279" lon="12.4198237"><ele>531.3333333333334</ele><time>2026-03-22T14:40:11.982Z</time></trkpt><trkpt lat="43.7710104" lon="12.4199248"><ele>531.6666666666666</ele><time>2026-03-22T14:40:12.982Z</time></trkpt><trkpt lat="43.7710052" lon="12.4200244"><ele>532.0</ele><time>2026-03-22T14:40:13.982Z</time></trkpt><trkpt lat="43.7710139" lon="12.4201245"><ele>532.3333333333333</ele><time>2026-03-22T14:40:14.983Z</time></trkpt><trkpt lat="43.7710362" lon="12.4202294"><ele>532.6666666666666</ele><time>2026-03-22T14:40:15.983Z</time></trkpt><trkpt lat="43.771076" lon="12.4203397"><ele>533.0</ele><time>2026-03-22T14:40:16.983Z</time></trkpt><trkpt lat="43.7711314" lon="12.4204508"><ele>530.0</ele><time>2026-03-22T14:40:17.982Z</time></trkpt><trkpt lat="43.7711866" lon="12.4205565"><ele>527.0</ele><time>2026-03-22T14:40:18.982Z</time></trkpt><trkpt lat="43.7712269" lon="12.4206466"><ele>524.0</ele><time>2026-03-22T14:40:19.983Z</time></trkpt><trkpt lat="43.7712918" lon="12.4207566"><ele>521.0</ele><time>2026-03-22T14:40:21.983Z</time></trkpt><trkpt lat="43.7714005" lon="12.4207842"><ele>518.0</ele><time>2026-03-22T14:40:23.983Z</time></trkpt><trkpt lat="43.7714701" lon="12.4207741"><ele>518.0</ele><time>2026-03-22T14:40:24.982Z</time></trkpt><trkpt lat="43.7715619" lon="12.4207541"><ele>518.0</ele><time>2026-03-22T14:40:25.983Z</time></trkpt><trkpt lat="43.7716614" lon="12.4207079"><ele>518.0</ele><time>2026-03-22T14:40:26.983Z</time></trkpt><trkpt lat="43.7717522" lon="12.4206442"><ele>518.0</ele><time>2026-03-22T14:40:27.982Z</time></trkpt><trkpt lat="43.7718346" lon="12.4205937"><ele>518.0</ele><time>2026-03-22T14:40:28.982Z</time></trkpt><trkpt lat="43.771913" lon="12.4205518"><ele>516.1666666666666</ele><time>2026-03-22T14:40:29.982Z</time></trkpt><trkpt lat="43.7719928" lon="12.4205589"><ele>514.3333333333333</ele><time>2026-03-22T14:40:30.983Z</time></trkpt><trkpt lat="43.772065" lon="12.4205731"><ele>512.5</ele><time>2026-03-22T14:40:31.982Z</time></trkpt><trkpt lat="43.7721384" lon="12.4205988"><ele>510.66666666666663</ele><time>2026-03-22T14:40:32.983Z</time></trkpt><trkpt lat="43.7722177" lon="12.4206339"><ele>508.8333333333333</ele><time>2026-03-22T14:40:33.982Z</time></trkpt><trkpt lat="43.7722965" lon="12.4206694"><ele>507.0</ele><time>2026-03-22T14:40:34.983Z</time></trkpt><trkpt lat="43.772373" lon="12.4207053"><ele>507.0</ele><time>2026-03-22T14:40:35.982Z</time></trkpt><trkpt lat="43.7724518" lon="12.4207382"><ele>507.0</ele><time>2026-03-22T14:40:36.982Z</time></trkpt><trkpt lat="43.7725322" lon="12.4207679"><ele>507.0</ele><time>2026-03-22T14:40:37.983Z</time></trkpt><trkpt lat="43.7726112" lon="12.4208004"><ele>507.0</ele><time>2026-03-22T14:40:38.983Z</time></trkpt><trkpt lat="43.7726906" lon="12.4208295"><ele>507.0</ele><time>2026-03-22T14:40:39.982Z</time></trkpt><trkpt lat="43.772772" lon="12.4208495"><ele>507.0</ele><time>2026-03-22T14:40:40.983Z</time></trkpt><trkpt lat="43.7728548" lon="12.4208609"><ele>505.6666666666667</ele><time>2026-03-22T14:40:41.983Z</time></trkpt><trkpt lat="43.7729378" lon="12.4208689"><ele>504.33333333333337</ele><time>2026-03-22T14:40:42.982Z</time></trkpt><trkpt lat="43.7730197" lon="12.4208788"><ele>503.0</ele><time>2026-03-22T14:40:43.982Z</time></trkpt><trkpt lat="43.7731047" lon="12.4208924"><ele>501.6666666666667</ele><time>2026-03-22T14:40:44.983Z</time></trkpt><trkpt lat="43.773194" lon="12.4209099"><ele>500.33333333333337</ele><time>2026-03-22T14:40:45.983Z</time></trkpt><trkpt lat="43.773278" lon="12.4209263"><ele>499.0</ele><time>2026-03-22T14:40:46.983Z</time></trkpt><trkpt lat="43.773355" lon="12.4209405"><ele>499.00000000000006</ele><time>2026-03-22T14:40:47.982Z</time></trkpt><trkpt lat="43.773436" lon="12.420954"><ele>499.0</ele><time>2026-03-22T14:40:48.983Z</time></trkpt><trkpt lat="43.7735154" lon="12.4209595"><ele>499.0</ele><time>2026-03-22T14:40:49.983Z</time></trkpt><trkpt lat="43.773591" lon="12.4209611"><ele>499.0</ele><time>2026-03-22T14:40:50.982Z</time></trkpt><trkpt lat="43.7736676" lon="12.4209622"><ele>499.00000000000006</ele><time>2026-03-22T14:40:51.982Z</time></trkpt><trkpt lat="43.7737442" lon="12.4209537"><ele>499.0</ele><time>2026-03-22T14:40:52.983Z</time></trkpt><trkpt lat="43.7738195" lon="12.4209399"><ele>497.1428571428572</ele><time>2026-03-22T14:40:53.983Z</time></trkpt><trkpt lat="43.7738938" lon="12.4209231"><ele>495.28571428571433</ele><time>2026-03-22T14:40:54.982Z</time></trkpt><trkpt lat="43.7739629" lon="12.4209032"><ele>493.42857142857144</ele><time>2026-03-22T14:40:55.983Z</time></trkpt><trkpt lat="43.7740323" lon="12.4208825"><ele>491.5714285714286</ele><time>2026-03-22T14:40:56.983Z</time></trkpt><trkpt lat="43.7741039" lon="12.4208608"><ele>489.7142857142858</ele><time>2026-03-22T14:40:57.982Z</time></trkpt><trkpt lat="43.7741725" lon="12.4208395"><ele>487.85714285714283</ele><time>2026-03-22T14:40:58.982Z</time></trkpt><trkpt lat="43.7742416" lon="12.4208141"><ele>486.0</ele><time>2026-03-22T14:40:59.983Z</time></trkpt><trkpt lat="43.7743222" lon="12.4208054"><ele>483.1666666666667</ele><time>2026-03-22T14:41:00.982Z</time></trkpt><trkpt lat="43.7744039" lon="12.4208058"><ele>480.33333333333337</ele><time>2026-03-22T14:41:01.982Z</time></trkpt><trkpt lat="43.7744869" lon="12.420824"><ele>477.5</ele><time>2026-03-22T14:41:02.983Z</time></trkpt><trkpt lat="43.7745746" lon="12.4208397"><ele>474.6666666666667</ele><time>2026-03-22T14:41:03.983Z</time></trkpt><trkpt lat="43.7746538" lon="12.4208609"><ele>471.83333333333337</ele><time>2026-03-22T14:41:04.983Z</time></trkpt><trkpt lat="43.7747223" lon="12.4208896"><ele>469.0</ele><time>2026-03-22T14:41:05.983Z</time></trkpt><trkpt lat="43.7748015" lon="12.4209256"><ele>469.00000000000006</ele><time>2026-03-22T14:41:06.983Z</time></trkpt><trkpt lat="43.7748828" lon="12.4209667"><ele>469.0</ele><time>2026-03-22T14:41:07.982Z</time></trkpt><trkpt lat="43.7749609" lon="12.4210114"><ele>469.0</ele><time>2026-03-22T14:41:08.983Z</time></trkpt><trkpt lat="43.7750285" lon="12.4210571"><ele>469.0</ele><time>2026-03-22T14:41:09.983Z</time></trkpt><trkpt lat="43.7750942" lon="12.4211057"><ele>469.00000000000006</ele><time>2026-03-22T14:41:10.983Z</time></trkpt><trkpt lat="43.7751626" lon="12.4211599"><ele>469.0</ele><time>2026-03-22T14:41:11.982Z</time></trkpt><trkpt lat="43.7752276" lon="12.4212173"><ele>466.50000000000006</ele><time>2026-03-22T14:41:12.983Z</time></trkpt><trkpt lat="43.7752877" lon="12.4212747"><ele>464.0</ele><time>2026-03-22T14:41:13.982Z</time></trkpt><trkpt lat="43.7753428" lon="12.4213262"><ele>461.5</ele><time>2026-03-22T14:41:14.982Z</time></trkpt><trkpt lat="43.7754228" lon="12.4214051"><ele>459.0</ele><time>2026-03-22T14:41:16.983Z</time></trkpt><trkpt lat="43.7754958" lon="12.4213943"><ele>456.50000000000006</ele><time>2026-03-22T14:41:19.982Z</time></trkpt><trkpt lat="43.7754585" lon="12.421236"><ele>454.0</ele><time>2026-03-22T14:41:22.983Z</time></trkpt><trkpt lat="43.7754254" lon="12.4211327"><ele>453.79999999999995</ele><time>2026-03-22T14:41:23.983Z</time></trkpt><trkpt lat="43.7753947" lon="12.4210203"><ele>453.59999999999997</ele><time>2026-03-22T14:41:24.982Z</time></trkpt><trkpt lat="43.7753718" lon="12.4209033"><ele>453.4</ele><time>2026-03-22T14:41:25.982Z</time></trkpt><trkpt lat="43.775354" lon="12.4207688"><ele>453.2</ele><time>2026-03-22T14:41:26.983Z</time></trkpt><trkpt lat="43.775341" lon="12.4206115"><ele>453.0</ele><time>2026-03-22T14:41:27.982Z</time></trkpt><trkpt lat="43.7753264" lon="12.4204112"><ele>453.5</ele><time>2026-03-22T14:41:28.982Z</time></trkpt><trkpt lat="43.7753135" lon="12.420202"><ele>454.0</ele><time>2026-03-22T14:41:29.983Z</time></trkpt><trkpt lat="43.7753066" lon="12.4200248"><ele>454.5</ele><time>2026-03-22T14:41:30.983Z</time></trkpt><trkpt lat="43.7752968" lon="12.4198514"><ele>455.0</ele><time>2026-03-22T14:41:31.983Z</time></trkpt><trkpt lat="43.7752833" lon="12.4196774"><ele>456.8</ele><time>2026-03-22T14:41:32.983Z</time></trkpt><trkpt lat="43.7752751" lon="12.4195053"><ele>458.6</ele><time>2026-03-22T14:41:33.983Z</time></trkpt><trkpt lat="43.775271" lon="12.4193561"><ele>460.4</ele><time>2026-03-22T14:41:34.983Z</time></trkpt><trkpt lat="43.7752693" lon="12.4192398"><ele>462.2</ele><time>2026-03-22T14:41:35.982Z</time></trkpt><trkpt lat="43.7752711" lon="12.4191486"><ele>464.0</ele><time>2026-03-22T14:41:36.982Z</time></trkpt><trkpt lat="43.7753166" lon="12.4190192"><ele>464.0</ele><time>2026-03-22T14:41:38.982Z</time></trkpt><trkpt lat="43.7754424" lon="12.4189705"><ele>464.0</ele><time>2026-03-22T14:41:40.982Z</time></trkpt><trkpt lat="43.7755489" lon="12.4189765"><ele>464.0</ele><time>2026-03-22T14:41:41.982Z</time></trkpt><trkpt lat="43.7756839" lon="12.4189953"><ele>464.0</ele><time>2026-03-22T14:41:42.982Z</time></trkpt><trkpt lat="43.7758334" lon="12.4190159"><ele>464.0</ele><time>2026-03-22T14:41:43.983Z</time></trkpt><trkpt lat="43.776005" lon="12.4190366"><ele>464.0</ele><time>2026-03-22T14:41:44.983Z</time></trkpt><trkpt lat="43.7761763" lon="12.4190572"><ele>464.0</ele><time>2026-03-22T14:41:45.983Z</time></trkpt><trkpt lat="43.7763288" lon="12.4190736"><ele>463.5</ele><time>2026-03-22T14:41:46.983Z</time></trkpt><trkpt lat="43.7764723" lon="12.4190908"><ele>463.0</ele><time>2026-03-22T14:41:47.982Z</time></trkpt><trkpt lat="43.7766097" lon="12.4191068"><ele>462.5</ele><time>2026-03-22T14:41:48.983Z</time></trkpt><trkpt lat="43.7767446" lon="12.4191193"><ele>462.0</ele><time>2026-03-22T14:41:49.983Z</time></trkpt><trkpt lat="43.7768859" lon="12.419128"><ele>460.0</ele><time>2026-03-22T14:41:50.982Z</time></trkpt><trkpt lat="43.777027" lon="12.419125"><ele>458.0</ele><time>2026-03-22T14:41:51.982Z</time></trkpt><trkpt lat="43.7771602" lon="12.419115"><ele>456.0</ele><time>2026-03-22T14:41:52.983Z</time></trkpt><trkpt lat="43.7772839" lon="12.4191136"><ele>454.0</ele><time>2026-03-22T14:41:53.982Z</time></trkpt><trkpt lat="43.7773834" lon="12.4191139"><ele>454.00000000000006</ele><time>2026-03-22T14:41:54.982Z</time></trkpt><trkpt lat="43.7774725" lon="12.4191081"><ele>454.0</ele><time>2026-03-22T14:41:55.983Z</time></trkpt><trkpt lat="43.7775534" lon="12.4190985"><ele>454.0</ele><time>2026-03-22T14:41:56.983Z</time></trkpt><trkpt lat="43.7776214" lon="12.4190821"><ele>454.0</ele><time>2026-03-22T14:41:57.982Z</time></trkpt><trkpt lat="43.77772" lon="12.4189994"><ele>454.00000000000006</ele><time>2026-03-22T14:41:59.982Z</time></trkpt><trkpt lat="43.7777517" lon="12.4189219"><ele>454.0</ele><time>2026-03-22T14:42:00.982Z</time></trkpt><trkpt lat="43.777782" lon="12.4188203"><ele>453.33333333333337</ele><time>2026-03-22T14:42:01.982Z</time></trkpt><trkpt lat="43.7778079" lon="12.4187051"><ele>452.6666666666667</ele><time>2026-03-22T14:42:02.983Z</time></trkpt><trkpt lat="43.7778144" lon="12.4186"><ele>452.0</ele><time>2026-03-22T14:42:03.983Z</time></trkpt><trkpt lat="43.7778047" lon="12.418494"><ele>451.33333333333337</ele><time>2026-03-22T14:42:04.983Z</time></trkpt><trkpt lat="43.7777849" lon="12.4183875"><ele>450.6666666666667</ele><time>2026-03-22T14:42:05.982Z</time></trkpt><trkpt lat="43.7777555" lon="12.4182824"><ele>450.0</ele><time>2026-03-22T14:42:06.983Z</time></trkpt><trkpt lat="43.7777114" lon="12.4181736"><ele>452.2</ele><time>2026-03-22T14:42:07.982Z</time></trkpt><trkpt lat="43.777661" lon="12.4180596"><ele>454.4</ele><time>2026-03-22T14:42:08.982Z</time></trkpt><trkpt lat="43.7776215" lon="12.4179402"><ele>456.6</ele><time>2026-03-22T14:42:09.982Z</time></trkpt><trkpt lat="43.7776047" lon="12.4178144"><ele>458.8</ele><time>2026-03-22T14:42:10.982Z</time></trkpt><trkpt lat="43.7776096" lon="12.4176876"><ele>461.0</ele><time>2026-03-22T14:42:11.983Z</time></trkpt><trkpt lat="43.7776322" lon="12.4175668"><ele>461.20000000000005</ele><time>2026-03-22T14:42:12.983Z</time></trkpt><trkpt lat="43.777674" lon="12.4174519"><ele>461.40000000000003</ele><time>2026-03-22T14:42:13.982Z</time></trkpt><trkpt lat="43.777733" lon="12.4173275"><ele>461.6</ele><time>2026-03-22T14:42:14.983Z</time></trkpt><trkpt lat="43.7777898" lon="12.4171878"><ele>461.8</ele><time>2026-03-22T14:42:15.983Z</time></trkpt><trkpt lat="43.7778287" lon="12.4170485"><ele>462.0</ele><time>2026-03-22T14:42:16.983Z</time></trkpt><trkpt lat="43.7778492" lon="12.4169207"><ele>462.0</ele><time>2026-03-22T14:42:17.983Z</time></trkpt><trkpt lat="43.7778515" lon="12.4168088"><ele>462.00000000000006</ele><time>2026-03-22T14:42:18.983Z</time></trkpt><trkpt lat="43.7778339" lon="12.4167009"><ele>462.00000000000006</ele><time>2026-03-22T14:42:19.983Z</time></trkpt><trkpt lat="43.7777958" lon="12.4165862"><ele>462.0</ele><time>2026-03-22T14:42:20.983Z</time></trkpt><trkpt lat="43.7777392" lon="12.4164776"><ele>462.0</ele><time>2026-03-22T14:42:21.982Z</time></trkpt><trkpt lat="43.7776651" lon="12.4163819"><ele>465.3333333333333</ele><time>2026-03-22T14:42:22.983Z</time></trkpt><trkpt lat="43.7775862" lon="12.4162892"><ele>468.66666666666663</ele><time>2026-03-22T14:42:23.983Z</time></trkpt><trkpt lat="43.7775308" lon="12.4161931"><ele>472.0</ele><time>2026-03-22T14:42:24.982Z</time></trkpt><trkpt lat="43.7775071" lon="12.4160914"><ele>475.3333333333333</ele><time>2026-03-22T14:42:25.983Z</time></trkpt><trkpt lat="43.7775025" lon="12.4159816"><ele>478.66666666666663</ele><time>2026-03-22T14:42:26.983Z</time></trkpt><trkpt lat="43.7775102" lon="12.415872"><ele>482.0</ele><time>2026-03-22T14:42:27.982Z</time></trkpt><trkpt lat="43.7775183" lon="12.4157541"><ele>482.0</ele><time>2026-03-22T14:42:28.983Z</time></trkpt><trkpt lat="43.7775162" lon="12.4156292"><ele>482.00000000000006</ele><time>2026-03-22T14:42:29.982Z</time></trkpt><trkpt lat="43.7775002" lon="12.4155001"><ele>482.00000000000006</ele><time>2026-03-22T14:42:30.983Z</time></trkpt><trkpt lat="43.7774796" lon="12.4153605"><ele>482.0</ele><time>2026-03-22T14:42:31.982Z</time></trkpt><trkpt lat="43.7774494" lon="12.4152349"><ele>482.0</ele><time>2026-03-22T14:42:32.983Z</time></trkpt><trkpt lat="43.7774048" lon="12.4151206"><ele>483.40000000000003</ele><time>2026-03-22T14:42:33.983Z</time></trkpt><trkpt lat="43.7773449" lon="12.4150055"><ele>484.80000000000007</ele><time>2026-03-22T14:42:34.982Z</time></trkpt><trkpt lat="43.7772773" lon="12.4148873"><ele>486.2</ele><time>2026-03-22T14:42:35.982Z</time></trkpt><trkpt lat="43.7772003" lon="12.4147676"><ele>487.6</ele><time>2026-03-22T14:42:36.982Z</time></trkpt><trkpt lat="43.7771231" lon="12.4146398"><ele>489.0</ele><time>2026-03-22T14:42:37.982Z</time></trkpt><trkpt lat="43.7770473" lon="12.4145071"><ele>490.2</ele><time>2026-03-22T14:42:38.982Z</time></trkpt><trkpt lat="43.7769784" lon="12.4143692"><ele>491.4</ele><time>2026-03-22T14:42:39.983Z</time></trkpt><trkpt lat="43.7769258" lon="12.4142377"><ele>492.6</ele><time>2026-03-22T14:42:40.982Z</time></trkpt><trkpt lat="43.7768801" lon="12.4141015"><ele>493.8</ele><time>2026-03-22T14:42:41.983Z</time></trkpt><trkpt lat="43.7768459" lon="12.4139733"><ele>495.0</ele><time>2026-03-22T14:42:42.983Z</time></trkpt><trkpt lat="43.7768305" lon="12.4138524"><ele>496.3333333333333</ele><time>2026-03-22T14:42:43.983Z</time></trkpt><trkpt lat="43.7768328" lon="12.413744"><ele>497.66666666666663</ele><time>2026-03-22T14:42:44.983Z</time></trkpt><trkpt lat="43.7768539" lon="12.413649"><ele>499.0</ele><time>2026-03-22T14:42:45.983Z</time></trkpt><trkpt lat="43.7769024" lon="12.4135499"><ele>500.3333333333333</ele><time>2026-03-22T14:42:46.982Z</time></trkpt><trkpt lat="43.7769695" lon="12.413465"><ele>501.66666666666663</ele><time>2026-03-22T14:42:47.982Z</time></trkpt><trkpt lat="43.7770522" lon="12.4133989"><ele>503.0</ele><time>2026-03-22T14:42:48.983Z</time></trkpt><trkpt lat="43.7771435" lon="12.4133639"><ele>503.0</ele><time>2026-03-22T14:42:49.983Z</time></trkpt><trkpt lat="43.7772345" lon="12.4133582"><ele>502.99999999999994</ele><time>2026-03-22T14:42:50.983Z</time></trkpt><trkpt lat="43.7773328" lon="12.4133766"><ele>502.99999999999994</ele><time>2026-03-22T14:42:51.983Z</time></trkpt><trkpt lat="43.777449" lon="12.4134172"><ele>503.0</ele><time>2026-03-22T14:42:52.983Z</time></trkpt><trkpt lat="43.7775788" lon="12.4134633"><ele>503.0</ele><time>2026-03-22T14:42:53.983Z</time></trkpt><trkpt lat="43.7777016" lon="12.4135064"><ele>502.75</ele><time>2026-03-22T14:42:54.983Z</time></trkpt><trkpt lat="43.7778468" lon="12.4135547"><ele>502.5</ele><time>2026-03-22T14:42:55.983Z</time></trkpt><trkpt lat="43.7779932" lon="12.4135886"><ele>502.25</ele><time>2026-03-22T14:42:56.982Z</time></trkpt><trkpt lat="43.7781222" lon="12.4136234"><ele>502.0</ele><time>2026-03-22T14:42:57.983Z</time></trkpt><trkpt lat="43.7782403" lon="12.4136476"><ele>502.0</ele><time>2026-03-22T14:42:58.983Z</time></trkpt><trkpt lat="43.7783411" lon="12.4136516"><ele>502.00000000000006</ele><time>2026-03-22T14:42:59.983Z</time></trkpt><trkpt lat="43.7784332" lon="12.4136297"><ele>502.00000000000006</ele><time>2026-03-22T14:43:00.982Z</time></trkpt><trkpt lat="43.7785283" lon="12.4135821"><ele>502.0</ele><time>2026-03-22T14:43:01.983Z</time></trkpt><trkpt lat="43.7786269" lon="12.4135152"><ele>502.0</ele><time>2026-03-22T14:43:02.983Z</time></trkpt><trkpt lat="43.7787034" lon="12.4134427"><ele>503.20000000000005</ele><time>2026-03-22T14:43:03.982Z</time></trkpt><trkpt lat="43.7787849" lon="12.413356"><ele>504.40000000000003</ele><time>2026-03-22T14:43:04.983Z</time></trkpt><trkpt lat="43.7788707" lon="12.4132659"><ele>505.59999999999997</ele><time>2026-03-22T14:43:05.982Z</time></trkpt><trkpt lat="43.778954" lon="12.4131772"><ele>506.79999999999995</ele><time>2026-03-22T14:43:06.983Z</time></trkpt><trkpt lat="43.7790339" lon="12.413092"><ele>508.0</ele><time>2026-03-22T14:43:07.983Z</time></trkpt><trkpt lat="43.7791209" lon="12.4130083"><ele>509.33333333333337</ele><time>2026-03-22T14:43:08.982Z</time></trkpt><trkpt lat="43.7792137" lon="12.4129369"><ele>510.6666666666667</ele><time>2026-03-22T14:43:09.983Z</time></trkpt><trkpt lat="43.7792951" lon="12.4128947"><ele>512.0</ele><time>2026-03-22T14:43:10.982Z</time></trkpt><trkpt lat="43.7793809" lon="12.4128759"><ele>513.3333333333334</ele><time>2026-03-22T14:43:11.982Z</time></trkpt><trkpt lat="43.7794543" lon="12.4128833"><ele>514.6666666666666</ele><time>2026-03-22T14:43:12.983Z</time></trkpt><trkpt lat="43.779513" lon="12.4129229"><ele>516.0</ele><time>2026-03-22T14:43:13.982Z</time></trkpt><trkpt lat="43.779585" lon="12.412991"><ele>516.0</ele><time>2026-03-22T14:43:14.982Z</time></trkpt><trkpt lat="43.7796661" lon="12.4130677"><ele>516.0</ele><time>2026-03-22T14:43:15.983Z</time></trkpt><trkpt lat="43.7797606" lon="12.4131369"><ele>516.0</ele><time>2026-03-22T14:43:16.982Z</time></trkpt><trkpt lat="43.7798556" lon="12.413187"><ele>516.0</ele><time>2026-03-22T14:43:17.983Z</time></trkpt><trkpt lat="43.7799575" lon="12.4132185"><ele>516.0</ele><time>2026-03-22T14:43:18.983Z</time></trkpt><trkpt lat="43.7800691" lon="12.4132332"><ele>515.8</ele><time>2026-03-22T14:43:19.983Z</time></trkpt><trkpt lat="43.7801853" lon="12.4132365"><ele>515.6</ele><time>2026-03-22T14:43:20.983Z</time></trkpt><trkpt lat="43.7803043" lon="12.4132328"><ele>515.4</ele><time>2026-03-22T14:43:21.983Z</time></trkpt><trkpt lat="43.7804039" lon="12.413224"><ele>515.2</ele><time>2026-03-22T14:43:22.983Z</time></trkpt><trkpt lat="43.780487" lon="12.4132065"><ele>515.0</ele><time>2026-03-22T14:43:23.982Z</time></trkpt><trkpt lat="43.780562" lon="12.4131594"><ele>515.0</ele><time>2026-03-22T14:43:24.983Z</time></trkpt><trkpt lat="43.7806203" lon="12.4130827"><ele>515.0</ele><time>2026-03-22T14:43:25.982Z</time></trkpt><trkpt lat="43.7806615" lon="12.4129828"><ele>515.0</ele><time>2026-03-22T14:43:26.983Z</time></trkpt><trkpt lat="43.7806963" lon="12.41286"><ele>515.0</ele><time>2026-03-22T14:43:27.983Z</time></trkpt><trkpt lat="43.7807261" lon="12.4127093"><ele>515.0</ele><time>2026-03-22T14:43:28.983Z</time></trkpt><trkpt lat="43.7807564" lon="12.4125493"><ele>521.0</ele><time>2026-03-22T14:43:29.983Z</time></trkpt><trkpt lat="43.7807926" lon="12.4124098"><ele>527.0</ele><time>2026-03-22T14:43:30.982Z</time></trkpt><trkpt lat="43.7808467" lon="12.4122682"><ele>533.0</ele><time>2026-03-22T14:43:31.982Z</time></trkpt><trkpt lat="43.7809178" lon="12.4121378"><ele>539.0</ele><time>2026-03-22T14:43:32.983Z</time></trkpt><trkpt lat="43.7810035" lon="12.4120055"><ele>542.0</ele><time>2026-03-22T14:43:33.983Z</time></trkpt><trkpt lat="43.7811065" lon="12.4118629"><ele>545.0</ele><time>2026-03-22T14:43:34.982Z</time></trkpt><trkpt lat="43.7812236" lon="12.4116997"><ele>548.0</ele><time>2026-03-22T14:43:35.983Z</time></trkpt><trkpt lat="43.7813556" lon="12.4115267"><ele>548.0</ele><time>2026-03-22T14:43:36.983Z</time></trkpt><trkpt lat="43.7814665" lon="12.4113813"><ele>548.0</ele><time>2026-03-22T14:43:37.982Z</time></trkpt><trkpt lat="43.7815682" lon="12.4112482"><ele>548.0</ele><time>2026-03-22T14:43:38.983Z</time></trkpt><trkpt lat="43.7816636" lon="12.4111271"><ele>548.0</ele><time>2026-03-22T14:43:39.983Z</time></trkpt><trkpt lat="43.7817521" lon="12.411024"><ele>550.4</ele><time>2026-03-22T14:43:40.983Z</time></trkpt><trkpt lat="43.7818487" lon="12.410942"><ele>552.8</ele><time>2026-03-22T14:43:41.982Z</time></trkpt><trkpt lat="43.7819438" lon="12.4109"><ele>555.2</ele><time>2026-03-22T14:43:42.983Z</time></trkpt><trkpt lat="43.7820525" lon="12.4108792"><ele>557.6</ele><time>2026-03-22T14:43:43.983Z</time></trkpt><trkpt lat="43.7821783" lon="12.4108715"><ele>560.0</ele><time>2026-03-22T14:43:44.983Z</time></trkpt><trkpt lat="43.7823141" lon="12.41087"><ele>560.0</ele><time>2026-03-22T14:43:45.982Z</time></trkpt><trkpt lat="43.7824607" lon="12.4108619"><ele>560.0</ele><time>2026-03-22T14:43:46.983Z</time></trkpt><trkpt lat="43.7825871" lon="12.4108595"><ele>560.0</ele><time>2026-03-22T14:43:47.982Z</time></trkpt><trkpt lat="43.7827001" lon="12.4108598"><ele>560.0</ele><time>2026-03-22T14:43:48.983Z</time></trkpt><trkpt lat="43.7828045" lon="12.4108628"><ele>560.2</ele><time>2026-03-22T14:43:49.983Z</time></trkpt><trkpt lat="43.7828921" lon="12.4108632"><ele>560.4</ele><time>2026-03-22T14:43:50.982Z</time></trkpt><trkpt lat="43.7829664" lon="12.4108654"><ele>560.6</ele><time>2026-03-22T14:43:51.982Z</time></trkpt><trkpt lat="43.7830792" lon="12.4108871"><ele>560.8</ele><time>2026-03-22T14:43:53.982Z</time></trkpt><trkpt lat="43.7831858" lon="12.4109971"><ele>561.0</ele><time>2026-03-22T14:43:55.983Z</time></trkpt><trkpt lat="43.7832586" lon="12.4110947"><ele>561.0</ele><time>2026-03-22T14:43:56.982Z</time></trkpt><trkpt lat="43.7833394" lon="12.4112065"><ele>561.0</ele><time>2026-03-22T14:43:57.983Z</time></trkpt><trkpt lat="43.7834415" lon="12.4113071"><ele>561.0</ele><time>2026-03-22T14:43:58.983Z</time></trkpt><trkpt lat="43.7835499" lon="12.4113911"><ele>561.0</ele><time>2026-03-22T14:43:59.982Z</time></trkpt><trkpt lat="43.7836664" lon="12.4114507"><ele>561.75</ele><time>2026-03-22T14:44:00.983Z</time></trkpt><trkpt lat="43.7837928" lon="12.4114872"><ele>562.5</ele><time>2026-03-22T14:44:01.982Z</time></trkpt><trkpt lat="43.7839085" lon="12.4115167"><ele>563.25</ele><time>2026-03-22T14:44:02.983Z</time></trkpt><trkpt lat="43.784015" lon="12.4115338"><ele>564.0</ele><time>2026-03-22T14:44:03.983Z</time></trkpt><trkpt lat="43.7841172" lon="12.411553"><ele>564.0</ele><time>2026-03-22T14:44:04.982Z</time></trkpt><trkpt lat="43.7842084" lon="12.4115762"><ele>564.0</ele><time>2026-03-22T14:44:05.983Z</time></trkpt><trkpt lat="43.7843013" lon="12.4116093"><ele>564.0</ele><time>2026-03-22T14:44:06.983Z</time></trkpt><trkpt lat="43.7843922" lon="12.4116594"><ele>564.0</ele><time>2026-03-22T14:44:07.982Z</time></trkpt><trkpt lat="43.7844831" lon="12.4117274"><ele>564.0</ele><time>2026-03-22T14:44:08.983Z</time></trkpt><trkpt lat="43.7845714" lon="12.4118152"><ele>564.25</ele><time>2026-03-22T14:44:09.982Z</time></trkpt><trkpt lat="43.7846534" lon="12.4119233"><ele>564.5</ele><time>2026-03-22T14:44:10.982Z</time></trkpt><trkpt lat="43.7847354" lon="12.4120452"><ele>564.75</ele><time>2026-03-22T14:44:11.983Z</time></trkpt><trkpt lat="43.7848159" lon="12.4121761"><ele>565.0</ele><time>2026-03-22T14:44:12.983Z</time></trkpt><trkpt lat="43.784893" lon="12.4122969"><ele>565.0</ele><time>2026-03-22T14:44:13.982Z</time></trkpt><trkpt lat="43.7849693" lon="12.412409"><ele>565.0</ele><time>2026-03-22T14:44:14.983Z</time></trkpt><trkpt lat="43.78505" lon="12.4125036"><ele>565.0</ele><time>2026-03-22T14:44:15.983Z</time></trkpt><trkpt lat="43.7851442" lon="12.4125728"><ele>565.0</ele><time>2026-03-22T14:44:16.982Z</time></trkpt><trkpt lat="43.7852436" lon="12.4126105"><ele>565.0</ele><time>2026-03-22T14:44:17.983Z</time></trkpt><trkpt lat="43.7853485" lon="12.412621"><ele>564.5</ele><time>2026-03-22T14:44:18.982Z</time></trkpt><trkpt lat="43.7854627" lon="12.4126152"><ele>564.0</ele><time>2026-03-22T14:44:19.983Z</time></trkpt><trkpt lat="43.7855749" lon="12.4126272"><ele>563.5</ele><time>2026-03-22T14:44:20.982Z</time></trkpt><trkpt lat="43.7856894" lon="12.4126526"><ele>563.0</ele><time>2026-03-22T14:44:21.982Z</time></trkpt><trkpt lat="43.7858037" lon="12.4126945"><ele>563.0</ele><time>2026-03-22T14:44:22.983Z</time></trkpt><trkpt lat="43.7859171" lon="12.4127471"><ele>563.0</ele><time>2026-03-22T14:44:23.982Z</time></trkpt><trkpt lat="43.7860386" lon="12.4128081"><ele>563.0</ele><time>2026-03-22T14:44:24.983Z</time></trkpt><trkpt lat="43.7861664" lon="12.4128698"><ele>563.0</ele><time>2026-03-22T14:44:25.983Z</time></trkpt><trkpt lat="43.7862885" lon="12.4129209"><ele>562.0</ele><time>2026-03-22T14:44:26.983Z</time></trkpt><trkpt lat="43.7863972" lon="12.4129618"><ele>561.0</ele><time>2026-03-22T14:44:27.982Z</time></trkpt><trkpt lat="43.7864864" lon="12.4129947"><ele>560.0</ele><time>2026-03-22T14:44:28.983Z</time></trkpt><trkpt lat="43.7865641" lon="12.4130412"><ele>559.0</ele><time>2026-03-22T14:44:29.983Z</time></trkpt><trkpt lat="43.7866341" lon="12.413097"><ele>558.0</ele><time>2026-03-22T14:44:30.982Z</time></trkpt><trkpt lat="43.7866843" lon="12.4131759"><ele>557.0</ele><time>2026-03-22T14:44:31.982Z</time></trkpt><trkpt lat="43.7867064" lon="12.4132779"><ele>557.0</ele><time>2026-03-22T14:44:32.983Z</time></trkpt><trkpt lat="43.7867013" lon="12.413385"><ele>557.0</ele><time>2026-03-22T14:44:33.982Z</time></trkpt><trkpt lat="43.7866672" lon="12.4134856"><ele>557.0</ele><time>2026-03-22T14:44:34.983Z</time></trkpt><trkpt lat="43.7866098" lon="12.4135872"><ele>557.0</ele><time>2026-03-22T14:44:35.982Z</time></trkpt><trkpt lat="43.786551" lon="12.4136954"><ele>557.0</ele><time>2026-03-22T14:44:36.982Z</time></trkpt><trkpt lat="43.7865104" lon="12.413799"><ele>557.0</ele><time>2026-03-22T14:44:37.983Z</time></trkpt><trkpt lat="43.7864897" lon="12.4139024"><ele>555.5</ele><time>2026-03-22T14:44:38.983Z</time></trkpt><trkpt lat="43.7864914" lon="12.4140006"><ele>554.0</ele><time>2026-03-22T14:44:39.983Z</time></trkpt><trkpt lat="43.786516" lon="12.4140825"><ele>552.5</ele><time>2026-03-22T14:44:40.983Z</time></trkpt><trkpt lat="43.7865635" lon="12.4141499"><ele>551.0</ele><time>2026-03-22T14:44:41.983Z</time></trkpt><trkpt lat="43.7866727" lon="12.4142062"><ele>549.5</ele><time>2026-03-22T14:44:43.983Z</time></trkpt><trkpt lat="43.78674" lon="12.4141994"><ele>548.0</ele><time>2026-03-22T14:44:44.982Z</time></trkpt><trkpt lat="43.7868122" lon="12.4141652"><ele>546.0</ele><time>2026-03-22T14:44:45.983Z</time></trkpt><trkpt lat="43.7868865" lon="12.4141096"><ele>544.0</ele><time>2026-03-22T14:44:46.983Z</time></trkpt><trkpt lat="43.7869597" lon="12.414045"><ele>542.0</ele><time>2026-03-22T14:44:47.982Z</time></trkpt><trkpt lat="43.787032" lon="12.4139733"><ele>540.0</ele><time>2026-03-22T14:44:48.982Z</time></trkpt><trkpt lat="43.7871097" lon="12.4138937"><ele>538.0</ele><time>2026-03-22T14:44:49.982Z</time></trkpt><trkpt lat="43.787194" lon="12.4138101"><ele>538.0</ele><time>2026-03-22T14:44:50.982Z</time></trkpt><trkpt lat="43.7872824" lon="12.4137147"><ele>538.0</ele><time>2026-03-22T14:44:51.983Z</time></trkpt><trkpt lat="43.7873766" lon="12.4136159"><ele>538.0</ele><time>2026-03-22T14:44:52.983Z</time></trkpt><trkpt lat="43.7874713" lon="12.4135244"><ele>538.0</ele><time>2026-03-22T14:44:53.982Z</time></trkpt><trkpt lat="43.7875631" lon="12.4134316"><ele>538.0</ele><time>2026-03-22T14:44:54.983Z</time></trkpt><trkpt lat="43.7876483" lon="12.4133476"><ele>538.0</ele><time>2026-03-22T14:44:55.982Z</time></trkpt><trkpt lat="43.7877303" lon="12.4132665"><ele>538.0</ele><time>2026-03-22T14:44:56.983Z</time></trkpt><trkpt lat="43.7878041" lon="12.4131851"><ele>538.0</ele><time>2026-03-22T14:44:57.983Z</time></trkpt><trkpt lat="43.7878687" lon="12.4130992"><ele>538.0</ele><time>2026-03-22T14:44:58.983Z</time></trkpt><trkpt lat="43.7879231" lon="12.413"><ele>535.1999999999999</ele><time>2026-03-22T14:44:59.983Z</time></trkpt><trkpt lat="43.7879689" lon="12.412885"><ele>532.4</ele><time>2026-03-22T14:45:00.983Z</time></trkpt><trkpt lat="43.7880095" lon="12.4127503"><ele>529.5999999999999</ele><time>2026-03-22T14:45:01.982Z</time></trkpt><trkpt lat="43.7880456" lon="12.4126215"><ele>526.8</ele><time>2026-03-22T14:45:02.983Z</time></trkpt><trkpt lat="43.7880789" lon="12.4125059"><ele>524.0</ele><time>2026-03-22T14:45:03.982Z</time></trkpt><trkpt lat="43.7881236" lon="12.4123895"><ele>524.0</ele><time>2026-03-22T14:45:04.983Z</time></trkpt><trkpt lat="43.7881827" lon="12.4122915"><ele>524.0</ele><time>2026-03-22T14:45:05.983Z</time></trkpt><trkpt lat="43.788255" lon="12.4122115"><ele>524.0</ele><time>2026-03-22T14:45:06.982Z</time></trkpt><trkpt lat="43.788345" lon="12.412144"><ele>524.0</ele><time>2026-03-22T14:45:07.983Z</time></trkpt><trkpt lat="43.78845" lon="12.4120918"><ele>524.0</ele><time>2026-03-22T14:45:08.982Z</time></trkpt><trkpt lat="43.7885661" lon="12.4120538"><ele>521.5</ele><time>2026-03-22T14:45:09.982Z</time></trkpt><trkpt lat="43.7886916" lon="12.4120275"><ele>519.0</ele><time>2026-03-22T14:45:10.982Z</time></trkpt><trkpt lat="43.7888222" lon="12.4120309"><ele>516.5</ele><time>2026-03-22T14:45:11.982Z</time></trkpt><trkpt lat="43.7889478" lon="12.4120664"><ele>514.0</ele><time>2026-03-22T14:45:12.982Z</time></trkpt><trkpt lat="43.7890712" lon="12.4120931"><ele>514.0</ele><time>2026-03-22T14:45:13.983Z</time></trkpt><trkpt lat="43.789192" lon="12.412128"><ele>514.0</ele><time>2026-03-22T14:45:14.983Z</time></trkpt><trkpt lat="43.7893137" lon="12.4121637"><ele>514.0</ele><time>2026-03-22T14:45:15.983Z</time></trkpt><trkpt lat="43.7894305" lon="12.4122302"><ele>514.0</ele><time>2026-03-22T14:45:16.982Z</time></trkpt><trkpt lat="43.7895432" lon="12.4123229"><ele>514.0</ele><time>2026-03-22T14:45:17.983Z</time></trkpt><trkpt lat="43.7896601" lon="12.4124296"><ele>514.0</ele><time>2026-03-22T14:45:18.983Z</time></trkpt><trkpt lat="43.7897779" lon="12.4125439"><ele>514.0</ele><time>2026-03-22T14:45:19.982Z</time></trkpt><trkpt lat="43.7898951" lon="12.4126451"><ele>514.0</ele><time>2026-03-22T14:45:20.983Z</time></trkpt><trkpt lat="43.790014" lon="12.4127422"><ele>514.0</ele><time>2026-03-22T14:45:21.983Z</time></trkpt><trkpt lat="43.7901355" lon="12.4128253"><ele>514.0</ele><time>2026-03-22T14:45:22.982Z</time></trkpt><trkpt lat="43.7902617" lon="12.412897"><ele>514.0</ele><time>2026-03-22T14:45:23.983Z</time></trkpt><trkpt lat="43.790393" lon="12.4129604"><ele>514.0</ele><time>2026-03-22T14:45:24.983Z</time></trkpt><trkpt lat="43.7905129" lon="12.4130155"><ele>512.0</ele><time>2026-03-22T14:45:25.983Z</time></trkpt><trkpt lat="43.7906335" lon="12.4130744"><ele>510.0</ele><time>2026-03-22T14:45:26.982Z</time></trkpt><trkpt lat="43.7907498" lon="12.4131409"><ele>508.0</ele><time>2026-03-22T14:45:27.983Z</time></trkpt><trkpt lat="43.7908622" lon="12.4132107"><ele>506.0</ele><time>2026-03-22T14:45:28.982Z</time></trkpt><trkpt lat="43.7909727" lon="12.4132799"><ele>503.8</ele><time>2026-03-22T14:45:29.982Z</time></trkpt><trkpt lat="43.7910792" lon="12.4133537"><ele>501.6</ele><time>2026-03-22T14:45:30.983Z</time></trkpt><trkpt lat="43.7911657" lon="12.4134252"><ele>499.4</ele><time>2026-03-22T14:45:31.982Z</time></trkpt><trkpt lat="43.79124" lon="12.413501"><ele>497.2</ele><time>2026-03-22T14:45:32.983Z</time></trkpt><trkpt lat="43.7912959" lon="12.413596"><ele>495.0</ele><time>2026-03-22T14:45:33.983Z</time></trkpt><trkpt lat="43.791331" lon="12.413703"><ele>495.0</ele><time>2026-03-22T14:45:34.982Z</time></trkpt><trkpt lat="43.7913464" lon="12.4138204"><ele>495.0</ele><time>2026-03-22T14:45:35.983Z</time></trkpt><trkpt lat="43.7913426" lon="12.4139384"><ele>495.0</ele><time>2026-03-22T14:45:36.982Z</time></trkpt><trkpt lat="43.7913139" lon="12.4140544"><ele>495.0</ele><time>2026-03-22T14:45:37.982Z</time></trkpt><trkpt lat="43.7912613" lon="12.4141868"><ele>495.0</ele><time>2026-03-22T14:45:38.983Z</time></trkpt><trkpt lat="43.7911939" lon="12.414326"><ele>493.2</ele><time>2026-03-22T14:45:39.982Z</time></trkpt><trkpt lat="43.791126" lon="12.4144658"><ele>491.4</ele><time>2026-03-22T14:45:40.982Z</time></trkpt><trkpt lat="43.7910693" lon="12.414583"><ele>489.6</ele><time>2026-03-22T14:45:41.982Z</time></trkpt><trkpt lat="43.7910165" lon="12.4146898"><ele>487.8</ele><time>2026-03-22T14:45:42.982Z</time></trkpt><trkpt lat="43.7909765" lon="12.4147833"><ele>486.0</ele><time>2026-03-22T14:45:43.982Z</time></trkpt><trkpt lat="43.7909492" lon="12.414873"><ele>485.71428571428567</ele><time>2026-03-22T14:45:44.982Z</time></trkpt><trkpt lat="43.7909396" lon="12.4149673"><ele>485.42857142857144</ele><time>2026-03-22T14:45:45.983Z</time></trkpt><trkpt lat="43.7909533" lon="12.415061"><ele>485.1428571428571</ele><time>2026-03-22T14:45:46.983Z</time></trkpt><trkpt lat="43.7909819" lon="12.4151469"><ele>484.85714285714283</ele><time>2026-03-22T14:45:47.983Z</time></trkpt><trkpt lat="43.791029" lon="12.4152108"><ele>484.57142857142856</ele><time>2026-03-22T14:45:48.983Z</time></trkpt><trkpt lat="43.7910877" lon="12.4152505"><ele>484.2857142857143</ele><time>2026-03-22T14:45:49.983Z</time></trkpt><trkpt lat="43.7911629" lon="12.4152643"><ele>484.0</ele><time>2026-03-22T14:45:50.983Z</time></trkpt><trkpt lat="43.7912391" lon="12.4152533"><ele>482.85714285714283</ele><time>2026-03-22T14:45:51.983Z</time></trkpt><trkpt lat="43.7913249" lon="12.415221"><ele>481.71428571428567</ele><time>2026-03-22T14:45:52.982Z</time></trkpt><trkpt lat="43.7913892" lon="12.415187"><ele>480.57142857142856</ele><time>2026-03-22T14:45:53.982Z</time></trkpt><trkpt lat="43.7914547" lon="12.4151577"><ele>479.42857142857144</ele><time>2026-03-22T14:45:54.983Z</time></trkpt><trkpt lat="43.791519" lon="12.4151393"><ele>478.2857142857143</ele><time>2026-03-22T14:45:55.983Z</time></trkpt><trkpt lat="43.791587" lon="12.4151587"><ele>477.1428571428571</ele><time>2026-03-22T14:45:56.982Z</time></trkpt><trkpt lat="43.7916444" lon="12.4152205"><ele>476.0</ele><time>2026-03-22T14:45:57.982Z</time></trkpt><trkpt lat="43.7916753" lon="12.4153003"><ele>475.99999999999994</ele><time>2026-03-22T14:45:58.983Z</time></trkpt><trkpt lat="43.7916818" lon="12.4153909"><ele>476.0</ele><time>2026-03-22T14:45:59.983Z</time></trkpt><trkpt lat="43.7916643" lon="12.4155038"><ele>476.0</ele><time>2026-03-22T14:46:00.983Z</time></trkpt><trkpt lat="43.7916356" lon="12.4156328"><ele>476.0</ele><time>2026-03-22T14:46:01.983Z</time></trkpt><trkpt lat="43.7916122" lon="12.4157577"><ele>475.99999999999994</ele><time>2026-03-22T14:46:02.983Z</time></trkpt><trkpt lat="43.7916141" lon="12.4158787"><ele>476.0</ele><time>2026-03-22T14:46:03.983Z</time></trkpt><trkpt lat="43.7916403" lon="12.4159941"><ele>473.4</ele><time>2026-03-22T14:46:04.983Z</time></trkpt><trkpt lat="43.7916868" lon="12.416092"><ele>470.8</ele><time>2026-03-22T14:46:05.983Z</time></trkpt><trkpt lat="43.7917534" lon="12.416167"><ele>468.19999999999993</ele><time>2026-03-22T14:46:06.983Z</time></trkpt><trkpt lat="43.7918456" lon="12.4162301"><ele>465.59999999999997</ele><time>2026-03-22T14:46:07.983Z</time></trkpt><trkpt lat="43.7919455" lon="12.4162858"><ele>463.0</ele><time>2026-03-22T14:46:08.983Z</time></trkpt><trkpt lat="43.792031" lon="12.4163288"><ele>460.0</ele><time>2026-03-22T14:46:09.983Z</time></trkpt><trkpt lat="43.7921008" lon="12.4163781"><ele>456.99999999999994</ele><time>2026-03-22T14:46:10.983Z</time></trkpt><trkpt lat="43.792169" lon="12.4164526"><ele>453.99999999999994</ele><time>2026-03-22T14:46:11.983Z</time></trkpt><trkpt lat="43.7922349" lon="12.4165598"><ele>451.0</ele><time>2026-03-22T14:46:12.982Z</time></trkpt><trkpt lat="43.7922936" lon="12.4166982"><ele>448.0</ele><time>2026-03-22T14:46:13.983Z</time></trkpt><trkpt lat="43.7923537" lon="12.4168698"><ele>448.0</ele><time>2026-03-22T14:46:14.982Z</time></trkpt><trkpt lat="43.7924209" lon="12.4170648"><ele>448.0</ele><time>2026-03-22T14:46:15.982Z</time></trkpt><trkpt lat="43.7924998" lon="12.4172704"><ele>448.0</ele><time>2026-03-22T14:46:16.983Z</time></trkpt><trkpt lat="43.7925882" lon="12.4174623"><ele>445.25</ele><time>2026-03-22T14:46:17.983Z</time></trkpt><trkpt lat="43.7926748" lon="12.4176365"><ele>442.5</ele><time>2026-03-22T14:46:18.982Z</time></trkpt><trkpt lat="43.7927617" lon="12.4178046"><ele>439.75</ele><time>2026-03-22T14:46:19.982Z</time></trkpt><trkpt lat="43.7928476" lon="12.4179646"><ele>437.0</ele><time>2026-03-22T14:46:20.983Z</time></trkpt><trkpt lat="43.7929244" lon="12.4181008"><ele>437.0</ele><time>2026-03-22T14:46:21.983Z</time></trkpt><trkpt lat="43.7929917" lon="12.418232"><ele>437.0</ele><time>2026-03-22T14:46:22.983Z</time></trkpt><trkpt lat="43.7930399" lon="12.4183802"><ele>437.0</ele><time>2026-03-22T14:46:23.982Z</time></trkpt><trkpt lat="43.7930615" lon="12.4185447"><ele>437.0</ele><time>2026-03-22T14:46:24.983Z</time></trkpt><trkpt lat="43.7930749" lon="12.4187244"><ele>438.0</ele><time>2026-03-22T14:46:25.982Z</time></trkpt><trkpt lat="43.7931001" lon="12.4188905"><ele>439.0</ele><time>2026-03-22T14:46:26.983Z</time></trkpt><trkpt lat="43.793146" lon="12.4190312"><ele>440.0</ele><time>2026-03-22T14:46:27.983Z</time></trkpt><trkpt lat="43.7932229" lon="12.4191638"><ele>441.0</ele><time>2026-03-22T14:46:28.983Z</time></trkpt><trkpt lat="43.7933095" lon="12.4192855"><ele>441.0</ele><time>2026-03-22T14:46:29.982Z</time></trkpt><trkpt lat="43.7933818" lon="12.419389"><ele>441.0</ele><time>2026-03-22T14:46:30.983Z</time></trkpt><trkpt lat="43.7934346" lon="12.4194916"><ele>441.0</ele><time>2026-03-22T14:46:31.982Z</time></trkpt><trkpt lat="43.7934609" lon="12.4196034"><ele>441.0</ele><time>2026-03-22T14:46:32.982Z</time></trkpt><trkpt lat="43.7934593" lon="12.4197284"><ele>441.0</ele><time>2026-03-22T14:46:33.982Z</time></trkpt><trkpt lat="43.7934364" lon="12.4198617"><ele>442.0</ele><time>2026-03-22T14:46:34.983Z</time></trkpt><trkpt lat="43.7934044" lon="12.4200064"><ele>443.0</ele><time>2026-03-22T14:46:35.983Z</time></trkpt><trkpt lat="43.7933604" lon="12.4201665"><ele>444.0</ele><time>2026-03-22T14:46:36.982Z</time></trkpt><trkpt lat="43.7933038" lon="12.4203199"><ele>445.0</ele><time>2026-03-22T14:46:37.983Z</time></trkpt><trkpt lat="43.7932458" lon="12.42045"><ele>446.25</ele><time>2026-03-22T14:46:38.982Z</time></trkpt><trkpt lat="43.7931962" lon="12.4205925"><ele>447.5</ele><time>2026-03-22T14:46:39.982Z</time></trkpt><trkpt lat="43.7931802" lon="12.4207457"><ele>448.75</ele><time>2026-03-22T14:46:40.982Z</time></trkpt><trkpt lat="43.7931867" lon="12.4209128"><ele>450.0</ele><time>2026-03-22T14:46:41.983Z</time></trkpt><trkpt lat="43.7932102" lon="12.4210789"><ele>450.0</ele><time>2026-03-22T14:46:42.983Z</time></trkpt><trkpt lat="43.7932456" lon="12.4212418"><ele>450.0</ele><time>2026-03-22T14:46:43.982Z</time></trkpt><trkpt lat="43.7932796" lon="12.4213961"><ele>450.0</ele><time>2026-03-22T14:46:44.983Z</time></trkpt><trkpt lat="43.7933121" lon="12.4215445"><ele>450.0</ele><time>2026-03-22T14:46:45.983Z</time></trkpt><trkpt lat="43.7933636" lon="12.4216902"><ele>449.0</ele><time>2026-03-22T14:46:46.982Z</time></trkpt><trkpt lat="43.7934367" lon="12.4218346"><ele>448.0</ele><time>2026-03-22T14:46:47.983Z</time></trkpt><trkpt lat="43.793517" lon="12.4219712"><ele>447.0</ele><time>2026-03-22T14:46:48.983Z</time></trkpt><trkpt lat="43.7935924" lon="12.4220876"><ele>446.0</ele><time>2026-03-22T14:46:49.983Z</time></trkpt><trkpt lat="43.7936534" lon="12.422187"><ele>444.0</ele><time>2026-03-22T14:46:50.982Z</time></trkpt><trkpt lat="43.7937064" lon="12.4223096"><ele>442.0</ele><time>2026-03-22T14:46:51.983Z</time></trkpt><trkpt lat="43.793733" lon="12.4224443"><ele>440.0</ele><time>2026-03-22T14:46:52.982Z</time></trkpt><trkpt lat="43.7937438" lon="12.422597"><ele>438.0</ele><time>2026-03-22T14:46:53.982Z</time></trkpt><trkpt lat="43.793752" lon="12.4227205"><ele>436.0</ele><time>2026-03-22T14:46:54.983Z</time></trkpt><trkpt lat="43.7937593" lon="12.422846"><ele>436.0</ele><time>2026-03-22T14:46:55.982Z</time></trkpt><trkpt lat="43.7937825" lon="12.4229618"><ele>436.0</ele><time>2026-03-22T14:46:56.983Z</time></trkpt><trkpt lat="43.7938358" lon="12.4230636"><ele>436.0</ele><time>2026-03-22T14:46:57.983Z</time></trkpt><trkpt lat="43.7939223" lon="12.4231561"><ele>436.0</ele><time>2026-03-22T14:46:58.983Z</time></trkpt><trkpt lat="43.7940306" lon="12.4232429"><ele>436.0</ele><time>2026-03-22T14:46:59.983Z</time></trkpt><trkpt lat="43.7941648" lon="12.4233385"><ele>437.0</ele><time>2026-03-22T14:47:00.982Z</time></trkpt><trkpt lat="43.7942949" lon="12.4234327"><ele>438.0</ele><time>2026-03-22T14:47:01.983Z</time></trkpt><trkpt lat="43.7944173" lon="12.4235174"><ele>439.0</ele><time>2026-03-22T14:47:02.983Z</time></trkpt><trkpt lat="43.7945358" lon="12.4235939"><ele>440.0</ele><time>2026-03-22T14:47:03.983Z</time></trkpt><trkpt lat="43.7946452" lon="12.4236784"><ele>438.4</ele><time>2026-03-22T14:47:04.983Z</time></trkpt><trkpt lat="43.7947514" lon="12.4237822"><ele>436.8</ele><time>2026-03-22T14:47:05.983Z</time></trkpt><trkpt lat="43.7948417" lon="12.4238887"><ele>435.20000000000005</ele><time>2026-03-22T14:47:06.983Z</time></trkpt><trkpt lat="43.7949199" lon="12.4239764"><ele>433.6</ele><time>2026-03-22T14:47:07.982Z</time></trkpt><trkpt lat="43.794992" lon="12.424047"><ele>432.0</ele><time>2026-03-22T14:47:08.983Z</time></trkpt><trkpt lat="43.7950647" lon="12.4241042"><ele>432.0</ele><time>2026-03-22T14:47:09.983Z</time></trkpt><trkpt lat="43.7951379" lon="12.4241375"><ele>432.0</ele><time>2026-03-22T14:47:10.983Z</time></trkpt><trkpt lat="43.7952144" lon="12.4241337"><ele>432.0</ele><time>2026-03-22T14:47:11.983Z</time></trkpt><trkpt lat="43.7952848" lon="12.4241118"><ele>432.0</ele><time>2026-03-22T14:47:12.982Z</time></trkpt><trkpt lat="43.7953557" lon="12.4240491"><ele>432.0</ele><time>2026-03-22T14:47:13.983Z</time></trkpt><trkpt lat="43.7954121" lon="12.4239704"><ele>432.0</ele><time>2026-03-22T14:47:14.983Z</time></trkpt><trkpt lat="43.7954544" lon="12.4238696"><ele>428.40000000000003</ele><time>2026-03-22T14:47:15.982Z</time></trkpt><trkpt lat="43.795475" lon="12.4237553"><ele>424.80000000000007</ele><time>2026-03-22T14:47:16.982Z</time></trkpt><trkpt lat="43.7954688" lon="12.4236154"><ele>421.2</ele><time>2026-03-22T14:47:17.983Z</time></trkpt><trkpt lat="43.7954438" lon="12.4234506"><ele>417.6</ele><time>2026-03-22T14:47:18.982Z</time></trkpt><trkpt lat="43.795404" lon="12.423282"><ele>414.0</ele><time>2026-03-22T14:47:19.983Z</time></trkpt><trkpt lat="43.7953591" lon="12.4231407"><ele>414.0</ele><time>2026-03-22T14:47:20.982Z</time></trkpt><trkpt lat="43.7953182" lon="12.4230128"><ele>414.0</ele><time>2026-03-22T14:47:21.982Z</time></trkpt><trkpt lat="43.795291" lon="12.4228829"><ele>414.0</ele><time>2026-03-22T14:47:22.982Z</time></trkpt><trkpt lat="43.7952858" lon="12.4227587"><ele>414.0</ele><time>2026-03-22T14:47:23.983Z</time></trkpt><trkpt lat="43.7953063" lon="12.4226244"><ele>414.0</ele><time>2026-03-22T14:47:24.982Z</time></trkpt><trkpt lat="43.7953504" lon="12.4224672"><ele>412.5</ele><time>2026-03-22T14:47:25.983Z</time></trkpt><trkpt lat="43.7954024" lon="12.4222998"><ele>411.0</ele><time>2026-03-22T14:47:26.983Z</time></trkpt><trkpt lat="43.795461" lon="12.4221213"><ele>409.5</ele><time>2026-03-22T14:47:27.983Z</time></trkpt><trkpt lat="43.7955171" lon="12.4219449"><ele>408.0</ele><time>2026-03-22T14:47:28.982Z</time></trkpt><trkpt lat="43.7955713" lon="12.4217829"><ele>407.2</ele><time>2026-03-22T14:47:29.983Z</time></trkpt><trkpt lat="43.7956228" lon="12.4216315"><ele>406.4</ele><time>2026-03-22T14:47:30.983Z</time></trkpt><trkpt lat="43.7956708" lon="12.4214903"><ele>405.59999999999997</ele><time>2026-03-22T14:47:31.982Z</time></trkpt><trkpt lat="43.7957257" lon="12.4213699"><ele>404.79999999999995</ele><time>2026-03-22T14:47:32.983Z</time></trkpt><trkpt lat="43.7957857" lon="12.4212671"><ele>404.0</ele><time>2026-03-22T14:47:33.983Z</time></trkpt><trkpt lat="43.7958512" lon="12.4211741"><ele>403.16666666666663</ele><time>2026-03-22T14:47:34.983Z</time></trkpt><trkpt lat="43.7959275" lon="12.4211099"><ele>402.3333333333333</ele><time>2026-03-22T14:47:35.982Z</time></trkpt><trkpt lat="43.7960042" lon="12.4210828"><ele>401.5</ele><time>2026-03-22T14:47:36.983Z</time></trkpt><trkpt lat="43.7960812" lon="12.4210857"><ele>400.66666666666663</ele><time>2026-03-22T14:47:37.983Z</time></trkpt><trkpt lat="43.7961516" lon="12.4211227"><ele>399.8333333333333</ele><time>2026-03-22T14:47:38.983Z</time></trkpt><trkpt lat="43.7962091" lon="12.4211951"><ele>399.0</ele><time>2026-03-22T14:47:39.983Z</time></trkpt><trkpt lat="43.7962499" lon="12.4212937"><ele>397.1666666666667</ele><time>2026-03-22T14:47:40.982Z</time></trkpt><trkpt lat="43.7962633" lon="12.4213991"><ele>395.33333333333337</ele><time>2026-03-22T14:47:41.982Z</time></trkpt><trkpt lat="43.7962612" lon="12.4215253"><ele>393.5</ele><time>2026-03-22T14:47:42.983Z</time></trkpt><trkpt lat="43.796255" lon="12.421648"><ele>391.6666666666667</ele><time>2026-03-22T14:47:43.982Z</time></trkpt><trkpt lat="43.796261" lon="12.4217546"><ele>389.83333333333337</ele><time>2026-03-22T14:47:44.983Z</time></trkpt><trkpt lat="43.7962999" lon="12.4218525"><ele>388.0</ele><time>2026-03-22T14:47:45.982Z</time></trkpt><trkpt lat="43.7963625" lon="12.4219366"><ele>388.00000000000006</ele><time>2026-03-22T14:47:46.983Z</time></trkpt><trkpt lat="43.7964506" lon="12.4220146"><ele>388.0</ele><time>2026-03-22T14:47:47.983Z</time></trkpt><trkpt lat="43.7965303" lon="12.4220771"><ele>388.0</ele><time>2026-03-22T14:47:48.982Z</time></trkpt><trkpt lat="43.7966077" lon="12.4221219"><ele>388.0</ele><time>2026-03-22T14:47:49.982Z</time></trkpt><trkpt lat="43.7966791" lon="12.4221361"><ele>388.00000000000006</ele><time>2026-03-22T14:47:50.983Z</time></trkpt><trkpt lat="43.7967468" lon="12.4221266"><ele>388.0</ele><time>2026-03-22T14:47:51.982Z</time></trkpt><trkpt lat="43.7968076" lon="12.4220887"><ele>385.50000000000006</ele><time>2026-03-22T14:47:52.982Z</time></trkpt><trkpt lat="43.7968547" lon="12.4220249"><ele>383.0</ele><time>2026-03-22T14:47:53.982Z</time></trkpt><trkpt lat="43.7968826" lon="12.4219306"><ele>380.5</ele><time>2026-03-22T14:47:54.983Z</time></trkpt><trkpt lat="43.7968928" lon="12.4218148"><ele>378.0</ele><time>2026-03-22T14:47:55.982Z</time></trkpt><trkpt lat="43.7968958" lon="12.4216975"><ele>375.5</ele><time>2026-03-22T14:47:56.983Z</time></trkpt><trkpt lat="43.7969061" lon="12.4215872"><ele>373.0</ele><time>2026-03-22T14:47:57.983Z</time></trkpt><trkpt lat="43.7969344" lon="12.4214844"><ele>373.0</ele><time>2026-03-22T14:47:58.983Z</time></trkpt><trkpt lat="43.7969843" lon="12.4213884"><ele>373.0</ele><time>2026-03-22T14:47:59.983Z</time></trkpt><trkpt lat="43.7970612" lon="12.4212969"><ele>373.0</ele><time>2026-03-22T14:48:00.982Z</time></trkpt><trkpt lat="43.7971549" lon="12.4212047"><ele>373.0</ele><time>2026-03-22T14:48:01.983Z</time></trkpt><trkpt lat="43.7972662" lon="12.4211082"><ele>373.0</ele><time>2026-03-22T14:48:02.982Z</time></trkpt><trkpt lat="43.7973767" lon="12.4210192"><ele>373.0</ele><time>2026-03-22T14:48:03.983Z</time></trkpt><trkpt lat="43.797475" lon="12.4209458"><ele>373.0</ele><time>2026-03-22T14:48:04.983Z</time></trkpt><trkpt lat="43.7975668" lon="12.4208839"><ele>373.0</ele><time>2026-03-22T14:48:05.983Z</time></trkpt><trkpt lat="43.7976642" lon="12.420834"><ele>373.0</ele><time>2026-03-22T14:48:06.982Z</time></trkpt><trkpt lat="43.7977758" lon="12.4208074"><ele>373.0</ele><time>2026-03-22T14:48:07.982Z</time></trkpt><trkpt lat="43.7978985" lon="12.4208071"><ele>370.5</ele><time>2026-03-22T14:48:08.983Z</time></trkpt><trkpt lat="43.7980277" lon="12.4208169"><ele>368.0</ele><time>2026-03-22T14:48:09.982Z</time></trkpt><trkpt lat="43.7981696" lon="12.4208314"><ele>365.5</ele><time>2026-03-22T14:48:10.983Z</time></trkpt><trkpt lat="43.7983136" lon="12.4208271"><ele>363.0</ele><time>2026-03-22T14:48:11.983Z</time></trkpt><trkpt lat="43.7984391" lon="12.420819"><ele>361.4</ele><time>2026-03-22T14:48:12.983Z</time></trkpt><trkpt lat="43.7985577" lon="12.4208153"><ele>359.79999999999995</ele><time>2026-03-22T14:48:13.983Z</time></trkpt><trkpt lat="43.7986643" lon="12.4208064"><ele>358.2</ele><time>2026-03-22T14:48:14.982Z</time></trkpt><trkpt lat="43.7987621" lon="12.4208052"><ele>356.6</ele><time>2026-03-22T14:48:15.983Z</time></trkpt><trkpt lat="43.7988484" lon="12.4208294"><ele>355.0</ele><time>2026-03-22T14:48:16.982Z</time></trkpt><trkpt lat="43.7989265" lon="12.4208806"><ele>355.0</ele><time>2026-03-22T14:48:17.983Z</time></trkpt><trkpt lat="43.7989888" lon="12.4209715"><ele>355.0</ele><time>2026-03-22T14:48:18.983Z</time></trkpt><trkpt lat="43.7990361" lon="12.4211012"><ele>355.0</ele><time>2026-03-22T14:48:19.982Z</time></trkpt><trkpt lat="43.7990681" lon="12.4212561"><ele>355.0</ele><time>2026-03-22T14:48:20.982Z</time></trkpt><trkpt lat="43.7990962" lon="12.4214085"><ele>355.0</ele><time>2026-03-22T14:48:21.983Z</time></trkpt><trkpt lat="43.7991371" lon="12.4215598"><ele>355.5</ele><time>2026-03-22T14:48:22.982Z</time></trkpt><trkpt lat="43.7991979" lon="12.4217029"><ele>356.0</ele><time>2026-03-22T14:48:23.983Z</time></trkpt><trkpt lat="43.7992784" lon="12.421838"><ele>356.5</ele><time>2026-03-22T14:48:24.982Z</time></trkpt><trkpt lat="43.7993568" lon="12.4219495"><ele>357.0</ele><time>2026-03-22T14:48:25.983Z</time></trkpt><trkpt lat="43.7994189" lon="12.422067"><ele>354.0</ele><time>2026-03-22T14:48:26.983Z</time></trkpt><trkpt lat="43.799462" lon="12.4222021"><ele>351.0</ele><time>2026-03-22T14:48:27.983Z</time></trkpt><trkpt lat="43.7994769" lon="12.4223583"><ele>348.0</ele><time>2026-03-22T14:48:28.982Z</time></trkpt><trkpt lat="43.7994841" lon="12.4225361"><ele>345.0</ele><time>2026-03-22T14:48:29.983Z</time></trkpt><trkpt lat="43.7994945" lon="12.4227245"><ele>345.0</ele><time>2026-03-22T14:48:30.983Z</time></trkpt><trkpt lat="43.799525" lon="12.4229218"><ele>345.0</ele><time>2026-03-22T14:48:31.983Z</time></trkpt><trkpt lat="43.7995861" lon="12.4231487"><ele>345.0</ele><time>2026-03-22T14:48:32.982Z</time></trkpt><trkpt lat="43.7996729" lon="12.4234087"><ele>344.3333333333333</ele><time>2026-03-22T14:48:33.983Z</time></trkpt><trkpt lat="43.7997604" lon="12.4236611"><ele>343.66666666666663</ele><time>2026-03-22T14:48:34.983Z</time></trkpt><trkpt lat="43.7998361" lon="12.4238918"><ele>343.0</ele><time>2026-03-22T14:48:35.983Z</time></trkpt><trkpt lat="43.7998934" lon="12.4241107"><ele>343.0</ele><time>2026-03-22T14:48:36.983Z</time></trkpt><trkpt lat="43.7999254" lon="12.4243212"><ele>343.0</ele><time>2026-03-22T14:48:37.983Z</time></trkpt><trkpt lat="43.7999224" lon="12.4245224"><ele>343.0</ele><time>2026-03-22T14:48:38.982Z</time></trkpt><trkpt lat="43.7998895" lon="12.4247426"><ele>342.66666666666663</ele><time>2026-03-22T14:48:39.983Z</time></trkpt><trkpt lat="43.7998236" lon="12.424984"><ele>342.3333333333333</ele><time>2026-03-22T14:48:40.983Z</time></trkpt><trkpt lat="43.7997468" lon="12.4251966"><ele>342.0</ele><time>2026-03-22T14:48:41.983Z</time></trkpt><trkpt lat="43.7996852" lon="12.4254114"><ele>341.0</ele><time>2026-03-22T14:48:42.982Z</time></trkpt><trkpt lat="43.7996293" lon="12.4256276"><ele>340.0</ele><time>2026-03-22T14:48:43.983Z</time></trkpt><trkpt lat="43.7996456" lon="12.4258867"><ele>339.0</ele><time>2026-03-22T14:48:44.983Z</time></trkpt><trkpt lat="43.7996521" lon="12.4261743"><ele>338.6666666666667</ele><time>2026-03-22T14:48:45.982Z</time></trkpt><trkpt lat="43.7996629" lon="12.426451"><ele>338.33333333333337</ele><time>2026-03-22T14:48:46.983Z</time></trkpt><trkpt lat="43.7996742" lon="12.4267119"><ele>338.0</ele><time>2026-03-22T14:48:47.982Z</time></trkpt><trkpt lat="43.7996859" lon="12.4269621"><ele>337.0</ele><time>2026-03-22T14:48:48.983Z</time></trkpt><trkpt lat="43.799694" lon="12.4272226"><ele>336.0</ele><time>2026-03-22T14:48:49.982Z</time></trkpt><trkpt lat="43.7997056" lon="12.4274854"><ele>335.0</ele><time>2026-03-22T14:48:50.982Z</time></trkpt><trkpt lat="43.7997172" lon="12.4277385"><ele>335.0</ele><time>2026-03-22T14:48:51.982Z</time></trkpt><trkpt lat="43.7997242" lon="12.4279628"><ele>335.0</ele><time>2026-03-22T14:48:52.982Z</time></trkpt><trkpt lat="43.799739" lon="12.4281819"><ele>335.0</ele><time>2026-03-22T14:48:53.983Z</time></trkpt><trkpt lat="43.7997494" lon="12.4283632"><ele>334.0</ele><time>2026-03-22T14:48:54.983Z</time></trkpt><trkpt lat="43.799775" lon="12.4285176"><ele>333.0</ele><time>2026-03-22T14:48:55.982Z</time></trkpt><trkpt lat="43.799811" lon="12.4286482"><ele>332.0</ele><time>2026-03-22T14:48:56.983Z</time></trkpt><trkpt lat="43.7998745" lon="12.4287363"><ele>331.0</ele><time>2026-03-22T14:48:57.982Z</time></trkpt><trkpt lat="43.7999504" lon="12.4287944"><ele>330.0</ele><time>2026-03-22T14:48:58.983Z</time></trkpt><trkpt lat="43.8000207" lon="12.428837"><ele>328.5</ele><time>2026-03-22T14:48:59.982Z</time></trkpt><trkpt lat="43.8001784" lon="12.4288108"><ele>327.0</ele><time>2026-03-22T14:49:00.982Z</time></trkpt><trkpt lat="43.8003022" lon="12.4288125"><ele>325.5</ele><time>2026-03-22T14:49:01.983Z</time></trkpt><trkpt lat="43.8004119" lon="12.428811"><ele>324.0</ele><time>2026-03-22T14:49:02.983Z</time></trkpt><trkpt lat="43.8005226" lon="12.4288092"><ele>324.0</ele><time>2026-03-22T14:49:03.983Z</time></trkpt><trkpt lat="43.8006397" lon="12.4288052"><ele>324.0</ele><time>2026-03-22T14:49:04.982Z</time></trkpt><trkpt lat="43.800747" lon="12.428814"><ele>324.0</ele><time>2026-03-22T14:49:05.982Z</time></trkpt><trkpt lat="43.8008573" lon="12.4288269"><ele>324.0</ele><time>2026-03-22T14:49:06.983Z</time></trkpt><trkpt lat="43.8009751" lon="12.4288454"><ele>324.25</ele><time>2026-03-22T14:49:07.983Z</time></trkpt><trkpt lat="43.8011037" lon="12.4288675"><ele>324.5</ele><time>2026-03-22T14:49:08.982Z</time></trkpt><trkpt lat="43.8012379" lon="12.4288922"><ele>324.75</ele><time>2026-03-22T14:49:09.982Z</time></trkpt><trkpt lat="43.8013584" lon="12.4289203"><ele>325.0</ele><time>2026-03-22T14:49:10.983Z</time></trkpt><trkpt lat="43.8014517" lon="12.4289673"><ele>325.0</ele><time>2026-03-22T14:49:11.983Z</time></trkpt><trkpt lat="43.8015283" lon="12.4290457"><ele>325.0</ele><time>2026-03-22T14:49:12.983Z</time></trkpt><trkpt lat="43.8015891" lon="12.4291605"><ele>325.0</ele><time>2026-03-22T14:49:13.983Z</time></trkpt><trkpt lat="43.8016245" lon="12.4293007"><ele>325.0</ele><time>2026-03-22T14:49:14.982Z</time></trkpt><trkpt lat="43.8016483" lon="12.4294686"><ele>325.0</ele><time>2026-03-22T14:49:15.982Z</time></trkpt><trkpt lat="43.8016854" lon="12.4296373"><ele>325.0</ele><time>2026-03-22T14:49:16.983Z</time></trkpt><trkpt lat="43.8017427" lon="12.4298032"><ele>325.0</ele><time>2026-03-22T14:49:17.983Z</time></trkpt><trkpt lat="43.8018218" lon="12.4299567"><ele>325.0</ele><time>2026-03-22T14:49:18.983Z</time></trkpt><trkpt lat="43.8019098" lon="12.4300719"><ele>325.0</ele><time>2026-03-22T14:49:19.983Z</time></trkpt><trkpt lat="43.8019889" lon="12.430164"><ele>325.8333333333333</ele><time>2026-03-22T14:49:20.983Z</time></trkpt><trkpt lat="43.8020551" lon="12.4302463"><ele>326.66666666666663</ele><time>2026-03-22T14:49:21.983Z</time></trkpt><trkpt lat="43.8021117" lon="12.4303121"><ele>327.5</ele><time>2026-03-22T14:49:22.983Z</time></trkpt><trkpt lat="43.802158" lon="12.4303779"><ele>328.3333333333333</ele><time>2026-03-22T14:49:23.983Z</time></trkpt><trkpt lat="43.8022422" lon="12.4305115"><ele>329.1666666666667</ele><time>2026-03-22T14:49:25.982Z</time></trkpt><trkpt lat="43.8022882" lon="12.430602"><ele>330.0</ele><time>2026-03-22T14:49:26.983Z</time></trkpt><trkpt lat="43.802342" lon="12.4307368"><ele>330.0</ele><time>2026-03-22T14:49:27.982Z</time></trkpt><trkpt lat="43.802409" lon="12.4309143"><ele>330.0</ele><time>2026-03-22T14:49:28.982Z</time></trkpt><trkpt lat="43.8024803" lon="12.4311115"><ele>330.0</ele><time>2026-03-22T14:49:29.983Z</time></trkpt><trkpt lat="43.8025663" lon="12.4313307"><ele>331.0</ele><time>2026-03-22T14:49:30.982Z</time></trkpt><trkpt lat="43.8026527" lon="12.4315534"><ele>332.0</ele><time>2026-03-22T14:49:31.983Z</time></trkpt><trkpt lat="43.8027301" lon="12.4317679"><ele>333.0</ele><time>2026-03-22T14:49:32.983Z</time></trkpt><trkpt lat="43.8028039" lon="12.4319858"><ele>335.0</ele><time>2026-03-22T14:49:33.983Z</time></trkpt><trkpt lat="43.8028755" lon="12.4322079"><ele>337.0</ele><time>2026-03-22T14:49:34.983Z</time></trkpt><trkpt lat="43.802941" lon="12.4324382"><ele>339.0</ele><time>2026-03-22T14:49:35.983Z</time></trkpt><trkpt lat="43.8030055" lon="12.4326717"><ele>339.0</ele><time>2026-03-22T14:49:36.983Z</time></trkpt><trkpt lat="43.8030709" lon="12.43291"><ele>339.0</ele><time>2026-03-22T14:49:37.982Z</time></trkpt><trkpt lat="43.8031375" lon="12.4331446"><ele>339.0</ele><time>2026-03-22T14:49:38.983Z</time></trkpt><trkpt lat="43.8031956" lon="12.4333565"><ele>338.6666666666667</ele><time>2026-03-22T14:49:39.983Z</time></trkpt><trkpt lat="43.8032396" lon="12.4335574"><ele>338.33333333333337</ele><time>2026-03-22T14:49:40.982Z</time></trkpt><trkpt lat="43.8032572" lon="12.4337755"><ele>338.0</ele><time>2026-03-22T14:49:41.983Z</time></trkpt><trkpt lat="43.8032472" lon="12.4340204"><ele>337.0</ele><time>2026-03-22T14:49:42.983Z</time></trkpt><trkpt lat="43.8032193" lon="12.4343021"><ele>336.0</ele><time>2026-03-22T14:49:43.982Z</time></trkpt><trkpt lat="43.8031949" lon="12.4345852"><ele>335.0</ele><time>2026-03-22T14:49:44.983Z</time></trkpt><trkpt lat="43.8031555" lon="12.434842"><ele>334.6666666666667</ele><time>2026-03-22T14:49:45.983Z</time></trkpt><trkpt lat="43.8031142" lon="12.4350781"><ele>334.3333333333333</ele><time>2026-03-22T14:49:46.982Z</time></trkpt><trkpt lat="43.8030655" lon="12.435298"><ele>334.0</ele><time>2026-03-22T14:49:47.982Z</time></trkpt><trkpt lat="43.8030144" lon="12.4355154"><ele>334.0</ele><time>2026-03-22T14:49:48.982Z</time></trkpt><trkpt lat="43.8029574" lon="12.4357329"><ele>334.0</ele><time>2026-03-22T14:49:49.982Z</time></trkpt><trkpt lat="43.8029151" lon="12.4359469"><ele>334.0</ele><time>2026-03-22T14:49:50.983Z</time></trkpt><trkpt lat="43.8028998" lon="12.4361489"><ele>334.0</ele><time>2026-03-22T14:49:51.982Z</time></trkpt><trkpt lat="43.8029024" lon="12.4363468"><ele>334.0</ele><time>2026-03-22T14:49:52.983Z</time></trkpt><trkpt lat="43.8029115" lon="12.4365249"><ele>334.0</ele><time>2026-03-22T14:49:53.983Z</time></trkpt><trkpt lat="43.8029288" lon="12.4366995"><ele>334.0</ele><time>2026-03-22T14:49:54.983Z</time></trkpt><trkpt lat="43.8029492" lon="12.436874"><ele>334.0</ele><time>2026-03-22T14:49:55.983Z</time></trkpt><trkpt lat="43.8029685" lon="12.4370459"><ele>334.0</ele><time>2026-03-22T14:49:56.982Z</time></trkpt><trkpt lat="43.8029849" lon="12.4372089"><ele>334.0</ele><time>2026-03-22T14:49:57.983Z</time></trkpt><trkpt lat="43.8029988" lon="12.4373607"><ele>334.0</ele><time>2026-03-22T14:49:58.983Z</time></trkpt><trkpt lat="43.8030127" lon="12.4375021"><ele>333.0</ele><time>2026-03-22T14:49:59.982Z</time></trkpt><trkpt lat="43.8030242" lon="12.4376428"><ele>332.0</ele><time>2026-03-22T14:50:00.983Z</time></trkpt><trkpt lat="43.8030355" lon="12.4377812"><ele>331.0</ele><time>2026-03-22T14:50:01.983Z</time></trkpt><trkpt lat="43.8030492" lon="12.4379166"><ele>330.0</ele><time>2026-03-22T14:50:02.983Z</time></trkpt><trkpt lat="43.8030609" lon="12.4380451"><ele>329.0</ele><time>2026-03-22T14:50:03.983Z</time></trkpt><trkpt lat="43.8030711" lon="12.4381699"><ele>328.1666666666667</ele><time>2026-03-22T14:50:04.982Z</time></trkpt><trkpt lat="43.8030828" lon="12.4382852"><ele>327.33333333333337</ele><time>2026-03-22T14:50:05.983Z</time></trkpt><trkpt lat="43.8030955" lon="12.4383932"><ele>326.5</ele><time>2026-03-22T14:50:06.983Z</time></trkpt><trkpt lat="43.803108" lon="12.4385069"><ele>325.6666666666667</ele><time>2026-03-22T14:50:07.983Z</time></trkpt><trkpt lat="43.8031189" lon="12.4386177"><ele>324.8333333333333</ele><time>2026-03-22T14:50:08.983Z</time></trkpt><trkpt lat="43.8031315" lon="12.4387276"><ele>324.0</ele><time>2026-03-22T14:50:09.982Z</time></trkpt><trkpt lat="43.8031447" lon="12.4388377"><ele>323.8333333333333</ele><time>2026-03-22T14:50:10.982Z</time></trkpt><trkpt lat="43.803155" lon="12.43895"><ele>323.6666666666667</ele><time>2026-03-22T14:50:11.982Z</time></trkpt><trkpt lat="43.803163" lon="12.4390603"><ele>323.5</ele><time>2026-03-22T14:50:12.982Z</time></trkpt><trkpt lat="43.8031709" lon="12.4391671"><ele>323.33333333333337</ele><time>2026-03-22T14:50:13.983Z</time></trkpt><trkpt lat="43.8031838" lon="12.4392694"><ele>323.1666666666667</ele><time>2026-03-22T14:50:14.982Z</time></trkpt><trkpt lat="43.8031992" lon="12.4393675"><ele>323.0</ele><time>2026-03-22T14:50:15.983Z</time></trkpt><trkpt lat="43.8032102" lon="12.4394654"><ele>323.0</ele><time>2026-03-22T14:50:16.982Z</time></trkpt><trkpt lat="43.803223" lon="12.4395704"><ele>323.0</ele><time>2026-03-22T14:50:17.983Z</time></trkpt><trkpt lat="43.8032329" lon="12.4396578"><ele>323.0</ele><time>2026-03-22T14:50:18.982Z</time></trkpt><trkpt lat="43.8032494" lon="12.4398121"><ele>323.0</ele><time>2026-03-22T14:50:20.982Z</time></trkpt><trkpt lat="43.8032651" lon="12.4399319"><ele>323.0</ele><time>2026-03-22T14:50:22.982Z</time></trkpt><trkpt lat="43.8032743" lon="12.4400348"><ele>323.0</ele><time>2026-03-22T14:50:24.983Z</time></trkpt><trkpt lat="43.8032803" lon="12.4401424"><ele>322.8571428571429</ele><time>2026-03-22T14:50:26.983Z</time></trkpt><trkpt lat="43.8032883" lon="12.4402525"><ele>322.7142857142857</ele><time>2026-03-22T14:50:28.983Z</time></trkpt><trkpt lat="43.8032996" lon="12.4403647"><ele>322.57142857142856</ele><time>2026-03-22T14:50:30.982Z</time></trkpt><trkpt lat="43.8032887" lon="12.4404692"><ele>322.42857142857144</ele><time>2026-03-22T14:50:32.983Z</time></trkpt><trkpt lat="43.8032573" lon="12.4405527"><ele>322.2857142857143</ele><time>2026-03-22T14:50:34.983Z</time></trkpt><trkpt lat="43.8032264" lon="12.4406436"><ele>322.14285714285717</ele><time>2026-03-22T14:50:36.983Z</time></trkpt><trkpt lat="43.8032409" lon="12.4407368"><ele>322.0</ele><time>2026-03-22T14:50:38.982Z</time></trkpt><trkpt lat="43.803286" lon="12.4408305"><ele>322.0</ele><time>2026-03-22T14:50:40.982Z</time></trkpt><trkpt lat="43.8033468" lon="12.440934"><ele>322.0</ele><time>2026-03-22T14:50:42.983Z</time></trkpt><trkpt lat="43.803406" lon="12.4410506"><ele>322.0</ele><time>2026-03-22T14:50:44.983Z</time></trkpt><trkpt lat="43.8034703" lon="12.4411498"><ele>322.0</ele><time>2026-03-22T14:50:46.983Z</time></trkpt><trkpt lat="43.8035397" lon="12.4412483"><ele>322.0</ele><time>2026-03-22T14:50:48.983Z</time></trkpt><trkpt lat="43.8036192" lon="12.441357"><ele>323.16666666666663</ele><time>2026-03-22T14:50:50.983Z</time></trkpt><trkpt lat="43.8037104" lon="12.4414711"><ele>324.3333333333333</ele><time>2026-03-22T14:50:52.983Z</time></trkpt><trkpt lat="43.8037636" lon="12.4415326"><ele>325.5</ele><time>2026-03-22T14:50:53.983Z</time></trkpt><trkpt lat="43.8038173" lon="12.441596"><ele>326.6666666666667</ele><time>2026-03-22T14:50:54.983Z</time></trkpt><trkpt lat="43.803873" lon="12.441668"><ele>327.83333333333337</ele><time>2026-03-22T14:50:55.982Z</time></trkpt><trkpt lat="43.8039387" lon="12.4417434"><ele>329.0</ele><time>2026-03-22T14:50:56.983Z</time></trkpt><trkpt lat="43.8040081" lon="12.4418341"><ele>329.0</ele><time>2026-03-22T14:50:57.983Z</time></trkpt><trkpt lat="43.8040825" lon="12.4419295"><ele>329.0</ele><time>2026-03-22T14:50:58.983Z</time></trkpt><trkpt lat="43.8041613" lon="12.4420214"><ele>329.0</ele><time>2026-03-22T14:50:59.982Z</time></trkpt><trkpt lat="43.8042409" lon="12.4421183"><ele>329.0</ele><time>2026-03-22T14:51:00.983Z</time></trkpt><trkpt lat="43.804316" lon="12.4422144"><ele>329.0</ele><time>2026-03-22T14:51:01.982Z</time></trkpt><trkpt lat="43.8043864" lon="12.4423094"><ele>328.0</ele><time>2026-03-22T14:51:02.982Z</time></trkpt><trkpt lat="43.8044597" lon="12.4424036"><ele>327.0</ele><time>2026-03-22T14:51:03.983Z</time></trkpt><trkpt lat="43.8045291" lon="12.4425057"><ele>326.0</ele><time>2026-03-22T14:51:04.983Z</time></trkpt><trkpt lat="43.804603" lon="12.4426102"><ele>325.0</ele><time>2026-03-22T14:51:05.983Z</time></trkpt><trkpt lat="43.8046802" lon="12.442718"><ele>324.0</ele><time>2026-03-22T14:51:06.983Z</time></trkpt><trkpt lat="43.8047628" lon="12.4428265"><ele>324.0</ele><time>2026-03-22T14:51:07.982Z</time></trkpt><trkpt lat="43.8048486" lon="12.4429416"><ele>324.0</ele><time>2026-03-22T14:51:08.983Z</time></trkpt><trkpt lat="43.8049387" lon="12.4430614"><ele>324.0</ele><time>2026-03-22T14:51:09.983Z</time></trkpt><trkpt lat="43.8050255" lon="12.4431708"><ele>324.0</ele><time>2026-03-22T14:51:10.983Z</time></trkpt><trkpt lat="43.8051061" lon="12.4432664"><ele>324.0</ele><time>2026-03-22T14:51:11.983Z</time></trkpt><trkpt lat="43.8051805" lon="12.443361"><ele>324.0</ele><time>2026-03-22T14:51:12.982Z</time></trkpt><trkpt lat="43.8052552" lon="12.4434319"><ele>324.0</ele><time>2026-03-22T14:51:13.982Z</time></trkpt><trkpt lat="43.8053319" lon="12.4434702"><ele>324.0</ele><time>2026-03-22T14:51:14.982Z</time></trkpt><trkpt lat="43.8054081" lon="12.443471"><ele>324.0</ele><time>2026-03-22T14:51:15.982Z</time></trkpt><trkpt lat="43.8054939" lon="12.4434385"><ele>324.0</ele><time>2026-03-22T14:51:16.983Z</time></trkpt><trkpt lat="43.8055881" lon="12.4433727"><ele>324.0</ele><time>2026-03-22T14:51:17.983Z</time></trkpt><trkpt lat="43.8056934" lon="12.4432876"><ele>324.0</ele><time>2026-03-22T14:51:18.982Z</time></trkpt><trkpt lat="43.8057898" lon="12.4431984"><ele>324.0</ele><time>2026-03-22T14:51:19.983Z</time></trkpt><trkpt lat="43.8058944" lon="12.4431305"><ele>324.0</ele><time>2026-03-22T14:51:20.982Z</time></trkpt><trkpt lat="43.8060068" lon="12.4430758"><ele>323.75</ele><time>2026-03-22T14:51:21.983Z</time></trkpt><trkpt lat="43.8061232" lon="12.4430334"><ele>323.5</ele><time>2026-03-22T14:51:22.983Z</time></trkpt><trkpt lat="43.8062566" lon="12.4430076"><ele>323.25</ele><time>2026-03-22T14:51:23.982Z</time></trkpt><trkpt lat="43.8063937" lon="12.4429761"><ele>323.0</ele><time>2026-03-22T14:51:24.983Z</time></trkpt><trkpt lat="43.8065418" lon="12.4429489"><ele>323.0</ele><time>2026-03-22T14:51:25.982Z</time></trkpt><trkpt lat="43.8066903" lon="12.4429127"><ele>323.0</ele><time>2026-03-22T14:51:26.982Z</time></trkpt><trkpt lat="43.806853" lon="12.442889"><ele>323.0</ele><time>2026-03-22T14:51:27.982Z</time></trkpt><trkpt lat="43.8070194" lon="12.4428639"><ele>323.33333333333337</ele><time>2026-03-22T14:51:28.982Z</time></trkpt><trkpt lat="43.8071867" lon="12.4428448"><ele>323.6666666666667</ele><time>2026-03-22T14:51:29.983Z</time></trkpt><trkpt lat="43.8073309" lon="12.442828"><ele>324.0</ele><time>2026-03-22T14:51:30.983Z</time></trkpt><trkpt lat="43.8074782" lon="12.4428162"><ele>324.0</ele><time>2026-03-22T14:51:31.983Z</time></trkpt><trkpt lat="43.8076377" lon="12.4428236"><ele>324.0</ele><time>2026-03-22T14:51:32.983Z</time></trkpt><trkpt lat="43.8078003" lon="12.4428356"><ele>324.0</ele><time>2026-03-22T14:51:33.983Z</time></trkpt><trkpt lat="43.8079645" lon="12.4428474"><ele>324.25</ele><time>2026-03-22T14:51:34.983Z</time></trkpt><trkpt lat="43.8081211" lon="12.4428592"><ele>324.5</ele><time>2026-03-22T14:51:35.982Z</time></trkpt><trkpt lat="43.8082697" lon="12.4428721"><ele>324.75</ele><time>2026-03-22T14:51:36.983Z</time></trkpt><trkpt lat="43.8084083" lon="12.4428893"><ele>325.0</ele><time>2026-03-22T14:51:37.983Z</time></trkpt><trkpt lat="43.8085595" lon="12.4429271"><ele>327.25</ele><time>2026-03-22T14:51:38.983Z</time></trkpt><trkpt lat="43.8087136" lon="12.4429789"><ele>329.5</ele><time>2026-03-22T14:51:39.983Z</time></trkpt><trkpt lat="43.8088554" lon="12.4430227"><ele>331.75</ele><time>2026-03-22T14:51:40.983Z</time></trkpt><trkpt lat="43.8089781" lon="12.4430563"><ele>334.0</ele><time>2026-03-22T14:51:41.982Z</time></trkpt><trkpt lat="43.8090799" lon="12.4430783"><ele>334.0</ele><time>2026-03-22T14:51:42.982Z</time></trkpt><trkpt lat="43.8091702" lon="12.4431029"><ele>334.0</ele><time>2026-03-22T14:51:43.983Z</time></trkpt><trkpt lat="43.8092363" lon="12.4431129"><ele>334.0</ele><time>2026-03-22T14:51:44.982Z</time></trkpt><trkpt lat="43.809307" lon="12.4431323"><ele>334.0</ele><time>2026-03-22T14:51:46.983Z</time></trkpt><trkpt lat="43.8093775" lon="12.4431208"><ele>334.0</ele><time>2026-03-22T14:51:49.982Z</time></trkpt><trkpt lat="43.8094292" lon="12.443046"><ele>334.0</ele><time>2026-03-22T14:51:51.982Z</time></trkpt><trkpt lat="43.8094924" lon="12.4430005"><ele>334.0</ele><time>2026-03-22T14:51:53.983Z</time></trkpt><trkpt lat="43.8095814" lon="12.442939"><ele>333.66666666666663</ele><time>2026-03-22T14:51:55.983Z</time></trkpt><trkpt lat="43.8096805" lon="12.4428478"><ele>333.3333333333333</ele><time>2026-03-22T14:51:57.982Z</time></trkpt><trkpt lat="43.8097321" lon="12.4427933"><ele>333.0</ele><time>2026-03-22T14:51:58.982Z</time></trkpt><trkpt lat="43.8097881" lon="12.4427305"><ele>332.6666666666667</ele><time>2026-03-22T14:51:59.982Z</time></trkpt><trkpt lat="43.8098474" lon="12.4426605"><ele>332.33333333333337</ele><time>2026-03-22T14:52:00.983Z</time></trkpt><trkpt lat="43.809912" lon="12.442586"><ele>332.0</ele><time>2026-03-22T14:52:01.982Z</time></trkpt><trkpt lat="43.80998" lon="12.4424964"><ele>332.0</ele><time>2026-03-22T14:52:02.983Z</time></trkpt><trkpt lat="43.8100438" lon="12.4424203"><ele>332.0</ele><time>2026-03-22T14:52:03.983Z</time></trkpt><trkpt lat="43.8100907" lon="12.4423323"><ele>332.0</ele><time>2026-03-22T14:52:04.983Z</time></trkpt><trkpt lat="43.8101241" lon="12.4422325"><ele>332.0</ele><time>2026-03-22T14:52:05.983Z</time></trkpt><trkpt lat="43.8101315" lon="12.4421206"><ele>332.0</ele><time>2026-03-22T14:52:06.982Z</time></trkpt><trkpt lat="43.810124" lon="12.4419743"><ele>332.0</ele><time>2026-03-22T14:52:07.982Z</time></trkpt><trkpt lat="43.8101165" lon="12.441812"><ele>336.0</ele><time>2026-03-22T14:52:08.983Z</time></trkpt><trkpt lat="43.8101199" lon="12.4416471"><ele>340.0</ele><time>2026-03-22T14:52:09.983Z</time></trkpt><trkpt lat="43.8101257" lon="12.4414738"><ele>344.0</ele><time>2026-03-22T14:52:10.982Z</time></trkpt><trkpt lat="43.8101314" lon="12.4412964"><ele>348.0</ele><time>2026-03-22T14:52:11.982Z</time></trkpt><trkpt lat="43.8101313" lon="12.4411281"><ele>349.25</ele><time>2026-03-22T14:52:12.983Z</time></trkpt><trkpt lat="43.8101259" lon="12.4409625"><ele>350.5</ele><time>2026-03-22T14:52:13.983Z</time></trkpt><trkpt lat="43.8101245" lon="12.4407866"><ele>351.75</ele><time>2026-03-22T14:52:14.982Z</time></trkpt><trkpt lat="43.8101323" lon="12.4405945"><ele>353.0</ele><time>2026-03-22T14:52:15.982Z</time></trkpt><trkpt lat="43.8101378" lon="12.4404023"><ele>353.0</ele><time>2026-03-22T14:52:16.982Z</time></trkpt><trkpt lat="43.8101453" lon="12.4402186"><ele>353.0</ele><time>2026-03-22T14:52:17.983Z</time></trkpt><trkpt lat="43.8101536" lon="12.4400654"><ele>353.0</ele><time>2026-03-22T14:52:18.982Z</time></trkpt><trkpt lat="43.8101632" lon="12.4399323"><ele>353.0</ele><time>2026-03-22T14:52:19.983Z</time></trkpt><trkpt lat="43.8101958" lon="12.439831"><ele>353.0</ele><time>2026-03-22T14:52:20.982Z</time></trkpt><trkpt lat="43.8102516" lon="12.4397231"><ele>357.0</ele><time>2026-03-22T14:52:21.982Z</time></trkpt><trkpt lat="43.8103283" lon="12.4396143"><ele>361.0</ele><time>2026-03-22T14:52:22.983Z</time></trkpt><trkpt lat="43.8104134" lon="12.439494"><ele>365.0</ele><time>2026-03-22T14:52:23.983Z</time></trkpt><trkpt lat="43.8105026" lon="12.4393547"><ele>369.0</ele><time>2026-03-22T14:52:24.983Z</time></trkpt><trkpt lat="43.8106022" lon="12.4391972"><ele>369.0</ele><time>2026-03-22T14:52:25.982Z</time></trkpt><trkpt lat="43.8106908" lon="12.4390248"><ele>369.0</ele><time>2026-03-22T14:52:26.982Z</time></trkpt><trkpt lat="43.8107564" lon="12.4388641"><ele>369.0</ele><time>2026-03-22T14:52:27.983Z</time></trkpt><trkpt lat="43.8108129" lon="12.4387167"><ele>369.0</ele><time>2026-03-22T14:52:28.983Z</time></trkpt><trkpt lat="43.8108809" lon="12.4385742"><ele>368.75</ele><time>2026-03-22T14:52:29.983Z</time></trkpt><trkpt lat="43.8109664" lon="12.4384418"><ele>368.5</ele><time>2026-03-22T14:52:30.982Z</time></trkpt><trkpt lat="43.8110626" lon="12.4383181"><ele>368.25</ele><time>2026-03-22T14:52:31.982Z</time></trkpt><trkpt lat="43.8111459" lon="12.4382034"><ele>368.0</ele><time>2026-03-22T14:52:32.982Z</time></trkpt><trkpt lat="43.8112352" lon="12.4380753"><ele>371.25</ele><time>2026-03-22T14:52:33.983Z</time></trkpt><trkpt lat="43.8113126" lon="12.4379634"><ele>374.5</ele><time>2026-03-22T14:52:34.983Z</time></trkpt><trkpt lat="43.8114041" lon="12.4378342"><ele>377.75</ele><time>2026-03-22T14:52:35.982Z</time></trkpt><trkpt lat="43.811497" lon="12.4377104"><ele>381.0</ele><time>2026-03-22T14:52:36.982Z</time></trkpt><trkpt lat="43.8115853" lon="12.4376038"><ele>381.0</ele><time>2026-03-22T14:52:37.983Z</time></trkpt><trkpt lat="43.8116588" lon="12.4375023"><ele>381.0</ele><time>2026-03-22T14:52:38.983Z</time></trkpt><trkpt lat="43.8117259" lon="12.4373851"><ele>381.0</ele><time>2026-03-22T14:52:39.983Z</time></trkpt><trkpt lat="43.8117876" lon="12.4372395"><ele>381.0</ele><time>2026-03-22T14:52:40.983Z</time></trkpt><trkpt lat="43.8118439" lon="12.43707"><ele>383.75</ele><time>2026-03-22T14:52:41.982Z</time></trkpt><trkpt lat="43.8119014" lon="12.4368947"><ele>386.5</ele><time>2026-03-22T14:52:42.983Z</time></trkpt><trkpt lat="43.811959" lon="12.4367289"><ele>389.25</ele><time>2026-03-22T14:52:43.982Z</time></trkpt><trkpt lat="43.8120041" lon="12.4365906"><ele>392.0</ele><time>2026-03-22T14:52:44.983Z</time></trkpt><trkpt lat="43.8120456" lon="12.4364716"><ele>391.99999999999994</ele><time>2026-03-22T14:52:45.983Z</time></trkpt><trkpt lat="43.8120963" lon="12.4363921"><ele>392.0</ele><time>2026-03-22T14:52:46.982Z</time></trkpt><trkpt lat="43.8121606" lon="12.4363567"><ele>392.0</ele><time>2026-03-22T14:52:47.982Z</time></trkpt><trkpt lat="43.8122387" lon="12.4363543"><ele>392.0</ele><time>2026-03-22T14:52:48.983Z</time></trkpt><trkpt lat="43.8123276" lon="12.4363583"><ele>391.99999999999994</ele><time>2026-03-22T14:52:49.982Z</time></trkpt><trkpt lat="43.8124389" lon="12.4364074"><ele>392.0</ele><time>2026-03-22T14:52:50.982Z</time></trkpt><trkpt lat="43.8125599" lon="12.4364683"><ele>397.75</ele><time>2026-03-22T14:52:51.982Z</time></trkpt><trkpt lat="43.8126814" lon="12.4365571"><ele>403.5</ele><time>2026-03-22T14:52:52.983Z</time></trkpt><trkpt lat="43.8127988" lon="12.4366551"><ele>409.25</ele><time>2026-03-22T14:52:53.983Z</time></trkpt><trkpt lat="43.8129227" lon="12.436757"><ele>415.0</ele><time>2026-03-22T14:52:54.982Z</time></trkpt><trkpt lat="43.8130412" lon="12.4368555"><ele>415.0</ele><time>2026-03-22T14:52:55.983Z</time></trkpt><trkpt lat="43.8131516" lon="12.4369462"><ele>415.0</ele><time>2026-03-22T14:52:56.982Z</time></trkpt><trkpt lat="43.8132626" lon="12.4370439"><ele>415.0</ele><time>2026-03-22T14:52:57.982Z</time></trkpt><trkpt lat="43.8133586" lon="12.4371305"><ele>415.0</ele><time>2026-03-22T14:52:58.982Z</time></trkpt><trkpt lat="43.8134396" lon="12.4372028"><ele>415.83333333333337</ele><time>2026-03-22T14:52:59.983Z</time></trkpt><trkpt lat="43.8135184" lon="12.437259"><ele>416.6666666666667</ele><time>2026-03-22T14:53:00.983Z</time></trkpt><trkpt lat="43.8135882" lon="12.4372612"><ele>417.5</ele><time>2026-03-22T14:53:01.982Z</time></trkpt><trkpt lat="43.813662" lon="12.4372402"><ele>418.33333333333337</ele><time>2026-03-22T14:53:02.983Z</time></trkpt><trkpt lat="43.8137407" lon="12.4372102"><ele>419.1666666666667</ele><time>2026-03-22T14:53:03.982Z</time></trkpt><trkpt lat="43.8138305" lon="12.4371246"><ele>420.0</ele><time>2026-03-22T14:53:04.983Z</time></trkpt><trkpt lat="43.8139205" lon="12.4370116"><ele>420.0</ele><time>2026-03-22T14:53:05.982Z</time></trkpt><trkpt lat="43.8140012" lon="12.4368493"><ele>420.0</ele><time>2026-03-22T14:53:06.983Z</time></trkpt><trkpt lat="43.8140765" lon="12.436751"><ele>420.0</ele><time>2026-03-22T14:53:07.982Z</time></trkpt><trkpt lat="43.814151" lon="12.4366307"><ele>420.0</ele><time>2026-03-22T14:53:08.983Z</time></trkpt><trkpt lat="43.8142221" lon="12.4365059"><ele>420.0</ele><time>2026-03-22T14:53:09.982Z</time></trkpt><trkpt lat="43.8142992" lon="12.436386"><ele>420.0</ele><time>2026-03-22T14:53:10.982Z</time></trkpt><trkpt lat="43.814378" lon="12.4362783"><ele>420.0</ele><time>2026-03-22T14:53:11.982Z</time></trkpt><trkpt lat="43.814441" lon="12.4361869"><ele>420.0</ele><time>2026-03-22T14:53:12.983Z</time></trkpt><trkpt lat="43.8144902" lon="12.4361197"><ele>420.0</ele><time>2026-03-22T14:53:13.983Z</time></trkpt><trkpt lat="43.8145366" lon="12.4360391"><ele>421.4</ele><time>2026-03-22T14:53:15.983Z</time></trkpt><trkpt lat="43.8145645" lon="12.4359532"><ele>422.8</ele><time>2026-03-22T14:53:22.983Z</time></trkpt><trkpt lat="43.8146117" lon="12.4358176"><ele>424.20000000000005</ele><time>2026-03-22T14:53:24.983Z</time></trkpt><trkpt lat="43.8146553" lon="12.4356643"><ele>425.6</ele><time>2026-03-22T14:53:26.983Z</time></trkpt><trkpt lat="43.8146678" lon="12.4355282"><ele>427.0</ele><time>2026-03-22T14:53:28.982Z</time></trkpt><trkpt lat="43.8146529" lon="12.4353664"><ele>428.1666666666667</ele><time>2026-03-22T14:53:30.983Z</time></trkpt><trkpt lat="43.8146341" lon="12.4352779"><ele>429.33333333333337</ele><time>2026-03-22T14:53:31.983Z</time></trkpt><trkpt lat="43.8146102" lon="12.4351784"><ele>430.5</ele><time>2026-03-22T14:53:32.983Z</time></trkpt><trkpt lat="43.8145828" lon="12.4350694"><ele>431.66666666666663</ele><time>2026-03-22T14:53:33.983Z</time></trkpt><trkpt lat="43.8145489" lon="12.434952"><ele>432.8333333333333</ele><time>2026-03-22T14:53:34.982Z</time></trkpt><trkpt lat="43.8145032" lon="12.4348161"><ele>434.0</ele><time>2026-03-22T14:53:35.982Z</time></trkpt><trkpt lat="43.8144461" lon="12.4346687"><ele>435.4</ele><time>2026-03-22T14:53:36.982Z</time></trkpt><trkpt lat="43.8143846" lon="12.4345145"><ele>436.79999999999995</ele><time>2026-03-22T14:53:37.982Z</time></trkpt><trkpt lat="43.8143298" lon="12.4343707"><ele>438.20000000000005</ele><time>2026-03-22T14:53:38.983Z</time></trkpt><trkpt lat="43.814283" lon="12.4342352"><ele>439.6</ele><time>2026-03-22T14:53:39.983Z</time></trkpt><trkpt lat="43.8142503" lon="12.434125"><ele>441.0</ele><time>2026-03-22T14:53:40.983Z</time></trkpt><trkpt lat="43.8142291" lon="12.4340129"><ele>441.5</ele><time>2026-03-22T14:53:41.982Z</time></trkpt><trkpt lat="43.8142335" lon="12.4338944"><ele>442.0</ele><time>2026-03-22T14:53:42.982Z</time></trkpt><trkpt lat="43.8142515" lon="12.4337708"><ele>442.5</ele><time>2026-03-22T14:53:43.983Z</time></trkpt><trkpt lat="43.8142818" lon="12.4336679"><ele>443.0</ele><time>2026-03-22T14:53:44.982Z</time></trkpt><trkpt lat="43.8143255" lon="12.4335594"><ele>443.5</ele><time>2026-03-22T14:53:45.982Z</time></trkpt><trkpt lat="43.8143827" lon="12.4334445"><ele>444.0</ele><time>2026-03-22T14:53:46.982Z</time></trkpt><trkpt lat="43.8144453" lon="12.4333203"><ele>446.2</ele><time>2026-03-22T14:53:47.982Z</time></trkpt><trkpt lat="43.8145095" lon="12.4331957"><ele>448.4</ele><time>2026-03-22T14:53:48.982Z</time></trkpt><trkpt lat="43.8145784" lon="12.4330765"><ele>450.6</ele><time>2026-03-22T14:53:49.982Z</time></trkpt><trkpt lat="43.8146472" lon="12.4329567"><ele>452.8</ele><time>2026-03-22T14:53:50.982Z</time></trkpt><trkpt lat="43.8146991" lon="12.4328691"><ele>455.0</ele><time>2026-03-22T14:53:51.983Z</time></trkpt><trkpt lat="43.8147327" lon="12.4327804"><ele>458.49999999999994</ele><time>2026-03-22T14:53:52.983Z</time></trkpt><trkpt lat="43.8147428" lon="12.432687"><ele>462.0</ele><time>2026-03-22T14:53:53.982Z</time></trkpt><trkpt lat="43.814704" lon="12.4325465"><ele>465.5</ele><time>2026-03-22T14:53:55.983Z</time></trkpt><trkpt lat="43.8146522" lon="12.4324851"><ele>469.0</ele><time>2026-03-22T14:53:56.983Z</time></trkpt><trkpt lat="43.8145852" lon="12.4324298"><ele>472.49999999999994</ele><time>2026-03-22T14:53:57.982Z</time></trkpt><trkpt lat="43.814508" lon="12.4323082"><ele>476.0</ele><time>2026-03-22T14:53:59.982Z</time></trkpt><trkpt lat="43.814532" lon="12.4321396"><ele>479.8</ele><time>2026-03-22T14:54:01.982Z</time></trkpt><trkpt lat="43.8145673" lon="12.4320369"><ele>483.6</ele><time>2026-03-22T14:54:02.982Z</time></trkpt><trkpt lat="43.8146002" lon="12.4319127"><ele>487.4</ele><time>2026-03-22T14:54:03.983Z</time></trkpt><trkpt lat="43.8146192" lon="12.4317763"><ele>491.2</ele><time>2026-03-22T14:54:04.982Z</time></trkpt><trkpt lat="43.8146191" lon="12.4316458"><ele>495.0</ele><time>2026-03-22T14:54:05.983Z</time></trkpt><trkpt lat="43.8145983" lon="12.4315312"><ele>495.0</ele><time>2026-03-22T14:54:06.982Z</time></trkpt><trkpt lat="43.8145529" lon="12.4314372"><ele>495.0</ele><time>2026-03-22T14:54:07.983Z</time></trkpt><trkpt lat="43.8144875" lon="12.4313672"><ele>495.0</ele><time>2026-03-22T14:54:08.983Z</time></trkpt><trkpt lat="43.8144037" lon="12.4313018"><ele>495.0</ele><time>2026-03-22T14:54:09.983Z</time></trkpt><trkpt lat="43.8143267" lon="12.4312347"><ele>495.0</ele><time>2026-03-22T14:54:10.983Z</time></trkpt><trkpt lat="43.8142746" lon="12.4311679"><ele>495.0</ele><time>2026-03-22T14:54:11.982Z</time></trkpt><trkpt lat="43.81425" lon="12.4310046"><ele>497.6</ele><time>2026-03-22T14:54:13.983Z</time></trkpt><trkpt lat="43.8143352" lon="12.4309068"><ele>500.2</ele><time>2026-03-22T14:54:15.982Z</time></trkpt><trkpt lat="43.8144123" lon="12.4309025"><ele>502.79999999999995</ele><time>2026-03-22T14:54:16.983Z</time></trkpt><trkpt lat="43.8145064" lon="12.4309177"><ele>505.4</ele><time>2026-03-22T14:54:17.983Z</time></trkpt><trkpt lat="43.8146068" lon="12.4309234"><ele>508.0</ele><time>2026-03-22T14:54:18.983Z</time></trkpt><trkpt lat="43.8146948" lon="12.4309087"><ele>508.0</ele><time>2026-03-22T14:54:19.983Z</time></trkpt><trkpt lat="43.8147862" lon="12.4308601"><ele>507.99999999999994</ele><time>2026-03-22T14:54:20.983Z</time></trkpt><trkpt lat="43.8148802" lon="12.4307854"><ele>507.99999999999994</ele><time>2026-03-22T14:54:21.983Z</time></trkpt><trkpt lat="43.814978" lon="12.4307133"><ele>508.0</ele><time>2026-03-22T14:54:22.983Z</time></trkpt><trkpt lat="43.8150822" lon="12.4306553"><ele>508.0</ele><time>2026-03-22T14:54:23.982Z</time></trkpt><trkpt lat="43.8151841" lon="12.4306179"><ele>509.79999999999995</ele><time>2026-03-22T14:54:24.983Z</time></trkpt><trkpt lat="43.8152867" lon="12.4306134"><ele>511.59999999999997</ele><time>2026-03-22T14:54:25.983Z</time></trkpt><trkpt lat="43.8153834" lon="12.4306403"><ele>513.4000000000001</ele><time>2026-03-22T14:54:26.982Z</time></trkpt><trkpt lat="43.8154813" lon="12.430675"><ele>515.2</ele><time>2026-03-22T14:54:27.983Z</time></trkpt><trkpt lat="43.8155772" lon="12.4306828"><ele>517.0</ele><time>2026-03-22T14:54:28.983Z</time></trkpt><trkpt lat="43.8156725" lon="12.4306724"><ele>517.0</ele><time>2026-03-22T14:54:29.983Z</time></trkpt><trkpt lat="43.8157618" lon="12.4306352"><ele>517.0</ele><time>2026-03-22T14:54:30.983Z</time></trkpt><trkpt lat="43.8158401" lon="12.4305601"><ele>517.0</ele><time>2026-03-22T14:54:31.982Z</time></trkpt><trkpt lat="43.8159139" lon="12.4304545"><ele>517.0</ele><time>2026-03-22T14:54:32.983Z</time></trkpt><trkpt lat="43.815981" lon="12.4303245"><ele>517.0</ele><time>2026-03-22T14:54:33.983Z</time></trkpt><trkpt lat="43.8160514" lon="12.4301909"><ele>519.5</ele><time>2026-03-22T14:54:34.983Z</time></trkpt><trkpt lat="43.8161296" lon="12.4300599"><ele>522.0</ele><time>2026-03-22T14:54:35.982Z</time></trkpt><trkpt lat="43.8162168" lon="12.4299466"><ele>524.5</ele><time>2026-03-22T14:54:36.983Z</time></trkpt><trkpt lat="43.8163172" lon="12.4298533"><ele>527.0</ele><time>2026-03-22T14:54:37.982Z</time></trkpt><trkpt lat="43.8164313" lon="12.4297514"><ele>527.0</ele><time>2026-03-22T14:54:38.983Z</time></trkpt><trkpt lat="43.8165335" lon="12.4296701"><ele>527.0</ele><time>2026-03-22T14:54:39.982Z</time></trkpt><trkpt lat="43.8166352" lon="12.4295928"><ele>527.0</ele><time>2026-03-22T14:54:40.982Z</time></trkpt><trkpt lat="43.8167304" lon="12.4295086"><ele>527.0</ele><time>2026-03-22T14:54:41.983Z</time></trkpt><trkpt lat="43.8168082" lon="12.4294137"><ele>529.75</ele><time>2026-03-22T14:54:42.983Z</time></trkpt><trkpt lat="43.8168884" lon="12.4293062"><ele>532.5</ele><time>2026-03-22T14:54:43.982Z</time></trkpt><trkpt lat="43.816972" lon="12.4291927"><ele>535.25</ele><time>2026-03-22T14:54:44.983Z</time></trkpt><trkpt lat="43.8170582" lon="12.4290737"><ele>538.0</ele><time>2026-03-22T14:54:45.982Z</time></trkpt><trkpt lat="43.8171359" lon="12.4289671"><ele>538.0</ele><time>2026-03-22T14:54:46.983Z</time></trkpt><trkpt lat="43.8172072" lon="12.4288615"><ele>538.0</ele><time>2026-03-22T14:54:47.983Z</time></trkpt><trkpt lat="43.817257" lon="12.4287419"><ele>538.0</ele><time>2026-03-22T14:54:48.982Z</time></trkpt><trkpt lat="43.8172912" lon="12.4286208"><ele>538.0</ele><time>2026-03-22T14:54:49.983Z</time></trkpt><trkpt lat="43.8173123" lon="12.4284966"><ele>538.0</ele><time>2026-03-22T14:54:50.983Z</time></trkpt><trkpt lat="43.8173163" lon="12.4283669"><ele>538.0</ele><time>2026-03-22T14:54:51.982Z</time></trkpt><trkpt lat="43.8172964" lon="12.4282492"><ele>538.0</ele><time>2026-03-22T14:54:52.983Z</time></trkpt><trkpt lat="43.8172643" lon="12.4281373"><ele>538.0</ele><time>2026-03-22T14:54:53.983Z</time></trkpt><trkpt lat="43.8172212" lon="12.4280008"><ele>538.0</ele><time>2026-03-22T14:54:54.983Z</time></trkpt><trkpt lat="43.8171774" lon="12.4278594"><ele>538.0</ele><time>2026-03-22T14:54:55.982Z</time></trkpt><trkpt lat="43.817137" lon="12.427722"><ele>539.6</ele><time>2026-03-22T14:54:56.983Z</time></trkpt><trkpt lat="43.8170944" lon="12.4275838"><ele>541.1999999999999</ele><time>2026-03-22T14:54:57.983Z</time></trkpt><trkpt lat="43.8170564" lon="12.4274541"><ele>542.8</ele><time>2026-03-22T14:54:58.982Z</time></trkpt><trkpt lat="43.8170231" lon="12.4273302"><ele>544.4</ele><time>2026-03-22T14:54:59.982Z</time></trkpt><trkpt lat="43.8169995" lon="12.4272199"><ele>546.0</ele><time>2026-03-22T14:55:00.983Z</time></trkpt><trkpt lat="43.8169839" lon="12.4271065"><ele>546.8333333333334</ele><time>2026-03-22T14:55:01.982Z</time></trkpt><trkpt lat="43.8169863" lon="12.4269888"><ele>547.6666666666666</ele><time>2026-03-22T14:55:02.982Z</time></trkpt><trkpt lat="43.8170094" lon="12.4268716"><ele>548.5</ele><time>2026-03-22T14:55:03.983Z</time></trkpt><trkpt lat="43.8170535" lon="12.4267786"><ele>549.3333333333333</ele><time>2026-03-22T14:55:04.983Z</time></trkpt><trkpt lat="43.8171148" lon="12.4267114"><ele>550.1666666666666</ele><time>2026-03-22T14:55:05.983Z</time></trkpt><trkpt lat="43.8171893" lon="12.4266822"><ele>551.0</ele><time>2026-03-22T14:55:06.983Z</time></trkpt><trkpt lat="43.817283" lon="12.4266755"><ele>551.0</ele><time>2026-03-22T14:55:07.983Z</time></trkpt><trkpt lat="43.8173792" lon="12.4266919"><ele>551.0</ele><time>2026-03-22T14:55:08.983Z</time></trkpt><trkpt lat="43.8174789" lon="12.4267367"><ele>551.0</ele><time>2026-03-22T14:55:09.983Z</time></trkpt><trkpt lat="43.817583" lon="12.426791"><ele>551.0</ele><time>2026-03-22T14:55:10.983Z</time></trkpt><trkpt lat="43.8176998" lon="12.4268325"><ele>551.0</ele><time>2026-03-22T14:55:11.982Z</time></trkpt><trkpt lat="43.8178267" lon="12.4268489"><ele>552.25</ele><time>2026-03-22T14:55:12.982Z</time></trkpt><trkpt lat="43.817958" lon="12.4268418"><ele>553.5</ele><time>2026-03-22T14:55:13.983Z</time></trkpt><trkpt lat="43.8180986" lon="12.4268184"><ele>554.75</ele><time>2026-03-22T14:55:14.983Z</time></trkpt><trkpt lat="43.8182431" lon="12.4267819"><ele>556.0</ele><time>2026-03-22T14:55:15.983Z</time></trkpt><trkpt lat="43.8183815" lon="12.4267385"><ele>557.5</ele><time>2026-03-22T14:55:16.983Z</time></trkpt><trkpt lat="43.8185203" lon="12.4266965"><ele>559.0</ele><time>2026-03-22T14:55:17.983Z</time></trkpt><trkpt lat="43.8186677" lon="12.4266552"><ele>560.5</ele><time>2026-03-22T14:55:18.982Z</time></trkpt><trkpt lat="43.8188202" lon="12.4266109"><ele>562.0</ele><time>2026-03-22T14:55:19.982Z</time></trkpt><trkpt lat="43.8189712" lon="12.4265655"><ele>562.0</ele><time>2026-03-22T14:55:20.983Z</time></trkpt><trkpt lat="43.81912" lon="12.4265251"><ele>562.0</ele><time>2026-03-22T14:55:21.982Z</time></trkpt><trkpt lat="43.8192645" lon="12.4264903"><ele>562.0</ele><time>2026-03-22T14:55:22.983Z</time></trkpt><trkpt lat="43.8194009" lon="12.4264502"><ele>562.0</ele><time>2026-03-22T14:55:23.982Z</time></trkpt><trkpt lat="43.8195263" lon="12.4264017"><ele>561.5</ele><time>2026-03-22T14:55:24.982Z</time></trkpt><trkpt lat="43.8196448" lon="12.4263449"><ele>561.0</ele><time>2026-03-22T14:55:25.983Z</time></trkpt><trkpt lat="43.8197615" lon="12.4262762"><ele>560.5</ele><time>2026-03-22T14:55:26.983Z</time></trkpt><trkpt lat="43.8198732" lon="12.4262036"><ele>560.0</ele><time>2026-03-22T14:55:27.982Z</time></trkpt><trkpt lat="43.8199724" lon="12.4261321"><ele>562.75</ele><time>2026-03-22T14:55:28.982Z</time></trkpt><trkpt lat="43.8200645" lon="12.4260442"><ele>565.5</ele><time>2026-03-22T14:55:29.983Z</time></trkpt><trkpt lat="43.8201533" lon="12.4259318"><ele>568.25</ele><time>2026-03-22T14:55:30.983Z</time></trkpt><trkpt lat="43.8202349" lon="12.4257933"><ele>571.0</ele><time>2026-03-22T14:55:31.982Z</time></trkpt><trkpt lat="43.8203034" lon="12.42563"><ele>575.75</ele><time>2026-03-22T14:55:32.983Z</time></trkpt><trkpt lat="43.8203561" lon="12.4254521"><ele>580.5</ele><time>2026-03-22T14:55:33.982Z</time></trkpt><trkpt lat="43.820397" lon="12.4252629"><ele>585.25</ele><time>2026-03-22T14:55:34.983Z</time></trkpt><trkpt lat="43.8204198" lon="12.4250705"><ele>590.0</ele><time>2026-03-22T14:55:35.982Z</time></trkpt><trkpt lat="43.8204183" lon="12.4248786"><ele>590.0</ele><time>2026-03-22T14:55:36.983Z</time></trkpt><trkpt lat="43.8203913" lon="12.4246949"><ele>590.0</ele><time>2026-03-22T14:55:37.983Z</time></trkpt><trkpt lat="43.8203478" lon="12.4245142"><ele>590.0</ele><time>2026-03-22T14:55:38.982Z</time></trkpt><trkpt lat="43.8203101" lon="12.4243469"><ele>590.0</ele><time>2026-03-22T14:55:39.982Z</time></trkpt><trkpt lat="43.8202827" lon="12.4241939"><ele>592.0</ele><time>2026-03-22T14:55:40.982Z</time></trkpt><trkpt lat="43.820265" lon="12.4240412"><ele>594.0</ele><time>2026-03-22T14:55:41.983Z</time></trkpt><trkpt lat="43.8202649" lon="12.4239017"><ele>596.0</ele><time>2026-03-22T14:55:42.983Z</time></trkpt><trkpt lat="43.8202837" lon="12.4237564"><ele>598.0</ele><time>2026-03-22T14:55:43.983Z</time></trkpt><trkpt lat="43.8203136" lon="12.4235953"><ele>600.0</ele><time>2026-03-22T14:55:44.982Z</time></trkpt><trkpt lat="43.8203498" lon="12.4234286"><ele>601.75</ele><time>2026-03-22T14:55:45.983Z</time></trkpt><trkpt lat="43.8203798" lon="12.4232572"><ele>603.5</ele><time>2026-03-22T14:55:46.983Z</time></trkpt><trkpt lat="43.8203903" lon="12.4230914"><ele>605.25</ele><time>2026-03-22T14:55:47.982Z</time></trkpt><trkpt lat="43.820388" lon="12.4229397"><ele>607.0</ele><time>2026-03-22T14:55:48.982Z</time></trkpt><trkpt lat="43.8203489" lon="12.4227948"><ele>607.0</ele><time>2026-03-22T14:55:49.982Z</time></trkpt><trkpt lat="43.8203192" lon="12.4226728"><ele>607.0</ele><time>2026-03-22T14:55:50.982Z</time></trkpt><trkpt lat="43.8203063" lon="12.4225734"><ele>607.0</ele><time>2026-03-22T14:55:51.983Z</time></trkpt><trkpt lat="43.8203366" lon="12.4224391"><ele>607.0</ele><time>2026-03-22T14:55:53.983Z</time></trkpt><trkpt lat="43.8204262" lon="12.4223419"><ele>607.0</ele><time>2026-03-22T14:55:55.983Z</time></trkpt><trkpt lat="43.8204918" lon="12.4223358"><ele>607.0</ele><time>2026-03-22T14:55:56.982Z</time></trkpt><trkpt lat="43.8205627" lon="12.4223619"><ele>607.0</ele><time>2026-03-22T14:55:57.983Z</time></trkpt><trkpt lat="43.8206324" lon="12.4224225"><ele>607.0</ele><time>2026-03-22T14:55:58.982Z</time></trkpt><trkpt lat="43.820693" lon="12.422511"><ele>607.0</ele><time>2026-03-22T14:55:59.982Z</time></trkpt><trkpt lat="43.8207516" lon="12.4226191"><ele>607.0</ele><time>2026-03-22T14:56:00.982Z</time></trkpt><trkpt lat="43.8208176" lon="12.4227435"><ele>607.0</ele><time>2026-03-22T14:56:01.982Z</time></trkpt><trkpt lat="43.820891" lon="12.4228764"><ele>607.0</ele><time>2026-03-22T14:56:02.983Z</time></trkpt><trkpt lat="43.8209746" lon="12.423019"><ele>607.0</ele><time>2026-03-22T14:56:03.983Z</time></trkpt><trkpt lat="43.8210597" lon="12.4231755"><ele>607.0</ele><time>2026-03-22T14:56:04.983Z</time></trkpt><trkpt lat="43.8211354" lon="12.4233172"><ele>607.0</ele><time>2026-03-22T14:56:05.983Z</time></trkpt><trkpt lat="43.8212123" lon="12.4234424"><ele>610.6</ele><time>2026-03-22T14:56:06.983Z</time></trkpt><trkpt lat="43.8212988" lon="12.4235522"><ele>614.2</ele><time>2026-03-22T14:56:07.982Z</time></trkpt><trkpt lat="43.8213918" lon="12.4236393"><ele>617.8</ele><time>2026-03-22T14:56:08.983Z</time></trkpt><trkpt lat="43.821482" lon="12.4237028"><ele>621.4</ele><time>2026-03-22T14:56:09.983Z</time></trkpt><trkpt lat="43.821557" lon="12.4237418"><ele>625.0</ele><time>2026-03-22T14:56:10.983Z</time></trkpt><trkpt lat="43.8216467" lon="12.4237427"><ele>625.0</ele><time>2026-03-22T14:56:12.983Z</time></trkpt><trkpt lat="43.8217481" lon="12.4236439"><ele>625.0</ele><time>2026-03-22T14:56:14.983Z</time></trkpt><trkpt lat="43.8218046" lon="12.423557"><ele>625.0</ele><time>2026-03-22T14:56:15.983Z</time></trkpt><trkpt lat="43.8218699" lon="12.4234632"><ele>625.0</ele><time>2026-03-22T14:56:16.983Z</time></trkpt><trkpt lat="43.8219452" lon="12.4233919"><ele>625.0</ele><time>2026-03-22T14:56:17.982Z</time></trkpt><trkpt lat="43.8220292" lon="12.4233506"><ele>627.8</ele><time>2026-03-22T14:56:18.983Z</time></trkpt><trkpt lat="43.8221246" lon="12.4233313"><ele>630.6</ele><time>2026-03-22T14:56:19.982Z</time></trkpt><trkpt lat="43.822228" lon="12.423316"><ele>633.4</ele><time>2026-03-22T14:56:20.982Z</time></trkpt><trkpt lat="43.8223305" lon="12.4232949"><ele>636.2</ele><time>2026-03-22T14:56:21.982Z</time></trkpt><trkpt lat="43.8224263" lon="12.4232753"><ele>639.0</ele><time>2026-03-22T14:56:22.982Z</time></trkpt><trkpt lat="43.8225114" lon="12.4232635"><ele>639.0</ele><time>2026-03-22T14:56:23.983Z</time></trkpt><trkpt lat="43.8225964" lon="12.4232564"><ele>639.0</ele><time>2026-03-22T14:56:24.982Z</time></trkpt><trkpt lat="43.8226825" lon="12.4232408"><ele>639.0</ele><time>2026-03-22T14:56:25.983Z</time></trkpt><trkpt lat="43.8227644" lon="12.423223"><ele>639.0</ele><time>2026-03-22T14:56:26.982Z</time></trkpt><trkpt lat="43.822844" lon="12.4232078"><ele>639.0</ele><time>2026-03-22T14:56:27.983Z</time></trkpt><trkpt lat="43.8229182" lon="12.4231913"><ele>639.0</ele><time>2026-03-22T14:56:28.983Z</time></trkpt><trkpt lat="43.8229956" lon="12.4231706"><ele>639.8</ele><time>2026-03-22T14:56:29.983Z</time></trkpt><trkpt lat="43.8230744" lon="12.4231446"><ele>640.5999999999999</ele><time>2026-03-22T14:56:30.982Z</time></trkpt><trkpt lat="43.8231493" lon="12.4231071"><ele>641.4</ele><time>2026-03-22T14:56:31.983Z</time></trkpt><trkpt lat="43.8232218" lon="12.423045"><ele>642.1999999999999</ele><time>2026-03-22T14:56:32.983Z</time></trkpt><trkpt lat="43.8232982" lon="12.4229528"><ele>643.0</ele><time>2026-03-22T14:56:33.982Z</time></trkpt><trkpt lat="43.82338" lon="12.4228477"><ele>644.5</ele><time>2026-03-22T14:56:34.982Z</time></trkpt><trkpt lat="43.8234573" lon="12.4227551"><ele>646.0</ele><time>2026-03-22T14:56:35.982Z</time></trkpt><trkpt lat="43.8235185" lon="12.422682"><ele>647.5</ele><time>2026-03-22T14:56:36.982Z</time></trkpt><trkpt lat="43.8235657" lon="12.4226083"><ele>649.0</ele><time>2026-03-22T14:56:37.983Z</time></trkpt><trkpt lat="43.8235977" lon="12.4225204"><ele>650.5</ele><time>2026-03-22T14:56:38.983Z</time></trkpt><trkpt lat="43.8236152" lon="12.422405"><ele>652.0</ele><time>2026-03-22T14:56:39.983Z</time></trkpt><trkpt lat="43.8236199" lon="12.4222736"><ele>655.6</ele><time>2026-03-22T14:56:40.983Z</time></trkpt><trkpt lat="43.8236212" lon="12.4221346"><ele>659.2</ele><time>2026-03-22T14:56:41.982Z</time></trkpt><trkpt lat="43.8236179" lon="12.4219893"><ele>662.8</ele><time>2026-03-22T14:56:42.983Z</time></trkpt><trkpt lat="43.8236141" lon="12.4218534"><ele>666.4</ele><time>2026-03-22T14:56:43.983Z</time></trkpt><trkpt lat="43.8236241" lon="12.4217325"><ele>670.0</ele><time>2026-03-22T14:56:44.982Z</time></trkpt><trkpt lat="43.823656" lon="12.4216097"><ele>670.0</ele><time>2026-03-22T14:56:45.983Z</time></trkpt><trkpt lat="43.8237055" lon="12.4214841"><ele>670.0</ele><time>2026-03-22T14:56:46.983Z</time></trkpt><trkpt lat="43.8237656" lon="12.4213637"><ele>670.0</ele><time>2026-03-22T14:56:47.983Z</time></trkpt><trkpt lat="43.8238297" lon="12.4212481"><ele>670.0</ele><time>2026-03-22T14:56:48.983Z</time></trkpt><trkpt lat="43.8238935" lon="12.4211362"><ele>670.0</ele><time>2026-03-22T14:56:49.982Z</time></trkpt><trkpt lat="43.823964" lon="12.4210208"><ele>671.0</ele><time>2026-03-22T14:56:50.983Z</time></trkpt><trkpt lat="43.8240186" lon="12.420902"><ele>672.0</ele><time>2026-03-22T14:56:51.983Z</time></trkpt><trkpt lat="43.8240722" lon="12.4207842"><ele>673.0</ele><time>2026-03-22T14:56:52.983Z</time></trkpt><trkpt lat="43.8241174" lon="12.4206585"><ele>674.0</ele><time>2026-03-22T14:56:53.983Z</time></trkpt><trkpt lat="43.824159" lon="12.4205254"><ele>675.0</ele><time>2026-03-22T14:56:54.982Z</time></trkpt><trkpt lat="43.8241978" lon="12.4203889"><ele>675.0</ele><time>2026-03-22T14:56:55.983Z</time></trkpt><trkpt lat="43.8242368" lon="12.4202464"><ele>675.0</ele><time>2026-03-22T14:56:56.983Z</time></trkpt><trkpt lat="43.8242791" lon="12.4200875"><ele>675.0</ele><time>2026-03-22T14:56:57.982Z</time></trkpt><trkpt lat="43.824322" lon="12.4199273"><ele>675.0</ele><time>2026-03-22T14:56:58.983Z</time></trkpt><trkpt lat="43.8243677" lon="12.4197454"><ele>679.5</ele><time>2026-03-22T14:56:59.983Z</time></trkpt><trkpt lat="43.8244151" lon="12.4195704"><ele>684.0</ele><time>2026-03-22T14:57:00.982Z</time></trkpt><trkpt lat="43.8244679" lon="12.4194117"><ele>688.5</ele><time>2026-03-22T14:57:01.982Z</time></trkpt><trkpt lat="43.8245149" lon="12.4192588"><ele>693.0</ele><time>2026-03-22T14:57:02.982Z</time></trkpt><trkpt lat="43.8245574" lon="12.4191148"><ele>693.0</ele><time>2026-03-22T14:57:03.983Z</time></trkpt><trkpt lat="43.8245838" lon="12.4189752"><ele>693.0</ele><time>2026-03-22T14:57:04.983Z</time></trkpt><trkpt lat="43.8246071" lon="12.4188527"><ele>693.0</ele><time>2026-03-22T14:57:05.983Z</time></trkpt><trkpt lat="43.8246223" lon="12.4187446"><ele>693.0</ele><time>2026-03-22T14:57:06.982Z</time></trkpt><trkpt lat="43.8246238" lon="12.4186243"><ele>693.0</ele><time>2026-03-22T14:57:07.982Z</time></trkpt><trkpt lat="43.8246062" lon="12.4184864"><ele>692.4</ele><time>2026-03-22T14:57:08.983Z</time></trkpt><trkpt lat="43.8245769" lon="12.4183471"><ele>691.8</ele><time>2026-03-22T14:57:09.982Z</time></trkpt><trkpt lat="43.8245232" lon="12.4182019"><ele>691.2</ele><time>2026-03-22T14:57:10.982Z</time></trkpt><trkpt lat="43.824485" lon="12.4180833"><ele>690.6</ele><time>2026-03-22T14:57:11.983Z</time></trkpt><trkpt lat="43.8244643" lon="12.4179751"><ele>690.0</ele><time>2026-03-22T14:57:12.983Z</time></trkpt><trkpt lat="43.8244579" lon="12.4178553"><ele>690.0</ele><time>2026-03-22T14:57:13.983Z</time></trkpt><trkpt lat="43.8244619" lon="12.4177106"><ele>690.0</ele><time>2026-03-22T14:57:14.983Z</time></trkpt><trkpt lat="43.8244626" lon="12.4175235"><ele>690.0</ele><time>2026-03-22T14:57:15.983Z</time></trkpt><trkpt lat="43.8244662" lon="12.4173067"><ele>690.0</ele><time>2026-03-22T14:57:16.983Z</time></trkpt><trkpt lat="43.8244692" lon="12.4171063"><ele>690.5</ele><time>2026-03-22T14:57:17.982Z</time></trkpt><trkpt lat="43.8244736" lon="12.4169166"><ele>691.0</ele><time>2026-03-22T14:57:18.983Z</time></trkpt><trkpt lat="43.8244749" lon="12.4167283"><ele>691.5</ele><time>2026-03-22T14:57:19.983Z</time></trkpt><trkpt lat="43.8244798" lon="12.4165401"><ele>692.0</ele><time>2026-03-22T14:57:20.982Z</time></trkpt><trkpt lat="43.8244856" lon="12.4163423"><ele>693.0</ele><time>2026-03-22T14:57:21.983Z</time></trkpt><trkpt lat="43.8244871" lon="12.4161358"><ele>694.0</ele><time>2026-03-22T14:57:22.983Z</time></trkpt><trkpt lat="43.8244898" lon="12.4159622"><ele>695.0</ele><time>2026-03-22T14:57:23.982Z</time></trkpt><trkpt lat="43.8244902" lon="12.4158165"><ele>696.0</ele><time>2026-03-22T14:57:24.982Z</time></trkpt><trkpt lat="43.8244883" lon="12.4156817"><ele>696.0</ele><time>2026-03-22T14:57:25.983Z</time></trkpt><trkpt lat="43.8244747" lon="12.4155634"><ele>696.0</ele><time>2026-03-22T14:57:26.983Z</time></trkpt><trkpt lat="43.8244593" lon="12.4154418"><ele>696.0</ele><time>2026-03-22T14:57:27.982Z</time></trkpt><trkpt lat="43.8244123" lon="12.4153683"><ele>696.0</ele><time>2026-03-22T14:57:28.983Z</time></trkpt><trkpt lat="43.8243638" lon="12.4153004"><ele>696.0</ele><time>2026-03-22T14:57:29.983Z</time></trkpt><trkpt lat="43.8242959" lon="12.4152754"><ele>696.0</ele><time>2026-03-22T14:57:30.982Z</time></trkpt><trkpt lat="43.8241911" lon="12.4152348"><ele>693.5999999999999</ele><time>2026-03-22T14:57:31.983Z</time></trkpt><trkpt lat="43.8240805" lon="12.415274"><ele>691.2</ele><time>2026-03-22T14:57:32.983Z</time></trkpt><trkpt lat="43.8240011" lon="12.4152612"><ele>688.8</ele><time>2026-03-22T14:57:33.983Z</time></trkpt><trkpt lat="43.8239078" lon="12.4152631"><ele>686.4000000000001</ele><time>2026-03-22T14:57:34.982Z</time></trkpt><trkpt lat="43.823816" lon="12.4152486"><ele>684.0</ele><time>2026-03-22T14:57:35.982Z</time></trkpt><trkpt lat="43.8237264" lon="12.4152178"><ele>684.0</ele><time>2026-03-22T14:57:36.982Z</time></trkpt><trkpt lat="43.823658" lon="12.4151568"><ele>684.0</ele><time>2026-03-22T14:57:37.983Z</time></trkpt><trkpt lat="43.8235742" lon="12.4151217"><ele>684.0</ele><time>2026-03-22T14:57:38.983Z</time></trkpt><trkpt lat="43.8235053" lon="12.4150855"><ele>684.0</ele><time>2026-03-22T14:57:39.982Z</time></trkpt><trkpt lat="43.8233972" lon="12.4150173"><ele>684.0</ele><time>2026-03-22T14:57:41.983Z</time></trkpt><trkpt lat="43.8233193" lon="12.4149533"><ele>681.5</ele><time>2026-03-22T14:57:43.983Z</time></trkpt><trkpt lat="43.8232589" lon="12.4148769"><ele>679.0</ele><time>2026-03-22T14:57:45.982Z</time></trkpt><trkpt lat="43.8232665" lon="12.4147595"><ele>676.5</ele><time>2026-03-22T14:57:47.983Z</time></trkpt><trkpt lat="43.8232964" lon="12.4146699"><ele>674.0</ele><time>2026-03-22T14:57:48.983Z</time></trkpt><trkpt lat="43.8233363" lon="12.4145679"><ele>671.5</ele><time>2026-03-22T14:57:49.982Z</time></trkpt><trkpt lat="43.8233835" lon="12.4144425"><ele>669.0</ele><time>2026-03-22T14:57:50.983Z</time></trkpt><trkpt lat="43.823438" lon="12.414312"><ele>670.8000000000001</ele><time>2026-03-22T14:57:51.983Z</time></trkpt><trkpt lat="43.823488" lon="12.4141865"><ele>672.6</ele><time>2026-03-22T14:57:52.982Z</time></trkpt><trkpt lat="43.8235338" lon="12.414064"><ele>674.4</ele><time>2026-03-22T14:57:53.983Z</time></trkpt><trkpt lat="43.823585" lon="12.413922"><ele>676.2</ele><time>2026-03-22T14:57:54.983Z</time></trkpt><trkpt lat="43.823645" lon="12.4137636"><ele>678.0</ele><time>2026-03-22T14:57:55.982Z</time></trkpt><trkpt lat="43.8237105" lon="12.4136003"><ele>678.0</ele><time>2026-03-22T14:57:56.983Z</time></trkpt><trkpt lat="43.8237754" lon="12.413431"><ele>678.0</ele><time>2026-03-22T14:57:57.983Z</time></trkpt><trkpt lat="43.8238437" lon="12.4132543"><ele>678.0</ele><time>2026-03-22T14:57:58.982Z</time></trkpt><trkpt lat="43.8239105" lon="12.413078"><ele>678.0</ele><time>2026-03-22T14:57:59.983Z</time></trkpt><trkpt lat="43.8239788" lon="12.4128986"><ele>676.5</ele><time>2026-03-22T14:58:00.983Z</time></trkpt><trkpt lat="43.8240413" lon="12.4127248"><ele>675.0</ele><time>2026-03-22T14:58:01.983Z</time></trkpt><trkpt lat="43.8241066" lon="12.412552"><ele>673.5</ele><time>2026-03-22T14:58:02.983Z</time></trkpt><trkpt lat="43.824175" lon="12.4123744"><ele>672.0</ele><time>2026-03-22T14:58:03.983Z</time></trkpt><trkpt lat="43.8242405" lon="12.4122082"><ele>670.8</ele><time>2026-03-22T14:58:04.983Z</time></trkpt><trkpt lat="43.8243011" lon="12.4120599"><ele>669.6</ele><time>2026-03-22T14:58:05.983Z</time></trkpt><trkpt lat="43.8243513" lon="12.4119313"><ele>668.4</ele><time>2026-03-22T14:58:06.983Z</time></trkpt><trkpt lat="43.8243949" lon="12.4118208"><ele>667.1999999999999</ele><time>2026-03-22T14:58:07.982Z</time></trkpt><trkpt lat="43.8244137" lon="12.4117063"><ele>666.0</ele><time>2026-03-22T14:58:08.982Z</time></trkpt><trkpt lat="43.8244191" lon="12.4115714"><ele>665.75</ele><time>2026-03-22T14:58:09.983Z</time></trkpt><trkpt lat="43.8243954" lon="12.4114176"><ele>665.5</ele><time>2026-03-22T14:58:10.982Z</time></trkpt><trkpt lat="43.8243351" lon="12.411244"><ele>665.25</ele><time>2026-03-22T14:58:11.983Z</time></trkpt><trkpt lat="43.8242934" lon="12.411072"><ele>665.0</ele><time>2026-03-22T14:58:12.983Z</time></trkpt><trkpt lat="43.8242391" lon="12.4109064"><ele>664.75</ele><time>2026-03-22T14:58:13.983Z</time></trkpt><trkpt lat="43.8241879" lon="12.4107406"><ele>664.5</ele><time>2026-03-22T14:58:14.983Z</time></trkpt><trkpt lat="43.8241564" lon="12.4105986"><ele>664.25</ele><time>2026-03-22T14:58:15.982Z</time></trkpt><trkpt lat="43.8241225" lon="12.4104468"><ele>664.0</ele><time>2026-03-22T14:58:16.982Z</time></trkpt><trkpt lat="43.8240851" lon="12.4103001"><ele>664.0</ele><time>2026-03-22T14:58:17.983Z</time></trkpt><trkpt lat="43.8240474" lon="12.4101374"><ele>664.0</ele><time>2026-03-22T14:58:18.983Z</time></trkpt><trkpt lat="43.8240039" lon="12.4099724"><ele>664.0</ele><time>2026-03-22T14:58:19.983Z</time></trkpt><trkpt lat="43.8239584" lon="12.4098014"><ele>664.0</ele><time>2026-03-22T14:58:20.983Z</time></trkpt><trkpt lat="43.8239094" lon="12.4096287"><ele>663.0</ele><time>2026-03-22T14:58:21.983Z</time></trkpt><trkpt lat="43.8238585" lon="12.4094399"><ele>662.0</ele><time>2026-03-22T14:58:22.983Z</time></trkpt><trkpt lat="43.823812" lon="12.4092503"><ele>661.0</ele><time>2026-03-22T14:58:23.982Z</time></trkpt><trkpt lat="43.8237741" lon="12.4090831"><ele>660.0</ele><time>2026-03-22T14:58:24.983Z</time></trkpt><trkpt lat="43.8237464" lon="12.4089275"><ele>660.6</ele><time>2026-03-22T14:58:25.982Z</time></trkpt><trkpt lat="43.8237391" lon="12.4087719"><ele>661.2</ele><time>2026-03-22T14:58:26.983Z</time></trkpt><trkpt lat="43.8237501" lon="12.4086191"><ele>661.8</ele><time>2026-03-22T14:58:27.983Z</time></trkpt><trkpt lat="43.8237774" lon="12.4084683"><ele>662.4</ele><time>2026-03-22T14:58:28.983Z</time></trkpt><trkpt lat="43.8238229" lon="12.408333"><ele>663.0</ele><time>2026-03-22T14:58:29.982Z</time></trkpt><trkpt lat="43.8238795" lon="12.4082271"><ele>663.0</ele><time>2026-03-22T14:58:30.982Z</time></trkpt><trkpt lat="43.8239515" lon="12.4081587"><ele>663.0</ele><time>2026-03-22T14:58:31.983Z</time></trkpt><trkpt lat="43.8240114" lon="12.4080968"><ele>663.0</ele><time>2026-03-22T14:58:32.983Z</time></trkpt><trkpt lat="43.82407" lon="12.4080219"><ele>663.0</ele><time>2026-03-22T14:58:33.983Z</time></trkpt><trkpt lat="43.8241077" lon="12.4079067"><ele>663.0</ele><time>2026-03-22T14:58:34.982Z</time></trkpt><trkpt lat="43.8241418" lon="12.4077805"><ele>663.0</ele><time>2026-03-22T14:58:35.983Z</time></trkpt><trkpt lat="43.8241599" lon="12.4076721"><ele>662.8</ele><time>2026-03-22T14:58:36.983Z</time></trkpt><trkpt lat="43.8241818" lon="12.4075282"><ele>662.5999999999999</ele><time>2026-03-22T14:58:38.983Z</time></trkpt><trkpt lat="43.8242859" lon="12.4074922"><ele>662.4000000000001</ele><time>2026-03-22T14:58:40.982Z</time></trkpt><trkpt lat="43.8243797" lon="12.4075743"><ele>662.2</ele><time>2026-03-22T14:58:42.983Z</time></trkpt><trkpt lat="43.8244359" lon="12.4076573"><ele>662.0</ele><time>2026-03-22T14:58:43.983Z</time></trkpt><trkpt lat="43.8245051" lon="12.4077339"><ele>658.0</ele><time>2026-03-22T14:58:44.983Z</time></trkpt><trkpt lat="43.8245726" lon="12.4077851"><ele>654.0</ele><time>2026-03-22T14:58:45.982Z</time></trkpt><trkpt lat="43.824691" lon="12.4078177"><ele>650.0</ele><time>2026-03-22T14:58:47.982Z</time></trkpt><trkpt lat="43.8247922" lon="12.4077354"><ele>646.0</ele><time>2026-03-22T14:58:49.983Z</time></trkpt><trkpt lat="43.8248148" lon="12.4075723"><ele>642.0</ele><time>2026-03-22T14:58:51.983Z</time></trkpt><trkpt lat="43.8247925" lon="12.4074625"><ele>642.0</ele><time>2026-03-22T14:58:52.982Z</time></trkpt><trkpt lat="43.8247727" lon="12.4073605"><ele>642.0</ele><time>2026-03-22T14:58:53.983Z</time></trkpt><trkpt lat="43.8247148" lon="12.4072541"><ele>642.0</ele><time>2026-03-22T14:58:54.983Z</time></trkpt><trkpt lat="43.8246543" lon="12.4071642"><ele>642.0</ele><time>2026-03-22T14:58:55.983Z</time></trkpt><trkpt lat="43.8245874" lon="12.4070771"><ele>642.0</ele><time>2026-03-22T14:58:56.982Z</time></trkpt><trkpt lat="43.8245198" lon="12.4069921"><ele>642.0</ele><time>2026-03-22T14:58:57.982Z</time></trkpt><trkpt lat="43.8244529" lon="12.4069131"><ele>642.8333333333334</ele><time>2026-03-22T14:58:58.983Z</time></trkpt><trkpt lat="43.8243978" lon="12.4068351"><ele>643.6666666666666</ele><time>2026-03-22T14:58:59.983Z</time></trkpt><trkpt lat="43.8243448" lon="12.4067631"><ele>644.5</ele><time>2026-03-22T14:59:00.982Z</time></trkpt><trkpt lat="43.8242886" lon="12.4066962"><ele>645.3333333333333</ele><time>2026-03-22T14:59:01.982Z</time></trkpt><trkpt lat="43.8242299" lon="12.4066251"><ele>646.1666666666666</ele><time>2026-03-22T14:59:02.983Z</time></trkpt><trkpt lat="43.8241602" lon="12.4065478"><ele>647.0</ele><time>2026-03-22T14:59:03.982Z</time></trkpt><trkpt lat="43.8240846" lon="12.4064515"><ele>647.0</ele><time>2026-03-22T14:59:04.983Z</time></trkpt><trkpt lat="43.8240243" lon="12.4063581"><ele>647.0</ele><time>2026-03-22T14:59:05.982Z</time></trkpt><trkpt lat="43.8239792" lon="12.4062821"><ele>647.0</ele><time>2026-03-22T14:59:06.983Z</time></trkpt><trkpt lat="43.8239165" lon="12.4061863"><ele>647.0</ele><time>2026-03-22T14:59:08.982Z</time></trkpt><trkpt lat="43.8238759" lon="12.4061165"><ele>647.0</ele><time>2026-03-22T14:59:10.982Z</time></trkpt><trkpt lat="43.8239335" lon="12.4060672"><ele>647.0</ele><time>2026-03-22T14:59:13.983Z</time></trkpt><trkpt lat="43.8240046" lon="12.4061223"><ele>647.0</ele><time>2026-03-22T14:59:15.983Z</time></trkpt><trkpt lat="43.8240643" lon="12.4061916"><ele>647.0</ele><time>2026-03-22T14:59:16.982Z</time></trkpt><trkpt lat="43.8241477" lon="12.4062832"><ele>647.0</ele><time>2026-03-22T14:59:17.982Z</time></trkpt><trkpt lat="43.8242572" lon="12.4063897"><ele>647.0</ele><time>2026-03-22T14:59:18.983Z</time></trkpt><trkpt lat="43.8243795" lon="12.4064906"><ele>643.5</ele><time>2026-03-22T14:59:19.982Z</time></trkpt><trkpt lat="43.8245024" lon="12.4065665"><ele>640.0</ele><time>2026-03-22T14:59:20.983Z</time></trkpt><trkpt lat="43.8246298" lon="12.4066117"><ele>636.5</ele><time>2026-03-22T14:59:21.983Z</time></trkpt><trkpt lat="43.8247686" lon="12.4066227"><ele>633.0</ele><time>2026-03-22T14:59:22.983Z</time></trkpt><trkpt lat="43.82492" lon="12.406618"><ele>633.0</ele><time>2026-03-22T14:59:23.982Z</time></trkpt><trkpt lat="43.8250814" lon="12.4066134"><ele>633.0</ele><time>2026-03-22T14:59:24.983Z</time></trkpt><trkpt lat="43.8252504" lon="12.4066081"><ele>633.0</ele><time>2026-03-22T14:59:25.983Z</time></trkpt><trkpt lat="43.8254187" lon="12.4065954"><ele>631.0</ele><time>2026-03-22T14:59:26.982Z</time></trkpt><trkpt lat="43.8255781" lon="12.4065814"><ele>629.0</ele><time>2026-03-22T14:59:27.983Z</time></trkpt><trkpt lat="43.8257308" lon="12.4065885"><ele>627.0</ele><time>2026-03-22T14:59:28.982Z</time></trkpt><trkpt lat="43.8258822" lon="12.4066283"><ele>623.0</ele><time>2026-03-22T14:59:29.982Z</time></trkpt><trkpt lat="43.8260251" lon="12.4066896"><ele>619.0</ele><time>2026-03-22T14:59:30.983Z</time></trkpt><trkpt lat="43.8261495" lon="12.4067954"><ele>615.0</ele><time>2026-03-22T14:59:31.982Z</time></trkpt><trkpt lat="43.8262501" lon="12.4069271"><ele>611.0</ele><time>2026-03-22T14:59:32.983Z</time></trkpt><trkpt lat="43.826336" lon="12.4070933"><ele>613.3333333333333</ele><time>2026-03-22T14:59:33.982Z</time></trkpt><trkpt lat="43.8264175" lon="12.4072915"><ele>615.6666666666666</ele><time>2026-03-22T14:59:34.982Z</time></trkpt><trkpt lat="43.826497" lon="12.4075111"><ele>618.0</ele><time>2026-03-22T14:59:35.982Z</time></trkpt><trkpt lat="43.8265721" lon="12.407749"><ele>618.0</ele><time>2026-03-22T14:59:36.982Z</time></trkpt><trkpt lat="43.8266463" lon="12.4079845"><ele>618.0</ele><time>2026-03-22T14:59:37.983Z</time></trkpt><trkpt lat="43.8267136" lon="12.4081985"><ele>618.0</ele><time>2026-03-22T14:59:38.983Z</time></trkpt><trkpt lat="43.8267758" lon="12.4083844"><ele>618.25</ele><time>2026-03-22T14:59:39.983Z</time></trkpt><trkpt lat="43.8268403" lon="12.4085382"><ele>618.5</ele><time>2026-03-22T14:59:40.983Z</time></trkpt><trkpt lat="43.8269176" lon="12.4086607"><ele>618.75</ele><time>2026-03-22T14:59:41.983Z</time></trkpt><trkpt lat="43.8270132" lon="12.4087494"><ele>619.0</ele><time>2026-03-22T14:59:42.982Z</time></trkpt><trkpt lat="43.8271307" lon="12.4087961"><ele>619.0</ele><time>2026-03-22T14:59:43.982Z</time></trkpt><trkpt lat="43.8272717" lon="12.4088097"><ele>619.0</ele><time>2026-03-22T14:59:44.983Z</time></trkpt><trkpt lat="43.8274404" lon="12.408812"><ele>619.0</ele><time>2026-03-22T14:59:45.982Z</time></trkpt><trkpt lat="43.8276315" lon="12.408812"><ele>620.0</ele><time>2026-03-22T14:59:46.982Z</time></trkpt><trkpt lat="43.8278328" lon="12.4088114"><ele>621.0</ele><time>2026-03-22T14:59:47.982Z</time></trkpt><trkpt lat="43.8280264" lon="12.4088161"><ele>622.0</ele><time>2026-03-22T14:59:48.983Z</time></trkpt><trkpt lat="43.8281939" lon="12.4088477"><ele>622.0</ele><time>2026-03-22T14:59:49.983Z</time></trkpt><trkpt lat="43.8283582" lon="12.4088869"><ele>622.0</ele><time>2026-03-22T14:59:50.982Z</time></trkpt><trkpt lat="43.8284918" lon="12.4089937"><ele>622.0</ele><time>2026-03-22T14:59:51.983Z</time></trkpt><trkpt lat="43.8286134" lon="12.4091117"><ele>618.3333333333334</ele><time>2026-03-22T14:59:52.983Z</time></trkpt><trkpt lat="43.8287343" lon="12.4092522"><ele>614.6666666666666</ele><time>2026-03-22T14:59:53.983Z</time></trkpt><trkpt lat="43.828873" lon="12.4093803"><ele>611.0</ele><time>2026-03-22T14:59:54.982Z</time></trkpt><trkpt lat="43.8290258" lon="12.4094654"><ele>611.0</ele><time>2026-03-22T14:59:55.983Z</time></trkpt><trkpt lat="43.8292159" lon="12.4095212"><ele>611.0</ele><time>2026-03-22T14:59:56.983Z</time></trkpt><trkpt lat="43.829414" lon="12.4095486"><ele>611.0</ele><time>2026-03-22T14:59:57.982Z</time></trkpt><trkpt lat="43.8295974" lon="12.4095667"><ele>609.0</ele><time>2026-03-22T14:59:58.982Z</time></trkpt><trkpt lat="43.8297824" lon="12.4095931"><ele>607.0</ele><time>2026-03-22T14:59:59.983Z</time></trkpt><trkpt lat="43.8299411" lon="12.409628"><ele>605.0</ele><time>2026-03-22T15:00:00.982Z</time></trkpt><trkpt lat="43.830069" lon="12.4096648"><ele>603.75</ele><time>2026-03-22T15:00:01.983Z</time></trkpt><trkpt lat="43.8301823" lon="12.4097141"><ele>602.5</ele><time>2026-03-22T15:00:02.983Z</time></trkpt><trkpt lat="43.8302807" lon="12.4097955"><ele>601.25</ele><time>2026-03-22T15:00:03.982Z</time></trkpt><trkpt lat="43.8303512" lon="12.4099004"><ele>600.0</ele><time>2026-03-22T15:00:04.982Z</time></trkpt><trkpt lat="43.8303984" lon="12.4100504"><ele>600.0</ele><time>2026-03-22T15:00:05.982Z</time></trkpt><trkpt lat="43.8304305" lon="12.4102544"><ele>600.0</ele><time>2026-03-22T15:00:06.983Z</time></trkpt><trkpt lat="43.8304519" lon="12.410477"><ele>600.0</ele><time>2026-03-22T15:00:07.983Z</time></trkpt><trkpt lat="43.8304769" lon="12.4106815"><ele>600.3333333333334</ele><time>2026-03-22T15:00:08.983Z</time></trkpt><trkpt lat="43.8305144" lon="12.4108816"><ele>600.6666666666667</ele><time>2026-03-22T15:00:09.983Z</time></trkpt><trkpt lat="43.8305723" lon="12.4110892"><ele>601.0</ele><time>2026-03-22T15:00:10.982Z</time></trkpt><trkpt lat="43.8306594" lon="12.4112891"><ele>599.6666666666667</ele><time>2026-03-22T15:00:11.983Z</time></trkpt><trkpt lat="43.8307798" lon="12.4114845"><ele>598.3333333333334</ele><time>2026-03-22T15:00:12.983Z</time></trkpt><trkpt lat="43.83093" lon="12.4116815"><ele>597.0</ele><time>2026-03-22T15:00:13.983Z</time></trkpt><trkpt lat="43.8310811" lon="12.4118623"><ele>597.0</ele><time>2026-03-22T15:00:14.983Z</time></trkpt><trkpt lat="43.8312323" lon="12.4120236"><ele>597.0</ele><time>2026-03-22T15:00:15.983Z</time></trkpt><trkpt lat="43.8313881" lon="12.4121715"><ele>597.0</ele><time>2026-03-22T15:00:16.983Z</time></trkpt><trkpt lat="43.8315615" lon="12.4123125"><ele>594.3333333333334</ele><time>2026-03-22T15:00:17.982Z</time></trkpt><trkpt lat="43.8317356" lon="12.4124417"><ele>591.6666666666667</ele><time>2026-03-22T15:00:18.983Z</time></trkpt><trkpt lat="43.8318855" lon="12.4125538"><ele>589.0</ele><time>2026-03-22T15:00:19.983Z</time></trkpt><trkpt lat="43.8320057" lon="12.4126462"><ele>589.0</ele><time>2026-03-22T15:00:20.983Z</time></trkpt><trkpt lat="43.8321191" lon="12.4127376"><ele>589.0</ele><time>2026-03-22T15:00:21.983Z</time></trkpt><trkpt lat="43.8322176" lon="12.4128307"><ele>589.0</ele><time>2026-03-22T15:00:22.983Z</time></trkpt><trkpt lat="43.8323015" lon="12.4129318"><ele>589.0</ele><time>2026-03-22T15:00:23.983Z</time></trkpt><trkpt lat="43.8323731" lon="12.4130381"><ele>590.8333333333334</ele><time>2026-03-22T15:00:24.983Z</time></trkpt><trkpt lat="43.832438" lon="12.4131374"><ele>592.6666666666667</ele><time>2026-03-22T15:00:25.982Z</time></trkpt><trkpt lat="43.832493" lon="12.413217"><ele>594.5</ele><time>2026-03-22T15:00:26.983Z</time></trkpt><trkpt lat="43.8325517" lon="12.4133293"><ele>596.3333333333334</ele><time>2026-03-22T15:00:28.983Z</time></trkpt><trkpt lat="43.8325502" lon="12.4134599"><ele>598.1666666666666</ele><time>2026-03-22T15:00:31.983Z</time></trkpt><trkpt lat="43.8326129" lon="12.4134131"><ele>600.0</ele><time>2026-03-22T15:00:35.982Z</time></trkpt><trkpt lat="43.8325881" lon="12.4133062"><ele>600.0</ele><time>2026-03-22T15:00:37.983Z</time></trkpt><trkpt lat="43.8325317" lon="12.4132365"><ele>600.0</ele><time>2026-03-22T15:00:38.983Z</time></trkpt><trkpt lat="43.8324611" lon="12.413129"><ele>600.0</ele><time>2026-03-22T15:00:39.983Z</time></trkpt><trkpt lat="43.8323747" lon="12.4129996"><ele>600.0</ele><time>2026-03-22T15:00:40.983Z</time></trkpt><trkpt lat="43.832272" lon="12.4128675"><ele>600.0</ele><time>2026-03-22T15:00:41.983Z</time></trkpt><trkpt lat="43.8321565" lon="12.4127467"><ele>601.5</ele><time>2026-03-22T15:00:42.983Z</time></trkpt><trkpt lat="43.83204" lon="12.412641"><ele>603.0</ele><time>2026-03-22T15:00:43.982Z</time></trkpt><trkpt lat="43.8319284" lon="12.4125586"><ele>604.5</ele><time>2026-03-22T15:00:44.983Z</time></trkpt><trkpt lat="43.8318264" lon="12.4124874"><ele>606.0</ele><time>2026-03-22T15:00:45.982Z</time></trkpt><trkpt lat="43.8317505" lon="12.4124247"><ele>606.0</ele><time>2026-03-22T15:00:46.982Z</time></trkpt><trkpt lat="43.8316947" lon="12.4123768"><ele>606.0</ele><time>2026-03-22T15:00:47.982Z</time></trkpt><trkpt lat="43.831651" lon="12.4122999"><ele>606.0</ele><time>2026-03-22T15:00:49.983Z</time></trkpt><trkpt lat="43.8316787" lon="12.4122189"><ele>606.0</ele><time>2026-03-22T15:00:51.983Z</time></trkpt><trkpt lat="43.8317428" lon="12.4121609"><ele>606.0</ele><time>2026-03-22T15:00:53.982Z</time></trkpt><trkpt lat="43.8318283" lon="12.4120856"><ele>606.0</ele><time>2026-03-22T15:00:55.983Z</time></trkpt><trkpt lat="43.8319264" lon="12.411994"><ele>602.7142857142858</ele><time>2026-03-22T15:00:57.983Z</time></trkpt><trkpt lat="43.831983" lon="12.4119499"><ele>599.4285714285714</ele><time>2026-03-22T15:00:58.983Z</time></trkpt><trkpt lat="43.8320364" lon="12.4118979"><ele>596.1428571428571</ele><time>2026-03-22T15:00:59.982Z</time></trkpt><trkpt lat="43.8320936" lon="12.4118459"><ele>592.8571428571429</ele><time>2026-03-22T15:01:00.983Z</time></trkpt><trkpt lat="43.8321511" lon="12.4117874"><ele>589.5714285714286</ele><time>2026-03-22T15:01:01.982Z</time></trkpt><trkpt lat="43.8322186" lon="12.4117198"><ele>586.2857142857143</ele><time>2026-03-22T15:01:02.982Z</time></trkpt><trkpt lat="43.832296" lon="12.4116471"><ele>583.0</ele><time>2026-03-22T15:01:03.983Z</time></trkpt><trkpt lat="43.8323781" lon="12.4115711"><ele>583.0</ele><time>2026-03-22T15:01:04.983Z</time></trkpt><trkpt lat="43.8324547" lon="12.4115037"><ele>583.0</ele><time>2026-03-22T15:01:05.983Z</time></trkpt><trkpt lat="43.8325306" lon="12.4114372"><ele>583.0</ele><time>2026-03-22T15:01:06.983Z</time></trkpt><trkpt lat="43.8326004" lon="12.4113716"><ele>583.0</ele><time>2026-03-22T15:01:07.983Z</time></trkpt><trkpt lat="43.8326622" lon="12.4113117"><ele>583.0</ele><time>2026-03-22T15:01:08.982Z</time></trkpt><trkpt lat="43.8327198" lon="12.4112554"><ele>583.0</ele><time>2026-03-22T15:01:09.982Z</time></trkpt><trkpt lat="43.8327747" lon="12.4112043"><ele>580.5714285714287</ele><time>2026-03-22T15:01:10.983Z</time></trkpt><trkpt lat="43.8328286" lon="12.4111454"><ele>578.1428571428571</ele><time>2026-03-22T15:01:11.982Z</time></trkpt><trkpt lat="43.832888" lon="12.4110754"><ele>575.7142857142858</ele><time>2026-03-22T15:01:12.983Z</time></trkpt><trkpt lat="43.8329398" lon="12.410998"><ele>573.2857142857143</ele><time>2026-03-22T15:01:13.983Z</time></trkpt><trkpt lat="43.8329874" lon="12.4109159"><ele>570.8571428571429</ele><time>2026-03-22T15:01:14.983Z</time></trkpt><trkpt lat="43.8330305" lon="12.4108356"><ele>568.4285714285714</ele><time>2026-03-22T15:01:15.982Z</time></trkpt><trkpt lat="43.8330785" lon="12.4107609"><ele>566.0</ele><time>2026-03-22T15:01:16.983Z</time></trkpt><trkpt lat="43.8331315" lon="12.4106911"><ele>566.0</ele><time>2026-03-22T15:01:17.983Z</time></trkpt><trkpt lat="43.8331884" lon="12.4106182"><ele>566.0</ele><time>2026-03-22T15:01:18.982Z</time></trkpt><trkpt lat="43.8332441" lon="12.4105543"><ele>566.0</ele><time>2026-03-22T15:01:19.982Z</time></trkpt><trkpt lat="43.8333084" lon="12.4104899"><ele>566.0</ele><time>2026-03-22T15:01:20.983Z</time></trkpt><trkpt lat="43.8333642" lon="12.4104147"><ele>566.0</ele><time>2026-03-22T15:01:21.982Z</time></trkpt><trkpt lat="43.8334138" lon="12.4103445"><ele>566.0</ele><time>2026-03-22T15:01:22.983Z</time></trkpt><trkpt lat="43.833464" lon="12.410261"><ele>563.6666666666666</ele><time>2026-03-22T15:01:23.982Z</time></trkpt><trkpt lat="43.8335261" lon="12.4101868"><ele>561.3333333333333</ele><time>2026-03-22T15:01:24.983Z</time></trkpt><trkpt lat="43.833601" lon="12.4101135"><ele>559.0</ele><time>2026-03-22T15:01:25.982Z</time></trkpt><trkpt lat="43.8336732" lon="12.410051"><ele>556.6666666666666</ele><time>2026-03-22T15:01:26.982Z</time></trkpt><trkpt lat="43.8337483" lon="12.4099885"><ele>554.3333333333334</ele><time>2026-03-22T15:01:27.982Z</time></trkpt><trkpt lat="43.8338191" lon="12.4099258"><ele>552.0</ele><time>2026-03-22T15:01:28.983Z</time></trkpt><trkpt lat="43.8338923" lon="12.4098489"><ele>552.0</ele><time>2026-03-22T15:01:29.983Z</time></trkpt><trkpt lat="43.8339677" lon="12.4097647"><ele>552.0</ele><time>2026-03-22T15:01:30.983Z</time></trkpt><trkpt lat="43.8340462" lon="12.409682"><ele>552.0</ele><time>2026-03-22T15:01:31.983Z</time></trkpt><trkpt lat="43.8341275" lon="12.4096117"><ele>552.0</ele><time>2026-03-22T15:01:32.982Z</time></trkpt><trkpt lat="43.8342028" lon="12.4095523"><ele>552.0</ele><time>2026-03-22T15:01:33.983Z</time></trkpt><trkpt lat="43.8342679" lon="12.4095031"><ele>549.8000000000001</ele><time>2026-03-22T15:01:34.983Z</time></trkpt><trkpt lat="43.8343617" lon="12.409432"><ele>547.6</ele><time>2026-03-22T15:01:36.983Z</time></trkpt><trkpt lat="43.8344559" lon="12.4093534"><ele>545.4000000000001</ele><time>2026-03-22T15:01:38.982Z</time></trkpt><trkpt lat="43.8345565" lon="12.4092513"><ele>543.2</ele><time>2026-03-22T15:01:40.982Z</time></trkpt><trkpt lat="43.8346094" lon="12.4091871"><ele>541.0</ele><time>2026-03-22T15:01:41.982Z</time></trkpt><trkpt lat="43.8346637" lon="12.4091249"><ele>541.0</ele><time>2026-03-22T15:01:42.983Z</time></trkpt><trkpt lat="43.8347232" lon="12.4090567"><ele>541.0</ele><time>2026-03-22T15:01:43.982Z</time></trkpt><trkpt lat="43.8347767" lon="12.4089939"><ele>541.0</ele><time>2026-03-22T15:01:44.983Z</time></trkpt><trkpt lat="43.8348265" lon="12.4089328"><ele>541.0</ele><time>2026-03-22T15:01:45.983Z</time></trkpt><trkpt lat="43.834902" lon="12.4088383"><ele>541.0</ele><time>2026-03-22T15:01:47.983Z</time></trkpt><trkpt lat="43.8349468" lon="12.4087688"><ele>541.0</ele><time>2026-03-22T15:01:49.982Z</time></trkpt><trkpt lat="43.8350012" lon="12.4086789"><ele>540.2</ele><time>2026-03-22T15:01:52.982Z</time></trkpt><trkpt lat="43.8350609" lon="12.4085721"><ele>539.4000000000001</ele><time>2026-03-22T15:01:54.983Z</time></trkpt><trkpt lat="43.8351189" lon="12.4084415"><ele>538.6</ele><time>2026-03-22T15:01:56.982Z</time></trkpt><trkpt lat="43.8351373" lon="12.4083505"><ele>537.8000000000001</ele><time>2026-03-22T15:02:00.016Z</time></trkpt><trkpt lat="43.8351385" lon="12.4082132"><ele>537.0</ele><time>2026-03-22T15:02:01.982Z</time></trkpt><trkpt lat="43.835166" lon="12.4081026"><ele>534.8333333333334</ele><time>2026-03-22T15:02:04.983Z</time></trkpt><trkpt lat="43.835231" lon="12.4081228"><ele>532.6666666666666</ele><time>2026-03-22T15:02:06.982Z</time></trkpt><trkpt lat="43.8353078" lon="12.4082411"><ele>530.5</ele><time>2026-03-22T15:02:08.983Z</time></trkpt><trkpt lat="43.8353483" lon="12.4083107"><ele>528.3333333333333</ele><time>2026-03-22T15:02:09.982Z</time></trkpt><trkpt lat="43.8353907" lon="12.4083796"><ele>526.1666666666666</ele><time>2026-03-22T15:02:10.982Z</time></trkpt><trkpt lat="43.835441" lon="12.4084605"><ele>524.0</ele><time>2026-03-22T15:02:11.982Z</time></trkpt><trkpt lat="43.8355007" lon="12.4085597"><ele>524.0</ele><time>2026-03-22T15:02:12.983Z</time></trkpt><trkpt lat="43.8355596" lon="12.4086667"><ele>524.0</ele><time>2026-03-22T15:02:13.983Z</time></trkpt><trkpt lat="43.8356166" lon="12.408768"><ele>524.0</ele><time>2026-03-22T15:02:14.983Z</time></trkpt><trkpt lat="43.8356773" lon="12.4088543"><ele>524.0</ele><time>2026-03-22T15:02:15.983Z</time></trkpt><trkpt lat="43.8357405" lon="12.4089302"><ele>524.0</ele><time>2026-03-22T15:02:16.982Z</time></trkpt><trkpt lat="43.8358057" lon="12.4090073"><ele>524.0</ele><time>2026-03-22T15:02:17.983Z</time></trkpt><trkpt lat="43.8358725" lon="12.4090834"><ele>524.0</ele><time>2026-03-22T15:02:18.983Z</time></trkpt><trkpt lat="43.8359366" lon="12.4091668"><ele>524.0</ele><time>2026-03-22T15:02:19.983Z</time></trkpt><trkpt lat="43.8359916" lon="12.409276"><ele>524.0</ele><time>2026-03-22T15:02:20.982Z</time></trkpt><trkpt lat="43.8360402" lon="12.4093901"><ele>524.0</ele><time>2026-03-22T15:02:21.982Z</time></trkpt><trkpt lat="43.8360905" lon="12.4094967"><ele>524.0</ele><time>2026-03-22T15:02:22.983Z</time></trkpt><trkpt lat="43.8361489" lon="12.4096005"><ele>522.0</ele><time>2026-03-22T15:02:23.983Z</time></trkpt><trkpt lat="43.8362123" lon="12.4096994"><ele>520.0</ele><time>2026-03-22T15:02:24.982Z</time></trkpt><trkpt lat="43.8362874" lon="12.4097841"><ele>518.0</ele><time>2026-03-22T15:02:25.982Z</time></trkpt><trkpt lat="43.8363668" lon="12.4098607"><ele>516.0</ele><time>2026-03-22T15:02:26.983Z</time></trkpt><trkpt lat="43.8364412" lon="12.4099543"><ele>514.0</ele><time>2026-03-22T15:02:27.983Z</time></trkpt><trkpt lat="43.8365106" lon="12.4100762"><ele>514.0</ele><time>2026-03-22T15:02:28.983Z</time></trkpt><trkpt lat="43.8365647" lon="12.4102155"><ele>514.0</ele><time>2026-03-22T15:02:29.982Z</time></trkpt><trkpt lat="43.8366037" lon="12.4103495"><ele>514.0</ele><time>2026-03-22T15:02:30.982Z</time></trkpt><trkpt lat="43.8366541" lon="12.4104733"><ele>514.0</ele><time>2026-03-22T15:02:31.983Z</time></trkpt><trkpt lat="43.8367296" lon="12.4106037"><ele>514.0</ele><time>2026-03-22T15:02:32.983Z</time></trkpt><trkpt lat="43.8368327" lon="12.4107483"><ele>515.5</ele><time>2026-03-22T15:02:33.983Z</time></trkpt><trkpt lat="43.8369487" lon="12.4108806"><ele>517.0</ele><time>2026-03-22T15:02:34.982Z</time></trkpt><trkpt lat="43.8370625" lon="12.410993"><ele>518.5</ele><time>2026-03-22T15:02:35.983Z</time></trkpt><trkpt lat="43.8371577" lon="12.4110981"><ele>520.0</ele><time>2026-03-22T15:02:36.982Z</time></trkpt><trkpt lat="43.8372442" lon="12.4112109"><ele>520.0</ele><time>2026-03-22T15:02:37.982Z</time></trkpt><trkpt lat="43.8373133" lon="12.4113087"><ele>520.0</ele><time>2026-03-22T15:02:38.982Z</time></trkpt><trkpt lat="43.8373718" lon="12.411401"><ele>520.0</ele><time>2026-03-22T15:02:39.983Z</time></trkpt><trkpt lat="43.8374242" lon="12.4115102"><ele>520.0</ele><time>2026-03-22T15:02:40.983Z</time></trkpt><trkpt lat="43.8374624" lon="12.4116463"><ele>520.0</ele><time>2026-03-22T15:02:41.983Z</time></trkpt><trkpt lat="43.8374847" lon="12.4118031"><ele>521.25</ele><time>2026-03-22T15:02:42.982Z</time></trkpt><trkpt lat="43.8374962" lon="12.4119769"><ele>522.5</ele><time>2026-03-22T15:02:43.983Z</time></trkpt><trkpt lat="43.8375006" lon="12.4121653"><ele>523.75</ele><time>2026-03-22T15:02:44.982Z</time></trkpt><trkpt lat="43.8375015" lon="12.4123476"><ele>525.0</ele><time>2026-03-22T15:02:45.983Z</time></trkpt><trkpt lat="43.8375031" lon="12.4125229"><ele>525.0</ele><time>2026-03-22T15:02:46.982Z</time></trkpt><trkpt lat="43.8375122" lon="12.4126827"><ele>525.0</ele><time>2026-03-22T15:02:47.982Z</time></trkpt><trkpt lat="43.837535" lon="12.4128354"><ele>525.0</ele><time>2026-03-22T15:02:48.982Z</time></trkpt><trkpt lat="43.83758" lon="12.4129698"><ele>525.0</ele><time>2026-03-22T15:02:49.983Z</time></trkpt><trkpt lat="43.8376429" lon="12.4130864"><ele>525.0</ele><time>2026-03-22T15:02:50.983Z</time></trkpt><trkpt lat="43.8377188" lon="12.4132066"><ele>524.4</ele><time>2026-03-22T15:02:51.983Z</time></trkpt><trkpt lat="43.8378" lon="12.4133232"><ele>523.8</ele><time>2026-03-22T15:02:52.982Z</time></trkpt><trkpt lat="43.8378808" lon="12.4134105"><ele>523.2</ele><time>2026-03-22T15:02:53.982Z</time></trkpt><trkpt lat="43.8379572" lon="12.4134801"><ele>522.6</ele><time>2026-03-22T15:02:54.982Z</time></trkpt><trkpt lat="43.8380298" lon="12.4135348"><ele>522.0</ele><time>2026-03-22T15:02:55.983Z</time></trkpt><trkpt lat="43.8380903" lon="12.4135721"><ele>522.0</ele><time>2026-03-22T15:02:56.982Z</time></trkpt><trkpt lat="43.8381755" lon="12.4136169"><ele>522.0</ele><time>2026-03-22T15:02:58.982Z</time></trkpt><trkpt lat="43.8382659" lon="12.4136482"><ele>522.0</ele><time>2026-03-22T15:03:00.983Z</time></trkpt><trkpt lat="43.8383863" lon="12.4136813"><ele>522.0</ele><time>2026-03-22T15:03:02.983Z</time></trkpt><trkpt lat="43.8384713" lon="12.4137192"><ele>522.0</ele><time>2026-03-22T15:03:03.983Z</time></trkpt><trkpt lat="43.8385552" lon="12.4137694"><ele>521.5</ele><time>2026-03-22T15:03:04.982Z</time></trkpt><trkpt lat="43.8386391" lon="12.4138195"><ele>521.0</ele><time>2026-03-22T15:03:05.982Z</time></trkpt><trkpt lat="43.8387157" lon="12.4138722"><ele>520.5</ele><time>2026-03-22T15:03:06.982Z</time></trkpt><trkpt lat="43.8387859" lon="12.4139309"><ele>520.0</ele><time>2026-03-22T15:03:07.982Z</time></trkpt><trkpt lat="43.8388506" lon="12.4139963"><ele>519.5</ele><time>2026-03-22T15:03:08.983Z</time></trkpt><trkpt lat="43.8389038" lon="12.414067"><ele>519.0</ele><time>2026-03-22T15:03:09.982Z</time></trkpt><trkpt lat="43.8389466" lon="12.414142"><ele>519.0</ele><time>2026-03-22T15:03:10.982Z</time></trkpt><trkpt lat="43.8389886" lon="12.4142172"><ele>519.0</ele><time>2026-03-22T15:03:11.983Z</time></trkpt><trkpt lat="43.8390305" lon="12.4143043"><ele>519.0</ele><time>2026-03-22T15:03:12.982Z</time></trkpt><trkpt lat="43.8390804" lon="12.4144001"><ele>519.0</ele><time>2026-03-22T15:03:13.983Z</time></trkpt><trkpt lat="43.8391331" lon="12.4145002"><ele>519.0</ele><time>2026-03-22T15:03:14.982Z</time></trkpt><trkpt lat="43.8391855" lon="12.4146001"><ele>519.0</ele><time>2026-03-22T15:03:15.982Z</time></trkpt><trkpt lat="43.8392381" lon="12.4147078"><ele>519.2</ele><time>2026-03-22T15:03:16.983Z</time></trkpt><trkpt lat="43.839293" lon="12.4148206"><ele>519.4</ele><time>2026-03-22T15:03:17.982Z</time></trkpt><trkpt lat="43.8393581" lon="12.4149366"><ele>519.6</ele><time>2026-03-22T15:03:18.982Z</time></trkpt><trkpt lat="43.8394369" lon="12.415037"><ele>519.8</ele><time>2026-03-22T15:03:19.983Z</time></trkpt><trkpt lat="43.8395431" lon="12.4151143"><ele>520.0</ele><time>2026-03-22T15:03:20.982Z</time></trkpt><trkpt lat="43.8396681" lon="12.4151585"><ele>517.0</ele><time>2026-03-22T15:03:21.983Z</time></trkpt><trkpt lat="43.8398007" lon="12.415184"><ele>514.0</ele><time>2026-03-22T15:03:22.982Z</time></trkpt><trkpt lat="43.8399187" lon="12.4152069"><ele>511.0</ele><time>2026-03-22T15:03:23.983Z</time></trkpt><trkpt lat="43.8400283" lon="12.415246"><ele>508.0</ele><time>2026-03-22T15:03:24.982Z</time></trkpt><trkpt lat="43.8401264" lon="12.4153219"><ele>506.2</ele><time>2026-03-22T15:03:25.982Z</time></trkpt><trkpt lat="43.8401995" lon="12.4154231"><ele>504.4</ele><time>2026-03-22T15:03:26.983Z</time></trkpt><trkpt lat="43.8402519" lon="12.4155491"><ele>502.59999999999997</ele><time>2026-03-22T15:03:27.982Z</time></trkpt><trkpt lat="43.8402869" lon="12.4156985"><ele>500.79999999999995</ele><time>2026-03-22T15:03:28.982Z</time></trkpt><trkpt lat="43.8403443" lon="12.4158524"><ele>499.0</ele><time>2026-03-22T15:03:29.983Z</time></trkpt><trkpt lat="43.8404284" lon="12.4160085"><ele>499.0</ele><time>2026-03-22T15:03:30.983Z</time></trkpt><trkpt lat="43.8405282" lon="12.416161"><ele>499.0</ele><time>2026-03-22T15:03:31.982Z</time></trkpt><trkpt lat="43.840617" lon="12.4163172"><ele>499.0</ele><time>2026-03-22T15:03:32.983Z</time></trkpt><trkpt lat="43.8406869" lon="12.4164952"><ele>499.0</ele><time>2026-03-22T15:03:33.983Z</time></trkpt><trkpt lat="43.8407378" lon="12.4166882"><ele>499.25</ele><time>2026-03-22T15:03:34.982Z</time></trkpt><trkpt lat="43.8407852" lon="12.4168505"><ele>499.5</ele><time>2026-03-22T15:03:35.983Z</time></trkpt><trkpt lat="43.8408494" lon="12.4170048"><ele>499.75</ele><time>2026-03-22T15:03:36.982Z</time></trkpt><trkpt lat="43.8409428" lon="12.417141"><ele>500.0</ele><time>2026-03-22T15:03:37.982Z</time></trkpt><trkpt lat="43.8410608" lon="12.4172536"><ele>497.3333333333333</ele><time>2026-03-22T15:03:38.982Z</time></trkpt><trkpt lat="43.8411953" lon="12.4173647"><ele>494.66666666666663</ele><time>2026-03-22T15:03:39.983Z</time></trkpt><trkpt lat="43.8413311" lon="12.4174772"><ele>492.0</ele><time>2026-03-22T15:03:40.983Z</time></trkpt><trkpt lat="43.8414656" lon="12.4175857"><ele>492.0</ele><time>2026-03-22T15:03:41.982Z</time></trkpt><trkpt lat="43.8415993" lon="12.4176833"><ele>492.0</ele><time>2026-03-22T15:03:42.983Z</time></trkpt><trkpt lat="43.8417306" lon="12.4177771"><ele>492.0</ele><time>2026-03-22T15:03:43.982Z</time></trkpt><trkpt lat="43.8418593" lon="12.4178654"><ele>492.0</ele><time>2026-03-22T15:03:44.982Z</time></trkpt><trkpt lat="43.8419855" lon="12.4179462"><ele>490.75</ele><time>2026-03-22T15:03:45.982Z</time></trkpt><trkpt lat="43.8421105" lon="12.4180232"><ele>489.5</ele><time>2026-03-22T15:03:46.982Z</time></trkpt><trkpt lat="43.8422317" lon="12.4180997"><ele>488.25</ele><time>2026-03-22T15:03:47.982Z</time></trkpt><trkpt lat="43.8423472" lon="12.4181772"><ele>487.0</ele><time>2026-03-22T15:03:48.982Z</time></trkpt><trkpt lat="43.8424517" lon="12.4182512"><ele>487.0</ele><time>2026-03-22T15:03:49.982Z</time></trkpt><trkpt lat="43.8425463" lon="12.4183077"><ele>487.00000000000006</ele><time>2026-03-22T15:03:50.983Z</time></trkpt><trkpt lat="43.8426282" lon="12.4183353"><ele>487.00000000000006</ele><time>2026-03-22T15:03:51.983Z</time></trkpt><trkpt lat="43.8426994" lon="12.4183234"><ele>487.0</ele><time>2026-03-22T15:03:52.982Z</time></trkpt><trkpt lat="43.842782" lon="12.4181842"><ele>487.0</ele><time>2026-03-22T15:03:54.982Z</time></trkpt><trkpt lat="43.8427889" lon="12.418081"><ele>485.6</ele><time>2026-03-22T15:03:55.983Z</time></trkpt><trkpt lat="43.8427637" lon="12.4179824"><ele>484.20000000000005</ele><time>2026-03-22T15:03:56.983Z</time></trkpt><trkpt lat="43.8427056" lon="12.4178901"><ele>482.8</ele><time>2026-03-22T15:03:57.982Z</time></trkpt><trkpt lat="43.8426168" lon="12.4177952"><ele>481.4</ele><time>2026-03-22T15:03:58.983Z</time></trkpt><trkpt lat="43.8425099" lon="12.4176905"><ele>480.0</ele><time>2026-03-22T15:03:59.982Z</time></trkpt><trkpt lat="43.8424131" lon="12.4175941"><ele>480.0</ele><time>2026-03-22T15:04:00.983Z</time></trkpt><trkpt lat="43.8423267" lon="12.4175057"><ele>480.0</ele><time>2026-03-22T15:04:01.982Z</time></trkpt><trkpt lat="43.8422724" lon="12.4174042"><ele>480.0</ele><time>2026-03-22T15:04:02.982Z</time></trkpt><trkpt lat="43.8422497" lon="12.4172984"><ele>480.0</ele><time>2026-03-22T15:04:03.982Z</time></trkpt><trkpt lat="43.8422701" lon="12.4171895"><ele>480.0</ele><time>2026-03-22T15:04:04.983Z</time></trkpt><trkpt lat="43.8423232" lon="12.4170783"><ele>478.75</ele><time>2026-03-22T15:04:05.982Z</time></trkpt><trkpt lat="43.8423991" lon="12.4169987"><ele>477.5</ele><time>2026-03-22T15:04:06.983Z</time></trkpt><trkpt lat="43.8425097" lon="12.416952"><ele>476.25</ele><time>2026-03-22T15:04:07.982Z</time></trkpt><trkpt lat="43.8426543" lon="12.4169167"><ele>475.0</ele><time>2026-03-22T15:04:08.982Z</time></trkpt><trkpt lat="43.8428083" lon="12.4168871"><ele>472.25</ele><time>2026-03-22T15:04:09.982Z</time></trkpt><trkpt lat="43.8429399" lon="12.4168611"><ele>469.5</ele><time>2026-03-22T15:04:10.983Z</time></trkpt><trkpt lat="43.8430585" lon="12.4168582"><ele>466.75</ele><time>2026-03-22T15:04:11.983Z</time></trkpt><trkpt lat="43.8431626" lon="12.4168989"><ele>464.0</ele><time>2026-03-22T15:04:12.982Z</time></trkpt><trkpt lat="43.8432574" lon="12.4169825"><ele>464.0</ele><time>2026-03-22T15:04:13.983Z</time></trkpt><trkpt lat="43.8433502" lon="12.4171077"><ele>464.0</ele><time>2026-03-22T15:04:14.983Z</time></trkpt><trkpt lat="43.8434355" lon="12.4172143"><ele>464.0</ele><time>2026-03-22T15:04:15.983Z</time></trkpt><trkpt lat="43.8435262" lon="12.4172832"><ele>464.0</ele><time>2026-03-22T15:04:16.982Z</time></trkpt><trkpt lat="43.843636" lon="12.4173065"><ele>461.75</ele><time>2026-03-22T15:04:17.983Z</time></trkpt><trkpt lat="43.8437666" lon="12.4172798"><ele>459.5</ele><time>2026-03-22T15:04:18.982Z</time></trkpt><trkpt lat="43.8439044" lon="12.4172169"><ele>457.25</ele><time>2026-03-22T15:04:19.982Z</time></trkpt><trkpt lat="43.8440484" lon="12.4171357"><ele>455.0</ele><time>2026-03-22T15:04:20.982Z</time></trkpt><trkpt lat="43.8441982" lon="12.4170448"><ele>457.0</ele><time>2026-03-22T15:04:21.983Z</time></trkpt><trkpt lat="43.8443517" lon="12.4169496"><ele>459.0</ele><time>2026-03-22T15:04:22.983Z</time></trkpt><trkpt lat="43.8445097" lon="12.4168511"><ele>461.0</ele><time>2026-03-22T15:04:23.983Z</time></trkpt><trkpt lat="43.8446733" lon="12.4167521"><ele>461.0</ele><time>2026-03-22T15:04:24.983Z</time></trkpt><trkpt lat="43.8448354" lon="12.4166552"><ele>461.0</ele><time>2026-03-22T15:04:25.983Z</time></trkpt><trkpt lat="43.844986" lon="12.4165717"><ele>461.0</ele><time>2026-03-22T15:04:26.982Z</time></trkpt><trkpt lat="43.845122" lon="12.4165041"><ele>464.20000000000005</ele><time>2026-03-22T15:04:27.983Z</time></trkpt><trkpt lat="43.8452317" lon="12.4164719"><ele>467.40000000000003</ele><time>2026-03-22T15:04:28.982Z</time></trkpt><trkpt lat="43.8453243" lon="12.4164844"><ele>470.6</ele><time>2026-03-22T15:04:29.983Z</time></trkpt><trkpt lat="43.8454099" lon="12.4165403"><ele>473.8</ele><time>2026-03-22T15:04:30.983Z</time></trkpt><trkpt lat="43.8454813" lon="12.4166399"><ele>477.0</ele><time>2026-03-22T15:04:31.982Z</time></trkpt><trkpt lat="43.8455404" lon="12.4167807"><ele>477.0</ele><time>2026-03-22T15:04:32.983Z</time></trkpt><trkpt lat="43.8455887" lon="12.4169587"><ele>477.0</ele><time>2026-03-22T15:04:33.982Z</time></trkpt><trkpt lat="43.8456333" lon="12.4171729"><ele>477.0</ele><time>2026-03-22T15:04:34.983Z</time></trkpt><trkpt lat="43.84568" lon="12.4174129"><ele>477.0</ele><time>2026-03-22T15:04:35.983Z</time></trkpt><trkpt lat="43.8457322" lon="12.4176771"><ele>477.0</ele><time>2026-03-22T15:04:36.982Z</time></trkpt><trkpt lat="43.8457884" lon="12.4179585"><ele>477.0</ele><time>2026-03-22T15:04:37.983Z</time></trkpt><trkpt lat="43.8458449" lon="12.4182251"><ele>476.66666666666663</ele><time>2026-03-22T15:04:38.982Z</time></trkpt><trkpt lat="43.8458983" lon="12.4184697"><ele>476.3333333333333</ele><time>2026-03-22T15:04:39.982Z</time></trkpt><trkpt lat="43.8460044" lon="12.4186764"><ele>476.0</ele><time>2026-03-22T15:04:40.982Z</time></trkpt><trkpt lat="43.8461166" lon="12.4188949"><ele>476.0</ele><time>2026-03-22T15:04:41.983Z</time></trkpt><trkpt lat="43.8462432" lon="12.4190989"><ele>476.0</ele><time>2026-03-22T15:04:42.983Z</time></trkpt><trkpt lat="43.8463446" lon="12.4192668"><ele>476.0</ele><time>2026-03-22T15:04:43.983Z</time></trkpt><trkpt lat="43.8464272" lon="12.4194113"><ele>475.99999999999994</ele><time>2026-03-22T15:04:44.983Z</time></trkpt><trkpt lat="43.8464962" lon="12.4195382"><ele>476.0</ele><time>2026-03-22T15:04:45.983Z</time></trkpt><trkpt lat="43.8465379" lon="12.4196403"><ele>476.0</ele><time>2026-03-22T15:04:46.983Z</time></trkpt><trkpt lat="43.8465601" lon="12.4197391"><ele>476.0</ele><time>2026-03-22T15:04:47.982Z</time></trkpt><trkpt lat="43.8465669" lon="12.4198316"><ele>475.99999999999994</ele><time>2026-03-22T15:04:48.982Z</time></trkpt><trkpt lat="43.8466002" lon="12.4199521"><ele>476.0</ele><time>2026-03-22T15:04:50.983Z</time></trkpt><trkpt lat="43.8466595" lon="12.4199128"><ele>476.0</ele><time>2026-03-22T15:04:53.983Z</time></trkpt><trkpt lat="43.8466374" lon="12.4197581"><ele>476.0</ele><time>2026-03-22T15:04:55.982Z</time></trkpt><trkpt lat="43.8465999" lon="12.419668"><ele>476.0</ele><time>2026-03-22T15:04:56.983Z</time></trkpt><trkpt lat="43.8465452" lon="12.4195601"><ele>476.0</ele><time>2026-03-22T15:04:57.982Z</time></trkpt><trkpt lat="43.8464703" lon="12.4194343"><ele>476.0</ele><time>2026-03-22T15:04:58.983Z</time></trkpt><trkpt lat="43.8463787" lon="12.4192925"><ele>476.0</ele><time>2026-03-22T15:04:59.982Z</time></trkpt><trkpt lat="43.8462746" lon="12.4191444"><ele>476.0</ele><time>2026-03-22T15:05:00.983Z</time></trkpt><trkpt lat="43.8461867" lon="12.419016"><ele>476.0</ele><time>2026-03-22T15:05:01.983Z</time></trkpt><trkpt lat="43.8461194" lon="12.4189109"><ele>476.0</ele><time>2026-03-22T15:05:02.982Z</time></trkpt><trkpt lat="43.846068" lon="12.4188235"><ele>479.4</ele><time>2026-03-22T15:05:03.983Z</time></trkpt><trkpt lat="43.8460546" lon="12.4187276"><ele>482.8</ele><time>2026-03-22T15:05:05.982Z</time></trkpt><trkpt lat="43.8461213" lon="12.4186474"><ele>486.19999999999993</ele><time>2026-03-22T15:05:07.983Z</time></trkpt><trkpt lat="43.8462737" lon="12.4185885"><ele>489.59999999999997</ele><time>2026-03-22T15:05:09.983Z</time></trkpt><trkpt lat="43.8463777" lon="12.4185754"><ele>493.0</ele><time>2026-03-22T15:05:10.983Z</time></trkpt><trkpt lat="43.8464847" lon="12.4186286"><ele>493.0</ele><time>2026-03-22T15:05:11.982Z</time></trkpt><trkpt lat="43.8465869" lon="12.418662"><ele>492.99999999999994</ele><time>2026-03-22T15:05:12.983Z</time></trkpt><trkpt lat="43.8466902" lon="12.418695"><ele>492.99999999999994</ele><time>2026-03-22T15:05:13.982Z</time></trkpt><trkpt lat="43.8467922" lon="12.4187216"><ele>493.0</ele><time>2026-03-22T15:05:14.983Z</time></trkpt><trkpt lat="43.8469251" lon="12.4186986"><ele>493.0</ele><time>2026-03-22T15:05:15.983Z</time></trkpt><trkpt lat="43.8470531" lon="12.4186826"><ele>495.0</ele><time>2026-03-22T15:05:16.983Z</time></trkpt><trkpt lat="43.8471717" lon="12.4186571"><ele>497.0</ele><time>2026-03-22T15:05:17.983Z</time></trkpt><trkpt lat="43.8472976" lon="12.4186138"><ele>499.0</ele><time>2026-03-22T15:05:18.983Z</time></trkpt><trkpt lat="43.8474113" lon="12.4185558"><ele>501.0</ele><time>2026-03-22T15:05:19.983Z</time></trkpt><trkpt lat="43.8475128" lon="12.4184788"><ele>501.0</ele><time>2026-03-22T15:05:20.983Z</time></trkpt><trkpt lat="43.8475942" lon="12.4184011"><ele>501.0</ele><time>2026-03-22T15:05:21.983Z</time></trkpt><trkpt lat="43.8476567" lon="12.4183334"><ele>501.0</ele><time>2026-03-22T15:05:22.983Z</time></trkpt><trkpt lat="43.8477147" lon="12.4182929"><ele>501.0</ele><time>2026-03-22T15:05:23.982Z</time></trkpt><trkpt lat="43.84783" lon="12.4182659"><ele>501.0</ele><time>2026-03-22T15:05:25.982Z</time></trkpt><trkpt lat="43.8478962" lon="12.4182875"><ele>501.0</ele><time>2026-03-22T15:05:26.982Z</time></trkpt><trkpt lat="43.8479567" lon="12.4183172"><ele>506.0</ele><time>2026-03-22T15:05:27.982Z</time></trkpt><trkpt lat="43.8480526" lon="12.4182737"><ele>511.0</ele><time>2026-03-22T15:05:29.983Z</time></trkpt><trkpt lat="43.8480646" lon="12.4180719"><ele>516.0</ele><time>2026-03-22T15:05:31.983Z</time></trkpt><trkpt lat="43.8480327" lon="12.4179405"><ele>521.0</ele><time>2026-03-22T15:05:32.983Z</time></trkpt><trkpt lat="43.847962" lon="12.4177994"><ele>523.6</ele><time>2026-03-22T15:05:33.983Z</time></trkpt><trkpt lat="43.8478875" lon="12.4176687"><ele>526.2</ele><time>2026-03-22T15:05:34.983Z</time></trkpt><trkpt lat="43.8478391" lon="12.4175724"><ele>528.8</ele><time>2026-03-22T15:05:35.983Z</time></trkpt><trkpt lat="43.847807" lon="12.4174914"><ele>531.4</ele><time>2026-03-22T15:05:36.982Z</time></trkpt><trkpt lat="43.8477847" lon="12.4173095"><ele>534.0</ele><time>2026-03-22T15:05:38.982Z</time></trkpt><trkpt lat="43.8478268" lon="12.41718"><ele>532.6</ele><time>2026-03-22T15:05:40.983Z</time></trkpt><trkpt lat="43.8478852" lon="12.4171203"><ele>531.2</ele><time>2026-03-22T15:05:41.983Z</time></trkpt><trkpt lat="43.8479666" lon="12.4170669"><ele>529.8000000000001</ele><time>2026-03-22T15:05:42.982Z</time></trkpt><trkpt lat="43.8480597" lon="12.4170069"><ele>528.4</ele><time>2026-03-22T15:05:43.982Z</time></trkpt><trkpt lat="43.848162" lon="12.4169392"><ele>527.0</ele><time>2026-03-22T15:05:44.983Z</time></trkpt><trkpt lat="43.8482724" lon="12.416864"><ele>527.0</ele><time>2026-03-22T15:05:45.982Z</time></trkpt><trkpt lat="43.8483748" lon="12.416791"><ele>527.0</ele><time>2026-03-22T15:05:46.983Z</time></trkpt><trkpt lat="43.8484608" lon="12.4167178"><ele>527.0</ele><time>2026-03-22T15:05:47.983Z</time></trkpt><trkpt lat="43.8485454" lon="12.4166366"><ele>527.0</ele><time>2026-03-22T15:05:48.982Z</time></trkpt><trkpt lat="43.8486228" lon="12.4165506"><ele>527.0</ele><time>2026-03-22T15:05:49.983Z</time></trkpt><trkpt lat="43.8487025" lon="12.4164597"><ele>528.5</ele><time>2026-03-22T15:05:50.982Z</time></trkpt><trkpt lat="43.8487882" lon="12.416358"><ele>530.0</ele><time>2026-03-22T15:05:51.983Z</time></trkpt><trkpt lat="43.8488743" lon="12.4162471"><ele>531.5</ele><time>2026-03-22T15:05:52.982Z</time></trkpt><trkpt lat="43.8489531" lon="12.41612"><ele>533.0</ele><time>2026-03-22T15:05:53.983Z</time></trkpt><trkpt lat="43.8490292" lon="12.4159877"><ele>530.1999999999999</ele><time>2026-03-22T15:05:54.983Z</time></trkpt><trkpt lat="43.849098" lon="12.4158579"><ele>527.4</ele><time>2026-03-22T15:05:55.982Z</time></trkpt><trkpt lat="43.849161" lon="12.4157287"><ele>524.5999999999999</ele><time>2026-03-22T15:05:56.982Z</time></trkpt><trkpt lat="43.8492108" lon="12.4156034"><ele>521.8</ele><time>2026-03-22T15:05:57.982Z</time></trkpt><trkpt lat="43.849251" lon="12.4154783"><ele>519.0</ele><time>2026-03-22T15:05:58.983Z</time></trkpt><trkpt lat="43.8492824" lon="12.4153638"><ele>520.5</ele><time>2026-03-22T15:05:59.982Z</time></trkpt><trkpt lat="43.8493079" lon="12.4152562"><ele>522.0</ele><time>2026-03-22T15:06:00.983Z</time></trkpt><trkpt lat="43.8493301" lon="12.4151654"><ele>523.5</ele><time>2026-03-22T15:06:01.982Z</time></trkpt><trkpt lat="43.8493744" lon="12.4150755"><ele>525.0</ele><time>2026-03-22T15:06:03.982Z</time></trkpt><trkpt lat="43.849465" lon="12.4150679"><ele>526.5</ele><time>2026-03-22T15:06:05.983Z</time></trkpt><trkpt lat="43.8495289" lon="12.4150907"><ele>528.0</ele><time>2026-03-22T15:06:06.983Z</time></trkpt><trkpt lat="43.8496171" lon="12.4151078"><ele>528.0</ele><time>2026-03-22T15:06:07.983Z</time></trkpt><trkpt lat="43.8497111" lon="12.4150876"><ele>528.0</ele><time>2026-03-22T15:06:08.982Z</time></trkpt><trkpt lat="43.8497848" lon="12.4150206"><ele>528.0</ele><time>2026-03-22T15:06:09.982Z</time></trkpt><trkpt lat="43.8498327" lon="12.4149262"><ele>528.0</ele><time>2026-03-22T15:06:10.982Z</time></trkpt><trkpt lat="43.8498559" lon="12.4148133"><ele>528.0</ele><time>2026-03-22T15:06:11.983Z</time></trkpt><trkpt lat="43.8498555" lon="12.4146821"><ele>528.0</ele><time>2026-03-22T15:06:12.982Z</time></trkpt><trkpt lat="43.8498234" lon="12.4145626"><ele>528.5</ele><time>2026-03-22T15:06:13.983Z</time></trkpt><trkpt lat="43.8497764" lon="12.4144611"><ele>529.0</ele><time>2026-03-22T15:06:14.982Z</time></trkpt><trkpt lat="43.8496839" lon="12.4143942"><ele>529.5</ele><time>2026-03-22T15:06:15.983Z</time></trkpt><trkpt lat="43.8495564" lon="12.4143642"><ele>530.0</ele><time>2026-03-22T15:06:16.983Z</time></trkpt><trkpt lat="43.8494114" lon="12.4143489"><ele>528.75</ele><time>2026-03-22T15:06:17.983Z</time></trkpt><trkpt lat="43.8492788" lon="12.414307"><ele>527.5</ele><time>2026-03-22T15:06:18.983Z</time></trkpt><trkpt lat="43.8491791" lon="12.4142277"><ele>526.25</ele><time>2026-03-22T15:06:19.982Z</time></trkpt><trkpt lat="43.8491098" lon="12.414123"><ele>525.0</ele><time>2026-03-22T15:06:20.983Z</time></trkpt><trkpt lat="43.8490611" lon="12.4139974"><ele>525.0</ele><time>2026-03-22T15:06:21.983Z</time></trkpt><trkpt lat="43.8490343" lon="12.4138655"><ele>525.0</ele><time>2026-03-22T15:06:22.983Z</time></trkpt><trkpt lat="43.8490358" lon="12.4137309"><ele>525.0</ele><time>2026-03-22T15:06:23.983Z</time></trkpt><trkpt lat="43.8490648" lon="12.4135871"><ele>525.0</ele><time>2026-03-22T15:06:24.982Z</time></trkpt><trkpt lat="43.8491245" lon="12.4134595"><ele>525.0</ele><time>2026-03-22T15:06:25.982Z</time></trkpt><trkpt lat="43.8492128" lon="12.4133567"><ele>527.25</ele><time>2026-03-22T15:06:26.983Z</time></trkpt><trkpt lat="43.8493181" lon="12.4132807"><ele>529.5</ele><time>2026-03-22T15:06:27.983Z</time></trkpt><trkpt lat="43.849432" lon="12.4132296"><ele>531.75</ele><time>2026-03-22T15:06:28.983Z</time></trkpt><trkpt lat="43.8495687" lon="12.4131956"><ele>534.0</ele><time>2026-03-22T15:06:29.982Z</time></trkpt><trkpt lat="43.8497193" lon="12.4131602"><ele>534.0</ele><time>2026-03-22T15:06:30.983Z</time></trkpt><trkpt lat="43.8498701" lon="12.4131212"><ele>534.0</ele><time>2026-03-22T15:06:31.982Z</time></trkpt><trkpt lat="43.8500327" lon="12.4130746"><ele>534.0</ele><time>2026-03-22T15:06:32.982Z</time></trkpt><trkpt lat="43.850186" lon="12.4130267"><ele>535.25</ele><time>2026-03-22T15:06:33.983Z</time></trkpt><trkpt lat="43.850319" lon="12.4129882"><ele>536.5</ele><time>2026-03-22T15:06:34.982Z</time></trkpt><trkpt lat="43.8504406" lon="12.4129729"><ele>537.75</ele><time>2026-03-22T15:06:35.982Z</time></trkpt><trkpt lat="43.8505514" lon="12.4129843"><ele>539.0</ele><time>2026-03-22T15:06:36.982Z</time></trkpt><trkpt lat="43.8506559" lon="12.4130233"><ele>539.25</ele><time>2026-03-22T15:06:37.983Z</time></trkpt><trkpt lat="43.8507515" lon="12.4130852"><ele>539.5</ele><time>2026-03-22T15:06:38.982Z</time></trkpt><trkpt lat="43.8508474" lon="12.4131676"><ele>539.75</ele><time>2026-03-22T15:06:39.982Z</time></trkpt><trkpt lat="43.8509483" lon="12.4132819"><ele>540.0</ele><time>2026-03-22T15:06:40.982Z</time></trkpt><trkpt lat="43.8510491" lon="12.4134229"><ele>542.0</ele><time>2026-03-22T15:06:41.982Z</time></trkpt><trkpt lat="43.8511558" lon="12.4135753"><ele>544.0</ele><time>2026-03-22T15:06:42.983Z</time></trkpt><trkpt lat="43.8512706" lon="12.413732"><ele>546.0</ele><time>2026-03-22T15:06:43.983Z</time></trkpt><trkpt lat="43.8513816" lon="12.413882"><ele>546.0</ele><time>2026-03-22T15:06:44.982Z</time></trkpt><trkpt lat="43.8514719" lon="12.414015"><ele>546.0</ele><time>2026-03-22T15:06:45.983Z</time></trkpt><trkpt lat="43.8515349" lon="12.4141505"><ele>546.0</ele><time>2026-03-22T15:06:46.982Z</time></trkpt><trkpt lat="43.8515679" lon="12.4143002"><ele>546.0</ele><time>2026-03-22T15:06:47.983Z</time></trkpt><trkpt lat="43.8515652" lon="12.4144621"><ele>546.0</ele><time>2026-03-22T15:06:48.982Z</time></trkpt><trkpt lat="43.8515374" lon="12.4146376"><ele>546.0</ele><time>2026-03-22T15:06:49.982Z</time></trkpt><trkpt lat="43.8515095" lon="12.4148408"><ele>546.0</ele><time>2026-03-22T15:06:50.983Z</time></trkpt><trkpt lat="43.8514922" lon="12.4150656"><ele>546.0</ele><time>2026-03-22T15:06:51.983Z</time></trkpt><trkpt lat="43.8514751" lon="12.4152878"><ele>549.0</ele><time>2026-03-22T15:06:52.983Z</time></trkpt><trkpt lat="43.8514451" lon="12.4154886"><ele>552.0</ele><time>2026-03-22T15:06:53.983Z</time></trkpt><trkpt lat="43.8513869" lon="12.4156648"><ele>555.0</ele><time>2026-03-22T15:06:54.983Z</time></trkpt><trkpt lat="43.8513243" lon="12.4158373"><ele>558.0</ele><time>2026-03-22T15:06:55.983Z</time></trkpt><trkpt lat="43.8512732" lon="12.4160049"><ele>558.0</ele><time>2026-03-22T15:06:56.982Z</time></trkpt><trkpt lat="43.8512362" lon="12.4161637"><ele>558.0</ele><time>2026-03-22T15:06:57.983Z</time></trkpt><trkpt lat="43.8512188" lon="12.416327"><ele>558.0</ele><time>2026-03-22T15:06:58.982Z</time></trkpt><trkpt lat="43.8512248" lon="12.4165039"><ele>558.0</ele><time>2026-03-22T15:06:59.983Z</time></trkpt><trkpt lat="43.8512501" lon="12.4166831"><ele>559.75</ele><time>2026-03-22T15:07:00.982Z</time></trkpt><trkpt lat="43.8512709" lon="12.4168614"><ele>561.5</ele><time>2026-03-22T15:07:01.983Z</time></trkpt><trkpt lat="43.851254" lon="12.417032"><ele>563.25</ele><time>2026-03-22T15:07:02.982Z</time></trkpt><trkpt lat="43.8512038" lon="12.4172035"><ele>565.0</ele><time>2026-03-22T15:07:03.983Z</time></trkpt><trkpt lat="43.8511434" lon="12.4173807"><ele>563.75</ele><time>2026-03-22T15:07:04.983Z</time></trkpt><trkpt lat="43.8510715" lon="12.4175417"><ele>562.5</ele><time>2026-03-22T15:07:05.983Z</time></trkpt><trkpt lat="43.850976" lon="12.4176786"><ele>561.25</ele><time>2026-03-22T15:07:06.982Z</time></trkpt><trkpt lat="43.8508606" lon="12.4178141"><ele>560.0</ele><time>2026-03-22T15:07:07.983Z</time></trkpt><trkpt lat="43.8507444" lon="12.4179546"><ele>563.75</ele><time>2026-03-22T15:07:08.982Z</time></trkpt><trkpt lat="43.8506348" lon="12.4181047"><ele>567.5</ele><time>2026-03-22T15:07:09.982Z</time></trkpt><trkpt lat="43.8505343" lon="12.418252"><ele>571.25</ele><time>2026-03-22T15:07:10.982Z</time></trkpt><trkpt lat="43.8504448" lon="12.4183559"><ele>575.0</ele><time>2026-03-22T15:07:11.983Z</time></trkpt><trkpt lat="43.8503676" lon="12.4183824"><ele>575.0</ele><time>2026-03-22T15:07:12.982Z</time></trkpt><trkpt lat="43.8502818" lon="12.418404"><ele>575.0</ele><time>2026-03-22T15:07:13.982Z</time></trkpt><trkpt lat="43.8502051" lon="12.4184178"><ele>575.0</ele><time>2026-03-22T15:07:14.982Z</time></trkpt><trkpt lat="43.8501443" lon="12.4184432"><ele>575.0</ele><time>2026-03-22T15:07:15.983Z</time></trkpt><trkpt lat="43.8500787" lon="12.4185199"><ele>575.0</ele><time>2026-03-22T15:07:17.983Z</time></trkpt><trkpt lat="43.850088" lon="12.4186533"><ele>575.0</ele><time>2026-03-22T15:07:20.983Z</time></trkpt><trkpt lat="43.8501728" lon="12.4187533"><ele>575.0</ele><time>2026-03-22T15:07:22.983Z</time></trkpt><trkpt lat="43.8502369" lon="12.4188073"><ele>575.0</ele><time>2026-03-22T15:07:23.983Z</time></trkpt><trkpt lat="43.850317" lon="12.4188684"><ele>575.0</ele><time>2026-03-22T15:07:24.983Z</time></trkpt><trkpt lat="43.8503952" lon="12.4189398"><ele>575.0</ele><time>2026-03-22T15:07:25.982Z</time></trkpt><trkpt lat="43.8504759" lon="12.4190289"><ele>575.0</ele><time>2026-03-22T15:07:26.983Z</time></trkpt><trkpt lat="43.8505562" lon="12.4191391"><ele>576.0</ele><time>2026-03-22T15:07:27.983Z</time></trkpt><trkpt lat="43.8506398" lon="12.4192684"><ele>577.0</ele><time>2026-03-22T15:07:28.983Z</time></trkpt><trkpt lat="43.8507336" lon="12.4193937"><ele>578.0</ele><time>2026-03-22T15:07:29.982Z</time></trkpt><trkpt lat="43.8508232" lon="12.4195238"><ele>579.0</ele><time>2026-03-22T15:07:30.983Z</time></trkpt><trkpt lat="43.8508956" lon="12.4196521"><ele>579.0</ele><time>2026-03-22T15:07:31.983Z</time></trkpt><trkpt lat="43.8509553" lon="12.4198168"><ele>579.0</ele><time>2026-03-22T15:07:32.983Z</time></trkpt><trkpt lat="43.8510006" lon="12.4200141"><ele>579.0</ele><time>2026-03-22T15:07:33.983Z</time></trkpt><trkpt lat="43.8510454" lon="12.4202103"><ele>579.0</ele><time>2026-03-22T15:07:34.982Z</time></trkpt><trkpt lat="43.8510709" lon="12.4204179"><ele>588.3333333333334</ele><time>2026-03-22T15:07:35.982Z</time></trkpt><trkpt lat="43.8511028" lon="12.4206233"><ele>597.6666666666667</ele><time>2026-03-22T15:07:36.983Z</time></trkpt><trkpt lat="43.8511462" lon="12.4208222"><ele>607.0</ele><time>2026-03-22T15:07:37.982Z</time></trkpt><trkpt lat="43.8511909" lon="12.4210254"><ele>607.0</ele><time>2026-03-22T15:07:38.983Z</time></trkpt><trkpt lat="43.8512148" lon="12.42122"><ele>607.0</ele><time>2026-03-22T15:07:39.983Z</time></trkpt><trkpt lat="43.8512179" lon="12.4214359"><ele>607.0</ele><time>2026-03-22T15:07:40.983Z</time></trkpt><trkpt lat="43.8512061" lon="12.4216541"><ele>604.0</ele><time>2026-03-22T15:07:41.982Z</time></trkpt><trkpt lat="43.8511744" lon="12.4218564"><ele>601.0</ele><time>2026-03-22T15:07:42.982Z</time></trkpt><trkpt lat="43.8511237" lon="12.4220622"><ele>598.0</ele><time>2026-03-22T15:07:43.982Z</time></trkpt><trkpt lat="43.8510865" lon="12.4222299"><ele>595.0</ele><time>2026-03-22T15:07:44.982Z</time></trkpt><trkpt lat="43.8510729" lon="12.4223756"><ele>595.0</ele><time>2026-03-22T15:07:45.982Z</time></trkpt><trkpt lat="43.8510887" lon="12.4224911"><ele>595.0</ele><time>2026-03-22T15:07:46.983Z</time></trkpt><trkpt lat="43.8511363" lon="12.4225869"><ele>595.0</ele><time>2026-03-22T15:07:47.983Z</time></trkpt><trkpt lat="43.8512158" lon="12.4226707"><ele>595.0</ele><time>2026-03-22T15:07:48.983Z</time></trkpt><trkpt lat="43.8513155" lon="12.4227391"><ele>595.0</ele><time>2026-03-22T15:07:49.983Z</time></trkpt><trkpt lat="43.8514342" lon="12.4228026"><ele>595.0</ele><time>2026-03-22T15:07:50.982Z</time></trkpt><trkpt lat="43.8515515" lon="12.422867"><ele>595.0</ele><time>2026-03-22T15:07:51.982Z</time></trkpt><trkpt lat="43.8516712" lon="12.4229297"><ele>595.0</ele><time>2026-03-22T15:07:52.982Z</time></trkpt><trkpt lat="43.851792" lon="12.4229883"><ele>595.0</ele><time>2026-03-22T15:07:53.983Z</time></trkpt><trkpt lat="43.8519116" lon="12.4230371"><ele>599.0</ele><time>2026-03-22T15:07:54.982Z</time></trkpt><trkpt lat="43.8520355" lon="12.4230934"><ele>603.0</ele><time>2026-03-22T15:07:55.982Z</time></trkpt><trkpt lat="43.85213" lon="12.4231207"><ele>607.0</ele><time>2026-03-22T15:07:56.982Z</time></trkpt><trkpt lat="43.8522083" lon="12.4231472"><ele>611.0</ele><time>2026-03-22T15:07:57.982Z</time></trkpt><trkpt lat="43.8523071" lon="12.4231719"><ele>615.0</ele><time>2026-03-22T15:07:59.983Z</time></trkpt><trkpt lat="43.8523783" lon="12.4231658"><ele>615.0</ele><time>2026-03-22T15:08:03.982Z</time></trkpt><trkpt lat="43.8524466" lon="12.423126"><ele>615.0</ele><time>2026-03-22T15:08:17.983Z</time></trkpt><trkpt lat="43.8525097" lon="12.4230197"><ele>615.0</ele><time>2026-03-22T15:08:19.982Z</time></trkpt><trkpt lat="43.8525481" lon="12.42295"><ele>615.0</ele><time>2026-03-22T15:08:20.983Z</time></trkpt><trkpt lat="43.8525935" lon="12.4228715"><ele>615.0</ele><time>2026-03-22T15:08:21.983Z</time></trkpt><trkpt lat="43.8526411" lon="12.4227789"><ele>615.0</ele><time>2026-03-22T15:08:22.983Z</time></trkpt><trkpt lat="43.8526856" lon="12.4226922"><ele>617.4285714285714</ele><time>2026-03-22T15:08:23.982Z</time></trkpt><trkpt lat="43.852729" lon="12.4226048"><ele>619.8571428571429</ele><time>2026-03-22T15:08:24.982Z</time></trkpt><trkpt lat="43.8527589" lon="12.4225108"><ele>622.2857142857143</ele><time>2026-03-22T15:08:25.983Z</time></trkpt><trkpt lat="43.8527841" lon="12.4224128"><ele>624.7142857142858</ele><time>2026-03-22T15:08:26.983Z</time></trkpt><trkpt lat="43.8528088" lon="12.4223162"><ele>627.1428571428571</ele><time>2026-03-22T15:08:27.983Z</time></trkpt><trkpt lat="43.8528314" lon="12.4222223"><ele>629.5714285714287</ele><time>2026-03-22T15:08:28.983Z</time></trkpt><trkpt lat="43.8528547" lon="12.422131"><ele>632.0</ele><time>2026-03-22T15:08:29.982Z</time></trkpt><trkpt lat="43.8528757" lon="12.4220447"><ele>634.0</ele><time>2026-03-22T15:08:30.982Z</time></trkpt><trkpt lat="43.8529229" lon="12.4218877"><ele>636.0</ele><time>2026-03-22T15:08:32.982Z</time></trkpt><trkpt lat="43.8529593" lon="12.4217208"><ele>638.0</ele><time>2026-03-22T15:08:34.982Z</time></trkpt><trkpt lat="43.8529757" lon="12.4215593"><ele>640.0</ele><time>2026-03-22T15:08:36.982Z</time></trkpt><trkpt lat="43.8529737" lon="12.4214505"><ele>642.0</ele><time>2026-03-22T15:08:38.983Z</time></trkpt><trkpt lat="43.8529716" lon="12.4213543"><ele>641.3333333333334</ele><time>2026-03-22T15:08:40.983Z</time></trkpt><trkpt lat="43.8529719" lon="12.4212572"><ele>640.6666666666666</ele><time>2026-03-22T15:08:42.982Z</time></trkpt><trkpt lat="43.8529856" lon="12.4211531"><ele>640.0</ele><time>2026-03-22T15:08:44.983Z</time></trkpt><trkpt lat="43.8530303" lon="12.4210444"><ele>639.3333333333333</ele><time>2026-03-22T15:08:47.983Z</time></trkpt><trkpt lat="43.8530867" lon="12.4209395"><ele>638.6666666666666</ele><time>2026-03-22T15:08:50.983Z</time></trkpt><trkpt lat="43.8531405" lon="12.4208603"><ele>638.0</ele><time>2026-03-22T15:08:52.983Z</time></trkpt><trkpt lat="43.8531982" lon="12.4207929"><ele>638.0</ele><time>2026-03-22T15:08:54.982Z</time></trkpt><trkpt lat="43.8532492" lon="12.4207391"><ele>638.0</ele><time>2026-03-22T15:08:56.983Z</time></trkpt><trkpt lat="43.8533247" lon="12.4206782"><ele>638.0</ele><time>2026-03-22T15:08:59.982Z</time></trkpt><trkpt lat="43.8534093" lon="12.4206241"><ele>638.0</ele><time>2026-03-22T15:09:02.982Z</time></trkpt><trkpt lat="43.8534684" lon="12.4205776"><ele>638.0</ele><time>2026-03-22T15:09:04.983Z</time></trkpt><trkpt lat="43.8535247" lon="12.4205211"><ele>638.0</ele><time>2026-03-22T15:09:06.982Z</time></trkpt><trkpt lat="43.8535894" lon="12.4204476"><ele>638.3333333333333</ele><time>2026-03-22T15:09:08.983Z</time></trkpt><trkpt lat="43.8536588" lon="12.4203631"><ele>638.6666666666666</ele><time>2026-03-22T15:09:10.983Z</time></trkpt><trkpt lat="43.8537288" lon="12.4202966"><ele>639.0</ele><time>2026-03-22T15:09:12.983Z</time></trkpt><trkpt lat="43.8537951" lon="12.4202342"><ele>639.3333333333334</ele><time>2026-03-22T15:09:14.983Z</time></trkpt><trkpt lat="43.8538595" lon="12.4201722"><ele>639.6666666666667</ele><time>2026-03-22T15:09:16.982Z</time></trkpt><trkpt lat="43.8539249" lon="12.4201077"><ele>640.0</ele><time>2026-03-22T15:09:18.982Z</time></trkpt><trkpt lat="43.8539997" lon="12.4200318"><ele>640.0</ele><time>2026-03-22T15:09:20.982Z</time></trkpt><trkpt lat="43.8540856" lon="12.4199561"><ele>640.0</ele><time>2026-03-22T15:09:22.982Z</time></trkpt><trkpt lat="43.8541717" lon="12.419889"><ele>640.0</ele><time>2026-03-22T15:09:24.983Z</time></trkpt><trkpt lat="43.8542739" lon="12.4198292"><ele>640.0</ele><time>2026-03-22T15:09:26.982Z</time></trkpt><trkpt lat="43.8543959" lon="12.4197924"><ele>640.0</ele><time>2026-03-22T15:09:28.982Z</time></trkpt><trkpt lat="43.854518" lon="12.4197527"><ele>638.6</ele><time>2026-03-22T15:09:30.983Z</time></trkpt><trkpt lat="43.8545679" lon="12.4196912"><ele>637.2</ele><time>2026-03-22T15:09:31.983Z</time></trkpt><trkpt lat="43.854678" lon="12.4196072"><ele>635.8</ele><time>2026-03-22T15:09:33.982Z</time></trkpt><trkpt lat="43.8547375" lon="12.4195749"><ele>634.4</ele><time>2026-03-22T15:09:34.982Z</time></trkpt><trkpt lat="43.8548455" lon="12.4195523"><ele>633.0</ele><time>2026-03-22T15:09:36.982Z</time></trkpt><trkpt lat="43.8549728" lon="12.4195546"><ele>633.0</ele><time>2026-03-22T15:09:38.982Z</time></trkpt><trkpt lat="43.8550466" lon="12.4195369"><ele>633.0</ele><time>2026-03-22T15:09:39.983Z</time></trkpt><trkpt lat="43.8551254" lon="12.4194875"><ele>633.0</ele><time>2026-03-22T15:09:40.983Z</time></trkpt><trkpt lat="43.8552121" lon="12.4194474"><ele>633.0</ele><time>2026-03-22T15:09:41.983Z</time></trkpt><trkpt lat="43.8552932" lon="12.4193948"><ele>633.0</ele><time>2026-03-22T15:09:42.982Z</time></trkpt><trkpt lat="43.8553684" lon="12.4193466"><ele>633.0</ele><time>2026-03-22T15:09:43.983Z</time></trkpt><trkpt lat="43.8554454" lon="12.4193144"><ele>633.8333333333334</ele><time>2026-03-22T15:09:44.983Z</time></trkpt><trkpt lat="43.855524" lon="12.4192795"><ele>634.6666666666666</ele><time>2026-03-22T15:09:45.982Z</time></trkpt><trkpt lat="43.8556047" lon="12.4192455"><ele>635.5</ele><time>2026-03-22T15:09:46.982Z</time></trkpt><trkpt lat="43.8556759" lon="12.4191967"><ele>636.3333333333333</ele><time>2026-03-22T15:09:47.983Z</time></trkpt><trkpt lat="43.8557213" lon="12.4191264"><ele>637.1666666666666</ele><time>2026-03-22T15:09:48.983Z</time></trkpt><trkpt lat="43.8557729" lon="12.4190469"><ele>638.0</ele><time>2026-03-22T15:09:49.983Z</time></trkpt><trkpt lat="43.8558252" lon="12.4189707"><ele>638.0</ele><time>2026-03-22T15:09:50.982Z</time></trkpt><trkpt lat="43.8558923" lon="12.4189047"><ele>638.0</ele><time>2026-03-22T15:09:51.983Z</time></trkpt><trkpt lat="43.855966" lon="12.4188533"><ele>638.0</ele><time>2026-03-22T15:09:52.982Z</time></trkpt><trkpt lat="43.8560572" lon="12.4187887"><ele>638.0</ele><time>2026-03-22T15:09:53.982Z</time></trkpt><trkpt lat="43.8561684" lon="12.4187218"><ele>638.0</ele><time>2026-03-22T15:09:54.983Z</time></trkpt><trkpt lat="43.8562907" lon="12.4186434"><ele>638.5</ele><time>2026-03-22T15:09:55.982Z</time></trkpt><trkpt lat="43.8563995" lon="12.4185661"><ele>639.0</ele><time>2026-03-22T15:09:56.983Z</time></trkpt><trkpt lat="43.8564939" lon="12.4184899"><ele>639.5</ele><time>2026-03-22T15:09:57.983Z</time></trkpt><trkpt lat="43.8565923" lon="12.4184019"><ele>640.0</ele><time>2026-03-22T15:09:58.982Z</time></trkpt><trkpt lat="43.8566814" lon="12.4183057"><ele>640.0</ele><time>2026-03-22T15:09:59.983Z</time></trkpt><trkpt lat="43.8567515" lon="12.4182116"><ele>640.0</ele><time>2026-03-22T15:10:00.982Z</time></trkpt><trkpt lat="43.8568069" lon="12.4181122"><ele>640.0</ele><time>2026-03-22T15:10:01.983Z</time></trkpt><trkpt lat="43.8568494" lon="12.4179881"><ele>640.0</ele><time>2026-03-22T15:10:02.983Z</time></trkpt><trkpt lat="43.8568624" lon="12.4178493"><ele>640.0</ele><time>2026-03-22T15:10:03.982Z</time></trkpt><trkpt lat="43.8568869" lon="12.4177118"><ele>641.4</ele><time>2026-03-22T15:10:04.983Z</time></trkpt><trkpt lat="43.8569242" lon="12.4175738"><ele>642.8</ele><time>2026-03-22T15:10:05.982Z</time></trkpt><trkpt lat="43.8569573" lon="12.4174638"><ele>644.2</ele><time>2026-03-22T15:10:06.982Z</time></trkpt><trkpt lat="43.8569963" lon="12.4173662"><ele>645.6</ele><time>2026-03-22T15:10:07.982Z</time></trkpt><trkpt lat="43.8570566" lon="12.4172792"><ele>647.0</ele><time>2026-03-22T15:10:08.983Z</time></trkpt><trkpt lat="43.8571343" lon="12.4171776"><ele>646.0</ele><time>2026-03-22T15:10:09.982Z</time></trkpt><trkpt lat="43.8572058" lon="12.4170964"><ele>645.0</ele><time>2026-03-22T15:10:10.982Z</time></trkpt><trkpt lat="43.8572837" lon="12.4170008"><ele>644.0</ele><time>2026-03-22T15:10:11.982Z</time></trkpt><trkpt lat="43.8573492" lon="12.4169225"><ele>643.0</ele><time>2026-03-22T15:10:12.982Z</time></trkpt><trkpt lat="43.8574011" lon="12.4168474"><ele>642.0</ele><time>2026-03-22T15:10:13.982Z</time></trkpt><trkpt lat="43.8574334" lon="12.4167523"><ele>641.0</ele><time>2026-03-22T15:10:14.982Z</time></trkpt><trkpt lat="43.8574606" lon="12.4166379"><ele>641.0</ele><time>2026-03-22T15:10:15.982Z</time></trkpt><trkpt lat="43.8574981" lon="12.4165478"><ele>641.0</ele><time>2026-03-22T15:10:16.983Z</time></trkpt><trkpt lat="43.857584" lon="12.4164468"><ele>641.0</ele><time>2026-03-22T15:10:18.982Z</time></trkpt><trkpt lat="43.8577138" lon="12.4164071"><ele>641.0</ele><time>2026-03-22T15:10:20.983Z</time></trkpt><trkpt lat="43.8577977" lon="12.4164078"><ele>641.0</ele><time>2026-03-22T15:10:21.983Z</time></trkpt><trkpt lat="43.8578822" lon="12.416425"><ele>643.5</ele><time>2026-03-22T15:10:22.983Z</time></trkpt><trkpt lat="43.8579689" lon="12.4164556"><ele>646.0</ele><time>2026-03-22T15:10:23.982Z</time></trkpt><trkpt lat="43.8580551" lon="12.4164956"><ele>648.5</ele><time>2026-03-22T15:10:24.982Z</time></trkpt><trkpt lat="43.8581397" lon="12.4165225"><ele>651.0</ele><time>2026-03-22T15:10:25.982Z</time></trkpt><trkpt lat="43.8582192" lon="12.4165344"><ele>653.5</ele><time>2026-03-22T15:10:26.983Z</time></trkpt><trkpt lat="43.8583084" lon="12.4165235"><ele>656.0</ele><time>2026-03-22T15:10:27.983Z</time></trkpt><trkpt lat="43.8583975" lon="12.4164881"><ele>655.8</ele><time>2026-03-22T15:10:28.983Z</time></trkpt><trkpt lat="43.8584901" lon="12.4164526"><ele>655.5999999999999</ele><time>2026-03-22T15:10:29.983Z</time></trkpt><trkpt lat="43.8585877" lon="12.4164118"><ele>655.4</ele><time>2026-03-22T15:10:30.983Z</time></trkpt><trkpt lat="43.8586832" lon="12.4163668"><ele>655.2</ele><time>2026-03-22T15:10:31.983Z</time></trkpt><trkpt lat="43.8587708" lon="12.4163224"><ele>655.0</ele><time>2026-03-22T15:10:32.982Z</time></trkpt><trkpt lat="43.8588714" lon="12.4162885"><ele>655.0</ele><time>2026-03-22T15:10:33.982Z</time></trkpt><trkpt lat="43.8589625" lon="12.4162679"><ele>655.0</ele><time>2026-03-22T15:10:34.982Z</time></trkpt><trkpt lat="43.8590389" lon="12.4162592"><ele>655.0</ele><time>2026-03-22T15:10:35.983Z</time></trkpt><trkpt lat="43.8591099" lon="12.4162249"><ele>655.0</ele><time>2026-03-22T15:10:36.982Z</time></trkpt><trkpt lat="43.8592025" lon="12.4161786"><ele>655.0</ele><time>2026-03-22T15:10:37.982Z</time></trkpt><trkpt lat="43.8593009" lon="12.4161282"><ele>655.0</ele><time>2026-03-22T15:10:38.983Z</time></trkpt><trkpt lat="43.8594047" lon="12.4160708"><ele>655.6</ele><time>2026-03-22T15:10:39.982Z</time></trkpt><trkpt lat="43.859503" lon="12.4160232"><ele>656.2</ele><time>2026-03-22T15:10:40.983Z</time></trkpt><trkpt lat="43.8595991" lon="12.4159827"><ele>656.8</ele><time>2026-03-22T15:10:41.983Z</time></trkpt><trkpt lat="43.8596895" lon="12.4159419"><ele>657.4</ele><time>2026-03-22T15:10:42.983Z</time></trkpt><trkpt lat="43.8597709" lon="12.415897"><ele>658.0</ele><time>2026-03-22T15:10:43.983Z</time></trkpt><trkpt lat="43.8598293" lon="12.4158617"><ele>658.0</ele><time>2026-03-22T15:10:44.983Z</time></trkpt><trkpt lat="43.8598959" lon="12.4157853"><ele>658.0</ele><time>2026-03-22T15:10:46.983Z</time></trkpt><trkpt lat="43.8599282" lon="12.4156398"><ele>658.0</ele><time>2026-03-22T15:10:48.983Z</time></trkpt><trkpt lat="43.8599233" lon="12.4155436"><ele>658.0</ele><time>2026-03-22T15:10:49.983Z</time></trkpt><trkpt lat="43.8599142" lon="12.415412"><ele>658.0</ele><time>2026-03-22T15:10:50.983Z</time></trkpt><trkpt lat="43.8599114" lon="12.4152633"><ele>657.75</ele><time>2026-03-22T15:10:51.983Z</time></trkpt><trkpt lat="43.8599117" lon="12.415092"><ele>657.5</ele><time>2026-03-22T15:10:52.983Z</time></trkpt><trkpt lat="43.8599113" lon="12.414911"><ele>657.25</ele><time>2026-03-22T15:10:53.983Z</time></trkpt><trkpt lat="43.8599128" lon="12.4147289"><ele>657.0</ele><time>2026-03-22T15:10:54.982Z</time></trkpt><trkpt lat="43.8599123" lon="12.4145447"><ele>658.5</ele><time>2026-03-22T15:10:55.982Z</time></trkpt><trkpt lat="43.8599097" lon="12.4143629"><ele>660.0</ele><time>2026-03-22T15:10:56.982Z</time></trkpt><trkpt lat="43.8599066" lon="12.4141849"><ele>661.5</ele><time>2026-03-22T15:10:57.983Z</time></trkpt><trkpt lat="43.8599057" lon="12.4140005"><ele>663.0</ele><time>2026-03-22T15:10:58.982Z</time></trkpt><trkpt lat="43.8599059" lon="12.4138099"><ele>664.25</ele><time>2026-03-22T15:10:59.982Z</time></trkpt><trkpt lat="43.8599046" lon="12.4136136"><ele>665.5</ele><time>2026-03-22T15:11:00.982Z</time></trkpt><trkpt lat="43.8599027" lon="12.4134128"><ele>666.75</ele><time>2026-03-22T15:11:01.982Z</time></trkpt><trkpt lat="43.8598985" lon="12.4132113"><ele>668.0</ele><time>2026-03-22T15:11:02.983Z</time></trkpt><trkpt lat="43.8598914" lon="12.4130112"><ele>669.0</ele><time>2026-03-22T15:11:03.983Z</time></trkpt><trkpt lat="43.8598809" lon="12.4128118"><ele>670.0</ele><time>2026-03-22T15:11:04.983Z</time></trkpt><trkpt lat="43.8598636" lon="12.4126177"><ele>671.0</ele><time>2026-03-22T15:11:05.982Z</time></trkpt><trkpt lat="43.8598357" lon="12.41245"><ele>672.0</ele><time>2026-03-22T15:11:06.982Z</time></trkpt><trkpt lat="43.8597889" lon="12.4123067"><ele>672.0</ele><time>2026-03-22T15:11:07.983Z</time></trkpt><trkpt lat="43.8597263" lon="12.4121944"><ele>672.0</ele><time>2026-03-22T15:11:08.983Z</time></trkpt><trkpt lat="43.8596364" lon="12.4120933"><ele>672.0</ele><time>2026-03-22T15:11:09.983Z</time></trkpt><trkpt lat="43.8595255" lon="12.411992"><ele>672.0</ele><time>2026-03-22T15:11:10.983Z</time></trkpt><trkpt lat="43.8593971" lon="12.4118819"><ele>673.25</ele><time>2026-03-22T15:11:11.983Z</time></trkpt><trkpt lat="43.8592589" lon="12.4117616"><ele>674.5</ele><time>2026-03-22T15:11:12.983Z</time></trkpt><trkpt lat="43.8591333" lon="12.4116467"><ele>675.75</ele><time>2026-03-22T15:11:13.983Z</time></trkpt><trkpt lat="43.8590334" lon="12.4115306"><ele>677.0</ele><time>2026-03-22T15:11:14.983Z</time></trkpt><trkpt lat="43.8589689" lon="12.411417"><ele>677.0</ele><time>2026-03-22T15:11:15.983Z</time></trkpt><trkpt lat="43.8589384" lon="12.4112924"><ele>677.0</ele><time>2026-03-22T15:11:16.982Z</time></trkpt><trkpt lat="43.8589355" lon="12.4111478"><ele>677.0</ele><time>2026-03-22T15:11:17.982Z</time></trkpt><trkpt lat="43.8589697" lon="12.4109901"><ele>677.0</ele><time>2026-03-22T15:11:18.982Z</time></trkpt><trkpt lat="43.8590364" lon="12.410811"><ele>677.0</ele><time>2026-03-22T15:11:19.982Z</time></trkpt><trkpt lat="43.85912" lon="12.4106298"><ele>677.0</ele><time>2026-03-22T15:11:20.983Z</time></trkpt><trkpt lat="43.8592057" lon="12.4104534"><ele>677.0</ele><time>2026-03-22T15:11:21.983Z</time></trkpt><trkpt lat="43.8592885" lon="12.4102827"><ele>673.5</ele><time>2026-03-22T15:11:22.983Z</time></trkpt><trkpt lat="43.859369" lon="12.4101193"><ele>670.0</ele><time>2026-03-22T15:11:23.983Z</time></trkpt><trkpt lat="43.8594421" lon="12.4099708"><ele>666.5</ele><time>2026-03-22T15:11:24.982Z</time></trkpt><trkpt lat="43.8595128" lon="12.4098175"><ele>663.0</ele><time>2026-03-22T15:11:25.982Z</time></trkpt><trkpt lat="43.8595791" lon="12.4096656"><ele>662.25</ele><time>2026-03-22T15:11:26.983Z</time></trkpt><trkpt lat="43.8596451" lon="12.4095176"><ele>661.5</ele><time>2026-03-22T15:11:27.983Z</time></trkpt><trkpt lat="43.8596978" lon="12.4093622"><ele>660.75</ele><time>2026-03-22T15:11:28.983Z</time></trkpt><trkpt lat="43.8597286" lon="12.4091934"><ele>660.0</ele><time>2026-03-22T15:11:29.982Z</time></trkpt><trkpt lat="43.8597423" lon="12.4090113"><ele>660.0</ele><time>2026-03-22T15:11:30.983Z</time></trkpt><trkpt lat="43.859736" lon="12.4088357"><ele>660.0</ele><time>2026-03-22T15:11:31.982Z</time></trkpt><trkpt lat="43.8597102" lon="12.4086555"><ele>660.0</ele><time>2026-03-22T15:11:32.983Z</time></trkpt><trkpt lat="43.8596693" lon="12.4084652"><ele>660.0</ele><time>2026-03-22T15:11:33.982Z</time></trkpt><trkpt lat="43.8596233" lon="12.4082732"><ele>658.75</ele><time>2026-03-22T15:11:34.983Z</time></trkpt><trkpt lat="43.8595784" lon="12.408094"><ele>657.5</ele><time>2026-03-22T15:11:35.982Z</time></trkpt><trkpt lat="43.8595338" lon="12.4079132"><ele>656.25</ele><time>2026-03-22T15:11:36.982Z</time></trkpt><trkpt lat="43.8594852" lon="12.4077191"><ele>655.0</ele><time>2026-03-22T15:11:37.983Z</time></trkpt><trkpt lat="43.859436" lon="12.4075174"><ele>654.75</ele><time>2026-03-22T15:11:38.982Z</time></trkpt><trkpt lat="43.8593874" lon="12.4073114"><ele>654.5</ele><time>2026-03-22T15:11:39.982Z</time></trkpt><trkpt lat="43.859341" lon="12.4071165"><ele>654.25</ele><time>2026-03-22T15:11:40.983Z</time></trkpt><trkpt lat="43.8592981" lon="12.4069314"><ele>654.0</ele><time>2026-03-22T15:11:41.983Z</time></trkpt><trkpt lat="43.8592575" lon="12.4067547"><ele>654.0</ele><time>2026-03-22T15:11:42.982Z</time></trkpt><trkpt lat="43.8592151" lon="12.4065779"><ele>654.0</ele><time>2026-03-22T15:11:43.983Z</time></trkpt><trkpt lat="43.859171" lon="12.4063881"><ele>654.0</ele><time>2026-03-22T15:11:44.983Z</time></trkpt><trkpt lat="43.8591365" lon="12.4061826"><ele>654.0</ele><time>2026-03-22T15:11:45.982Z</time></trkpt><trkpt lat="43.8591289" lon="12.4059636"><ele>653.6666666666666</ele><time>2026-03-22T15:11:46.983Z</time></trkpt><trkpt lat="43.8591214" lon="12.4057367"><ele>653.3333333333333</ele><time>2026-03-22T15:11:47.983Z</time></trkpt><trkpt lat="43.8591117" lon="12.4055"><ele>653.0</ele><time>2026-03-22T15:11:48.983Z</time></trkpt><trkpt lat="43.859108" lon="12.405255"><ele>653.0</ele><time>2026-03-22T15:11:49.982Z</time></trkpt><trkpt lat="43.8591029" lon="12.4050061"><ele>653.0</ele><time>2026-03-22T15:11:50.983Z</time></trkpt><trkpt lat="43.8590969" lon="12.4047543"><ele>653.0</ele><time>2026-03-22T15:11:51.983Z</time></trkpt><trkpt lat="43.8590842" lon="12.4044961"><ele>653.0</ele><time>2026-03-22T15:11:52.982Z</time></trkpt><trkpt lat="43.8590623" lon="12.4042374"><ele>653.0</ele><time>2026-03-22T15:11:53.983Z</time></trkpt><trkpt lat="43.8590331" lon="12.4039829"><ele>653.0</ele><time>2026-03-22T15:11:54.982Z</time></trkpt><trkpt lat="43.859006" lon="12.4037462"><ele>651.6666666666666</ele><time>2026-03-22T15:11:55.983Z</time></trkpt><trkpt lat="43.8589836" lon="12.403521"><ele>650.3333333333334</ele><time>2026-03-22T15:11:56.983Z</time></trkpt><trkpt lat="43.85896" lon="12.4033034"><ele>649.0</ele><time>2026-03-22T15:11:57.983Z</time></trkpt><trkpt lat="43.8589363" lon="12.4030943"><ele>648.3333333333334</ele><time>2026-03-22T15:11:58.982Z</time></trkpt><trkpt lat="43.8589129" lon="12.4028839"><ele>647.6666666666666</ele><time>2026-03-22T15:11:59.982Z</time></trkpt><trkpt lat="43.858886" lon="12.4026689"><ele>647.0</ele><time>2026-03-22T15:12:00.982Z</time></trkpt><trkpt lat="43.8588614" lon="12.4024471"><ele>647.0</ele><time>2026-03-22T15:12:01.982Z</time></trkpt><trkpt lat="43.8588389" lon="12.4022196"><ele>647.0</ele><time>2026-03-22T15:12:02.982Z</time></trkpt><trkpt lat="43.8588131" lon="12.4019866"><ele>647.0</ele><time>2026-03-22T15:12:03.982Z</time></trkpt><trkpt lat="43.8587823" lon="12.401752"><ele>646.3333333333333</ele><time>2026-03-22T15:12:04.983Z</time></trkpt><trkpt lat="43.8587524" lon="12.4015189"><ele>645.6666666666666</ele><time>2026-03-22T15:12:05.982Z</time></trkpt><trkpt lat="43.8587234" lon="12.4012787"><ele>645.0</ele><time>2026-03-22T15:12:06.983Z</time></trkpt><trkpt lat="43.8586941" lon="12.4010337"><ele>644.6666666666666</ele><time>2026-03-22T15:12:07.983Z</time></trkpt><trkpt lat="43.858666" lon="12.4007955"><ele>644.3333333333333</ele><time>2026-03-22T15:12:08.982Z</time></trkpt><trkpt lat="43.8586425" lon="12.4005741"><ele>644.0</ele><time>2026-03-22T15:12:09.982Z</time></trkpt><trkpt lat="43.8586224" lon="12.4003758"><ele>644.0</ele><time>2026-03-22T15:12:10.982Z</time></trkpt><trkpt lat="43.8586034" lon="12.4001978"><ele>644.0</ele><time>2026-03-22T15:12:11.982Z</time></trkpt><trkpt lat="43.8585862" lon="12.40005"><ele>644.0</ele><time>2026-03-22T15:12:12.983Z</time></trkpt><trkpt lat="43.8585726" lon="12.3999338"><ele>644.0</ele><time>2026-03-22T15:12:13.983Z</time></trkpt><trkpt lat="43.8585988" lon="12.3997939"><ele>644.0</ele><time>2026-03-22T15:12:15.983Z</time></trkpt><trkpt lat="43.8586759" lon="12.3997439"><ele>644.0</ele><time>2026-03-22T15:12:17.983Z</time></trkpt><trkpt lat="43.8588046" lon="12.3996988"><ele>644.0</ele><time>2026-03-22T15:12:19.983Z</time></trkpt><trkpt lat="43.8588989" lon="12.3996333"><ele>644.0</ele><time>2026-03-22T15:12:20.983Z</time></trkpt><trkpt lat="43.8590031" lon="12.3995408"><ele>644.0</ele><time>2026-03-22T15:12:21.983Z</time></trkpt><trkpt lat="43.8591034" lon="12.3994469"><ele>645.25</ele><time>2026-03-22T15:12:22.982Z</time></trkpt><trkpt lat="43.8592032" lon="12.3993669"><ele>646.5</ele><time>2026-03-22T15:12:23.983Z</time></trkpt><trkpt lat="43.859303" lon="12.3992919"><ele>647.75</ele><time>2026-03-22T15:12:24.983Z</time></trkpt><trkpt lat="43.8594087" lon="12.399231"><ele>649.0</ele><time>2026-03-22T15:12:25.983Z</time></trkpt><trkpt lat="43.8595297" lon="12.3991842"><ele>646.5</ele><time>2026-03-22T15:12:26.983Z</time></trkpt><trkpt lat="43.8596559" lon="12.3991491"><ele>644.0</ele><time>2026-03-22T15:12:27.983Z</time></trkpt><trkpt lat="43.859778" lon="12.3991173"><ele>641.5</ele><time>2026-03-22T15:12:28.983Z</time></trkpt><trkpt lat="43.8598971" lon="12.3990774"><ele>639.0</ele><time>2026-03-22T15:12:29.983Z</time></trkpt><trkpt lat="43.860023" lon="12.3990222"><ele>639.75</ele><time>2026-03-22T15:12:30.982Z</time></trkpt><trkpt lat="43.8601409" lon="12.3989632"><ele>640.5</ele><time>2026-03-22T15:12:31.983Z</time></trkpt><trkpt lat="43.8602585" lon="12.3989068"><ele>641.25</ele><time>2026-03-22T15:12:32.983Z</time></trkpt><trkpt lat="43.8603803" lon="12.3988592"><ele>642.0</ele><time>2026-03-22T15:12:33.982Z</time></trkpt><trkpt lat="43.8604919" lon="12.3988158"><ele>642.0</ele><time>2026-03-22T15:12:34.983Z</time></trkpt><trkpt lat="43.8606006" lon="12.3987744"><ele>642.0</ele><time>2026-03-22T15:12:35.983Z</time></trkpt><trkpt lat="43.8606836" lon="12.3987384"><ele>642.0</ele><time>2026-03-22T15:12:36.983Z</time></trkpt><trkpt lat="43.8607499" lon="12.3987064"><ele>642.0</ele><time>2026-03-22T15:12:37.982Z</time></trkpt><trkpt lat="43.8608453" lon="12.3986977"><ele>642.0</ele><time>2026-03-22T15:12:39.983Z</time></trkpt><trkpt lat="43.860935" lon="12.3987582"><ele>638.8000000000001</ele><time>2026-03-22T15:12:41.983Z</time></trkpt><trkpt lat="43.8610498" lon="12.3988423"><ele>635.6</ele><time>2026-03-22T15:12:43.983Z</time></trkpt><trkpt lat="43.8611732" lon="12.3988987"><ele>632.4000000000001</ele><time>2026-03-22T15:12:45.983Z</time></trkpt><trkpt lat="43.8612497" lon="12.3989398"><ele>629.2</ele><time>2026-03-22T15:12:46.983Z</time></trkpt><trkpt lat="43.8613399" lon="12.3989846"><ele>626.0</ele><time>2026-03-22T15:12:47.983Z</time></trkpt><trkpt lat="43.8614224" lon="12.3990323"><ele>626.0</ele><time>2026-03-22T15:12:48.982Z</time></trkpt><trkpt lat="43.8615092" lon="12.3990785"><ele>626.0</ele><time>2026-03-22T15:12:49.982Z</time></trkpt><trkpt lat="43.8615952" lon="12.3991296"><ele>626.0</ele><time>2026-03-22T15:12:50.982Z</time></trkpt><trkpt lat="43.8616711" lon="12.3991687"><ele>626.0</ele><time>2026-03-22T15:12:51.982Z</time></trkpt><trkpt lat="43.8617423" lon="12.399202"><ele>626.0</ele><time>2026-03-22T15:12:52.983Z</time></trkpt><trkpt lat="43.8618125" lon="12.3992293"><ele>626.0</ele><time>2026-03-22T15:12:53.982Z</time></trkpt><trkpt lat="43.8618784" lon="12.3992481"><ele>624.5714285714286</ele><time>2026-03-22T15:12:54.982Z</time></trkpt><trkpt lat="43.8619466" lon="12.3992579"><ele>623.1428571428571</ele><time>2026-03-22T15:12:55.982Z</time></trkpt><trkpt lat="43.8620165" lon="12.3992638"><ele>621.7142857142858</ele><time>2026-03-22T15:12:56.982Z</time></trkpt><trkpt lat="43.8620883" lon="12.399264"><ele>620.2857142857142</ele><time>2026-03-22T15:12:57.983Z</time></trkpt><trkpt lat="43.8621622" lon="12.399265"><ele>618.8571428571429</ele><time>2026-03-22T15:12:58.982Z</time></trkpt><trkpt lat="43.8622364" lon="12.3992667"><ele>617.4285714285714</ele><time>2026-03-22T15:12:59.982Z</time></trkpt><trkpt lat="43.8623166" lon="12.3992559"><ele>616.0</ele><time>2026-03-22T15:13:00.983Z</time></trkpt><trkpt lat="43.8623967" lon="12.3992433"><ele>616.0</ele><time>2026-03-22T15:13:01.982Z</time></trkpt><trkpt lat="43.8624766" lon="12.3992291"><ele>616.0</ele><time>2026-03-22T15:13:02.983Z</time></trkpt><trkpt lat="43.8625567" lon="12.3992193"><ele>616.0</ele><time>2026-03-22T15:13:03.983Z</time></trkpt><trkpt lat="43.8626351" lon="12.39921"><ele>616.0</ele><time>2026-03-22T15:13:04.983Z</time></trkpt><trkpt lat="43.8627153" lon="12.3991945"><ele>616.0</ele><time>2026-03-22T15:13:05.983Z</time></trkpt><trkpt lat="43.8628019" lon="12.3991834"><ele>616.0</ele><time>2026-03-22T15:13:06.982Z</time></trkpt><trkpt lat="43.8628925" lon="12.3991901"><ele>613.6666666666667</ele><time>2026-03-22T15:13:07.983Z</time></trkpt><trkpt lat="43.8629691" lon="12.3991924"><ele>611.3333333333334</ele><time>2026-03-22T15:13:08.983Z</time></trkpt><trkpt lat="43.8630421" lon="12.3992028"><ele>609.0</ele><time>2026-03-22T15:13:09.983Z</time></trkpt><trkpt lat="43.8631222" lon="12.3992306"><ele>606.6666666666666</ele><time>2026-03-22T15:13:10.983Z</time></trkpt><trkpt lat="43.8632029" lon="12.3992636"><ele>604.3333333333333</ele><time>2026-03-22T15:13:11.982Z</time></trkpt><trkpt lat="43.8632847" lon="12.3993029"><ele>602.0</ele><time>2026-03-22T15:13:12.983Z</time></trkpt><trkpt lat="43.8633576" lon="12.3993504"><ele>602.0</ele><time>2026-03-22T15:13:13.983Z</time></trkpt><trkpt lat="43.863427" lon="12.3994002"><ele>602.0</ele><time>2026-03-22T15:13:14.982Z</time></trkpt><trkpt lat="43.8634965" lon="12.3994562"><ele>602.0</ele><time>2026-03-22T15:13:15.982Z</time></trkpt><trkpt lat="43.8635646" lon="12.399519"><ele>602.0</ele><time>2026-03-22T15:13:16.982Z</time></trkpt><trkpt lat="43.8636357" lon="12.3995825"><ele>602.0</ele><time>2026-03-22T15:13:17.982Z</time></trkpt><trkpt lat="43.8637083" lon="12.3996438"><ele>602.0</ele><time>2026-03-22T15:13:18.983Z</time></trkpt><trkpt lat="43.8637855" lon="12.3997042"><ele>599.5</ele><time>2026-03-22T15:13:19.982Z</time></trkpt><trkpt lat="43.8638681" lon="12.3997629"><ele>597.0</ele><time>2026-03-22T15:13:20.982Z</time></trkpt><trkpt lat="43.8639521" lon="12.3998212"><ele>594.5</ele><time>2026-03-22T15:13:21.982Z</time></trkpt><trkpt lat="43.8640309" lon="12.3998743"><ele>592.0</ele><time>2026-03-22T15:13:22.982Z</time></trkpt><trkpt lat="43.8641071" lon="12.3999227"><ele>589.5</ele><time>2026-03-22T15:13:23.983Z</time></trkpt><trkpt lat="43.8641885" lon="12.3999637"><ele>587.0</ele><time>2026-03-22T15:13:24.982Z</time></trkpt><trkpt lat="43.8642795" lon="12.3999916"><ele>586.0</ele><time>2026-03-22T15:13:25.982Z</time></trkpt><trkpt lat="43.8643741" lon="12.4000107"><ele>585.0</ele><time>2026-03-22T15:13:26.983Z</time></trkpt><trkpt lat="43.8644677" lon="12.400021"><ele>584.0</ele><time>2026-03-22T15:13:27.982Z</time></trkpt><trkpt lat="43.8645613" lon="12.4000277"><ele>583.0</ele><time>2026-03-22T15:13:28.982Z</time></trkpt><trkpt lat="43.8646513" lon="12.4000283"><ele>582.0</ele><time>2026-03-22T15:13:29.982Z</time></trkpt><trkpt lat="43.8647403" lon="12.4000072"><ele>582.0</ele><time>2026-03-22T15:13:30.983Z</time></trkpt><trkpt lat="43.864828" lon="12.399959"><ele>582.0</ele><time>2026-03-22T15:13:31.982Z</time></trkpt><trkpt lat="43.8649123" lon="12.3998934"><ele>582.0</ele><time>2026-03-22T15:13:32.983Z</time></trkpt><trkpt lat="43.864989" lon="12.399831"><ele>582.0</ele><time>2026-03-22T15:13:33.983Z</time></trkpt><trkpt lat="43.8650639" lon="12.3997985"><ele>582.0</ele><time>2026-03-22T15:13:34.983Z</time></trkpt><trkpt lat="43.865142" lon="12.3997977"><ele>582.0</ele><time>2026-03-22T15:13:35.982Z</time></trkpt><trkpt lat="43.8652164" lon="12.3998267"><ele>581.0</ele><time>2026-03-22T15:13:36.983Z</time></trkpt><trkpt lat="43.8652902" lon="12.3998885"><ele>580.0</ele><time>2026-03-22T15:13:37.982Z</time></trkpt><trkpt lat="43.8653716" lon="12.3999714"><ele>579.0</ele><time>2026-03-22T15:13:38.983Z</time></trkpt><trkpt lat="43.8654608" lon="12.4000648"><ele>578.0</ele><time>2026-03-22T15:13:39.982Z</time></trkpt><trkpt lat="43.8655515" lon="12.4001597"><ele>577.0</ele><time>2026-03-22T15:13:40.983Z</time></trkpt><trkpt lat="43.8656318" lon="12.4002412"><ele>577.0</ele><time>2026-03-22T15:13:41.982Z</time></trkpt><trkpt lat="43.8657108" lon="12.4003032"><ele>577.0</ele><time>2026-03-22T15:13:42.982Z</time></trkpt><trkpt lat="43.8657995" lon="12.4003402"><ele>577.0</ele><time>2026-03-22T15:13:43.983Z</time></trkpt><trkpt lat="43.8659055" lon="12.4003658"><ele>577.0</ele><time>2026-03-22T15:13:44.983Z</time></trkpt><trkpt lat="43.8660372" lon="12.4003736"><ele>577.0</ele><time>2026-03-22T15:13:45.982Z</time></trkpt><trkpt lat="43.8661729" lon="12.4003823"><ele>574.0</ele><time>2026-03-22T15:13:46.982Z</time></trkpt><trkpt lat="43.8663078" lon="12.4003889"><ele>571.0</ele><time>2026-03-22T15:13:47.983Z</time></trkpt><trkpt lat="43.8664346" lon="12.4003917"><ele>568.0</ele><time>2026-03-22T15:13:48.983Z</time></trkpt><trkpt lat="43.866548" lon="12.4003874"><ele>565.0</ele><time>2026-03-22T15:13:49.983Z</time></trkpt><trkpt lat="43.8666526" lon="12.4003784"><ele>565.0</ele><time>2026-03-22T15:13:50.982Z</time></trkpt><trkpt lat="43.8667644" lon="12.400358"><ele>565.0</ele><time>2026-03-22T15:13:51.983Z</time></trkpt><trkpt lat="43.866869" lon="12.4003492"><ele>565.0</ele><time>2026-03-22T15:13:52.982Z</time></trkpt><trkpt lat="43.8669753" lon="12.400342"><ele>565.0</ele><time>2026-03-22T15:13:53.982Z</time></trkpt><trkpt lat="43.8670713" lon="12.4003479"><ele>565.0</ele><time>2026-03-22T15:13:54.983Z</time></trkpt><trkpt lat="43.8671662" lon="12.4003511"><ele>562.8333333333334</ele><time>2026-03-22T15:13:55.983Z</time></trkpt><trkpt lat="43.8672613" lon="12.400353"><ele>560.6666666666667</ele><time>2026-03-22T15:13:56.982Z</time></trkpt><trkpt lat="43.8673618" lon="12.4003601"><ele>558.5</ele><time>2026-03-22T15:13:57.983Z</time></trkpt><trkpt lat="43.867455" lon="12.4003994"><ele>556.3333333333334</ele><time>2026-03-22T15:13:58.983Z</time></trkpt><trkpt lat="43.8675175" lon="12.4004597"><ele>554.1666666666666</ele><time>2026-03-22T15:13:59.982Z</time></trkpt><trkpt lat="43.8675641" lon="12.4005268"><ele>552.0</ele><time>2026-03-22T15:14:00.983Z</time></trkpt><trkpt lat="43.8676281" lon="12.4006242"><ele>548.3333333333334</ele><time>2026-03-22T15:14:02.983Z</time></trkpt><trkpt lat="43.8676867" lon="12.4006753"><ele>544.6666666666666</ele><time>2026-03-22T15:14:03.982Z</time></trkpt><trkpt lat="43.8677697" lon="12.4007231"><ele>541.0</ele><time>2026-03-22T15:14:04.982Z</time></trkpt><trkpt lat="43.8678586" lon="12.4007454"><ele>537.3333333333333</ele><time>2026-03-22T15:14:05.982Z</time></trkpt><trkpt lat="43.8679537" lon="12.4007599"><ele>533.6666666666666</ele><time>2026-03-22T15:14:06.983Z</time></trkpt><trkpt lat="43.8680515" lon="12.4007693"><ele>530.0</ele><time>2026-03-22T15:14:07.983Z</time></trkpt><trkpt lat="43.8681505" lon="12.4007767"><ele>530.0</ele><time>2026-03-22T15:14:08.982Z</time></trkpt><trkpt lat="43.8682519" lon="12.4007951"><ele>530.0</ele><time>2026-03-22T15:14:09.982Z</time></trkpt><trkpt lat="43.8683553" lon="12.4008314"><ele>530.0</ele><time>2026-03-22T15:14:10.983Z</time></trkpt><trkpt lat="43.8684621" lon="12.400878"><ele>530.0</ele><time>2026-03-22T15:14:11.983Z</time></trkpt><trkpt lat="43.8685577" lon="12.4009287"><ele>530.0</ele><time>2026-03-22T15:14:12.983Z</time></trkpt><trkpt lat="43.8686421" lon="12.4009747"><ele>527.8</ele><time>2026-03-22T15:14:13.982Z</time></trkpt><trkpt lat="43.8687346" lon="12.4010079"><ele>525.6</ele><time>2026-03-22T15:14:14.983Z</time></trkpt><trkpt lat="43.86884" lon="12.4010172"><ele>523.4</ele><time>2026-03-22T15:14:15.982Z</time></trkpt><trkpt lat="43.8689604" lon="12.4010041"><ele>521.2</ele><time>2026-03-22T15:14:16.983Z</time></trkpt><trkpt lat="43.8690746" lon="12.4009941"><ele>519.0</ele><time>2026-03-22T15:14:17.983Z</time></trkpt><trkpt lat="43.8691796" lon="12.4010032"><ele>516.8</ele><time>2026-03-22T15:14:18.982Z</time></trkpt><trkpt lat="43.869281" lon="12.4010302"><ele>514.5999999999999</ele><time>2026-03-22T15:14:19.983Z</time></trkpt><trkpt lat="43.8693764" lon="12.4010802"><ele>512.4</ele><time>2026-03-22T15:14:20.982Z</time></trkpt><trkpt lat="43.8694642" lon="12.4011421"><ele>510.2</ele><time>2026-03-22T15:14:21.983Z</time></trkpt><trkpt lat="43.8695391" lon="12.4011956"><ele>508.0</ele><time>2026-03-22T15:14:22.983Z</time></trkpt><trkpt lat="43.8696082" lon="12.4012342"><ele>508.0</ele><time>2026-03-22T15:14:23.982Z</time></trkpt><trkpt lat="43.8696797" lon="12.4012564"><ele>508.0</ele><time>2026-03-22T15:14:24.982Z</time></trkpt><trkpt lat="43.8697511" lon="12.4012503"><ele>508.0</ele><time>2026-03-22T15:14:25.982Z</time></trkpt><trkpt lat="43.8698184" lon="12.4012223"><ele>508.0</ele><time>2026-03-22T15:14:26.983Z</time></trkpt><trkpt lat="43.8698754" lon="12.4011601"><ele>508.0</ele><time>2026-03-22T15:14:27.982Z</time></trkpt><trkpt lat="43.8699153" lon="12.4010693"><ele>508.0</ele><time>2026-03-22T15:14:28.983Z</time></trkpt><trkpt lat="43.8699445" lon="12.40097"><ele>508.0</ele><time>2026-03-22T15:14:29.983Z</time></trkpt><trkpt lat="43.8699692" lon="12.4008474"><ele>508.0</ele><time>2026-03-22T15:14:30.983Z</time></trkpt><trkpt lat="43.8699805" lon="12.4007257"><ele>507.99999999999994</ele><time>2026-03-22T15:14:31.983Z</time></trkpt><trkpt lat="43.8699869" lon="12.4006"><ele>507.99999999999994</ele><time>2026-03-22T15:14:32.983Z</time></trkpt><trkpt lat="43.8699915" lon="12.4004649"><ele>508.0</ele><time>2026-03-22T15:14:33.983Z</time></trkpt><trkpt lat="43.869997" lon="12.4003364"><ele>508.0</ele><time>2026-03-22T15:14:34.982Z</time></trkpt><trkpt lat="43.8699975" lon="12.4002109"><ele>506.2</ele><time>2026-03-22T15:14:35.983Z</time></trkpt><trkpt lat="43.8699867" lon="12.4000897"><ele>504.4</ele><time>2026-03-22T15:14:36.983Z</time></trkpt><trkpt lat="43.8699663" lon="12.399967"><ele>502.59999999999997</ele><time>2026-03-22T15:14:37.983Z</time></trkpt><trkpt lat="43.8699458" lon="12.3998422"><ele>500.79999999999995</ele><time>2026-03-22T15:14:38.983Z</time></trkpt><trkpt lat="43.869928" lon="12.3997125"><ele>499.0</ele><time>2026-03-22T15:14:39.982Z</time></trkpt><trkpt lat="43.8699167" lon="12.3995818"><ele>498.2</ele><time>2026-03-22T15:14:40.982Z</time></trkpt><trkpt lat="43.8699156" lon="12.3994571"><ele>497.4</ele><time>2026-03-22T15:14:41.982Z</time></trkpt><trkpt lat="43.8699366" lon="12.3993477"><ele>496.6</ele><time>2026-03-22T15:14:42.983Z</time></trkpt><trkpt lat="43.8699796" lon="12.399244"><ele>495.8</ele><time>2026-03-22T15:14:43.982Z</time></trkpt><trkpt lat="43.8700455" lon="12.3991518"><ele>495.0</ele><time>2026-03-22T15:14:44.982Z</time></trkpt><trkpt lat="43.8701211" lon="12.3990603"><ele>493.6</ele><time>2026-03-22T15:14:45.983Z</time></trkpt><trkpt lat="43.8701955" lon="12.3989817"><ele>492.2</ele><time>2026-03-22T15:14:46.983Z</time></trkpt><trkpt lat="43.8702815" lon="12.3989324"><ele>490.79999999999995</ele><time>2026-03-22T15:14:47.983Z</time></trkpt><trkpt lat="43.8703793" lon="12.3988908"><ele>489.4</ele><time>2026-03-22T15:14:48.982Z</time></trkpt><trkpt lat="43.8704885" lon="12.3988508"><ele>488.0</ele><time>2026-03-22T15:14:49.982Z</time></trkpt><trkpt lat="43.870598" lon="12.3988154"><ele>488.0</ele><time>2026-03-22T15:14:50.983Z</time></trkpt><trkpt lat="43.8707105" lon="12.3987829"><ele>488.0</ele><time>2026-03-22T15:14:51.982Z</time></trkpt><trkpt lat="43.8708395" lon="12.3987506"><ele>488.0</ele><time>2026-03-22T15:14:52.982Z</time></trkpt><trkpt lat="43.8709695" lon="12.3987146"><ele>488.0</ele><time>2026-03-22T15:14:53.983Z</time></trkpt><trkpt lat="43.8710992" lon="12.3986812"><ele>485.25</ele><time>2026-03-22T15:14:54.983Z</time></trkpt><trkpt lat="43.8712246" lon="12.3986522"><ele>482.5</ele><time>2026-03-22T15:14:55.983Z</time></trkpt><trkpt lat="43.8713451" lon="12.3986239"><ele>479.75</ele><time>2026-03-22T15:14:56.983Z</time></trkpt><trkpt lat="43.8714602" lon="12.3985989"><ele>477.0</ele><time>2026-03-22T15:14:57.982Z</time></trkpt><trkpt lat="43.8715644" lon="12.39858"><ele>477.0</ele><time>2026-03-22T15:14:58.982Z</time></trkpt><trkpt lat="43.8716697" lon="12.3985628"><ele>477.00000000000006</ele><time>2026-03-22T15:14:59.983Z</time></trkpt><trkpt lat="43.8717703" lon="12.398547"><ele>477.00000000000006</ele><time>2026-03-22T15:15:00.983Z</time></trkpt><trkpt lat="43.8718679" lon="12.3985289"><ele>477.0</ele><time>2026-03-22T15:15:01.983Z</time></trkpt><trkpt lat="43.8719628" lon="12.3985069"><ele>477.0</ele><time>2026-03-22T15:15:02.983Z</time></trkpt><trkpt lat="43.8720553" lon="12.3984874"><ele>473.75</ele><time>2026-03-22T15:15:03.983Z</time></trkpt><trkpt lat="43.8721528" lon="12.3984689"><ele>470.5</ele><time>2026-03-22T15:15:04.983Z</time></trkpt><trkpt lat="43.872263" lon="12.398447"><ele>467.25</ele><time>2026-03-22T15:15:05.983Z</time></trkpt><trkpt lat="43.8723788" lon="12.3984231"><ele>464.0</ele><time>2026-03-22T15:15:06.982Z</time></trkpt><trkpt lat="43.8725019" lon="12.3984037"><ele>461.75</ele><time>2026-03-22T15:15:07.983Z</time></trkpt><trkpt lat="43.872621" lon="12.3983855"><ele>459.5</ele><time>2026-03-22T15:15:08.983Z</time></trkpt><trkpt lat="43.8727371" lon="12.3983763"><ele>457.25</ele><time>2026-03-22T15:15:09.983Z</time></trkpt><trkpt lat="43.87286" lon="12.3983927"><ele>455.0</ele><time>2026-03-22T15:15:10.983Z</time></trkpt><trkpt lat="43.8729857" lon="12.3984226"><ele>455.0</ele><time>2026-03-22T15:15:11.983Z</time></trkpt><trkpt lat="43.8731111" lon="12.3984619"><ele>455.0</ele><time>2026-03-22T15:15:12.982Z</time></trkpt><trkpt lat="43.8732373" lon="12.3985074"><ele>455.0</ele><time>2026-03-22T15:15:13.983Z</time></trkpt><trkpt lat="43.873356" lon="12.3985558"><ele>455.0</ele><time>2026-03-22T15:15:14.982Z</time></trkpt><trkpt lat="43.87347" lon="12.3985998"><ele>453.66666666666663</ele><time>2026-03-22T15:15:15.983Z</time></trkpt><trkpt lat="43.8735794" lon="12.3986393"><ele>452.3333333333333</ele><time>2026-03-22T15:15:16.982Z</time></trkpt><trkpt lat="43.8736779" lon="12.3986681"><ele>451.0</ele><time>2026-03-22T15:15:17.983Z</time></trkpt><trkpt lat="43.8737632" lon="12.3986955"><ele>449.66666666666663</ele><time>2026-03-22T15:15:18.982Z</time></trkpt><trkpt lat="43.8738372" lon="12.3987189"><ele>448.3333333333333</ele><time>2026-03-22T15:15:19.983Z</time></trkpt><trkpt lat="43.8739039" lon="12.3987398"><ele>447.0</ele><time>2026-03-22T15:15:20.983Z</time></trkpt><trkpt lat="43.8739659" lon="12.3987559"><ele>447.0</ele><time>2026-03-22T15:15:21.983Z</time></trkpt><trkpt lat="43.8740707" lon="12.3987591"><ele>447.00000000000006</ele><time>2026-03-22T15:15:23.983Z</time></trkpt><trkpt lat="43.8741682" lon="12.3987298"><ele>447.00000000000006</ele><time>2026-03-22T15:15:25.983Z</time></trkpt><trkpt lat="43.8742856" lon="12.398714"><ele>447.0</ele><time>2026-03-22T15:15:27.983Z</time></trkpt><trkpt lat="43.8743542" lon="12.3987254"><ele>447.0</ele><time>2026-03-22T15:15:28.983Z</time></trkpt><trkpt lat="43.8744337" lon="12.3987561"><ele>445.20000000000005</ele><time>2026-03-22T15:15:29.982Z</time></trkpt><trkpt lat="43.8745246" lon="12.3988078"><ele>443.40000000000003</ele><time>2026-03-22T15:15:30.982Z</time></trkpt><trkpt lat="43.8746256" lon="12.3988672"><ele>441.59999999999997</ele><time>2026-03-22T15:15:31.983Z</time></trkpt><trkpt lat="43.8747272" lon="12.3989272"><ele>439.79999999999995</ele><time>2026-03-22T15:15:32.982Z</time></trkpt><trkpt lat="43.8748209" lon="12.3989871"><ele>438.0</ele><time>2026-03-22T15:15:33.983Z</time></trkpt><trkpt lat="43.8749147" lon="12.3990606"><ele>437.0</ele><time>2026-03-22T15:15:34.982Z</time></trkpt><trkpt lat="43.8750094" lon="12.3991462"><ele>436.0</ele><time>2026-03-22T15:15:35.983Z</time></trkpt><trkpt lat="43.8751099" lon="12.3992381"><ele>435.0</ele><time>2026-03-22T15:15:36.982Z</time></trkpt><trkpt lat="43.8752179" lon="12.3993321"><ele>434.0</ele><time>2026-03-22T15:15:37.983Z</time></trkpt><trkpt lat="43.8753251" lon="12.3994175"><ele>433.16666666666663</ele><time>2026-03-22T15:15:38.982Z</time></trkpt><trkpt lat="43.875418" lon="12.399486"><ele>432.3333333333333</ele><time>2026-03-22T15:15:39.983Z</time></trkpt><trkpt lat="43.8754985" lon="12.3995457"><ele>431.5</ele><time>2026-03-22T15:15:40.982Z</time></trkpt><trkpt lat="43.8755685" lon="12.3996048"><ele>430.66666666666663</ele><time>2026-03-22T15:15:41.983Z</time></trkpt><trkpt lat="43.8756318" lon="12.399656"><ele>429.8333333333333</ele><time>2026-03-22T15:15:42.982Z</time></trkpt><trkpt lat="43.8756955" lon="12.3996953"><ele>429.0</ele><time>2026-03-22T15:15:43.983Z</time></trkpt><trkpt lat="43.8757671" lon="12.3997197"><ele>428.42857142857144</ele><time>2026-03-22T15:15:44.982Z</time></trkpt><trkpt lat="43.8758407" lon="12.3997268"><ele>427.8571428571429</ele><time>2026-03-22T15:15:45.982Z</time></trkpt><trkpt lat="43.87591" lon="12.3997268"><ele>427.2857142857143</ele><time>2026-03-22T15:15:46.983Z</time></trkpt><trkpt lat="43.8759818" lon="12.3997232"><ele>426.7142857142857</ele><time>2026-03-22T15:15:47.983Z</time></trkpt><trkpt lat="43.8760567" lon="12.3997151"><ele>426.1428571428571</ele><time>2026-03-22T15:15:48.983Z</time></trkpt><trkpt lat="43.876134" lon="12.3997009"><ele>425.57142857142856</ele><time>2026-03-22T15:15:49.983Z</time></trkpt><trkpt lat="43.8762107" lon="12.399681"><ele>425.0</ele><time>2026-03-22T15:15:50.983Z</time></trkpt><trkpt lat="43.8762899" lon="12.3996557"><ele>424.16666666666663</ele><time>2026-03-22T15:15:51.982Z</time></trkpt><trkpt lat="43.8763721" lon="12.3996311"><ele>423.3333333333333</ele><time>2026-03-22T15:15:52.983Z</time></trkpt><trkpt lat="43.8764517" lon="12.3996115"><ele>422.5</ele><time>2026-03-22T15:15:53.982Z</time></trkpt><trkpt lat="43.8765292" lon="12.399604"><ele>421.66666666666663</ele><time>2026-03-22T15:15:54.983Z</time></trkpt><trkpt lat="43.8766097" lon="12.3996066"><ele>420.8333333333333</ele><time>2026-03-22T15:15:55.983Z</time></trkpt><trkpt lat="43.8766924" lon="12.3996135"><ele>420.0</ele><time>2026-03-22T15:15:56.982Z</time></trkpt><trkpt lat="43.8767741" lon="12.3996164"><ele>418.5</ele><time>2026-03-22T15:15:57.982Z</time></trkpt><trkpt lat="43.8768544" lon="12.3996097"><ele>417.0</ele><time>2026-03-22T15:15:58.983Z</time></trkpt><trkpt lat="43.8769305" lon="12.3995929"><ele>415.5</ele><time>2026-03-22T15:15:59.982Z</time></trkpt><trkpt lat="43.8770022" lon="12.3995667"><ele>414.0</ele><time>2026-03-22T15:16:00.983Z</time></trkpt><trkpt lat="43.8770726" lon="12.3995354"><ele>412.5</ele><time>2026-03-22T15:16:01.982Z</time></trkpt><trkpt lat="43.8771423" lon="12.3994984"><ele>411.0</ele><time>2026-03-22T15:16:02.983Z</time></trkpt><trkpt lat="43.8772132" lon="12.3994662"><ele>411.0</ele><time>2026-03-22T15:16:03.982Z</time></trkpt><trkpt lat="43.8772838" lon="12.3994614"><ele>411.0</ele><time>2026-03-22T15:16:04.982Z</time></trkpt><trkpt lat="43.8773534" lon="12.3994873"><ele>411.0</ele><time>2026-03-22T15:16:05.982Z</time></trkpt><trkpt lat="43.8774222" lon="12.3995339"><ele>411.0</ele><time>2026-03-22T15:16:06.983Z</time></trkpt><trkpt lat="43.8774863" lon="12.3995919"><ele>411.0</ele><time>2026-03-22T15:16:07.983Z</time></trkpt><trkpt lat="43.8775318" lon="12.3996554"><ele>411.0</ele><time>2026-03-22T15:16:08.983Z</time></trkpt><trkpt lat="43.8775668" lon="12.399813"><ele>408.8</ele><time>2026-03-22T15:16:10.982Z</time></trkpt><trkpt lat="43.87756" lon="12.399901"><ele>406.6</ele><time>2026-03-22T15:16:11.983Z</time></trkpt><trkpt lat="43.8775421" lon="12.399985"><ele>404.4</ele><time>2026-03-22T15:16:12.983Z</time></trkpt><trkpt lat="43.8775044" lon="12.4001378"><ele>402.2</ele><time>2026-03-22T15:16:14.982Z</time></trkpt><trkpt lat="43.8774726" lon="12.4002677"><ele>400.0</ele><time>2026-03-22T15:16:16.983Z</time></trkpt><trkpt lat="43.877465" lon="12.4004185"><ele>398.33333333333337</ele><time>2026-03-22T15:16:18.982Z</time></trkpt><trkpt lat="43.8775179" lon="12.4005814"><ele>396.6666666666667</ele><time>2026-03-22T15:16:20.982Z</time></trkpt><trkpt lat="43.8775544" lon="12.4006609"><ele>395.0</ele><time>2026-03-22T15:16:21.983Z</time></trkpt><trkpt lat="43.877597" lon="12.4007365"><ele>393.33333333333337</ele><time>2026-03-22T15:16:22.983Z</time></trkpt><trkpt lat="43.8776469" lon="12.4008174"><ele>391.6666666666667</ele><time>2026-03-22T15:16:23.983Z</time></trkpt><trkpt lat="43.8776961" lon="12.400899"><ele>390.0</ele><time>2026-03-22T15:16:24.983Z</time></trkpt><trkpt lat="43.8777525" lon="12.4009884"><ele>388.4</ele><time>2026-03-22T15:16:25.982Z</time></trkpt><trkpt lat="43.8778181" lon="12.401085"><ele>386.8</ele><time>2026-03-22T15:16:26.983Z</time></trkpt><trkpt lat="43.8778842" lon="12.4011816"><ele>385.20000000000005</ele><time>2026-03-22T15:16:27.983Z</time></trkpt><trkpt lat="43.8779534" lon="12.4012793"><ele>383.6</ele><time>2026-03-22T15:16:28.982Z</time></trkpt><trkpt lat="43.8780202" lon="12.401374"><ele>382.0</ele><time>2026-03-22T15:16:29.982Z</time></trkpt><trkpt lat="43.878088" lon="12.4014682"><ele>381.8</ele><time>2026-03-22T15:16:30.983Z</time></trkpt><trkpt lat="43.8781491" lon="12.4015594"><ele>381.6</ele><time>2026-03-22T15:16:31.983Z</time></trkpt><trkpt lat="43.8782134" lon="12.4016522"><ele>381.40000000000003</ele><time>2026-03-22T15:16:32.983Z</time></trkpt><trkpt lat="43.8782851" lon="12.4017426"><ele>381.20000000000005</ele><time>2026-03-22T15:16:33.983Z</time></trkpt><trkpt lat="43.878365" lon="12.4018212"><ele>381.0</ele><time>2026-03-22T15:16:34.982Z</time></trkpt><trkpt lat="43.8784562" lon="12.4018714"><ele>380.4</ele><time>2026-03-22T15:16:35.983Z</time></trkpt><trkpt lat="43.878553" lon="12.4018938"><ele>379.8</ele><time>2026-03-22T15:16:36.982Z</time></trkpt><trkpt lat="43.878655" lon="12.401893"><ele>379.2</ele><time>2026-03-22T15:16:37.983Z</time></trkpt><trkpt lat="43.878745" lon="12.4018997"><ele>378.59999999999997</ele><time>2026-03-22T15:16:38.982Z</time></trkpt><trkpt lat="43.878824" lon="12.4019333"><ele>378.0</ele><time>2026-03-22T15:16:39.982Z</time></trkpt><trkpt lat="43.8788948" lon="12.4019945"><ele>378.0</ele><time>2026-03-22T15:16:40.982Z</time></trkpt><trkpt lat="43.8789639" lon="12.4020801"><ele>378.0</ele><time>2026-03-22T15:16:41.983Z</time></trkpt><trkpt lat="43.8790361" lon="12.4021914"><ele>378.0</ele><time>2026-03-22T15:16:42.982Z</time></trkpt><trkpt lat="43.8790981" lon="12.4023168"><ele>378.0</ele><time>2026-03-22T15:16:43.983Z</time></trkpt><trkpt lat="43.8791599" lon="12.4024524"><ele>378.0</ele><time>2026-03-22T15:16:44.983Z</time></trkpt><trkpt lat="43.8792231" lon="12.4025913"><ele>381.25</ele><time>2026-03-22T15:16:45.982Z</time></trkpt><trkpt lat="43.8792884" lon="12.4027304"><ele>384.5</ele><time>2026-03-22T15:16:46.983Z</time></trkpt><trkpt lat="43.8793517" lon="12.4028747"><ele>387.75</ele><time>2026-03-22T15:16:47.982Z</time></trkpt><trkpt lat="43.8794124" lon="12.4030224"><ele>391.0</ele><time>2026-03-22T15:16:48.983Z</time></trkpt><trkpt lat="43.8794714" lon="12.4031734"><ele>394.0</ele><time>2026-03-22T15:16:49.983Z</time></trkpt><trkpt lat="43.8795319" lon="12.4033276"><ele>397.0</ele><time>2026-03-22T15:16:50.982Z</time></trkpt><trkpt lat="43.8795923" lon="12.403484"><ele>400.0</ele><time>2026-03-22T15:16:51.983Z</time></trkpt><trkpt lat="43.8796498" lon="12.4036289"><ele>403.0</ele><time>2026-03-22T15:16:52.983Z</time></trkpt><trkpt lat="43.8796941" lon="12.4037374"><ele>403.0</ele><time>2026-03-22T15:16:53.983Z</time></trkpt><trkpt lat="43.8797442" lon="12.4038298"><ele>403.0</ele><time>2026-03-22T15:16:54.982Z</time></trkpt><trkpt lat="43.8798171" lon="12.403908"><ele>403.0</ele><time>2026-03-22T15:16:55.982Z</time></trkpt><trkpt lat="43.8799208" lon="12.4039867"><ele>403.0</ele><time>2026-03-22T15:16:56.983Z</time></trkpt><trkpt lat="43.8800367" lon="12.4040565"><ele>403.0</ele><time>2026-03-22T15:16:57.983Z</time></trkpt><trkpt lat="43.8801611" lon="12.4041058"><ele>405.2</ele><time>2026-03-22T15:16:58.983Z</time></trkpt><trkpt lat="43.8802829" lon="12.4041261"><ele>407.4</ele><time>2026-03-22T15:16:59.983Z</time></trkpt><trkpt lat="43.8803876" lon="12.4041293"><ele>409.59999999999997</ele><time>2026-03-22T15:17:00.983Z</time></trkpt><trkpt lat="43.8805178" lon="12.4041118"><ele>411.79999999999995</ele><time>2026-03-22T15:17:01.982Z</time></trkpt><trkpt lat="43.8806042" lon="12.404119"><ele>414.0</ele><time>2026-03-22T15:17:02.983Z</time></trkpt><trkpt lat="43.880695" lon="12.4041316"><ele>414.0</ele><time>2026-03-22T15:17:03.983Z</time></trkpt><trkpt lat="43.8807854" lon="12.4041546"><ele>414.0</ele><time>2026-03-22T15:17:04.982Z</time></trkpt><trkpt lat="43.880889" lon="12.4041638"><ele>414.0</ele><time>2026-03-22T15:17:05.983Z</time></trkpt><trkpt lat="43.881012" lon="12.4041881"><ele>414.0</ele><time>2026-03-22T15:17:06.983Z</time></trkpt><trkpt lat="43.8811087" lon="12.4042145"><ele>414.0</ele><time>2026-03-22T15:17:07.983Z</time></trkpt><trkpt lat="43.8811967" lon="12.404265"><ele>413.4</ele><time>2026-03-22T15:17:08.983Z</time></trkpt><trkpt lat="43.8812799" lon="12.4043238"><ele>412.79999999999995</ele><time>2026-03-22T15:17:09.982Z</time></trkpt><trkpt lat="43.8813735" lon="12.4044087"><ele>412.20000000000005</ele><time>2026-03-22T15:17:10.983Z</time></trkpt><trkpt lat="43.8814612" lon="12.4044994"><ele>411.6</ele><time>2026-03-22T15:17:11.982Z</time></trkpt><trkpt lat="43.8815528" lon="12.4045844"><ele>411.0</ele><time>2026-03-22T15:17:12.983Z</time></trkpt><trkpt lat="43.8816474" lon="12.4046519"><ele>411.0</ele><time>2026-03-22T15:17:13.982Z</time></trkpt><trkpt lat="43.8817417" lon="12.4047052"><ele>411.0</ele><time>2026-03-22T15:17:14.982Z</time></trkpt><trkpt lat="43.8818328" lon="12.4047504"><ele>411.0</ele><time>2026-03-22T15:17:15.983Z</time></trkpt><trkpt lat="43.8819139" lon="12.4047893"><ele>411.0</ele><time>2026-03-22T15:17:16.983Z</time></trkpt><trkpt lat="43.881985" lon="12.4048363"><ele>411.0</ele><time>2026-03-22T15:17:17.983Z</time></trkpt><trkpt lat="43.8820393" lon="12.4049017"><ele>411.0</ele><time>2026-03-22T15:17:18.982Z</time></trkpt><trkpt lat="43.8820752" lon="12.4049909"><ele>408.0</ele><time>2026-03-22T15:17:19.983Z</time></trkpt><trkpt lat="43.8820982" lon="12.4051039"><ele>405.0</ele><time>2026-03-22T15:17:20.982Z</time></trkpt><trkpt lat="43.8821068" lon="12.4052558"><ele>402.0</ele><time>2026-03-22T15:17:21.983Z</time></trkpt><trkpt lat="43.8821151" lon="12.405434"><ele>399.0</ele><time>2026-03-22T15:17:22.982Z</time></trkpt><trkpt lat="43.8821222" lon="12.4056138"><ele>398.25</ele><time>2026-03-22T15:17:23.982Z</time></trkpt><trkpt lat="43.8821377" lon="12.40577"><ele>397.5</ele><time>2026-03-22T15:17:24.983Z</time></trkpt><trkpt lat="43.8821687" lon="12.4059064"><ele>396.75</ele><time>2026-03-22T15:17:25.983Z</time></trkpt><trkpt lat="43.8822235" lon="12.4060428"><ele>396.0</ele><time>2026-03-22T15:17:26.983Z</time></trkpt><trkpt lat="43.8823148" lon="12.4062042"><ele>395.75</ele><time>2026-03-22T15:17:27.982Z</time></trkpt><trkpt lat="43.8824166" lon="12.4063558"><ele>395.5</ele><time>2026-03-22T15:17:28.982Z</time></trkpt><trkpt lat="43.8825164" lon="12.4064895"><ele>395.25</ele><time>2026-03-22T15:17:29.983Z</time></trkpt><trkpt lat="43.882622" lon="12.4066258"><ele>395.0</ele><time>2026-03-22T15:17:30.983Z</time></trkpt><trkpt lat="43.8827133" lon="12.4067282"><ele>393.8</ele><time>2026-03-22T15:17:31.982Z</time></trkpt><trkpt lat="43.8828001" lon="12.4068146"><ele>392.6</ele><time>2026-03-22T15:17:32.982Z</time></trkpt><trkpt lat="43.8828755" lon="12.4068881"><ele>391.4</ele><time>2026-03-22T15:17:33.983Z</time></trkpt><trkpt lat="43.8829321" lon="12.4069498"><ele>390.2</ele><time>2026-03-22T15:17:34.983Z</time></trkpt><trkpt lat="43.8829884" lon="12.40709"><ele>389.0</ele><time>2026-03-22T15:17:36.983Z</time></trkpt><trkpt lat="43.8829483" lon="12.4072433"><ele>389.0</ele><time>2026-03-22T15:17:38.983Z</time></trkpt><trkpt lat="43.882906" lon="12.4073589"><ele>389.0</ele><time>2026-03-22T15:17:39.982Z</time></trkpt><trkpt lat="43.882867" lon="12.407486"><ele>389.0</ele><time>2026-03-22T15:17:40.982Z</time></trkpt><trkpt lat="43.8828431" lon="12.407601"><ele>389.0</ele><time>2026-03-22T15:17:41.983Z</time></trkpt><trkpt lat="43.8828374" lon="12.4077306"><ele>389.0</ele><time>2026-03-22T15:17:42.983Z</time></trkpt><trkpt lat="43.8828423" lon="12.407876"><ele>391.4</ele><time>2026-03-22T15:17:43.982Z</time></trkpt><trkpt lat="43.8828432" lon="12.408015"><ele>393.79999999999995</ele><time>2026-03-22T15:17:44.982Z</time></trkpt><trkpt lat="43.8828247" lon="12.4081429"><ele>396.20000000000005</ele><time>2026-03-22T15:17:45.983Z</time></trkpt><trkpt lat="43.8827801" lon="12.4082518"><ele>398.6</ele><time>2026-03-22T15:17:46.982Z</time></trkpt><trkpt lat="43.8827217" lon="12.408352"><ele>401.0</ele><time>2026-03-22T15:17:47.983Z</time></trkpt><trkpt lat="43.8826454" lon="12.4084321"><ele>401.16666666666663</ele><time>2026-03-22T15:17:48.982Z</time></trkpt><trkpt lat="43.8825656" lon="12.4084997"><ele>401.3333333333333</ele><time>2026-03-22T15:17:49.982Z</time></trkpt><trkpt lat="43.8824896" lon="12.4085718"><ele>401.5</ele><time>2026-03-22T15:17:50.983Z</time></trkpt><trkpt lat="43.8824383" lon="12.4086344"><ele>401.66666666666663</ele><time>2026-03-22T15:17:51.982Z</time></trkpt><trkpt lat="43.8824286" lon="12.4087734"><ele>401.8333333333333</ele><time>2026-03-22T15:17:53.983Z</time></trkpt><trkpt lat="43.882478" lon="12.4088326"><ele>402.0</ele><time>2026-03-22T15:17:54.983Z</time></trkpt><trkpt lat="43.8825563" lon="12.4088576"><ele>405.25</ele><time>2026-03-22T15:17:55.982Z</time></trkpt><trkpt lat="43.882659" lon="12.40887"><ele>408.5</ele><time>2026-03-22T15:17:56.982Z</time></trkpt><trkpt lat="43.8827725" lon="12.4088851"><ele>411.75</ele><time>2026-03-22T15:17:57.983Z</time></trkpt><trkpt lat="43.8829164" lon="12.4089093"><ele>415.0</ele><time>2026-03-22T15:17:58.983Z</time></trkpt><trkpt lat="43.8830684" lon="12.4089241"><ele>415.0</ele><time>2026-03-22T15:17:59.983Z</time></trkpt><trkpt lat="43.8832052" lon="12.4089504"><ele>415.0</ele><time>2026-03-22T15:18:00.982Z</time></trkpt><trkpt lat="43.8833313" lon="12.4089691"><ele>415.0</ele><time>2026-03-22T15:18:01.983Z</time></trkpt><trkpt lat="43.8834555" lon="12.4090015"><ele>415.0</ele><time>2026-03-22T15:18:02.982Z</time></trkpt><trkpt lat="43.8835774" lon="12.4090533"><ele>417.0</ele><time>2026-03-22T15:18:03.983Z</time></trkpt><trkpt lat="43.8837171" lon="12.4091238"><ele>419.0</ele><time>2026-03-22T15:18:04.982Z</time></trkpt><trkpt lat="43.8838598" lon="12.4092019"><ele>421.0</ele><time>2026-03-22T15:18:05.982Z</time></trkpt><trkpt lat="43.8840122" lon="12.409282"><ele>421.0</ele><time>2026-03-22T15:18:06.983Z</time></trkpt><trkpt lat="43.8841598" lon="12.4093612"><ele>421.0</ele><time>2026-03-22T15:18:07.983Z</time></trkpt><trkpt lat="43.8843212" lon="12.4094401"><ele>421.0</ele><time>2026-03-22T15:18:08.982Z</time></trkpt><trkpt lat="43.8844602" lon="12.409513"><ele>420.8</ele><time>2026-03-22T15:18:09.982Z</time></trkpt><trkpt lat="43.8845797" lon="12.4095743"><ele>420.6</ele><time>2026-03-22T15:18:10.983Z</time></trkpt><trkpt lat="43.8846702" lon="12.4096485"><ele>420.4</ele><time>2026-03-22T15:18:11.983Z</time></trkpt><trkpt lat="43.8847399" lon="12.409742"><ele>420.2</ele><time>2026-03-22T15:18:12.982Z</time></trkpt><trkpt lat="43.8847909" lon="12.4098557"><ele>420.0</ele><time>2026-03-22T15:18:13.983Z</time></trkpt><trkpt lat="43.8848122" lon="12.4099812"><ele>422.4</ele><time>2026-03-22T15:18:14.983Z</time></trkpt><trkpt lat="43.8848037" lon="12.4101148"><ele>424.8</ele><time>2026-03-22T15:18:15.982Z</time></trkpt><trkpt lat="43.8847679" lon="12.4102595"><ele>427.20000000000005</ele><time>2026-03-22T15:18:16.983Z</time></trkpt><trkpt lat="43.8847087" lon="12.4104202"><ele>429.6</ele><time>2026-03-22T15:18:17.983Z</time></trkpt><trkpt lat="43.8846721" lon="12.4105654"><ele>432.0</ele><time>2026-03-22T15:18:18.983Z</time></trkpt><trkpt lat="43.8846627" lon="12.4107053"><ele>433.75</ele><time>2026-03-22T15:18:19.982Z</time></trkpt><trkpt lat="43.8846913" lon="12.4108539"><ele>435.5</ele><time>2026-03-22T15:18:20.983Z</time></trkpt><trkpt lat="43.8847576" lon="12.4110366"><ele>437.25</ele><time>2026-03-22T15:18:21.983Z</time></trkpt><trkpt lat="43.8848309" lon="12.4112312"><ele>439.0</ele><time>2026-03-22T15:18:22.983Z</time></trkpt><trkpt lat="43.8848654" lon="12.4113846"><ele>439.5</ele><time>2026-03-22T15:18:23.982Z</time></trkpt><trkpt lat="43.8848949" lon="12.4115137"><ele>440.0</ele><time>2026-03-22T15:18:24.983Z</time></trkpt><trkpt lat="43.8849315" lon="12.4116298"><ele>440.5</ele><time>2026-03-22T15:18:25.982Z</time></trkpt><trkpt lat="43.8849981" lon="12.4117642"><ele>441.0</ele><time>2026-03-22T15:18:26.982Z</time></trkpt><trkpt lat="43.8850969" lon="12.4119202"><ele>441.0</ele><time>2026-03-22T15:18:27.983Z</time></trkpt><trkpt lat="43.885196" lon="12.4120744"><ele>441.0</ele><time>2026-03-22T15:18:28.983Z</time></trkpt><trkpt lat="43.8852832" lon="12.4122135"><ele>441.0</ele><time>2026-03-22T15:18:29.983Z</time></trkpt><trkpt lat="43.8853691" lon="12.4123432"><ele>441.0</ele><time>2026-03-22T15:18:30.983Z</time></trkpt><trkpt lat="43.8854439" lon="12.4124587"><ele>442.8</ele><time>2026-03-22T15:18:31.983Z</time></trkpt><trkpt lat="43.8855058" lon="12.4125526"><ele>444.6</ele><time>2026-03-22T15:18:32.982Z</time></trkpt><trkpt lat="43.8855584" lon="12.4126438"><ele>446.4</ele><time>2026-03-22T15:18:33.983Z</time></trkpt><trkpt lat="43.8856175" lon="12.4127575"><ele>448.2</ele><time>2026-03-22T15:18:34.983Z</time></trkpt><trkpt lat="43.8856838" lon="12.4128743"><ele>450.0</ele><time>2026-03-22T15:18:35.982Z</time></trkpt><trkpt lat="43.8857594" lon="12.4129885"><ele>449.75</ele><time>2026-03-22T15:18:36.983Z</time></trkpt><trkpt lat="43.8858517" lon="12.4131162"><ele>449.5</ele><time>2026-03-22T15:18:37.982Z</time></trkpt><trkpt lat="43.8859637" lon="12.4132265"><ele>449.25</ele><time>2026-03-22T15:18:38.982Z</time></trkpt><trkpt lat="43.8860822" lon="12.4133239"><ele>449.0</ele><time>2026-03-22T15:18:39.982Z</time></trkpt><trkpt lat="43.8862037" lon="12.4134317"><ele>449.0</ele><time>2026-03-22T15:18:40.983Z</time></trkpt><trkpt lat="43.8863339" lon="12.4135536"><ele>449.0</ele><time>2026-03-22T15:18:41.983Z</time></trkpt><trkpt lat="43.8864676" lon="12.4136905"><ele>449.0</ele><time>2026-03-22T15:18:42.983Z</time></trkpt><trkpt lat="43.8866109" lon="12.413839"><ele>452.0</ele><time>2026-03-22T15:18:43.983Z</time></trkpt><trkpt lat="43.886744" lon="12.4139792"><ele>455.0</ele><time>2026-03-22T15:18:44.982Z</time></trkpt><trkpt lat="43.886859" lon="12.4141023"><ele>458.0</ele><time>2026-03-22T15:18:45.983Z</time></trkpt><trkpt lat="43.8869793" lon="12.4142234"><ele>458.0</ele><time>2026-03-22T15:18:46.982Z</time></trkpt><trkpt lat="43.8870975" lon="12.4143423"><ele>458.0</ele><time>2026-03-22T15:18:47.983Z</time></trkpt><trkpt lat="43.887205" lon="12.4144706"><ele>458.0</ele><time>2026-03-22T15:18:48.983Z</time></trkpt><trkpt lat="43.8872877" lon="12.4145978"><ele>458.0</ele><time>2026-03-22T15:18:49.983Z</time></trkpt><trkpt lat="43.8873775" lon="12.4146908"><ele>460.0</ele><time>2026-03-22T15:18:50.983Z</time></trkpt><trkpt lat="43.8874899" lon="12.4147614"><ele>462.0</ele><time>2026-03-22T15:18:51.982Z</time></trkpt><trkpt lat="43.8876164" lon="12.4148082"><ele>464.0</ele><time>2026-03-22T15:18:52.982Z</time></trkpt><trkpt lat="43.8877289" lon="12.4148678"><ele>466.0</ele><time>2026-03-22T15:18:53.983Z</time></trkpt><trkpt lat="43.8878184" lon="12.4149691"><ele>467.0</ele><time>2026-03-22T15:18:54.982Z</time></trkpt><trkpt lat="43.8878936" lon="12.4151072"><ele>468.0</ele><time>2026-03-22T15:18:55.982Z</time></trkpt><trkpt lat="43.8879628" lon="12.4152099"><ele>469.0</ele><time>2026-03-22T15:18:56.983Z</time></trkpt><trkpt lat="43.8880363" lon="12.4152733"><ele>470.0</ele><time>2026-03-22T15:18:57.983Z</time></trkpt><trkpt lat="43.8881323" lon="12.415301"><ele>471.0</ele><time>2026-03-22T15:18:58.983Z</time></trkpt><trkpt lat="43.8882569" lon="12.4152823"><ele>471.0</ele><time>2026-03-22T15:18:59.983Z</time></trkpt><trkpt lat="43.8884064" lon="12.415224"><ele>471.0</ele><time>2026-03-22T15:19:00.983Z</time></trkpt><trkpt lat="43.888578" lon="12.4151381"><ele>471.0</ele><time>2026-03-22T15:19:01.983Z</time></trkpt><trkpt lat="43.8887597" lon="12.4150764"><ele>473.75</ele><time>2026-03-22T15:19:02.982Z</time></trkpt><trkpt lat="43.8889111" lon="12.4150314"><ele>476.5</ele><time>2026-03-22T15:19:03.983Z</time></trkpt><trkpt lat="43.8890405" lon="12.4149654"><ele>479.25</ele><time>2026-03-22T15:19:04.983Z</time></trkpt><trkpt lat="43.8891416" lon="12.414858"><ele>482.0</ele><time>2026-03-22T15:19:05.983Z</time></trkpt><trkpt lat="43.8892482" lon="12.4146967"><ele>483.0</ele><time>2026-03-22T15:19:06.983Z</time></trkpt><trkpt lat="43.8893516" lon="12.4144941"><ele>484.0</ele><time>2026-03-22T15:19:07.983Z</time></trkpt><trkpt lat="43.8894391" lon="12.4142903"><ele>485.0</ele><time>2026-03-22T15:19:08.983Z</time></trkpt><trkpt lat="43.8895148" lon="12.4140685"><ele>485.0</ele><time>2026-03-22T15:19:09.982Z</time></trkpt><trkpt lat="43.8895539" lon="12.4138908"><ele>485.0</ele><time>2026-03-22T15:19:10.982Z</time></trkpt><trkpt lat="43.8895778" lon="12.4137495"><ele>485.0</ele><time>2026-03-22T15:19:11.982Z</time></trkpt><trkpt lat="43.8896087" lon="12.4136243"><ele>485.0</ele><time>2026-03-22T15:19:12.982Z</time></trkpt><trkpt lat="43.8896539" lon="12.4135166"><ele>485.0</ele><time>2026-03-22T15:19:13.982Z</time></trkpt><trkpt lat="43.8897259" lon="12.4134078"><ele>484.25</ele><time>2026-03-22T15:19:14.983Z</time></trkpt><trkpt lat="43.889825" lon="12.4132948"><ele>483.5</ele><time>2026-03-22T15:19:15.982Z</time></trkpt><trkpt lat="43.8899432" lon="12.4131812"><ele>482.75</ele><time>2026-03-22T15:19:16.983Z</time></trkpt><trkpt lat="43.890072" lon="12.4130673"><ele>482.0</ele><time>2026-03-22T15:19:17.983Z</time></trkpt><trkpt lat="43.8902071" lon="12.4129516"><ele>484.5</ele><time>2026-03-22T15:19:18.983Z</time></trkpt><trkpt lat="43.8903439" lon="12.4128331"><ele>487.0</ele><time>2026-03-22T15:19:19.983Z</time></trkpt><trkpt lat="43.890472" lon="12.4127202"><ele>489.5</ele><time>2026-03-22T15:19:20.983Z</time></trkpt><trkpt lat="43.8905852" lon="12.4126282"><ele>492.0</ele><time>2026-03-22T15:19:21.983Z</time></trkpt><trkpt lat="43.8906755" lon="12.4125496"><ele>492.0</ele><time>2026-03-22T15:19:22.983Z</time></trkpt><trkpt lat="43.8907353" lon="12.4124989"><ele>492.00000000000006</ele><time>2026-03-22T15:19:23.982Z</time></trkpt><trkpt lat="43.8907677" lon="12.4124075"><ele>492.00000000000006</ele><time>2026-03-22T15:19:25.983Z</time></trkpt><trkpt lat="43.890721" lon="12.4122692"><ele>492.0</ele><time>2026-03-22T15:19:27.983Z</time></trkpt><trkpt lat="43.8906621" lon="12.4121588"><ele>492.0</ele><time>2026-03-22T15:19:28.983Z</time></trkpt><trkpt lat="43.8905891" lon="12.4120062"><ele>492.0</ele><time>2026-03-22T15:19:29.983Z</time></trkpt><trkpt lat="43.890524" lon="12.4118326"><ele>492.0</ele><time>2026-03-22T15:19:30.983Z</time></trkpt><trkpt lat="43.8904648" lon="12.4116598"><ele>492.0</ele><time>2026-03-22T15:19:31.983Z</time></trkpt><trkpt lat="43.8904082" lon="12.4114843"><ele>492.0</ele><time>2026-03-22T15:19:32.982Z</time></trkpt><trkpt lat="43.8903609" lon="12.4113107"><ele>490.8</ele><time>2026-03-22T15:19:33.983Z</time></trkpt><trkpt lat="43.8903217" lon="12.4111449"><ele>489.6</ele><time>2026-03-22T15:19:34.983Z</time></trkpt><trkpt lat="43.8902858" lon="12.4109904"><ele>488.40000000000003</ele><time>2026-03-22T15:19:35.982Z</time></trkpt><trkpt lat="43.8902567" lon="12.4108602"><ele>487.20000000000005</ele><time>2026-03-22T15:19:36.982Z</time></trkpt><trkpt lat="43.8902318" lon="12.4107524"><ele>486.0</ele><time>2026-03-22T15:19:37.983Z</time></trkpt><trkpt lat="43.8902151" lon="12.4106438"><ele>486.0</ele><time>2026-03-22T15:19:38.982Z</time></trkpt><trkpt lat="43.8902052" lon="12.410542"><ele>486.0</ele><time>2026-03-22T15:19:39.982Z</time></trkpt><trkpt lat="43.890199" lon="12.4104412"><ele>486.0</ele><time>2026-03-22T15:19:40.983Z</time></trkpt><trkpt lat="43.8902058" lon="12.4103452"><ele>486.0</ele><time>2026-03-22T15:19:41.983Z</time></trkpt><trkpt lat="43.8902239" lon="12.4102576"><ele>486.0</ele><time>2026-03-22T15:19:42.983Z</time></trkpt><trkpt lat="43.8902607" lon="12.4101361"><ele>486.0</ele><time>2026-03-22T15:19:44.983Z</time></trkpt><trkpt lat="43.8902917" lon="12.4100584"><ele>486.0</ele><time>2026-03-22T15:19:46.983Z</time></trkpt><trkpt lat="43.8903254" lon="12.4099558"><ele>484.6666666666667</ele><time>2026-03-22T15:19:49.983Z</time></trkpt><trkpt lat="43.8902653" lon="12.4099082"><ele>483.33333333333337</ele><time>2026-03-22T15:19:53.938Z</time></trkpt><trkpt lat="43.8902618" lon="12.4100209"><ele>482.0</ele><time>2026-03-22T15:20:17.982Z</time></trkpt><trkpt lat="43.8902673" lon="12.410137"><ele>480.6666666666667</ele><time>2026-03-22T15:20:19.982Z</time></trkpt><trkpt lat="43.8902328" lon="12.4102964"><ele>479.33333333333337</ele><time>2026-03-22T15:20:21.983Z</time></trkpt><trkpt lat="43.8902221" lon="12.4103872"><ele>478.0</ele><time>2026-03-22T15:20:22.983Z</time></trkpt><trkpt lat="43.8902137" lon="12.4104797"><ele>478.0</ele><time>2026-03-22T15:20:23.983Z</time></trkpt><trkpt lat="43.890207" lon="12.41057"><ele>477.99999999999994</ele><time>2026-03-22T15:20:24.982Z</time></trkpt><trkpt lat="43.890206" lon="12.4106977"><ele>477.99999999999994</ele><time>2026-03-22T15:20:26.983Z</time></trkpt><trkpt lat="43.8902551" lon="12.4107599"><ele>478.0</ele><time>2026-03-22T15:20:29.983Z</time></trkpt><trkpt lat="43.8902873" lon="12.4106003"><ele>478.0</ele><time>2026-03-22T15:20:32.983Z</time></trkpt><trkpt lat="43.8903042" lon="12.4104467"><ele>478.0</ele><time>2026-03-22T15:20:34.983Z</time></trkpt><trkpt lat="43.8903189" lon="12.4102966"><ele>477.99999999999994</ele><time>2026-03-22T15:20:36.983Z</time></trkpt><trkpt lat="43.8903535" lon="12.4101597"><ele>477.99999999999994</ele><time>2026-03-22T15:20:38.982Z</time></trkpt><trkpt lat="43.8903981" lon="12.4100305"><ele>478.0</ele><time>2026-03-22T15:20:40.983Z</time></trkpt><trkpt lat="43.8904282" lon="12.4098919"><ele>478.0</ele><time>2026-03-22T15:20:42.983Z</time></trkpt><trkpt lat="43.8904564" lon="12.4098128"><ele>478.0</ele><time>2026-03-22T15:20:43.982Z</time></trkpt><trkpt lat="43.8904806" lon="12.40966"><ele>477.99999999999994</ele><time>2026-03-22T15:20:45.983Z</time></trkpt><trkpt lat="43.8905274" lon="12.4095039"><ele>477.99999999999994</ele><time>2026-03-22T15:20:47.982Z</time></trkpt><trkpt lat="43.8905548" lon="12.4094252"><ele>478.0</ele><time>2026-03-22T15:20:48.983Z</time></trkpt><trkpt lat="43.8906046" lon="12.4092783"><ele>478.0</ele><time>2026-03-22T15:20:50.983Z</time></trkpt><trkpt lat="43.8906235" lon="12.4091851"><ele>474.79999999999995</ele><time>2026-03-22T15:20:52.982Z</time></trkpt><trkpt lat="43.8906451" lon="12.4090672"><ele>471.59999999999997</ele><time>2026-03-22T15:20:54.983Z</time></trkpt><trkpt lat="43.890663" lon="12.4089417"><ele>468.40000000000003</ele><time>2026-03-22T15:20:57.982Z</time></trkpt><trkpt lat="43.890713" lon="12.4088135"><ele>465.20000000000005</ele><time>2026-03-22T15:21:01.982Z</time></trkpt><trkpt lat="43.8907514" lon="12.4086786"><ele>462.0</ele><time>2026-03-22T15:21:03.982Z</time></trkpt><trkpt lat="43.8907968" lon="12.4085881"><ele>461.6666666666667</ele><time>2026-03-22T15:21:05.983Z</time></trkpt><trkpt lat="43.8908502" lon="12.4084907"><ele>461.33333333333337</ele><time>2026-03-22T15:21:07.982Z</time></trkpt><trkpt lat="43.8908999" lon="12.4084101"><ele>461.0</ele><time>2026-03-22T15:21:09.982Z</time></trkpt><trkpt lat="43.8909512" lon="12.4082878"><ele>460.6666666666667</ele><time>2026-03-22T15:21:14.001Z</time></trkpt><trkpt lat="43.8908574" lon="12.4082218"><ele>460.33333333333337</ele><time>2026-03-22T15:21:16.982Z</time></trkpt><trkpt lat="43.8907962" lon="12.4081781"><ele>460.0</ele><time>2026-03-22T15:21:17.982Z</time></trkpt><trkpt lat="43.8907583" lon="12.4081079"><ele>458.2</ele><time>2026-03-22T15:21:18.983Z</time></trkpt><trkpt lat="43.8907462" lon="12.4080108"><ele>456.4</ele><time>2026-03-22T15:21:19.982Z</time></trkpt><trkpt lat="43.890759" lon="12.407877"><ele>454.6</ele><time>2026-03-22T15:21:20.982Z</time></trkpt><trkpt lat="43.8907867" lon="12.4077121"><ele>452.8</ele><time>2026-03-22T15:21:21.982Z</time></trkpt><trkpt lat="43.8908191" lon="12.4075204"><ele>451.0</ele><time>2026-03-22T15:21:22.983Z</time></trkpt><trkpt lat="43.8908532" lon="12.4073318"><ele>446.0</ele><time>2026-03-22T15:21:23.983Z</time></trkpt><trkpt lat="43.8908978" lon="12.4071517"><ele>441.0</ele><time>2026-03-22T15:21:24.983Z</time></trkpt><trkpt lat="43.8909593" lon="12.4069741"><ele>436.0</ele><time>2026-03-22T15:21:25.982Z</time></trkpt><trkpt lat="43.8910198" lon="12.4068068"><ele>431.0</ele><time>2026-03-22T15:21:26.983Z</time></trkpt><trkpt lat="43.8910749" lon="12.4066624"><ele>430.99999999999994</ele><time>2026-03-22T15:21:27.983Z</time></trkpt><trkpt lat="43.8911283" lon="12.4065351"><ele>431.0</ele><time>2026-03-22T15:21:28.982Z</time></trkpt><trkpt lat="43.8911713" lon="12.406439"><ele>431.0</ele><time>2026-03-22T15:21:29.982Z</time></trkpt><trkpt lat="43.8911915" lon="12.4063335"><ele>431.0</ele><time>2026-03-22T15:21:30.983Z</time></trkpt><trkpt lat="43.8911711" lon="12.406242"><ele>430.99999999999994</ele><time>2026-03-22T15:21:31.983Z</time></trkpt><trkpt lat="43.8911251" lon="12.4061786"><ele>431.0</ele><time>2026-03-22T15:21:32.983Z</time></trkpt><trkpt lat="43.8910549" lon="12.4061466"><ele>426.99999999999994</ele><time>2026-03-22T15:21:33.983Z</time></trkpt><trkpt lat="43.8909771" lon="12.4061321"><ele>423.0</ele><time>2026-03-22T15:21:34.982Z</time></trkpt><trkpt lat="43.890871" lon="12.4061532"><ele>419.0</ele><time>2026-03-22T15:21:35.983Z</time></trkpt><trkpt lat="43.8907982" lon="12.4061856"><ele>415.0</ele><time>2026-03-22T15:21:36.983Z</time></trkpt><trkpt lat="43.8907209" lon="12.4061934"><ele>410.99999999999994</ele><time>2026-03-22T15:21:37.983Z</time></trkpt><trkpt lat="43.8906579" lon="12.4061723"><ele>407.0</ele><time>2026-03-22T15:21:38.983Z</time></trkpt><trkpt lat="43.8906311" lon="12.4060196"><ele>406.20000000000005</ele><time>2026-03-22T15:21:40.982Z</time></trkpt><trkpt lat="43.8906541" lon="12.4058919"><ele>405.4</ele><time>2026-03-22T15:21:41.983Z</time></trkpt><trkpt lat="43.8907114" lon="12.4057431"><ele>404.6</ele><time>2026-03-22T15:21:42.982Z</time></trkpt><trkpt lat="43.8907494" lon="12.4056192"><ele>403.79999999999995</ele><time>2026-03-22T15:21:43.983Z</time></trkpt><trkpt lat="43.8907542" lon="12.4055144"><ele>403.0</ele><time>2026-03-22T15:21:44.983Z</time></trkpt><trkpt lat="43.8906828" lon="12.4054868"><ele>403.0</ele><time>2026-03-22T15:21:45.982Z</time></trkpt><trkpt lat="43.8906117" lon="12.4054608"><ele>403.0</ele><time>2026-03-22T15:21:46.982Z</time></trkpt><trkpt lat="43.8905314" lon="12.4054786"><ele>403.0</ele><time>2026-03-22T15:21:47.982Z</time></trkpt><trkpt lat="43.8904081" lon="12.4055998"><ele>403.0</ele><time>2026-03-22T15:21:48.983Z</time></trkpt><trkpt lat="43.8903005" lon="12.4057451"><ele>403.0</ele><time>2026-03-22T15:21:49.983Z</time></trkpt><trkpt lat="43.8902009" lon="12.4058399"><ele>403.0</ele><time>2026-03-22T15:21:50.982Z</time></trkpt><trkpt lat="43.8901122" lon="12.4059119"><ele>403.0</ele><time>2026-03-22T15:21:51.983Z</time></trkpt><trkpt lat="43.8900288" lon="12.4059408"><ele>403.0</ele><time>2026-03-22T15:21:52.982Z</time></trkpt><trkpt lat="43.8899587" lon="12.4059099"><ele>403.0</ele><time>2026-03-22T15:21:53.982Z</time></trkpt><trkpt lat="43.8899153" lon="12.4058368"><ele>399.5</ele><time>2026-03-22T15:21:54.982Z</time></trkpt><trkpt lat="43.8899056" lon="12.4057317"><ele>396.0</ele><time>2026-03-22T15:21:55.982Z</time></trkpt><trkpt lat="43.889901" lon="12.4055941"><ele>392.5</ele><time>2026-03-22T15:21:56.982Z</time></trkpt><trkpt lat="43.8898938" lon="12.4054128"><ele>389.0</ele><time>2026-03-22T15:21:57.983Z</time></trkpt><trkpt lat="43.8899554" lon="12.4051793"><ele>387.0</ele><time>2026-03-22T15:21:58.983Z</time></trkpt><trkpt lat="43.8899759" lon="12.4050078"><ele>385.0</ele><time>2026-03-22T15:21:59.982Z</time></trkpt><trkpt lat="43.8899967" lon="12.404864"><ele>383.0</ele><time>2026-03-22T15:22:00.983Z</time></trkpt><trkpt lat="43.8899888" lon="12.4047633"><ele>381.0</ele><time>2026-03-22T15:22:01.983Z</time></trkpt><trkpt lat="43.8899541" lon="12.4046722"><ele>379.0</ele><time>2026-03-22T15:22:02.982Z</time></trkpt><trkpt lat="43.8898895" lon="12.4046198"><ele>379.0</ele><time>2026-03-22T15:22:03.983Z</time></trkpt><trkpt lat="43.8897948" lon="12.4046037"><ele>379.0</ele><time>2026-03-22T15:22:04.983Z</time></trkpt><trkpt lat="43.8896807" lon="12.4046173"><ele>379.0</ele><time>2026-03-22T15:22:05.983Z</time></trkpt><trkpt lat="43.8895608" lon="12.4046554"><ele>379.0</ele><time>2026-03-22T15:22:06.982Z</time></trkpt><trkpt lat="43.889445" lon="12.4047004"><ele>379.0</ele><time>2026-03-22T15:22:07.983Z</time></trkpt><trkpt lat="43.8893463" lon="12.4047413"><ele>379.0</ele><time>2026-03-22T15:22:08.983Z</time></trkpt><trkpt lat="43.8892696" lon="12.4047403"><ele>379.0</ele><time>2026-03-22T15:22:09.982Z</time></trkpt><trkpt lat="43.8891946" lon="12.404746"><ele>379.0</ele><time>2026-03-22T15:22:10.983Z</time></trkpt><trkpt lat="43.8891119" lon="12.4047529"><ele>379.0</ele><time>2026-03-22T15:22:11.983Z</time></trkpt><trkpt lat="43.8890341" lon="12.4047731"><ele>379.0</ele><time>2026-03-22T15:22:12.983Z</time></trkpt><trkpt lat="43.8889339" lon="12.4047675"><ele>378.75</ele><time>2026-03-22T15:22:13.983Z</time></trkpt><trkpt lat="43.8888322" lon="12.4047356"><ele>378.5</ele><time>2026-03-22T15:22:14.983Z</time></trkpt><trkpt lat="43.8887194" lon="12.4047105"><ele>378.25</ele><time>2026-03-22T15:22:15.983Z</time></trkpt><trkpt lat="43.8885922" lon="12.4046854"><ele>378.0</ele><time>2026-03-22T15:22:16.983Z</time></trkpt><trkpt lat="43.8884702" lon="12.4046545"><ele>374.5</ele><time>2026-03-22T15:22:17.983Z</time></trkpt><trkpt lat="43.8883556" lon="12.4046195"><ele>371.0</ele><time>2026-03-22T15:22:18.983Z</time></trkpt><trkpt lat="43.8882545" lon="12.4045768"><ele>367.5</ele><time>2026-03-22T15:22:19.983Z</time></trkpt><trkpt lat="43.8881517" lon="12.404524"><ele>364.0</ele><time>2026-03-22T15:22:20.982Z</time></trkpt><trkpt lat="43.8880413" lon="12.4044566"><ele>364.0</ele><time>2026-03-22T15:22:21.983Z</time></trkpt><trkpt lat="43.8879446" lon="12.4043832"><ele>364.0</ele><time>2026-03-22T15:22:22.983Z</time></trkpt><trkpt lat="43.8878569" lon="12.4043156"><ele>364.0</ele><time>2026-03-22T15:22:23.982Z</time></trkpt><trkpt lat="43.8877538" lon="12.4042818"><ele>364.0</ele><time>2026-03-22T15:22:24.983Z</time></trkpt><trkpt lat="43.8876633" lon="12.4042509"><ele>364.0</ele><time>2026-03-22T15:22:25.982Z</time></trkpt><trkpt lat="43.8875797" lon="12.4042248"><ele>364.4</ele><time>2026-03-22T15:22:26.983Z</time></trkpt><trkpt lat="43.8874951" lon="12.404197"><ele>364.79999999999995</ele><time>2026-03-22T15:22:27.983Z</time></trkpt><trkpt lat="43.8874088" lon="12.4041711"><ele>365.20000000000005</ele><time>2026-03-22T15:22:28.983Z</time></trkpt><trkpt lat="43.8873232" lon="12.4041471"><ele>365.6</ele><time>2026-03-22T15:22:29.983Z</time></trkpt><trkpt lat="43.8872523" lon="12.4041094"><ele>366.0</ele><time>2026-03-22T15:22:30.982Z</time></trkpt><trkpt lat="43.8871807" lon="12.4039649"><ele>366.0</ele><time>2026-03-22T15:22:32.982Z</time></trkpt><trkpt lat="43.8871777" lon="12.4038515"><ele>366.0</ele><time>2026-03-22T15:22:33.983Z</time></trkpt><trkpt lat="43.8871934" lon="12.4037438"><ele>366.0</ele><time>2026-03-22T15:22:34.982Z</time></trkpt><trkpt lat="43.8872282" lon="12.40362"><ele>366.0</ele><time>2026-03-22T15:22:35.982Z</time></trkpt><trkpt lat="43.8872655" lon="12.4034821"><ele>366.0</ele><time>2026-03-22T15:22:36.982Z</time></trkpt><trkpt lat="43.8873058" lon="12.4033301"><ele>363.0</ele><time>2026-03-22T15:22:37.982Z</time></trkpt><trkpt lat="43.8873562" lon="12.403194"><ele>360.0</ele><time>2026-03-22T15:22:38.983Z</time></trkpt><trkpt lat="43.8874114" lon="12.4030537"><ele>357.0</ele><time>2026-03-22T15:22:39.982Z</time></trkpt><trkpt lat="43.887468" lon="12.4029052"><ele>354.0</ele><time>2026-03-22T15:22:40.982Z</time></trkpt><trkpt lat="43.8875131" lon="12.4027735"><ele>351.79999999999995</ele><time>2026-03-22T15:22:41.982Z</time></trkpt><trkpt lat="43.8875514" lon="12.4026546"><ele>349.59999999999997</ele><time>2026-03-22T15:22:42.982Z</time></trkpt><trkpt lat="43.8875793" lon="12.4025248"><ele>347.4</ele><time>2026-03-22T15:22:43.982Z</time></trkpt><trkpt lat="43.8875818" lon="12.4023904"><ele>345.2</ele><time>2026-03-22T15:22:44.982Z</time></trkpt><trkpt lat="43.8875678" lon="12.4022571"><ele>343.0</ele><time>2026-03-22T15:22:45.983Z</time></trkpt><trkpt lat="43.8875443" lon="12.4021262"><ele>341.2</ele><time>2026-03-22T15:22:46.983Z</time></trkpt><trkpt lat="43.8875123" lon="12.402002"><ele>339.4</ele><time>2026-03-22T15:22:47.983Z</time></trkpt><trkpt lat="43.8874784" lon="12.4018859"><ele>337.59999999999997</ele><time>2026-03-22T15:22:48.982Z</time></trkpt><trkpt lat="43.8874453" lon="12.4017792"><ele>335.79999999999995</ele><time>2026-03-22T15:22:49.982Z</time></trkpt><trkpt lat="43.8874091" lon="12.4016662"><ele>334.0</ele><time>2026-03-22T15:22:50.983Z</time></trkpt><trkpt lat="43.8873706" lon="12.4015454"><ele>334.0</ele><time>2026-03-22T15:22:51.983Z</time></trkpt><trkpt lat="43.8873322" lon="12.4014278"><ele>334.0</ele><time>2026-03-22T15:22:52.982Z</time></trkpt><trkpt lat="43.8872965" lon="12.4013053"><ele>334.0</ele><time>2026-03-22T15:22:53.983Z</time></trkpt><trkpt lat="43.887257" lon="12.4011751"><ele>334.0</ele><time>2026-03-22T15:22:54.983Z</time></trkpt><trkpt lat="43.8872161" lon="12.4010434"><ele>334.0</ele><time>2026-03-22T15:22:55.983Z</time></trkpt><trkpt lat="43.8871756" lon="12.4009292"><ele>333.8333333333333</ele><time>2026-03-22T15:22:56.982Z</time></trkpt><trkpt lat="43.8871374" lon="12.4008264"><ele>333.66666666666663</ele><time>2026-03-22T15:22:57.982Z</time></trkpt><trkpt lat="43.8870717" lon="12.4007644"><ele>333.5</ele><time>2026-03-22T15:22:58.983Z</time></trkpt><trkpt lat="43.8869963" lon="12.4007231"><ele>333.3333333333333</ele><time>2026-03-22T15:22:59.982Z</time></trkpt><trkpt lat="43.8869161" lon="12.4007132"><ele>333.1666666666667</ele><time>2026-03-22T15:23:00.982Z</time></trkpt><trkpt lat="43.8868267" lon="12.4007239"><ele>333.0</ele><time>2026-03-22T15:23:01.983Z</time></trkpt><trkpt lat="43.8867422" lon="12.4007296"><ele>334.0</ele><time>2026-03-22T15:23:02.983Z</time></trkpt><trkpt lat="43.8866725" lon="12.4007095"><ele>335.0</ele><time>2026-03-22T15:23:03.982Z</time></trkpt><trkpt lat="43.8866104" lon="12.4006666"><ele>336.0</ele><time>2026-03-22T15:23:04.983Z</time></trkpt><trkpt lat="43.8865567" lon="12.4005405"><ele>337.0</ele><time>2026-03-22T15:23:06.982Z</time></trkpt><trkpt lat="43.8865621" lon="12.4004474"><ele>338.0</ele><time>2026-03-22T15:23:07.983Z</time></trkpt><trkpt lat="43.8866403" lon="12.4003281"><ele>339.0</ele><time>2026-03-22T15:23:09.983Z</time></trkpt><trkpt lat="43.8867068" lon="12.400311"><ele>340.1666666666667</ele><time>2026-03-22T15:23:10.982Z</time></trkpt><trkpt lat="43.8867982" lon="12.4003134"><ele>341.3333333333333</ele><time>2026-03-22T15:23:11.982Z</time></trkpt><trkpt lat="43.8869088" lon="12.4003109"><ele>342.5</ele><time>2026-03-22T15:23:12.982Z</time></trkpt><trkpt lat="43.8869997" lon="12.4002844"><ele>343.66666666666663</ele><time>2026-03-22T15:23:13.983Z</time></trkpt><trkpt lat="43.8870679" lon="12.4002384"><ele>344.8333333333333</ele><time>2026-03-22T15:23:14.983Z</time></trkpt><trkpt lat="43.8871176" lon="12.4001734"><ele>346.0</ele><time>2026-03-22T15:23:15.983Z</time></trkpt><trkpt lat="43.8871418" lon="12.4000292"><ele>346.0</ele><time>2026-03-22T15:23:17.983Z</time></trkpt><trkpt lat="43.8870722" lon="12.3999109"><ele>346.0</ele><time>2026-03-22T15:23:19.983Z</time></trkpt><trkpt lat="43.8870058" lon="12.399886"><ele>346.0</ele><time>2026-03-22T15:23:20.982Z</time></trkpt><trkpt lat="43.8869248" lon="12.3998473"><ele>346.0</ele><time>2026-03-22T15:23:21.983Z</time></trkpt><trkpt lat="43.8868429" lon="12.3997874"><ele>346.0</ele><time>2026-03-22T15:23:22.982Z</time></trkpt><trkpt lat="43.8867925" lon="12.3997192"><ele>346.0</ele><time>2026-03-22T15:23:23.982Z</time></trkpt><trkpt lat="43.886777" lon="12.399558"><ele>349.4</ele><time>2026-03-22T15:23:25.983Z</time></trkpt><trkpt lat="43.8868646" lon="12.3994115"><ele>352.8</ele><time>2026-03-22T15:23:27.982Z</time></trkpt><trkpt lat="43.8869404" lon="12.3993548"><ele>356.2</ele><time>2026-03-22T15:23:28.983Z</time></trkpt><trkpt lat="43.8870237" lon="12.3993115"><ele>359.59999999999997</ele><time>2026-03-22T15:23:29.982Z</time></trkpt><trkpt lat="43.8871204" lon="12.3992714"><ele>363.0</ele><time>2026-03-22T15:23:30.982Z</time></trkpt><trkpt lat="43.8872408" lon="12.3992282"><ele>363.0</ele><time>2026-03-22T15:23:31.983Z</time></trkpt><trkpt lat="43.8873646" lon="12.3991789"><ele>363.0</ele><time>2026-03-22T15:23:32.983Z</time></trkpt><trkpt lat="43.8874588" lon="12.3991302"><ele>363.0</ele><time>2026-03-22T15:23:33.982Z</time></trkpt><trkpt lat="43.8875241" lon="12.3990649"><ele>363.0</ele><time>2026-03-22T15:23:34.982Z</time></trkpt><trkpt lat="43.8875744" lon="12.3989661"><ele>363.0</ele><time>2026-03-22T15:23:35.982Z</time></trkpt><trkpt lat="43.8876018" lon="12.3988431"><ele>363.79999999999995</ele><time>2026-03-22T15:23:36.983Z</time></trkpt><trkpt lat="43.8876039" lon="12.3987258"><ele>364.6</ele><time>2026-03-22T15:23:37.982Z</time></trkpt><trkpt lat="43.8875872" lon="12.3986037"><ele>365.4</ele><time>2026-03-22T15:23:38.982Z</time></trkpt><trkpt lat="43.8875649" lon="12.3984695"><ele>366.20000000000005</ele><time>2026-03-22T15:23:39.983Z</time></trkpt><trkpt lat="43.8875393" lon="12.3983264"><ele>367.0</ele><time>2026-03-22T15:23:40.982Z</time></trkpt><trkpt lat="43.8875054" lon="12.3981817"><ele>369.0</ele><time>2026-03-22T15:23:41.983Z</time></trkpt><trkpt lat="43.8874771" lon="12.3980489"><ele>371.0</ele><time>2026-03-22T15:23:42.983Z</time></trkpt><trkpt lat="43.8874692" lon="12.397917"><ele>373.0</ele><time>2026-03-22T15:23:43.983Z</time></trkpt><trkpt lat="43.8874754" lon="12.3977742"><ele>375.0</ele><time>2026-03-22T15:23:44.982Z</time></trkpt><trkpt lat="43.8874948" lon="12.3976432"><ele>377.0</ele><time>2026-03-22T15:23:45.982Z</time></trkpt><trkpt lat="43.8875195" lon="12.3975385"><ele>379.40000000000003</ele><time>2026-03-22T15:23:46.982Z</time></trkpt><trkpt lat="43.8875236" lon="12.397451"><ele>381.8</ele><time>2026-03-22T15:23:47.983Z</time></trkpt><trkpt lat="43.8874567" lon="12.3973603"><ele>384.2</ele><time>2026-03-22T15:23:49.982Z</time></trkpt><trkpt lat="43.8873524" lon="12.3972883"><ele>386.6</ele><time>2026-03-22T15:23:51.982Z</time></trkpt><trkpt lat="43.887275" lon="12.3972611"><ele>389.0</ele><time>2026-03-22T15:23:52.983Z</time></trkpt><trkpt lat="43.8871706" lon="12.3972304"><ele>389.0</ele><time>2026-03-22T15:23:53.982Z</time></trkpt><trkpt lat="43.8870393" lon="12.3971915"><ele>389.0</ele><time>2026-03-22T15:23:54.982Z</time></trkpt><trkpt lat="43.8868915" lon="12.3971481"><ele>389.0</ele><time>2026-03-22T15:23:55.983Z</time></trkpt><trkpt lat="43.8867357" lon="12.3971089"><ele>389.0</ele><time>2026-03-22T15:23:56.983Z</time></trkpt><trkpt lat="43.8865994" lon="12.3970758"><ele>392.5</ele><time>2026-03-22T15:23:57.983Z</time></trkpt><trkpt lat="43.8864594" lon="12.3970454"><ele>396.0</ele><time>2026-03-22T15:23:58.983Z</time></trkpt><trkpt lat="43.8863212" lon="12.3970174"><ele>399.5</ele><time>2026-03-22T15:23:59.983Z</time></trkpt><trkpt lat="43.8861871" lon="12.3970012"><ele>403.0</ele><time>2026-03-22T15:24:00.983Z</time></trkpt><trkpt lat="43.8860593" lon="12.3969811"><ele>403.0</ele><time>2026-03-22T15:24:01.983Z</time></trkpt><trkpt lat="43.8859322" lon="12.3969608"><ele>403.0</ele><time>2026-03-22T15:24:02.983Z</time></trkpt><trkpt lat="43.8858094" lon="12.3969454"><ele>403.0</ele><time>2026-03-22T15:24:03.983Z</time></trkpt><trkpt lat="43.8857044" lon="12.3969286"><ele>403.0</ele><time>2026-03-22T15:24:04.982Z</time></trkpt><trkpt lat="43.8856194" lon="12.3969034"><ele>403.0</ele><time>2026-03-22T15:24:05.982Z</time></trkpt><trkpt lat="43.8855269" lon="12.3968546"><ele>405.0</ele><time>2026-03-22T15:24:06.982Z</time></trkpt><trkpt lat="43.8854207" lon="12.3967895"><ele>407.0</ele><time>2026-03-22T15:24:07.983Z</time></trkpt><trkpt lat="43.8853159" lon="12.3967308"><ele>409.0</ele><time>2026-03-22T15:24:08.982Z</time></trkpt><trkpt lat="43.8851968" lon="12.3966863"><ele>411.0</ele><time>2026-03-22T15:24:09.983Z</time></trkpt><trkpt lat="43.8850733" lon="12.3966498"><ele>411.25</ele><time>2026-03-22T15:24:10.983Z</time></trkpt><trkpt lat="43.8849584" lon="12.3966181"><ele>411.5</ele><time>2026-03-22T15:24:11.982Z</time></trkpt><trkpt lat="43.8848424" lon="12.396581"><ele>411.75</ele><time>2026-03-22T15:24:12.983Z</time></trkpt><trkpt lat="43.8847399" lon="12.3965328"><ele>412.0</ele><time>2026-03-22T15:24:13.982Z</time></trkpt><trkpt lat="43.8846405" lon="12.3964584"><ele>412.0</ele><time>2026-03-22T15:24:14.983Z</time></trkpt><trkpt lat="43.8845387" lon="12.3963578"><ele>412.0</ele><time>2026-03-22T15:24:15.983Z</time></trkpt><trkpt lat="43.8844283" lon="12.3962371"><ele>412.0</ele><time>2026-03-22T15:24:16.982Z</time></trkpt><trkpt lat="43.8843162" lon="12.3961115"><ele>412.0</ele><time>2026-03-22T15:24:17.983Z</time></trkpt><trkpt lat="43.8842093" lon="12.3959829"><ele>413.75</ele><time>2026-03-22T15:24:18.982Z</time></trkpt><trkpt lat="43.8840996" lon="12.3958559"><ele>415.5</ele><time>2026-03-22T15:24:19.983Z</time></trkpt><trkpt lat="43.8839945" lon="12.3957279"><ele>417.25</ele><time>2026-03-22T15:24:20.983Z</time></trkpt><trkpt lat="43.8838979" lon="12.3956085"><ele>419.0</ele><time>2026-03-22T15:24:21.982Z</time></trkpt><trkpt lat="43.8838091" lon="12.3954981"><ele>422.0</ele><time>2026-03-22T15:24:22.983Z</time></trkpt><trkpt lat="43.8837196" lon="12.3953883"><ele>425.0</ele><time>2026-03-22T15:24:23.983Z</time></trkpt><trkpt lat="43.8836293" lon="12.3952825"><ele>428.0</ele><time>2026-03-22T15:24:24.982Z</time></trkpt><trkpt lat="43.8835364" lon="12.3951718"><ele>431.0</ele><time>2026-03-22T15:24:25.983Z</time></trkpt><trkpt lat="43.8834372" lon="12.3950537"><ele>432.0</ele><time>2026-03-22T15:24:26.983Z</time></trkpt><trkpt lat="43.8833339" lon="12.3949331"><ele>433.0</ele><time>2026-03-22T15:24:27.983Z</time></trkpt><trkpt lat="43.8832296" lon="12.3948153"><ele>434.0</ele><time>2026-03-22T15:24:28.982Z</time></trkpt><trkpt lat="43.8831346" lon="12.3947138"><ele>435.0</ele><time>2026-03-22T15:24:29.983Z</time></trkpt><trkpt lat="43.8830598" lon="12.3946368"><ele>436.3333333333333</ele><time>2026-03-22T15:24:30.983Z</time></trkpt><trkpt lat="43.8830042" lon="12.3945829"><ele>437.66666666666663</ele><time>2026-03-22T15:24:31.982Z</time></trkpt><trkpt lat="43.8829746" lon="12.3945031"><ele>439.0</ele><time>2026-03-22T15:24:33.983Z</time></trkpt><trkpt lat="43.8830458" lon="12.3943754"><ele>440.3333333333333</ele><time>2026-03-22T15:24:35.983Z</time></trkpt><trkpt lat="43.8831123" lon="12.3943099"><ele>441.66666666666663</ele><time>2026-03-22T15:24:36.983Z</time></trkpt><trkpt lat="43.8831983" lon="12.3942378"><ele>443.0</ele><time>2026-03-22T15:24:37.982Z</time></trkpt><trkpt lat="43.8832882" lon="12.3941696"><ele>443.0</ele><time>2026-03-22T15:24:38.982Z</time></trkpt><trkpt lat="43.8833833" lon="12.3941109"><ele>442.99999999999994</ele><time>2026-03-22T15:24:39.982Z</time></trkpt><trkpt lat="43.8834795" lon="12.3940601"><ele>442.99999999999994</ele><time>2026-03-22T15:24:40.983Z</time></trkpt><trkpt lat="43.8835851" lon="12.3940241"><ele>443.0</ele><time>2026-03-22T15:24:41.983Z</time></trkpt><trkpt lat="43.8836755" lon="12.3939885"><ele>443.0</ele><time>2026-03-22T15:24:42.982Z</time></trkpt><trkpt lat="43.8837541" lon="12.3939789"><ele>442.66666666666663</ele><time>2026-03-22T15:24:43.983Z</time></trkpt><trkpt lat="43.8838325" lon="12.3939554"><ele>442.3333333333333</ele><time>2026-03-22T15:24:44.982Z</time></trkpt><trkpt lat="43.8839057" lon="12.3939241"><ele>442.0</ele><time>2026-03-22T15:24:45.982Z</time></trkpt><trkpt lat="43.8839891" lon="12.3938753"><ele>441.66666666666663</ele><time>2026-03-22T15:24:46.983Z</time></trkpt><trkpt lat="43.8840716" lon="12.3938269"><ele>441.3333333333333</ele><time>2026-03-22T15:24:47.982Z</time></trkpt><trkpt lat="43.8841377" lon="12.393793"><ele>441.0</ele><time>2026-03-22T15:24:48.982Z</time></trkpt><trkpt lat="43.8842267" lon="12.3937449"><ele>440.0</ele><time>2026-03-22T15:24:50.983Z</time></trkpt><trkpt lat="43.8843074" lon="12.3936931"><ele>439.0</ele><time>2026-03-22T15:24:52.982Z</time></trkpt><trkpt lat="43.8843647" lon="12.3935744"><ele>438.0</ele><time>2026-03-22T15:24:54.983Z</time></trkpt><trkpt lat="43.8843929" lon="12.393469"><ele>437.0</ele><time>2026-03-22T15:24:55.983Z</time></trkpt><trkpt lat="43.8844183" lon="12.3933412"><ele>436.0</ele><time>2026-03-22T15:24:56.983Z</time></trkpt><trkpt lat="43.8844462" lon="12.3932026"><ele>436.00000000000006</ele><time>2026-03-22T15:24:57.982Z</time></trkpt><trkpt lat="43.8844658" lon="12.3930682"><ele>436.0</ele><time>2026-03-22T15:24:58.983Z</time></trkpt><trkpt lat="43.8844743" lon="12.3929493"><ele>436.0</ele><time>2026-03-22T15:24:59.982Z</time></trkpt><trkpt lat="43.8844755" lon="12.3928402"><ele>436.0</ele><time>2026-03-22T15:25:00.982Z</time></trkpt><trkpt lat="43.8844697" lon="12.3927245"><ele>436.00000000000006</ele><time>2026-03-22T15:25:01.983Z</time></trkpt><trkpt lat="43.88446" lon="12.3926038"><ele>436.0</ele><time>2026-03-22T15:25:02.983Z</time></trkpt><trkpt lat="43.8844489" lon="12.3924889"><ele>434.1666666666667</ele><time>2026-03-22T15:25:03.982Z</time></trkpt><trkpt lat="43.8844394" lon="12.3923772"><ele>432.33333333333337</ele><time>2026-03-22T15:25:04.982Z</time></trkpt><trkpt lat="43.8844317" lon="12.3922609"><ele>430.5</ele><time>2026-03-22T15:25:05.983Z</time></trkpt><trkpt lat="43.8844294" lon="12.3921431"><ele>428.66666666666663</ele><time>2026-03-22T15:25:06.983Z</time></trkpt><trkpt lat="43.8844285" lon="12.3920162"><ele>426.8333333333333</ele><time>2026-03-22T15:25:07.983Z</time></trkpt><trkpt lat="43.8844282" lon="12.3918831"><ele>425.0</ele><time>2026-03-22T15:25:08.983Z</time></trkpt><trkpt lat="43.8844274" lon="12.3917496"><ele>424.4</ele><time>2026-03-22T15:25:09.982Z</time></trkpt><trkpt lat="43.884424" lon="12.3916097"><ele>423.8</ele><time>2026-03-22T15:25:10.983Z</time></trkpt><trkpt lat="43.8844157" lon="12.3914548"><ele>423.20000000000005</ele><time>2026-03-22T15:25:11.983Z</time></trkpt><trkpt lat="43.8844005" lon="12.3912883"><ele>422.6</ele><time>2026-03-22T15:25:12.982Z</time></trkpt><trkpt lat="43.8843755" lon="12.3911334"><ele>422.0</ele><time>2026-03-22T15:25:13.983Z</time></trkpt><trkpt lat="43.88435" lon="12.3909966"><ele>422.0</ele><time>2026-03-22T15:25:14.983Z</time></trkpt><trkpt lat="43.8843222" lon="12.3908654"><ele>422.0</ele><time>2026-03-22T15:25:15.983Z</time></trkpt><trkpt lat="43.8842858" lon="12.3907407"><ele>422.0</ele><time>2026-03-22T15:25:16.983Z</time></trkpt><trkpt lat="43.8842519" lon="12.390634"><ele>422.0</ele><time>2026-03-22T15:25:17.983Z</time></trkpt><trkpt lat="43.8842192" lon="12.3905267"><ele>422.0</ele><time>2026-03-22T15:25:18.983Z</time></trkpt><trkpt lat="43.8841733" lon="12.3903999"><ele>422.0</ele><time>2026-03-22T15:25:19.983Z</time></trkpt><trkpt lat="43.8841331" lon="12.3902661"><ele>422.0</ele><time>2026-03-22T15:25:20.983Z</time></trkpt><trkpt lat="43.8841005" lon="12.3901315"><ele>422.0</ele><time>2026-03-22T15:25:21.983Z</time></trkpt><trkpt lat="43.8840644" lon="12.3900014"><ele>422.0</ele><time>2026-03-22T15:25:22.982Z</time></trkpt><trkpt lat="43.884032" lon="12.3898719"><ele>422.0</ele><time>2026-03-22T15:25:23.983Z</time></trkpt><trkpt lat="43.8840076" lon="12.3897463"><ele>419.66666666666663</ele><time>2026-03-22T15:25:24.982Z</time></trkpt><trkpt lat="43.8839757" lon="12.3896334"><ele>417.3333333333333</ele><time>2026-03-22T15:25:25.983Z</time></trkpt><trkpt lat="43.883945" lon="12.3895165"><ele>415.0</ele><time>2026-03-22T15:25:26.982Z</time></trkpt><trkpt lat="43.8839207" lon="12.3893993"><ele>412.66666666666663</ele><time>2026-03-22T15:25:27.983Z</time></trkpt><trkpt lat="43.8838996" lon="12.3892939"><ele>410.3333333333333</ele><time>2026-03-22T15:25:28.982Z</time></trkpt><trkpt lat="43.8838766" lon="12.3891989"><ele>408.0</ele><time>2026-03-22T15:25:29.983Z</time></trkpt><trkpt lat="43.8838506" lon="12.3891094"><ele>408.0</ele><time>2026-03-22T15:25:30.983Z</time></trkpt><trkpt lat="43.8838153" lon="12.3890269"><ele>408.0</ele><time>2026-03-22T15:25:31.983Z</time></trkpt><trkpt lat="43.8837703" lon="12.38895"><ele>408.0</ele><time>2026-03-22T15:25:32.983Z</time></trkpt><trkpt lat="43.8837182" lon="12.3888898"><ele>408.0</ele><time>2026-03-22T15:25:33.983Z</time></trkpt><trkpt lat="43.8836146" lon="12.3888175"><ele>408.0</ele><time>2026-03-22T15:25:35.983Z</time></trkpt><trkpt lat="43.8835988" lon="12.3886319"><ele>406.3333333333333</ele><time>2026-03-22T15:25:37.983Z</time></trkpt><trkpt lat="43.8836244" lon="12.3885336"><ele>404.66666666666663</ele><time>2026-03-22T15:25:38.983Z</time></trkpt><trkpt lat="43.8836477" lon="12.3884319"><ele>403.0</ele><time>2026-03-22T15:25:39.983Z</time></trkpt><trkpt lat="43.8836522" lon="12.3883223"><ele>401.3333333333333</ele><time>2026-03-22T15:25:40.983Z</time></trkpt><trkpt lat="43.8836383" lon="12.3882068"><ele>399.66666666666663</ele><time>2026-03-22T15:25:41.982Z</time></trkpt><trkpt lat="43.8836231" lon="12.3880936"><ele>398.0</ele><time>2026-03-22T15:25:42.983Z</time></trkpt><trkpt lat="43.8835723" lon="12.3879989"><ele>397.99999999999994</ele><time>2026-03-22T15:25:43.983Z</time></trkpt><trkpt lat="43.8835312" lon="12.3879151"><ele>398.0</ele><time>2026-03-22T15:25:44.982Z</time></trkpt><trkpt lat="43.8834987" lon="12.3878277"><ele>398.0</ele><time>2026-03-22T15:25:45.983Z</time></trkpt><trkpt lat="43.8834777" lon="12.387736"><ele>398.0</ele><time>2026-03-22T15:25:46.983Z</time></trkpt><trkpt lat="43.8835158" lon="12.3876483"><ele>398.0</ele><time>2026-03-22T15:25:47.983Z</time></trkpt><trkpt lat="43.8835687" lon="12.3875736"><ele>397.99999999999994</ele><time>2026-03-22T15:25:48.983Z</time></trkpt><trkpt lat="43.8836339" lon="12.3875187"><ele>398.0</ele><time>2026-03-22T15:25:49.982Z</time></trkpt><trkpt lat="43.8837077" lon="12.3874766"><ele>397.99999999999994</ele><time>2026-03-22T15:25:50.983Z</time></trkpt><trkpt lat="43.8837749" lon="12.3874351"><ele>398.0</ele><time>2026-03-22T15:25:51.983Z</time></trkpt><trkpt lat="43.8838285" lon="12.387367"><ele>398.0</ele><time>2026-03-22T15:25:52.982Z</time></trkpt><trkpt lat="43.8838474" lon="12.3872176"><ele>398.0</ele><time>2026-03-22T15:25:54.982Z</time></trkpt><trkpt lat="43.8837732" lon="12.3871026"><ele>397.99999999999994</ele><time>2026-03-22T15:25:56.983Z</time></trkpt><trkpt lat="43.8837095" lon="12.3870564"><ele>398.0</ele><time>2026-03-22T15:25:57.983Z</time></trkpt><trkpt lat="43.8836305" lon="12.3870107"><ele>400.4</ele><time>2026-03-22T15:25:58.983Z</time></trkpt><trkpt lat="43.8835506" lon="12.3869516"><ele>402.79999999999995</ele><time>2026-03-22T15:25:59.982Z</time></trkpt><trkpt lat="43.883473" lon="12.3868786"><ele>405.2</ele><time>2026-03-22T15:26:00.982Z</time></trkpt><trkpt lat="43.8833962" lon="12.3867996"><ele>407.6</ele><time>2026-03-22T15:26:01.983Z</time></trkpt><trkpt lat="43.883323" lon="12.3867218"><ele>410.0</ele><time>2026-03-22T15:26:02.983Z</time></trkpt><trkpt lat="43.883251" lon="12.3866371"><ele>410.0</ele><time>2026-03-22T15:26:03.983Z</time></trkpt><trkpt lat="43.8831779" lon="12.3865451"><ele>410.0</ele><time>2026-03-22T15:26:04.983Z</time></trkpt><trkpt lat="43.8831053" lon="12.3864437"><ele>410.0</ele><time>2026-03-22T15:26:05.983Z</time></trkpt><trkpt lat="43.8830339" lon="12.3863318"><ele>410.0</ele><time>2026-03-22T15:26:06.983Z</time></trkpt><trkpt lat="43.88296" lon="12.3862249"><ele>410.0</ele><time>2026-03-22T15:26:07.983Z</time></trkpt><trkpt lat="43.8828842" lon="12.3861301"><ele>412.0</ele><time>2026-03-22T15:26:08.982Z</time></trkpt><trkpt lat="43.8828085" lon="12.3860474"><ele>414.0</ele><time>2026-03-22T15:26:09.983Z</time></trkpt><trkpt lat="43.8827285" lon="12.3859755"><ele>416.0</ele><time>2026-03-22T15:26:10.983Z</time></trkpt><trkpt lat="43.8826461" lon="12.3858888"><ele>418.0</ele><time>2026-03-22T15:26:11.983Z</time></trkpt><trkpt lat="43.8825746" lon="12.3857872"><ele>420.0</ele><time>2026-03-22T15:26:12.982Z</time></trkpt><trkpt lat="43.8825163" lon="12.3856705"><ele>420.0</ele><time>2026-03-22T15:26:13.982Z</time></trkpt><trkpt lat="43.8824719" lon="12.3855376"><ele>420.0</ele><time>2026-03-22T15:26:14.982Z</time></trkpt><trkpt lat="43.8824339" lon="12.3854008"><ele>420.0</ele><time>2026-03-22T15:26:15.983Z</time></trkpt><trkpt lat="43.8823937" lon="12.385256"><ele>420.0</ele><time>2026-03-22T15:26:16.982Z</time></trkpt><trkpt lat="43.8823523" lon="12.3851092"><ele>420.0</ele><time>2026-03-22T15:26:17.983Z</time></trkpt><trkpt lat="43.8823153" lon="12.3849705"><ele>421.8</ele><time>2026-03-22T15:26:18.982Z</time></trkpt><trkpt lat="43.8822944" lon="12.38484"><ele>423.6</ele><time>2026-03-22T15:26:19.983Z</time></trkpt><trkpt lat="43.8822955" lon="12.384701"><ele>425.4</ele><time>2026-03-22T15:26:20.983Z</time></trkpt><trkpt lat="43.8823169" lon="12.3845544"><ele>427.2</ele><time>2026-03-22T15:26:21.982Z</time></trkpt><trkpt lat="43.8823536" lon="12.3844084"><ele>429.0</ele><time>2026-03-22T15:26:22.982Z</time></trkpt><trkpt lat="43.8824015" lon="12.3842698"><ele>429.8571428571429</ele><time>2026-03-22T15:26:23.983Z</time></trkpt><trkpt lat="43.8824505" lon="12.3841579"><ele>430.7142857142857</ele><time>2026-03-22T15:26:24.983Z</time></trkpt><trkpt lat="43.8825007" lon="12.3840885"><ele>431.57142857142856</ele><time>2026-03-22T15:26:25.981Z</time></trkpt><trkpt lat="43.8825611" lon="12.3840555"><ele>432.42857142857144</ele><time>2026-03-22T15:26:26.983Z</time></trkpt><trkpt lat="43.8826332" lon="12.3840525"><ele>433.2857142857143</ele><time>2026-03-22T15:26:27.983Z</time></trkpt><trkpt lat="43.8826956" lon="12.3840813"><ele>434.14285714285717</ele><time>2026-03-22T15:26:28.982Z</time></trkpt><trkpt lat="43.882759" lon="12.3841299"><ele>435.0</ele><time>2026-03-22T15:26:29.983Z</time></trkpt><trkpt lat="43.8828429" lon="12.384192"><ele>437.6</ele><time>2026-03-22T15:26:30.983Z</time></trkpt><trkpt lat="43.8829318" lon="12.3842529"><ele>440.2</ele><time>2026-03-22T15:26:31.982Z</time></trkpt><trkpt lat="43.8830288" lon="12.3843125"><ele>442.79999999999995</ele><time>2026-03-22T15:26:32.983Z</time></trkpt><trkpt lat="43.8831366" lon="12.3843775"><ele>445.4</ele><time>2026-03-22T15:26:33.983Z</time></trkpt><trkpt lat="43.8832448" lon="12.384444"><ele>448.0</ele><time>2026-03-22T15:26:34.983Z</time></trkpt><trkpt lat="43.8833478" lon="12.3845095"><ele>449.79999999999995</ele><time>2026-03-22T15:26:35.983Z</time></trkpt><trkpt lat="43.8834432" lon="12.3845631"><ele>451.59999999999997</ele><time>2026-03-22T15:26:36.983Z</time></trkpt><trkpt lat="43.8835267" lon="12.3846007"><ele>453.40000000000003</ele><time>2026-03-22T15:26:37.983Z</time></trkpt><trkpt lat="43.8836153" lon="12.3846214"><ele>455.20000000000005</ele><time>2026-03-22T15:26:38.983Z</time></trkpt><trkpt lat="43.8837186" lon="12.3846149"><ele>457.0</ele><time>2026-03-22T15:26:39.982Z</time></trkpt><trkpt lat="43.8838322" lon="12.3845727"><ele>457.0</ele><time>2026-03-22T15:26:40.982Z</time></trkpt><trkpt lat="43.8839494" lon="12.384499"><ele>457.0</ele><time>2026-03-22T15:26:41.983Z</time></trkpt><trkpt lat="43.884065" lon="12.3844216"><ele>457.0</ele><time>2026-03-22T15:26:42.982Z</time></trkpt><trkpt lat="43.8841865" lon="12.3843503"><ele>457.0</ele><time>2026-03-22T15:26:43.983Z</time></trkpt><trkpt lat="43.8843132" lon="12.384275"><ele>456.6</ele><time>2026-03-22T15:26:44.982Z</time></trkpt><trkpt lat="43.8844333" lon="12.3841984"><ele>456.20000000000005</ele><time>2026-03-22T15:26:45.982Z</time></trkpt><trkpt lat="43.8845377" lon="12.3841352"><ele>455.8</ele><time>2026-03-22T15:26:46.982Z</time></trkpt><trkpt lat="43.884632" lon="12.3840788"><ele>455.4</ele><time>2026-03-22T15:26:47.983Z</time></trkpt><trkpt lat="43.8847211" lon="12.3840155"><ele>455.0</ele><time>2026-03-22T15:26:48.982Z</time></trkpt><trkpt lat="43.8847888" lon="12.3839372"><ele>455.0</ele><time>2026-03-22T15:26:49.983Z</time></trkpt><trkpt lat="43.8848452" lon="12.3838481"><ele>455.0</ele><time>2026-03-22T15:26:50.982Z</time></trkpt><trkpt lat="43.8849034" lon="12.38375"><ele>455.0</ele><time>2026-03-22T15:26:51.982Z</time></trkpt><trkpt lat="43.8849743" lon="12.3836416"><ele>455.0</ele><time>2026-03-22T15:26:52.982Z</time></trkpt><trkpt lat="43.8850601" lon="12.3835268"><ele>455.0</ele><time>2026-03-22T15:26:53.983Z</time></trkpt><trkpt lat="43.8851494" lon="12.3834036"><ele>455.0</ele><time>2026-03-22T15:26:54.983Z</time></trkpt><trkpt lat="43.8852319" lon="12.3832695"><ele>455.0</ele><time>2026-03-22T15:26:55.983Z</time></trkpt><trkpt lat="43.8853074" lon="12.3831266"><ele>455.0</ele><time>2026-03-22T15:26:56.983Z</time></trkpt><trkpt lat="43.8853823" lon="12.3829876"><ele>455.0</ele><time>2026-03-22T15:26:57.982Z</time></trkpt><trkpt lat="43.8854561" lon="12.3828559"><ele>457.0</ele><time>2026-03-22T15:26:58.983Z</time></trkpt><trkpt lat="43.8855325" lon="12.3827278"><ele>459.0</ele><time>2026-03-22T15:26:59.983Z</time></trkpt><trkpt lat="43.8856098" lon="12.382596"><ele>461.0</ele><time>2026-03-22T15:27:00.983Z</time></trkpt><trkpt lat="43.8856798" lon="12.3824743"><ele>463.0</ele><time>2026-03-22T15:27:01.982Z</time></trkpt><trkpt lat="43.885728" lon="12.3823791"><ele>465.0</ele><time>2026-03-22T15:27:02.983Z</time></trkpt><trkpt lat="43.8858101" lon="12.3822854"><ele>465.0</ele><time>2026-03-22T15:27:04.983Z</time></trkpt><trkpt lat="43.8859245" lon="12.3823355"><ele>465.0</ele><time>2026-03-22T15:27:06.983Z</time></trkpt><trkpt lat="43.8860081" lon="12.3823968"><ele>465.0</ele><time>2026-03-22T15:27:07.983Z</time></trkpt><trkpt lat="43.886086" lon="12.3824509"><ele>465.0</ele><time>2026-03-22T15:27:08.983Z</time></trkpt><trkpt lat="43.8861607" lon="12.3825084"><ele>465.0</ele><time>2026-03-22T15:27:09.982Z</time></trkpt><trkpt lat="43.8862342" lon="12.3825899"><ele>464.8</ele><time>2026-03-22T15:27:10.983Z</time></trkpt><trkpt lat="43.8862895" lon="12.3826825"><ele>464.6</ele><time>2026-03-22T15:27:11.982Z</time></trkpt><trkpt lat="43.8863429" lon="12.3827955"><ele>464.4</ele><time>2026-03-22T15:27:12.983Z</time></trkpt><trkpt lat="43.8863975" lon="12.3828954"><ele>464.2</ele><time>2026-03-22T15:27:13.983Z</time></trkpt><trkpt lat="43.8864574" lon="12.3829861"><ele>464.0</ele><time>2026-03-22T15:27:14.983Z</time></trkpt><trkpt lat="43.8865178" lon="12.3830753"><ele>462.8333333333333</ele><time>2026-03-22T15:27:15.982Z</time></trkpt><trkpt lat="43.8865824" lon="12.3831646"><ele>461.66666666666663</ele><time>2026-03-22T15:27:16.983Z</time></trkpt><trkpt lat="43.8866495" lon="12.3832567"><ele>460.5</ele><time>2026-03-22T15:27:17.983Z</time></trkpt><trkpt lat="43.8867077" lon="12.3833545"><ele>459.33333333333337</ele><time>2026-03-22T15:27:18.982Z</time></trkpt><trkpt lat="43.88675" lon="12.3834517"><ele>458.1666666666667</ele><time>2026-03-22T15:27:19.983Z</time></trkpt><trkpt lat="43.8867826" lon="12.3835549"><ele>457.0</ele><time>2026-03-22T15:27:20.983Z</time></trkpt><trkpt lat="43.8868123" lon="12.3836606"><ele>455.83333333333337</ele><time>2026-03-22T15:27:21.982Z</time></trkpt><trkpt lat="43.8868384" lon="12.3837782"><ele>454.6666666666667</ele><time>2026-03-22T15:27:22.983Z</time></trkpt><trkpt lat="43.8868659" lon="12.3838971"><ele>453.5</ele><time>2026-03-22T15:27:23.983Z</time></trkpt><trkpt lat="43.886889" lon="12.3840139"><ele>452.33333333333337</ele><time>2026-03-22T15:27:24.983Z</time></trkpt><trkpt lat="43.8869178" lon="12.3841229"><ele>451.1666666666667</ele><time>2026-03-22T15:27:25.983Z</time></trkpt><trkpt lat="43.8869554" lon="12.3842202"><ele>450.0</ele><time>2026-03-22T15:27:26.982Z</time></trkpt><trkpt lat="43.8869885" lon="12.3842999"><ele>448.6</ele><time>2026-03-22T15:27:27.983Z</time></trkpt><trkpt lat="43.8870833" lon="12.3843783"><ele>447.2</ele><time>2026-03-22T15:27:29.983Z</time></trkpt><trkpt lat="43.8871828" lon="12.3843494"><ele>445.79999999999995</ele><time>2026-03-22T15:27:31.983Z</time></trkpt><trkpt lat="43.8872405" lon="12.3842987"><ele>444.4</ele><time>2026-03-22T15:27:32.983Z</time></trkpt><trkpt lat="43.8873086" lon="12.3842227"><ele>443.0</ele><time>2026-03-22T15:27:33.982Z</time></trkpt><trkpt lat="43.887396" lon="12.3841423"><ele>443.0</ele><time>2026-03-22T15:27:34.983Z</time></trkpt><trkpt lat="43.8875031" lon="12.3840842"><ele>443.0</ele><time>2026-03-22T15:27:35.983Z</time></trkpt><trkpt lat="43.8876223" lon="12.3840246"><ele>443.0</ele><time>2026-03-22T15:27:36.982Z</time></trkpt><trkpt lat="43.8877394" lon="12.3839398"><ele>443.0</ele><time>2026-03-22T15:27:37.982Z</time></trkpt><trkpt lat="43.8878484" lon="12.3838552"><ele>444.75</ele><time>2026-03-22T15:27:38.983Z</time></trkpt><trkpt lat="43.887956" lon="12.3837562"><ele>446.5</ele><time>2026-03-22T15:27:39.983Z</time></trkpt><trkpt lat="43.8880622" lon="12.3836456"><ele>448.25</ele><time>2026-03-22T15:27:40.982Z</time></trkpt><trkpt lat="43.888165" lon="12.3835557"><ele>450.0</ele><time>2026-03-22T15:27:41.983Z</time></trkpt><trkpt lat="43.8882601" lon="12.3834815"><ele>450.0</ele><time>2026-03-22T15:27:42.983Z</time></trkpt><trkpt lat="43.8883525" lon="12.383411"><ele>450.0</ele><time>2026-03-22T15:27:43.983Z</time></trkpt><trkpt lat="43.8884444" lon="12.3833276"><ele>450.0</ele><time>2026-03-22T15:27:44.983Z</time></trkpt><trkpt lat="43.8885295" lon="12.3832295"><ele>450.0</ele><time>2026-03-22T15:27:45.982Z</time></trkpt><trkpt lat="43.8886113" lon="12.3831172"><ele>450.0</ele><time>2026-03-22T15:27:46.982Z</time></trkpt><trkpt lat="43.888693" lon="12.3830001"><ele>454.25</ele><time>2026-03-22T15:27:47.982Z</time></trkpt><trkpt lat="43.8887769" lon="12.3828874"><ele>458.5</ele><time>2026-03-22T15:27:48.983Z</time></trkpt><trkpt lat="43.8888647" lon="12.3827849"><ele>462.75</ele><time>2026-03-22T15:27:49.983Z</time></trkpt><trkpt lat="43.8889613" lon="12.3826956"><ele>467.0</ele><time>2026-03-22T15:27:50.983Z</time></trkpt><trkpt lat="43.8890661" lon="12.3826172"><ele>467.0</ele><time>2026-03-22T15:27:51.983Z</time></trkpt><trkpt lat="43.8891738" lon="12.3825419"><ele>467.00000000000006</ele><time>2026-03-22T15:27:52.982Z</time></trkpt><trkpt lat="43.8892797" lon="12.3824712"><ele>467.00000000000006</ele><time>2026-03-22T15:27:53.982Z</time></trkpt><trkpt lat="43.8893727" lon="12.3824246"><ele>467.0</ele><time>2026-03-22T15:27:54.982Z</time></trkpt><trkpt lat="43.8894646" lon="12.3824196"><ele>467.0</ele><time>2026-03-22T15:27:55.983Z</time></trkpt><trkpt lat="43.8895688" lon="12.3824571"><ele>467.25</ele><time>2026-03-22T15:27:56.982Z</time></trkpt><trkpt lat="43.8896695" lon="12.3825277"><ele>467.5</ele><time>2026-03-22T15:27:57.983Z</time></trkpt><trkpt lat="43.889761" lon="12.3826123"><ele>467.75</ele><time>2026-03-22T15:27:58.982Z</time></trkpt><trkpt lat="43.8898467" lon="12.3827247"><ele>468.0</ele><time>2026-03-22T15:27:59.983Z</time></trkpt><trkpt lat="43.8899296" lon="12.3828745"><ele>470.0</ele><time>2026-03-22T15:28:00.983Z</time></trkpt><trkpt lat="43.8900236" lon="12.3830488"><ele>472.0</ele><time>2026-03-22T15:28:01.983Z</time></trkpt><trkpt lat="43.8901212" lon="12.383222"><ele>474.0</ele><time>2026-03-22T15:28:02.983Z</time></trkpt><trkpt lat="43.8902084" lon="12.3833766"><ele>474.0</ele><time>2026-03-22T15:28:03.982Z</time></trkpt><trkpt lat="43.890284" lon="12.3835184"><ele>474.0</ele><time>2026-03-22T15:28:04.982Z</time></trkpt><trkpt lat="43.8903548" lon="12.3836484"><ele>474.0</ele><time>2026-03-22T15:28:05.983Z</time></trkpt><trkpt lat="43.8904153" lon="12.3837564"><ele>474.0</ele><time>2026-03-22T15:28:06.982Z</time></trkpt><trkpt lat="43.8904736" lon="12.3838565"><ele>474.0</ele><time>2026-03-22T15:28:07.983Z</time></trkpt><trkpt lat="43.8905376" lon="12.3839557"><ele>472.6</ele><time>2026-03-22T15:28:08.983Z</time></trkpt><trkpt lat="43.8906072" lon="12.3840342"><ele>471.2</ele><time>2026-03-22T15:28:09.983Z</time></trkpt><trkpt lat="43.8906875" lon="12.3840846"><ele>469.80000000000007</ele><time>2026-03-22T15:28:10.983Z</time></trkpt><trkpt lat="43.8907688" lon="12.3841055"><ele>468.40000000000003</ele><time>2026-03-22T15:28:11.983Z</time></trkpt><trkpt lat="43.890838" lon="12.3840939"><ele>467.0</ele><time>2026-03-22T15:28:12.982Z</time></trkpt><trkpt lat="43.8909363" lon="12.3839808"><ele>465.8</ele><time>2026-03-22T15:28:14.982Z</time></trkpt><trkpt lat="43.8909797" lon="12.3838807"><ele>464.6</ele><time>2026-03-22T15:28:15.983Z</time></trkpt><trkpt lat="43.8910286" lon="12.3837584"><ele>463.40000000000003</ele><time>2026-03-22T15:28:16.982Z</time></trkpt><trkpt lat="43.8910902" lon="12.3836282"><ele>462.20000000000005</ele><time>2026-03-22T15:28:17.983Z</time></trkpt><trkpt lat="43.8911656" lon="12.3834966"><ele>461.0</ele><time>2026-03-22T15:28:18.982Z</time></trkpt><trkpt lat="43.8912527" lon="12.3833499"><ele>465.75</ele><time>2026-03-22T15:28:19.982Z</time></trkpt><trkpt lat="43.8913486" lon="12.3832005"><ele>470.5</ele><time>2026-03-22T15:28:20.983Z</time></trkpt><trkpt lat="43.8914441" lon="12.3830544"><ele>475.25</ele><time>2026-03-22T15:28:21.983Z</time></trkpt><trkpt lat="43.8915384" lon="12.3829124"><ele>480.0</ele><time>2026-03-22T15:28:22.982Z</time></trkpt><trkpt lat="43.8916312" lon="12.3827753"><ele>482.25</ele><time>2026-03-22T15:28:23.983Z</time></trkpt><trkpt lat="43.891721" lon="12.3826461"><ele>484.5</ele><time>2026-03-22T15:28:24.983Z</time></trkpt><trkpt lat="43.8918093" lon="12.3825173"><ele>486.75</ele><time>2026-03-22T15:28:25.983Z</time></trkpt><trkpt lat="43.8918955" lon="12.382391"><ele>489.0</ele><time>2026-03-22T15:28:26.982Z</time></trkpt><trkpt lat="43.8919813" lon="12.3822703"><ele>492.75</ele><time>2026-03-22T15:28:27.983Z</time></trkpt><trkpt lat="43.8920685" lon="12.3821498"><ele>496.5</ele><time>2026-03-22T15:28:28.982Z</time></trkpt><trkpt lat="43.8921566" lon="12.3820301"><ele>500.25</ele><time>2026-03-22T15:28:29.983Z</time></trkpt><trkpt lat="43.8922458" lon="12.3819121"><ele>504.0</ele><time>2026-03-22T15:28:30.983Z</time></trkpt><trkpt lat="43.8923382" lon="12.3817932"><ele>504.0</ele><time>2026-03-22T15:28:31.982Z</time></trkpt><trkpt lat="43.8924358" lon="12.3816637"><ele>504.0</ele><time>2026-03-22T15:28:32.983Z</time></trkpt><trkpt lat="43.8925459" lon="12.3815351"><ele>504.0</ele><time>2026-03-22T15:28:33.982Z</time></trkpt><trkpt lat="43.8926607" lon="12.3814096"><ele>504.0</ele><time>2026-03-22T15:28:34.982Z</time></trkpt><trkpt lat="43.8927669" lon="12.3812901"><ele>506.5</ele><time>2026-03-22T15:28:35.983Z</time></trkpt><trkpt lat="43.8928757" lon="12.3811705"><ele>509.0</ele><time>2026-03-22T15:28:36.982Z</time></trkpt><trkpt lat="43.8929853" lon="12.3810532"><ele>511.5</ele><time>2026-03-22T15:28:37.983Z</time></trkpt><trkpt lat="43.8930931" lon="12.3809379"><ele>514.0</ele><time>2026-03-22T15:28:38.983Z</time></trkpt><trkpt lat="43.8932074" lon="12.3808201"><ele>514.0</ele><time>2026-03-22T15:28:39.982Z</time></trkpt><trkpt lat="43.8933247" lon="12.3807025"><ele>514.0</ele><time>2026-03-22T15:28:40.983Z</time></trkpt><trkpt lat="43.8934583" lon="12.3805827"><ele>514.0</ele><time>2026-03-22T15:28:41.983Z</time></trkpt><trkpt lat="43.8935823" lon="12.3804602"><ele>517.0</ele><time>2026-03-22T15:28:42.982Z</time></trkpt><trkpt lat="43.8937074" lon="12.3803324"><ele>520.0</ele><time>2026-03-22T15:28:43.982Z</time></trkpt><trkpt lat="43.8938357" lon="12.3802047"><ele>523.0</ele><time>2026-03-22T15:28:44.983Z</time></trkpt><trkpt lat="43.8939512" lon="12.3800889"><ele>523.0</ele><time>2026-03-22T15:28:45.982Z</time></trkpt><trkpt lat="43.8940503" lon="12.3799997"><ele>523.0</ele><time>2026-03-22T15:28:46.982Z</time></trkpt><trkpt lat="43.8941374" lon="12.3799257"><ele>523.0</ele><time>2026-03-22T15:28:47.983Z</time></trkpt><trkpt lat="43.894212" lon="12.3798599"><ele>523.0</ele><time>2026-03-22T15:28:48.983Z</time></trkpt><trkpt lat="43.8942683" lon="12.3797952"><ele>523.0</ele><time>2026-03-22T15:28:49.983Z</time></trkpt><trkpt lat="43.8943369" lon="12.3796772"><ele>523.6</ele><time>2026-03-22T15:28:51.983Z</time></trkpt><trkpt lat="43.8943301" lon="12.379538"><ele>524.1999999999999</ele><time>2026-03-22T15:28:53.983Z</time></trkpt><trkpt lat="43.8942451" lon="12.3794771"><ele>524.8</ele><time>2026-03-22T15:28:55.982Z</time></trkpt><trkpt lat="43.894133" lon="12.3795188"><ele>525.4</ele><time>2026-03-22T15:28:57.983Z</time></trkpt><trkpt lat="43.8940672" lon="12.3794915"><ele>526.0</ele><time>2026-03-22T15:29:00.982Z</time></trkpt><trkpt lat="43.8941189" lon="12.3793629"><ele>526.0</ele><time>2026-03-22T15:29:03.983Z</time></trkpt><trkpt lat="43.8941878" lon="12.3792949"><ele>526.0</ele><time>2026-03-22T15:29:04.983Z</time></trkpt><trkpt lat="43.8942713" lon="12.3792149"><ele>526.0</ele><time>2026-03-22T15:29:05.983Z</time></trkpt><trkpt lat="43.8943427" lon="12.3791477"><ele>526.0</ele><time>2026-03-22T15:29:06.983Z</time></trkpt><trkpt lat="43.8944194" lon="12.379106"><ele>526.0</ele><time>2026-03-22T15:29:07.983Z</time></trkpt><trkpt lat="43.8945019" lon="12.3790871"><ele>526.0</ele><time>2026-03-22T15:29:08.982Z</time></trkpt><trkpt lat="43.8945886" lon="12.3790855"><ele>523.0</ele><time>2026-03-22T15:29:09.983Z</time></trkpt><trkpt lat="43.8946827" lon="12.3791232"><ele>520.0</ele><time>2026-03-22T15:29:10.983Z</time></trkpt><trkpt lat="43.8947736" lon="12.3791847"><ele>517.0</ele><time>2026-03-22T15:29:11.983Z</time></trkpt><trkpt lat="43.8948559" lon="12.3792623"><ele>514.0</ele><time>2026-03-22T15:29:12.983Z</time></trkpt><trkpt lat="43.8949276" lon="12.3793513"><ele>511.0</ele><time>2026-03-22T15:29:13.983Z</time></trkpt><trkpt lat="43.894986" lon="12.3794436"><ele>511.0</ele><time>2026-03-22T15:29:14.983Z</time></trkpt><trkpt lat="43.8950282" lon="12.3795382"><ele>511.0</ele><time>2026-03-22T15:29:15.983Z</time></trkpt><trkpt lat="43.8950591" lon="12.3796203"><ele>511.0</ele><time>2026-03-22T15:29:16.982Z</time></trkpt><trkpt lat="43.8951387" lon="12.3796946"><ele>511.0</ele><time>2026-03-22T15:29:18.983Z</time></trkpt><trkpt lat="43.8952018" lon="12.379603"><ele>511.0</ele><time>2026-03-22T15:29:20.983Z</time></trkpt><trkpt lat="43.8951651" lon="12.3794386"><ele>511.0</ele><time>2026-03-22T15:29:22.983Z</time></trkpt><trkpt lat="43.8951189" lon="12.3793343"><ele>511.0</ele><time>2026-03-22T15:29:23.983Z</time></trkpt><trkpt lat="43.8950592" lon="12.3792198"><ele>511.0</ele><time>2026-03-22T15:29:24.983Z</time></trkpt><trkpt lat="43.8949977" lon="12.3790922"><ele>511.0</ele><time>2026-03-22T15:29:25.983Z</time></trkpt><trkpt lat="43.8949235" lon="12.3789749"><ele>511.0</ele><time>2026-03-22T15:29:26.982Z</time></trkpt><trkpt lat="43.8948741" lon="12.3788744"><ele>508.20000000000005</ele><time>2026-03-22T15:29:27.983Z</time></trkpt><trkpt lat="43.894817" lon="12.3787625"><ele>505.40000000000003</ele><time>2026-03-22T15:29:28.983Z</time></trkpt><trkpt lat="43.8947746" lon="12.3786867"><ele>502.6</ele><time>2026-03-22T15:29:29.983Z</time></trkpt><trkpt lat="43.8947131" lon="12.37859"><ele>499.8</ele><time>2026-03-22T15:29:30.983Z</time></trkpt><trkpt lat="43.8946367" lon="12.3784776"><ele>497.0</ele><time>2026-03-22T15:29:31.982Z</time></trkpt><trkpt lat="43.8945681" lon="12.3783782"><ele>497.0</ele><time>2026-03-22T15:29:32.983Z</time></trkpt><trkpt lat="43.8945059" lon="12.3782686"><ele>497.00000000000006</ele><time>2026-03-22T15:29:33.982Z</time></trkpt><trkpt lat="43.8944685" lon="12.3781791"><ele>497.00000000000006</ele><time>2026-03-22T15:29:34.983Z</time></trkpt><trkpt lat="43.8944601" lon="12.3780644"><ele>497.0</ele><time>2026-03-22T15:29:35.982Z</time></trkpt><trkpt lat="43.8944873" lon="12.3779444"><ele>497.0</ele><time>2026-03-22T15:29:36.983Z</time></trkpt><trkpt lat="43.8945383" lon="12.3778229"><ele>496.20000000000005</ele><time>2026-03-22T15:29:37.982Z</time></trkpt><trkpt lat="43.8946056" lon="12.3776993"><ele>495.40000000000003</ele><time>2026-03-22T15:29:38.983Z</time></trkpt><trkpt lat="43.8946684" lon="12.3775779"><ele>494.59999999999997</ele><time>2026-03-22T15:29:39.983Z</time></trkpt><trkpt lat="43.8947141" lon="12.3774496"><ele>493.79999999999995</ele><time>2026-03-22T15:29:40.983Z</time></trkpt><trkpt lat="43.8947456" lon="12.3773176"><ele>493.0</ele><time>2026-03-22T15:29:41.983Z</time></trkpt><trkpt lat="43.8947566" lon="12.3771727"><ele>491.75</ele><time>2026-03-22T15:29:42.982Z</time></trkpt><trkpt lat="43.8947504" lon="12.3770205"><ele>490.5</ele><time>2026-03-22T15:29:43.983Z</time></trkpt><trkpt lat="43.8947373" lon="12.376859"><ele>489.25</ele><time>2026-03-22T15:29:44.983Z</time></trkpt><trkpt lat="43.8947235" lon="12.3766866"><ele>488.0</ele><time>2026-03-22T15:29:45.982Z</time></trkpt><trkpt lat="43.8946941" lon="12.3765151"><ele>487.4</ele><time>2026-03-22T15:29:46.982Z</time></trkpt><trkpt lat="43.8946697" lon="12.3763526"><ele>486.79999999999995</ele><time>2026-03-22T15:29:47.983Z</time></trkpt><trkpt lat="43.8946452" lon="12.3762118"><ele>486.2</ele><time>2026-03-22T15:29:48.982Z</time></trkpt><trkpt lat="43.8946305" lon="12.376101"><ele>485.6</ele><time>2026-03-22T15:29:49.982Z</time></trkpt><trkpt lat="43.8946156" lon="12.3759824"><ele>485.0</ele><time>2026-03-22T15:29:50.983Z</time></trkpt><trkpt lat="43.8945992" lon="12.3758651"><ele>484.99999999999994</ele><time>2026-03-22T15:29:51.983Z</time></trkpt><trkpt lat="43.8945841" lon="12.3757569"><ele>485.0</ele><time>2026-03-22T15:29:52.982Z</time></trkpt><trkpt lat="43.8945656" lon="12.3756588"><ele>485.0</ele><time>2026-03-22T15:29:53.983Z</time></trkpt><trkpt lat="43.8945476" lon="12.3755693"><ele>485.0</ele><time>2026-03-22T15:29:54.983Z</time></trkpt><trkpt lat="43.8945224" lon="12.3754827"><ele>484.99999999999994</ele><time>2026-03-22T15:29:55.982Z</time></trkpt><trkpt lat="43.8944629" lon="12.3753302"><ele>485.0</ele><time>2026-03-22T15:29:57.983Z</time></trkpt><trkpt lat="43.8943968" lon="12.3751668"><ele>484.66666666666663</ele><time>2026-03-22T15:29:59.983Z</time></trkpt><trkpt lat="43.8943682" lon="12.3750732"><ele>484.3333333333333</ele><time>2026-03-22T15:30:00.983Z</time></trkpt><trkpt lat="43.8943277" lon="12.3749784"><ele>484.0</ele><time>2026-03-22T15:30:01.982Z</time></trkpt><trkpt lat="43.8943042" lon="12.3748747"><ele>483.66666666666663</ele><time>2026-03-22T15:30:02.983Z</time></trkpt><trkpt lat="43.8942849" lon="12.3747597"><ele>483.3333333333333</ele><time>2026-03-22T15:30:03.983Z</time></trkpt><trkpt lat="43.8942634" lon="12.3746384"><ele>483.0</ele><time>2026-03-22T15:30:04.982Z</time></trkpt><trkpt lat="43.8942614" lon="12.374521"><ele>483.0</ele><time>2026-03-22T15:30:05.983Z</time></trkpt><trkpt lat="43.8942685" lon="12.3744162"><ele>482.99999999999994</ele><time>2026-03-22T15:30:06.982Z</time></trkpt><trkpt lat="43.8942891" lon="12.3743083"><ele>482.99999999999994</ele><time>2026-03-22T15:30:07.982Z</time></trkpt><trkpt lat="43.89432" lon="12.3741909"><ele>483.0</ele><time>2026-03-22T15:30:08.982Z</time></trkpt><trkpt lat="43.8943644" lon="12.3740716"><ele>483.0</ele><time>2026-03-22T15:30:09.982Z</time></trkpt><trkpt lat="43.8944171" lon="12.3739412"><ele>484.75</ele><time>2026-03-22T15:30:10.983Z</time></trkpt><trkpt lat="43.894452" lon="12.3737857"><ele>486.5</ele><time>2026-03-22T15:30:11.983Z</time></trkpt><trkpt lat="43.8944802" lon="12.373616"><ele>488.25</ele><time>2026-03-22T15:30:12.983Z</time></trkpt><trkpt lat="43.8945119" lon="12.3734557"><ele>490.0</ele><time>2026-03-22T15:30:13.982Z</time></trkpt><trkpt lat="43.8945486" lon="12.3733291"><ele>490.0</ele><time>2026-03-22T15:30:14.982Z</time></trkpt><trkpt lat="43.8945996" lon="12.3732265"><ele>490.0</ele><time>2026-03-22T15:30:15.982Z</time></trkpt><trkpt lat="43.8946748" lon="12.3731532"><ele>490.0</ele><time>2026-03-22T15:30:16.983Z</time></trkpt><trkpt lat="43.8947723" lon="12.3731095"><ele>490.0</ele><time>2026-03-22T15:30:17.983Z</time></trkpt><trkpt lat="43.8948791" lon="12.3730831"><ele>490.0</ele><time>2026-03-22T15:30:18.983Z</time></trkpt><trkpt lat="43.8949791" lon="12.3730719"><ele>490.00000000000006</ele><time>2026-03-22T15:30:19.983Z</time></trkpt><trkpt lat="43.8950738" lon="12.3730624"><ele>490.0</ele><time>2026-03-22T15:30:20.983Z</time></trkpt><trkpt lat="43.895159" lon="12.3730366"><ele>490.0</ele><time>2026-03-22T15:30:21.982Z</time></trkpt><trkpt lat="43.895214" lon="12.3729539"><ele>490.0</ele><time>2026-03-22T15:30:22.983Z</time></trkpt><trkpt lat="43.8952615" lon="12.3728614"><ele>490.00000000000006</ele><time>2026-03-22T15:30:23.982Z</time></trkpt><trkpt lat="43.8952782" lon="12.3727374"><ele>490.0</ele><time>2026-03-22T15:30:24.983Z</time></trkpt><trkpt lat="43.8952841" lon="12.3726175"><ele>487.8</ele><time>2026-03-22T15:30:25.982Z</time></trkpt><trkpt lat="43.8952825" lon="12.3725104"><ele>485.6</ele><time>2026-03-22T15:30:26.983Z</time></trkpt><trkpt lat="43.8952611" lon="12.3723643"><ele>483.4</ele><time>2026-03-22T15:30:28.983Z</time></trkpt><trkpt lat="43.8952359" lon="12.3722413"><ele>481.2</ele><time>2026-03-22T15:30:30.983Z</time></trkpt><trkpt lat="43.8952114" lon="12.3721301"><ele>479.0</ele><time>2026-03-22T15:30:32.983Z</time></trkpt><trkpt lat="43.895191" lon="12.3719774"><ele>477.6</ele><time>2026-03-22T15:30:34.983Z</time></trkpt><trkpt lat="43.8951812" lon="12.3718802"><ele>476.2</ele><time>2026-03-22T15:30:35.983Z</time></trkpt><trkpt lat="43.8951717" lon="12.3717741"><ele>474.80000000000007</ele><time>2026-03-22T15:30:36.983Z</time></trkpt><trkpt lat="43.8951627" lon="12.3716384"><ele>473.40000000000003</ele><time>2026-03-22T15:30:37.983Z</time></trkpt><trkpt lat="43.8951446" lon="12.3714873"><ele>472.0</ele><time>2026-03-22T15:30:38.983Z</time></trkpt><trkpt lat="43.8951224" lon="12.3713195"><ele>470.25</ele><time>2026-03-22T15:30:39.982Z</time></trkpt><trkpt lat="43.8951017" lon="12.3711286"><ele>468.5</ele><time>2026-03-22T15:30:40.982Z</time></trkpt><trkpt lat="43.8950816" lon="12.370928"><ele>466.75</ele><time>2026-03-22T15:30:41.983Z</time></trkpt><trkpt lat="43.8950667" lon="12.3707478"><ele>465.0</ele><time>2026-03-22T15:30:42.983Z</time></trkpt><trkpt lat="43.8950505" lon="12.3705795"><ele>470.0</ele><time>2026-03-22T15:30:43.983Z</time></trkpt><trkpt lat="43.8950314" lon="12.3704215"><ele>475.0</ele><time>2026-03-22T15:30:44.983Z</time></trkpt><trkpt lat="43.8950116" lon="12.3702591"><ele>480.0</ele><time>2026-03-22T15:30:45.982Z</time></trkpt><trkpt lat="43.8949945" lon="12.3701152"><ele>485.0</ele><time>2026-03-22T15:30:46.983Z</time></trkpt><trkpt lat="43.8949759" lon="12.3699798"><ele>490.0</ele><time>2026-03-22T15:30:47.982Z</time></trkpt><trkpt lat="43.8949482" lon="12.3698543"><ele>490.0</ele><time>2026-03-22T15:30:48.983Z</time></trkpt><trkpt lat="43.8948742" lon="12.3697863"><ele>490.0</ele><time>2026-03-22T15:30:49.983Z</time></trkpt><trkpt lat="43.8947789" lon="12.3697059"><ele>490.0</ele><time>2026-03-22T15:30:50.982Z</time></trkpt><trkpt lat="43.8947103" lon="12.3696429"><ele>490.0</ele><time>2026-03-22T15:30:51.983Z</time></trkpt><trkpt lat="43.8946132" lon="12.369616"><ele>490.0</ele><time>2026-03-22T15:30:52.983Z</time></trkpt><trkpt lat="43.8945024" lon="12.3695889"><ele>490.2</ele><time>2026-03-22T15:30:53.983Z</time></trkpt><trkpt lat="43.8943892" lon="12.369564"><ele>490.4</ele><time>2026-03-22T15:30:54.982Z</time></trkpt><trkpt lat="43.8942947" lon="12.3695315"><ele>490.6</ele><time>2026-03-22T15:30:55.982Z</time></trkpt><trkpt lat="43.8942097" lon="12.3694576"><ele>490.8</ele><time>2026-03-22T15:30:56.982Z</time></trkpt><trkpt lat="43.8941277" lon="12.3693539"><ele>491.0</ele><time>2026-03-22T15:30:57.983Z</time></trkpt><trkpt lat="43.8940547" lon="12.3692089"><ele>491.0</ele><time>2026-03-22T15:30:58.983Z</time></trkpt><trkpt lat="43.8939914" lon="12.3690331"><ele>491.0</ele><time>2026-03-22T15:30:59.983Z</time></trkpt><trkpt lat="43.8939378" lon="12.3688361"><ele>491.0</ele><time>2026-03-22T15:31:00.983Z</time></trkpt><trkpt lat="43.8938897" lon="12.3686436"><ele>491.0</ele><time>2026-03-22T15:31:01.982Z</time></trkpt><trkpt lat="43.8938445" lon="12.3684576"><ele>488.25</ele><time>2026-03-22T15:31:02.982Z</time></trkpt><trkpt lat="43.8938308" lon="12.3682906"><ele>485.5</ele><time>2026-03-22T15:31:03.983Z</time></trkpt><trkpt lat="43.8938468" lon="12.3681319"><ele>482.75</ele><time>2026-03-22T15:31:04.983Z</time></trkpt><trkpt lat="43.8938473" lon="12.367973"><ele>480.0</ele><time>2026-03-22T15:31:05.983Z</time></trkpt><trkpt lat="43.8938405" lon="12.3678185"><ele>477.8</ele><time>2026-03-22T15:31:06.983Z</time></trkpt><trkpt lat="43.8938226" lon="12.3676818"><ele>475.6</ele><time>2026-03-22T15:31:07.983Z</time></trkpt><trkpt lat="43.8937924" lon="12.3675674"><ele>473.4</ele><time>2026-03-22T15:31:08.982Z</time></trkpt><trkpt lat="43.8937377" lon="12.3674764"><ele>471.2</ele><time>2026-03-22T15:31:09.982Z</time></trkpt><trkpt lat="43.8936783" lon="12.3673781"><ele>469.0</ele><time>2026-03-22T15:31:10.983Z</time></trkpt><trkpt lat="43.8935308" lon="12.3673336"><ele>471.2</ele><time>2026-03-22T15:31:11.983Z</time></trkpt><trkpt lat="43.893415" lon="12.3672647"><ele>473.4</ele><time>2026-03-22T15:31:12.983Z</time></trkpt><trkpt lat="43.8933171" lon="12.367236"><ele>475.6</ele><time>2026-03-22T15:31:13.983Z</time></trkpt><trkpt lat="43.8932285" lon="12.3671715"><ele>477.8</ele><time>2026-03-22T15:31:14.983Z</time></trkpt><trkpt lat="43.893162" lon="12.3671074"><ele>480.0</ele><time>2026-03-22T15:31:15.983Z</time></trkpt><trkpt lat="43.8931399" lon="12.3669462"><ele>480.0</ele><time>2026-03-22T15:31:16.983Z</time></trkpt><trkpt lat="43.8931336" lon="12.3668166"><ele>480.0</ele><time>2026-03-22T15:31:17.982Z</time></trkpt><trkpt lat="43.8931442" lon="12.3666877"><ele>480.0</ele><time>2026-03-22T15:31:18.983Z</time></trkpt><trkpt lat="43.8931876" lon="12.3665487"><ele>480.0</ele><time>2026-03-22T15:31:19.982Z</time></trkpt><trkpt lat="43.8932555" lon="12.3663865"><ele>480.0</ele><time>2026-03-22T15:31:20.982Z</time></trkpt><trkpt lat="43.8933285" lon="12.3662105"><ele>480.0</ele><time>2026-03-22T15:31:21.983Z</time></trkpt><trkpt lat="43.8934164" lon="12.3660426"><ele>480.0</ele><time>2026-03-22T15:31:22.982Z</time></trkpt><trkpt lat="43.8935112" lon="12.3658875"><ele>480.0</ele><time>2026-03-22T15:31:23.982Z</time></trkpt><trkpt lat="43.8936094" lon="12.3657347"><ele>480.0</ele><time>2026-03-22T15:31:24.983Z</time></trkpt><trkpt lat="43.8937187" lon="12.3656289"><ele>472.5</ele><time>2026-03-22T15:31:25.983Z</time></trkpt><trkpt lat="43.8938008" lon="12.3654923"><ele>465.0</ele><time>2026-03-22T15:31:26.982Z</time></trkpt><trkpt lat="43.8939325" lon="12.365345"><ele>457.5</ele><time>2026-03-22T15:31:27.982Z</time></trkpt><trkpt lat="43.893892" lon="12.365176"><ele>450.0</ele><time>2026-03-22T15:31:28.982Z</time></trkpt><trkpt lat="43.8939186" lon="12.3650156"><ele>450.0</ele><time>2026-03-22T15:31:29.983Z</time></trkpt><trkpt lat="43.8939402" lon="12.3648576"><ele>450.0</ele><time>2026-03-22T15:31:30.983Z</time></trkpt><trkpt lat="43.8939435" lon="12.3647041"><ele>450.0</ele><time>2026-03-22T15:31:31.983Z</time></trkpt><trkpt lat="43.8939414" lon="12.3645616"><ele>450.0</ele><time>2026-03-22T15:31:32.983Z</time></trkpt><trkpt lat="43.8939344" lon="12.3644429"><ele>450.0</ele><time>2026-03-22T15:31:33.983Z</time></trkpt><trkpt lat="43.893917" lon="12.3643335"><ele>448.8333333333333</ele><time>2026-03-22T15:31:34.982Z</time></trkpt><trkpt lat="43.8938517" lon="12.3642552"><ele>447.66666666666663</ele><time>2026-03-22T15:31:35.983Z</time></trkpt><trkpt lat="43.8937802" lon="12.364177"><ele>446.5</ele><time>2026-03-22T15:31:36.983Z</time></trkpt><trkpt lat="43.8937259" lon="12.3640946"><ele>445.3333333333333</ele><time>2026-03-22T15:31:37.983Z</time></trkpt><trkpt lat="43.8937057" lon="12.363998"><ele>444.16666666666663</ele><time>2026-03-22T15:31:38.982Z</time></trkpt><trkpt lat="43.8937185" lon="12.3638899"><ele>443.0</ele><time>2026-03-22T15:31:39.983Z</time></trkpt><trkpt lat="43.8937752" lon="12.363795"><ele>442.3333333333333</ele><time>2026-03-22T15:31:40.983Z</time></trkpt><trkpt lat="43.8938516" lon="12.3637203"><ele>441.66666666666663</ele><time>2026-03-22T15:31:41.983Z</time></trkpt><trkpt lat="43.8939211" lon="12.3636878"><ele>441.0</ele><time>2026-03-22T15:31:42.982Z</time></trkpt><trkpt lat="43.8940037" lon="12.3636678"><ele>440.33333333333337</ele><time>2026-03-22T15:31:43.982Z</time></trkpt><trkpt lat="43.894086" lon="12.3637023"><ele>439.6666666666667</ele><time>2026-03-22T15:31:44.983Z</time></trkpt><trkpt lat="43.8941503" lon="12.3637261"><ele>439.0</ele><time>2026-03-22T15:31:45.983Z</time></trkpt><trkpt lat="43.8942587" lon="12.3637687"><ele>438.50000000000006</ele><time>2026-03-22T15:31:47.983Z</time></trkpt><trkpt lat="43.8943254" lon="12.3638018"><ele>438.0</ele><time>2026-03-22T15:31:48.982Z</time></trkpt><trkpt lat="43.8944066" lon="12.3638581"><ele>437.5</ele><time>2026-03-22T15:31:49.982Z</time></trkpt><trkpt lat="43.8944876" lon="12.3639223"><ele>437.0</ele><time>2026-03-22T15:31:50.982Z</time></trkpt><trkpt lat="43.8945701" lon="12.3639803"><ele>436.50000000000006</ele><time>2026-03-22T15:31:51.982Z</time></trkpt><trkpt lat="43.8946606" lon="12.3640408"><ele>436.0</ele><time>2026-03-22T15:31:52.983Z</time></trkpt><trkpt lat="43.8947634" lon="12.3641088"><ele>437.0</ele><time>2026-03-22T15:31:53.982Z</time></trkpt><trkpt lat="43.8948774" lon="12.3641872"><ele>438.0</ele><time>2026-03-22T15:31:54.983Z</time></trkpt><trkpt lat="43.8949909" lon="12.3642755"><ele>439.0</ele><time>2026-03-22T15:31:55.982Z</time></trkpt><trkpt lat="43.8951004" lon="12.3643642"><ele>440.0</ele><time>2026-03-22T15:31:56.983Z</time></trkpt><trkpt lat="43.8951986" lon="12.3644451"><ele>439.99999999999994</ele><time>2026-03-22T15:31:57.983Z</time></trkpt><trkpt lat="43.8952843" lon="12.3645059"><ele>440.0</ele><time>2026-03-22T15:31:58.983Z</time></trkpt><trkpt lat="43.895355" lon="12.3645265"><ele>440.0</ele><time>2026-03-22T15:31:59.983Z</time></trkpt><trkpt lat="43.8954317" lon="12.3644586"><ele>440.0</ele><time>2026-03-22T15:32:01.982Z</time></trkpt><trkpt lat="43.8954404" lon="12.3643371"><ele>439.99999999999994</ele><time>2026-03-22T15:32:02.983Z</time></trkpt><trkpt lat="43.89545" lon="12.3642094"><ele>440.0</ele><time>2026-03-22T15:32:03.982Z</time></trkpt><trkpt lat="43.8955195" lon="12.3641025"><ele>440.0</ele><time>2026-03-22T15:32:05.983Z</time></trkpt><trkpt lat="43.8956048" lon="12.3641738"><ele>440.0</ele><time>2026-03-22T15:32:07.983Z</time></trkpt><trkpt lat="43.8956379" lon="12.3642781"><ele>440.0</ele><time>2026-03-22T15:32:08.982Z</time></trkpt><trkpt lat="43.8956666" lon="12.3644075"><ele>440.0</ele><time>2026-03-22T15:32:09.983Z</time></trkpt><trkpt lat="43.8957081" lon="12.3645357"><ele>440.0</ele><time>2026-03-22T15:32:10.982Z</time></trkpt><trkpt lat="43.8957628" lon="12.3646238"><ele>440.0</ele><time>2026-03-22T15:32:11.983Z</time></trkpt><trkpt lat="43.8958277" lon="12.3646845"><ele>440.0</ele><time>2026-03-22T15:32:12.983Z</time></trkpt><trkpt lat="43.8959148" lon="12.3647272"><ele>440.0</ele><time>2026-03-22T15:32:13.982Z</time></trkpt><trkpt lat="43.8960167" lon="12.3647481"><ele>440.0</ele><time>2026-03-22T15:32:14.983Z</time></trkpt><trkpt lat="43.8961237" lon="12.3647669"><ele>440.0</ele><time>2026-03-22T15:32:15.982Z</time></trkpt><trkpt lat="43.8962399" lon="12.3647846"><ele>441.2</ele><time>2026-03-22T15:32:16.983Z</time></trkpt><trkpt lat="43.8963585" lon="12.3648063"><ele>442.4</ele><time>2026-03-22T15:32:17.983Z</time></trkpt><trkpt lat="43.8964742" lon="12.3648251"><ele>443.6</ele><time>2026-03-22T15:32:18.982Z</time></trkpt><trkpt lat="43.8965773" lon="12.3648333"><ele>444.8</ele><time>2026-03-22T15:32:19.982Z</time></trkpt><trkpt lat="43.8966574" lon="12.3648179"><ele>446.0</ele><time>2026-03-22T15:32:20.983Z</time></trkpt><trkpt lat="43.8967296" lon="12.3647923"><ele>445.99999999999994</ele><time>2026-03-22T15:32:21.983Z</time></trkpt><trkpt lat="43.8967865" lon="12.3647355"><ele>446.0</ele><time>2026-03-22T15:32:22.983Z</time></trkpt><trkpt lat="43.8968248" lon="12.3646548"><ele>446.0</ele><time>2026-03-22T15:32:23.982Z</time></trkpt><trkpt lat="43.896844" lon="12.3645555"><ele>446.0</ele><time>2026-03-22T15:32:24.982Z</time></trkpt><trkpt lat="43.8968502" lon="12.36444"><ele>445.99999999999994</ele><time>2026-03-22T15:32:25.983Z</time></trkpt><trkpt lat="43.8968496" lon="12.3643163"><ele>446.0</ele><time>2026-03-22T15:32:26.983Z</time></trkpt><trkpt lat="43.8968454" lon="12.364177"><ele>449.0</ele><time>2026-03-22T15:32:27.982Z</time></trkpt><trkpt lat="43.896844" lon="12.3640287"><ele>452.0</ele><time>2026-03-22T15:32:28.982Z</time></trkpt><trkpt lat="43.8968415" lon="12.36387"><ele>455.0</ele><time>2026-03-22T15:32:29.982Z</time></trkpt><trkpt lat="43.8968333" lon="12.3637075"><ele>458.0</ele><time>2026-03-22T15:32:30.982Z</time></trkpt><trkpt lat="43.8968244" lon="12.3635406"><ele>461.0</ele><time>2026-03-22T15:32:31.983Z</time></trkpt><trkpt lat="43.896817" lon="12.3633677"><ele>464.0</ele><time>2026-03-22T15:32:32.983Z</time></trkpt><trkpt lat="43.896808" lon="12.3631908"><ele>467.0</ele><time>2026-03-22T15:32:33.982Z</time></trkpt><trkpt lat="43.8967892" lon="12.3630117"><ele>470.0</ele><time>2026-03-22T15:32:34.983Z</time></trkpt><trkpt lat="43.896759" lon="12.3628347"><ele>470.75</ele><time>2026-03-22T15:32:35.982Z</time></trkpt><trkpt lat="43.8967199" lon="12.3626638"><ele>471.5</ele><time>2026-03-22T15:32:36.982Z</time></trkpt><trkpt lat="43.8966821" lon="12.3624928"><ele>472.25</ele><time>2026-03-22T15:32:37.982Z</time></trkpt><trkpt lat="43.896657" lon="12.3623208"><ele>473.0</ele><time>2026-03-22T15:32:38.982Z</time></trkpt><trkpt lat="43.8966308" lon="12.3621524"><ele>474.4</ele><time>2026-03-22T15:32:39.982Z</time></trkpt><trkpt lat="43.8966447" lon="12.3619952"><ele>475.79999999999995</ele><time>2026-03-22T15:32:40.983Z</time></trkpt><trkpt lat="43.8966523" lon="12.3618554"><ele>477.2</ele><time>2026-03-22T15:32:41.983Z</time></trkpt><trkpt lat="43.8966719" lon="12.3617298"><ele>478.6</ele><time>2026-03-22T15:32:42.982Z</time></trkpt><trkpt lat="43.8967066" lon="12.3616438"><ele>480.0</ele><time>2026-03-22T15:32:43.982Z</time></trkpt><trkpt lat="43.896818" lon="12.3615747"><ele>482.5</ele><time>2026-03-22T15:32:45.983Z</time></trkpt><trkpt lat="43.8968845" lon="12.3615938"><ele>485.0</ele><time>2026-03-22T15:32:46.982Z</time></trkpt><trkpt lat="43.8969441" lon="12.3616531"><ele>487.5</ele><time>2026-03-22T15:32:47.983Z</time></trkpt><trkpt lat="43.8970093" lon="12.3617543"><ele>490.0</ele><time>2026-03-22T15:32:48.983Z</time></trkpt><trkpt lat="43.897072" lon="12.3618511"><ele>492.5</ele><time>2026-03-22T15:32:49.983Z</time></trkpt><trkpt lat="43.8971384" lon="12.3619204"><ele>495.0</ele><time>2026-03-22T15:32:50.982Z</time></trkpt><trkpt lat="43.8972142" lon="12.3619764"><ele>495.0</ele><time>2026-03-22T15:32:51.982Z</time></trkpt><trkpt lat="43.8973021" lon="12.3620109"><ele>495.0</ele><time>2026-03-22T15:32:52.983Z</time></trkpt><trkpt lat="43.8973749" lon="12.3620133"><ele>495.0</ele><time>2026-03-22T15:32:53.982Z</time></trkpt><trkpt lat="43.8974596" lon="12.3619552"><ele>495.0</ele><time>2026-03-22T15:32:54.983Z</time></trkpt><trkpt lat="43.8975248" lon="12.3618795"><ele>495.0</ele><time>2026-03-22T15:32:55.983Z</time></trkpt><trkpt lat="43.8975776" lon="12.3617951"><ele>495.0</ele><time>2026-03-22T15:32:56.982Z</time></trkpt><trkpt lat="43.8976464" lon="12.3616688"><ele>497.6</ele><time>2026-03-22T15:32:58.983Z</time></trkpt><trkpt lat="43.8977181" lon="12.3615177"><ele>500.2</ele><time>2026-03-22T15:33:00.983Z</time></trkpt><trkpt lat="43.8977651" lon="12.3614384"><ele>502.79999999999995</ele><time>2026-03-22T15:33:01.982Z</time></trkpt><trkpt lat="43.8978133" lon="12.3613503"><ele>505.4</ele><time>2026-03-22T15:33:02.983Z</time></trkpt><trkpt lat="43.8978615" lon="12.3612499"><ele>508.0</ele><time>2026-03-22T15:33:03.983Z</time></trkpt><trkpt lat="43.8979123" lon="12.3611437"><ele>509.0</ele><time>2026-03-22T15:33:04.983Z</time></trkpt><trkpt lat="43.8979652" lon="12.3610386"><ele>509.99999999999994</ele><time>2026-03-22T15:33:05.983Z</time></trkpt><trkpt lat="43.8980235" lon="12.3609408"><ele>510.99999999999994</ele><time>2026-03-22T15:33:06.983Z</time></trkpt><trkpt lat="43.8980936" lon="12.3608607"><ele>512.0</ele><time>2026-03-22T15:33:07.982Z</time></trkpt><trkpt lat="43.898179" lon="12.36081"><ele>513.0</ele><time>2026-03-22T15:33:08.983Z</time></trkpt><trkpt lat="43.8982707" lon="12.3607811"><ele>513.0</ele><time>2026-03-22T15:33:09.982Z</time></trkpt><trkpt lat="43.8983574" lon="12.3607558"><ele>513.0</ele><time>2026-03-22T15:33:10.982Z</time></trkpt><trkpt lat="43.8984379" lon="12.3607329"><ele>513.0</ele><time>2026-03-22T15:33:11.982Z</time></trkpt><trkpt lat="43.8985195" lon="12.3607089"><ele>513.0</ele><time>2026-03-22T15:33:12.983Z</time></trkpt><trkpt lat="43.8985975" lon="12.3606674"><ele>513.0</ele><time>2026-03-22T15:33:13.983Z</time></trkpt><trkpt lat="43.8986545" lon="12.3605677"><ele>513.0</ele><time>2026-03-22T15:33:14.983Z</time></trkpt><trkpt lat="43.898694" lon="12.3604636"><ele>513.1999999999999</ele><time>2026-03-22T15:33:15.982Z</time></trkpt><trkpt lat="43.8987276" lon="12.3603087"><ele>513.4</ele><time>2026-03-22T15:33:16.983Z</time></trkpt><trkpt lat="43.8987666" lon="12.3601658"><ele>513.5999999999999</ele><time>2026-03-22T15:33:17.983Z</time></trkpt><trkpt lat="43.8987939" lon="12.3600183"><ele>513.8</ele><time>2026-03-22T15:33:18.982Z</time></trkpt><trkpt lat="43.8988243" lon="12.3598741"><ele>514.0</ele><time>2026-03-22T15:33:19.982Z</time></trkpt><trkpt lat="43.8988544" lon="12.3597385"><ele>516.5</ele><time>2026-03-22T15:33:20.983Z</time></trkpt><trkpt lat="43.8988672" lon="12.359627"><ele>519.0</ele><time>2026-03-22T15:33:21.982Z</time></trkpt><trkpt lat="43.8988852" lon="12.359535"><ele>521.5</ele><time>2026-03-22T15:33:22.982Z</time></trkpt><trkpt lat="43.8989208" lon="12.3593734"><ele>524.0</ele><time>2026-03-22T15:33:24.983Z</time></trkpt><trkpt lat="43.8989461" lon="12.3592787"><ele>526.5</ele><time>2026-03-22T15:33:25.982Z</time></trkpt><trkpt lat="43.8989837" lon="12.359196"><ele>529.0</ele><time>2026-03-22T15:33:26.983Z</time></trkpt><trkpt lat="43.8990451" lon="12.3591146"><ele>529.0</ele><time>2026-03-22T15:33:27.983Z</time></trkpt><trkpt lat="43.8991153" lon="12.3590511"><ele>529.0</ele><time>2026-03-22T15:33:28.982Z</time></trkpt><trkpt lat="43.8991836" lon="12.358989"><ele>529.0</ele><time>2026-03-22T15:33:29.982Z</time></trkpt><trkpt lat="43.8992463" lon="12.3589128"><ele>529.0</ele><time>2026-03-22T15:33:30.983Z</time></trkpt><trkpt lat="43.8993121" lon="12.3588379"><ele>529.0</ele><time>2026-03-22T15:33:31.983Z</time></trkpt><trkpt lat="43.8993822" lon="12.3587626"><ele>529.0</ele><time>2026-03-22T15:33:32.982Z</time></trkpt><trkpt lat="43.8994517" lon="12.3586781"><ele>530.0</ele><time>2026-03-22T15:33:33.982Z</time></trkpt><trkpt lat="43.8995161" lon="12.3585801"><ele>531.0</ele><time>2026-03-22T15:33:34.982Z</time></trkpt><trkpt lat="43.8995654" lon="12.358468"><ele>532.0</ele><time>2026-03-22T15:33:35.982Z</time></trkpt><trkpt lat="43.8995893" lon="12.3583609"><ele>533.0</ele><time>2026-03-22T15:33:36.983Z</time></trkpt><trkpt lat="43.8996096" lon="12.3582662"><ele>534.0</ele><time>2026-03-22T15:33:37.982Z</time></trkpt><trkpt lat="43.8996286" lon="12.3581564"><ele>535.0</ele><time>2026-03-22T15:33:38.983Z</time></trkpt><trkpt lat="43.8996496" lon="12.3580394"><ele>536.5</ele><time>2026-03-22T15:33:39.983Z</time></trkpt><trkpt lat="43.8996762" lon="12.3579247"><ele>538.0</ele><time>2026-03-22T15:33:40.983Z</time></trkpt><trkpt lat="43.8997044" lon="12.3578132"><ele>539.5</ele><time>2026-03-22T15:33:41.983Z</time></trkpt><trkpt lat="43.8997367" lon="12.357705"><ele>541.0</ele><time>2026-03-22T15:33:42.982Z</time></trkpt><trkpt lat="43.8997667" lon="12.3575938"><ele>542.5</ele><time>2026-03-22T15:33:43.982Z</time></trkpt><trkpt lat="43.8997904" lon="12.3574826"><ele>544.0</ele><time>2026-03-22T15:33:44.983Z</time></trkpt><trkpt lat="43.8998115" lon="12.3573854"><ele>544.0</ele><time>2026-03-22T15:33:45.983Z</time></trkpt><trkpt lat="43.8998478" lon="12.357244"><ele>544.0</ele><time>2026-03-22T15:33:47.982Z</time></trkpt><trkpt lat="43.899884" lon="12.3571362"><ele>544.0</ele><time>2026-03-22T15:33:49.983Z</time></trkpt><trkpt lat="43.8999543" lon="12.3571142"><ele>544.0</ele><time>2026-03-22T15:33:51.982Z</time></trkpt><trkpt lat="43.900063" lon="12.3572115"><ele>544.0</ele><time>2026-03-22T15:33:53.982Z</time></trkpt><trkpt lat="43.9001359" lon="12.3573017"><ele>544.25</ele><time>2026-03-22T15:33:54.983Z</time></trkpt><trkpt lat="43.9002251" lon="12.357406"><ele>544.5</ele><time>2026-03-22T15:33:55.982Z</time></trkpt><trkpt lat="43.900327" lon="12.3575251"><ele>544.75</ele><time>2026-03-22T15:33:56.983Z</time></trkpt><trkpt lat="43.9004382" lon="12.3576516"><ele>545.0</ele><time>2026-03-22T15:33:57.982Z</time></trkpt><trkpt lat="43.9005529" lon="12.3577894"><ele>545.0</ele><time>2026-03-22T15:33:58.982Z</time></trkpt><trkpt lat="43.9006681" lon="12.3579185"><ele>545.0</ele><time>2026-03-22T15:33:59.983Z</time></trkpt><trkpt lat="43.9007737" lon="12.3580341"><ele>545.0</ele><time>2026-03-22T15:34:00.983Z</time></trkpt><trkpt lat="43.9008773" lon="12.3581424"><ele>545.0</ele><time>2026-03-22T15:34:01.982Z</time></trkpt><trkpt lat="43.9009841" lon="12.358235"><ele>541.25</ele><time>2026-03-22T15:34:02.982Z</time></trkpt><trkpt lat="43.9010983" lon="12.3583025"><ele>537.5</ele><time>2026-03-22T15:34:03.983Z</time></trkpt><trkpt lat="43.901213" lon="12.3583471"><ele>533.75</ele><time>2026-03-22T15:34:04.983Z</time></trkpt><trkpt lat="43.9013325" lon="12.3583688"><ele>530.0</ele><time>2026-03-22T15:34:05.982Z</time></trkpt><trkpt lat="43.9014597" lon="12.3583855"><ele>530.0</ele><time>2026-03-22T15:34:06.983Z</time></trkpt><trkpt lat="43.9015957" lon="12.358403"><ele>530.0</ele><time>2026-03-22T15:34:07.982Z</time></trkpt><trkpt lat="43.9017321" lon="12.3584207"><ele>530.0</ele><time>2026-03-22T15:34:08.982Z</time></trkpt><trkpt lat="43.9018669" lon="12.3584377"><ele>530.0</ele><time>2026-03-22T15:34:09.983Z</time></trkpt><trkpt lat="43.9019966" lon="12.3584536"><ele>530.0</ele><time>2026-03-22T15:34:10.983Z</time></trkpt><trkpt lat="43.9021244" lon="12.3584662"><ele>530.0</ele><time>2026-03-22T15:34:11.983Z</time></trkpt><trkpt lat="43.9022463" lon="12.3584815"><ele>530.0</ele><time>2026-03-22T15:34:12.983Z</time></trkpt><trkpt lat="43.9023672" lon="12.3584996"><ele>530.0</ele><time>2026-03-22T15:34:13.982Z</time></trkpt><trkpt lat="43.9024826" lon="12.358516"><ele>528.5</ele><time>2026-03-22T15:34:14.982Z</time></trkpt><trkpt lat="43.9026059" lon="12.3585276"><ele>527.0</ele><time>2026-03-22T15:34:15.983Z</time></trkpt><trkpt lat="43.9027394" lon="12.3585423"><ele>525.5</ele><time>2026-03-22T15:34:16.983Z</time></trkpt><trkpt lat="43.9028793" lon="12.3585409"><ele>524.0</ele><time>2026-03-22T15:34:17.982Z</time></trkpt><trkpt lat="43.9030228" lon="12.3585161"><ele>524.0</ele><time>2026-03-22T15:34:18.983Z</time></trkpt><trkpt lat="43.9031713" lon="12.3584674"><ele>524.0</ele><time>2026-03-22T15:34:19.983Z</time></trkpt><trkpt lat="43.9033115" lon="12.3584155"><ele>524.0</ele><time>2026-03-22T15:34:20.983Z</time></trkpt><trkpt lat="43.9034471" lon="12.3583664"><ele>524.0</ele><time>2026-03-22T15:34:21.983Z</time></trkpt><trkpt lat="43.9035735" lon="12.3583242"><ele>523.0</ele><time>2026-03-22T15:34:22.983Z</time></trkpt><trkpt lat="43.9036919" lon="12.3582929"><ele>522.0</ele><time>2026-03-22T15:34:23.982Z</time></trkpt><trkpt lat="43.9038072" lon="12.3582771"><ele>521.0</ele><time>2026-03-22T15:34:24.982Z</time></trkpt><trkpt lat="43.9039141" lon="12.3582738"><ele>520.0</ele><time>2026-03-22T15:34:25.982Z</time></trkpt><trkpt lat="43.9039999" lon="12.3582766"><ele>519.0</ele><time>2026-03-22T15:34:26.982Z</time></trkpt><trkpt lat="43.9040726" lon="12.3582898"><ele>519.0</ele><time>2026-03-22T15:34:27.983Z</time></trkpt><trkpt lat="43.9041391" lon="12.3583069"><ele>519.0</ele><time>2026-03-22T15:34:28.983Z</time></trkpt><trkpt lat="43.904205" lon="12.3583176"><ele>519.0</ele><time>2026-03-22T15:34:29.982Z</time></trkpt><trkpt lat="43.9042768" lon="12.3583276"><ele>519.0</ele><time>2026-03-22T15:34:30.982Z</time></trkpt><trkpt lat="43.9043438" lon="12.358343"><ele>519.0</ele><time>2026-03-22T15:34:31.983Z</time></trkpt><trkpt lat="43.9044133" lon="12.3583654"><ele>519.0</ele><time>2026-03-22T15:34:32.982Z</time></trkpt><trkpt lat="43.90449" lon="12.3584011"><ele>519.0</ele><time>2026-03-22T15:34:33.983Z</time></trkpt><trkpt lat="43.9045736" lon="12.3584486"><ele>522.0</ele><time>2026-03-22T15:34:34.982Z</time></trkpt><trkpt lat="43.9046608" lon="12.3585044"><ele>525.0</ele><time>2026-03-22T15:34:35.983Z</time></trkpt><trkpt lat="43.9047516" lon="12.3585677"><ele>528.0</ele><time>2026-03-22T15:34:36.982Z</time></trkpt><trkpt lat="43.9048497" lon="12.3586275"><ele>531.0</ele><time>2026-03-22T15:34:37.983Z</time></trkpt><trkpt lat="43.9049595" lon="12.3587034"><ele>534.0</ele><time>2026-03-22T15:34:38.982Z</time></trkpt><trkpt lat="43.9050786" lon="12.3587856"><ele>531.8</ele><time>2026-03-22T15:34:39.983Z</time></trkpt><trkpt lat="43.9051859" lon="12.3588659"><ele>529.5999999999999</ele><time>2026-03-22T15:34:40.982Z</time></trkpt><trkpt lat="43.9052817" lon="12.3589275"><ele>527.4</ele><time>2026-03-22T15:34:41.983Z</time></trkpt><trkpt lat="43.9053808" lon="12.3589602"><ele>525.1999999999999</ele><time>2026-03-22T15:34:42.982Z</time></trkpt><trkpt lat="43.9054898" lon="12.3589595"><ele>523.0</ele><time>2026-03-22T15:34:43.983Z</time></trkpt><trkpt lat="43.9055997" lon="12.3589379"><ele>523.0</ele><time>2026-03-22T15:34:44.982Z</time></trkpt><trkpt lat="43.9057254" lon="12.3589254"><ele>523.0</ele><time>2026-03-22T15:34:45.983Z</time></trkpt><trkpt lat="43.9058387" lon="12.3589738"><ele>523.0</ele><time>2026-03-22T15:34:46.983Z</time></trkpt><trkpt lat="43.9059589" lon="12.3590465"><ele>523.0</ele><time>2026-03-22T15:34:47.982Z</time></trkpt><trkpt lat="43.9060845" lon="12.3591388"><ele>524.3333333333334</ele><time>2026-03-22T15:34:48.983Z</time></trkpt><trkpt lat="43.9062239" lon="12.3592391"><ele>525.6666666666666</ele><time>2026-03-22T15:34:49.982Z</time></trkpt><trkpt lat="43.9063558" lon="12.3593305"><ele>527.0</ele><time>2026-03-22T15:34:50.982Z</time></trkpt><trkpt lat="43.9064939" lon="12.3594206"><ele>527.0</ele><time>2026-03-22T15:34:51.983Z</time></trkpt><trkpt lat="43.9066213" lon="12.3594894"><ele>527.0</ele><time>2026-03-22T15:34:52.983Z</time></trkpt><trkpt lat="43.906736" lon="12.3595452"><ele>527.0</ele><time>2026-03-22T15:34:53.983Z</time></trkpt><trkpt lat="43.9068403" lon="12.3595858"><ele>527.0</ele><time>2026-03-22T15:34:54.983Z</time></trkpt><trkpt lat="43.9069384" lon="12.3596027"><ele>526.2</ele><time>2026-03-22T15:34:55.982Z</time></trkpt><trkpt lat="43.9070294" lon="12.3595895"><ele>525.4000000000001</ele><time>2026-03-22T15:34:56.983Z</time></trkpt><trkpt lat="43.9071145" lon="12.359548"><ele>524.5999999999999</ele><time>2026-03-22T15:34:57.983Z</time></trkpt><trkpt lat="43.9071971" lon="12.3594834"><ele>523.8</ele><time>2026-03-22T15:34:58.982Z</time></trkpt><trkpt lat="43.9072833" lon="12.3593921"><ele>523.0</ele><time>2026-03-22T15:34:59.983Z</time></trkpt><trkpt lat="43.9073844" lon="12.3592882"><ele>523.0</ele><time>2026-03-22T15:35:00.983Z</time></trkpt><trkpt lat="43.9074943" lon="12.3591791"><ele>523.0</ele><time>2026-03-22T15:35:01.983Z</time></trkpt><trkpt lat="43.9075944" lon="12.3590576"><ele>523.0</ele><time>2026-03-22T15:35:02.982Z</time></trkpt><trkpt lat="43.9076743" lon="12.3589305"><ele>523.0</ele><time>2026-03-22T15:35:03.983Z</time></trkpt><trkpt lat="43.9077498" lon="12.3588185"><ele>524.5</ele><time>2026-03-22T15:35:04.983Z</time></trkpt><trkpt lat="43.9078421" lon="12.358716"><ele>526.0</ele><time>2026-03-22T15:35:05.982Z</time></trkpt><trkpt lat="43.9079503" lon="12.3586322"><ele>527.5</ele><time>2026-03-22T15:35:06.983Z</time></trkpt><trkpt lat="43.908062" lon="12.3585644"><ele>529.0</ele><time>2026-03-22T15:35:07.982Z</time></trkpt><trkpt lat="43.9081768" lon="12.3584908"><ele>529.0</ele><time>2026-03-22T15:35:08.983Z</time></trkpt><trkpt lat="43.9082864" lon="12.358416"><ele>529.0</ele><time>2026-03-22T15:35:09.983Z</time></trkpt><trkpt lat="43.908383" lon="12.3583584"><ele>529.0</ele><time>2026-03-22T15:35:10.982Z</time></trkpt><trkpt lat="43.9084825" lon="12.3583207"><ele>529.0</ele><time>2026-03-22T15:35:11.983Z</time></trkpt><trkpt lat="43.9085901" lon="12.3583061"><ele>529.0</ele><time>2026-03-22T15:35:12.983Z</time></trkpt><trkpt lat="43.9087015" lon="12.3583167"><ele>525.4</ele><time>2026-03-22T15:35:13.982Z</time></trkpt><trkpt lat="43.908801" lon="12.3583303"><ele>521.8</ele><time>2026-03-22T15:35:14.983Z</time></trkpt><trkpt lat="43.9088903" lon="12.3583249"><ele>518.2</ele><time>2026-03-22T15:35:15.982Z</time></trkpt><trkpt lat="43.9089739" lon="12.358293"><ele>514.6</ele><time>2026-03-22T15:35:16.983Z</time></trkpt><trkpt lat="43.9090575" lon="12.3582379"><ele>511.0</ele><time>2026-03-22T15:35:17.983Z</time></trkpt><trkpt lat="43.9091353" lon="12.3581576"><ele>511.0</ele><time>2026-03-22T15:35:18.983Z</time></trkpt><trkpt lat="43.9092107" lon="12.3580606"><ele>511.0</ele><time>2026-03-22T15:35:19.983Z</time></trkpt><trkpt lat="43.9092811" lon="12.3579503"><ele>511.0</ele><time>2026-03-22T15:35:20.982Z</time></trkpt><trkpt lat="43.90935" lon="12.3578421"><ele>511.0</ele><time>2026-03-22T15:35:21.982Z</time></trkpt><trkpt lat="43.9094287" lon="12.3577817"><ele>511.0</ele><time>2026-03-22T15:35:22.983Z</time></trkpt><trkpt lat="43.9095208" lon="12.357744"><ele>512.4</ele><time>2026-03-22T15:35:23.983Z</time></trkpt><trkpt lat="43.9096308" lon="12.3577386"><ele>513.8</ele><time>2026-03-22T15:35:24.983Z</time></trkpt><trkpt lat="43.9097476" lon="12.3577436"><ele>515.1999999999999</ele><time>2026-03-22T15:35:25.982Z</time></trkpt><trkpt lat="43.9098523" lon="12.3577165"><ele>516.6</ele><time>2026-03-22T15:35:26.983Z</time></trkpt><trkpt lat="43.9099516" lon="12.357657"><ele>518.0</ele><time>2026-03-22T15:35:27.982Z</time></trkpt><trkpt lat="43.9100534" lon="12.3575831"><ele>515.4</ele><time>2026-03-22T15:35:28.982Z</time></trkpt><trkpt lat="43.9101547" lon="12.3574932"><ele>512.8</ele><time>2026-03-22T15:35:29.982Z</time></trkpt><trkpt lat="43.9102514" lon="12.3574001"><ele>510.2</ele><time>2026-03-22T15:35:30.983Z</time></trkpt><trkpt lat="43.9103364" lon="12.3573241"><ele>507.6</ele><time>2026-03-22T15:35:31.982Z</time></trkpt><trkpt lat="43.9104336" lon="12.3572801"><ele>505.0</ele><time>2026-03-22T15:35:32.983Z</time></trkpt><trkpt lat="43.910543" lon="12.3572563"><ele>505.0</ele><time>2026-03-22T15:35:33.983Z</time></trkpt><trkpt lat="43.9106712" lon="12.3572335"><ele>505.0</ele><time>2026-03-22T15:35:34.982Z</time></trkpt><trkpt lat="43.9108149" lon="12.3572048"><ele>505.0</ele><time>2026-03-22T15:35:35.983Z</time></trkpt><trkpt lat="43.9109648" lon="12.3571608"><ele>505.0</ele><time>2026-03-22T15:35:36.982Z</time></trkpt><trkpt lat="43.9111084" lon="12.3571153"><ele>508.0</ele><time>2026-03-22T15:35:37.983Z</time></trkpt><trkpt lat="43.9112415" lon="12.3570766"><ele>511.0</ele><time>2026-03-22T15:35:38.982Z</time></trkpt><trkpt lat="43.9113675" lon="12.3570428"><ele>514.0</ele><time>2026-03-22T15:35:39.983Z</time></trkpt><trkpt lat="43.9114877" lon="12.3570164"><ele>517.0</ele><time>2026-03-22T15:35:40.983Z</time></trkpt><trkpt lat="43.9116092" lon="12.3569904"><ele>517.0</ele><time>2026-03-22T15:35:41.982Z</time></trkpt><trkpt lat="43.9117145" lon="12.3569351"><ele>517.0</ele><time>2026-03-22T15:35:42.982Z</time></trkpt><trkpt lat="43.9118146" lon="12.3568679"><ele>517.0</ele><time>2026-03-22T15:35:43.983Z</time></trkpt><trkpt lat="43.9119235" lon="12.3567899"><ele>517.0</ele><time>2026-03-22T15:35:44.983Z</time></trkpt><trkpt lat="43.9120381" lon="12.356708"><ele>515.0</ele><time>2026-03-22T15:35:45.982Z</time></trkpt><trkpt lat="43.9121392" lon="12.3566247"><ele>513.0</ele><time>2026-03-22T15:35:46.983Z</time></trkpt><trkpt lat="43.9122278" lon="12.356553"><ele>511.00000000000006</ele><time>2026-03-22T15:35:47.982Z</time></trkpt><trkpt lat="43.9123247" lon="12.3564847"><ele>509.0</ele><time>2026-03-22T15:35:48.983Z</time></trkpt><trkpt lat="43.9124288" lon="12.356424"><ele>507.0</ele><time>2026-03-22T15:35:49.983Z</time></trkpt><trkpt lat="43.91254" lon="12.3563688"><ele>507.0</ele><time>2026-03-22T15:35:50.982Z</time></trkpt><trkpt lat="43.9126596" lon="12.356309"><ele>507.0</ele><time>2026-03-22T15:35:51.982Z</time></trkpt><trkpt lat="43.9127859" lon="12.3562417"><ele>507.0</ele><time>2026-03-22T15:35:52.983Z</time></trkpt><trkpt lat="43.9129159" lon="12.3561662"><ele>507.0</ele><time>2026-03-22T15:35:53.983Z</time></trkpt><trkpt lat="43.9130473" lon="12.3560818"><ele>507.0</ele><time>2026-03-22T15:35:54.982Z</time></trkpt><trkpt lat="43.913153" lon="12.355993"><ele>507.00000000000006</ele><time>2026-03-22T15:35:55.982Z</time></trkpt><trkpt lat="43.9132393" lon="12.3559185"><ele>507.00000000000006</ele><time>2026-03-22T15:35:56.983Z</time></trkpt><trkpt lat="43.9133139" lon="12.3558628"><ele>507.0</ele><time>2026-03-22T15:35:57.982Z</time></trkpt><trkpt lat="43.9133937" lon="12.3558464"><ele>507.0</ele><time>2026-03-22T15:35:58.982Z</time></trkpt><trkpt lat="43.9134785" lon="12.3558524"><ele>500.0</ele><time>2026-03-22T15:35:59.983Z</time></trkpt><trkpt lat="43.9135714" lon="12.3558975"><ele>493.0</ele><time>2026-03-22T15:36:00.983Z</time></trkpt><trkpt lat="43.913664" lon="12.355952"><ele>486.0</ele><time>2026-03-22T15:36:01.983Z</time></trkpt><trkpt lat="43.9137672" lon="12.356035"><ele>479.0</ele><time>2026-03-22T15:36:02.983Z</time></trkpt><trkpt lat="43.9138855" lon="12.3561385"><ele>479.0</ele><time>2026-03-22T15:36:03.982Z</time></trkpt><trkpt lat="43.9140158" lon="12.3562411"><ele>479.0</ele><time>2026-03-22T15:36:04.982Z</time></trkpt><trkpt lat="43.9141468" lon="12.3563489"><ele>479.0</ele><time>2026-03-22T15:36:05.983Z</time></trkpt><trkpt lat="43.9142737" lon="12.3564581"><ele>479.25</ele><time>2026-03-22T15:36:06.982Z</time></trkpt><trkpt lat="43.9143922" lon="12.3565794"><ele>479.5</ele><time>2026-03-22T15:36:07.982Z</time></trkpt><trkpt lat="43.9145064" lon="12.3567085"><ele>479.75</ele><time>2026-03-22T15:36:08.982Z</time></trkpt><trkpt lat="43.9146301" lon="12.3568294"><ele>480.0</ele><time>2026-03-22T15:36:09.983Z</time></trkpt><trkpt lat="43.9147633" lon="12.3569468"><ele>480.0</ele><time>2026-03-22T15:36:10.982Z</time></trkpt><trkpt lat="43.9149007" lon="12.3570512"><ele>480.0</ele><time>2026-03-22T15:36:11.983Z</time></trkpt><trkpt lat="43.9150306" lon="12.3571518"><ele>480.0</ele><time>2026-03-22T15:36:12.983Z</time></trkpt><trkpt lat="43.9151577" lon="12.3572496"><ele>484.0</ele><time>2026-03-22T15:36:13.983Z</time></trkpt><trkpt lat="43.9152775" lon="12.3573366"><ele>488.0</ele><time>2026-03-22T15:36:14.983Z</time></trkpt><trkpt lat="43.9153914" lon="12.3573989"><ele>492.0</ele><time>2026-03-22T15:36:15.983Z</time></trkpt><trkpt lat="43.9155138" lon="12.3574106"><ele>496.0</ele><time>2026-03-22T15:36:16.982Z</time></trkpt><trkpt lat="43.9156286" lon="12.3574028"><ele>496.0</ele><time>2026-03-22T15:36:17.982Z</time></trkpt><trkpt lat="43.9157508" lon="12.3573821"><ele>496.0</ele><time>2026-03-22T15:36:18.983Z</time></trkpt><trkpt lat="43.9158647" lon="12.3573571"><ele>496.0</ele><time>2026-03-22T15:36:19.983Z</time></trkpt><trkpt lat="43.9159711" lon="12.3573226"><ele>496.0</ele><time>2026-03-22T15:36:20.982Z</time></trkpt><trkpt lat="43.9160632" lon="12.3572791"><ele>496.0</ele><time>2026-03-22T15:36:21.982Z</time></trkpt><trkpt lat="43.9161422" lon="12.3572407"><ele>494.0</ele><time>2026-03-22T15:36:22.983Z</time></trkpt><trkpt lat="43.9162187" lon="12.3572188"><ele>492.00000000000006</ele><time>2026-03-22T15:36:23.983Z</time></trkpt><trkpt lat="43.9162908" lon="12.3572145"><ele>490.0</ele><time>2026-03-22T15:36:24.982Z</time></trkpt><trkpt lat="43.9163586" lon="12.3572142"><ele>488.0</ele><time>2026-03-22T15:36:25.983Z</time></trkpt><trkpt lat="43.9164231" lon="12.3572219"><ele>486.00000000000006</ele><time>2026-03-22T15:36:26.982Z</time></trkpt><trkpt lat="43.9164939" lon="12.3572441"><ele>484.0</ele><time>2026-03-22T15:36:27.983Z</time></trkpt><trkpt lat="43.9165614" lon="12.3572909"><ele>482.0</ele><time>2026-03-22T15:36:28.983Z</time></trkpt><trkpt lat="43.9166256" lon="12.3573482"><ele>481.99999999999994</ele><time>2026-03-22T15:36:29.982Z</time></trkpt><trkpt lat="43.9166899" lon="12.3574132"><ele>482.0</ele><time>2026-03-22T15:36:30.983Z</time></trkpt><trkpt lat="43.9167548" lon="12.3574821"><ele>482.0</ele><time>2026-03-22T15:36:31.982Z</time></trkpt><trkpt lat="43.9168235" lon="12.3575605"><ele>482.0</ele><time>2026-03-22T15:36:32.983Z</time></trkpt><trkpt lat="43.9168846" lon="12.3576518"><ele>481.99999999999994</ele><time>2026-03-22T15:36:33.982Z</time></trkpt><trkpt lat="43.916931" lon="12.3577583"><ele>482.0</ele><time>2026-03-22T15:36:34.982Z</time></trkpt><trkpt lat="43.916969" lon="12.3578909"><ele>483.6</ele><time>2026-03-22T15:36:35.982Z</time></trkpt><trkpt lat="43.9170095" lon="12.3580222"><ele>485.20000000000005</ele><time>2026-03-22T15:36:36.983Z</time></trkpt><trkpt lat="43.917061" lon="12.3581227"><ele>486.8</ele><time>2026-03-22T15:36:37.982Z</time></trkpt><trkpt lat="43.9171229" lon="12.3582119"><ele>488.4</ele><time>2026-03-22T15:36:38.982Z</time></trkpt><trkpt lat="43.9172227" lon="12.3582619"><ele>490.0</ele><time>2026-03-22T15:36:39.983Z</time></trkpt><trkpt lat="43.9173298" lon="12.358278"><ele>490.0</ele><time>2026-03-22T15:36:40.983Z</time></trkpt><trkpt lat="43.9174419" lon="12.3582608"><ele>490.0</ele><time>2026-03-22T15:36:41.983Z</time></trkpt><trkpt lat="43.9175563" lon="12.3582015"><ele>490.0</ele><time>2026-03-22T15:36:42.983Z</time></trkpt><trkpt lat="43.9176659" lon="12.3581171"><ele>490.0</ele><time>2026-03-22T15:36:43.983Z</time></trkpt><trkpt lat="43.9177659" lon="12.3580509"><ele>488.6</ele><time>2026-03-22T15:36:44.983Z</time></trkpt><trkpt lat="43.9178544" lon="12.358023"><ele>487.2</ele><time>2026-03-22T15:36:45.982Z</time></trkpt><trkpt lat="43.9179504" lon="12.3580348"><ele>485.79999999999995</ele><time>2026-03-22T15:36:46.983Z</time></trkpt><trkpt lat="43.9180644" lon="12.3580733"><ele>484.4</ele><time>2026-03-22T15:36:47.983Z</time></trkpt><trkpt lat="43.918161" lon="12.358122"><ele>483.0</ele><time>2026-03-22T15:36:48.982Z</time></trkpt><trkpt lat="43.9182541" lon="12.3582039"><ele>483.0</ele><time>2026-03-22T15:36:49.982Z</time></trkpt><trkpt lat="43.9183607" lon="12.3583168"><ele>483.0</ele><time>2026-03-22T15:36:50.983Z</time></trkpt><trkpt lat="43.9184737" lon="12.3584411"><ele>483.0</ele><time>2026-03-22T15:36:51.983Z</time></trkpt><trkpt lat="43.9185838" lon="12.3585607"><ele>483.0</ele><time>2026-03-22T15:36:52.982Z</time></trkpt><trkpt lat="43.9186835" lon="12.358672"><ele>482.79999999999995</ele><time>2026-03-22T15:36:53.983Z</time></trkpt><trkpt lat="43.9187732" lon="12.3587697"><ele>482.59999999999997</ele><time>2026-03-22T15:36:54.982Z</time></trkpt><trkpt lat="43.9188603" lon="12.3588489"><ele>482.40000000000003</ele><time>2026-03-22T15:36:55.983Z</time></trkpt><trkpt lat="43.9189448" lon="12.3589063"><ele>482.20000000000005</ele><time>2026-03-22T15:36:56.983Z</time></trkpt><trkpt lat="43.9190342" lon="12.3589512"><ele>482.0</ele><time>2026-03-22T15:36:57.983Z</time></trkpt><trkpt lat="43.9191746" lon="12.3589005"><ele>477.5</ele><time>2026-03-22T15:36:58.982Z</time></trkpt><trkpt lat="43.9193181" lon="12.3588679"><ele>473.0</ele><time>2026-03-22T15:36:59.983Z</time></trkpt><trkpt lat="43.9194565" lon="12.3588403"><ele>468.5</ele><time>2026-03-22T15:37:00.982Z</time></trkpt><trkpt lat="43.9195988" lon="12.3588121"><ele>464.0</ele><time>2026-03-22T15:37:01.983Z</time></trkpt><trkpt lat="43.9197422" lon="12.3587763"><ele>461.75</ele><time>2026-03-22T15:37:02.982Z</time></trkpt><trkpt lat="43.9198841" lon="12.3587312"><ele>459.5</ele><time>2026-03-22T15:37:03.981Z</time></trkpt><trkpt lat="43.9200251" lon="12.3586731"><ele>457.25</ele><time>2026-03-22T15:37:04.982Z</time></trkpt><trkpt lat="43.9201585" lon="12.358602"><ele>455.0</ele><time>2026-03-22T15:37:05.983Z</time></trkpt><trkpt lat="43.9202805" lon="12.3585283"><ele>453.6</ele><time>2026-03-22T15:37:06.982Z</time></trkpt><trkpt lat="43.9203847" lon="12.3584585"><ele>452.2</ele><time>2026-03-22T15:37:07.983Z</time></trkpt><trkpt lat="43.9204659" lon="12.3584068"><ele>450.79999999999995</ele><time>2026-03-22T15:37:08.982Z</time></trkpt><trkpt lat="43.9205317" lon="12.358392"><ele>449.4</ele><time>2026-03-22T15:37:09.983Z</time></trkpt><trkpt lat="43.9206212" lon="12.3584798"><ele>448.0</ele><time>2026-03-22T15:37:11.982Z</time></trkpt><trkpt lat="43.9205628" lon="12.3586748"><ele>448.0</ele><time>2026-03-22T15:37:13.982Z</time></trkpt><trkpt lat="43.9205172" lon="12.3588164"><ele>448.0</ele><time>2026-03-22T15:37:14.983Z</time></trkpt><trkpt lat="43.9204732" lon="12.3589917"><ele>448.0</ele><time>2026-03-22T15:37:15.982Z</time></trkpt><trkpt lat="43.9204227" lon="12.3591791"><ele>448.0</ele><time>2026-03-22T15:37:16.983Z</time></trkpt><trkpt lat="43.9203732" lon="12.3593586"><ele>447.1666666666667</ele><time>2026-03-22T15:37:17.982Z</time></trkpt><trkpt lat="43.9203577" lon="12.3594827"><ele>446.33333333333337</ele><time>2026-03-22T15:37:18.982Z</time></trkpt><trkpt lat="43.9203486" lon="12.3596203"><ele>445.5</ele><time>2026-03-22T15:37:19.982Z</time></trkpt><trkpt lat="43.9203648" lon="12.3597316"><ele>444.66666666666663</ele><time>2026-03-22T15:37:20.983Z</time></trkpt><trkpt lat="43.9204112" lon="12.3598042"><ele>443.8333333333333</ele><time>2026-03-22T15:37:21.983Z</time></trkpt><trkpt lat="43.9204938" lon="12.35987"><ele>443.0</ele><time>2026-03-22T15:37:22.983Z</time></trkpt><trkpt lat="43.9206134" lon="12.3599177"><ele>440.5</ele><time>2026-03-22T15:37:23.983Z</time></trkpt><trkpt lat="43.9207265" lon="12.3599712"><ele>438.0</ele><time>2026-03-22T15:37:24.983Z</time></trkpt><trkpt lat="43.920893" lon="12.3599984"><ele>435.5</ele><time>2026-03-22T15:37:25.983Z</time></trkpt><trkpt lat="43.9210451" lon="12.3600191"><ele>433.0</ele><time>2026-03-22T15:37:26.982Z</time></trkpt><trkpt lat="43.9211717" lon="12.3600323"><ele>433.0</ele><time>2026-03-22T15:37:27.983Z</time></trkpt><trkpt lat="43.9212753" lon="12.3600597"><ele>433.0</ele><time>2026-03-22T15:37:28.982Z</time></trkpt><trkpt lat="43.9213752" lon="12.3601064"><ele>433.0</ele><time>2026-03-22T15:37:29.982Z</time></trkpt><trkpt lat="43.9214484" lon="12.3602328"><ele>433.0</ele><time>2026-03-22T15:37:30.982Z</time></trkpt><trkpt lat="43.9215364" lon="12.3603882"><ele>436.25</ele><time>2026-03-22T15:37:31.982Z</time></trkpt><trkpt lat="43.921615" lon="12.360535"><ele>439.5</ele><time>2026-03-22T15:37:32.983Z</time></trkpt><trkpt lat="43.9217137" lon="12.3606656"><ele>442.75</ele><time>2026-03-22T15:37:33.982Z</time></trkpt><trkpt lat="43.9217978" lon="12.3607643"><ele>446.0</ele><time>2026-03-22T15:37:34.983Z</time></trkpt><trkpt lat="43.921877" lon="12.3608507"><ele>446.0</ele><time>2026-03-22T15:37:35.983Z</time></trkpt><trkpt lat="43.9219501" lon="12.3609068"><ele>446.0</ele><time>2026-03-22T15:37:36.982Z</time></trkpt><trkpt lat="43.922028" lon="12.3609281"><ele>446.0</ele><time>2026-03-22T15:37:37.982Z</time></trkpt><trkpt lat="43.9220957" lon="12.3609287"><ele>446.0</ele><time>2026-03-22T15:37:38.983Z</time></trkpt><trkpt lat="43.9221954" lon="12.3608854"><ele>446.0</ele><time>2026-03-22T15:37:40.983Z</time></trkpt><trkpt lat="43.9223099" lon="12.360836"><ele>445.99999999999994</ele><time>2026-03-22T15:37:42.982Z</time></trkpt><trkpt lat="43.9223963" lon="12.3608331"><ele>446.0</ele><time>2026-03-22T15:37:43.982Z</time></trkpt><trkpt lat="43.9224832" lon="12.3608639"><ele>446.0</ele><time>2026-03-22T15:37:44.983Z</time></trkpt><trkpt lat="43.9225649" lon="12.3608971"><ele>446.0</ele><time>2026-03-22T15:37:45.983Z</time></trkpt><trkpt lat="43.9226523" lon="12.3609349"><ele>445.99999999999994</ele><time>2026-03-22T15:37:46.983Z</time></trkpt><trkpt lat="43.922734" lon="12.3609453"><ele>446.0</ele><time>2026-03-22T15:37:47.983Z</time></trkpt><trkpt lat="43.9228163" lon="12.3609569"><ele>443.49999999999994</ele><time>2026-03-22T15:37:48.983Z</time></trkpt><trkpt lat="43.9228967" lon="12.3609782"><ele>441.0</ele><time>2026-03-22T15:37:49.982Z</time></trkpt><trkpt lat="43.922974" lon="12.3610154"><ele>438.5</ele><time>2026-03-22T15:37:50.982Z</time></trkpt><trkpt lat="43.9230537" lon="12.3610714"><ele>436.0</ele><time>2026-03-22T15:37:51.983Z</time></trkpt><trkpt lat="43.9231377" lon="12.3611368"><ele>433.49999999999994</ele><time>2026-03-22T15:37:52.983Z</time></trkpt><trkpt lat="43.9232302" lon="12.3611861"><ele>431.0</ele><time>2026-03-22T15:37:53.982Z</time></trkpt><trkpt lat="43.9233277" lon="12.3612162"><ele>427.6</ele><time>2026-03-22T15:37:54.982Z</time></trkpt><trkpt lat="43.9234347" lon="12.3612494"><ele>424.20000000000005</ele><time>2026-03-22T15:37:55.982Z</time></trkpt><trkpt lat="43.9235471" lon="12.3612654"><ele>420.79999999999995</ele><time>2026-03-22T15:37:56.983Z</time></trkpt><trkpt lat="43.92366" lon="12.3612733"><ele>417.4</ele><time>2026-03-22T15:37:57.983Z</time></trkpt><trkpt lat="43.9237716" lon="12.3612743"><ele>414.0</ele><time>2026-03-22T15:37:58.983Z</time></trkpt><trkpt lat="43.9238856" lon="12.3612671"><ele>414.0</ele><time>2026-03-22T15:37:59.982Z</time></trkpt><trkpt lat="43.9240019" lon="12.3612708"><ele>414.0</ele><time>2026-03-22T15:38:00.983Z</time></trkpt><trkpt lat="43.9241098" lon="12.3612778"><ele>414.0</ele><time>2026-03-22T15:38:01.982Z</time></trkpt><trkpt lat="43.9242199" lon="12.3613068"><ele>414.0</ele><time>2026-03-22T15:38:02.983Z</time></trkpt><trkpt lat="43.9243415" lon="12.3613531"><ele>419.75</ele><time>2026-03-22T15:38:03.983Z</time></trkpt><trkpt lat="43.9244765" lon="12.3613923"><ele>425.5</ele><time>2026-03-22T15:38:04.983Z</time></trkpt><trkpt lat="43.9246322" lon="12.3614017"><ele>431.25</ele><time>2026-03-22T15:38:05.982Z</time></trkpt><trkpt lat="43.9247562" lon="12.3614178"><ele>437.0</ele><time>2026-03-22T15:38:06.982Z</time></trkpt><trkpt lat="43.9248811" lon="12.3614589"><ele>437.0</ele><time>2026-03-22T15:38:07.982Z</time></trkpt><trkpt lat="43.9250082" lon="12.3615227"><ele>437.0</ele><time>2026-03-22T15:38:08.982Z</time></trkpt><trkpt lat="43.9251309" lon="12.3615869"><ele>437.0</ele><time>2026-03-22T15:38:09.983Z</time></trkpt><trkpt lat="43.9252383" lon="12.3616346"><ele>437.0</ele><time>2026-03-22T15:38:10.983Z</time></trkpt><trkpt lat="43.9253375" lon="12.3616365"><ele>438.40000000000003</ele><time>2026-03-22T15:38:11.983Z</time></trkpt><trkpt lat="43.9254378" lon="12.3616218"><ele>439.80000000000007</ele><time>2026-03-22T15:38:12.983Z</time></trkpt><trkpt lat="43.9255197" lon="12.3615482"><ele>441.2</ele><time>2026-03-22T15:38:13.983Z</time></trkpt><trkpt lat="43.9256134" lon="12.3614692"><ele>442.6</ele><time>2026-03-22T15:38:14.983Z</time></trkpt><trkpt lat="43.9256236" lon="12.3612772"><ele>444.0</ele><time>2026-03-22T15:38:15.983Z</time></trkpt><trkpt lat="43.9256626" lon="12.3611725"><ele>439.0</ele><time>2026-03-22T15:38:16.983Z</time></trkpt><trkpt lat="43.9257098" lon="12.3610951"><ele>434.0</ele><time>2026-03-22T15:38:17.982Z</time></trkpt><trkpt lat="43.9258396" lon="12.3610756"><ele>429.0</ele><time>2026-03-22T15:38:19.982Z</time></trkpt><trkpt lat="43.9259411" lon="12.3611184"><ele>424.0</ele><time>2026-03-22T15:38:20.982Z</time></trkpt><trkpt lat="43.9260475" lon="12.3611766"><ele>419.0</ele><time>2026-03-22T15:38:21.982Z</time></trkpt><trkpt lat="43.9261532" lon="12.3612347"><ele>418.49999999999994</ele><time>2026-03-22T15:38:22.982Z</time></trkpt><trkpt lat="43.9262509" lon="12.3612887"><ele>418.0</ele><time>2026-03-22T15:38:23.983Z</time></trkpt><trkpt lat="43.9263366" lon="12.3613315"><ele>417.5</ele><time>2026-03-22T15:38:24.982Z</time></trkpt><trkpt lat="43.9264203" lon="12.3613726"><ele>417.0</ele><time>2026-03-22T15:38:25.982Z</time></trkpt><trkpt lat="43.9265023" lon="12.3614195"><ele>416.49999999999994</ele><time>2026-03-22T15:38:26.983Z</time></trkpt><trkpt lat="43.9265725" lon="12.3614531"><ele>416.0</ele><time>2026-03-22T15:38:27.983Z</time></trkpt><trkpt lat="43.926654" lon="12.3614903"><ele>418.0</ele><time>2026-03-22T15:38:28.982Z</time></trkpt><trkpt lat="43.9267442" lon="12.3615477"><ele>420.0</ele><time>2026-03-22T15:38:29.983Z</time></trkpt><trkpt lat="43.9268344" lon="12.361618"><ele>422.0</ele><time>2026-03-22T15:38:30.983Z</time></trkpt><trkpt lat="43.9269191" lon="12.361689"><ele>424.0</ele><time>2026-03-22T15:38:31.983Z</time></trkpt><trkpt lat="43.926988" lon="12.3617655"><ele>426.0</ele><time>2026-03-22T15:38:32.982Z</time></trkpt><trkpt lat="43.9270455" lon="12.3618238"><ele>426.0</ele><time>2026-03-22T15:38:33.982Z</time></trkpt><trkpt lat="43.9271009" lon="12.3618717"><ele>426.0</ele><time>2026-03-22T15:38:34.983Z</time></trkpt><trkpt lat="43.9272266" lon="12.3619486"><ele>426.0</ele><time>2026-03-22T15:38:36.983Z</time></trkpt><trkpt lat="43.9272945" lon="12.3619827"><ele>426.0</ele><time>2026-03-22T15:38:37.983Z</time></trkpt><trkpt lat="43.9273707" lon="12.3620155"><ele>426.0</ele><time>2026-03-22T15:38:38.983Z</time></trkpt><trkpt lat="43.9274466" lon="12.3620459"><ele>426.0</ele><time>2026-03-22T15:38:39.983Z</time></trkpt><trkpt lat="43.9275262" lon="12.3620638"><ele>426.8</ele><time>2026-03-22T15:38:40.983Z</time></trkpt><trkpt lat="43.9276075" lon="12.3620576"><ele>427.6</ele><time>2026-03-22T15:38:41.982Z</time></trkpt><trkpt lat="43.9277021" lon="12.3620295"><ele>428.4</ele><time>2026-03-22T15:38:42.982Z</time></trkpt><trkpt lat="43.9277919" lon="12.3619738"><ele>429.2</ele><time>2026-03-22T15:38:43.982Z</time></trkpt><trkpt lat="43.9278737" lon="12.3619064"><ele>430.0</ele><time>2026-03-22T15:38:44.982Z</time></trkpt><trkpt lat="43.9279498" lon="12.361816"><ele>430.0</ele><time>2026-03-22T15:38:45.982Z</time></trkpt><trkpt lat="43.928023" lon="12.3617255"><ele>430.0</ele><time>2026-03-22T15:38:46.982Z</time></trkpt><trkpt lat="43.9280803" lon="12.3616467"><ele>430.0</ele><time>2026-03-22T15:38:47.982Z</time></trkpt><trkpt lat="43.9281549" lon="12.3615754"><ele>430.0</ele><time>2026-03-22T15:38:48.982Z</time></trkpt><trkpt lat="43.9282413" lon="12.3615364"><ele>430.0</ele><time>2026-03-22T15:38:49.983Z</time></trkpt><trkpt lat="43.9283332" lon="12.3614993"><ele>429.8</ele><time>2026-03-22T15:38:50.983Z</time></trkpt><trkpt lat="43.9284236" lon="12.3614374"><ele>429.6</ele><time>2026-03-22T15:38:51.983Z</time></trkpt><trkpt lat="43.9285132" lon="12.3613541"><ele>429.4</ele><time>2026-03-22T15:38:52.982Z</time></trkpt><trkpt lat="43.9285906" lon="12.3612431"><ele>429.2</ele><time>2026-03-22T15:38:53.983Z</time></trkpt><trkpt lat="43.9286639" lon="12.3611235"><ele>429.0</ele><time>2026-03-22T15:38:54.982Z</time></trkpt><trkpt lat="43.928721" lon="12.360973"><ele>426.79999999999995</ele><time>2026-03-22T15:38:55.983Z</time></trkpt><trkpt lat="43.9287791" lon="12.3608576"><ele>424.59999999999997</ele><time>2026-03-22T15:38:56.983Z</time></trkpt><trkpt lat="43.9288354" lon="12.3607378"><ele>422.4</ele><time>2026-03-22T15:38:57.983Z</time></trkpt><trkpt lat="43.9288987" lon="12.3606273"><ele>420.2</ele><time>2026-03-22T15:38:58.983Z</time></trkpt><trkpt lat="43.9289728" lon="12.3605336"><ele>418.0</ele><time>2026-03-22T15:38:59.982Z</time></trkpt><trkpt lat="43.9290465" lon="12.3604511"><ele>415.83333333333337</ele><time>2026-03-22T15:39:00.982Z</time></trkpt><trkpt lat="43.9291144" lon="12.3603798"><ele>413.6666666666667</ele><time>2026-03-22T15:39:01.983Z</time></trkpt><trkpt lat="43.9291909" lon="12.3603326"><ele>411.5</ele><time>2026-03-22T15:39:02.982Z</time></trkpt><trkpt lat="43.9292744" lon="12.3603123"><ele>409.33333333333337</ele><time>2026-03-22T15:39:03.982Z</time></trkpt><trkpt lat="43.9293629" lon="12.360292"><ele>407.1666666666667</ele><time>2026-03-22T15:39:04.983Z</time></trkpt><trkpt lat="43.9294552" lon="12.3602526"><ele>405.0</ele><time>2026-03-22T15:39:05.983Z</time></trkpt><trkpt lat="43.9295316" lon="12.3601733"><ele>405.0</ele><time>2026-03-22T15:39:06.982Z</time></trkpt><trkpt lat="43.9296053" lon="12.360078"><ele>405.0</ele><time>2026-03-22T15:39:07.982Z</time></trkpt><trkpt lat="43.9296714" lon="12.3599692"><ele>405.0</ele><time>2026-03-22T15:39:08.983Z</time></trkpt><trkpt lat="43.9297295" lon="12.3598564"><ele>405.0</ele><time>2026-03-22T15:39:09.982Z</time></trkpt><trkpt lat="43.9297887" lon="12.3597404"><ele>405.0</ele><time>2026-03-22T15:39:10.983Z</time></trkpt><trkpt lat="43.9298517" lon="12.3596289"><ele>401.8</ele><time>2026-03-22T15:39:11.983Z</time></trkpt><trkpt lat="43.9299219" lon="12.3595183"><ele>398.6</ele><time>2026-03-22T15:39:12.983Z</time></trkpt><trkpt lat="43.9299942" lon="12.3594118"><ele>395.4</ele><time>2026-03-22T15:39:13.982Z</time></trkpt><trkpt lat="43.930062" lon="12.3592976"><ele>392.2</ele><time>2026-03-22T15:39:14.983Z</time></trkpt><trkpt lat="43.9301265" lon="12.3591817"><ele>389.0</ele><time>2026-03-22T15:39:15.983Z</time></trkpt><trkpt lat="43.9301864" lon="12.3590721"><ele>388.2</ele><time>2026-03-22T15:39:16.982Z</time></trkpt><trkpt lat="43.9302438" lon="12.3589706"><ele>387.4</ele><time>2026-03-22T15:39:17.982Z</time></trkpt><trkpt lat="43.9303105" lon="12.3588829"><ele>386.6</ele><time>2026-03-22T15:39:18.982Z</time></trkpt><trkpt lat="43.9303894" lon="12.3588222"><ele>385.8</ele><time>2026-03-22T15:39:19.983Z</time></trkpt><trkpt lat="43.9304804" lon="12.3587787"><ele>385.0</ele><time>2026-03-22T15:39:20.982Z</time></trkpt><trkpt lat="43.9305761" lon="12.3587115"><ele>385.0</ele><time>2026-03-22T15:39:21.983Z</time></trkpt><trkpt lat="43.9306708" lon="12.3586391"><ele>385.0</ele><time>2026-03-22T15:39:22.983Z</time></trkpt><trkpt lat="43.9307627" lon="12.3585031"><ele>385.0</ele><time>2026-03-22T15:39:23.983Z</time></trkpt><trkpt lat="43.9308459" lon="12.3583794"><ele>385.0</ele><time>2026-03-22T15:39:24.983Z</time></trkpt><trkpt lat="43.9309283" lon="12.3582659"><ele>379.00000000000006</ele><time>2026-03-22T15:39:25.983Z</time></trkpt><trkpt lat="43.9309696" lon="12.3581611"><ele>373.0</ele><time>2026-03-22T15:39:26.982Z</time></trkpt><trkpt lat="43.9310316" lon="12.3580727"><ele>367.0</ele><time>2026-03-22T15:39:27.983Z</time></trkpt><trkpt lat="43.931098" lon="12.3580436"><ele>361.0</ele><time>2026-03-22T15:39:29.982Z</time></trkpt><trkpt lat="43.9311435" lon="12.3581468"><ele>355.0</ele><time>2026-03-22T15:39:31.983Z</time></trkpt><trkpt lat="43.9311464" lon="12.3582402"><ele>349.0</ele><time>2026-03-22T15:39:32.982Z</time></trkpt><trkpt lat="43.9311124" lon="12.3583463"><ele>349.0</ele><time>2026-03-22T15:39:33.982Z</time></trkpt><trkpt lat="43.9310275" lon="12.3585233"><ele>349.0</ele><time>2026-03-22T15:39:34.982Z</time></trkpt><trkpt lat="43.931013" lon="12.3586709"><ele>349.0</ele><time>2026-03-22T15:39:35.983Z</time></trkpt><trkpt lat="43.9310153" lon="12.3588331"><ele>349.0</ele><time>2026-03-22T15:39:36.983Z</time></trkpt><trkpt lat="43.931025" lon="12.358988"><ele>346.79999999999995</ele><time>2026-03-22T15:39:37.982Z</time></trkpt><trkpt lat="43.9310359" lon="12.3591348"><ele>344.59999999999997</ele><time>2026-03-22T15:39:38.983Z</time></trkpt><trkpt lat="43.9310528" lon="12.3592728"><ele>342.4</ele><time>2026-03-22T15:39:39.982Z</time></trkpt><trkpt lat="43.9310811" lon="12.3593796"><ele>340.2</ele><time>2026-03-22T15:39:40.983Z</time></trkpt><trkpt lat="43.9311061" lon="12.3594894"><ele>338.0</ele><time>2026-03-22T15:39:41.983Z</time></trkpt><trkpt lat="43.9312031" lon="12.3595217"><ele>338.0</ele><time>2026-03-22T15:39:43.983Z</time></trkpt><trkpt lat="43.9312126" lon="12.3594003"><ele>338.0</ele><time>2026-03-22T15:39:45.982Z</time></trkpt><trkpt lat="43.9312061" lon="12.3593048"><ele>338.0</ele><time>2026-03-22T15:39:46.982Z</time></trkpt><trkpt lat="43.9311789" lon="12.3591458"><ele>338.0</ele><time>2026-03-22T15:39:47.982Z</time></trkpt><trkpt lat="43.9311779" lon="12.3589802"><ele>338.0</ele><time>2026-03-22T15:39:48.983Z</time></trkpt><trkpt lat="43.9311952" lon="12.3588011"><ele>340.75</ele><time>2026-03-22T15:39:49.982Z</time></trkpt><trkpt lat="43.9312291" lon="12.3586329"><ele>343.5</ele><time>2026-03-22T15:39:50.983Z</time></trkpt><trkpt lat="43.93128" lon="12.3584866"><ele>346.25</ele><time>2026-03-22T15:39:51.983Z</time></trkpt><trkpt lat="43.9313458" lon="12.3583552"><ele>349.0</ele><time>2026-03-22T15:39:52.982Z</time></trkpt><trkpt lat="43.9314172" lon="12.3582314"><ele>349.0</ele><time>2026-03-22T15:39:53.983Z</time></trkpt><trkpt lat="43.931498" lon="12.3581447"><ele>349.0</ele><time>2026-03-22T15:39:54.982Z</time></trkpt><trkpt lat="43.9315831" lon="12.358078"><ele>349.0</ele><time>2026-03-22T15:39:55.983Z</time></trkpt><trkpt lat="43.9316572" lon="12.358031"><ele>349.0</ele><time>2026-03-22T15:39:56.982Z</time></trkpt><trkpt lat="43.9317575" lon="12.3580087"><ele>349.0</ele><time>2026-03-22T15:39:58.983Z</time></trkpt><trkpt lat="43.9317718" lon="12.3581118"><ele>349.0</ele><time>2026-03-22T15:40:00.983Z</time></trkpt><trkpt lat="43.9316532" lon="12.3582242"><ele>349.0</ele><time>2026-03-22T15:40:02.982Z</time></trkpt><trkpt lat="43.9315905" lon="12.3582946"><ele>349.0</ele><time>2026-03-22T15:40:03.982Z</time></trkpt><trkpt lat="43.9315411" lon="12.3583969"><ele>349.0</ele><time>2026-03-22T15:40:04.983Z</time></trkpt><trkpt lat="43.9315155" lon="12.3585516"><ele>349.0</ele><time>2026-03-22T15:40:05.983Z</time></trkpt><trkpt lat="43.9314983" lon="12.3587268"><ele>346.25</ele><time>2026-03-22T15:40:06.983Z</time></trkpt><trkpt lat="43.93149" lon="12.3589016"><ele>343.5</ele><time>2026-03-22T15:40:07.983Z</time></trkpt><trkpt lat="43.9314762" lon="12.3590655"><ele>340.75</ele><time>2026-03-22T15:40:08.982Z</time></trkpt><trkpt lat="43.9314634" lon="12.3592147"><ele>338.0</ele><time>2026-03-22T15:40:09.983Z</time></trkpt><trkpt lat="43.9314495" lon="12.3593503"><ele>338.0</ele><time>2026-03-22T15:40:10.983Z</time></trkpt><trkpt lat="43.9314334" lon="12.3594636"><ele>338.0</ele><time>2026-03-22T15:40:11.983Z</time></trkpt><trkpt lat="43.9314261" lon="12.3595586"><ele>338.0</ele><time>2026-03-22T15:40:12.983Z</time></trkpt><trkpt lat="43.9314685" lon="12.3597065"><ele>338.0</ele><time>2026-03-22T15:40:14.982Z</time></trkpt><trkpt lat="43.931574" lon="12.3598069"><ele>338.0</ele><time>2026-03-22T15:40:16.983Z</time></trkpt><trkpt lat="43.9316524" lon="12.359848"><ele>334.59999999999997</ele><time>2026-03-22T15:40:17.983Z</time></trkpt><trkpt lat="43.9317418" lon="12.3598821"><ele>331.2</ele><time>2026-03-22T15:40:18.982Z</time></trkpt><trkpt lat="43.9318464" lon="12.3599065"><ele>327.8</ele><time>2026-03-22T15:40:19.982Z</time></trkpt><trkpt lat="43.9319604" lon="12.3599234"><ele>324.4</ele><time>2026-03-22T15:40:20.983Z</time></trkpt><trkpt lat="43.9320742" lon="12.3599518"><ele>321.0</ele><time>2026-03-22T15:40:21.983Z</time></trkpt><trkpt lat="43.9321926" lon="12.3599838"><ele>321.0</ele><time>2026-03-22T15:40:22.983Z</time></trkpt><trkpt lat="43.9323191" lon="12.3600301"><ele>321.0</ele><time>2026-03-22T15:40:23.983Z</time></trkpt><trkpt lat="43.9324616" lon="12.3600975"><ele>321.0</ele><time>2026-03-22T15:40:24.983Z</time></trkpt><trkpt lat="43.9326099" lon="12.3601783"><ele>321.0</ele><time>2026-03-22T15:40:25.982Z</time></trkpt><trkpt lat="43.9327614" lon="12.360272"><ele>318.0</ele><time>2026-03-22T15:40:26.982Z</time></trkpt><trkpt lat="43.9329231" lon="12.360371"><ele>315.0</ele><time>2026-03-22T15:40:27.982Z</time></trkpt><trkpt lat="43.933094" lon="12.360474"><ele>312.0</ele><time>2026-03-22T15:40:28.982Z</time></trkpt><trkpt lat="43.9332596" lon="12.3605745"><ele>309.0</ele><time>2026-03-22T15:40:29.983Z</time></trkpt><trkpt lat="43.9334169" lon="12.3606748"><ele>306.0</ele><time>2026-03-22T15:40:30.982Z</time></trkpt><trkpt lat="43.9335714" lon="12.3607654"><ele>303.0</ele><time>2026-03-22T15:40:31.983Z</time></trkpt><trkpt lat="43.9337219" lon="12.3608547"><ele>303.0</ele><time>2026-03-22T15:40:32.983Z</time></trkpt><trkpt lat="43.9338714" lon="12.3609386"><ele>303.0</ele><time>2026-03-22T15:40:33.983Z</time></trkpt><trkpt lat="43.9340213" lon="12.3610055"><ele>303.0</ele><time>2026-03-22T15:40:34.982Z</time></trkpt><trkpt lat="43.9341762" lon="12.3610389"><ele>301.75</ele><time>2026-03-22T15:40:35.982Z</time></trkpt><trkpt lat="43.934324" lon="12.3610562"><ele>300.5</ele><time>2026-03-22T15:40:36.983Z</time></trkpt><trkpt lat="43.9344673" lon="12.3610773"><ele>299.25</ele><time>2026-03-22T15:40:37.982Z</time></trkpt><trkpt lat="43.9345922" lon="12.3610962"><ele>298.0</ele><time>2026-03-22T15:40:38.982Z</time></trkpt><trkpt lat="43.9347095" lon="12.3611203"><ele>298.0</ele><time>2026-03-22T15:40:39.983Z</time></trkpt><trkpt lat="43.9347976" lon="12.3611669"><ele>298.0</ele><time>2026-03-22T15:40:40.982Z</time></trkpt><trkpt lat="43.9348823" lon="12.3612288"><ele>298.0</ele><time>2026-03-22T15:40:41.983Z</time></trkpt><trkpt lat="43.934928" lon="12.3612997"><ele>298.0</ele><time>2026-03-22T15:40:42.983Z</time></trkpt><trkpt lat="43.9350164" lon="12.3614185"><ele>298.0</ele><time>2026-03-22T15:40:44.983Z</time></trkpt><trkpt lat="43.9351088" lon="12.3614481"><ele>297.6</ele><time>2026-03-22T15:40:45.983Z</time></trkpt><trkpt lat="43.9352025" lon="12.3614472"><ele>297.20000000000005</ele><time>2026-03-22T15:40:46.982Z</time></trkpt><trkpt lat="43.9352803" lon="12.3614059"><ele>296.8</ele><time>2026-03-22T15:40:47.983Z</time></trkpt><trkpt lat="43.9353317" lon="12.361353"><ele>296.40000000000003</ele><time>2026-03-22T15:40:48.982Z</time></trkpt><trkpt lat="43.9354251" lon="12.3612231"><ele>296.0</ele><time>2026-03-22T15:40:50.983Z</time></trkpt><trkpt lat="43.9355033" lon="12.3611454"><ele>294.75</ele><time>2026-03-22T15:40:51.983Z</time></trkpt><trkpt lat="43.9355875" lon="12.3610623"><ele>293.5</ele><time>2026-03-22T15:40:52.982Z</time></trkpt><trkpt lat="43.9356831" lon="12.3609623"><ele>292.25</ele><time>2026-03-22T15:40:53.983Z</time></trkpt><trkpt lat="43.9357921" lon="12.3608471"><ele>291.0</ele><time>2026-03-22T15:40:54.982Z</time></trkpt><trkpt lat="43.9359103" lon="12.3607161"><ele>288.0</ele><time>2026-03-22T15:40:55.983Z</time></trkpt><trkpt lat="43.9360263" lon="12.3605725"><ele>285.0</ele><time>2026-03-22T15:40:56.983Z</time></trkpt><trkpt lat="43.9361406" lon="12.3604088"><ele>282.0</ele><time>2026-03-22T15:40:57.982Z</time></trkpt><trkpt lat="43.9362546" lon="12.360235"><ele>280.3333333333333</ele><time>2026-03-22T15:40:58.982Z</time></trkpt><trkpt lat="43.9363588" lon="12.3600556"><ele>278.66666666666663</ele><time>2026-03-22T15:40:59.983Z</time></trkpt><trkpt lat="43.936455" lon="12.3598761"><ele>277.0</ele><time>2026-03-22T15:41:00.983Z</time></trkpt><trkpt lat="43.9365482" lon="12.359696"><ele>274.66666666666663</ele><time>2026-03-22T15:41:01.983Z</time></trkpt><trkpt lat="43.9366441" lon="12.3595279"><ele>272.3333333333333</ele><time>2026-03-22T15:41:02.983Z</time></trkpt><trkpt lat="43.9367423" lon="12.3593608"><ele>270.0</ele><time>2026-03-22T15:41:03.983Z</time></trkpt><trkpt lat="43.9368391" lon="12.3591979"><ele>268.0</ele><time>2026-03-22T15:41:04.983Z</time></trkpt><trkpt lat="43.9369309" lon="12.3590368"><ele>266.0</ele><time>2026-03-22T15:41:05.982Z</time></trkpt><trkpt lat="43.9370208" lon="12.3588804"><ele>264.0</ele><time>2026-03-22T15:41:06.982Z</time></trkpt><trkpt lat="43.9371043" lon="12.3587308"><ele>262.0</ele><time>2026-03-22T15:41:07.983Z</time></trkpt><trkpt lat="43.9371701" lon="12.3586061"><ele>261.3333333333333</ele><time>2026-03-22T15:41:08.983Z</time></trkpt><trkpt lat="43.9372177" lon="12.3585205"><ele>260.66666666666663</ele><time>2026-03-22T15:41:09.983Z</time></trkpt><trkpt lat="43.9372553" lon="12.3584456"><ele>260.0</ele><time>2026-03-22T15:41:10.983Z</time></trkpt><trkpt lat="43.9373548" lon="12.3583814"><ele>259.3333333333333</ele><time>2026-03-22T15:41:12.983Z</time></trkpt><trkpt lat="43.9374175" lon="12.3584215"><ele>258.6666666666667</ele><time>2026-03-22T15:41:13.983Z</time></trkpt><trkpt lat="43.9374811" lon="12.3585089"><ele>258.0</ele><time>2026-03-22T15:41:14.983Z</time></trkpt><trkpt lat="43.9375479" lon="12.3586297"><ele>256.4</ele><time>2026-03-22T15:41:15.982Z</time></trkpt><trkpt lat="43.9376167" lon="12.358773"><ele>254.8</ele><time>2026-03-22T15:41:16.983Z</time></trkpt><trkpt lat="43.9376679" lon="12.3589175"><ele>253.2</ele><time>2026-03-22T15:41:17.982Z</time></trkpt><trkpt lat="43.9377065" lon="12.3590546"><ele>251.6</ele><time>2026-03-22T15:41:18.982Z</time></trkpt><trkpt lat="43.9377293" lon="12.3591877"><ele>250.0</ele><time>2026-03-22T15:41:19.983Z</time></trkpt><trkpt lat="43.937748" lon="12.3593137"><ele>250.0</ele><time>2026-03-22T15:41:20.983Z</time></trkpt><trkpt lat="43.9377832" lon="12.3594181"><ele>250.0</ele><time>2026-03-22T15:41:21.983Z</time></trkpt><trkpt lat="43.9378501" lon="12.35951"><ele>250.0</ele><time>2026-03-22T15:41:22.983Z</time></trkpt><trkpt lat="43.9379447" lon="12.3595728"><ele>250.0</ele><time>2026-03-22T15:41:23.982Z</time></trkpt><trkpt lat="43.9380567" lon="12.3596301"><ele>250.0</ele><time>2026-03-22T15:41:24.983Z</time></trkpt><trkpt lat="43.9381803" lon="12.3596932"><ele>250.75</ele><time>2026-03-22T15:41:25.982Z</time></trkpt><trkpt lat="43.9383117" lon="12.3597619"><ele>251.5</ele><time>2026-03-22T15:41:26.983Z</time></trkpt><trkpt lat="43.93844" lon="12.3598317"><ele>252.25</ele><time>2026-03-22T15:41:27.983Z</time></trkpt><trkpt lat="43.9385615" lon="12.3599159"><ele>253.0</ele><time>2026-03-22T15:41:28.982Z</time></trkpt><trkpt lat="43.9386669" lon="12.3600035"><ele>253.0</ele><time>2026-03-22T15:41:29.982Z</time></trkpt><trkpt lat="43.9387662" lon="12.3600845"><ele>253.0</ele><time>2026-03-22T15:41:30.982Z</time></trkpt><trkpt lat="43.9388599" lon="12.3601617"><ele>253.0</ele><time>2026-03-22T15:41:31.982Z</time></trkpt><trkpt lat="43.9389547" lon="12.3602501"><ele>253.0</ele><time>2026-03-22T15:41:32.983Z</time></trkpt><trkpt lat="43.9390513" lon="12.3603399"><ele>253.0</ele><time>2026-03-22T15:41:33.983Z</time></trkpt><trkpt lat="43.9391474" lon="12.3604266"><ele>253.0</ele><time>2026-03-22T15:41:34.983Z</time></trkpt><trkpt lat="43.9392317" lon="12.3604813"><ele>253.0</ele><time>2026-03-22T15:41:35.982Z</time></trkpt><trkpt lat="43.9393237" lon="12.3604945"><ele>253.0</ele><time>2026-03-22T15:41:36.982Z</time></trkpt><trkpt lat="43.9394196" lon="12.3604804"><ele>253.0</ele><time>2026-03-22T15:41:37.982Z</time></trkpt><trkpt lat="43.9395245" lon="12.3604422"><ele>249.25</ele><time>2026-03-22T15:41:38.982Z</time></trkpt><trkpt lat="43.9396432" lon="12.3604103"><ele>245.5</ele><time>2026-03-22T15:41:39.982Z</time></trkpt><trkpt lat="43.9397686" lon="12.3603812"><ele>241.75</ele><time>2026-03-22T15:41:40.983Z</time></trkpt><trkpt lat="43.9398942" lon="12.3603511"><ele>238.0</ele><time>2026-03-22T15:41:41.983Z</time></trkpt><trkpt lat="43.9400096" lon="12.3603206"><ele>233.75</ele><time>2026-03-22T15:41:42.982Z</time></trkpt><trkpt lat="43.940133" lon="12.3603065"><ele>229.5</ele><time>2026-03-22T15:41:43.982Z</time></trkpt><trkpt lat="43.9402591" lon="12.3603191"><ele>225.25</ele><time>2026-03-22T15:41:44.982Z</time></trkpt><trkpt lat="43.9403961" lon="12.3603541"><ele>221.0</ele><time>2026-03-22T15:41:45.983Z</time></trkpt><trkpt lat="43.9405335" lon="12.3604039"><ele>221.0</ele><time>2026-03-22T15:41:46.983Z</time></trkpt><trkpt lat="43.9406522" lon="12.3604544"><ele>221.0</ele><time>2026-03-22T15:41:47.983Z</time></trkpt><trkpt lat="43.9407595" lon="12.360525"><ele>221.0</ele><time>2026-03-22T15:41:48.983Z</time></trkpt><trkpt lat="43.940865" lon="12.3606148"><ele>221.0</ele><time>2026-03-22T15:41:49.982Z</time></trkpt><trkpt lat="43.9409791" lon="12.3607233"><ele>219.5</ele><time>2026-03-22T15:41:50.982Z</time></trkpt><trkpt lat="43.9411022" lon="12.3608355"><ele>218.0</ele><time>2026-03-22T15:41:51.982Z</time></trkpt><trkpt lat="43.9412295" lon="12.3609388"><ele>216.5</ele><time>2026-03-22T15:41:52.982Z</time></trkpt><trkpt lat="43.9413545" lon="12.3610327"><ele>215.0</ele><time>2026-03-22T15:41:53.983Z</time></trkpt><trkpt lat="43.9414795" lon="12.3611202"><ele>215.0</ele><time>2026-03-22T15:41:54.982Z</time></trkpt><trkpt lat="43.9416079" lon="12.3611897"><ele>215.0</ele><time>2026-03-22T15:41:55.983Z</time></trkpt><trkpt lat="43.9417337" lon="12.3612473"><ele>215.0</ele><time>2026-03-22T15:41:56.982Z</time></trkpt><trkpt lat="43.9418583" lon="12.361316"><ele>215.0</ele><time>2026-03-22T15:41:57.982Z</time></trkpt><trkpt lat="43.9419823" lon="12.361397"><ele>213.75</ele><time>2026-03-22T15:41:58.982Z</time></trkpt><trkpt lat="43.9421026" lon="12.3614759"><ele>212.5</ele><time>2026-03-22T15:41:59.983Z</time></trkpt><trkpt lat="43.942228" lon="12.3615342"><ele>211.25</ele><time>2026-03-22T15:42:00.983Z</time></trkpt><trkpt lat="43.9423696" lon="12.3615774"><ele>210.0</ele><time>2026-03-22T15:42:01.983Z</time></trkpt><trkpt lat="43.9425234" lon="12.3616088"><ele>207.75</ele><time>2026-03-22T15:42:02.983Z</time></trkpt><trkpt lat="43.9426745" lon="12.3616322"><ele>205.5</ele><time>2026-03-22T15:42:03.982Z</time></trkpt><trkpt lat="43.9428212" lon="12.3616563"><ele>203.25</ele><time>2026-03-22T15:42:04.982Z</time></trkpt><trkpt lat="43.9429555" lon="12.3616873"><ele>201.0</ele><time>2026-03-22T15:42:05.982Z</time></trkpt><trkpt lat="43.9430711" lon="12.3617311"><ele>201.0</ele><time>2026-03-22T15:42:06.983Z</time></trkpt><trkpt lat="43.9431746" lon="12.3618005"><ele>201.0</ele><time>2026-03-22T15:42:07.982Z</time></trkpt><trkpt lat="43.9432901" lon="12.3618684"><ele>201.0</ele><time>2026-03-22T15:42:08.982Z</time></trkpt><trkpt lat="43.9434288" lon="12.3619082"><ele>201.0</ele><time>2026-03-22T15:42:09.983Z</time></trkpt><trkpt lat="43.9435832" lon="12.3619365"><ele>198.5</ele><time>2026-03-22T15:42:10.982Z</time></trkpt><trkpt lat="43.9437373" lon="12.361962"><ele>196.0</ele><time>2026-03-22T15:42:11.983Z</time></trkpt><trkpt lat="43.9438771" lon="12.3619673"><ele>193.5</ele><time>2026-03-22T15:42:12.982Z</time></trkpt><trkpt lat="43.944011" lon="12.361948"><ele>191.0</ele><time>2026-03-22T15:42:13.983Z</time></trkpt><trkpt lat="43.944133" lon="12.3619135"><ele>189.4</ele><time>2026-03-22T15:42:14.983Z</time></trkpt><trkpt lat="43.9442331" lon="12.3618762"><ele>187.8</ele><time>2026-03-22T15:42:15.983Z</time></trkpt><trkpt lat="43.9443247" lon="12.3618463"><ele>186.20000000000002</ele><time>2026-03-22T15:42:16.983Z</time></trkpt><trkpt lat="43.9444051" lon="12.3618455"><ele>184.60000000000002</ele><time>2026-03-22T15:42:17.983Z</time></trkpt><trkpt lat="43.9444826" lon="12.361859"><ele>183.0</ele><time>2026-03-22T15:42:18.983Z</time></trkpt><trkpt lat="43.9445837" lon="12.3618876"><ele>183.0</ele><time>2026-03-22T15:42:19.982Z</time></trkpt><trkpt lat="43.9446984" lon="12.3619268"><ele>183.0</ele><time>2026-03-22T15:42:20.983Z</time></trkpt><trkpt lat="43.9448206" lon="12.3619653"><ele>183.0</ele><time>2026-03-22T15:42:21.983Z</time></trkpt><trkpt lat="43.9449371" lon="12.3620054"><ele>183.0</ele><time>2026-03-22T15:42:22.983Z</time></trkpt><trkpt lat="43.9450464" lon="12.3620516"><ele>182.4</ele><time>2026-03-22T15:42:23.983Z</time></trkpt><trkpt lat="43.9451477" lon="12.3621084"><ele>181.8</ele><time>2026-03-22T15:42:24.983Z</time></trkpt><trkpt lat="43.9452321" lon="12.362182"><ele>181.2</ele><time>2026-03-22T15:42:25.982Z</time></trkpt><trkpt lat="43.9453043" lon="12.3622804"><ele>180.6</ele><time>2026-03-22T15:42:26.983Z</time></trkpt><trkpt lat="43.9453731" lon="12.3623923"><ele>180.0</ele><time>2026-03-22T15:42:27.983Z</time></trkpt><trkpt lat="43.9454433" lon="12.3625257"><ele>180.0</ele><time>2026-03-22T15:42:28.982Z</time></trkpt><trkpt lat="43.945515" lon="12.3626798"><ele>180.0</ele><time>2026-03-22T15:42:29.982Z</time></trkpt><trkpt lat="43.945587" lon="12.3628467"><ele>180.0</ele><time>2026-03-22T15:42:30.983Z</time></trkpt><trkpt lat="43.9456658" lon="12.3630196"><ele>180.0</ele><time>2026-03-22T15:42:31.982Z</time></trkpt><trkpt lat="43.9457594" lon="12.363179"><ele>180.33333333333334</ele><time>2026-03-22T15:42:32.983Z</time></trkpt><trkpt lat="43.9458587" lon="12.3633296"><ele>180.66666666666669</ele><time>2026-03-22T15:42:33.983Z</time></trkpt><trkpt lat="43.9459718" lon="12.3634717"><ele>181.0</ele><time>2026-03-22T15:42:34.983Z</time></trkpt><trkpt lat="43.9460945" lon="12.36361"><ele>180.0</ele><time>2026-03-22T15:42:35.983Z</time></trkpt><trkpt lat="43.9462239" lon="12.3637456"><ele>179.0</ele><time>2026-03-22T15:42:36.983Z</time></trkpt><trkpt lat="43.9463498" lon="12.3638802"><ele>178.0</ele><time>2026-03-22T15:42:37.983Z</time></trkpt><trkpt lat="43.9464799" lon="12.3640196"><ele>178.0</ele><time>2026-03-22T15:42:38.982Z</time></trkpt><trkpt lat="43.9466098" lon="12.3641601"><ele>178.0</ele><time>2026-03-22T15:42:39.983Z</time></trkpt><trkpt lat="43.946743" lon="12.3643033"><ele>178.0</ele><time>2026-03-22T15:42:40.983Z</time></trkpt><trkpt lat="43.9468801" lon="12.3644442"><ele>177.33333333333334</ele><time>2026-03-22T15:42:41.982Z</time></trkpt><trkpt lat="43.9470214" lon="12.3645743"><ele>176.66666666666666</ele><time>2026-03-22T15:42:42.982Z</time></trkpt><trkpt lat="43.9471697" lon="12.3646948"><ele>176.0</ele><time>2026-03-22T15:42:43.983Z</time></trkpt><trkpt lat="43.9473062" lon="12.3647974"><ele>176.0</ele><time>2026-03-22T15:42:44.982Z</time></trkpt><trkpt lat="43.9474317" lon="12.3648844"><ele>176.0</ele><time>2026-03-22T15:42:45.983Z</time></trkpt><trkpt lat="43.9475443" lon="12.3649599"><ele>176.0</ele><time>2026-03-22T15:42:46.983Z</time></trkpt><trkpt lat="43.9476437" lon="12.3650319"><ele>176.0</ele><time>2026-03-22T15:42:47.982Z</time></trkpt><trkpt lat="43.9477299" lon="12.3650944"><ele>175.0</ele><time>2026-03-22T15:42:48.982Z</time></trkpt><trkpt lat="43.9477936" lon="12.3651376"><ele>174.0</ele><time>2026-03-22T15:42:49.982Z</time></trkpt><trkpt lat="43.9478783" lon="12.3651958"><ele>173.0</ele><time>2026-03-22T15:42:51.982Z</time></trkpt><trkpt lat="43.9479283" lon="12.3652999"><ele>172.0</ele><time>2026-03-22T15:42:54.983Z</time></trkpt><trkpt lat="43.9479601" lon="12.3654008"><ele>171.0</ele><time>2026-03-22T15:42:56.982Z</time></trkpt><trkpt lat="43.9480007" lon="12.3654765"><ele>170.0</ele><time>2026-03-22T15:42:57.982Z</time></trkpt><trkpt lat="43.9480624" lon="12.3655619"><ele>170.0</ele><time>2026-03-22T15:42:58.983Z</time></trkpt><trkpt lat="43.9481339" lon="12.365664"><ele>170.0</ele><time>2026-03-22T15:42:59.982Z</time></trkpt><trkpt lat="43.9482064" lon="12.3658017"><ele>170.0</ele><time>2026-03-22T15:43:00.983Z</time></trkpt><trkpt lat="43.9482786" lon="12.3659561"><ele>170.0</ele><time>2026-03-22T15:43:01.983Z</time></trkpt><trkpt lat="43.9483568" lon="12.3661273"><ele>170.0</ele><time>2026-03-22T15:43:02.982Z</time></trkpt><trkpt lat="43.9484379" lon="12.3662989"><ele>170.0</ele><time>2026-03-22T15:43:03.983Z</time></trkpt><trkpt lat="43.9485241" lon="12.3664783"><ele>170.0</ele><time>2026-03-22T15:43:04.982Z</time></trkpt><trkpt lat="43.9486095" lon="12.3666707"><ele>168.66666666666666</ele><time>2026-03-22T15:43:05.982Z</time></trkpt><trkpt lat="43.9487015" lon="12.3668701"><ele>167.33333333333334</ele><time>2026-03-22T15:43:06.982Z</time></trkpt><trkpt lat="43.9487934" lon="12.3670769"><ele>166.0</ele><time>2026-03-22T15:43:07.982Z</time></trkpt><trkpt lat="43.9488855" lon="12.3672892"><ele>164.66666666666669</ele><time>2026-03-22T15:43:08.982Z</time></trkpt><trkpt lat="43.9489811" lon="12.3675055"><ele>163.33333333333334</ele><time>2026-03-22T15:43:09.983Z</time></trkpt><trkpt lat="43.9490788" lon="12.3677201"><ele>162.0</ele><time>2026-03-22T15:43:10.983Z</time></trkpt><trkpt lat="43.9491766" lon="12.367932"><ele>165.33333333333334</ele><time>2026-03-22T15:43:11.983Z</time></trkpt><trkpt lat="43.9492688" lon="12.3681345"><ele>168.66666666666669</ele><time>2026-03-22T15:43:12.982Z</time></trkpt><trkpt lat="43.9493538" lon="12.3683158"><ele>172.0</ele><time>2026-03-22T15:43:13.983Z</time></trkpt><trkpt lat="43.9494424" lon="12.3684731"><ele>172.0</ele><time>2026-03-22T15:43:14.983Z</time></trkpt><trkpt lat="43.9495435" lon="12.3685902"><ele>172.0</ele><time>2026-03-22T15:43:15.983Z</time></trkpt><trkpt lat="43.9496569" lon="12.3686757"><ele>172.0</ele><time>2026-03-22T15:43:16.983Z</time></trkpt><trkpt lat="43.9498086" lon="12.3686992"><ele>172.0</ele><time>2026-03-22T15:43:17.982Z</time></trkpt><trkpt lat="43.94995" lon="12.3686727"><ele>172.33333333333334</ele><time>2026-03-22T15:43:18.983Z</time></trkpt><trkpt lat="43.950108" lon="12.3686287"><ele>172.66666666666666</ele><time>2026-03-22T15:43:19.983Z</time></trkpt><trkpt lat="43.9502683" lon="12.3685819"><ele>173.0</ele><time>2026-03-22T15:43:20.982Z</time></trkpt><trkpt lat="43.9504415" lon="12.368535"><ele>173.0</ele><time>2026-03-22T15:43:21.982Z</time></trkpt><trkpt lat="43.950612" lon="12.368494"><ele>173.0</ele><time>2026-03-22T15:43:22.983Z</time></trkpt><trkpt lat="43.9507728" lon="12.3684546"><ele>173.0</ele><time>2026-03-22T15:43:23.983Z</time></trkpt><trkpt lat="43.9509307" lon="12.368427"><ele>171.75</ele><time>2026-03-22T15:43:24.982Z</time></trkpt><trkpt lat="43.9510758" lon="12.3684176"><ele>170.5</ele><time>2026-03-22T15:43:25.983Z</time></trkpt><trkpt lat="43.9512013" lon="12.3684296"><ele>169.25</ele><time>2026-03-22T15:43:26.982Z</time></trkpt><trkpt lat="43.9513159" lon="12.3684419"><ele>168.0</ele><time>2026-03-22T15:43:27.983Z</time></trkpt><trkpt lat="43.9514247" lon="12.3684626"><ele>168.0</ele><time>2026-03-22T15:43:28.982Z</time></trkpt><trkpt lat="43.9515245" lon="12.3684936"><ele>168.0</ele><time>2026-03-22T15:43:29.983Z</time></trkpt><trkpt lat="43.9516166" lon="12.3685299"><ele>168.0</ele><time>2026-03-22T15:43:30.983Z</time></trkpt><trkpt lat="43.9516928" lon="12.3685611"><ele>168.0</ele><time>2026-03-22T15:43:31.982Z</time></trkpt><trkpt lat="43.9517566" lon="12.3685914"><ele>168.0</ele><time>2026-03-22T15:43:32.982Z</time></trkpt><trkpt lat="43.9518677" lon="12.3686413"><ele>167.8</ele><time>2026-03-22T15:43:34.983Z</time></trkpt><trkpt lat="43.9519833" lon="12.3687291"><ele>167.60000000000002</ele><time>2026-03-22T15:43:36.983Z</time></trkpt><trkpt lat="43.952041" lon="12.3688154"><ele>167.39999999999998</ele><time>2026-03-22T15:43:37.982Z</time></trkpt><trkpt lat="43.9521061" lon="12.3689293"><ele>167.2</ele><time>2026-03-22T15:43:38.982Z</time></trkpt><trkpt lat="43.9521818" lon="12.3690645"><ele>167.0</ele><time>2026-03-22T15:43:39.982Z</time></trkpt><trkpt lat="43.9522566" lon="12.369222"><ele>167.0</ele><time>2026-03-22T15:43:40.983Z</time></trkpt><trkpt lat="43.9523307" lon="12.369386"><ele>167.0</ele><time>2026-03-22T15:43:41.983Z</time></trkpt><trkpt lat="43.9523954" lon="12.3695441"><ele>167.0</ele><time>2026-03-22T15:43:42.983Z</time></trkpt><trkpt lat="43.9524517" lon="12.3697026"><ele>167.0</ele><time>2026-03-22T15:43:43.983Z</time></trkpt><trkpt lat="43.9525088" lon="12.3698628"><ele>166.25</ele><time>2026-03-22T15:43:44.982Z</time></trkpt><trkpt lat="43.9525646" lon="12.3700278"><ele>165.5</ele><time>2026-03-22T15:43:45.983Z</time></trkpt><trkpt lat="43.9526196" lon="12.3702054"><ele>164.75</ele><time>2026-03-22T15:43:46.983Z</time></trkpt><trkpt lat="43.9526747" lon="12.3703885"><ele>164.0</ele><time>2026-03-22T15:43:47.983Z</time></trkpt><trkpt lat="43.9527293" lon="12.3705768"><ele>164.0</ele><time>2026-03-22T15:43:48.982Z</time></trkpt><trkpt lat="43.9527868" lon="12.3707684"><ele>164.0</ele><time>2026-03-22T15:43:49.983Z</time></trkpt><trkpt lat="43.9528422" lon="12.3709583"><ele>164.0</ele><time>2026-03-22T15:43:50.983Z</time></trkpt><trkpt lat="43.9528984" lon="12.3711406"><ele>164.0</ele><time>2026-03-22T15:43:51.983Z</time></trkpt><trkpt lat="43.9529484" lon="12.3713273"><ele>164.0</ele><time>2026-03-22T15:43:52.983Z</time></trkpt><trkpt lat="43.9529991" lon="12.3715148"><ele>164.0</ele><time>2026-03-22T15:43:53.983Z</time></trkpt><trkpt lat="43.9530512" lon="12.3716989"><ele>164.0</ele><time>2026-03-22T15:43:54.983Z</time></trkpt><trkpt lat="43.9531066" lon="12.3718756"><ele>164.0</ele><time>2026-03-22T15:43:55.982Z</time></trkpt><trkpt lat="43.9531598" lon="12.3720538"><ele>164.25</ele><time>2026-03-22T15:43:56.982Z</time></trkpt><trkpt lat="43.9532091" lon="12.3722265"><ele>164.5</ele><time>2026-03-22T15:43:57.982Z</time></trkpt><trkpt lat="43.9532503" lon="12.3723797"><ele>164.75</ele><time>2026-03-22T15:43:58.983Z</time></trkpt><trkpt lat="43.9532889" lon="12.3725131"><ele>165.0</ele><time>2026-03-22T15:43:59.982Z</time></trkpt><trkpt lat="43.9533165" lon="12.3726432"><ele>165.0</ele><time>2026-03-22T15:44:00.982Z</time></trkpt><trkpt lat="43.953326" lon="12.3727702"><ele>165.0</ele><time>2026-03-22T15:44:01.983Z</time></trkpt><trkpt lat="43.9533373" lon="12.3728976"><ele>165.0</ele><time>2026-03-22T15:44:02.982Z</time></trkpt><trkpt lat="43.9533677" lon="12.3730224"><ele>165.0</ele><time>2026-03-22T15:44:03.982Z</time></trkpt><trkpt lat="43.9534179" lon="12.37315"><ele>165.0</ele><time>2026-03-22T15:44:04.983Z</time></trkpt><trkpt lat="43.9534868" lon="12.373286"><ele>164.25</ele><time>2026-03-22T15:44:05.983Z</time></trkpt><trkpt lat="43.9535536" lon="12.3734292"><ele>163.5</ele><time>2026-03-22T15:44:06.983Z</time></trkpt><trkpt lat="43.9536121" lon="12.373591"><ele>162.75</ele><time>2026-03-22T15:44:07.983Z</time></trkpt><trkpt lat="43.9536617" lon="12.3737567"><ele>162.0</ele><time>2026-03-22T15:44:08.983Z</time></trkpt><trkpt lat="43.9537051" lon="12.3739118"><ele>162.0</ele><time>2026-03-22T15:44:09.982Z</time></trkpt><trkpt lat="43.9537456" lon="12.3740574"><ele>162.0</ele><time>2026-03-22T15:44:10.983Z</time></trkpt><trkpt lat="43.9537816" lon="12.3741906"><ele>162.0</ele><time>2026-03-22T15:44:11.982Z</time></trkpt><trkpt lat="43.9538207" lon="12.3743287"><ele>162.0</ele><time>2026-03-22T15:44:12.983Z</time></trkpt><trkpt lat="43.953861" lon="12.3744691"><ele>162.0</ele><time>2026-03-22T15:44:13.983Z</time></trkpt><trkpt lat="43.9539052" lon="12.374617"><ele>162.25</ele><time>2026-03-22T15:44:14.982Z</time></trkpt><trkpt lat="43.9539502" lon="12.374771"><ele>162.5</ele><time>2026-03-22T15:44:15.983Z</time></trkpt><trkpt lat="43.954" lon="12.3749277"><ele>162.75</ele><time>2026-03-22T15:44:16.983Z</time></trkpt><trkpt lat="43.9540463" lon="12.375095"><ele>163.0</ele><time>2026-03-22T15:44:17.983Z</time></trkpt><trkpt lat="43.954095" lon="12.3752687"><ele>163.0</ele><time>2026-03-22T15:44:18.983Z</time></trkpt><trkpt lat="43.9541504" lon="12.3754551"><ele>163.0</ele><time>2026-03-22T15:44:19.982Z</time></trkpt><trkpt lat="43.9542052" lon="12.3756478"><ele>163.0</ele><time>2026-03-22T15:44:20.982Z</time></trkpt><trkpt lat="43.9542679" lon="12.3758466"><ele>161.0</ele><time>2026-03-22T15:44:21.983Z</time></trkpt><trkpt lat="43.954333" lon="12.3760474"><ele>159.0</ele><time>2026-03-22T15:44:22.983Z</time></trkpt><trkpt lat="43.9544007" lon="12.3762533"><ele>157.0</ele><time>2026-03-22T15:44:23.983Z</time></trkpt><trkpt lat="43.9544703" lon="12.3764638"><ele>157.0</ele><time>2026-03-22T15:44:24.982Z</time></trkpt><trkpt lat="43.9545459" lon="12.3766755"><ele>157.0</ele><time>2026-03-22T15:44:25.983Z</time></trkpt><trkpt lat="43.9546267" lon="12.3768851"><ele>157.0</ele><time>2026-03-22T15:44:26.982Z</time></trkpt><trkpt lat="43.9547116" lon="12.3771036"><ele>158.33333333333334</ele><time>2026-03-22T15:44:27.983Z</time></trkpt><trkpt lat="43.954799" lon="12.3773267"><ele>159.66666666666666</ele><time>2026-03-22T15:44:28.983Z</time></trkpt><trkpt lat="43.9548854" lon="12.3775459"><ele>161.0</ele><time>2026-03-22T15:44:29.983Z</time></trkpt><trkpt lat="43.9549725" lon="12.3777615"><ele>157.66666666666666</ele><time>2026-03-22T15:44:30.983Z</time></trkpt><trkpt lat="43.9550593" lon="12.3779751"><ele>154.33333333333334</ele><time>2026-03-22T15:44:31.982Z</time></trkpt><trkpt lat="43.9551454" lon="12.3781874"><ele>151.0</ele><time>2026-03-22T15:44:32.983Z</time></trkpt><trkpt lat="43.9552304" lon="12.3783967"><ele>151.0</ele><time>2026-03-22T15:44:33.982Z</time></trkpt><trkpt lat="43.955317" lon="12.3786087"><ele>151.0</ele><time>2026-03-22T15:44:34.982Z</time></trkpt><trkpt lat="43.9554012" lon="12.3788158"><ele>151.0</ele><time>2026-03-22T15:44:35.983Z</time></trkpt><trkpt lat="43.9554859" lon="12.3790118"><ele>151.66666666666669</ele><time>2026-03-22T15:44:36.983Z</time></trkpt><trkpt lat="43.9555644" lon="12.3791989"><ele>152.33333333333334</ele><time>2026-03-22T15:44:37.983Z</time></trkpt><trkpt lat="43.9556419" lon="12.3793799"><ele>153.0</ele><time>2026-03-22T15:44:38.982Z</time></trkpt><trkpt lat="43.9557179" lon="12.3795677"><ele>154.66666666666666</ele><time>2026-03-22T15:44:39.983Z</time></trkpt><trkpt lat="43.9557991" lon="12.3797648"><ele>156.33333333333331</ele><time>2026-03-22T15:44:40.983Z</time></trkpt><trkpt lat="43.9558797" lon="12.3799627"><ele>158.0</ele><time>2026-03-22T15:44:41.982Z</time></trkpt><trkpt lat="43.9559666" lon="12.3801704"><ele>154.33333333333331</ele><time>2026-03-22T15:44:42.982Z</time></trkpt><trkpt lat="43.9560548" lon="12.3803945"><ele>150.66666666666666</ele><time>2026-03-22T15:44:43.982Z</time></trkpt><trkpt lat="43.9561413" lon="12.3806181"><ele>147.0</ele><time>2026-03-22T15:44:44.983Z</time></trkpt><trkpt lat="43.9562319" lon="12.3808429"><ele>147.0</ele><time>2026-03-22T15:44:45.983Z</time></trkpt><trkpt lat="43.9563221" lon="12.3810621"><ele>147.0</ele><time>2026-03-22T15:44:46.982Z</time></trkpt><trkpt lat="43.9564098" lon="12.3812795"><ele>147.0</ele><time>2026-03-22T15:44:47.983Z</time></trkpt><trkpt lat="43.9564967" lon="12.3815005"><ele>148.66666666666666</ele><time>2026-03-22T15:44:48.983Z</time></trkpt><trkpt lat="43.9565864" lon="12.3817203"><ele>150.33333333333331</ele><time>2026-03-22T15:44:49.982Z</time></trkpt><trkpt lat="43.9566784" lon="12.3819435"><ele>152.0</ele><time>2026-03-22T15:44:50.982Z</time></trkpt><trkpt lat="43.9567747" lon="12.3821749"><ele>148.0</ele><time>2026-03-22T15:44:51.982Z</time></trkpt><trkpt lat="43.9568699" lon="12.3824021"><ele>144.0</ele><time>2026-03-22T15:44:52.983Z</time></trkpt><trkpt lat="43.956965" lon="12.3826245"><ele>140.0</ele><time>2026-03-22T15:44:53.982Z</time></trkpt><trkpt lat="43.9570575" lon="12.3828404"><ele>142.33333333333331</ele><time>2026-03-22T15:44:54.982Z</time></trkpt><trkpt lat="43.9571462" lon="12.3830523"><ele>144.66666666666666</ele><time>2026-03-22T15:44:55.983Z</time></trkpt><trkpt lat="43.9572326" lon="12.3832579"><ele>147.0</ele><time>2026-03-22T15:44:56.982Z</time></trkpt><trkpt lat="43.9573171" lon="12.3834633"><ele>147.0</ele><time>2026-03-22T15:44:57.983Z</time></trkpt><trkpt lat="43.9574" lon="12.383661"><ele>147.0</ele><time>2026-03-22T15:44:58.982Z</time></trkpt><trkpt lat="43.9574773" lon="12.3838505"><ele>147.0</ele><time>2026-03-22T15:44:59.983Z</time></trkpt><trkpt lat="43.9575528" lon="12.3840315"><ele>142.66666666666666</ele><time>2026-03-22T15:45:00.982Z</time></trkpt><trkpt lat="43.9576166" lon="12.3842107"><ele>138.33333333333331</ele><time>2026-03-22T15:45:01.983Z</time></trkpt><trkpt lat="43.9576843" lon="12.3843975"><ele>134.0</ele><time>2026-03-22T15:45:02.983Z</time></trkpt><trkpt lat="43.9577386" lon="12.3846034"><ele>133.33333333333331</ele><time>2026-03-22T15:45:03.983Z</time></trkpt><trkpt lat="43.9577866" lon="12.3848213"><ele>132.66666666666666</ele><time>2026-03-22T15:45:04.983Z</time></trkpt><trkpt lat="43.9578308" lon="12.3850512"><ele>132.0</ele><time>2026-03-22T15:45:05.982Z</time></trkpt><trkpt lat="43.9578596" lon="12.3852981"><ele>133.0</ele><time>2026-03-22T15:45:06.983Z</time></trkpt><trkpt lat="43.9578754" lon="12.3855561"><ele>134.0</ele><time>2026-03-22T15:45:07.983Z</time></trkpt><trkpt lat="43.9578795" lon="12.3858221"><ele>135.0</ele><time>2026-03-22T15:45:08.983Z</time></trkpt><trkpt lat="43.9578658" lon="12.3860875"><ele>134.66666666666666</ele><time>2026-03-22T15:45:09.982Z</time></trkpt><trkpt lat="43.9578336" lon="12.3863479"><ele>134.33333333333331</ele><time>2026-03-22T15:45:10.983Z</time></trkpt><trkpt lat="43.9577882" lon="12.3866035"><ele>134.0</ele><time>2026-03-22T15:45:11.983Z</time></trkpt><trkpt lat="43.9577353" lon="12.386857"><ele>134.0</ele><time>2026-03-22T15:45:12.983Z</time></trkpt><trkpt lat="43.9576736" lon="12.3871065"><ele>134.0</ele><time>2026-03-22T15:45:13.983Z</time></trkpt><trkpt lat="43.9576087" lon="12.3873568"><ele>134.0</ele><time>2026-03-22T15:45:14.983Z</time></trkpt><trkpt lat="43.9575451" lon="12.3876038"><ele>134.0</ele><time>2026-03-22T15:45:15.983Z</time></trkpt><trkpt lat="43.9574791" lon="12.3878509"><ele>134.0</ele><time>2026-03-22T15:45:16.983Z</time></trkpt><trkpt lat="43.957412" lon="12.3880939"><ele>134.0</ele><time>2026-03-22T15:45:17.982Z</time></trkpt><trkpt lat="43.9573446" lon="12.3883393"><ele>134.0</ele><time>2026-03-22T15:45:18.983Z</time></trkpt><trkpt lat="43.95728" lon="12.3885821"><ele>134.0</ele><time>2026-03-22T15:45:19.982Z</time></trkpt><trkpt lat="43.9572155" lon="12.3888228"><ele>134.0</ele><time>2026-03-22T15:45:20.983Z</time></trkpt><trkpt lat="43.9571565" lon="12.3890658"><ele>133.0</ele><time>2026-03-22T15:45:21.982Z</time></trkpt><trkpt lat="43.9571052" lon="12.3893056"><ele>132.0</ele><time>2026-03-22T15:45:22.983Z</time></trkpt><trkpt lat="43.9570603" lon="12.389545"><ele>131.0</ele><time>2026-03-22T15:45:23.982Z</time></trkpt><trkpt lat="43.9570272" lon="12.3897858"><ele>131.0</ele><time>2026-03-22T15:45:24.982Z</time></trkpt><trkpt lat="43.9569991" lon="12.39003"><ele>131.0</ele><time>2026-03-22T15:45:25.983Z</time></trkpt><trkpt lat="43.9569775" lon="12.3902828"><ele>131.0</ele><time>2026-03-22T15:45:26.983Z</time></trkpt><trkpt lat="43.9569665" lon="12.3905354"><ele>130.66666666666666</ele><time>2026-03-22T15:45:27.983Z</time></trkpt><trkpt lat="43.9569646" lon="12.3907904"><ele>130.33333333333334</ele><time>2026-03-22T15:45:28.982Z</time></trkpt><trkpt lat="43.956973" lon="12.391049"><ele>130.0</ele><time>2026-03-22T15:45:29.982Z</time></trkpt><trkpt lat="43.9569953" lon="12.3913014"><ele>130.0</ele><time>2026-03-22T15:45:30.983Z</time></trkpt><trkpt lat="43.9570253" lon="12.3915537"><ele>130.0</ele><time>2026-03-22T15:45:31.983Z</time></trkpt><trkpt lat="43.957063" lon="12.3917943"><ele>130.0</ele><time>2026-03-22T15:45:32.983Z</time></trkpt><trkpt lat="43.9571128" lon="12.3920222"><ele>130.33333333333334</ele><time>2026-03-22T15:45:33.983Z</time></trkpt><trkpt lat="43.9571715" lon="12.3922504"><ele>130.66666666666666</ele><time>2026-03-22T15:45:34.982Z</time></trkpt><trkpt lat="43.957232" lon="12.3924763"><ele>131.0</ele><time>2026-03-22T15:45:35.983Z</time></trkpt><trkpt lat="43.9572978" lon="12.3927007"><ele>131.0</ele><time>2026-03-22T15:45:36.983Z</time></trkpt><trkpt lat="43.9573732" lon="12.3929222"><ele>131.0</ele><time>2026-03-22T15:45:37.983Z</time></trkpt><trkpt lat="43.957451" lon="12.3931415"><ele>131.0</ele><time>2026-03-22T15:45:38.983Z</time></trkpt><trkpt lat="43.9575278" lon="12.3933628"><ele>130.0</ele><time>2026-03-22T15:45:39.983Z</time></trkpt><trkpt lat="43.9576062" lon="12.3935839"><ele>129.0</ele><time>2026-03-22T15:45:40.983Z</time></trkpt><trkpt lat="43.9576836" lon="12.3938067"><ele>128.0</ele><time>2026-03-22T15:45:41.983Z</time></trkpt><trkpt lat="43.9577639" lon="12.3940284"><ele>128.0</ele><time>2026-03-22T15:45:42.983Z</time></trkpt><trkpt lat="43.957844" lon="12.3942524"><ele>128.0</ele><time>2026-03-22T15:45:43.982Z</time></trkpt><trkpt lat="43.9579257" lon="12.3944751"><ele>128.0</ele><time>2026-03-22T15:45:44.983Z</time></trkpt><trkpt lat="43.9580059" lon="12.3946916"><ele>129.33333333333331</ele><time>2026-03-22T15:45:45.982Z</time></trkpt><trkpt lat="43.9580825" lon="12.394898"><ele>130.66666666666666</ele><time>2026-03-22T15:45:46.983Z</time></trkpt><trkpt lat="43.9581511" lon="12.3950916"><ele>132.0</ele><time>2026-03-22T15:45:47.982Z</time></trkpt><trkpt lat="43.9582214" lon="12.3952787"><ele>132.0</ele><time>2026-03-22T15:45:48.982Z</time></trkpt><trkpt lat="43.9582911" lon="12.3954712"><ele>132.0</ele><time>2026-03-22T15:45:49.983Z</time></trkpt><trkpt lat="43.9583603" lon="12.395671"><ele>132.0</ele><time>2026-03-22T15:45:50.983Z</time></trkpt><trkpt lat="43.9584337" lon="12.3958742"><ele>131.33333333333334</ele><time>2026-03-22T15:45:51.983Z</time></trkpt><trkpt lat="43.9585093" lon="12.3960778"><ele>130.66666666666669</ele><time>2026-03-22T15:45:52.982Z</time></trkpt><trkpt lat="43.9585848" lon="12.3962848"><ele>130.0</ele><time>2026-03-22T15:45:53.983Z</time></trkpt><trkpt lat="43.9586585" lon="12.3964924"><ele>130.0</ele><time>2026-03-22T15:45:54.983Z</time></trkpt><trkpt lat="43.9587287" lon="12.3966989"><ele>130.0</ele><time>2026-03-22T15:45:55.983Z</time></trkpt><trkpt lat="43.9588009" lon="12.396905"><ele>130.0</ele><time>2026-03-22T15:45:56.982Z</time></trkpt><trkpt lat="43.9588787" lon="12.3971077"><ele>131.75</ele><time>2026-03-22T15:45:57.983Z</time></trkpt><trkpt lat="43.9589507" lon="12.3973029"><ele>133.5</ele><time>2026-03-22T15:45:58.982Z</time></trkpt><trkpt lat="43.959021" lon="12.3974836"><ele>135.25</ele><time>2026-03-22T15:45:59.982Z</time></trkpt><trkpt lat="43.9590925" lon="12.3976541"><ele>137.0</ele><time>2026-03-22T15:46:00.983Z</time></trkpt><trkpt lat="43.9591703" lon="12.3978293"><ele>135.33333333333331</ele><time>2026-03-22T15:46:01.983Z</time></trkpt><trkpt lat="43.9592478" lon="12.3980113"><ele>133.66666666666666</ele><time>2026-03-22T15:46:02.983Z</time></trkpt><trkpt lat="43.9593311" lon="12.3981932"><ele>132.0</ele><time>2026-03-22T15:46:03.983Z</time></trkpt><trkpt lat="43.9594189" lon="12.3983784"><ele>132.0</ele><time>2026-03-22T15:46:04.983Z</time></trkpt><trkpt lat="43.9595103" lon="12.3985598"><ele>132.0</ele><time>2026-03-22T15:46:05.982Z</time></trkpt><trkpt lat="43.9596017" lon="12.3987335"><ele>132.0</ele><time>2026-03-22T15:46:06.983Z</time></trkpt><trkpt lat="43.9596904" lon="12.3989069"><ele>129.66666666666666</ele><time>2026-03-22T15:46:07.983Z</time></trkpt><trkpt lat="43.9597804" lon="12.3990819"><ele>127.33333333333333</ele><time>2026-03-22T15:46:08.982Z</time></trkpt><trkpt lat="43.9598719" lon="12.3992563"><ele>125.0</ele><time>2026-03-22T15:46:09.983Z</time></trkpt><trkpt lat="43.9599672" lon="12.3994291"><ele>125.0</ele><time>2026-03-22T15:46:10.983Z</time></trkpt><trkpt lat="43.9600578" lon="12.3995984"><ele>125.0</ele><time>2026-03-22T15:46:11.983Z</time></trkpt><trkpt lat="43.9601415" lon="12.3997622"><ele>125.0</ele><time>2026-03-22T15:46:12.982Z</time></trkpt><trkpt lat="43.9602177" lon="12.3999051"><ele>125.0</ele><time>2026-03-22T15:46:13.982Z</time></trkpt><trkpt lat="43.9602855" lon="12.4000335"><ele>125.0</ele><time>2026-03-22T15:46:14.982Z</time></trkpt><trkpt lat="43.9603522" lon="12.4001578"><ele>125.0</ele><time>2026-03-22T15:46:15.982Z</time></trkpt><trkpt lat="43.9604153" lon="12.4002708"><ele>125.0</ele><time>2026-03-22T15:46:16.983Z</time></trkpt><trkpt lat="43.9604753" lon="12.4003814"><ele>125.0</ele><time>2026-03-22T15:46:17.983Z</time></trkpt><trkpt lat="43.9605283" lon="12.4004862"><ele>125.0</ele><time>2026-03-22T15:46:18.982Z</time></trkpt><trkpt lat="43.9605811" lon="12.4005799"><ele>124.66666666666666</ele><time>2026-03-22T15:46:19.982Z</time></trkpt><trkpt lat="43.96063" lon="12.4006629"><ele>124.33333333333333</ele><time>2026-03-22T15:46:20.983Z</time></trkpt><trkpt lat="43.9606715" lon="12.4007315"><ele>124.0</ele><time>2026-03-22T15:46:21.982Z</time></trkpt><trkpt lat="43.9607379" lon="12.4008419"><ele>123.66666666666666</ele><time>2026-03-22T15:46:23.982Z</time></trkpt><trkpt lat="43.9607973" lon="12.4009281"><ele>123.33333333333333</ele><time>2026-03-22T15:46:25.983Z</time></trkpt><trkpt lat="43.9608531" lon="12.401005"><ele>123.0</ele><time>2026-03-22T15:46:27.982Z</time></trkpt><trkpt lat="43.9609145" lon="12.401092"><ele>123.0</ele><time>2026-03-22T15:46:29.983Z</time></trkpt><trkpt lat="43.9610057" lon="12.4011916"><ele>123.00000000000001</ele><time>2026-03-22T15:46:31.982Z</time></trkpt><trkpt lat="43.9610875" lon="12.4012846"><ele>123.00000000000001</ele><time>2026-03-22T15:46:33.983Z</time></trkpt><trkpt lat="43.961165" lon="12.4013751"><ele>123.0</ele><time>2026-03-22T15:46:35.983Z</time></trkpt><trkpt lat="43.9612223" lon="12.4014483"><ele>123.0</ele><time>2026-03-22T15:46:38.983Z</time></trkpt><trkpt lat="43.9612905" lon="12.4015724"><ele>124.2</ele><time>2026-03-22T15:46:41.983Z</time></trkpt><trkpt lat="43.961341" lon="12.401707"><ele>125.4</ele><time>2026-03-22T15:46:43.983Z</time></trkpt><trkpt lat="43.961456" lon="12.4017972"><ele>126.60000000000001</ele><time>2026-03-22T15:46:45.982Z</time></trkpt><trkpt lat="43.9615382" lon="12.4018094"><ele>127.80000000000001</ele><time>2026-03-22T15:46:46.982Z</time></trkpt><trkpt lat="43.9616299" lon="12.4018315"><ele>129.0</ele><time>2026-03-22T15:46:47.982Z</time></trkpt><trkpt lat="43.9617341" lon="12.4018661"><ele>129.0</ele><time>2026-03-22T15:46:48.982Z</time></trkpt><trkpt lat="43.9618515" lon="12.4019228"><ele>129.0</ele><time>2026-03-22T15:46:49.982Z</time></trkpt><trkpt lat="43.9619793" lon="12.4019995"><ele>129.0</ele><time>2026-03-22T15:46:50.983Z</time></trkpt><trkpt lat="43.9621144" lon="12.4020777"><ele>129.0</ele><time>2026-03-22T15:46:51.982Z</time></trkpt><trkpt lat="43.9622485" lon="12.4021563"><ele>129.0</ele><time>2026-03-22T15:46:52.982Z</time></trkpt><trkpt lat="43.9623831" lon="12.402238"><ele>129.0</ele><time>2026-03-22T15:46:53.983Z</time></trkpt><trkpt lat="43.9625189" lon="12.4023235"><ele>129.0</ele><time>2026-03-22T15:46:54.983Z</time></trkpt><trkpt lat="43.9626616" lon="12.4024144"><ele>129.0</ele><time>2026-03-22T15:46:55.983Z</time></trkpt><trkpt lat="43.9628043" lon="12.4024998"><ele>129.0</ele><time>2026-03-22T15:46:56.982Z</time></trkpt><trkpt lat="43.9629482" lon="12.4025904"><ele>129.0</ele><time>2026-03-22T15:46:57.982Z</time></trkpt><trkpt lat="43.9630932" lon="12.4026854"><ele>129.0</ele><time>2026-03-22T15:46:58.983Z</time></trkpt><trkpt lat="43.9632395" lon="12.4027821"><ele>129.0</ele><time>2026-03-22T15:46:59.983Z</time></trkpt><trkpt lat="43.9633852" lon="12.4028869"><ele>129.0</ele><time>2026-03-22T15:47:00.983Z</time></trkpt><trkpt lat="43.9635317" lon="12.4030045"><ele>129.0</ele><time>2026-03-22T15:47:01.982Z</time></trkpt><trkpt lat="43.9636799" lon="12.4031308"><ele>129.0</ele><time>2026-03-22T15:47:02.983Z</time></trkpt><trkpt lat="43.963825" lon="12.4032726"><ele>129.0</ele><time>2026-03-22T15:47:03.982Z</time></trkpt><trkpt lat="43.9639726" lon="12.4034265"><ele>129.0</ele><time>2026-03-22T15:47:04.982Z</time></trkpt><trkpt lat="43.9641194" lon="12.4035944"><ele>129.0</ele><time>2026-03-22T15:47:05.983Z</time></trkpt><trkpt lat="43.9642634" lon="12.4037743"><ele>129.0</ele><time>2026-03-22T15:47:06.982Z</time></trkpt><trkpt lat="43.9644032" lon="12.4039606"><ele>126.33333333333334</ele><time>2026-03-22T15:47:07.983Z</time></trkpt><trkpt lat="43.9645361" lon="12.4041505"><ele>123.66666666666667</ele><time>2026-03-22T15:47:08.983Z</time></trkpt><trkpt lat="43.9646702" lon="12.4043427"><ele>121.0</ele><time>2026-03-22T15:47:09.982Z</time></trkpt><trkpt lat="43.9648012" lon="12.4045261"><ele>120.66666666666667</ele><time>2026-03-22T15:47:10.983Z</time></trkpt><trkpt lat="43.9649313" lon="12.4047072"><ele>120.33333333333334</ele><time>2026-03-22T15:47:11.983Z</time></trkpt><trkpt lat="43.9650597" lon="12.4048901"><ele>120.0</ele><time>2026-03-22T15:47:12.983Z</time></trkpt><trkpt lat="43.9651918" lon="12.4050722"><ele>120.0</ele><time>2026-03-22T15:47:13.983Z</time></trkpt><trkpt lat="43.9653247" lon="12.4052573"><ele>120.0</ele><time>2026-03-22T15:47:14.983Z</time></trkpt><trkpt lat="43.9654587" lon="12.4054388"><ele>120.0</ele><time>2026-03-22T15:47:15.983Z</time></trkpt><trkpt lat="43.9655915" lon="12.4056174"><ele>119.33333333333334</ele><time>2026-03-22T15:47:16.983Z</time></trkpt><trkpt lat="43.9657279" lon="12.4057991"><ele>118.66666666666667</ele><time>2026-03-22T15:47:17.983Z</time></trkpt><trkpt lat="43.9658595" lon="12.4059872"><ele>118.0</ele><time>2026-03-22T15:47:18.983Z</time></trkpt><trkpt lat="43.9659834" lon="12.4061779"><ele>118.33333333333334</ele><time>2026-03-22T15:47:19.982Z</time></trkpt><trkpt lat="43.9661024" lon="12.4063765"><ele>118.66666666666666</ele><time>2026-03-22T15:47:20.983Z</time></trkpt><trkpt lat="43.9662169" lon="12.4065804"><ele>119.0</ele><time>2026-03-22T15:47:21.983Z</time></trkpt><trkpt lat="43.9663262" lon="12.4067869"><ele>119.0</ele><time>2026-03-22T15:47:22.983Z</time></trkpt><trkpt lat="43.9664309" lon="12.4070023"><ele>119.0</ele><time>2026-03-22T15:47:23.983Z</time></trkpt><trkpt lat="43.9665333" lon="12.407219"><ele>119.0</ele><time>2026-03-22T15:47:24.982Z</time></trkpt><trkpt lat="43.9666357" lon="12.4074405"><ele>118.33333333333333</ele><time>2026-03-22T15:47:25.982Z</time></trkpt><trkpt lat="43.9667361" lon="12.4076573"><ele>117.66666666666666</ele><time>2026-03-22T15:47:26.982Z</time></trkpt><trkpt lat="43.9668313" lon="12.4078633"><ele>117.0</ele><time>2026-03-22T15:47:27.982Z</time></trkpt><trkpt lat="43.9669245" lon="12.4080561"><ele>117.0</ele><time>2026-03-22T15:47:28.982Z</time></trkpt><trkpt lat="43.967012" lon="12.4082438"><ele>117.0</ele><time>2026-03-22T15:47:29.982Z</time></trkpt><trkpt lat="43.9670955" lon="12.4084343"><ele>117.0</ele><time>2026-03-22T15:47:30.982Z</time></trkpt><trkpt lat="43.9671807" lon="12.4086277"><ele>117.0</ele><time>2026-03-22T15:47:31.982Z</time></trkpt><trkpt lat="43.9672666" lon="12.4088205"><ele>117.0</ele><time>2026-03-22T15:47:32.982Z</time></trkpt><trkpt lat="43.9673559" lon="12.4090094"><ele>117.0</ele><time>2026-03-22T15:47:33.983Z</time></trkpt><trkpt lat="43.9674369" lon="12.4091901"><ele>117.0</ele><time>2026-03-22T15:47:34.983Z</time></trkpt><trkpt lat="43.9675131" lon="12.4093614"><ele>117.0</ele><time>2026-03-22T15:47:35.983Z</time></trkpt><trkpt lat="43.9675859" lon="12.4095291"><ele>117.0</ele><time>2026-03-22T15:47:36.983Z</time></trkpt><trkpt lat="43.9676589" lon="12.4097011"><ele>117.0</ele><time>2026-03-22T15:47:37.982Z</time></trkpt><trkpt lat="43.9677384" lon="12.4098766"><ele>117.25</ele><time>2026-03-22T15:47:38.983Z</time></trkpt><trkpt lat="43.9678188" lon="12.4100509"><ele>117.5</ele><time>2026-03-22T15:47:39.983Z</time></trkpt><trkpt lat="43.9678976" lon="12.4102241"><ele>117.75</ele><time>2026-03-22T15:47:40.982Z</time></trkpt><trkpt lat="43.9679815" lon="12.4103972"><ele>118.0</ele><time>2026-03-22T15:47:41.982Z</time></trkpt><trkpt lat="43.9680674" lon="12.4105707"><ele>118.0</ele><time>2026-03-22T15:47:42.982Z</time></trkpt><trkpt lat="43.9681565" lon="12.4107344"><ele>118.0</ele><time>2026-03-22T15:47:43.982Z</time></trkpt><trkpt lat="43.9682512" lon="12.4108949"><ele>118.0</ele><time>2026-03-22T15:47:44.983Z</time></trkpt><trkpt lat="43.9683544" lon="12.4110498"><ele>118.0</ele><time>2026-03-22T15:47:45.983Z</time></trkpt><trkpt lat="43.9684609" lon="12.4111992"><ele>118.0</ele><time>2026-03-22T15:47:46.983Z</time></trkpt><trkpt lat="43.9685747" lon="12.4113415"><ele>118.0</ele><time>2026-03-22T15:47:47.982Z</time></trkpt><trkpt lat="43.9686998" lon="12.4114787"><ele>118.0</ele><time>2026-03-22T15:47:48.983Z</time></trkpt><trkpt lat="43.9688321" lon="12.411609"><ele>118.0</ele><time>2026-03-22T15:47:49.982Z</time></trkpt><trkpt lat="43.9689731" lon="12.4117352"><ele>118.0</ele><time>2026-03-22T15:47:50.982Z</time></trkpt><trkpt lat="43.969122" lon="12.4118525"><ele>118.0</ele><time>2026-03-22T15:47:51.982Z</time></trkpt><trkpt lat="43.9692804" lon="12.4119624"><ele>118.33333333333334</ele><time>2026-03-22T15:47:52.983Z</time></trkpt><trkpt lat="43.9694482" lon="12.4120605"><ele>118.66666666666666</ele><time>2026-03-22T15:47:53.982Z</time></trkpt><trkpt lat="43.9696222" lon="12.4121426"><ele>119.0</ele><time>2026-03-22T15:47:54.983Z</time></trkpt><trkpt lat="43.9697949" lon="12.4122085"><ele>119.0</ele><time>2026-03-22T15:47:55.982Z</time></trkpt><trkpt lat="43.9699648" lon="12.4122623"><ele>119.0</ele><time>2026-03-22T15:47:56.983Z</time></trkpt><trkpt lat="43.9701315" lon="12.4123037"><ele>119.0</ele><time>2026-03-22T15:47:57.983Z</time></trkpt><trkpt lat="43.9703006" lon="12.412335"><ele>117.66666666666666</ele><time>2026-03-22T15:47:58.983Z</time></trkpt><trkpt lat="43.9704701" lon="12.4123561"><ele>116.33333333333334</ele><time>2026-03-22T15:47:59.983Z</time></trkpt><trkpt lat="43.9706395" lon="12.4123631"><ele>115.0</ele><time>2026-03-22T15:48:00.982Z</time></trkpt><trkpt lat="43.9708073" lon="12.4123535"><ele>115.66666666666667</ele><time>2026-03-22T15:48:01.983Z</time></trkpt><trkpt lat="43.9709675" lon="12.4123314"><ele>116.33333333333334</ele><time>2026-03-22T15:48:02.983Z</time></trkpt><trkpt lat="43.9711175" lon="12.412301"><ele>117.0</ele><time>2026-03-22T15:48:03.982Z</time></trkpt><trkpt lat="43.9712598" lon="12.4122626"><ele>117.0</ele><time>2026-03-22T15:48:04.982Z</time></trkpt><trkpt lat="43.9714003" lon="12.4122161"><ele>117.0</ele><time>2026-03-22T15:48:05.983Z</time></trkpt><trkpt lat="43.971535" lon="12.4121758"><ele>117.0</ele><time>2026-03-22T15:48:06.983Z</time></trkpt><trkpt lat="43.9716626" lon="12.4121359"><ele>117.0</ele><time>2026-03-22T15:48:07.983Z</time></trkpt><trkpt lat="43.9717824" lon="12.4120879"><ele>117.8</ele><time>2026-03-22T15:48:08.982Z</time></trkpt><trkpt lat="43.9718939" lon="12.4120397"><ele>118.6</ele><time>2026-03-22T15:48:09.983Z</time></trkpt><trkpt lat="43.9719941" lon="12.4119965"><ele>119.39999999999999</ele><time>2026-03-22T15:48:10.982Z</time></trkpt><trkpt lat="43.9720794" lon="12.4119535"><ele>120.19999999999999</ele><time>2026-03-22T15:48:11.983Z</time></trkpt><trkpt lat="43.972157" lon="12.4119141"><ele>121.0</ele><time>2026-03-22T15:48:12.983Z</time></trkpt><trkpt lat="43.9722368" lon="12.4118859"><ele>121.00000000000001</ele><time>2026-03-22T15:48:13.983Z</time></trkpt><trkpt lat="43.9723161" lon="12.411872"><ele>121.0</ele><time>2026-03-22T15:48:14.982Z</time></trkpt><trkpt lat="43.9723955" lon="12.411874"><ele>121.0</ele><time>2026-03-22T15:48:15.983Z</time></trkpt><trkpt lat="43.9724766" lon="12.4118959"><ele>121.0</ele><time>2026-03-22T15:48:16.983Z</time></trkpt><trkpt lat="43.9725585" lon="12.4119328"><ele>121.00000000000001</ele><time>2026-03-22T15:48:17.983Z</time></trkpt><trkpt lat="43.9726339" lon="12.4119477"><ele>121.0</ele><time>2026-03-22T15:48:18.982Z</time></trkpt><trkpt lat="43.9727227" lon="12.4119391"><ele>122.4</ele><time>2026-03-22T15:48:19.982Z</time></trkpt><trkpt lat="43.9728167" lon="12.4119162"><ele>123.8</ele><time>2026-03-22T15:48:20.982Z</time></trkpt><trkpt lat="43.9729125" lon="12.4118831"><ele>125.20000000000002</ele><time>2026-03-22T15:48:21.982Z</time></trkpt><trkpt lat="43.9730206" lon="12.4118347"><ele>126.60000000000001</ele><time>2026-03-22T15:48:22.983Z</time></trkpt><trkpt lat="43.9731352" lon="12.4117753"><ele>128.0</ele><time>2026-03-22T15:48:23.982Z</time></trkpt><trkpt lat="43.97326" lon="12.4117151"><ele>129.75</ele><time>2026-03-22T15:48:24.982Z</time></trkpt><trkpt lat="43.9733886" lon="12.4116532"><ele>131.5</ele><time>2026-03-22T15:48:25.983Z</time></trkpt><trkpt lat="43.9735254" lon="12.4115889"><ele>133.25</ele><time>2026-03-22T15:48:26.983Z</time></trkpt><trkpt lat="43.973667" lon="12.4115315"><ele>135.0</ele><time>2026-03-22T15:48:27.983Z</time></trkpt><trkpt lat="43.9738103" lon="12.411479"><ele>135.0</ele><time>2026-03-22T15:48:28.982Z</time></trkpt><trkpt lat="43.9739557" lon="12.4114352"><ele>135.0</ele><time>2026-03-22T15:48:29.983Z</time></trkpt><trkpt lat="43.9741023" lon="12.4113902"><ele>135.0</ele><time>2026-03-22T15:48:30.983Z</time></trkpt><trkpt lat="43.974251" lon="12.4113389"><ele>133.33333333333334</ele><time>2026-03-22T15:48:31.983Z</time></trkpt><trkpt lat="43.9744009" lon="12.4112834"><ele>131.66666666666669</ele><time>2026-03-22T15:48:32.983Z</time></trkpt><trkpt lat="43.9745542" lon="12.4112196"><ele>130.0</ele><time>2026-03-22T15:48:33.982Z</time></trkpt><trkpt lat="43.9747111" lon="12.4111497"><ele>130.0</ele><time>2026-03-22T15:48:34.982Z</time></trkpt><trkpt lat="43.9748703" lon="12.411072"><ele>130.0</ele><time>2026-03-22T15:48:35.983Z</time></trkpt><trkpt lat="43.9750319" lon="12.4109914"><ele>130.0</ele><time>2026-03-22T15:48:36.982Z</time></trkpt><trkpt lat="43.9751916" lon="12.4109075"><ele>132.5</ele><time>2026-03-22T15:48:37.982Z</time></trkpt><trkpt lat="43.975337" lon="12.410831"><ele>135.0</ele><time>2026-03-22T15:48:38.983Z</time></trkpt><trkpt lat="43.9754617" lon="12.4107659"><ele>137.5</ele><time>2026-03-22T15:48:39.982Z</time></trkpt><trkpt lat="43.9755715" lon="12.4107069"><ele>140.0</ele><time>2026-03-22T15:48:40.983Z</time></trkpt><trkpt lat="43.9756811" lon="12.4106515"><ele>140.0</ele><time>2026-03-22T15:48:41.983Z</time></trkpt><trkpt lat="43.9757975" lon="12.4105998"><ele>140.0</ele><time>2026-03-22T15:48:42.983Z</time></trkpt><trkpt lat="43.975919" lon="12.4105469"><ele>140.0</ele><time>2026-03-22T15:48:43.982Z</time></trkpt><trkpt lat="43.9760441" lon="12.4104885"><ele>140.0</ele><time>2026-03-22T15:48:44.982Z</time></trkpt><trkpt lat="43.9761796" lon="12.4104369"><ele>138.33333333333331</ele><time>2026-03-22T15:48:45.982Z</time></trkpt><trkpt lat="43.9763247" lon="12.410394"><ele>136.66666666666666</ele><time>2026-03-22T15:48:46.983Z</time></trkpt><trkpt lat="43.9764764" lon="12.4103571"><ele>135.0</ele><time>2026-03-22T15:48:47.983Z</time></trkpt><trkpt lat="43.9766337" lon="12.4103201"><ele>136.0</ele><time>2026-03-22T15:48:48.982Z</time></trkpt><trkpt lat="43.9767974" lon="12.4102855"><ele>137.0</ele><time>2026-03-22T15:48:49.983Z</time></trkpt><trkpt lat="43.9769666" lon="12.4102594"><ele>138.0</ele><time>2026-03-22T15:48:50.983Z</time></trkpt><trkpt lat="43.9771362" lon="12.4102382"><ele>138.0</ele><time>2026-03-22T15:48:51.983Z</time></trkpt><trkpt lat="43.9773044" lon="12.4102288"><ele>138.0</ele><time>2026-03-22T15:48:52.982Z</time></trkpt><trkpt lat="43.9774622" lon="12.4102274"><ele>138.0</ele><time>2026-03-22T15:48:53.982Z</time></trkpt><trkpt lat="43.9776117" lon="12.4102302"><ele>138.25</ele><time>2026-03-22T15:48:54.983Z</time></trkpt><trkpt lat="43.9777632" lon="12.4102333"><ele>138.5</ele><time>2026-03-22T15:48:55.982Z</time></trkpt><trkpt lat="43.9779148" lon="12.4102404"><ele>138.75</ele><time>2026-03-22T15:48:56.983Z</time></trkpt><trkpt lat="43.9780601" lon="12.4102476"><ele>139.0</ele><time>2026-03-22T15:48:57.982Z</time></trkpt><trkpt lat="43.9781935" lon="12.410255"><ele>139.0</ele><time>2026-03-22T15:48:58.983Z</time></trkpt><trkpt lat="43.9783299" lon="12.410265"><ele>139.0</ele><time>2026-03-22T15:48:59.983Z</time></trkpt><trkpt lat="43.9784623" lon="12.4102686"><ele>139.0</ele><time>2026-03-22T15:49:00.983Z</time></trkpt><trkpt lat="43.9785972" lon="12.4102761"><ele>139.0</ele><time>2026-03-22T15:49:01.983Z</time></trkpt><trkpt lat="43.9787313" lon="12.410283"><ele>140.0</ele><time>2026-03-22T15:49:02.983Z</time></trkpt><trkpt lat="43.9788704" lon="12.4102899"><ele>141.0</ele><time>2026-03-22T15:49:03.983Z</time></trkpt><trkpt lat="43.9790108" lon="12.4102978"><ele>142.0</ele><time>2026-03-22T15:49:04.983Z</time></trkpt><trkpt lat="43.9791592" lon="12.4103046"><ele>143.0</ele><time>2026-03-22T15:49:05.982Z</time></trkpt><trkpt lat="43.9793086" lon="12.4103089"><ele>143.33333333333331</ele><time>2026-03-22T15:49:06.983Z</time></trkpt><trkpt lat="43.9794623" lon="12.4103205"><ele>143.66666666666666</ele><time>2026-03-22T15:49:07.983Z</time></trkpt><trkpt lat="43.9796196" lon="12.4103262"><ele>144.0</ele><time>2026-03-22T15:49:08.982Z</time></trkpt><trkpt lat="43.979783" lon="12.4103334"><ele>144.0</ele><time>2026-03-22T15:49:09.983Z</time></trkpt><trkpt lat="43.9799491" lon="12.4103391"><ele>144.0</ele><time>2026-03-22T15:49:10.983Z</time></trkpt><trkpt lat="43.9801166" lon="12.4103457"><ele>144.0</ele><time>2026-03-22T15:49:11.983Z</time></trkpt><trkpt lat="43.9802789" lon="12.4103589"><ele>144.33333333333334</ele><time>2026-03-22T15:49:12.983Z</time></trkpt><trkpt lat="43.9804412" lon="12.4103682"><ele>144.66666666666669</ele><time>2026-03-22T15:49:13.983Z</time></trkpt><trkpt lat="43.9806028" lon="12.4103758"><ele>145.0</ele><time>2026-03-22T15:49:14.983Z</time></trkpt><trkpt lat="43.9807623" lon="12.4103825"><ele>145.66666666666669</ele><time>2026-03-22T15:49:15.983Z</time></trkpt><trkpt lat="43.9809182" lon="12.4103895"><ele>146.33333333333334</ele><time>2026-03-22T15:49:16.982Z</time></trkpt><trkpt lat="43.9810714" lon="12.4104006"><ele>147.0</ele><time>2026-03-22T15:49:17.983Z</time></trkpt><trkpt lat="43.9812205" lon="12.4104053"><ele>147.0</ele><time>2026-03-22T15:49:18.983Z</time></trkpt><trkpt lat="43.9813784" lon="12.4104116"><ele>147.0</ele><time>2026-03-22T15:49:19.982Z</time></trkpt><trkpt lat="43.9815411" lon="12.4104205"><ele>147.0</ele><time>2026-03-22T15:49:20.983Z</time></trkpt><trkpt lat="43.9817093" lon="12.4104285"><ele>145.33333333333334</ele><time>2026-03-22T15:49:21.982Z</time></trkpt><trkpt lat="43.9818844" lon="12.4104307"><ele>143.66666666666669</ele><time>2026-03-22T15:49:22.983Z</time></trkpt><trkpt lat="43.9820643" lon="12.4104355"><ele>142.0</ele><time>2026-03-22T15:49:23.982Z</time></trkpt><trkpt lat="43.9822528" lon="12.4104526"><ele>142.0</ele><time>2026-03-22T15:49:24.983Z</time></trkpt><trkpt lat="43.9824407" lon="12.4104645"><ele>142.0</ele><time>2026-03-22T15:49:25.982Z</time></trkpt><trkpt lat="43.982632" lon="12.4104744"><ele>142.0</ele><time>2026-03-22T15:49:26.983Z</time></trkpt><trkpt lat="43.9828241" lon="12.4104823"><ele>142.66666666666669</ele><time>2026-03-22T15:49:27.983Z</time></trkpt><trkpt lat="43.9830095" lon="12.4104878"><ele>143.33333333333334</ele><time>2026-03-22T15:49:28.982Z</time></trkpt><trkpt lat="43.9831855" lon="12.4104934"><ele>144.0</ele><time>2026-03-22T15:49:29.982Z</time></trkpt><trkpt lat="43.9833595" lon="12.4105005"><ele>142.66666666666666</ele><time>2026-03-22T15:49:30.982Z</time></trkpt><trkpt lat="43.9835408" lon="12.4105086"><ele>141.33333333333331</ele><time>2026-03-22T15:49:31.983Z</time></trkpt><trkpt lat="43.9837199" lon="12.4105176"><ele>140.0</ele><time>2026-03-22T15:49:32.982Z</time></trkpt><trkpt lat="43.9838995" lon="12.4105211"><ele>140.0</ele><time>2026-03-22T15:49:33.983Z</time></trkpt><trkpt lat="43.9840787" lon="12.4105178"><ele>140.0</ele><time>2026-03-22T15:49:34.983Z</time></trkpt><trkpt lat="43.9842551" lon="12.4105034"><ele>140.0</ele><time>2026-03-22T15:49:35.983Z</time></trkpt><trkpt lat="43.9844278" lon="12.4104852"><ele>135.33333333333331</ele><time>2026-03-22T15:49:36.982Z</time></trkpt><trkpt lat="43.9845962" lon="12.4104641"><ele>130.66666666666666</ele><time>2026-03-22T15:49:37.982Z</time></trkpt><trkpt lat="43.9847563" lon="12.4104469"><ele>126.0</ele><time>2026-03-22T15:49:38.983Z</time></trkpt><trkpt lat="43.9849098" lon="12.4104326"><ele>125.0</ele><time>2026-03-22T15:49:39.982Z</time></trkpt><trkpt lat="43.9850581" lon="12.4104216"><ele>124.0</ele><time>2026-03-22T15:49:40.983Z</time></trkpt><trkpt lat="43.9852047" lon="12.4104111"><ele>123.0</ele><time>2026-03-22T15:49:41.983Z</time></trkpt><trkpt lat="43.9853583" lon="12.4104139"><ele>122.0</ele><time>2026-03-22T15:49:42.982Z</time></trkpt><trkpt lat="43.9855215" lon="12.4104289"><ele>122.0</ele><time>2026-03-22T15:49:43.982Z</time></trkpt><trkpt lat="43.985684" lon="12.4104583"><ele>122.0</ele><time>2026-03-22T15:49:44.982Z</time></trkpt><trkpt lat="43.9858457" lon="12.4105016"><ele>122.0</ele><time>2026-03-22T15:49:45.983Z</time></trkpt><trkpt lat="43.9860108" lon="12.4105656"><ele>122.0</ele><time>2026-03-22T15:49:46.983Z</time></trkpt><trkpt lat="43.986176" lon="12.4106521"><ele>122.0</ele><time>2026-03-22T15:49:47.982Z</time></trkpt><trkpt lat="43.9863365" lon="12.4107642"><ele>122.0</ele><time>2026-03-22T15:49:48.983Z</time></trkpt><trkpt lat="43.9864906" lon="12.4108951"><ele>122.0</ele><time>2026-03-22T15:49:49.982Z</time></trkpt><trkpt lat="43.986637" lon="12.4110375"><ele>122.0</ele><time>2026-03-22T15:49:50.982Z</time></trkpt><trkpt lat="43.986763" lon="12.411176"><ele>122.0</ele><time>2026-03-22T15:49:51.983Z</time></trkpt><trkpt lat="43.9868777" lon="12.411307"><ele>121.0</ele><time>2026-03-22T15:49:52.983Z</time></trkpt><trkpt lat="43.9869794" lon="12.4114458"><ele>120.0</ele><time>2026-03-22T15:49:53.983Z</time></trkpt><trkpt lat="43.9870762" lon="12.4115981"><ele>119.0</ele><time>2026-03-22T15:49:54.983Z</time></trkpt><trkpt lat="43.9871753" lon="12.4117543"><ele>118.0</ele><time>2026-03-22T15:49:55.982Z</time></trkpt><trkpt lat="43.9872751" lon="12.4119149"><ele>118.0</ele><time>2026-03-22T15:49:56.983Z</time></trkpt><trkpt lat="43.9873789" lon="12.4120835"><ele>118.0</ele><time>2026-03-22T15:49:57.983Z</time></trkpt><trkpt lat="43.9874891" lon="12.4122576"><ele>118.0</ele><time>2026-03-22T15:49:58.983Z</time></trkpt><trkpt lat="43.9875997" lon="12.4124368"><ele>115.66666666666667</ele><time>2026-03-22T15:49:59.983Z</time></trkpt><trkpt lat="43.9877082" lon="12.4126092"><ele>113.33333333333334</ele><time>2026-03-22T15:50:00.983Z</time></trkpt><trkpt lat="43.9878117" lon="12.4127785"><ele>111.0</ele><time>2026-03-22T15:50:01.982Z</time></trkpt><trkpt lat="43.9879205" lon="12.4129477"><ele>113.0</ele><time>2026-03-22T15:50:02.982Z</time></trkpt><trkpt lat="43.9880291" lon="12.4131133"><ele>115.0</ele><time>2026-03-22T15:50:03.982Z</time></trkpt><trkpt lat="43.9881483" lon="12.4132689"><ele>117.0</ele><time>2026-03-22T15:50:04.983Z</time></trkpt><trkpt lat="43.988269" lon="12.4134119"><ele>114.66666666666666</ele><time>2026-03-22T15:50:05.982Z</time></trkpt><trkpt lat="43.9883918" lon="12.4135414"><ele>112.33333333333333</ele><time>2026-03-22T15:50:06.983Z</time></trkpt><trkpt lat="43.9885182" lon="12.4136574"><ele>110.0</ele><time>2026-03-22T15:50:07.983Z</time></trkpt><trkpt lat="43.9886485" lon="12.4137628"><ele>111.25</ele><time>2026-03-22T15:50:08.982Z</time></trkpt><trkpt lat="43.9887754" lon="12.413858"><ele>112.5</ele><time>2026-03-22T15:50:09.983Z</time></trkpt><trkpt lat="43.9889007" lon="12.4139439"><ele>113.75</ele><time>2026-03-22T15:50:10.982Z</time></trkpt><trkpt lat="43.9890256" lon="12.4140224"><ele>115.0</ele><time>2026-03-22T15:50:11.983Z</time></trkpt><trkpt lat="43.989152" lon="12.4140982"><ele>112.66666666666667</ele><time>2026-03-22T15:50:12.983Z</time></trkpt><trkpt lat="43.9892856" lon="12.4141796"><ele>110.33333333333334</ele><time>2026-03-22T15:50:13.982Z</time></trkpt><trkpt lat="43.9894233" lon="12.4142623"><ele>108.0</ele><time>2026-03-22T15:50:14.983Z</time></trkpt><trkpt lat="43.9895684" lon="12.4143527"><ele>108.0</ele><time>2026-03-22T15:50:15.982Z</time></trkpt><trkpt lat="43.9897174" lon="12.4144494"><ele>108.0</ele><time>2026-03-22T15:50:16.983Z</time></trkpt><trkpt lat="43.9898563" lon="12.4145519"><ele>108.0</ele><time>2026-03-22T15:50:17.983Z</time></trkpt><trkpt lat="43.9899877" lon="12.4146617"><ele>107.5</ele><time>2026-03-22T15:50:18.982Z</time></trkpt><trkpt lat="43.9901117" lon="12.4147741"><ele>107.0</ele><time>2026-03-22T15:50:19.983Z</time></trkpt><trkpt lat="43.9902301" lon="12.4148821"><ele>106.5</ele><time>2026-03-22T15:50:20.983Z</time></trkpt><trkpt lat="43.9903499" lon="12.4149922"><ele>106.0</ele><time>2026-03-22T15:50:21.982Z</time></trkpt><trkpt lat="43.9904684" lon="12.4151071"><ele>106.0</ele><time>2026-03-22T15:50:22.982Z</time></trkpt><trkpt lat="43.9905782" lon="12.4152195"><ele>106.0</ele><time>2026-03-22T15:50:23.983Z</time></trkpt><trkpt lat="43.9906835" lon="12.4153248"><ele>106.0</ele><time>2026-03-22T15:50:24.983Z</time></trkpt><trkpt lat="43.9907794" lon="12.4154201"><ele>106.0</ele><time>2026-03-22T15:50:25.983Z</time></trkpt><trkpt lat="43.9908739" lon="12.4155144"><ele>105.6</ele><time>2026-03-22T15:50:26.982Z</time></trkpt><trkpt lat="43.9909603" lon="12.4156005"><ele>105.19999999999999</ele><time>2026-03-22T15:50:27.982Z</time></trkpt><trkpt lat="43.9910386" lon="12.4156854"><ele>104.80000000000001</ele><time>2026-03-22T15:50:28.982Z</time></trkpt><trkpt lat="43.9911176" lon="12.4157663"><ele>104.4</ele><time>2026-03-22T15:50:29.983Z</time></trkpt><trkpt lat="43.9911933" lon="12.4158482"><ele>104.0</ele><time>2026-03-22T15:50:30.982Z</time></trkpt><trkpt lat="43.9912623" lon="12.4159324"><ele>103.99999999999999</ele><time>2026-03-22T15:50:31.983Z</time></trkpt><trkpt lat="43.9913093" lon="12.416026"><ele>104.0</ele><time>2026-03-22T15:50:32.982Z</time></trkpt><trkpt lat="43.9913528" lon="12.4161176"><ele>104.0</ele><time>2026-03-22T15:50:33.982Z</time></trkpt><trkpt lat="43.9914062" lon="12.4162006"><ele>104.0</ele><time>2026-03-22T15:50:34.982Z</time></trkpt><trkpt lat="43.9914786" lon="12.4162674"><ele>103.99999999999999</ele><time>2026-03-22T15:50:35.983Z</time></trkpt><trkpt lat="43.9915639" lon="12.416317"><ele>104.0</ele><time>2026-03-22T15:50:36.983Z</time></trkpt><trkpt lat="43.9916606" lon="12.4163707"><ele>104.0</ele><time>2026-03-22T15:50:37.983Z</time></trkpt><trkpt lat="43.9917602" lon="12.4164457"><ele>104.0</ele><time>2026-03-22T15:50:38.983Z</time></trkpt><trkpt lat="43.9918594" lon="12.4165447"><ele>104.0</ele><time>2026-03-22T15:50:39.983Z</time></trkpt><trkpt lat="43.9919681" lon="12.4166584"><ele>104.0</ele><time>2026-03-22T15:50:40.982Z</time></trkpt><trkpt lat="43.9920795" lon="12.4167825"><ele>104.0</ele><time>2026-03-22T15:50:41.982Z</time></trkpt><trkpt lat="43.9921929" lon="12.4169142"><ele>104.0</ele><time>2026-03-22T15:50:42.982Z</time></trkpt><trkpt lat="43.9923042" lon="12.417043"><ele>104.0</ele><time>2026-03-22T15:50:43.983Z</time></trkpt><trkpt lat="43.9924074" lon="12.4171699"><ele>104.0</ele><time>2026-03-22T15:50:44.982Z</time></trkpt><trkpt lat="43.9925075" lon="12.4172945"><ele>103.75</ele><time>2026-03-22T15:50:45.983Z</time></trkpt><trkpt lat="43.9926042" lon="12.4174178"><ele>103.5</ele><time>2026-03-22T15:50:46.982Z</time></trkpt><trkpt lat="43.992693" lon="12.4175391"><ele>103.25</ele><time>2026-03-22T15:50:47.983Z</time></trkpt><trkpt lat="43.9927744" lon="12.4176558"><ele>103.0</ele><time>2026-03-22T15:50:48.982Z</time></trkpt><trkpt lat="43.992859" lon="12.4177705"><ele>103.0</ele><time>2026-03-22T15:50:49.983Z</time></trkpt><trkpt lat="43.9929445" lon="12.4178851"><ele>103.0</ele><time>2026-03-22T15:50:50.983Z</time></trkpt><trkpt lat="43.9930262" lon="12.4180002"><ele>103.0</ele><time>2026-03-22T15:50:51.982Z</time></trkpt><trkpt lat="43.9931113" lon="12.4181185"><ele>103.0</ele><time>2026-03-22T15:50:52.983Z</time></trkpt><trkpt lat="43.9931938" lon="12.4182328"><ele>103.0</ele><time>2026-03-22T15:50:53.983Z</time></trkpt><trkpt lat="43.9932706" lon="12.4183392"><ele>103.0</ele><time>2026-03-22T15:50:54.982Z</time></trkpt><trkpt lat="43.9933396" lon="12.4184306"><ele>103.0</ele><time>2026-03-22T15:50:55.983Z</time></trkpt><trkpt lat="43.9934075" lon="12.4185159"><ele>103.0</ele><time>2026-03-22T15:50:56.983Z</time></trkpt><trkpt lat="43.9934722" lon="12.4185945"><ele>103.0</ele><time>2026-03-22T15:50:57.982Z</time></trkpt><trkpt lat="43.9935307" lon="12.418666"><ele>103.00000000000001</ele><time>2026-03-22T15:50:58.982Z</time></trkpt><trkpt lat="43.9935841" lon="12.4187361"><ele>103.0</ele><time>2026-03-22T15:50:59.983Z</time></trkpt><trkpt lat="43.9936283" lon="12.4188059"><ele>103.0</ele><time>2026-03-22T15:51:00.982Z</time></trkpt><trkpt lat="43.993673" lon="12.418892"><ele>103.0</ele><time>2026-03-22T15:51:01.982Z</time></trkpt><trkpt lat="43.9937267" lon="12.41901"><ele>103.00000000000001</ele><time>2026-03-22T15:51:02.983Z</time></trkpt><trkpt lat="43.9937969" lon="12.4191392"><ele>103.0</ele><time>2026-03-22T15:51:03.982Z</time></trkpt><trkpt lat="43.9938786" lon="12.4192731"><ele>103.25</ele><time>2026-03-22T15:51:04.983Z</time></trkpt><trkpt lat="43.9939667" lon="12.41941"><ele>103.5</ele><time>2026-03-22T15:51:05.982Z</time></trkpt><trkpt lat="43.994064" lon="12.4195518"><ele>103.75</ele><time>2026-03-22T15:51:06.982Z</time></trkpt><trkpt lat="43.994163" lon="12.4196998"><ele>104.0</ele><time>2026-03-22T15:51:07.983Z</time></trkpt><trkpt lat="43.9942666" lon="12.4198522"><ele>104.0</ele><time>2026-03-22T15:51:08.982Z</time></trkpt><trkpt lat="43.9943729" lon="12.4200084"><ele>104.0</ele><time>2026-03-22T15:51:09.983Z</time></trkpt><trkpt lat="43.9944782" lon="12.4201652"><ele>104.0</ele><time>2026-03-22T15:51:10.982Z</time></trkpt><trkpt lat="43.9945819" lon="12.4203197"><ele>104.0</ele><time>2026-03-22T15:51:11.982Z</time></trkpt><trkpt lat="43.994684" lon="12.4204677"><ele>104.0</ele><time>2026-03-22T15:51:12.982Z</time></trkpt><trkpt lat="43.9947798" lon="12.4206082"><ele>104.0</ele><time>2026-03-22T15:51:13.983Z</time></trkpt><trkpt lat="43.9948682" lon="12.4207435"><ele>104.0</ele><time>2026-03-22T15:51:14.982Z</time></trkpt><trkpt lat="43.9949592" lon="12.4208782"><ele>103.33333333333333</ele><time>2026-03-22T15:51:15.982Z</time></trkpt><trkpt lat="43.9950644" lon="12.4210218"><ele>102.66666666666666</ele><time>2026-03-22T15:51:16.982Z</time></trkpt><trkpt lat="43.9951744" lon="12.4211762"><ele>102.0</ele><time>2026-03-22T15:51:17.982Z</time></trkpt><trkpt lat="43.9952762" lon="12.4213292"><ele>102.0</ele><time>2026-03-22T15:51:18.983Z</time></trkpt><trkpt lat="43.99538" lon="12.4214823"><ele>102.0</ele><time>2026-03-22T15:51:19.983Z</time></trkpt><trkpt lat="43.9954836" lon="12.4216379"><ele>102.0</ele><time>2026-03-22T15:51:20.982Z</time></trkpt><trkpt lat="43.9955879" lon="12.4217919"><ele>102.0</ele><time>2026-03-22T15:51:21.982Z</time></trkpt><trkpt lat="43.9956927" lon="12.421943"><ele>102.0</ele><time>2026-03-22T15:51:22.983Z</time></trkpt><trkpt lat="43.9957941" lon="12.4220971"><ele>102.0</ele><time>2026-03-22T15:51:23.983Z</time></trkpt><trkpt lat="43.9958951" lon="12.4222467"><ele>102.0</ele><time>2026-03-22T15:51:24.982Z</time></trkpt><trkpt lat="43.995993" lon="12.4223855"><ele>102.0</ele><time>2026-03-22T15:51:25.983Z</time></trkpt><trkpt lat="43.9960816" lon="12.4225195"><ele>102.0</ele><time>2026-03-22T15:51:26.982Z</time></trkpt><trkpt lat="43.9961678" lon="12.4226474"><ele>102.0</ele><time>2026-03-22T15:51:27.982Z</time></trkpt><trkpt lat="43.9962452" lon="12.422773"><ele>102.0</ele><time>2026-03-22T15:51:28.982Z</time></trkpt><trkpt lat="43.9963167" lon="12.422887"><ele>102.0</ele><time>2026-03-22T15:51:29.983Z</time></trkpt><trkpt lat="43.9963868" lon="12.4229907"><ele>102.0</ele><time>2026-03-22T15:51:30.983Z</time></trkpt><trkpt lat="43.9964599" lon="12.4230924"><ele>102.0</ele><time>2026-03-22T15:51:31.983Z</time></trkpt><trkpt lat="43.9965326" lon="12.4231887"><ele>102.0</ele><time>2026-03-22T15:51:32.983Z</time></trkpt><trkpt lat="43.9966049" lon="12.423291"><ele>102.0</ele><time>2026-03-22T15:51:33.983Z</time></trkpt><trkpt lat="43.9966774" lon="12.4234016"><ele>102.0</ele><time>2026-03-22T15:51:34.982Z</time></trkpt><trkpt lat="43.9967449" lon="12.4235075"><ele>102.0</ele><time>2026-03-22T15:51:35.983Z</time></trkpt><trkpt lat="43.9968085" lon="12.4236063"><ele>102.0</ele><time>2026-03-22T15:51:36.983Z</time></trkpt><trkpt lat="43.9968661" lon="12.4236954"><ele>102.0</ele><time>2026-03-22T15:51:37.983Z</time></trkpt><trkpt lat="43.9969183" lon="12.4237822"><ele>102.0</ele><time>2026-03-22T15:51:38.983Z</time></trkpt><trkpt lat="43.9969644" lon="12.4238703"><ele>102.0</ele><time>2026-03-22T15:51:39.983Z</time></trkpt><trkpt lat="43.9970145" lon="12.4239982"><ele>102.0</ele><time>2026-03-22T15:51:41.983Z</time></trkpt><trkpt lat="43.9970489" lon="12.4241191"><ele>102.0</ele><time>2026-03-22T15:51:45.982Z</time></trkpt><trkpt lat="43.9970562" lon="12.4242448"><ele>102.0</ele><time>2026-03-22T15:51:47.983Z</time></trkpt><trkpt lat="43.9970825" lon="12.4243716"><ele>102.0</ele><time>2026-03-22T15:51:49.983Z</time></trkpt><trkpt lat="43.9971822" lon="12.4244732"><ele>102.0</ele><time>2026-03-22T15:51:51.983Z</time></trkpt><trkpt lat="43.9972549" lon="12.4244883"><ele>102.0</ele><time>2026-03-22T15:51:52.982Z</time></trkpt><trkpt lat="43.9973448" lon="12.424512"><ele>102.0</ele><time>2026-03-22T15:51:53.982Z</time></trkpt><trkpt lat="43.9974321" lon="12.424568"><ele>102.0</ele><time>2026-03-22T15:51:54.983Z</time></trkpt><trkpt lat="43.9975066" lon="12.4246426"><ele>102.0</ele><time>2026-03-22T15:51:55.982Z</time></trkpt><trkpt lat="43.9975778" lon="12.4247403"><ele>102.0</ele><time>2026-03-22T15:51:56.983Z</time></trkpt><trkpt lat="43.9976513" lon="12.4248488"><ele>101.6</ele><time>2026-03-22T15:51:57.982Z</time></trkpt><trkpt lat="43.9977308" lon="12.4249619"><ele>101.19999999999999</ele><time>2026-03-22T15:51:58.982Z</time></trkpt><trkpt lat="43.9978131" lon="12.4250778"><ele>100.8</ele><time>2026-03-22T15:51:59.983Z</time></trkpt><trkpt lat="43.9978896" lon="12.4251826"><ele>100.4</ele><time>2026-03-22T15:52:00.983Z</time></trkpt><trkpt lat="43.9979646" lon="12.4252808"><ele>100.0</ele><time>2026-03-22T15:52:01.982Z</time></trkpt><trkpt lat="43.9980464" lon="12.4253778"><ele>100.0</ele><time>2026-03-22T15:52:02.983Z</time></trkpt><trkpt lat="43.9981339" lon="12.4254756"><ele>100.0</ele><time>2026-03-22T15:52:03.982Z</time></trkpt><trkpt lat="43.998228" lon="12.4255755"><ele>100.0</ele><time>2026-03-22T15:52:04.982Z</time></trkpt><trkpt lat="43.9983284" lon="12.4256801"><ele>100.0</ele><time>2026-03-22T15:52:05.983Z</time></trkpt><trkpt lat="43.9984343" lon="12.4257891"><ele>100.0</ele><time>2026-03-22T15:52:06.983Z</time></trkpt><trkpt lat="43.9985409" lon="12.4258974"><ele>100.0</ele><time>2026-03-22T15:52:07.983Z</time></trkpt><trkpt lat="43.9986416" lon="12.4259997"><ele>100.0</ele><time>2026-03-22T15:52:08.982Z</time></trkpt><trkpt lat="43.9987374" lon="12.4260946"><ele>100.0</ele><time>2026-03-22T15:52:09.983Z</time></trkpt><trkpt lat="43.9988358" lon="12.4261923"><ele>100.0</ele><time>2026-03-22T15:52:10.983Z</time></trkpt><trkpt lat="43.9989337" lon="12.4262936"><ele>100.0</ele><time>2026-03-22T15:52:11.983Z</time></trkpt><trkpt lat="43.9990253" lon="12.4263862"><ele>100.0</ele><time>2026-03-22T15:52:12.982Z</time></trkpt><trkpt lat="43.9991065" lon="12.4264719"><ele>100.0</ele><time>2026-03-22T15:52:13.983Z</time></trkpt><trkpt lat="43.9991756" lon="12.4265413"><ele>100.0</ele><time>2026-03-22T15:52:14.983Z</time></trkpt><trkpt lat="43.9992308" lon="12.4266016"><ele>99.66666666666667</ele><time>2026-03-22T15:52:15.983Z</time></trkpt><trkpt lat="43.9993044" lon="12.4267007"><ele>99.33333333333334</ele><time>2026-03-22T15:52:17.982Z</time></trkpt><trkpt lat="43.9993181" lon="12.4267919"><ele>99.0</ele><time>2026-03-22T15:52:19.983Z</time></trkpt><trkpt lat="43.9993262" lon="12.4269114"><ele>98.66666666666666</ele><time>2026-03-22T15:52:21.983Z</time></trkpt><trkpt lat="43.9993663" lon="12.4270606"><ele>98.33333333333333</ele><time>2026-03-22T15:52:23.983Z</time></trkpt><trkpt lat="43.9994225" lon="12.4271127"><ele>98.0</ele><time>2026-03-22T15:52:24.983Z</time></trkpt><trkpt lat="43.9994875" lon="12.4271301"><ele>97.99999999999999</ele><time>2026-03-22T15:52:25.983Z</time></trkpt><trkpt lat="43.999574" lon="12.4270436"><ele>98.0</ele><time>2026-03-22T15:52:27.982Z</time></trkpt><trkpt lat="43.9995428" lon="12.4269034"><ele>98.0</ele><time>2026-03-22T15:52:29.982Z</time></trkpt><trkpt lat="43.9995054" lon="12.4268286"><ele>98.0</ele><time>2026-03-22T15:52:30.983Z</time></trkpt><trkpt lat="43.9994636" lon="12.4267342"><ele>97.99999999999999</ele><time>2026-03-22T15:52:32.982Z</time></trkpt><trkpt lat="43.9994878" lon="12.4266467"><ele>98.0</ele><time>2026-03-22T15:52:35.982Z</time></trkpt><trkpt lat="43.9994755" lon="12.4265494"><ele>97.99999999999999</ele><time>2026-03-22T15:53:20.983Z</time></trkpt><trkpt lat="43.9994142" lon="12.4266077"><ele>98.0</ele><time>2026-03-22T15:53:23.982Z</time></trkpt><trkpt lat="43.9993877" lon="12.4267159"><ele>98.0</ele><time>2026-03-22T15:53:28.982Z</time></trkpt><trkpt lat="43.9993653" lon="12.4268109"><ele>98.0</ele><time>2026-03-22T15:53:29.982Z</time></trkpt><trkpt lat="43.9993501" lon="12.4269051"><ele>97.99999999999999</ele><time>2026-03-22T15:53:30.983Z</time></trkpt><trkpt lat="43.9993839" lon="12.4270535"><ele>98.0</ele><time>2026-03-22T15:53:32.983Z</time></trkpt><trkpt lat="43.9994377" lon="12.4271109"><ele>97.99999999999999</ele><time>2026-03-22T15:53:33.982Z</time></trkpt><trkpt lat="43.9995125" lon="12.4271436"><ele>98.0</ele><time>2026-03-22T15:53:34.983Z</time></trkpt><trkpt lat="43.9995943" lon="12.4271444"><ele>98.0</ele><time>2026-03-22T15:53:35.982Z</time></trkpt><trkpt lat="43.9996719" lon="12.4271446"><ele>98.0</ele><time>2026-03-22T15:53:36.983Z</time></trkpt><trkpt lat="43.9997439" lon="12.4271598"><ele>97.99999999999999</ele><time>2026-03-22T15:53:37.983Z</time></trkpt><trkpt lat="43.9998175" lon="12.4272004"><ele>98.0</ele><time>2026-03-22T15:53:38.983Z</time></trkpt><trkpt lat="43.9998944" lon="12.4272721"><ele>98.5</ele><time>2026-03-22T15:53:39.983Z</time></trkpt><trkpt lat="43.9999803" lon="12.4273616"><ele>99.0</ele><time>2026-03-22T15:53:40.982Z</time></trkpt><trkpt lat="44.0000807" lon="12.4274597"><ele>99.5</ele><time>2026-03-22T15:53:41.983Z</time></trkpt><trkpt lat="44.0001896" lon="12.4275691"><ele>100.0</ele><time>2026-03-22T15:53:42.982Z</time></trkpt><trkpt lat="44.0003073" lon="12.4276853"><ele>100.0</ele><time>2026-03-22T15:53:43.983Z</time></trkpt><trkpt lat="44.0004298" lon="12.4278067"><ele>100.0</ele><time>2026-03-22T15:53:44.983Z</time></trkpt><trkpt lat="44.0005483" lon="12.4279224"><ele>100.0</ele><time>2026-03-22T15:53:45.982Z</time></trkpt><trkpt lat="44.0006577" lon="12.428041"><ele>100.0</ele><time>2026-03-22T15:53:46.983Z</time></trkpt><trkpt lat="44.0007592" lon="12.428153"><ele>99.75</ele><time>2026-03-22T15:53:47.982Z</time></trkpt><trkpt lat="44.0008522" lon="12.4282685"><ele>99.5</ele><time>2026-03-22T15:53:48.982Z</time></trkpt><trkpt lat="44.0009357" lon="12.4283935"><ele>99.25</ele><time>2026-03-22T15:53:49.983Z</time></trkpt><trkpt lat="44.0010103" lon="12.4285261"><ele>99.0</ele><time>2026-03-22T15:53:50.983Z</time></trkpt><trkpt lat="44.001078" lon="12.428651"><ele>99.0</ele><time>2026-03-22T15:53:51.983Z</time></trkpt><trkpt lat="44.0011423" lon="12.4287714"><ele>99.0</ele><time>2026-03-22T15:53:52.983Z</time></trkpt><trkpt lat="44.0012012" lon="12.4288872"><ele>99.0</ele><time>2026-03-22T15:53:53.983Z</time></trkpt><trkpt lat="44.0012546" lon="12.4290014"><ele>99.0</ele><time>2026-03-22T15:53:54.982Z</time></trkpt><trkpt lat="44.0013085" lon="12.4291098"><ele>99.0</ele><time>2026-03-22T15:53:55.983Z</time></trkpt><trkpt lat="44.0013649" lon="12.4292196"><ele>99.0</ele><time>2026-03-22T15:53:56.982Z</time></trkpt><trkpt lat="44.0014236" lon="12.4293334"><ele>99.0</ele><time>2026-03-22T15:53:57.982Z</time></trkpt><trkpt lat="44.0014781" lon="12.4294462"><ele>99.0</ele><time>2026-03-22T15:53:58.982Z</time></trkpt><trkpt lat="44.0015293" lon="12.4295543"><ele>99.0</ele><time>2026-03-22T15:53:59.983Z</time></trkpt><trkpt lat="44.0015772" lon="12.4296514"><ele>99.0</ele><time>2026-03-22T15:54:00.982Z</time></trkpt><trkpt lat="44.0016263" lon="12.429747"><ele>98.5</ele><time>2026-03-22T15:54:01.983Z</time></trkpt><trkpt lat="44.0016748" lon="12.4298441"><ele>98.0</ele><time>2026-03-22T15:54:02.983Z</time></trkpt><trkpt lat="44.0017245" lon="12.4299415"><ele>97.5</ele><time>2026-03-22T15:54:03.983Z</time></trkpt><trkpt lat="44.0017738" lon="12.4300385"><ele>97.0</ele><time>2026-03-22T15:54:04.983Z</time></trkpt><trkpt lat="44.0018239" lon="12.4301374"><ele>96.5</ele><time>2026-03-22T15:54:05.982Z</time></trkpt><trkpt lat="44.0018726" lon="12.4302363"><ele>96.0</ele><time>2026-03-22T15:54:06.983Z</time></trkpt><trkpt lat="44.0019233" lon="12.4303336"><ele>96.0</ele><time>2026-03-22T15:54:07.983Z</time></trkpt><trkpt lat="44.001969" lon="12.4304266"><ele>96.0</ele><time>2026-03-22T15:54:08.982Z</time></trkpt><trkpt lat="44.0020142" lon="12.4305226"><ele>96.0</ele><time>2026-03-22T15:54:09.982Z</time></trkpt><trkpt lat="44.0020625" lon="12.4306239"><ele>96.0</ele><time>2026-03-22T15:54:10.983Z</time></trkpt><trkpt lat="44.0021146" lon="12.4307302"><ele>96.0</ele><time>2026-03-22T15:54:11.983Z</time></trkpt><trkpt lat="44.0021651" lon="12.4308298"><ele>96.0</ele><time>2026-03-22T15:54:12.983Z</time></trkpt><trkpt lat="44.0022104" lon="12.4309293"><ele>95.66666666666667</ele><time>2026-03-22T15:54:13.983Z</time></trkpt><trkpt lat="44.0022541" lon="12.431026"><ele>95.33333333333333</ele><time>2026-03-22T15:54:14.983Z</time></trkpt><trkpt lat="44.0023053" lon="12.4311251"><ele>95.0</ele><time>2026-03-22T15:54:15.982Z</time></trkpt><trkpt lat="44.0023556" lon="12.4312244"><ele>94.66666666666666</ele><time>2026-03-22T15:54:16.983Z</time></trkpt><trkpt lat="44.0024024" lon="12.4313199"><ele>94.33333333333333</ele><time>2026-03-22T15:54:17.983Z</time></trkpt><trkpt lat="44.0024503" lon="12.4314129"><ele>94.0</ele><time>2026-03-22T15:54:18.983Z</time></trkpt><trkpt lat="44.0024976" lon="12.4315084"><ele>94.0</ele><time>2026-03-22T15:54:19.983Z</time></trkpt><trkpt lat="44.0025435" lon="12.4316073"><ele>94.0</ele><time>2026-03-22T15:54:20.982Z</time></trkpt><trkpt lat="44.0025913" lon="12.4317049"><ele>94.0</ele><time>2026-03-22T15:54:21.983Z</time></trkpt><trkpt lat="44.002639" lon="12.4317984"><ele>94.0</ele><time>2026-03-22T15:54:22.983Z</time></trkpt><trkpt lat="44.0026908" lon="12.4318931"><ele>94.0</ele><time>2026-03-22T15:54:23.982Z</time></trkpt><trkpt lat="44.0027384" lon="12.4319892"><ele>94.0</ele><time>2026-03-22T15:54:24.982Z</time></trkpt><trkpt lat="44.0027837" lon="12.4320862"><ele>93.66666666666666</ele><time>2026-03-22T15:54:25.983Z</time></trkpt><trkpt lat="44.0028342" lon="12.4321837"><ele>93.33333333333333</ele><time>2026-03-22T15:54:26.983Z</time></trkpt><trkpt lat="44.0028834" lon="12.432281"><ele>93.0</ele><time>2026-03-22T15:54:27.982Z</time></trkpt><trkpt lat="44.002928" lon="12.4323774"><ele>92.66666666666667</ele><time>2026-03-22T15:54:28.983Z</time></trkpt><trkpt lat="44.0029751" lon="12.4324736"><ele>92.33333333333334</ele><time>2026-03-22T15:54:29.982Z</time></trkpt><trkpt lat="44.003018" lon="12.4325611"><ele>92.0</ele><time>2026-03-22T15:54:30.983Z</time></trkpt><trkpt lat="44.0030593" lon="12.4326487"><ele>92.0</ele><time>2026-03-22T15:54:31.983Z</time></trkpt><trkpt lat="44.0030981" lon="12.432725"><ele>92.0</ele><time>2026-03-22T15:54:32.983Z</time></trkpt><trkpt lat="44.0031328" lon="12.4327981"><ele>92.0</ele><time>2026-03-22T15:54:33.983Z</time></trkpt><trkpt lat="44.0031909" lon="12.4329118"><ele>92.0</ele><time>2026-03-22T15:54:35.982Z</time></trkpt><trkpt lat="44.0032364" lon="12.4330055"><ele>92.0</ele><time>2026-03-22T15:54:37.982Z</time></trkpt><trkpt lat="44.0032892" lon="12.4331084"><ele>92.0</ele><time>2026-03-22T15:54:39.982Z</time></trkpt><trkpt lat="44.0033462" lon="12.4332229"><ele>91.6</ele><time>2026-03-22T15:54:41.982Z</time></trkpt><trkpt lat="44.0034057" lon="12.4333424"><ele>91.19999999999999</ele><time>2026-03-22T15:54:43.982Z</time></trkpt><trkpt lat="44.0034684" lon="12.4334634"><ele>90.8</ele><time>2026-03-22T15:54:45.982Z</time></trkpt><trkpt lat="44.0035344" lon="12.4335989"><ele>90.4</ele><time>2026-03-22T15:54:47.983Z</time></trkpt><trkpt lat="44.0036014" lon="12.4337354"><ele>90.0</ele><time>2026-03-22T15:54:49.982Z</time></trkpt><trkpt lat="44.0036621" lon="12.4338667"><ele>89.83333333333333</ele><time>2026-03-22T15:54:51.982Z</time></trkpt><trkpt lat="44.0037186" lon="12.4339876"><ele>89.66666666666667</ele><time>2026-03-22T15:54:53.982Z</time></trkpt><trkpt lat="44.0037636" lon="12.4340602"><ele>89.5</ele><time>2026-03-22T15:54:56.983Z</time></trkpt><trkpt lat="44.0038096" lon="12.4341437"><ele>89.33333333333334</ele><time>2026-03-22T15:54:58.982Z</time></trkpt><trkpt lat="44.0038526" lon="12.4342434"><ele>89.16666666666667</ele><time>2026-03-22T15:55:00.982Z</time></trkpt><trkpt lat="44.0039008" lon="12.4343815"><ele>89.0</ele><time>2026-03-22T15:55:02.983Z</time></trkpt><trkpt lat="44.0039266" lon="12.4344761"><ele>88.99999999999999</ele><time>2026-03-22T15:55:04.983Z</time></trkpt><trkpt lat="44.003953" lon="12.4345662"><ele>89.0</ele><time>2026-03-22T15:55:07.983Z</time></trkpt><trkpt lat="44.0040037" lon="12.434651"><ele>89.0</ele><time>2026-03-22T15:55:26.983Z</time></trkpt><trkpt lat="44.0040245" lon="12.4347357"><ele>89.0</ele><time>2026-03-22T15:55:32.983Z</time></trkpt><trkpt lat="44.0040245" lon="12.4348423"><ele>89.0</ele><time>2026-03-22T15:55:42.982Z</time></trkpt><trkpt lat="44.0040594" lon="12.4349406"><ele>88.99999999999999</ele><time>2026-03-22T15:55:49.983Z</time></trkpt><trkpt lat="44.0041185" lon="12.4349078"><ele>89.0</ele><time>2026-03-22T15:55:59.983Z</time></trkpt><trkpt lat="44.00422" lon="12.4350186"><ele>89.0</ele><time>2026-03-22T15:56:02.983Z</time></trkpt><trkpt lat="44.0042602" lon="12.435089"><ele>89.0</ele><time>2026-03-22T15:56:03.983Z</time></trkpt><trkpt lat="44.0043061" lon="12.4351789"><ele>89.0</ele><time>2026-03-22T15:56:04.983Z</time></trkpt><trkpt lat="44.0043621" lon="12.4352866"><ele>89.0</ele><time>2026-03-22T15:56:05.982Z</time></trkpt><trkpt lat="44.0044251" lon="12.4354021"><ele>89.0</ele><time>2026-03-22T15:56:06.982Z</time></trkpt><trkpt lat="44.0044889" lon="12.4355251"><ele>89.0</ele><time>2026-03-22T15:56:07.983Z</time></trkpt><trkpt lat="44.0045602" lon="12.4356479"><ele>89.0</ele><time>2026-03-22T15:56:08.982Z</time></trkpt><trkpt lat="44.0046288" lon="12.435765"><ele>89.0</ele><time>2026-03-22T15:56:09.983Z</time></trkpt><trkpt lat="44.0046944" lon="12.435873"><ele>89.0</ele><time>2026-03-22T15:56:10.983Z</time></trkpt><trkpt lat="44.0047534" lon="12.435975"><ele>89.0</ele><time>2026-03-22T15:56:11.982Z</time></trkpt><trkpt lat="44.0048213" lon="12.4360728"><ele>89.0</ele><time>2026-03-22T15:56:12.982Z</time></trkpt><trkpt lat="44.0048931" lon="12.436175"><ele>89.0</ele><time>2026-03-22T15:56:13.982Z</time></trkpt><trkpt lat="44.0049685" lon="12.4362815"><ele>89.0</ele><time>2026-03-22T15:56:14.982Z</time></trkpt><trkpt lat="44.005045" lon="12.4363878"><ele>89.0</ele><time>2026-03-22T15:56:15.983Z</time></trkpt><trkpt lat="44.0051236" lon="12.4365026"><ele>89.0</ele><time>2026-03-22T15:56:16.983Z</time></trkpt><trkpt lat="44.0052056" lon="12.4366187"><ele>88.5</ele><time>2026-03-22T15:56:17.983Z</time></trkpt><trkpt lat="44.0052889" lon="12.4367396"><ele>88.0</ele><time>2026-03-22T15:56:18.983Z</time></trkpt><trkpt lat="44.0053799" lon="12.4368606"><ele>87.5</ele><time>2026-03-22T15:56:19.983Z</time></trkpt><trkpt lat="44.0054667" lon="12.4369803"><ele>87.0</ele><time>2026-03-22T15:56:20.982Z</time></trkpt><trkpt lat="44.0055517" lon="12.4370962"><ele>86.75</ele><time>2026-03-22T15:56:21.982Z</time></trkpt><trkpt lat="44.005639" lon="12.4372112"><ele>86.5</ele><time>2026-03-22T15:56:22.982Z</time></trkpt><trkpt lat="44.0057264" lon="12.4373263"><ele>86.25</ele><time>2026-03-22T15:56:23.983Z</time></trkpt><trkpt lat="44.0058114" lon="12.4374405"><ele>86.0</ele><time>2026-03-22T15:56:24.983Z</time></trkpt><trkpt lat="44.0058901" lon="12.4375507"><ele>85.83333333333334</ele><time>2026-03-22T15:56:25.983Z</time></trkpt><trkpt lat="44.0059632" lon="12.4376548"><ele>85.66666666666667</ele><time>2026-03-22T15:56:26.983Z</time></trkpt><trkpt lat="44.0060353" lon="12.4377501"><ele>85.5</ele><time>2026-03-22T15:56:27.982Z</time></trkpt><trkpt lat="44.0060978" lon="12.4378342"><ele>85.33333333333333</ele><time>2026-03-22T15:56:28.983Z</time></trkpt><trkpt lat="44.0061562" lon="12.4379115"><ele>85.16666666666666</ele><time>2026-03-22T15:56:29.982Z</time></trkpt><trkpt lat="44.0062159" lon="12.4379766"><ele>85.0</ele><time>2026-03-22T15:56:30.983Z</time></trkpt><trkpt lat="44.0062644" lon="12.4380326"><ele>85.0</ele><time>2026-03-22T15:56:31.982Z</time></trkpt><trkpt lat="44.0063514" lon="12.4381323"><ele>85.0</ele><time>2026-03-22T15:56:33.983Z</time></trkpt><trkpt lat="44.0064289" lon="12.4382436"><ele>85.0</ele><time>2026-03-22T15:56:35.982Z</time></trkpt><trkpt lat="44.0064964" lon="12.4383309"><ele>85.0</ele><time>2026-03-22T15:56:37.983Z</time></trkpt><trkpt lat="44.0065559" lon="12.4384068"><ele>85.0</ele><time>2026-03-22T15:56:39.983Z</time></trkpt><trkpt lat="44.0066426" lon="12.4385295"><ele>84.66666666666666</ele><time>2026-03-22T15:56:41.983Z</time></trkpt><trkpt lat="44.0066973" lon="12.4386018"><ele>84.33333333333333</ele><time>2026-03-22T15:56:42.982Z</time></trkpt><trkpt lat="44.0067543" lon="12.438678"><ele>84.0</ele><time>2026-03-22T15:56:43.982Z</time></trkpt><trkpt lat="44.0068128" lon="12.4387596"><ele>83.66666666666667</ele><time>2026-03-22T15:56:44.982Z</time></trkpt><trkpt lat="44.0068821" lon="12.438846"><ele>83.33333333333334</ele><time>2026-03-22T15:56:45.983Z</time></trkpt><trkpt lat="44.0069563" lon="12.4389438"><ele>83.0</ele><time>2026-03-22T15:56:46.983Z</time></trkpt><trkpt lat="44.0070317" lon="12.4390468"><ele>83.0</ele><time>2026-03-22T15:56:47.982Z</time></trkpt><trkpt lat="44.0071017" lon="12.4391444"><ele>83.0</ele><time>2026-03-22T15:56:48.982Z</time></trkpt><trkpt lat="44.0071642" lon="12.4392269"><ele>83.0</ele><time>2026-03-22T15:56:49.983Z</time></trkpt><trkpt lat="44.0072183" lon="12.4392993"><ele>83.0</ele><time>2026-03-22T15:56:50.983Z</time></trkpt><trkpt lat="44.0073046" lon="12.439382"><ele>83.0</ele><time>2026-03-22T15:56:52.982Z</time></trkpt><trkpt lat="44.0073085" lon="12.4392689"><ele>83.0</ele><time>2026-03-22T15:56:55.983Z</time></trkpt><trkpt lat="44.0072246" lon="12.4391754"><ele>83.0</ele><time>2026-03-22T15:56:57.983Z</time></trkpt><trkpt lat="44.0071759" lon="12.4391119"><ele>83.0</ele><time>2026-03-22T15:56:58.983Z</time></trkpt><trkpt lat="44.0070938" lon="12.4390034"><ele>83.0</ele><time>2026-03-22T15:57:00.983Z</time></trkpt><trkpt lat="44.0070498" lon="12.4389204"><ele>83.0</ele><time>2026-03-22T15:57:02.983Z</time></trkpt><trkpt lat="44.0071358" lon="12.4388718"><ele>83.0</ele><time>2026-03-22T15:57:05.982Z</time></trkpt><trkpt lat="44.0072131" lon="12.4389645"><ele>83.0</ele><time>2026-03-22T15:57:07.982Z</time></trkpt><trkpt lat="44.0072776" lon="12.4390642"><ele>83.0</ele><time>2026-03-22T15:57:09.983Z</time></trkpt><trkpt lat="44.0073204" lon="12.4391459"><ele>83.0</ele><time>2026-03-22T15:57:11.982Z</time></trkpt></trkseg></trk></gpx>